<?xml version="1.0" encoding="UTF-8" standalone="no" ?>
<gpx xmlns="http://www.topografix.com/GPX/1/1" xmlns:xsi="http://www.w3.org/2001/XMLSchema-instance" xsi:schemaLocation="http://www.topografix.com/GPX/1/1 http://www.topografix.com/GPX/1/1/gpx.xsd" version="1.1" creator="VisuGPX - https://www.visugpx.com">
  <metadata>
    <name>ViaRhôna entre Genève et Lyon (Ornex - Solaize), 1ère partie</name>
    <desc><![CDATA[Trajet suivi entre Ornex et Solaize sur la ViaRhôna en Brompton.]]></desc>
  </metadata>
  <trk>
    <name><![CDATA[2015-05-22 08:53:41 Jour]]></name>
    <trkseg>
      <trkpt lat="46.26398" lon="6.1102">
        <ele>325.64</ele>
        <time>2015-05-22T06:53:41Z</time>
      </trkpt>
      <trkpt lat="46.26398" lon="6.11022">
        <ele>342.7</ele>
        <time>2015-05-22T06:53:42Z</time>
      </trkpt>
      <trkpt lat="46.26387" lon="6.11028">
        <ele>341.92</ele>
        <time>2015-05-22T06:53:51Z</time>
      </trkpt>
      <trkpt lat="46.26393" lon="6.11043">
        <ele>342.22</ele>
        <time>2015-05-22T06:53:55Z</time>
      </trkpt>
      <trkpt lat="46.26383" lon="6.11082">
        <ele>343.09</ele>
        <time>2015-05-22T06:54:02Z</time>
      </trkpt>
      <trkpt lat="46.26383" lon="6.11095">
        <ele>343.4</ele>
        <time>2015-05-22T06:54:04Z</time>
      </trkpt>
      <trkpt lat="46.26354" lon="6.11135">
        <ele>344.52</ele>
        <time>2015-05-22T06:54:14Z</time>
      </trkpt>
      <trkpt lat="46.26347" lon="6.11137">
        <ele>345.11</ele>
        <time>2015-05-22T06:54:22Z</time>
      </trkpt>
      <trkpt lat="46.26329" lon="6.11181">
        <ele>345.61</ele>
        <time>2015-05-22T06:54:46Z</time>
      </trkpt>
      <trkpt lat="46.2632" lon="6.11181">
        <ele>345.41</ele>
        <time>2015-05-22T06:54:49Z</time>
      </trkpt>
      <trkpt lat="46.26293" lon="6.11219">
        <ele>345.15</ele>
        <time>2015-05-22T06:54:53Z</time>
      </trkpt>
      <trkpt lat="46.26289" lon="6.11214">
        <ele>345.08</ele>
        <time>2015-05-22T06:54:54Z</time>
      </trkpt>
      <trkpt lat="46.26225" lon="6.11141">
        <ele>344.7</ele>
        <time>2015-05-22T06:55:08Z</time>
      </trkpt>
      <trkpt lat="46.26201" lon="6.11116">
        <ele>345.11</ele>
        <time>2015-05-22T06:55:13Z</time>
      </trkpt>
      <trkpt lat="46.26146" lon="6.11043">
        <ele>343.65</ele>
        <time>2015-05-22T06:55:23Z</time>
      </trkpt>
      <trkpt lat="46.26139" lon="6.11036">
        <ele>343.35</ele>
        <time>2015-05-22T06:55:24Z</time>
      </trkpt>
      <trkpt lat="46.26079" lon="6.10959">
        <ele>339.57</ele>
        <time>2015-05-22T06:55:33Z</time>
      </trkpt>
      <trkpt lat="46.26073" lon="6.1095">
        <ele>339.57</ele>
        <time>2015-05-22T06:55:34Z</time>
      </trkpt>
      <trkpt lat="46.2605" lon="6.10908">
        <ele>337.17</ele>
        <time>2015-05-22T06:55:41Z</time>
      </trkpt>
      <trkpt lat="46.26032" lon="6.10906">
        <ele>336.46</ele>
        <time>2015-05-22T06:55:51Z</time>
      </trkpt>
      <trkpt lat="46.2603" lon="6.10911">
        <ele>336.45</ele>
        <time>2015-05-22T06:55:52Z</time>
      </trkpt>
      <trkpt lat="46.26028" lon="6.10918">
        <ele>336.45</ele>
        <time>2015-05-22T06:55:53Z</time>
      </trkpt>
      <trkpt lat="46.26026" lon="6.10925">
        <ele>336.45</ele>
        <time>2015-05-22T06:55:54Z</time>
      </trkpt>
      <trkpt lat="46.26025" lon="6.10932">
        <ele>336.45</ele>
        <time>2015-05-22T06:55:55Z</time>
      </trkpt>
      <trkpt lat="46.26009" lon="6.10977">
        <ele>336.15</ele>
        <time>2015-05-22T06:56:01Z</time>
      </trkpt>
      <trkpt lat="46.25977" lon="6.1105">
        <ele>334.16</ele>
        <time>2015-05-22T06:56:12Z</time>
      </trkpt>
      <trkpt lat="46.25972" lon="6.11053">
        <ele>334.01</ele>
        <time>2015-05-22T06:56:13Z</time>
      </trkpt>
      <trkpt lat="46.25967" lon="6.11055">
        <ele>333.82</ele>
        <time>2015-05-22T06:56:14Z</time>
      </trkpt>
      <trkpt lat="46.25961" lon="6.11053">
        <ele>333.62</ele>
        <time>2015-05-22T06:56:15Z</time>
      </trkpt>
      <trkpt lat="46.25956" lon="6.11051">
        <ele>333.42</ele>
        <time>2015-05-22T06:56:16Z</time>
      </trkpt>
      <trkpt lat="46.25951" lon="6.11048">
        <ele>333.19</ele>
        <time>2015-05-22T06:56:17Z</time>
      </trkpt>
      <trkpt lat="46.25946" lon="6.11043">
        <ele>332.95</ele>
        <time>2015-05-22T06:56:18Z</time>
      </trkpt>
      <trkpt lat="46.25922" lon="6.11016">
        <ele>332.19</ele>
        <time>2015-05-22T06:56:22Z</time>
      </trkpt>
      <trkpt lat="46.25911" lon="6.11002">
        <ele>331.91</ele>
        <time>2015-05-22T06:56:24Z</time>
      </trkpt>
      <trkpt lat="46.25905" lon="6.10994">
        <ele>331.83</ele>
        <time>2015-05-22T06:56:25Z</time>
      </trkpt>
      <trkpt lat="46.25842" lon="6.10915">
        <ele>332.17</ele>
        <time>2015-05-22T06:56:38Z</time>
      </trkpt>
      <trkpt lat="46.25835" lon="6.10904">
        <ele>332.12</ele>
        <time>2015-05-22T06:56:40Z</time>
      </trkpt>
      <trkpt lat="46.25831" lon="6.10899">
        <ele>332.02</ele>
        <time>2015-05-22T06:56:41Z</time>
      </trkpt>
      <trkpt lat="46.25823" lon="6.10889">
        <ele>331.81</ele>
        <time>2015-05-22T06:56:43Z</time>
      </trkpt>
      <trkpt lat="46.258" lon="6.10857">
        <ele>332.1</ele>
        <time>2015-05-22T06:56:53Z</time>
      </trkpt>
      <trkpt lat="46.25795" lon="6.10855">
        <ele>332.59</ele>
        <time>2015-05-22T06:56:58Z</time>
      </trkpt>
      <trkpt lat="46.25792" lon="6.10856">
        <ele>332.64</ele>
        <time>2015-05-22T06:56:59Z</time>
      </trkpt>
      <trkpt lat="46.25789" lon="6.10856">
        <ele>332.67</ele>
        <time>2015-05-22T06:57:00Z</time>
      </trkpt>
      <trkpt lat="46.25785" lon="6.10857">
        <ele>332.69</ele>
        <time>2015-05-22T06:57:01Z</time>
      </trkpt>
      <trkpt lat="46.25781" lon="6.10858">
        <ele>332.67</ele>
        <time>2015-05-22T06:57:02Z</time>
      </trkpt>
      <trkpt lat="46.25777" lon="6.10858">
        <ele>332.58</ele>
        <time>2015-05-22T06:57:03Z</time>
      </trkpt>
      <trkpt lat="46.25773" lon="6.10858">
        <ele>332.48</ele>
        <time>2015-05-22T06:57:04Z</time>
      </trkpt>
      <trkpt lat="46.25768" lon="6.10854">
        <ele>332.29</ele>
        <time>2015-05-22T06:57:06Z</time>
      </trkpt>
      <trkpt lat="46.25765" lon="6.10847">
        <ele>332.2</ele>
        <time>2015-05-22T06:57:07Z</time>
      </trkpt>
      <trkpt lat="46.25761" lon="6.1084">
        <ele>332.17</ele>
        <time>2015-05-22T06:57:08Z</time>
      </trkpt>
      <trkpt lat="46.25713" lon="6.10729">
        <ele>333.31</ele>
        <time>2015-05-22T06:57:23Z</time>
      </trkpt>
      <trkpt lat="46.2571" lon="6.10721">
        <ele>333.45</ele>
        <time>2015-05-22T06:57:24Z</time>
      </trkpt>
      <trkpt lat="46.25684" lon="6.10648">
        <ele>334.34</ele>
        <time>2015-05-22T06:57:33Z</time>
      </trkpt>
      <trkpt lat="46.25658" lon="6.10561">
        <ele>335.85</ele>
        <time>2015-05-22T06:57:46Z</time>
      </trkpt>
      <trkpt lat="46.25634" lon="6.10489">
        <ele>337.82</ele>
        <time>2015-05-22T06:57:58Z</time>
      </trkpt>
      <trkpt lat="46.25608" lon="6.10395">
        <ele>339.41</ele>
        <time>2015-05-22T06:58:13Z</time>
      </trkpt>
      <trkpt lat="46.25579" lon="6.1029">
        <ele>341.94</ele>
        <time>2015-05-22T06:58:25Z</time>
      </trkpt>
      <trkpt lat="46.25547" lon="6.1018">
        <ele>341.77</ele>
        <time>2015-05-22T06:58:38Z</time>
      </trkpt>
      <trkpt lat="46.25528" lon="6.10096">
        <ele>341.82</ele>
        <time>2015-05-22T06:58:48Z</time>
      </trkpt>
      <trkpt lat="46.25507" lon="6.10027">
        <ele>341.57</ele>
        <time>2015-05-22T06:58:57Z</time>
      </trkpt>
      <trkpt lat="46.25507" lon="6.1002">
        <ele>341.55</ele>
        <time>2015-05-22T06:58:58Z</time>
      </trkpt>
      <trkpt lat="46.25506" lon="6.1">
        <ele>341.54</ele>
        <time>2015-05-22T06:59:01Z</time>
      </trkpt>
      <trkpt lat="46.25505" lon="6.09994">
        <ele>341.55</ele>
        <time>2015-05-22T06:59:02Z</time>
      </trkpt>
      <trkpt lat="46.25503" lon="6.09988">
        <ele>341.57</ele>
        <time>2015-05-22T06:59:03Z</time>
      </trkpt>
      <trkpt lat="46.255" lon="6.09984">
        <ele>341.59</ele>
        <time>2015-05-22T06:59:04Z</time>
      </trkpt>
      <trkpt lat="46.25496" lon="6.09979">
        <ele>341.6</ele>
        <time>2015-05-22T06:59:05Z</time>
      </trkpt>
      <trkpt lat="46.25492" lon="6.09975">
        <ele>341.6</ele>
        <time>2015-05-22T06:59:06Z</time>
      </trkpt>
      <trkpt lat="46.25479" lon="6.0996">
        <ele>341.49</ele>
        <time>2015-05-22T06:59:09Z</time>
      </trkpt>
      <trkpt lat="46.25475" lon="6.09954">
        <ele>341.39</ele>
        <time>2015-05-22T06:59:10Z</time>
      </trkpt>
      <trkpt lat="46.25471" lon="6.09946">
        <ele>341.27</ele>
        <time>2015-05-22T06:59:11Z</time>
      </trkpt>
      <trkpt lat="46.25467" lon="6.09939">
        <ele>341.15</ele>
        <time>2015-05-22T06:59:12Z</time>
      </trkpt>
      <trkpt lat="46.25463" lon="6.09931">
        <ele>341.05</ele>
        <time>2015-05-22T06:59:13Z</time>
      </trkpt>
      <trkpt lat="46.25417" lon="6.09846">
        <ele>337.98</ele>
        <time>2015-05-22T06:59:22Z</time>
      </trkpt>
      <trkpt lat="46.25364" lon="6.09749">
        <ele>334.62</ele>
        <time>2015-05-22T06:59:32Z</time>
      </trkpt>
      <trkpt lat="46.2536" lon="6.09741">
        <ele>334.15</ele>
        <time>2015-05-22T06:59:33Z</time>
      </trkpt>
      <trkpt lat="46.25356" lon="6.09734">
        <ele>333.71</ele>
        <time>2015-05-22T06:59:34Z</time>
      </trkpt>
      <trkpt lat="46.25351" lon="6.09728">
        <ele>333.34</ele>
        <time>2015-05-22T06:59:35Z</time>
      </trkpt>
      <trkpt lat="46.25346" lon="6.09722">
        <ele>333.04</ele>
        <time>2015-05-22T06:59:36Z</time>
      </trkpt>
      <trkpt lat="46.2534" lon="6.09717">
        <ele>332.78</ele>
        <time>2015-05-22T06:59:37Z</time>
      </trkpt>
      <trkpt lat="46.25334" lon="6.09713">
        <ele>332.58</ele>
        <time>2015-05-22T06:59:38Z</time>
      </trkpt>
      <trkpt lat="46.25328" lon="6.09708">
        <ele>332.4</ele>
        <time>2015-05-22T06:59:39Z</time>
      </trkpt>
      <trkpt lat="46.25321" lon="6.09705">
        <ele>332.25</ele>
        <time>2015-05-22T06:59:40Z</time>
      </trkpt>
      <trkpt lat="46.25315" lon="6.09703">
        <ele>332.11</ele>
        <time>2015-05-22T06:59:41Z</time>
      </trkpt>
      <trkpt lat="46.25308" lon="6.09701">
        <ele>331.97</ele>
        <time>2015-05-22T06:59:42Z</time>
      </trkpt>
      <trkpt lat="46.25301" lon="6.097">
        <ele>331.69</ele>
        <time>2015-05-22T06:59:43Z</time>
      </trkpt>
      <trkpt lat="46.25275" lon="6.09703">
        <ele>331.02</ele>
        <time>2015-05-22T06:59:47Z</time>
      </trkpt>
      <trkpt lat="46.25256" lon="6.0971">
        <ele>330.48</ele>
        <time>2015-05-22T06:59:50Z</time>
      </trkpt>
      <trkpt lat="46.25246" lon="6.09714">
        <ele>330.04</ele>
        <time>2015-05-22T06:59:52Z</time>
      </trkpt>
      <trkpt lat="46.25243" lon="6.09712">
        <ele>329.86</ele>
        <time>2015-05-22T06:59:53Z</time>
      </trkpt>
      <trkpt lat="46.25241" lon="6.09708">
        <ele>329.72</ele>
        <time>2015-05-22T06:59:54Z</time>
      </trkpt>
      <trkpt lat="46.25239" lon="6.09704">
        <ele>329.61</ele>
        <time>2015-05-22T06:59:55Z</time>
      </trkpt>
      <trkpt lat="46.25237" lon="6.09699">
        <ele>329.54</ele>
        <time>2015-05-22T06:59:56Z</time>
      </trkpt>
      <trkpt lat="46.25221" lon="6.09646">
        <ele>330.17</ele>
        <time>2015-05-22T07:00:06Z</time>
      </trkpt>
      <trkpt lat="46.25218" lon="6.0964">
        <ele>330.26</ele>
        <time>2015-05-22T07:00:07Z</time>
      </trkpt>
      <trkpt lat="46.25216" lon="6.09635">
        <ele>330.39</ele>
        <time>2015-05-22T07:00:08Z</time>
      </trkpt>
      <trkpt lat="46.25214" lon="6.0963">
        <ele>330.44</ele>
        <time>2015-05-22T07:00:09Z</time>
      </trkpt>
      <trkpt lat="46.25211" lon="6.09622">
        <ele>330.43</ele>
        <time>2015-05-22T07:00:10Z</time>
      </trkpt>
      <trkpt lat="46.2521" lon="6.09615">
        <ele>330.41</ele>
        <time>2015-05-22T07:00:11Z</time>
      </trkpt>
      <trkpt lat="46.25209" lon="6.09604">
        <ele>330.4</ele>
        <time>2015-05-22T07:00:12Z</time>
      </trkpt>
      <trkpt lat="46.25209" lon="6.09596">
        <ele>330.39</ele>
        <time>2015-05-22T07:00:13Z</time>
      </trkpt>
      <trkpt lat="46.25211" lon="6.09589">
        <ele>330.41</ele>
        <time>2015-05-22T07:00:14Z</time>
      </trkpt>
      <trkpt lat="46.25214" lon="6.09582">
        <ele>330.46</ele>
        <time>2015-05-22T07:00:15Z</time>
      </trkpt>
      <trkpt lat="46.25216" lon="6.09576">
        <ele>330.53</ele>
        <time>2015-05-22T07:00:16Z</time>
      </trkpt>
      <trkpt lat="46.25218" lon="6.09569">
        <ele>330.6</ele>
        <time>2015-05-22T07:00:17Z</time>
      </trkpt>
      <trkpt lat="46.2522" lon="6.09561">
        <ele>330.66</ele>
        <time>2015-05-22T07:00:18Z</time>
      </trkpt>
      <trkpt lat="46.2522" lon="6.09554">
        <ele>330.67</ele>
        <time>2015-05-22T07:00:19Z</time>
      </trkpt>
      <trkpt lat="46.2522" lon="6.09545">
        <ele>330.69</ele>
        <time>2015-05-22T07:00:20Z</time>
      </trkpt>
      <trkpt lat="46.25228" lon="6.09427">
        <ele>330.97</ele>
        <time>2015-05-22T07:00:33Z</time>
      </trkpt>
      <trkpt lat="46.25229" lon="6.094">
        <ele>331.06</ele>
        <time>2015-05-22T07:00:36Z</time>
      </trkpt>
      <trkpt lat="46.25228" lon="6.09391">
        <ele>331.08</ele>
        <time>2015-05-22T07:00:37Z</time>
      </trkpt>
      <trkpt lat="46.25227" lon="6.09382">
        <ele>331.07</ele>
        <time>2015-05-22T07:00:38Z</time>
      </trkpt>
      <trkpt lat="46.25225" lon="6.09374">
        <ele>331.06</ele>
        <time>2015-05-22T07:00:39Z</time>
      </trkpt>
      <trkpt lat="46.25222" lon="6.09366">
        <ele>331.05</ele>
        <time>2015-05-22T07:00:40Z</time>
      </trkpt>
      <trkpt lat="46.25219" lon="6.09359">
        <ele>331.07</ele>
        <time>2015-05-22T07:00:41Z</time>
      </trkpt>
      <trkpt lat="46.25215" lon="6.09351">
        <ele>331.11</ele>
        <time>2015-05-22T07:00:42Z</time>
      </trkpt>
      <trkpt lat="46.25211" lon="6.09346">
        <ele>331.18</ele>
        <time>2015-05-22T07:00:43Z</time>
      </trkpt>
      <trkpt lat="46.25206" lon="6.09341">
        <ele>331.26</ele>
        <time>2015-05-22T07:00:44Z</time>
      </trkpt>
      <trkpt lat="46.25199" lon="6.09336">
        <ele>331.34</ele>
        <time>2015-05-22T07:00:45Z</time>
      </trkpt>
      <trkpt lat="46.25193" lon="6.09333">
        <ele>331.41</ele>
        <time>2015-05-22T07:00:46Z</time>
      </trkpt>
      <trkpt lat="46.25187" lon="6.09331">
        <ele>331.49</ele>
        <time>2015-05-22T07:00:47Z</time>
      </trkpt>
      <trkpt lat="46.2517" lon="6.09325">
        <ele>331.62</ele>
        <time>2015-05-22T07:00:50Z</time>
      </trkpt>
      <trkpt lat="46.25165" lon="6.09321">
        <ele>331.66</ele>
        <time>2015-05-22T07:00:51Z</time>
      </trkpt>
      <trkpt lat="46.25156" lon="6.09315">
        <ele>331.71</ele>
        <time>2015-05-22T07:00:53Z</time>
      </trkpt>
      <trkpt lat="46.25147" lon="6.09309">
        <ele>331.7</ele>
        <time>2015-05-22T07:00:55Z</time>
      </trkpt>
      <trkpt lat="46.2514" lon="6.093">
        <ele>331.7</ele>
        <time>2015-05-22T07:00:57Z</time>
      </trkpt>
      <trkpt lat="46.25135" lon="6.09295">
        <ele>331.7</ele>
        <time>2015-05-22T07:00:58Z</time>
      </trkpt>
      <trkpt lat="46.25089" lon="6.09254">
        <ele>332.9</ele>
        <time>2015-05-22T07:01:08Z</time>
      </trkpt>
      <trkpt lat="46.25066" lon="6.09225">
        <ele>334.52</ele>
        <time>2015-05-22T07:01:14Z</time>
      </trkpt>
      <trkpt lat="46.25024" lon="6.09138">
        <ele>336.92</ele>
        <time>2015-05-22T07:01:27Z</time>
      </trkpt>
      <trkpt lat="46.25004" lon="6.09087">
        <ele>336.84</ele>
        <time>2015-05-22T07:01:34Z</time>
      </trkpt>
      <trkpt lat="46.25003" lon="6.09079">
        <ele>336.81</ele>
        <time>2015-05-22T07:01:35Z</time>
      </trkpt>
      <trkpt lat="46.25001" lon="6.09071">
        <ele>336.81</ele>
        <time>2015-05-22T07:01:36Z</time>
      </trkpt>
      <trkpt lat="46.24999" lon="6.09065">
        <ele>336.82</ele>
        <time>2015-05-22T07:01:37Z</time>
      </trkpt>
      <trkpt lat="46.24995" lon="6.0906">
        <ele>336.88</ele>
        <time>2015-05-22T07:01:38Z</time>
      </trkpt>
      <trkpt lat="46.24992" lon="6.09055">
        <ele>336.96</ele>
        <time>2015-05-22T07:01:39Z</time>
      </trkpt>
      <trkpt lat="46.24988" lon="6.0905">
        <ele>337.06</ele>
        <time>2015-05-22T07:01:40Z</time>
      </trkpt>
      <trkpt lat="46.2498" lon="6.0904">
        <ele>337.26</ele>
        <time>2015-05-22T07:01:42Z</time>
      </trkpt>
      <trkpt lat="46.24978" lon="6.09034">
        <ele>337.35</ele>
        <time>2015-05-22T07:01:43Z</time>
      </trkpt>
      <trkpt lat="46.24975" lon="6.09027">
        <ele>337.41</ele>
        <time>2015-05-22T07:01:44Z</time>
      </trkpt>
      <trkpt lat="46.24933" lon="6.0891">
        <ele>336.59</ele>
        <time>2015-05-22T07:02:00Z</time>
      </trkpt>
      <trkpt lat="46.24894" lon="6.08781">
        <ele>337.64</ele>
        <time>2015-05-22T07:02:16Z</time>
      </trkpt>
      <trkpt lat="46.24869" lon="6.08674">
        <ele>337.58</ele>
        <time>2015-05-22T07:02:29Z</time>
      </trkpt>
      <trkpt lat="46.24868" lon="6.08666">
        <ele>337.51</ele>
        <time>2015-05-22T07:02:30Z</time>
      </trkpt>
      <trkpt lat="46.24868" lon="6.08657">
        <ele>337.45</ele>
        <time>2015-05-22T07:02:31Z</time>
      </trkpt>
      <trkpt lat="46.24867" lon="6.08649">
        <ele>337.38</ele>
        <time>2015-05-22T07:02:32Z</time>
      </trkpt>
      <trkpt lat="46.24866" lon="6.0864">
        <ele>337.23</ele>
        <time>2015-05-22T07:02:33Z</time>
      </trkpt>
      <trkpt lat="46.24863" lon="6.08632">
        <ele>337.23</ele>
        <time>2015-05-22T07:02:34Z</time>
      </trkpt>
      <trkpt lat="46.2486" lon="6.08624">
        <ele>337.06</ele>
        <time>2015-05-22T07:02:35Z</time>
      </trkpt>
      <trkpt lat="46.24855" lon="6.08608">
        <ele>336.85</ele>
        <time>2015-05-22T07:02:37Z</time>
      </trkpt>
      <trkpt lat="46.24816" lon="6.08492">
        <ele>335.83</ele>
        <time>2015-05-22T07:02:50Z</time>
      </trkpt>
      <trkpt lat="46.24789" lon="6.08447">
        <ele>335.42</ele>
        <time>2015-05-22T07:02:56Z</time>
      </trkpt>
      <trkpt lat="46.24784" lon="6.08441">
        <ele>335.25</ele>
        <time>2015-05-22T07:02:57Z</time>
      </trkpt>
      <trkpt lat="46.24778" lon="6.08436">
        <ele>335.04</ele>
        <time>2015-05-22T07:02:58Z</time>
      </trkpt>
      <trkpt lat="46.24761" lon="6.08421">
        <ele>334.42</ele>
        <time>2015-05-22T07:03:01Z</time>
      </trkpt>
      <trkpt lat="46.24756" lon="6.08414">
        <ele>334.3</ele>
        <time>2015-05-22T07:03:02Z</time>
      </trkpt>
      <trkpt lat="46.24753" lon="6.08405">
        <ele>334.18</ele>
        <time>2015-05-22T07:03:03Z</time>
      </trkpt>
      <trkpt lat="46.24751" lon="6.08396">
        <ele>334.02</ele>
        <time>2015-05-22T07:03:04Z</time>
      </trkpt>
      <trkpt lat="46.24749" lon="6.08386">
        <ele>333.85</ele>
        <time>2015-05-22T07:03:05Z</time>
      </trkpt>
      <trkpt lat="46.24748" lon="6.08377">
        <ele>333.71</ele>
        <time>2015-05-22T07:03:06Z</time>
      </trkpt>
      <trkpt lat="46.24747" lon="6.08368">
        <ele>333.6</ele>
        <time>2015-05-22T07:03:07Z</time>
      </trkpt>
      <trkpt lat="46.24748" lon="6.08359">
        <ele>333.5</ele>
        <time>2015-05-22T07:03:08Z</time>
      </trkpt>
      <trkpt lat="46.24748" lon="6.0835">
        <ele>333.45</ele>
        <time>2015-05-22T07:03:09Z</time>
      </trkpt>
      <trkpt lat="46.24753" lon="6.08285">
        <ele>333.83</ele>
        <time>2015-05-22T07:03:19Z</time>
      </trkpt>
      <trkpt lat="46.24749" lon="6.08264">
        <ele>334.04</ele>
        <time>2015-05-22T07:03:22Z</time>
      </trkpt>
      <trkpt lat="46.24706" lon="6.0816">
        <ele>335.21</ele>
        <time>2015-05-22T07:03:36Z</time>
      </trkpt>
      <trkpt lat="46.24701" lon="6.08154">
        <ele>335.28</ele>
        <time>2015-05-22T07:03:37Z</time>
      </trkpt>
      <trkpt lat="46.24696" lon="6.0815">
        <ele>335.34</ele>
        <time>2015-05-22T07:03:38Z</time>
      </trkpt>
      <trkpt lat="46.2469" lon="6.08147">
        <ele>335.38</ele>
        <time>2015-05-22T07:03:39Z</time>
      </trkpt>
      <trkpt lat="46.24684" lon="6.08144">
        <ele>335.38</ele>
        <time>2015-05-22T07:03:40Z</time>
      </trkpt>
      <trkpt lat="46.24678" lon="6.08142">
        <ele>335.35</ele>
        <time>2015-05-22T07:03:41Z</time>
      </trkpt>
      <trkpt lat="46.24653" lon="6.08133">
        <ele>334.78</ele>
        <time>2015-05-22T07:03:45Z</time>
      </trkpt>
      <trkpt lat="46.24648" lon="6.08129">
        <ele>334.78</ele>
        <time>2015-05-22T07:03:46Z</time>
      </trkpt>
      <trkpt lat="46.24643" lon="6.08122">
        <ele>334.57</ele>
        <time>2015-05-22T07:03:47Z</time>
      </trkpt>
      <trkpt lat="46.24639" lon="6.08115">
        <ele>334.5</ele>
        <time>2015-05-22T07:03:48Z</time>
      </trkpt>
      <trkpt lat="46.24634" lon="6.08109">
        <ele>334.44</ele>
        <time>2015-05-22T07:03:49Z</time>
      </trkpt>
      <trkpt lat="46.24628" lon="6.08106">
        <ele>334.38</ele>
        <time>2015-05-22T07:03:50Z</time>
      </trkpt>
      <trkpt lat="46.24622" lon="6.08105">
        <ele>334.33</ele>
        <time>2015-05-22T07:03:51Z</time>
      </trkpt>
      <trkpt lat="46.24616" lon="6.08107">
        <ele>334.29</ele>
        <time>2015-05-22T07:03:52Z</time>
      </trkpt>
      <trkpt lat="46.2461" lon="6.08111">
        <ele>334.25</ele>
        <time>2015-05-22T07:03:53Z</time>
      </trkpt>
      <trkpt lat="46.24607" lon="6.08117">
        <ele>334.19</ele>
        <time>2015-05-22T07:03:54Z</time>
      </trkpt>
      <trkpt lat="46.24605" lon="6.08124">
        <ele>334.15</ele>
        <time>2015-05-22T07:03:55Z</time>
      </trkpt>
      <trkpt lat="46.24604" lon="6.08132">
        <ele>334.1</ele>
        <time>2015-05-22T07:03:56Z</time>
      </trkpt>
      <trkpt lat="46.24603" lon="6.0814">
        <ele>334.05</ele>
        <time>2015-05-22T07:03:57Z</time>
      </trkpt>
      <trkpt lat="46.24604" lon="6.08147">
        <ele>334.01</ele>
        <time>2015-05-22T07:03:58Z</time>
      </trkpt>
      <trkpt lat="46.24604" lon="6.08153">
        <ele>333.97</ele>
        <time>2015-05-22T07:03:59Z</time>
      </trkpt>
      <trkpt lat="46.24603" lon="6.08159">
        <ele>333.93</ele>
        <time>2015-05-22T07:04:00Z</time>
      </trkpt>
      <trkpt lat="46.24601" lon="6.08164">
        <ele>333.9</ele>
        <time>2015-05-22T07:04:01Z</time>
      </trkpt>
      <trkpt lat="46.24599" lon="6.08169">
        <ele>333.84</ele>
        <time>2015-05-22T07:04:02Z</time>
      </trkpt>
      <trkpt lat="46.24596" lon="6.08172">
        <ele>333.74</ele>
        <time>2015-05-22T07:04:03Z</time>
      </trkpt>
      <trkpt lat="46.24572" lon="6.08173">
        <ele>332.62</ele>
        <time>2015-05-22T07:04:11Z</time>
      </trkpt>
      <trkpt lat="46.24571" lon="6.08168">
        <ele>332.43</ele>
        <time>2015-05-22T07:04:12Z</time>
      </trkpt>
      <trkpt lat="46.2457" lon="6.08163">
        <ele>332.16</ele>
        <time>2015-05-22T07:04:13Z</time>
      </trkpt>
      <trkpt lat="46.24569" lon="6.08158">
        <ele>332.08</ele>
        <time>2015-05-22T07:04:14Z</time>
      </trkpt>
      <trkpt lat="46.24569" lon="6.08152">
        <ele>332.04</ele>
        <time>2015-05-22T07:04:15Z</time>
      </trkpt>
      <trkpt lat="46.24569" lon="6.08147">
        <ele>332.01</ele>
        <time>2015-05-22T07:04:16Z</time>
      </trkpt>
      <trkpt lat="46.24571" lon="6.08099">
        <ele>332.07</ele>
        <time>2015-05-22T07:04:24Z</time>
      </trkpt>
      <trkpt lat="46.24571" lon="6.08092">
        <ele>332.03</ele>
        <time>2015-05-22T07:04:25Z</time>
      </trkpt>
      <trkpt lat="46.24562" lon="6.08018">
        <ele>331.93</ele>
        <time>2015-05-22T07:04:35Z</time>
      </trkpt>
      <trkpt lat="46.24561" lon="6.0801">
        <ele>331.93</ele>
        <time>2015-05-22T07:04:36Z</time>
      </trkpt>
      <trkpt lat="46.24558" lon="6.08003">
        <ele>331.93</ele>
        <time>2015-05-22T07:04:37Z</time>
      </trkpt>
      <trkpt lat="46.24555" lon="6.07997">
        <ele>331.94</ele>
        <time>2015-05-22T07:04:38Z</time>
      </trkpt>
      <trkpt lat="46.24552" lon="6.07992">
        <ele>331.94</ele>
        <time>2015-05-22T07:04:39Z</time>
      </trkpt>
      <trkpt lat="46.24549" lon="6.07984">
        <ele>331.93</ele>
        <time>2015-05-22T07:04:40Z</time>
      </trkpt>
      <trkpt lat="46.24545" lon="6.07976">
        <ele>331.88</ele>
        <time>2015-05-22T07:04:41Z</time>
      </trkpt>
      <trkpt lat="46.24532" lon="6.07951">
        <ele>331.77</ele>
        <time>2015-05-22T07:04:45Z</time>
      </trkpt>
      <trkpt lat="46.24528" lon="6.07944">
        <ele>331.74</ele>
        <time>2015-05-22T07:04:46Z</time>
      </trkpt>
      <trkpt lat="46.24509" lon="6.0791">
        <ele>331.57</ele>
        <time>2015-05-22T07:04:51Z</time>
      </trkpt>
      <trkpt lat="46.24505" lon="6.07905">
        <ele>331.49</ele>
        <time>2015-05-22T07:04:52Z</time>
      </trkpt>
      <trkpt lat="46.24501" lon="6.07901">
        <ele>331.4</ele>
        <time>2015-05-22T07:04:53Z</time>
      </trkpt>
      <trkpt lat="46.24497" lon="6.07897">
        <ele>331.34</ele>
        <time>2015-05-22T07:04:54Z</time>
      </trkpt>
      <trkpt lat="46.24493" lon="6.07892">
        <ele>331.29</ele>
        <time>2015-05-22T07:04:55Z</time>
      </trkpt>
      <trkpt lat="46.24489" lon="6.07887">
        <ele>331.27</ele>
        <time>2015-05-22T07:04:56Z</time>
      </trkpt>
      <trkpt lat="46.24451" lon="6.07822">
        <ele>332.33</ele>
        <time>2015-05-22T07:05:06Z</time>
      </trkpt>
      <trkpt lat="46.2444" lon="6.07804">
        <ele>332.42</ele>
        <time>2015-05-22T07:05:08Z</time>
      </trkpt>
      <trkpt lat="46.24436" lon="6.07796">
        <ele>332.36</ele>
        <time>2015-05-22T07:05:09Z</time>
      </trkpt>
      <trkpt lat="46.24368" lon="6.07693">
        <ele>331.87</ele>
        <time>2015-05-22T07:05:23Z</time>
      </trkpt>
      <trkpt lat="46.24315" lon="6.0761">
        <ele>332.34</ele>
        <time>2015-05-22T07:05:36Z</time>
      </trkpt>
      <trkpt lat="46.24307" lon="6.07597">
        <ele>333.19</ele>
        <time>2015-05-22T07:05:45Z</time>
      </trkpt>
      <trkpt lat="46.2429" lon="6.07585">
        <ele>332.74</ele>
        <time>2015-05-22T07:06:14Z</time>
      </trkpt>
      <trkpt lat="46.24283" lon="6.0759">
        <ele>332.34</ele>
        <time>2015-05-22T07:06:23Z</time>
      </trkpt>
      <trkpt lat="46.24282" lon="6.07592">
        <ele>332.34</ele>
        <time>2015-05-22T07:06:24Z</time>
      </trkpt>
      <trkpt lat="46.2428" lon="6.07596">
        <ele>332.38</ele>
        <time>2015-05-22T07:06:25Z</time>
      </trkpt>
      <trkpt lat="46.24277" lon="6.07599">
        <ele>332.4</ele>
        <time>2015-05-22T07:06:26Z</time>
      </trkpt>
      <trkpt lat="46.24274" lon="6.07603">
        <ele>332.41</ele>
        <time>2015-05-22T07:06:27Z</time>
      </trkpt>
      <trkpt lat="46.24271" lon="6.07608">
        <ele>332.44</ele>
        <time>2015-05-22T07:06:28Z</time>
      </trkpt>
      <trkpt lat="46.24268" lon="6.07612">
        <ele>332.48</ele>
        <time>2015-05-22T07:06:29Z</time>
      </trkpt>
      <trkpt lat="46.24264" lon="6.07617">
        <ele>332.52</ele>
        <time>2015-05-22T07:06:30Z</time>
      </trkpt>
      <trkpt lat="46.24218" lon="6.07685">
        <ele>333.18</ele>
        <time>2015-05-22T07:06:42Z</time>
      </trkpt>
      <trkpt lat="46.24164" lon="6.07756">
        <ele>333.57</ele>
        <time>2015-05-22T07:06:55Z</time>
      </trkpt>
      <trkpt lat="46.24101" lon="6.07845">
        <ele>333.94</ele>
        <time>2015-05-22T07:07:10Z</time>
      </trkpt>
      <trkpt lat="46.24063" lon="6.07897">
        <ele>334.31</ele>
        <time>2015-05-22T07:07:20Z</time>
      </trkpt>
      <trkpt lat="46.2406" lon="6.07898">
        <ele>334.26</ele>
        <time>2015-05-22T07:07:21Z</time>
      </trkpt>
      <trkpt lat="46.24057" lon="6.07896">
        <ele>334.2</ele>
        <time>2015-05-22T07:07:22Z</time>
      </trkpt>
      <trkpt lat="46.2405" lon="6.07887">
        <ele>333.95</ele>
        <time>2015-05-22T07:07:25Z</time>
      </trkpt>
      <trkpt lat="46.24047" lon="6.07883">
        <ele>333.95</ele>
        <time>2015-05-22T07:07:26Z</time>
      </trkpt>
      <trkpt lat="46.24028" lon="6.07857">
        <ele>333.86</ele>
        <time>2015-05-22T07:07:35Z</time>
      </trkpt>
      <trkpt lat="46.24011" lon="6.07831">
        <ele>333.99</ele>
        <time>2015-05-22T07:07:40Z</time>
      </trkpt>
      <trkpt lat="46.23958" lon="6.07761">
        <ele>334.5</ele>
        <time>2015-05-22T07:07:51Z</time>
      </trkpt>
      <trkpt lat="46.23923" lon="6.07708">
        <ele>333.6</ele>
        <time>2015-05-22T07:07:58Z</time>
      </trkpt>
      <trkpt lat="46.23898" lon="6.07669">
        <ele>332.63</ele>
        <time>2015-05-22T07:08:03Z</time>
      </trkpt>
      <trkpt lat="46.2382" lon="6.07561">
        <ele>329.36</ele>
        <time>2015-05-22T07:08:17Z</time>
      </trkpt>
      <trkpt lat="46.23801" lon="6.07536">
        <ele>328.46</ele>
        <time>2015-05-22T07:08:20Z</time>
      </trkpt>
      <trkpt lat="46.23786" lon="6.0751">
        <ele>327.79</ele>
        <time>2015-05-22T07:08:23Z</time>
      </trkpt>
      <trkpt lat="46.23775" lon="6.07492">
        <ele>327.59</ele>
        <time>2015-05-22T07:08:25Z</time>
      </trkpt>
      <trkpt lat="46.23733" lon="6.07433">
        <ele>327.05</ele>
        <time>2015-05-22T07:08:33Z</time>
      </trkpt>
      <trkpt lat="46.23728" lon="6.07428">
        <ele>327.11</ele>
        <time>2015-05-22T07:08:34Z</time>
      </trkpt>
      <trkpt lat="46.23718" lon="6.07421">
        <ele>327.24</ele>
        <time>2015-05-22T07:08:36Z</time>
      </trkpt>
      <trkpt lat="46.23696" lon="6.074">
        <ele>327.88</ele>
        <time>2015-05-22T07:08:42Z</time>
      </trkpt>
      <trkpt lat="46.23695" lon="6.07394">
        <ele>328.07</ele>
        <time>2015-05-22T07:08:43Z</time>
      </trkpt>
      <trkpt lat="46.23694" lon="6.07387">
        <ele>328.16</ele>
        <time>2015-05-22T07:08:44Z</time>
      </trkpt>
      <trkpt lat="46.23695" lon="6.07379">
        <ele>328.26</ele>
        <time>2015-05-22T07:08:45Z</time>
      </trkpt>
      <trkpt lat="46.23696" lon="6.07371">
        <ele>328.34</ele>
        <time>2015-05-22T07:08:46Z</time>
      </trkpt>
      <trkpt lat="46.23697" lon="6.07266">
        <ele>328.43</ele>
        <time>2015-05-22T07:08:56Z</time>
      </trkpt>
      <trkpt lat="46.23661" lon="6.07123">
        <ele>326.04</ele>
        <time>2015-05-22T07:09:09Z</time>
      </trkpt>
      <trkpt lat="46.23594" lon="6.07021">
        <ele>324.23</ele>
        <time>2015-05-22T07:09:21Z</time>
      </trkpt>
      <trkpt lat="46.23581" lon="6.0701">
        <ele>323.84</ele>
        <time>2015-05-22T07:09:23Z</time>
      </trkpt>
      <trkpt lat="46.23575" lon="6.07007">
        <ele>323.66</ele>
        <time>2015-05-22T07:09:24Z</time>
      </trkpt>
      <trkpt lat="46.23568" lon="6.07007">
        <ele>323.52</ele>
        <time>2015-05-22T07:09:25Z</time>
      </trkpt>
      <trkpt lat="46.23562" lon="6.07007">
        <ele>323.41</ele>
        <time>2015-05-22T07:09:26Z</time>
      </trkpt>
      <trkpt lat="46.23556" lon="6.07005">
        <ele>323.35</ele>
        <time>2015-05-22T07:09:27Z</time>
      </trkpt>
      <trkpt lat="46.23551" lon="6.07001">
        <ele>323.31</ele>
        <time>2015-05-22T07:09:28Z</time>
      </trkpt>
      <trkpt lat="46.23546" lon="6.06996">
        <ele>323.29</ele>
        <time>2015-05-22T07:09:29Z</time>
      </trkpt>
      <trkpt lat="46.23542" lon="6.06989">
        <ele>323.29</ele>
        <time>2015-05-22T07:09:30Z</time>
      </trkpt>
      <trkpt lat="46.23486" lon="6.06919">
        <ele>324.13</ele>
        <time>2015-05-22T07:09:41Z</time>
      </trkpt>
      <trkpt lat="46.2346" lon="6.06886">
        <ele>324.11</ele>
        <time>2015-05-22T07:09:46Z</time>
      </trkpt>
      <trkpt lat="46.23423" lon="6.06839">
        <ele>324.09</ele>
        <time>2015-05-22T07:09:53Z</time>
      </trkpt>
      <trkpt lat="46.23418" lon="6.06833">
        <ele>324.08</ele>
        <time>2015-05-22T07:09:54Z</time>
      </trkpt>
      <trkpt lat="46.23347" lon="6.06746">
        <ele>323.59</ele>
        <time>2015-05-22T07:10:07Z</time>
      </trkpt>
      <trkpt lat="46.23335" lon="6.06733">
        <ele>323.56</ele>
        <time>2015-05-22T07:10:09Z</time>
      </trkpt>
      <trkpt lat="46.23318" lon="6.06711">
        <ele>323.58</ele>
        <time>2015-05-22T07:10:12Z</time>
      </trkpt>
      <trkpt lat="46.23264" lon="6.06644">
        <ele>323.13</ele>
        <time>2015-05-22T07:10:23Z</time>
      </trkpt>
      <trkpt lat="46.23259" lon="6.06639">
        <ele>323.11</ele>
        <time>2015-05-22T07:10:24Z</time>
      </trkpt>
      <trkpt lat="46.23212" lon="6.06577">
        <ele>323.22</ele>
        <time>2015-05-22T07:10:34Z</time>
      </trkpt>
      <trkpt lat="46.23186" lon="6.06541">
        <ele>323.31</ele>
        <time>2015-05-22T07:10:42Z</time>
      </trkpt>
      <trkpt lat="46.2315" lon="6.06496">
        <ele>324.36</ele>
        <time>2015-05-22T07:10:53Z</time>
      </trkpt>
      <trkpt lat="46.23147" lon="6.06493">
        <ele>324.54</ele>
        <time>2015-05-22T07:10:54Z</time>
      </trkpt>
      <trkpt lat="46.23145" lon="6.06488">
        <ele>324.71</ele>
        <time>2015-05-22T07:10:55Z</time>
      </trkpt>
      <trkpt lat="46.23145" lon="6.06484">
        <ele>324.89</ele>
        <time>2015-05-22T07:10:56Z</time>
      </trkpt>
      <trkpt lat="46.23147" lon="6.06473">
        <ele>325.28</ele>
        <time>2015-05-22T07:10:59Z</time>
      </trkpt>
      <trkpt lat="46.23148" lon="6.06457">
        <ele>325.3</ele>
        <time>2015-05-22T07:11:02Z</time>
      </trkpt>
      <trkpt lat="46.23144" lon="6.06441">
        <ele>325.23</ele>
        <time>2015-05-22T07:11:04Z</time>
      </trkpt>
      <trkpt lat="46.23141" lon="6.06424">
        <ele>325.23</ele>
        <time>2015-05-22T07:11:06Z</time>
      </trkpt>
      <trkpt lat="46.23139" lon="6.06417">
        <ele>325.3</ele>
        <time>2015-05-22T07:11:07Z</time>
      </trkpt>
      <trkpt lat="46.23136" lon="6.06409">
        <ele>325.37</ele>
        <time>2015-05-22T07:11:08Z</time>
      </trkpt>
      <trkpt lat="46.23131" lon="6.06402">
        <ele>325.44</ele>
        <time>2015-05-22T07:11:09Z</time>
      </trkpt>
      <trkpt lat="46.23126" lon="6.06397">
        <ele>325.54</ele>
        <time>2015-05-22T07:11:10Z</time>
      </trkpt>
      <trkpt lat="46.2312" lon="6.06394">
        <ele>325.69</ele>
        <time>2015-05-22T07:11:11Z</time>
      </trkpt>
      <trkpt lat="46.23114" lon="6.06392">
        <ele>325.89</ele>
        <time>2015-05-22T07:11:12Z</time>
      </trkpt>
      <trkpt lat="46.23108" lon="6.06391">
        <ele>326.06</ele>
        <time>2015-05-22T07:11:13Z</time>
      </trkpt>
      <trkpt lat="46.23101" lon="6.06389">
        <ele>326.2</ele>
        <time>2015-05-22T07:11:14Z</time>
      </trkpt>
      <trkpt lat="46.23095" lon="6.06387">
        <ele>326.31</ele>
        <time>2015-05-22T07:11:15Z</time>
      </trkpt>
      <trkpt lat="46.23084" lon="6.06384">
        <ele>326.34</ele>
        <time>2015-05-22T07:11:18Z</time>
      </trkpt>
      <trkpt lat="46.23082" lon="6.06385">
        <ele>326.12</ele>
        <time>2015-05-22T07:11:19Z</time>
      </trkpt>
      <trkpt lat="46.23079" lon="6.06386">
        <ele>326.12</ele>
        <time>2015-05-22T07:11:20Z</time>
      </trkpt>
      <trkpt lat="46.23067" lon="6.06391">
        <ele>325.55</ele>
        <time>2015-05-22T07:11:24Z</time>
      </trkpt>
      <trkpt lat="46.23064" lon="6.06389">
        <ele>325.47</ele>
        <time>2015-05-22T07:11:25Z</time>
      </trkpt>
      <trkpt lat="46.23061" lon="6.06385">
        <ele>325.4</ele>
        <time>2015-05-22T07:11:26Z</time>
      </trkpt>
      <trkpt lat="46.23058" lon="6.0638">
        <ele>325.32</ele>
        <time>2015-05-22T07:11:27Z</time>
      </trkpt>
      <trkpt lat="46.23054" lon="6.06375">
        <ele>325.21</ele>
        <time>2015-05-22T07:11:28Z</time>
      </trkpt>
      <trkpt lat="46.23031" lon="6.06336">
        <ele>324.62</ele>
        <time>2015-05-22T07:11:34Z</time>
      </trkpt>
      <trkpt lat="46.23026" lon="6.0633">
        <ele>324.54</ele>
        <time>2015-05-22T07:11:35Z</time>
      </trkpt>
      <trkpt lat="46.23023" lon="6.06322">
        <ele>324.44</ele>
        <time>2015-05-22T07:11:36Z</time>
      </trkpt>
      <trkpt lat="46.2302" lon="6.06315">
        <ele>324.35</ele>
        <time>2015-05-22T07:11:37Z</time>
      </trkpt>
      <trkpt lat="46.23017" lon="6.06307">
        <ele>324.25</ele>
        <time>2015-05-22T07:11:38Z</time>
      </trkpt>
      <trkpt lat="46.23015" lon="6.06298">
        <ele>324.13</ele>
        <time>2015-05-22T07:11:39Z</time>
      </trkpt>
      <trkpt lat="46.23013" lon="6.0629">
        <ele>324.04</ele>
        <time>2015-05-22T07:11:40Z</time>
      </trkpt>
      <trkpt lat="46.22993" lon="6.06209">
        <ele>323.69</ele>
        <time>2015-05-22T07:11:50Z</time>
      </trkpt>
      <trkpt lat="46.22984" lon="6.06176">
        <ele>323.17</ele>
        <time>2015-05-22T07:11:55Z</time>
      </trkpt>
      <trkpt lat="46.22982" lon="6.0617">
        <ele>323.02</ele>
        <time>2015-05-22T07:11:56Z</time>
      </trkpt>
      <trkpt lat="46.2298" lon="6.06165">
        <ele>322.9</ele>
        <time>2015-05-22T07:11:57Z</time>
      </trkpt>
      <trkpt lat="46.22978" lon="6.06159">
        <ele>322.81</ele>
        <time>2015-05-22T07:11:58Z</time>
      </trkpt>
      <trkpt lat="46.22976" lon="6.06152">
        <ele>322.74</ele>
        <time>2015-05-22T07:11:59Z</time>
      </trkpt>
      <trkpt lat="46.22974" lon="6.06145">
        <ele>322.71</ele>
        <time>2015-05-22T07:12:00Z</time>
      </trkpt>
      <trkpt lat="46.22969" lon="6.06126">
        <ele>322.66</ele>
        <time>2015-05-22T07:12:03Z</time>
      </trkpt>
      <trkpt lat="46.22968" lon="6.06119">
        <ele>322.66</ele>
        <time>2015-05-22T07:12:04Z</time>
      </trkpt>
      <trkpt lat="46.22963" lon="6.061">
        <ele>322.71</ele>
        <time>2015-05-22T07:12:07Z</time>
      </trkpt>
      <trkpt lat="46.22954" lon="6.06078">
        <ele>322.74</ele>
        <time>2015-05-22T07:12:10Z</time>
      </trkpt>
      <trkpt lat="46.2295" lon="6.06071">
        <ele>322.75</ele>
        <time>2015-05-22T07:12:11Z</time>
      </trkpt>
      <trkpt lat="46.22907" lon="6.05975">
        <ele>322.94</ele>
        <time>2015-05-22T07:12:22Z</time>
      </trkpt>
      <trkpt lat="46.229" lon="6.05959">
        <ele>322.89</ele>
        <time>2015-05-22T07:12:24Z</time>
      </trkpt>
      <trkpt lat="46.22849" lon="6.05869">
        <ele>322.2</ele>
        <time>2015-05-22T07:12:35Z</time>
      </trkpt>
      <trkpt lat="46.22792" lon="6.05778">
        <ele>321.99</ele>
        <time>2015-05-22T07:12:46Z</time>
      </trkpt>
      <trkpt lat="46.22762" lon="6.05725">
        <ele>321.19</ele>
        <time>2015-05-22T07:12:53Z</time>
      </trkpt>
      <trkpt lat="46.22707" lon="6.05623">
        <ele>320.22</ele>
        <time>2015-05-22T07:13:05Z</time>
      </trkpt>
      <trkpt lat="46.22676" lon="6.0556">
        <ele>319.15</ele>
        <time>2015-05-22T07:13:16Z</time>
      </trkpt>
      <trkpt lat="46.22672" lon="6.05546">
        <ele>318.48</ele>
        <time>2015-05-22T07:13:36Z</time>
      </trkpt>
      <trkpt lat="46.22649" lon="6.05515">
        <ele>318.51</ele>
        <time>2015-05-22T07:13:43Z</time>
      </trkpt>
      <trkpt lat="46.22646" lon="6.0551">
        <ele>318.51</ele>
        <time>2015-05-22T07:13:44Z</time>
      </trkpt>
      <trkpt lat="46.2264" lon="6.05501">
        <ele>318.52</ele>
        <time>2015-05-22T07:13:46Z</time>
      </trkpt>
      <trkpt lat="46.22639" lon="6.05496">
        <ele>318.53</ele>
        <time>2015-05-22T07:13:47Z</time>
      </trkpt>
      <trkpt lat="46.22637" lon="6.0549">
        <ele>318.54</ele>
        <time>2015-05-22T07:13:48Z</time>
      </trkpt>
      <trkpt lat="46.22634" lon="6.05483">
        <ele>318.54</ele>
        <time>2015-05-22T07:13:49Z</time>
      </trkpt>
      <trkpt lat="46.2263" lon="6.05477">
        <ele>318.55</ele>
        <time>2015-05-22T07:13:50Z</time>
      </trkpt>
      <trkpt lat="46.22626" lon="6.05471">
        <ele>318.56</ele>
        <time>2015-05-22T07:13:51Z</time>
      </trkpt>
      <trkpt lat="46.22623" lon="6.05465">
        <ele>318.56</ele>
        <time>2015-05-22T07:13:52Z</time>
      </trkpt>
      <trkpt lat="46.22619" lon="6.05458">
        <ele>318.55</ele>
        <time>2015-05-22T07:13:53Z</time>
      </trkpt>
      <trkpt lat="46.22567" lon="6.0537">
        <ele>318.48</ele>
        <time>2015-05-22T07:14:05Z</time>
      </trkpt>
      <trkpt lat="46.22515" lon="6.05274">
        <ele>318.18</ele>
        <time>2015-05-22T07:14:18Z</time>
      </trkpt>
      <trkpt lat="46.22483" lon="6.05216">
        <ele>317.7</ele>
        <time>2015-05-22T07:14:26Z</time>
      </trkpt>
      <trkpt lat="46.22479" lon="6.05207">
        <ele>317.75</ele>
        <time>2015-05-22T07:14:27Z</time>
      </trkpt>
      <trkpt lat="46.22467" lon="6.05187">
        <ele>318.05</ele>
        <time>2015-05-22T07:14:30Z</time>
      </trkpt>
      <trkpt lat="46.22424" lon="6.05099">
        <ele>318.39</ele>
        <time>2015-05-22T07:14:41Z</time>
      </trkpt>
      <trkpt lat="46.2242" lon="6.05092">
        <ele>318.15</ele>
        <time>2015-05-22T07:14:42Z</time>
      </trkpt>
      <trkpt lat="46.22369" lon="6.05015">
        <ele>317.95</ele>
        <time>2015-05-22T07:14:53Z</time>
      </trkpt>
      <trkpt lat="46.22362" lon="6.05003">
        <ele>318.48</ele>
        <time>2015-05-22T07:14:55Z</time>
      </trkpt>
      <trkpt lat="46.22358" lon="6.04997">
        <ele>318.75</ele>
        <time>2015-05-22T07:14:56Z</time>
      </trkpt>
      <trkpt lat="46.22343" lon="6.04971">
        <ele>319.51</ele>
        <time>2015-05-22T07:15:00Z</time>
      </trkpt>
      <trkpt lat="46.22336" lon="6.04955">
        <ele>319.7</ele>
        <time>2015-05-22T07:15:02Z</time>
      </trkpt>
      <trkpt lat="46.22323" lon="6.04926">
        <ele>319.94</ele>
        <time>2015-05-22T07:15:06Z</time>
      </trkpt>
      <trkpt lat="46.22318" lon="6.04918">
        <ele>319.98</ele>
        <time>2015-05-22T07:15:07Z</time>
      </trkpt>
      <trkpt lat="46.22279" lon="6.04838">
        <ele>319.42</ele>
        <time>2015-05-22T07:15:17Z</time>
      </trkpt>
      <trkpt lat="46.22274" lon="6.04831">
        <ele>319.39</ele>
        <time>2015-05-22T07:15:18Z</time>
      </trkpt>
      <trkpt lat="46.2227" lon="6.04825">
        <ele>319.38</ele>
        <time>2015-05-22T07:15:19Z</time>
      </trkpt>
      <trkpt lat="46.22241" lon="6.04771">
        <ele>319.86</ele>
        <time>2015-05-22T07:15:27Z</time>
      </trkpt>
      <trkpt lat="46.22207" lon="6.04724">
        <ele>320.31</ele>
        <time>2015-05-22T07:15:39Z</time>
      </trkpt>
      <trkpt lat="46.22203" lon="6.04721">
        <ele>320.36</ele>
        <time>2015-05-22T07:15:41Z</time>
      </trkpt>
      <trkpt lat="46.22198" lon="6.04719">
        <ele>320.43</ele>
        <time>2015-05-22T07:15:44Z</time>
      </trkpt>
      <trkpt lat="46.22196" lon="6.04719">
        <ele>320.46</ele>
        <time>2015-05-22T07:15:45Z</time>
      </trkpt>
      <trkpt lat="46.22191" lon="6.0471">
        <ele>320.74</ele>
        <time>2015-05-22T07:15:52Z</time>
      </trkpt>
      <trkpt lat="46.2219" lon="6.04707">
        <ele>320.76</ele>
        <time>2015-05-22T07:15:53Z</time>
      </trkpt>
      <trkpt lat="46.22189" lon="6.04703">
        <ele>320.75</ele>
        <time>2015-05-22T07:15:54Z</time>
      </trkpt>
      <trkpt lat="46.22188" lon="6.04696">
        <ele>320.7</ele>
        <time>2015-05-22T07:15:55Z</time>
      </trkpt>
      <trkpt lat="46.22188" lon="6.0469">
        <ele>320.63</ele>
        <time>2015-05-22T07:15:56Z</time>
      </trkpt>
      <trkpt lat="46.22186" lon="6.04683">
        <ele>320.54</ele>
        <time>2015-05-22T07:15:57Z</time>
      </trkpt>
      <trkpt lat="46.22184" lon="6.04677">
        <ele>320.54</ele>
        <time>2015-05-22T07:15:58Z</time>
      </trkpt>
      <trkpt lat="46.22181" lon="6.04671">
        <ele>320.52</ele>
        <time>2015-05-22T07:15:59Z</time>
      </trkpt>
      <trkpt lat="46.22179" lon="6.04664">
        <ele>320.55</ele>
        <time>2015-05-22T07:16:00Z</time>
      </trkpt>
      <trkpt lat="46.22178" lon="6.04657">
        <ele>320.59</ele>
        <time>2015-05-22T07:16:01Z</time>
      </trkpt>
      <trkpt lat="46.22169" lon="6.04629">
        <ele>320.92</ele>
        <time>2015-05-22T07:16:05Z</time>
      </trkpt>
      <trkpt lat="46.22166" lon="6.04622">
        <ele>321.03</ele>
        <time>2015-05-22T07:16:06Z</time>
      </trkpt>
      <trkpt lat="46.22116" lon="6.04526">
        <ele>322.43</ele>
        <time>2015-05-22T07:16:20Z</time>
      </trkpt>
      <trkpt lat="46.22113" lon="6.04519">
        <ele>322.73</ele>
        <time>2015-05-22T07:16:21Z</time>
      </trkpt>
      <trkpt lat="46.2205" lon="6.04402">
        <ele>324.77</ele>
        <time>2015-05-22T07:16:38Z</time>
      </trkpt>
      <trkpt lat="46.2201" lon="6.04322">
        <ele>327.18</ele>
        <time>2015-05-22T07:16:51Z</time>
      </trkpt>
      <trkpt lat="46.22007" lon="6.04318">
        <ele>327.25</ele>
        <time>2015-05-22T07:16:52Z</time>
      </trkpt>
      <trkpt lat="46.21999" lon="6.04301">
        <ele>327.49</ele>
        <time>2015-05-22T07:16:56Z</time>
      </trkpt>
      <trkpt lat="46.21998" lon="6.04295">
        <ele>327.56</ele>
        <time>2015-05-22T07:16:57Z</time>
      </trkpt>
      <trkpt lat="46.21997" lon="6.04289">
        <ele>327.63</ele>
        <time>2015-05-22T07:16:58Z</time>
      </trkpt>
      <trkpt lat="46.21996" lon="6.04283">
        <ele>327.75</ele>
        <time>2015-05-22T07:16:59Z</time>
      </trkpt>
      <trkpt lat="46.21994" lon="6.04278">
        <ele>327.92</ele>
        <time>2015-05-22T07:17:00Z</time>
      </trkpt>
      <trkpt lat="46.21992" lon="6.04272">
        <ele>328.1</ele>
        <time>2015-05-22T07:17:01Z</time>
      </trkpt>
      <trkpt lat="46.21989" lon="6.04266">
        <ele>328.26</ele>
        <time>2015-05-22T07:17:02Z</time>
      </trkpt>
      <trkpt lat="46.21986" lon="6.0426">
        <ele>328.39</ele>
        <time>2015-05-22T07:17:03Z</time>
      </trkpt>
      <trkpt lat="46.21949" lon="6.04176">
        <ele>329.45</ele>
        <time>2015-05-22T07:17:16Z</time>
      </trkpt>
      <trkpt lat="46.21908" lon="6.04075">
        <ele>329.9</ele>
        <time>2015-05-22T07:17:31Z</time>
      </trkpt>
      <trkpt lat="46.21885" lon="6.04021">
        <ele>330.19</ele>
        <time>2015-05-22T07:17:38Z</time>
      </trkpt>
      <trkpt lat="46.21835" lon="6.03897">
        <ele>329.71</ele>
        <time>2015-05-22T07:17:52Z</time>
      </trkpt>
      <trkpt lat="46.218" lon="6.03796">
        <ele>329.71</ele>
        <time>2015-05-22T07:18:04Z</time>
      </trkpt>
      <trkpt lat="46.21783" lon="6.03729">
        <ele>331.64</ele>
        <time>2015-05-22T07:18:16Z</time>
      </trkpt>
      <trkpt lat="46.21765" lon="6.03678">
        <ele>333.97</ele>
        <time>2015-05-22T07:18:26Z</time>
      </trkpt>
      <trkpt lat="46.21758" lon="6.03661">
        <ele>334.7</ele>
        <time>2015-05-22T07:18:29Z</time>
      </trkpt>
      <trkpt lat="46.21742" lon="6.03619">
        <ele>336.13</ele>
        <time>2015-05-22T07:18:36Z</time>
      </trkpt>
      <trkpt lat="46.21718" lon="6.03574">
        <ele>337.88</ele>
        <time>2015-05-22T07:18:47Z</time>
      </trkpt>
      <trkpt lat="46.21719" lon="6.03571">
        <ele>337.94</ele>
        <time>2015-05-22T07:18:48Z</time>
      </trkpt>
      <trkpt lat="46.2172" lon="6.03569">
        <ele>338.05</ele>
        <time>2015-05-22T07:18:49Z</time>
      </trkpt>
      <trkpt lat="46.21722" lon="6.03566">
        <ele>338.08</ele>
        <time>2015-05-22T07:18:50Z</time>
      </trkpt>
      <trkpt lat="46.21724" lon="6.03562">
        <ele>338.15</ele>
        <time>2015-05-22T07:18:51Z</time>
      </trkpt>
      <trkpt lat="46.21725" lon="6.03558">
        <ele>338.25</ele>
        <time>2015-05-22T07:18:52Z</time>
      </trkpt>
      <trkpt lat="46.21724" lon="6.03552">
        <ele>338.36</ele>
        <time>2015-05-22T07:18:53Z</time>
      </trkpt>
      <trkpt lat="46.21722" lon="6.03547">
        <ele>338.47</ele>
        <time>2015-05-22T07:18:54Z</time>
      </trkpt>
      <trkpt lat="46.21719" lon="6.03542">
        <ele>338.56</ele>
        <time>2015-05-22T07:18:55Z</time>
      </trkpt>
      <trkpt lat="46.21717" lon="6.03536">
        <ele>338.65</ele>
        <time>2015-05-22T07:18:56Z</time>
      </trkpt>
      <trkpt lat="46.21714" lon="6.03529">
        <ele>338.74</ele>
        <time>2015-05-22T07:18:57Z</time>
      </trkpt>
      <trkpt lat="46.21712" lon="6.03522">
        <ele>338.86</ele>
        <time>2015-05-22T07:18:58Z</time>
      </trkpt>
      <trkpt lat="46.21696" lon="6.0348">
        <ele>339.98</ele>
        <time>2015-05-22T07:19:04Z</time>
      </trkpt>
      <trkpt lat="46.21693" lon="6.03473">
        <ele>340.21</ele>
        <time>2015-05-22T07:19:05Z</time>
      </trkpt>
      <trkpt lat="46.21689" lon="6.03467">
        <ele>340.43</ele>
        <time>2015-05-22T07:19:06Z</time>
      </trkpt>
      <trkpt lat="46.21685" lon="6.03461">
        <ele>340.6</ele>
        <time>2015-05-22T07:19:07Z</time>
      </trkpt>
      <trkpt lat="46.2168" lon="6.03455">
        <ele>340.76</ele>
        <time>2015-05-22T07:19:08Z</time>
      </trkpt>
      <trkpt lat="46.21622" lon="6.03381">
        <ele>340.95</ele>
        <time>2015-05-22T07:19:20Z</time>
      </trkpt>
      <trkpt lat="46.21611" lon="6.03367">
        <ele>340.75</ele>
        <time>2015-05-22T07:19:22Z</time>
      </trkpt>
      <trkpt lat="46.2157" lon="6.03315">
        <ele>339.25</ele>
        <time>2015-05-22T07:19:29Z</time>
      </trkpt>
      <trkpt lat="46.21564" lon="6.03309">
        <ele>338.97</ele>
        <time>2015-05-22T07:19:30Z</time>
      </trkpt>
      <trkpt lat="46.21556" lon="6.03304">
        <ele>338.67</ele>
        <time>2015-05-22T07:19:31Z</time>
      </trkpt>
      <trkpt lat="46.21547" lon="6.033">
        <ele>338.33</ele>
        <time>2015-05-22T07:19:32Z</time>
      </trkpt>
      <trkpt lat="46.21538" lon="6.03296">
        <ele>337.96</ele>
        <time>2015-05-22T07:19:33Z</time>
      </trkpt>
      <trkpt lat="46.21504" lon="6.03282">
        <ele>336.57</ele>
        <time>2015-05-22T07:19:37Z</time>
      </trkpt>
      <trkpt lat="46.21483" lon="6.03268">
        <ele>335.55</ele>
        <time>2015-05-22T07:19:40Z</time>
      </trkpt>
      <trkpt lat="46.21476" lon="6.03263">
        <ele>335.32</ele>
        <time>2015-05-22T07:19:41Z</time>
      </trkpt>
      <trkpt lat="46.21457" lon="6.03246">
        <ele>334.86</ele>
        <time>2015-05-22T07:19:44Z</time>
      </trkpt>
      <trkpt lat="46.2143" lon="6.03222">
        <ele>334.89</ele>
        <time>2015-05-22T07:19:52Z</time>
      </trkpt>
      <trkpt lat="46.21406" lon="6.03203">
        <ele>335.78</ele>
        <time>2015-05-22T07:20:00Z</time>
      </trkpt>
      <trkpt lat="46.21348" lon="6.03147">
        <ele>338.65</ele>
        <time>2015-05-22T07:20:13Z</time>
      </trkpt>
      <trkpt lat="46.21286" lon="6.03082">
        <ele>340.61</ele>
        <time>2015-05-22T07:20:27Z</time>
      </trkpt>
      <trkpt lat="46.2124" lon="6.03037">
        <ele>341.43</ele>
        <time>2015-05-22T07:20:37Z</time>
      </trkpt>
      <trkpt lat="46.21236" lon="6.03033">
        <ele>341.45</ele>
        <time>2015-05-22T07:20:38Z</time>
      </trkpt>
      <trkpt lat="46.21232" lon="6.0303">
        <ele>341.47</ele>
        <time>2015-05-22T07:20:39Z</time>
      </trkpt>
      <trkpt lat="46.21176" lon="6.02972">
        <ele>341.7</ele>
        <time>2015-05-22T07:20:51Z</time>
      </trkpt>
      <trkpt lat="46.21106" lon="6.0291">
        <ele>342.06</ele>
        <time>2015-05-22T07:21:04Z</time>
      </trkpt>
      <trkpt lat="46.21015" lon="6.02855">
        <ele>342.51</ele>
        <time>2015-05-22T07:21:18Z</time>
      </trkpt>
      <trkpt lat="46.20923" lon="6.02809">
        <ele>342.96</ele>
        <time>2015-05-22T07:21:32Z</time>
      </trkpt>
      <trkpt lat="46.20859" lon="6.02774">
        <ele>342.77</ele>
        <time>2015-05-22T07:21:43Z</time>
      </trkpt>
      <trkpt lat="46.20778" lon="6.02721">
        <ele>340.54</ele>
        <time>2015-05-22T07:21:56Z</time>
      </trkpt>
      <trkpt lat="46.20701" lon="6.02652">
        <ele>337.78</ele>
        <time>2015-05-22T07:22:08Z</time>
      </trkpt>
      <trkpt lat="46.20634" lon="6.02577">
        <ele>334.59</ele>
        <time>2015-05-22T07:22:19Z</time>
      </trkpt>
      <trkpt lat="46.20546" lon="6.02463">
        <ele>332.31</ele>
        <time>2015-05-22T07:22:33Z</time>
      </trkpt>
      <trkpt lat="46.20459" lon="6.02347">
        <ele>331.17</ele>
        <time>2015-05-22T07:22:48Z</time>
      </trkpt>
      <trkpt lat="46.20389" lon="6.02247">
        <ele>331.1</ele>
        <time>2015-05-22T07:23:01Z</time>
      </trkpt>
      <trkpt lat="46.20315" lon="6.02126">
        <ele>330.8</ele>
        <time>2015-05-22T07:23:16Z</time>
      </trkpt>
      <trkpt lat="46.2028" lon="6.02063">
        <ele>330.41</ele>
        <time>2015-05-22T07:23:25Z</time>
      </trkpt>
      <trkpt lat="46.20277" lon="6.02059">
        <ele>330.37</ele>
        <time>2015-05-22T07:23:26Z</time>
      </trkpt>
      <trkpt lat="46.20273" lon="6.02057">
        <ele>330.33</ele>
        <time>2015-05-22T07:23:27Z</time>
      </trkpt>
      <trkpt lat="46.20269" lon="6.02055">
        <ele>330.29</ele>
        <time>2015-05-22T07:23:28Z</time>
      </trkpt>
      <trkpt lat="46.20265" lon="6.02054">
        <ele>330.25</ele>
        <time>2015-05-22T07:23:29Z</time>
      </trkpt>
      <trkpt lat="46.20261" lon="6.02051">
        <ele>330.18</ele>
        <time>2015-05-22T07:23:30Z</time>
      </trkpt>
      <trkpt lat="46.20259" lon="6.02047">
        <ele>330.03</ele>
        <time>2015-05-22T07:23:31Z</time>
      </trkpt>
      <trkpt lat="46.20257" lon="6.02042">
        <ele>329.97</ele>
        <time>2015-05-22T07:23:32Z</time>
      </trkpt>
      <trkpt lat="46.20256" lon="6.02036">
        <ele>329.9</ele>
        <time>2015-05-22T07:23:33Z</time>
      </trkpt>
      <trkpt lat="46.20256" lon="6.0203">
        <ele>329.83</ele>
        <time>2015-05-22T07:23:34Z</time>
      </trkpt>
      <trkpt lat="46.20257" lon="6.02025">
        <ele>329.76</ele>
        <time>2015-05-22T07:23:35Z</time>
      </trkpt>
      <trkpt lat="46.20257" lon="6.0202">
        <ele>329.69</ele>
        <time>2015-05-22T07:23:36Z</time>
      </trkpt>
      <trkpt lat="46.20256" lon="6.02016">
        <ele>329.62</ele>
        <time>2015-05-22T07:23:37Z</time>
      </trkpt>
      <trkpt lat="46.20255" lon="6.02013">
        <ele>329.56</ele>
        <time>2015-05-22T07:23:38Z</time>
      </trkpt>
      <trkpt lat="46.20253" lon="6.0201">
        <ele>329.49</ele>
        <time>2015-05-22T07:23:39Z</time>
      </trkpt>
      <trkpt lat="46.20252" lon="6.02008">
        <ele>329.42</ele>
        <time>2015-05-22T07:23:40Z</time>
      </trkpt>
      <trkpt lat="46.20252" lon="6.02007">
        <ele>328.63</ele>
        <time>2015-05-22T07:23:56Z</time>
      </trkpt>
      <trkpt lat="46.20254" lon="6.0201">
        <ele>328.7</ele>
        <time>2015-05-22T07:24:16Z</time>
      </trkpt>
      <trkpt lat="46.20255" lon="6.0201">
        <ele>328.65</ele>
        <time>2015-05-22T07:24:43Z</time>
      </trkpt>
      <trkpt lat="46.20256" lon="6.02003">
        <ele>328.84</ele>
        <time>2015-05-22T07:24:56Z</time>
      </trkpt>
      <trkpt lat="46.20255" lon="6.02">
        <ele>328.84</ele>
        <time>2015-05-22T07:24:57Z</time>
      </trkpt>
      <trkpt lat="46.20254" lon="6.01995">
        <ele>328.84</ele>
        <time>2015-05-22T07:24:58Z</time>
      </trkpt>
      <trkpt lat="46.20252" lon="6.0199">
        <ele>328.83</ele>
        <time>2015-05-22T07:24:59Z</time>
      </trkpt>
      <trkpt lat="46.2025" lon="6.01984">
        <ele>328.81</ele>
        <time>2015-05-22T07:25:00Z</time>
      </trkpt>
      <trkpt lat="46.20248" lon="6.01978">
        <ele>328.79</ele>
        <time>2015-05-22T07:25:01Z</time>
      </trkpt>
      <trkpt lat="46.20245" lon="6.01972">
        <ele>328.76</ele>
        <time>2015-05-22T07:25:02Z</time>
      </trkpt>
      <trkpt lat="46.20229" lon="6.01944">
        <ele>328.6</ele>
        <time>2015-05-22T07:25:06Z</time>
      </trkpt>
      <trkpt lat="46.20159" lon="6.01857">
        <ele>327.17</ele>
        <time>2015-05-22T07:25:18Z</time>
      </trkpt>
      <trkpt lat="46.20065" lon="6.01812">
        <ele>325.08</ele>
        <time>2015-05-22T07:25:29Z</time>
      </trkpt>
      <trkpt lat="46.19967" lon="6.01798">
        <ele>323.98</ele>
        <time>2015-05-22T07:25:40Z</time>
      </trkpt>
      <trkpt lat="46.19869" lon="6.01783">
        <ele>325.76</ele>
        <time>2015-05-22T07:25:54Z</time>
      </trkpt>
      <trkpt lat="46.1976" lon="6.01767">
        <ele>325.05</ele>
        <time>2015-05-22T07:26:10Z</time>
      </trkpt>
      <trkpt lat="46.19629" lon="6.01744">
        <ele>326.81</ele>
        <time>2015-05-22T07:26:28Z</time>
      </trkpt>
      <trkpt lat="46.19526" lon="6.01707">
        <ele>327.06</ele>
        <time>2015-05-22T07:26:43Z</time>
      </trkpt>
      <trkpt lat="46.19405" lon="6.01659">
        <ele>327.44</ele>
        <time>2015-05-22T07:26:59Z</time>
      </trkpt>
      <trkpt lat="46.19291" lon="6.01613">
        <ele>327.35</ele>
        <time>2015-05-22T07:27:14Z</time>
      </trkpt>
      <trkpt lat="46.19182" lon="6.01556">
        <ele>328.84</ele>
        <time>2015-05-22T07:27:29Z</time>
      </trkpt>
      <trkpt lat="46.19092" lon="6.01493">
        <ele>328.52</ele>
        <time>2015-05-22T07:27:42Z</time>
      </trkpt>
      <trkpt lat="46.19025" lon="6.014">
        <ele>328.38</ele>
        <time>2015-05-22T07:27:54Z</time>
      </trkpt>
      <trkpt lat="46.19018" lon="6.01394">
        <ele>328.41</ele>
        <time>2015-05-22T07:27:55Z</time>
      </trkpt>
      <trkpt lat="46.18998" lon="6.01381">
        <ele>328.32</ele>
        <time>2015-05-22T07:27:58Z</time>
      </trkpt>
      <trkpt lat="46.1899" lon="6.01379">
        <ele>328.23</ele>
        <time>2015-05-22T07:27:59Z</time>
      </trkpt>
      <trkpt lat="46.18901" lon="6.01366">
        <ele>327.58</ele>
        <time>2015-05-22T07:28:11Z</time>
      </trkpt>
      <trkpt lat="46.18817" lon="6.01353">
        <ele>327.75</ele>
        <time>2015-05-22T07:28:23Z</time>
      </trkpt>
      <trkpt lat="46.1881" lon="6.0135">
        <ele>327.77</ele>
        <time>2015-05-22T07:28:24Z</time>
      </trkpt>
      <trkpt lat="46.18805" lon="6.01345">
        <ele>327.79</ele>
        <time>2015-05-22T07:28:25Z</time>
      </trkpt>
      <trkpt lat="46.188" lon="6.0134">
        <ele>327.79</ele>
        <time>2015-05-22T07:28:26Z</time>
      </trkpt>
      <trkpt lat="46.18795" lon="6.01334">
        <ele>327.75</ele>
        <time>2015-05-22T07:28:27Z</time>
      </trkpt>
      <trkpt lat="46.18792" lon="6.01328">
        <ele>327.64</ele>
        <time>2015-05-22T07:28:28Z</time>
      </trkpt>
      <trkpt lat="46.18789" lon="6.01321">
        <ele>327.6</ele>
        <time>2015-05-22T07:28:29Z</time>
      </trkpt>
      <trkpt lat="46.18782" lon="6.01308">
        <ele>327.49</ele>
        <time>2015-05-22T07:28:31Z</time>
      </trkpt>
      <trkpt lat="46.18771" lon="6.01287">
        <ele>327.54</ele>
        <time>2015-05-22T07:28:39Z</time>
      </trkpt>
      <trkpt lat="46.18774" lon="6.01287">
        <ele>327.87</ele>
        <time>2015-05-22T07:28:58Z</time>
      </trkpt>
      <trkpt lat="46.18776" lon="6.01292">
        <ele>327.59</ele>
        <time>2015-05-22T07:29:12Z</time>
      </trkpt>
      <trkpt lat="46.18788" lon="6.01306">
        <ele>327.64</ele>
        <time>2015-05-22T07:29:33Z</time>
      </trkpt>
      <trkpt lat="46.18776" lon="6.01289">
        <ele>327.9</ele>
        <time>2015-05-22T07:29:54Z</time>
      </trkpt>
      <trkpt lat="46.18781" lon="6.01292">
        <ele>328.03</ele>
        <time>2015-05-22T07:30:15Z</time>
      </trkpt>
      <trkpt lat="46.18787" lon="6.01301">
        <ele>327.6</ele>
        <time>2015-05-22T07:30:37Z</time>
      </trkpt>
      <trkpt lat="46.18777" lon="6.01294">
        <ele>327.83</ele>
        <time>2015-05-22T07:30:59Z</time>
      </trkpt>
      <trkpt lat="46.18765" lon="6.01283">
        <ele>328.15</ele>
        <time>2015-05-22T07:31:21Z</time>
      </trkpt>
      <trkpt lat="46.18762" lon="6.01286">
        <ele>328.56</ele>
        <time>2015-05-22T07:31:46Z</time>
      </trkpt>
      <trkpt lat="46.18761" lon="6.01262">
        <ele>328.05</ele>
        <time>2015-05-22T07:31:56Z</time>
      </trkpt>
      <trkpt lat="46.18763" lon="6.01255">
        <ele>327.89</ele>
        <time>2015-05-22T07:31:57Z</time>
      </trkpt>
      <trkpt lat="46.18771" lon="6.0123">
        <ele>327.31</ele>
        <time>2015-05-22T07:32:00Z</time>
      </trkpt>
      <trkpt lat="46.18775" lon="6.01221">
        <ele>327.04</ele>
        <time>2015-05-22T07:32:01Z</time>
      </trkpt>
      <trkpt lat="46.18779" lon="6.01212">
        <ele>326.74</ele>
        <time>2015-05-22T07:32:02Z</time>
      </trkpt>
      <trkpt lat="46.18831" lon="6.01132">
        <ele>323.62</ele>
        <time>2015-05-22T07:32:11Z</time>
      </trkpt>
      <trkpt lat="46.18871" lon="6.01081">
        <ele>320.43</ele>
        <time>2015-05-22T07:32:18Z</time>
      </trkpt>
      <trkpt lat="46.18873" lon="6.01072">
        <ele>319.87</ele>
        <time>2015-05-22T07:32:19Z</time>
      </trkpt>
      <trkpt lat="46.18873" lon="6.01063">
        <ele>319.35</ele>
        <time>2015-05-22T07:32:20Z</time>
      </trkpt>
      <trkpt lat="46.1887" lon="6.01056">
        <ele>318.82</ele>
        <time>2015-05-22T07:32:21Z</time>
      </trkpt>
      <trkpt lat="46.18864" lon="6.01054">
        <ele>318.28</ele>
        <time>2015-05-22T07:32:22Z</time>
      </trkpt>
      <trkpt lat="46.18853" lon="6.01057">
        <ele>317.73</ele>
        <time>2015-05-22T07:32:23Z</time>
      </trkpt>
      <trkpt lat="46.18845" lon="6.01062">
        <ele>317.18</ele>
        <time>2015-05-22T07:32:24Z</time>
      </trkpt>
      <trkpt lat="46.18838" lon="6.0107">
        <ele>316.64</ele>
        <time>2015-05-22T07:32:25Z</time>
      </trkpt>
      <trkpt lat="46.18831" lon="6.01077">
        <ele>316.07</ele>
        <time>2015-05-22T07:32:26Z</time>
      </trkpt>
      <trkpt lat="46.18817" lon="6.01093">
        <ele>314.9</ele>
        <time>2015-05-22T07:32:28Z</time>
      </trkpt>
      <trkpt lat="46.18769" lon="6.01139">
        <ele>311.31</ele>
        <time>2015-05-22T07:32:34Z</time>
      </trkpt>
      <trkpt lat="46.18703" lon="6.01172">
        <ele>307.95</ele>
        <time>2015-05-22T07:32:41Z</time>
      </trkpt>
      <trkpt lat="46.18652" lon="6.0117">
        <ele>304.46</ele>
        <time>2015-05-22T07:32:46Z</time>
      </trkpt>
      <trkpt lat="46.18601" lon="6.01164">
        <ele>301.02</ele>
        <time>2015-05-22T07:32:51Z</time>
      </trkpt>
      <trkpt lat="46.1856" lon="6.01158">
        <ele>297.74</ele>
        <time>2015-05-22T07:32:55Z</time>
      </trkpt>
      <trkpt lat="46.1851" lon="6.01154">
        <ele>294.65</ele>
        <time>2015-05-22T07:33:00Z</time>
      </trkpt>
      <trkpt lat="46.18459" lon="6.01149">
        <ele>291.43</ele>
        <time>2015-05-22T07:33:06Z</time>
      </trkpt>
      <trkpt lat="46.18435" lon="6.01146">
        <ele>288.82</ele>
        <time>2015-05-22T07:33:10Z</time>
      </trkpt>
      <trkpt lat="46.18429" lon="6.01143">
        <ele>288.15</ele>
        <time>2015-05-22T07:33:11Z</time>
      </trkpt>
      <trkpt lat="46.18426" lon="6.01139">
        <ele>287.45</ele>
        <time>2015-05-22T07:33:12Z</time>
      </trkpt>
      <trkpt lat="46.18425" lon="6.01133">
        <ele>286.74</ele>
        <time>2015-05-22T07:33:13Z</time>
      </trkpt>
      <trkpt lat="46.18426" lon="6.01125">
        <ele>286.08</ele>
        <time>2015-05-22T07:33:14Z</time>
      </trkpt>
      <trkpt lat="46.18429" lon="6.01119">
        <ele>285.5</ele>
        <time>2015-05-22T07:33:15Z</time>
      </trkpt>
      <trkpt lat="46.18435" lon="6.01113">
        <ele>284.95</ele>
        <time>2015-05-22T07:33:16Z</time>
      </trkpt>
      <trkpt lat="46.18442" lon="6.01112">
        <ele>284.47</ele>
        <time>2015-05-22T07:33:17Z</time>
      </trkpt>
      <trkpt lat="46.18448" lon="6.01111">
        <ele>283.99</ele>
        <time>2015-05-22T07:33:18Z</time>
      </trkpt>
      <trkpt lat="46.18455" lon="6.01112">
        <ele>283.54</ele>
        <time>2015-05-22T07:33:19Z</time>
      </trkpt>
      <trkpt lat="46.18461" lon="6.01112">
        <ele>283.13</ele>
        <time>2015-05-22T07:33:20Z</time>
      </trkpt>
      <trkpt lat="46.18468" lon="6.01112">
        <ele>282.77</ele>
        <time>2015-05-22T07:33:21Z</time>
      </trkpt>
      <trkpt lat="46.18503" lon="6.0111">
        <ele>280.65</ele>
        <time>2015-05-22T07:33:26Z</time>
      </trkpt>
      <trkpt lat="46.1851" lon="6.01107">
        <ele>280.25</ele>
        <time>2015-05-22T07:33:27Z</time>
      </trkpt>
      <trkpt lat="46.18517" lon="6.01104">
        <ele>279.85</ele>
        <time>2015-05-22T07:33:28Z</time>
      </trkpt>
      <trkpt lat="46.18524" lon="6.01099">
        <ele>279.45</ele>
        <time>2015-05-22T07:33:29Z</time>
      </trkpt>
      <trkpt lat="46.18531" lon="6.01093">
        <ele>279.03</ele>
        <time>2015-05-22T07:33:30Z</time>
      </trkpt>
      <trkpt lat="46.18538" lon="6.01086">
        <ele>278.59</ele>
        <time>2015-05-22T07:33:31Z</time>
      </trkpt>
      <trkpt lat="46.18553" lon="6.01072">
        <ele>277.7</ele>
        <time>2015-05-22T07:33:33Z</time>
      </trkpt>
      <trkpt lat="46.18565" lon="6.01054">
        <ele>276.96</ele>
        <time>2015-05-22T07:33:35Z</time>
      </trkpt>
      <trkpt lat="46.1857" lon="6.01043">
        <ele>276.58</ele>
        <time>2015-05-22T07:33:36Z</time>
      </trkpt>
      <trkpt lat="46.18575" lon="6.01032">
        <ele>276.18</ele>
        <time>2015-05-22T07:33:37Z</time>
      </trkpt>
      <trkpt lat="46.18583" lon="6.01008">
        <ele>275.36</ele>
        <time>2015-05-22T07:33:39Z</time>
      </trkpt>
      <trkpt lat="46.18585" lon="6.00995">
        <ele>274.88</ele>
        <time>2015-05-22T07:33:40Z</time>
      </trkpt>
      <trkpt lat="46.18586" lon="6.00983">
        <ele>274.36</ele>
        <time>2015-05-22T07:33:41Z</time>
      </trkpt>
      <trkpt lat="46.18585" lon="6.00972">
        <ele>273.88</ele>
        <time>2015-05-22T07:33:42Z</time>
      </trkpt>
      <trkpt lat="46.18583" lon="6.0096">
        <ele>273.41</ele>
        <time>2015-05-22T07:33:43Z</time>
      </trkpt>
      <trkpt lat="46.1858" lon="6.00948">
        <ele>272.95</ele>
        <time>2015-05-22T07:33:44Z</time>
      </trkpt>
      <trkpt lat="46.18577" lon="6.00938">
        <ele>272.54</ele>
        <time>2015-05-22T07:33:45Z</time>
      </trkpt>
      <trkpt lat="46.18572" lon="6.00927">
        <ele>272.2</ele>
        <time>2015-05-22T07:33:46Z</time>
      </trkpt>
      <trkpt lat="46.18543" lon="6.00861">
        <ele>271.07</ele>
        <time>2015-05-22T07:33:53Z</time>
      </trkpt>
      <trkpt lat="46.18537" lon="6.00853">
        <ele>271</ele>
        <time>2015-05-22T07:33:54Z</time>
      </trkpt>
      <trkpt lat="46.18532" lon="6.00846">
        <ele>270.93</ele>
        <time>2015-05-22T07:33:55Z</time>
      </trkpt>
      <trkpt lat="46.18526" lon="6.0084">
        <ele>270.87</ele>
        <time>2015-05-22T07:33:56Z</time>
      </trkpt>
      <trkpt lat="46.18521" lon="6.00834">
        <ele>270.8</ele>
        <time>2015-05-22T07:33:57Z</time>
      </trkpt>
      <trkpt lat="46.18468" lon="6.00782">
        <ele>271.56</ele>
        <time>2015-05-22T07:34:07Z</time>
      </trkpt>
      <trkpt lat="46.18421" lon="6.00732">
        <ele>274.04</ele>
        <time>2015-05-22T07:34:19Z</time>
      </trkpt>
      <trkpt lat="46.18415" lon="6.00722">
        <ele>274.47</ele>
        <time>2015-05-22T07:34:21Z</time>
      </trkpt>
      <trkpt lat="46.18408" lon="6.00703">
        <ele>275.3</ele>
        <time>2015-05-22T07:34:24Z</time>
      </trkpt>
      <trkpt lat="46.18407" lon="6.00697">
        <ele>275.59</ele>
        <time>2015-05-22T07:34:25Z</time>
      </trkpt>
      <trkpt lat="46.18406" lon="6.0069">
        <ele>275.91</ele>
        <time>2015-05-22T07:34:26Z</time>
      </trkpt>
      <trkpt lat="46.18407" lon="6.00683">
        <ele>276.25</ele>
        <time>2015-05-22T07:34:27Z</time>
      </trkpt>
      <trkpt lat="46.18407" lon="6.00677">
        <ele>276.57</ele>
        <time>2015-05-22T07:34:28Z</time>
      </trkpt>
      <trkpt lat="46.18409" lon="6.00671">
        <ele>276.86</ele>
        <time>2015-05-22T07:34:29Z</time>
      </trkpt>
      <trkpt lat="46.1841" lon="6.00665">
        <ele>277.13</ele>
        <time>2015-05-22T07:34:30Z</time>
      </trkpt>
      <trkpt lat="46.1842" lon="6.00644">
        <ele>278.5</ele>
        <time>2015-05-22T07:34:35Z</time>
      </trkpt>
      <trkpt lat="46.18419" lon="6.00641">
        <ele>278.7</ele>
        <time>2015-05-22T07:34:36Z</time>
      </trkpt>
      <trkpt lat="46.18417" lon="6.00639">
        <ele>278.87</ele>
        <time>2015-05-22T07:34:37Z</time>
      </trkpt>
      <trkpt lat="46.18415" lon="6.00641">
        <ele>279.01</ele>
        <time>2015-05-22T07:34:48Z</time>
      </trkpt>
      <trkpt lat="46.18408" lon="6.0064">
        <ele>280.22</ele>
        <time>2015-05-22T07:35:09Z</time>
      </trkpt>
      <trkpt lat="46.18402" lon="6.00646">
        <ele>280.12</ele>
        <time>2015-05-22T07:35:12Z</time>
      </trkpt>
      <trkpt lat="46.184" lon="6.00649">
        <ele>280.09</ele>
        <time>2015-05-22T07:35:13Z</time>
      </trkpt>
      <trkpt lat="46.18397" lon="6.00654">
        <ele>280.07</ele>
        <time>2015-05-22T07:35:14Z</time>
      </trkpt>
      <trkpt lat="46.18394" lon="6.00659">
        <ele>280.05</ele>
        <time>2015-05-22T07:35:15Z</time>
      </trkpt>
      <trkpt lat="46.18392" lon="6.00666">
        <ele>280.03</ele>
        <time>2015-05-22T07:35:16Z</time>
      </trkpt>
      <trkpt lat="46.18391" lon="6.00673">
        <ele>280.04</ele>
        <time>2015-05-22T07:35:17Z</time>
      </trkpt>
      <trkpt lat="46.18391" lon="6.00682">
        <ele>280.08</ele>
        <time>2015-05-22T07:35:18Z</time>
      </trkpt>
      <trkpt lat="46.18391" lon="6.0069">
        <ele>280.16</ele>
        <time>2015-05-22T07:35:19Z</time>
      </trkpt>
      <trkpt lat="46.18393" lon="6.00698">
        <ele>280.22</ele>
        <time>2015-05-22T07:35:20Z</time>
      </trkpt>
      <trkpt lat="46.18394" lon="6.00706">
        <ele>280.27</ele>
        <time>2015-05-22T07:35:21Z</time>
      </trkpt>
      <trkpt lat="46.18397" lon="6.00713">
        <ele>280.29</ele>
        <time>2015-05-22T07:35:22Z</time>
      </trkpt>
      <trkpt lat="46.184" lon="6.00721">
        <ele>280.28</ele>
        <time>2015-05-22T07:35:23Z</time>
      </trkpt>
      <trkpt lat="46.18404" lon="6.00728">
        <ele>280.27</ele>
        <time>2015-05-22T07:35:24Z</time>
      </trkpt>
      <trkpt lat="46.18409" lon="6.00735">
        <ele>280.24</ele>
        <time>2015-05-22T07:35:25Z</time>
      </trkpt>
      <trkpt lat="46.18414" lon="6.00741">
        <ele>280.19</ele>
        <time>2015-05-22T07:35:26Z</time>
      </trkpt>
      <trkpt lat="46.18419" lon="6.00748">
        <ele>279.94</ele>
        <time>2015-05-22T07:35:27Z</time>
      </trkpt>
      <trkpt lat="46.18426" lon="6.00754">
        <ele>279.65</ele>
        <time>2015-05-22T07:35:28Z</time>
      </trkpt>
      <trkpt lat="46.18472" lon="6.00799">
        <ele>276.51</ele>
        <time>2015-05-22T07:35:36Z</time>
      </trkpt>
      <trkpt lat="46.18493" lon="6.0082">
        <ele>274.76</ele>
        <time>2015-05-22T07:35:40Z</time>
      </trkpt>
      <trkpt lat="46.18496" lon="6.00825">
        <ele>274.39</ele>
        <time>2015-05-22T07:35:41Z</time>
      </trkpt>
      <trkpt lat="46.18498" lon="6.0083">
        <ele>274.06</ele>
        <time>2015-05-22T07:35:42Z</time>
      </trkpt>
      <trkpt lat="46.18495" lon="6.00836">
        <ele>273.79</ele>
        <time>2015-05-22T07:35:43Z</time>
      </trkpt>
      <trkpt lat="46.18491" lon="6.0084">
        <ele>273.51</ele>
        <time>2015-05-22T07:35:44Z</time>
      </trkpt>
      <trkpt lat="46.18485" lon="6.00841">
        <ele>273.1</ele>
        <time>2015-05-22T07:35:45Z</time>
      </trkpt>
      <trkpt lat="46.18479" lon="6.00839">
        <ele>272.56</ele>
        <time>2015-05-22T07:35:46Z</time>
      </trkpt>
      <trkpt lat="46.18472" lon="6.00835">
        <ele>272.04</ele>
        <time>2015-05-22T07:35:47Z</time>
      </trkpt>
      <trkpt lat="46.18465" lon="6.00831">
        <ele>271.6</ele>
        <time>2015-05-22T07:35:48Z</time>
      </trkpt>
      <trkpt lat="46.18372" lon="6.00788">
        <ele>269.64</ele>
        <time>2015-05-22T07:36:00Z</time>
      </trkpt>
      <trkpt lat="46.18281" lon="6.00771">
        <ele>267.48</ele>
        <time>2015-05-22T07:36:11Z</time>
      </trkpt>
      <trkpt lat="46.18184" lon="6.00756">
        <ele>266.58</ele>
        <time>2015-05-22T07:36:22Z</time>
      </trkpt>
      <trkpt lat="46.18127" lon="6.00716">
        <ele>265.58</ele>
        <time>2015-05-22T07:36:29Z</time>
      </trkpt>
      <trkpt lat="46.18034" lon="6.00681">
        <ele>264.88</ele>
        <time>2015-05-22T07:36:40Z</time>
      </trkpt>
      <trkpt lat="46.17931" lon="6.00646">
        <ele>263.66</ele>
        <time>2015-05-22T07:36:52Z</time>
      </trkpt>
      <trkpt lat="46.17916" lon="6.00643">
        <ele>263.48</ele>
        <time>2015-05-22T07:36:54Z</time>
      </trkpt>
      <trkpt lat="46.1791" lon="6.00644">
        <ele>263.47</ele>
        <time>2015-05-22T07:36:55Z</time>
      </trkpt>
      <trkpt lat="46.17903" lon="6.00646">
        <ele>263.49</ele>
        <time>2015-05-22T07:36:56Z</time>
      </trkpt>
      <trkpt lat="46.17891" lon="6.0065">
        <ele>263.64</ele>
        <time>2015-05-22T07:36:58Z</time>
      </trkpt>
      <trkpt lat="46.17885" lon="6.0065">
        <ele>263.76</ele>
        <time>2015-05-22T07:36:59Z</time>
      </trkpt>
      <trkpt lat="46.17878" lon="6.00648">
        <ele>263.87</ele>
        <time>2015-05-22T07:37:00Z</time>
      </trkpt>
      <trkpt lat="46.1782" lon="6.00598">
        <ele>264.89</ele>
        <time>2015-05-22T07:37:10Z</time>
      </trkpt>
      <trkpt lat="46.17815" lon="6.0059">
        <ele>264.91</ele>
        <time>2015-05-22T07:37:11Z</time>
      </trkpt>
      <trkpt lat="46.17812" lon="6.00581">
        <ele>264.91</ele>
        <time>2015-05-22T07:37:12Z</time>
      </trkpt>
      <trkpt lat="46.17809" lon="6.00572">
        <ele>264.89</ele>
        <time>2015-05-22T07:37:13Z</time>
      </trkpt>
      <trkpt lat="46.17808" lon="6.00562">
        <ele>264.85</ele>
        <time>2015-05-22T07:37:14Z</time>
      </trkpt>
      <trkpt lat="46.17807" lon="6.00552">
        <ele>264.76</ele>
        <time>2015-05-22T07:37:15Z</time>
      </trkpt>
      <trkpt lat="46.17805" lon="6.00524">
        <ele>264.51</ele>
        <time>2015-05-22T07:37:18Z</time>
      </trkpt>
      <trkpt lat="46.17798" lon="6.00389">
        <ele>264.38</ele>
        <time>2015-05-22T07:37:32Z</time>
      </trkpt>
      <trkpt lat="46.17797" lon="6.00298">
        <ele>263.52</ele>
        <time>2015-05-22T07:37:42Z</time>
      </trkpt>
      <trkpt lat="46.17797" lon="6.00279">
        <ele>262.93</ele>
        <time>2015-05-22T07:37:44Z</time>
      </trkpt>
      <trkpt lat="46.17797" lon="6.00259">
        <ele>262.63</ele>
        <time>2015-05-22T07:37:46Z</time>
      </trkpt>
      <trkpt lat="46.17791" lon="6.00149">
        <ele>262.22</ele>
        <time>2015-05-22T07:37:57Z</time>
      </trkpt>
      <trkpt lat="46.17791" lon="6.00107">
        <ele>262.29</ele>
        <time>2015-05-22T07:38:02Z</time>
      </trkpt>
      <trkpt lat="46.17791" lon="6.00099">
        <ele>262.33</ele>
        <time>2015-05-22T07:38:04Z</time>
      </trkpt>
      <trkpt lat="46.17789" lon="6.00097">
        <ele>261.63</ele>
        <time>2015-05-22T07:38:19Z</time>
      </trkpt>
      <trkpt lat="46.17785" lon="6.0009">
        <ele>262.29</ele>
        <time>2015-05-22T07:38:38Z</time>
      </trkpt>
      <trkpt lat="46.17784" lon="6.00089">
        <ele>262.23</ele>
        <time>2015-05-22T07:38:39Z</time>
      </trkpt>
      <trkpt lat="46.17781" lon="6.00087">
        <ele>262.17</ele>
        <time>2015-05-22T07:38:40Z</time>
      </trkpt>
      <trkpt lat="46.17779" lon="6.00086">
        <ele>262.08</ele>
        <time>2015-05-22T07:38:41Z</time>
      </trkpt>
      <trkpt lat="46.17776" lon="6.00085">
        <ele>261.98</ele>
        <time>2015-05-22T07:38:42Z</time>
      </trkpt>
      <trkpt lat="46.17772" lon="6.00085">
        <ele>261.8</ele>
        <time>2015-05-22T07:38:43Z</time>
      </trkpt>
      <trkpt lat="46.17768" lon="6.00086">
        <ele>261.73</ele>
        <time>2015-05-22T07:38:44Z</time>
      </trkpt>
      <trkpt lat="46.17764" lon="6.00087">
        <ele>261.66</ele>
        <time>2015-05-22T07:38:45Z</time>
      </trkpt>
      <trkpt lat="46.1776" lon="6.00089">
        <ele>261.62</ele>
        <time>2015-05-22T07:38:46Z</time>
      </trkpt>
      <trkpt lat="46.17747" lon="6.00094">
        <ele>261.63</ele>
        <time>2015-05-22T07:38:49Z</time>
      </trkpt>
      <trkpt lat="46.17737" lon="6.00098">
        <ele>261.71</ele>
        <time>2015-05-22T07:38:51Z</time>
      </trkpt>
      <trkpt lat="46.17714" lon="6.00102">
        <ele>261.84</ele>
        <time>2015-05-22T07:38:55Z</time>
      </trkpt>
      <trkpt lat="46.17708" lon="6.00101">
        <ele>261.86</ele>
        <time>2015-05-22T07:38:56Z</time>
      </trkpt>
      <trkpt lat="46.17688" lon="6.00096">
        <ele>261.72</ele>
        <time>2015-05-22T07:38:59Z</time>
      </trkpt>
      <trkpt lat="46.17607" lon="6.00063">
        <ele>262.15</ele>
        <time>2015-05-22T07:39:11Z</time>
      </trkpt>
      <trkpt lat="46.17547" lon="6.00038">
        <ele>262.57</ele>
        <time>2015-05-22T07:39:20Z</time>
      </trkpt>
      <trkpt lat="46.17542" lon="6.00033">
        <ele>262.58</ele>
        <time>2015-05-22T07:39:21Z</time>
      </trkpt>
      <trkpt lat="46.17539" lon="6.00025">
        <ele>262.58</ele>
        <time>2015-05-22T07:39:22Z</time>
      </trkpt>
      <trkpt lat="46.17538" lon="6.00017">
        <ele>262.59</ele>
        <time>2015-05-22T07:39:23Z</time>
      </trkpt>
      <trkpt lat="46.17538" lon="6.00009">
        <ele>262.6</ele>
        <time>2015-05-22T07:39:24Z</time>
      </trkpt>
      <trkpt lat="46.17539" lon="6.00001">
        <ele>262.63</ele>
        <time>2015-05-22T07:39:25Z</time>
      </trkpt>
      <trkpt lat="46.17541" lon="5.99994">
        <ele>262.68</ele>
        <time>2015-05-22T07:39:26Z</time>
      </trkpt>
      <trkpt lat="46.17542" lon="5.99986">
        <ele>262.78</ele>
        <time>2015-05-22T07:39:27Z</time>
      </trkpt>
      <trkpt lat="46.17555" lon="5.99924">
        <ele>264.49</ele>
        <time>2015-05-22T07:39:37Z</time>
      </trkpt>
      <trkpt lat="46.17557" lon="5.99912">
        <ele>264.8</ele>
        <time>2015-05-22T07:39:39Z</time>
      </trkpt>
      <trkpt lat="46.1757" lon="5.99835">
        <ele>266.84</ele>
        <time>2015-05-22T07:39:51Z</time>
      </trkpt>
      <trkpt lat="46.17573" lon="5.99815">
        <ele>267.43</ele>
        <time>2015-05-22T07:39:54Z</time>
      </trkpt>
      <trkpt lat="46.17573" lon="5.99808">
        <ele>267.64</ele>
        <time>2015-05-22T07:39:55Z</time>
      </trkpt>
      <trkpt lat="46.17572" lon="5.99801">
        <ele>267.85</ele>
        <time>2015-05-22T07:39:56Z</time>
      </trkpt>
      <trkpt lat="46.17571" lon="5.99788">
        <ele>268.42</ele>
        <time>2015-05-22T07:39:58Z</time>
      </trkpt>
      <trkpt lat="46.1757" lon="5.99782">
        <ele>268.71</ele>
        <time>2015-05-22T07:39:59Z</time>
      </trkpt>
      <trkpt lat="46.17567" lon="5.99777">
        <ele>268.99</ele>
        <time>2015-05-22T07:40:00Z</time>
      </trkpt>
      <trkpt lat="46.17564" lon="5.99771">
        <ele>269.26</ele>
        <time>2015-05-22T07:40:01Z</time>
      </trkpt>
      <trkpt lat="46.1756" lon="5.99767">
        <ele>269.55</ele>
        <time>2015-05-22T07:40:02Z</time>
      </trkpt>
      <trkpt lat="46.17555" lon="5.99764">
        <ele>269.81</ele>
        <time>2015-05-22T07:40:03Z</time>
      </trkpt>
      <trkpt lat="46.1755" lon="5.99762">
        <ele>270.03</ele>
        <time>2015-05-22T07:40:04Z</time>
      </trkpt>
      <trkpt lat="46.17545" lon="5.99762">
        <ele>270.21</ele>
        <time>2015-05-22T07:40:05Z</time>
      </trkpt>
      <trkpt lat="46.1754" lon="5.99762">
        <ele>270.35</ele>
        <time>2015-05-22T07:40:06Z</time>
      </trkpt>
      <trkpt lat="46.17536" lon="5.99764">
        <ele>270.58</ele>
        <time>2015-05-22T07:40:07Z</time>
      </trkpt>
      <trkpt lat="46.17531" lon="5.99765">
        <ele>270.65</ele>
        <time>2015-05-22T07:40:08Z</time>
      </trkpt>
      <trkpt lat="46.17526" lon="5.99768">
        <ele>270.73</ele>
        <time>2015-05-22T07:40:09Z</time>
      </trkpt>
      <trkpt lat="46.17522" lon="5.99771">
        <ele>270.83</ele>
        <time>2015-05-22T07:40:10Z</time>
      </trkpt>
      <trkpt lat="46.17519" lon="5.99776">
        <ele>270.93</ele>
        <time>2015-05-22T07:40:11Z</time>
      </trkpt>
      <trkpt lat="46.17516" lon="5.99781">
        <ele>271.05</ele>
        <time>2015-05-22T07:40:12Z</time>
      </trkpt>
      <trkpt lat="46.17514" lon="5.99787">
        <ele>271.19</ele>
        <time>2015-05-22T07:40:13Z</time>
      </trkpt>
      <trkpt lat="46.17512" lon="5.99793">
        <ele>271.33</ele>
        <time>2015-05-22T07:40:14Z</time>
      </trkpt>
      <trkpt lat="46.17511" lon="5.998">
        <ele>271.5</ele>
        <time>2015-05-22T07:40:15Z</time>
      </trkpt>
      <trkpt lat="46.1751" lon="5.99806">
        <ele>271.74</ele>
        <time>2015-05-22T07:40:16Z</time>
      </trkpt>
      <trkpt lat="46.17505" lon="5.99837">
        <ele>273.39</ele>
        <time>2015-05-22T07:40:21Z</time>
      </trkpt>
      <trkpt lat="46.17503" lon="5.99842">
        <ele>273.69</ele>
        <time>2015-05-22T07:40:22Z</time>
      </trkpt>
      <trkpt lat="46.17502" lon="5.99848">
        <ele>273.93</ele>
        <time>2015-05-22T07:40:23Z</time>
      </trkpt>
      <trkpt lat="46.17501" lon="5.99854">
        <ele>274.13</ele>
        <time>2015-05-22T07:40:24Z</time>
      </trkpt>
      <trkpt lat="46.175" lon="5.9986">
        <ele>274.3</ele>
        <time>2015-05-22T07:40:25Z</time>
      </trkpt>
      <trkpt lat="46.17493" lon="5.99901">
        <ele>275.44</ele>
        <time>2015-05-22T07:40:32Z</time>
      </trkpt>
      <trkpt lat="46.17489" lon="5.99918">
        <ele>275.99</ele>
        <time>2015-05-22T07:40:35Z</time>
      </trkpt>
      <trkpt lat="46.17488" lon="5.99924">
        <ele>276.13</ele>
        <time>2015-05-22T07:40:36Z</time>
      </trkpt>
      <trkpt lat="46.17474" lon="5.9998">
        <ele>277.83</ele>
        <time>2015-05-22T07:40:46Z</time>
      </trkpt>
      <trkpt lat="46.1747" lon="6.00009">
        <ele>278.63</ele>
        <time>2015-05-22T07:40:51Z</time>
      </trkpt>
      <trkpt lat="46.17469" lon="6.00014">
        <ele>278.81</ele>
        <time>2015-05-22T07:40:52Z</time>
      </trkpt>
      <trkpt lat="46.17468" lon="6.0002">
        <ele>279</ele>
        <time>2015-05-22T07:40:53Z</time>
      </trkpt>
      <trkpt lat="46.17463" lon="6.00043">
        <ele>279.71</ele>
        <time>2015-05-22T07:40:57Z</time>
      </trkpt>
      <trkpt lat="46.1746" lon="6.00055">
        <ele>280.07</ele>
        <time>2015-05-22T07:40:59Z</time>
      </trkpt>
      <trkpt lat="46.17448" lon="6.00124">
        <ele>282.2</ele>
        <time>2015-05-22T07:41:12Z</time>
      </trkpt>
      <trkpt lat="46.17436" lon="6.00181">
        <ele>284.37</ele>
        <time>2015-05-22T07:41:23Z</time>
      </trkpt>
      <trkpt lat="46.17426" lon="6.00243">
        <ele>286.31</ele>
        <time>2015-05-22T07:41:35Z</time>
      </trkpt>
      <trkpt lat="46.17417" lon="6.00292">
        <ele>288.17</ele>
        <time>2015-05-22T07:41:46Z</time>
      </trkpt>
      <trkpt lat="46.17409" lon="6.00348">
        <ele>290.85</ele>
        <time>2015-05-22T07:41:59Z</time>
      </trkpt>
      <trkpt lat="46.17411" lon="6.0035">
        <ele>291.02</ele>
        <time>2015-05-22T07:42:00Z</time>
      </trkpt>
      <trkpt lat="46.17413" lon="6.00351">
        <ele>291.18</ele>
        <time>2015-05-22T07:42:01Z</time>
      </trkpt>
      <trkpt lat="46.17417" lon="6.00348">
        <ele>291.53</ele>
        <time>2015-05-22T07:42:03Z</time>
      </trkpt>
      <trkpt lat="46.17417" lon="6.00348">
        <ele>292.47</ele>
        <time>2015-05-22T07:42:17Z</time>
      </trkpt>
      <trkpt lat="46.17412" lon="6.00353">
        <ele>292.1</ele>
        <time>2015-05-22T07:42:41Z</time>
      </trkpt>
      <trkpt lat="46.17412" lon="6.00356">
        <ele>292.07</ele>
        <time>2015-05-22T07:43:08Z</time>
      </trkpt>
      <trkpt lat="46.1741" lon="6.00357">
        <ele>292.06</ele>
        <time>2015-05-22T07:43:30Z</time>
      </trkpt>
      <trkpt lat="46.17404" lon="6.00367">
        <ele>292.05</ele>
        <time>2015-05-22T07:43:34Z</time>
      </trkpt>
      <trkpt lat="46.17404" lon="6.00371">
        <ele>292.04</ele>
        <time>2015-05-22T07:43:35Z</time>
      </trkpt>
      <trkpt lat="46.17403" lon="6.00375">
        <ele>292.04</ele>
        <time>2015-05-22T07:43:36Z</time>
      </trkpt>
      <trkpt lat="46.17389" lon="6.00425">
        <ele>293.12</ele>
        <time>2015-05-22T07:43:48Z</time>
      </trkpt>
      <trkpt lat="46.1738" lon="6.00479">
        <ele>295.55</ele>
        <time>2015-05-22T07:44:00Z</time>
      </trkpt>
      <trkpt lat="46.1737" lon="6.00532">
        <ele>298.16</ele>
        <time>2015-05-22T07:44:12Z</time>
      </trkpt>
      <trkpt lat="46.17327" lon="6.00552">
        <ele>301.28</ele>
        <time>2015-05-22T07:44:25Z</time>
      </trkpt>
      <trkpt lat="46.17293" lon="6.00537">
        <ele>302.3</ele>
        <time>2015-05-22T07:44:38Z</time>
      </trkpt>
      <trkpt lat="46.17263" lon="6.00497">
        <ele>304.77</ele>
        <time>2015-05-22T07:44:54Z</time>
      </trkpt>
      <trkpt lat="46.17245" lon="6.00467">
        <ele>308.09</ele>
        <time>2015-05-22T07:45:04Z</time>
      </trkpt>
      <trkpt lat="46.17232" lon="6.00443">
        <ele>311.1</ele>
        <time>2015-05-22T07:45:12Z</time>
      </trkpt>
      <trkpt lat="46.17209" lon="6.00403">
        <ele>314.25</ele>
        <time>2015-05-22T07:45:25Z</time>
      </trkpt>
      <trkpt lat="46.17183" lon="6.00354">
        <ele>315.97</ele>
        <time>2015-05-22T07:45:40Z</time>
      </trkpt>
      <trkpt lat="46.17149" lon="6.00289">
        <ele>318.1</ele>
        <time>2015-05-22T07:45:57Z</time>
      </trkpt>
      <trkpt lat="46.17118" lon="6.00226">
        <ele>321.34</ele>
        <time>2015-05-22T07:46:13Z</time>
      </trkpt>
      <trkpt lat="46.17095" lon="6.00194">
        <ele>324.72</ele>
        <time>2015-05-22T07:46:23Z</time>
      </trkpt>
      <trkpt lat="46.17054" lon="6.00162">
        <ele>326.06</ele>
        <time>2015-05-22T07:46:37Z</time>
      </trkpt>
      <trkpt lat="46.17026" lon="6.00132">
        <ele>329.14</ele>
        <time>2015-05-22T07:46:48Z</time>
      </trkpt>
      <trkpt lat="46.17" lon="6.00114">
        <ele>331.23</ele>
        <time>2015-05-22T07:46:58Z</time>
      </trkpt>
      <trkpt lat="46.16966" lon="6.00132">
        <ele>332.9</ele>
        <time>2015-05-22T07:47:09Z</time>
      </trkpt>
      <trkpt lat="46.16964" lon="6.00131">
        <ele>333.08</ele>
        <time>2015-05-22T07:47:10Z</time>
      </trkpt>
      <trkpt lat="46.16962" lon="6.00129">
        <ele>333.38</ele>
        <time>2015-05-22T07:47:11Z</time>
      </trkpt>
      <trkpt lat="46.1696" lon="6.00125">
        <ele>333.49</ele>
        <time>2015-05-22T07:47:12Z</time>
      </trkpt>
      <trkpt lat="46.16959" lon="6.00122">
        <ele>333.61</ele>
        <time>2015-05-22T07:47:13Z</time>
      </trkpt>
      <trkpt lat="46.1694" lon="6.00054">
        <ele>333.88</ele>
        <time>2015-05-22T07:47:24Z</time>
      </trkpt>
      <trkpt lat="46.16912" lon="5.99958">
        <ele>333.65</ele>
        <time>2015-05-22T07:47:37Z</time>
      </trkpt>
      <trkpt lat="46.16905" lon="5.99936">
        <ele>333.3</ele>
        <time>2015-05-22T07:47:40Z</time>
      </trkpt>
      <trkpt lat="46.16903" lon="5.99928">
        <ele>333.21</ele>
        <time>2015-05-22T07:47:41Z</time>
      </trkpt>
      <trkpt lat="46.16889" lon="5.99873">
        <ele>333.14</ele>
        <time>2015-05-22T07:47:49Z</time>
      </trkpt>
      <trkpt lat="46.16888" lon="5.99864">
        <ele>333.04</ele>
        <time>2015-05-22T07:47:50Z</time>
      </trkpt>
      <trkpt lat="46.16869" lon="5.99748">
        <ele>331.52</ele>
        <time>2015-05-22T07:48:02Z</time>
      </trkpt>
      <trkpt lat="46.16843" lon="5.99662">
        <ele>329.54</ele>
        <time>2015-05-22T07:48:11Z</time>
      </trkpt>
      <trkpt lat="46.16843" lon="5.99651">
        <ele>329.34</ele>
        <time>2015-05-22T07:48:12Z</time>
      </trkpt>
      <trkpt lat="46.16843" lon="5.99641">
        <ele>329.14</ele>
        <time>2015-05-22T07:48:13Z</time>
      </trkpt>
      <trkpt lat="46.1685" lon="5.99533">
        <ele>326.94</ele>
        <time>2015-05-22T07:48:24Z</time>
      </trkpt>
      <trkpt lat="46.16849" lon="5.99393">
        <ele>326.03</ele>
        <time>2015-05-22T07:48:40Z</time>
      </trkpt>
      <trkpt lat="46.16847" lon="5.99385">
        <ele>326.04</ele>
        <time>2015-05-22T07:48:41Z</time>
      </trkpt>
      <trkpt lat="46.16846" lon="5.99377">
        <ele>326.04</ele>
        <time>2015-05-22T07:48:42Z</time>
      </trkpt>
      <trkpt lat="46.16835" lon="5.99331">
        <ele>325.92</ele>
        <time>2015-05-22T07:48:48Z</time>
      </trkpt>
      <trkpt lat="46.16832" lon="5.99324">
        <ele>325.85</ele>
        <time>2015-05-22T07:48:49Z</time>
      </trkpt>
      <trkpt lat="46.16824" lon="5.99305">
        <ele>325.69</ele>
        <time>2015-05-22T07:48:52Z</time>
      </trkpt>
      <trkpt lat="46.16784" lon="5.99212">
        <ele>326.03</ele>
        <time>2015-05-22T07:49:06Z</time>
      </trkpt>
      <trkpt lat="46.16766" lon="5.99131">
        <ele>325.02</ele>
        <time>2015-05-22T07:49:17Z</time>
      </trkpt>
      <trkpt lat="46.16745" lon="5.99015">
        <ele>325.09</ele>
        <time>2015-05-22T07:49:31Z</time>
      </trkpt>
      <trkpt lat="46.16744" lon="5.99007">
        <ele>325.09</ele>
        <time>2015-05-22T07:49:32Z</time>
      </trkpt>
      <trkpt lat="46.16743" lon="5.98999">
        <ele>325.07</ele>
        <time>2015-05-22T07:49:33Z</time>
      </trkpt>
      <trkpt lat="46.16742" lon="5.98992">
        <ele>325.02</ele>
        <time>2015-05-22T07:49:34Z</time>
      </trkpt>
      <trkpt lat="46.1674" lon="5.98984">
        <ele>324.98</ele>
        <time>2015-05-22T07:49:35Z</time>
      </trkpt>
      <trkpt lat="46.16727" lon="5.98902">
        <ele>325.81</ele>
        <time>2015-05-22T07:49:45Z</time>
      </trkpt>
      <trkpt lat="46.16716" lon="5.98797">
        <ele>325.5</ele>
        <time>2015-05-22T07:49:57Z</time>
      </trkpt>
      <trkpt lat="46.16717" lon="5.98779">
        <ele>325.4</ele>
        <time>2015-05-22T07:49:59Z</time>
      </trkpt>
      <trkpt lat="46.16719" lon="5.98753">
        <ele>325.37</ele>
        <time>2015-05-22T07:50:02Z</time>
      </trkpt>
      <trkpt lat="46.16723" lon="5.98728">
        <ele>325.39</ele>
        <time>2015-05-22T07:50:05Z</time>
      </trkpt>
      <trkpt lat="46.16724" lon="5.98719">
        <ele>325.44</ele>
        <time>2015-05-22T07:50:06Z</time>
      </trkpt>
      <trkpt lat="46.16733" lon="5.98678">
        <ele>325.01</ele>
        <time>2015-05-22T07:50:11Z</time>
      </trkpt>
      <trkpt lat="46.16735" lon="5.9867">
        <ele>324.77</ele>
        <time>2015-05-22T07:50:12Z</time>
      </trkpt>
      <trkpt lat="46.16738" lon="5.98663">
        <ele>324.57</ele>
        <time>2015-05-22T07:50:13Z</time>
      </trkpt>
      <trkpt lat="46.16742" lon="5.98657">
        <ele>324.38</ele>
        <time>2015-05-22T07:50:14Z</time>
      </trkpt>
      <trkpt lat="46.16746" lon="5.98651">
        <ele>324.15</ele>
        <time>2015-05-22T07:50:15Z</time>
      </trkpt>
      <trkpt lat="46.16749" lon="5.98644">
        <ele>323.92</ele>
        <time>2015-05-22T07:50:16Z</time>
      </trkpt>
      <trkpt lat="46.1678" lon="5.98579">
        <ele>323.03</ele>
        <time>2015-05-22T07:50:24Z</time>
      </trkpt>
      <trkpt lat="46.16788" lon="5.98541">
        <ele>321.92</ele>
        <time>2015-05-22T07:50:28Z</time>
      </trkpt>
      <trkpt lat="46.16802" lon="5.98457">
        <ele>319.49</ele>
        <time>2015-05-22T07:50:36Z</time>
      </trkpt>
      <trkpt lat="46.16804" lon="5.98433">
        <ele>318.68</ele>
        <time>2015-05-22T07:50:38Z</time>
      </trkpt>
      <trkpt lat="46.16803" lon="5.98422">
        <ele>318.01</ele>
        <time>2015-05-22T07:50:39Z</time>
      </trkpt>
      <trkpt lat="46.16802" lon="5.98412">
        <ele>317.65</ele>
        <time>2015-05-22T07:50:40Z</time>
      </trkpt>
      <trkpt lat="46.16792" lon="5.98347">
        <ele>314.14</ele>
        <time>2015-05-22T07:50:46Z</time>
      </trkpt>
      <trkpt lat="46.1679" lon="5.98337">
        <ele>313.6</ele>
        <time>2015-05-22T07:50:47Z</time>
      </trkpt>
      <trkpt lat="46.16781" lon="5.98307">
        <ele>312.15</ele>
        <time>2015-05-22T07:50:50Z</time>
      </trkpt>
      <trkpt lat="46.16776" lon="5.98298">
        <ele>311.63</ele>
        <time>2015-05-22T07:50:51Z</time>
      </trkpt>
      <trkpt lat="46.16771" lon="5.98289">
        <ele>311.04</ele>
        <time>2015-05-22T07:50:52Z</time>
      </trkpt>
      <trkpt lat="46.16764" lon="5.98281">
        <ele>310.47</ele>
        <time>2015-05-22T07:50:53Z</time>
      </trkpt>
      <trkpt lat="46.16757" lon="5.98273">
        <ele>309.94</ele>
        <time>2015-05-22T07:50:54Z</time>
      </trkpt>
      <trkpt lat="46.16749" lon="5.98267">
        <ele>309.4</ele>
        <time>2015-05-22T07:50:55Z</time>
      </trkpt>
      <trkpt lat="46.16741" lon="5.98263">
        <ele>308.81</ele>
        <time>2015-05-22T07:50:56Z</time>
      </trkpt>
      <trkpt lat="46.16733" lon="5.9826">
        <ele>308.22</ele>
        <time>2015-05-22T07:50:57Z</time>
      </trkpt>
      <trkpt lat="46.16725" lon="5.98257">
        <ele>307.65</ele>
        <time>2015-05-22T07:50:58Z</time>
      </trkpt>
      <trkpt lat="46.16685" lon="5.98249">
        <ele>304.58</ele>
        <time>2015-05-22T07:51:03Z</time>
      </trkpt>
      <trkpt lat="46.16616" lon="5.98241">
        <ele>301.24</ele>
        <time>2015-05-22T07:51:11Z</time>
      </trkpt>
      <trkpt lat="46.16552" lon="5.9824">
        <ele>298.22</ele>
        <time>2015-05-22T07:51:18Z</time>
      </trkpt>
      <trkpt lat="46.16473" lon="5.98264">
        <ele>296.26</ele>
        <time>2015-05-22T07:51:29Z</time>
      </trkpt>
      <trkpt lat="46.16378" lon="5.98302">
        <ele>296.28</ele>
        <time>2015-05-22T07:51:43Z</time>
      </trkpt>
      <trkpt lat="46.16278" lon="5.98309">
        <ele>296.18</ele>
        <time>2015-05-22T07:51:57Z</time>
      </trkpt>
      <trkpt lat="46.16185" lon="5.98286">
        <ele>294.91</ele>
        <time>2015-05-22T07:52:09Z</time>
      </trkpt>
      <trkpt lat="46.16073" lon="5.98268">
        <ele>292.25</ele>
        <time>2015-05-22T07:52:23Z</time>
      </trkpt>
      <trkpt lat="46.15973" lon="5.98258">
        <ele>290.7</ele>
        <time>2015-05-22T07:52:35Z</time>
      </trkpt>
      <trkpt lat="46.15902" lon="5.98266">
        <ele>290.1</ele>
        <time>2015-05-22T07:52:45Z</time>
      </trkpt>
      <trkpt lat="46.15897" lon="5.98269">
        <ele>290.1</ele>
        <time>2015-05-22T07:52:46Z</time>
      </trkpt>
      <trkpt lat="46.15892" lon="5.98272">
        <ele>290.08</ele>
        <time>2015-05-22T07:52:47Z</time>
      </trkpt>
      <trkpt lat="46.15888" lon="5.98276">
        <ele>290.07</ele>
        <time>2015-05-22T07:52:48Z</time>
      </trkpt>
      <trkpt lat="46.15884" lon="5.98279">
        <ele>290.02</ele>
        <time>2015-05-22T07:52:49Z</time>
      </trkpt>
      <trkpt lat="46.1588" lon="5.9828">
        <ele>289.9</ele>
        <time>2015-05-22T07:52:50Z</time>
      </trkpt>
      <trkpt lat="46.15877" lon="5.98279">
        <ele>289.7</ele>
        <time>2015-05-22T07:52:51Z</time>
      </trkpt>
      <trkpt lat="46.15875" lon="5.98275">
        <ele>289.46</ele>
        <time>2015-05-22T07:52:52Z</time>
      </trkpt>
      <trkpt lat="46.15874" lon="5.98269">
        <ele>289.21</ele>
        <time>2015-05-22T07:52:53Z</time>
      </trkpt>
      <trkpt lat="46.15873" lon="5.98261">
        <ele>288.95</ele>
        <time>2015-05-22T07:52:54Z</time>
      </trkpt>
      <trkpt lat="46.15872" lon="5.98254">
        <ele>288.69</ele>
        <time>2015-05-22T07:52:55Z</time>
      </trkpt>
      <trkpt lat="46.15868" lon="5.98205">
        <ele>286.92</ele>
        <time>2015-05-22T07:53:03Z</time>
      </trkpt>
      <trkpt lat="46.15866" lon="5.982">
        <ele>286.64</ele>
        <time>2015-05-22T07:53:04Z</time>
      </trkpt>
      <trkpt lat="46.15862" lon="5.98198">
        <ele>286.26</ele>
        <time>2015-05-22T07:53:05Z</time>
      </trkpt>
      <trkpt lat="46.15857" lon="5.98197">
        <ele>285.76</ele>
        <time>2015-05-22T07:53:06Z</time>
      </trkpt>
      <trkpt lat="46.15852" lon="5.98196">
        <ele>285.24</ele>
        <time>2015-05-22T07:53:07Z</time>
      </trkpt>
      <trkpt lat="46.15783" lon="5.98181">
        <ele>283.78</ele>
        <time>2015-05-22T07:53:19Z</time>
      </trkpt>
      <trkpt lat="46.15778" lon="5.98177">
        <ele>283.78</ele>
        <time>2015-05-22T07:53:20Z</time>
      </trkpt>
      <trkpt lat="46.15772" lon="5.98174">
        <ele>283.81</ele>
        <time>2015-05-22T07:53:21Z</time>
      </trkpt>
      <trkpt lat="46.15762" lon="5.98164">
        <ele>283.84</ele>
        <time>2015-05-22T07:53:23Z</time>
      </trkpt>
      <trkpt lat="46.15737" lon="5.98138">
        <ele>283.88</ele>
        <time>2015-05-22T07:53:28Z</time>
      </trkpt>
      <trkpt lat="46.15731" lon="5.98133">
        <ele>283.91</ele>
        <time>2015-05-22T07:53:29Z</time>
      </trkpt>
      <trkpt lat="46.15726" lon="5.9813">
        <ele>283.95</ele>
        <time>2015-05-22T07:53:30Z</time>
      </trkpt>
      <trkpt lat="46.1572" lon="5.98128">
        <ele>283.98</ele>
        <time>2015-05-22T07:53:31Z</time>
      </trkpt>
      <trkpt lat="46.15714" lon="5.98127">
        <ele>284.02</ele>
        <time>2015-05-22T07:53:32Z</time>
      </trkpt>
      <trkpt lat="46.15709" lon="5.98126">
        <ele>284.09</ele>
        <time>2015-05-22T07:53:33Z</time>
      </trkpt>
      <trkpt lat="46.15673" lon="5.98121">
        <ele>284.58</ele>
        <time>2015-05-22T07:53:39Z</time>
      </trkpt>
      <trkpt lat="46.15668" lon="5.98119">
        <ele>284.57</ele>
        <time>2015-05-22T07:53:40Z</time>
      </trkpt>
      <trkpt lat="46.15663" lon="5.98115">
        <ele>284.57</ele>
        <time>2015-05-22T07:53:41Z</time>
      </trkpt>
      <trkpt lat="46.15659" lon="5.9811">
        <ele>284.59</ele>
        <time>2015-05-22T07:53:42Z</time>
      </trkpt>
      <trkpt lat="46.15655" lon="5.98103">
        <ele>284.62</ele>
        <time>2015-05-22T07:53:43Z</time>
      </trkpt>
      <trkpt lat="46.15652" lon="5.98096">
        <ele>284.65</ele>
        <time>2015-05-22T07:53:44Z</time>
      </trkpt>
      <trkpt lat="46.15592" lon="5.98022">
        <ele>283.42</ele>
        <time>2015-05-22T07:53:56Z</time>
      </trkpt>
      <trkpt lat="46.1555" lon="5.97993">
        <ele>282.22</ele>
        <time>2015-05-22T07:54:03Z</time>
      </trkpt>
      <trkpt lat="46.15544" lon="5.97993">
        <ele>282.06</ele>
        <time>2015-05-22T07:54:04Z</time>
      </trkpt>
      <trkpt lat="46.15538" lon="5.97993">
        <ele>281.9</ele>
        <time>2015-05-22T07:54:05Z</time>
      </trkpt>
      <trkpt lat="46.15533" lon="5.97995">
        <ele>281.72</ele>
        <time>2015-05-22T07:54:06Z</time>
      </trkpt>
      <trkpt lat="46.15527" lon="5.97997">
        <ele>281.52</ele>
        <time>2015-05-22T07:54:07Z</time>
      </trkpt>
      <trkpt lat="46.15521" lon="5.97997">
        <ele>281.34</ele>
        <time>2015-05-22T07:54:08Z</time>
      </trkpt>
      <trkpt lat="46.15516" lon="5.97993">
        <ele>281.19</ele>
        <time>2015-05-22T07:54:09Z</time>
      </trkpt>
      <trkpt lat="46.15511" lon="5.97988">
        <ele>281.06</ele>
        <time>2015-05-22T07:54:10Z</time>
      </trkpt>
      <trkpt lat="46.15507" lon="5.9798">
        <ele>280.94</ele>
        <time>2015-05-22T07:54:11Z</time>
      </trkpt>
      <trkpt lat="46.15503" lon="5.97973">
        <ele>280.84</ele>
        <time>2015-05-22T07:54:12Z</time>
      </trkpt>
      <trkpt lat="46.15429" lon="5.97872">
        <ele>278.67</ele>
        <time>2015-05-22T07:54:24Z</time>
      </trkpt>
      <trkpt lat="46.15333" lon="5.9778">
        <ele>275.47</ele>
        <time>2015-05-22T07:54:38Z</time>
      </trkpt>
      <trkpt lat="46.15242" lon="5.97682">
        <ele>274.11</ele>
        <time>2015-05-22T07:54:54Z</time>
      </trkpt>
      <trkpt lat="46.15238" lon="5.97678">
        <ele>274.01</ele>
        <time>2015-05-22T07:54:55Z</time>
      </trkpt>
      <trkpt lat="46.15234" lon="5.97673">
        <ele>273.91</ele>
        <time>2015-05-22T07:54:56Z</time>
      </trkpt>
      <trkpt lat="46.1518" lon="5.97601">
        <ele>273.23</ele>
        <time>2015-05-22T07:55:08Z</time>
      </trkpt>
      <trkpt lat="46.1517" lon="5.9759">
        <ele>273.08</ele>
        <time>2015-05-22T07:55:10Z</time>
      </trkpt>
      <trkpt lat="46.15104" lon="5.97495">
        <ele>272.73</ele>
        <time>2015-05-22T07:55:23Z</time>
      </trkpt>
      <trkpt lat="46.15034" lon="5.97392">
        <ele>272</ele>
        <time>2015-05-22T07:55:37Z</time>
      </trkpt>
      <trkpt lat="46.14979" lon="5.97318">
        <ele>271.91</ele>
        <time>2015-05-22T07:55:48Z</time>
      </trkpt>
      <trkpt lat="46.14921" lon="5.9724">
        <ele>271.13</ele>
        <time>2015-05-22T07:56:02Z</time>
      </trkpt>
      <trkpt lat="46.14894" lon="5.97206">
        <ele>270.58</ele>
        <time>2015-05-22T07:56:08Z</time>
      </trkpt>
      <trkpt lat="46.14856" lon="5.97158">
        <ele>269.57</ele>
        <time>2015-05-22T07:56:16Z</time>
      </trkpt>
      <trkpt lat="46.14851" lon="5.97151">
        <ele>269.45</ele>
        <time>2015-05-22T07:56:17Z</time>
      </trkpt>
      <trkpt lat="46.14785" lon="5.97051">
        <ele>268.25</ele>
        <time>2015-05-22T07:56:31Z</time>
      </trkpt>
      <trkpt lat="46.1473" lon="5.9697">
        <ele>268.35</ele>
        <time>2015-05-22T07:56:43Z</time>
      </trkpt>
      <trkpt lat="46.14706" lon="5.96943">
        <ele>267.77</ele>
        <time>2015-05-22T07:56:49Z</time>
      </trkpt>
      <trkpt lat="46.147" lon="5.96942">
        <ele>267.68</ele>
        <time>2015-05-22T07:56:50Z</time>
      </trkpt>
      <trkpt lat="46.14693" lon="5.96944">
        <ele>267.57</ele>
        <time>2015-05-22T07:56:51Z</time>
      </trkpt>
      <trkpt lat="46.14688" lon="5.96947">
        <ele>267.54</ele>
        <time>2015-05-22T07:56:52Z</time>
      </trkpt>
      <trkpt lat="46.14682" lon="5.96952">
        <ele>267.54</ele>
        <time>2015-05-22T07:56:53Z</time>
      </trkpt>
      <trkpt lat="46.146" lon="5.97024">
        <ele>266.42</ele>
        <time>2015-05-22T07:57:06Z</time>
      </trkpt>
      <trkpt lat="46.14593" lon="5.97026">
        <ele>266.08</ele>
        <time>2015-05-22T07:57:07Z</time>
      </trkpt>
      <trkpt lat="46.14586" lon="5.97028">
        <ele>265.77</ele>
        <time>2015-05-22T07:57:08Z</time>
      </trkpt>
      <trkpt lat="46.14485" lon="5.97058">
        <ele>265.3</ele>
        <time>2015-05-22T07:57:22Z</time>
      </trkpt>
      <trkpt lat="46.14479" lon="5.97062">
        <ele>265.35</ele>
        <time>2015-05-22T07:57:23Z</time>
      </trkpt>
      <trkpt lat="46.14398" lon="5.97147">
        <ele>265.17</ele>
        <time>2015-05-22T07:57:37Z</time>
      </trkpt>
      <trkpt lat="46.14312" lon="5.97223">
        <ele>261.98</ele>
        <time>2015-05-22T07:57:50Z</time>
      </trkpt>
      <trkpt lat="46.1425" lon="5.97284">
        <ele>258.74</ele>
        <time>2015-05-22T07:57:59Z</time>
      </trkpt>
      <trkpt lat="46.14223" lon="5.97311">
        <ele>257.76</ele>
        <time>2015-05-22T07:58:04Z</time>
      </trkpt>
      <trkpt lat="46.14217" lon="5.97315">
        <ele>257.7</ele>
        <time>2015-05-22T07:58:05Z</time>
      </trkpt>
      <trkpt lat="46.14212" lon="5.97318">
        <ele>257.7</ele>
        <time>2015-05-22T07:58:06Z</time>
      </trkpt>
      <trkpt lat="46.14206" lon="5.9732">
        <ele>257.72</ele>
        <time>2015-05-22T07:58:07Z</time>
      </trkpt>
      <trkpt lat="46.14201" lon="5.97319">
        <ele>257.77</ele>
        <time>2015-05-22T07:58:08Z</time>
      </trkpt>
      <trkpt lat="46.14195" lon="5.97319">
        <ele>257.81</ele>
        <time>2015-05-22T07:58:09Z</time>
      </trkpt>
      <trkpt lat="46.1419" lon="5.97317">
        <ele>257.89</ele>
        <time>2015-05-22T07:58:10Z</time>
      </trkpt>
      <trkpt lat="46.14185" lon="5.97315">
        <ele>257.98</ele>
        <time>2015-05-22T07:58:11Z</time>
      </trkpt>
      <trkpt lat="46.14148" lon="5.97303">
        <ele>259.1</ele>
        <time>2015-05-22T07:58:22Z</time>
      </trkpt>
      <trkpt lat="46.14139" lon="5.97305">
        <ele>258.81</ele>
        <time>2015-05-22T07:58:39Z</time>
      </trkpt>
      <trkpt lat="46.14137" lon="5.97304">
        <ele>258.78</ele>
        <time>2015-05-22T07:58:40Z</time>
      </trkpt>
      <trkpt lat="46.14124" lon="5.97295">
        <ele>258.84</ele>
        <time>2015-05-22T07:58:44Z</time>
      </trkpt>
      <trkpt lat="46.14121" lon="5.97291">
        <ele>258.88</ele>
        <time>2015-05-22T07:58:45Z</time>
      </trkpt>
      <trkpt lat="46.14084" lon="5.97247">
        <ele>261.22</ele>
        <time>2015-05-22T07:58:57Z</time>
      </trkpt>
      <trkpt lat="46.14044" lon="5.97216">
        <ele>264.36</ele>
        <time>2015-05-22T07:59:10Z</time>
      </trkpt>
      <trkpt lat="46.13995" lon="5.9717">
        <ele>266.01</ele>
        <time>2015-05-22T07:59:26Z</time>
      </trkpt>
      <trkpt lat="46.1395" lon="5.97125">
        <ele>267.01</ele>
        <time>2015-05-22T07:59:41Z</time>
      </trkpt>
      <trkpt lat="46.13924" lon="5.97097">
        <ele>270.23</ele>
        <time>2015-05-22T07:59:53Z</time>
      </trkpt>
      <trkpt lat="46.13902" lon="5.97066">
        <ele>273.05</ele>
        <time>2015-05-22T08:00:04Z</time>
      </trkpt>
      <trkpt lat="46.13881" lon="5.97025">
        <ele>276.16</ele>
        <time>2015-05-22T08:00:16Z</time>
      </trkpt>
      <trkpt lat="46.13861" lon="5.96993">
        <ele>277.98</ele>
        <time>2015-05-22T08:00:27Z</time>
      </trkpt>
      <trkpt lat="46.13836" lon="5.96965">
        <ele>280.07</ele>
        <time>2015-05-22T08:00:39Z</time>
      </trkpt>
      <trkpt lat="46.13808" lon="5.96936">
        <ele>282.16</ele>
        <time>2015-05-22T08:00:51Z</time>
      </trkpt>
      <trkpt lat="46.13781" lon="5.96932">
        <ele>284.45</ele>
        <time>2015-05-22T08:01:03Z</time>
      </trkpt>
      <trkpt lat="46.13779" lon="5.96964">
        <ele>286.29</ele>
        <time>2015-05-22T08:01:14Z</time>
      </trkpt>
      <trkpt lat="46.13796" lon="5.96988">
        <ele>288.14</ele>
        <time>2015-05-22T08:01:25Z</time>
      </trkpt>
      <trkpt lat="46.13821" lon="5.9701">
        <ele>289.39</ele>
        <time>2015-05-22T08:01:37Z</time>
      </trkpt>
      <trkpt lat="46.1384" lon="5.97025">
        <ele>290.94</ele>
        <time>2015-05-22T08:01:46Z</time>
      </trkpt>
      <trkpt lat="46.13841" lon="5.97027">
        <ele>291.13</ele>
        <time>2015-05-22T08:01:47Z</time>
      </trkpt>
      <trkpt lat="46.13844" lon="5.97029">
        <ele>291.34</ele>
        <time>2015-05-22T08:01:48Z</time>
      </trkpt>
      <trkpt lat="46.13846" lon="5.9703">
        <ele>291.79</ele>
        <time>2015-05-22T08:01:49Z</time>
      </trkpt>
      <trkpt lat="46.13848" lon="5.97032">
        <ele>292.03</ele>
        <time>2015-05-22T08:01:50Z</time>
      </trkpt>
      <trkpt lat="46.13849" lon="5.97034">
        <ele>292.28</ele>
        <time>2015-05-22T08:01:51Z</time>
      </trkpt>
      <trkpt lat="46.13852" lon="5.97036">
        <ele>292.52</ele>
        <time>2015-05-22T08:01:52Z</time>
      </trkpt>
      <trkpt lat="46.13854" lon="5.97039">
        <ele>292.74</ele>
        <time>2015-05-22T08:01:53Z</time>
      </trkpt>
      <trkpt lat="46.13873" lon="5.9708">
        <ele>294.17</ele>
        <time>2015-05-22T08:02:05Z</time>
      </trkpt>
      <trkpt lat="46.13879" lon="5.97122">
        <ele>296.47</ele>
        <time>2015-05-22T08:02:17Z</time>
      </trkpt>
      <trkpt lat="46.13885" lon="5.97166">
        <ele>298.94</ele>
        <time>2015-05-22T08:02:29Z</time>
      </trkpt>
      <trkpt lat="46.13873" lon="5.97195">
        <ele>300.95</ele>
        <time>2015-05-22T08:02:39Z</time>
      </trkpt>
      <trkpt lat="46.13855" lon="5.97227">
        <ele>302.54</ele>
        <time>2015-05-22T08:02:50Z</time>
      </trkpt>
      <trkpt lat="46.13834" lon="5.97264">
        <ele>304.59</ele>
        <time>2015-05-22T08:03:02Z</time>
      </trkpt>
      <trkpt lat="46.13812" lon="5.97294">
        <ele>306.95</ele>
        <time>2015-05-22T08:03:14Z</time>
      </trkpt>
      <trkpt lat="46.13797" lon="5.97323">
        <ele>308.57</ele>
        <time>2015-05-22T08:03:24Z</time>
      </trkpt>
      <trkpt lat="46.13782" lon="5.97366">
        <ele>310.53</ele>
        <time>2015-05-22T08:03:36Z</time>
      </trkpt>
      <trkpt lat="46.13782" lon="5.97371">
        <ele>310.71</ele>
        <time>2015-05-22T08:03:37Z</time>
      </trkpt>
      <trkpt lat="46.13782" lon="5.97374">
        <ele>310.9</ele>
        <time>2015-05-22T08:03:38Z</time>
      </trkpt>
      <trkpt lat="46.13781" lon="5.97378">
        <ele>311.1</ele>
        <time>2015-05-22T08:03:39Z</time>
      </trkpt>
      <trkpt lat="46.13781" lon="5.97381">
        <ele>311.27</ele>
        <time>2015-05-22T08:03:40Z</time>
      </trkpt>
      <trkpt lat="46.1378" lon="5.97386">
        <ele>311.42</ele>
        <time>2015-05-22T08:03:41Z</time>
      </trkpt>
      <trkpt lat="46.13774" lon="5.97433">
        <ele>313.64</ele>
        <time>2015-05-22T08:03:53Z</time>
      </trkpt>
      <trkpt lat="46.13771" lon="5.97475">
        <ele>315.85</ele>
        <time>2015-05-22T08:04:04Z</time>
      </trkpt>
      <trkpt lat="46.1377" lon="5.97478">
        <ele>316.02</ele>
        <time>2015-05-22T08:04:05Z</time>
      </trkpt>
      <trkpt lat="46.13768" lon="5.97481">
        <ele>316.2</ele>
        <time>2015-05-22T08:04:06Z</time>
      </trkpt>
      <trkpt lat="46.13765" lon="5.97485">
        <ele>316.38</ele>
        <time>2015-05-22T08:04:07Z</time>
      </trkpt>
      <trkpt lat="46.13763" lon="5.97488">
        <ele>316.57</ele>
        <time>2015-05-22T08:04:08Z</time>
      </trkpt>
      <trkpt lat="46.1376" lon="5.97491">
        <ele>316.75</ele>
        <time>2015-05-22T08:04:09Z</time>
      </trkpt>
      <trkpt lat="46.13758" lon="5.97493">
        <ele>316.9</ele>
        <time>2015-05-22T08:04:10Z</time>
      </trkpt>
      <trkpt lat="46.13756" lon="5.97496">
        <ele>317.03</ele>
        <time>2015-05-22T08:04:11Z</time>
      </trkpt>
      <trkpt lat="46.1372" lon="5.97519">
        <ele>319.47</ele>
        <time>2015-05-22T08:04:27Z</time>
      </trkpt>
      <trkpt lat="46.13681" lon="5.97527">
        <ele>322.21</ele>
        <time>2015-05-22T08:04:41Z</time>
      </trkpt>
      <trkpt lat="46.13637" lon="5.97539">
        <ele>324.38</ele>
        <time>2015-05-22T08:04:54Z</time>
      </trkpt>
      <trkpt lat="46.13583" lon="5.97548">
        <ele>325.56</ele>
        <time>2015-05-22T08:05:08Z</time>
      </trkpt>
      <trkpt lat="46.1354" lon="5.97571">
        <ele>327.49</ele>
        <time>2015-05-22T08:05:20Z</time>
      </trkpt>
      <trkpt lat="46.13496" lon="5.97607">
        <ele>329.97</ele>
        <time>2015-05-22T08:05:36Z</time>
      </trkpt>
      <trkpt lat="46.13455" lon="5.97642">
        <ele>332.34</ele>
        <time>2015-05-22T08:05:51Z</time>
      </trkpt>
      <trkpt lat="46.13447" lon="5.97645">
        <ele>332.87</ele>
        <time>2015-05-22T08:05:54Z</time>
      </trkpt>
      <trkpt lat="46.13445" lon="5.97642">
        <ele>333.17</ele>
        <time>2015-05-22T08:05:55Z</time>
      </trkpt>
      <trkpt lat="46.13444" lon="5.97639">
        <ele>333.29</ele>
        <time>2015-05-22T08:05:56Z</time>
      </trkpt>
      <trkpt lat="46.13442" lon="5.97635">
        <ele>333.38</ele>
        <time>2015-05-22T08:05:57Z</time>
      </trkpt>
      <trkpt lat="46.13439" lon="5.97632">
        <ele>333.45</ele>
        <time>2015-05-22T08:05:58Z</time>
      </trkpt>
      <trkpt lat="46.13436" lon="5.97631">
        <ele>333.51</ele>
        <time>2015-05-22T08:05:59Z</time>
      </trkpt>
      <trkpt lat="46.13433" lon="5.97629">
        <ele>333.55</ele>
        <time>2015-05-22T08:06:00Z</time>
      </trkpt>
      <trkpt lat="46.13431" lon="5.97628">
        <ele>333.58</ele>
        <time>2015-05-22T08:06:01Z</time>
      </trkpt>
      <trkpt lat="46.13427" lon="5.97628">
        <ele>333.38</ele>
        <time>2015-05-22T08:06:13Z</time>
      </trkpt>
      <trkpt lat="46.1343" lon="5.97631">
        <ele>332.95</ele>
        <time>2015-05-22T08:06:40Z</time>
      </trkpt>
      <trkpt lat="46.13427" lon="5.97632">
        <ele>332.43</ele>
        <time>2015-05-22T08:07:12Z</time>
      </trkpt>
      <trkpt lat="46.13429" lon="5.97635">
        <ele>333.04</ele>
        <time>2015-05-22T08:07:41Z</time>
      </trkpt>
      <trkpt lat="46.13431" lon="5.97636">
        <ele>333.05</ele>
        <time>2015-05-22T08:07:42Z</time>
      </trkpt>
      <trkpt lat="46.13433" lon="5.97637">
        <ele>333.08</ele>
        <time>2015-05-22T08:07:43Z</time>
      </trkpt>
      <trkpt lat="46.13435" lon="5.97637">
        <ele>333.13</ele>
        <time>2015-05-22T08:07:44Z</time>
      </trkpt>
      <trkpt lat="46.13441" lon="5.9764">
        <ele>333.22</ele>
        <time>2015-05-22T08:07:46Z</time>
      </trkpt>
      <trkpt lat="46.13442" lon="5.97643">
        <ele>333.27</ele>
        <time>2015-05-22T08:07:47Z</time>
      </trkpt>
      <trkpt lat="46.13443" lon="5.97647">
        <ele>333.31</ele>
        <time>2015-05-22T08:07:48Z</time>
      </trkpt>
      <trkpt lat="46.13443" lon="5.97651">
        <ele>333.34</ele>
        <time>2015-05-22T08:07:49Z</time>
      </trkpt>
      <trkpt lat="46.13442" lon="5.97655">
        <ele>333.39</ele>
        <time>2015-05-22T08:07:50Z</time>
      </trkpt>
      <trkpt lat="46.13439" lon="5.97659">
        <ele>333.41</ele>
        <time>2015-05-22T08:07:51Z</time>
      </trkpt>
      <trkpt lat="46.13437" lon="5.97662">
        <ele>333.45</ele>
        <time>2015-05-22T08:07:52Z</time>
      </trkpt>
      <trkpt lat="46.13434" lon="5.97665">
        <ele>333.5</ele>
        <time>2015-05-22T08:07:53Z</time>
      </trkpt>
      <trkpt lat="46.13398" lon="5.97709">
        <ele>334.78</ele>
        <time>2015-05-22T08:08:05Z</time>
      </trkpt>
      <trkpt lat="46.13373" lon="5.97736">
        <ele>335.7</ele>
        <time>2015-05-22T08:08:12Z</time>
      </trkpt>
      <trkpt lat="46.1337" lon="5.9774">
        <ele>335.77</ele>
        <time>2015-05-22T08:08:13Z</time>
      </trkpt>
      <trkpt lat="46.1336" lon="5.97751">
        <ele>335.96</ele>
        <time>2015-05-22T08:08:16Z</time>
      </trkpt>
      <trkpt lat="46.13356" lon="5.97755">
        <ele>336.02</ele>
        <time>2015-05-22T08:08:17Z</time>
      </trkpt>
      <trkpt lat="46.13352" lon="5.97757">
        <ele>336.11</ele>
        <time>2015-05-22T08:08:18Z</time>
      </trkpt>
      <trkpt lat="46.13311" lon="5.97776">
        <ele>337.18</ele>
        <time>2015-05-22T08:08:28Z</time>
      </trkpt>
      <trkpt lat="46.13256" lon="5.97787">
        <ele>338.74</ele>
        <time>2015-05-22T08:08:41Z</time>
      </trkpt>
      <trkpt lat="46.13224" lon="5.97794">
        <ele>339.42</ele>
        <time>2015-05-22T08:08:48Z</time>
      </trkpt>
      <trkpt lat="46.13193" lon="5.97808">
        <ele>340.23</ele>
        <time>2015-05-22T08:08:55Z</time>
      </trkpt>
      <trkpt lat="46.13135" lon="5.97854">
        <ele>341.14</ele>
        <time>2015-05-22T08:09:08Z</time>
      </trkpt>
      <trkpt lat="46.13082" lon="5.97903">
        <ele>341.98</ele>
        <time>2015-05-22T08:09:23Z</time>
      </trkpt>
      <trkpt lat="46.13026" lon="5.97955">
        <ele>344.84</ele>
        <time>2015-05-22T08:09:42Z</time>
      </trkpt>
      <trkpt lat="46.12993" lon="5.97985">
        <ele>347.08</ele>
        <time>2015-05-22T08:09:56Z</time>
      </trkpt>
      <trkpt lat="46.12947" lon="5.98021">
        <ele>349.48</ele>
        <time>2015-05-22T08:10:11Z</time>
      </trkpt>
      <trkpt lat="46.12901" lon="5.98019">
        <ele>350.39</ele>
        <time>2015-05-22T08:10:22Z</time>
      </trkpt>
      <trkpt lat="46.12878" lon="5.98004">
        <ele>350.21</ele>
        <time>2015-05-22T08:10:27Z</time>
      </trkpt>
      <trkpt lat="46.12874" lon="5.98">
        <ele>350.28</ele>
        <time>2015-05-22T08:10:28Z</time>
      </trkpt>
      <trkpt lat="46.12869" lon="5.97995">
        <ele>350.38</ele>
        <time>2015-05-22T08:10:29Z</time>
      </trkpt>
      <trkpt lat="46.12801" lon="5.97905">
        <ele>350.87</ele>
        <time>2015-05-22T08:10:44Z</time>
      </trkpt>
      <trkpt lat="46.12732" lon="5.97831">
        <ele>351</ele>
        <time>2015-05-22T08:10:58Z</time>
      </trkpt>
      <trkpt lat="46.12654" lon="5.97746">
        <ele>352.43</ele>
        <time>2015-05-22T08:11:14Z</time>
      </trkpt>
      <trkpt lat="46.12579" lon="5.97663">
        <ele>353.63</ele>
        <time>2015-05-22T08:11:29Z</time>
      </trkpt>
      <trkpt lat="46.12518" lon="5.97598">
        <ele>356.68</ele>
        <time>2015-05-22T08:11:41Z</time>
      </trkpt>
      <trkpt lat="46.12452" lon="5.97529">
        <ele>359.67</ele>
        <time>2015-05-22T08:11:55Z</time>
      </trkpt>
      <trkpt lat="46.12447" lon="5.97524">
        <ele>359.66</ele>
        <time>2015-05-22T08:11:56Z</time>
      </trkpt>
      <trkpt lat="46.12371" lon="5.9745">
        <ele>359.35</ele>
        <time>2015-05-22T08:12:11Z</time>
      </trkpt>
      <trkpt lat="46.12347" lon="5.97425">
        <ele>360.65</ele>
        <time>2015-05-22T08:12:16Z</time>
      </trkpt>
      <trkpt lat="46.1234" lon="5.97412">
        <ele>361.14</ele>
        <time>2015-05-22T08:12:18Z</time>
      </trkpt>
      <trkpt lat="46.12288" lon="5.9733">
        <ele>362.17</ele>
        <time>2015-05-22T08:12:31Z</time>
      </trkpt>
      <trkpt lat="46.12228" lon="5.97228">
        <ele>361.86</ele>
        <time>2015-05-22T08:12:45Z</time>
      </trkpt>
      <trkpt lat="46.12144" lon="5.97111">
        <ele>362.4</ele>
        <time>2015-05-22T08:13:01Z</time>
      </trkpt>
      <trkpt lat="46.12061" lon="5.97064">
        <ele>363.65</ele>
        <time>2015-05-22T08:13:14Z</time>
      </trkpt>
      <trkpt lat="46.11966" lon="5.97054">
        <ele>366.54</ele>
        <time>2015-05-22T08:13:30Z</time>
      </trkpt>
      <trkpt lat="46.11861" lon="5.97025">
        <ele>368.51</ele>
        <time>2015-05-22T08:13:48Z</time>
      </trkpt>
      <trkpt lat="46.11742" lon="5.96987">
        <ele>367.31</ele>
        <time>2015-05-22T08:14:07Z</time>
      </trkpt>
      <trkpt lat="46.11657" lon="5.96959">
        <ele>367.55</ele>
        <time>2015-05-22T08:14:21Z</time>
      </trkpt>
      <trkpt lat="46.11573" lon="5.96934">
        <ele>368.78</ele>
        <time>2015-05-22T08:14:35Z</time>
      </trkpt>
      <trkpt lat="46.11472" lon="5.96867">
        <ele>368.57</ele>
        <time>2015-05-22T08:14:51Z</time>
      </trkpt>
      <trkpt lat="46.11458" lon="5.96861">
        <ele>368.57</ele>
        <time>2015-05-22T08:14:53Z</time>
      </trkpt>
      <trkpt lat="46.11443" lon="5.96857">
        <ele>368.55</ele>
        <time>2015-05-22T08:14:55Z</time>
      </trkpt>
      <trkpt lat="46.11435" lon="5.96856">
        <ele>368.53</ele>
        <time>2015-05-22T08:14:56Z</time>
      </trkpt>
      <trkpt lat="46.11427" lon="5.96857">
        <ele>368.46</ele>
        <time>2015-05-22T08:14:57Z</time>
      </trkpt>
      <trkpt lat="46.11419" lon="5.96857">
        <ele>368.37</ele>
        <time>2015-05-22T08:14:58Z</time>
      </trkpt>
      <trkpt lat="46.11411" lon="5.96859">
        <ele>368.3</ele>
        <time>2015-05-22T08:14:59Z</time>
      </trkpt>
      <trkpt lat="46.11404" lon="5.96862">
        <ele>368.23</ele>
        <time>2015-05-22T08:15:00Z</time>
      </trkpt>
      <trkpt lat="46.11397" lon="5.96866">
        <ele>368.22</ele>
        <time>2015-05-22T08:15:01Z</time>
      </trkpt>
      <trkpt lat="46.11333" lon="5.96904">
        <ele>369.64</ele>
        <time>2015-05-22T08:15:13Z</time>
      </trkpt>
      <trkpt lat="46.11284" lon="5.96942">
        <ele>371.43</ele>
        <time>2015-05-22T08:15:25Z</time>
      </trkpt>
      <trkpt lat="46.11271" lon="5.96957">
        <ele>371.76</ele>
        <time>2015-05-22T08:15:29Z</time>
      </trkpt>
      <trkpt lat="46.11267" lon="5.96958">
        <ele>371.84</ele>
        <time>2015-05-22T08:15:30Z</time>
      </trkpt>
      <trkpt lat="46.11263" lon="5.96958">
        <ele>372.16</ele>
        <time>2015-05-22T08:15:31Z</time>
      </trkpt>
      <trkpt lat="46.1126" lon="5.96956">
        <ele>372.29</ele>
        <time>2015-05-22T08:15:32Z</time>
      </trkpt>
      <trkpt lat="46.11257" lon="5.96954">
        <ele>372.4</ele>
        <time>2015-05-22T08:15:33Z</time>
      </trkpt>
      <trkpt lat="46.11254" lon="5.96953">
        <ele>372.48</ele>
        <time>2015-05-22T08:15:34Z</time>
      </trkpt>
      <trkpt lat="46.11252" lon="5.96953">
        <ele>372.49</ele>
        <time>2015-05-22T08:15:35Z</time>
      </trkpt>
      <trkpt lat="46.11249" lon="5.96954">
        <ele>372.48</ele>
        <time>2015-05-22T08:15:36Z</time>
      </trkpt>
      <trkpt lat="46.11246" lon="5.96956">
        <ele>372.46</ele>
        <time>2015-05-22T08:15:37Z</time>
      </trkpt>
      <trkpt lat="46.11244" lon="5.96959">
        <ele>372.44</ele>
        <time>2015-05-22T08:15:38Z</time>
      </trkpt>
      <trkpt lat="46.11242" lon="5.96963">
        <ele>372.43</ele>
        <time>2015-05-22T08:15:39Z</time>
      </trkpt>
      <trkpt lat="46.11226" lon="5.96974">
        <ele>372.56</ele>
        <time>2015-05-22T08:15:44Z</time>
      </trkpt>
      <trkpt lat="46.11151" lon="5.96981">
        <ele>373.52</ele>
        <time>2015-05-22T08:15:58Z</time>
      </trkpt>
      <trkpt lat="46.11146" lon="5.96981">
        <ele>373.62</ele>
        <time>2015-05-22T08:15:59Z</time>
      </trkpt>
      <trkpt lat="46.11113" lon="5.96973">
        <ele>374.56</ele>
        <time>2015-05-22T08:16:05Z</time>
      </trkpt>
      <trkpt lat="46.11043" lon="5.96934">
        <ele>376.67</ele>
        <time>2015-05-22T08:16:20Z</time>
      </trkpt>
      <trkpt lat="46.10997" lon="5.96917">
        <ele>379.82</ele>
        <time>2015-05-22T08:16:34Z</time>
      </trkpt>
      <trkpt lat="46.10962" lon="5.9692">
        <ele>381.05</ele>
        <time>2015-05-22T08:16:47Z</time>
      </trkpt>
      <trkpt lat="46.10953" lon="5.9692">
        <ele>381.19</ele>
        <time>2015-05-22T08:17:01Z</time>
      </trkpt>
      <trkpt lat="46.10953" lon="5.96921">
        <ele>382.28</ele>
        <time>2015-05-22T08:17:32Z</time>
      </trkpt>
      <trkpt lat="46.1095" lon="5.96923">
        <ele>381.55</ele>
        <time>2015-05-22T08:17:45Z</time>
      </trkpt>
      <trkpt lat="46.10948" lon="5.96924">
        <ele>381.47</ele>
        <time>2015-05-22T08:17:46Z</time>
      </trkpt>
      <trkpt lat="46.10945" lon="5.96924">
        <ele>381.46</ele>
        <time>2015-05-22T08:17:47Z</time>
      </trkpt>
      <trkpt lat="46.10941" lon="5.96925">
        <ele>381.59</ele>
        <time>2015-05-22T08:17:48Z</time>
      </trkpt>
      <trkpt lat="46.10937" lon="5.96925">
        <ele>381.81</ele>
        <time>2015-05-22T08:17:49Z</time>
      </trkpt>
      <trkpt lat="46.10933" lon="5.96925">
        <ele>382.02</ele>
        <time>2015-05-22T08:17:50Z</time>
      </trkpt>
      <trkpt lat="46.10886" lon="5.96931">
        <ele>383.97</ele>
        <time>2015-05-22T08:18:01Z</time>
      </trkpt>
      <trkpt lat="46.10884" lon="5.96931">
        <ele>384.13</ele>
        <time>2015-05-22T08:18:02Z</time>
      </trkpt>
      <trkpt lat="46.10857" lon="5.96926">
        <ele>385.58</ele>
        <time>2015-05-22T08:18:12Z</time>
      </trkpt>
      <trkpt lat="46.10837" lon="5.96903">
        <ele>386.69</ele>
        <time>2015-05-22T08:18:21Z</time>
      </trkpt>
      <trkpt lat="46.10813" lon="5.96861">
        <ele>387.72</ele>
        <time>2015-05-22T08:18:33Z</time>
      </trkpt>
      <trkpt lat="46.10796" lon="5.96824">
        <ele>388.22</ele>
        <time>2015-05-22T08:18:41Z</time>
      </trkpt>
      <trkpt lat="46.10798" lon="5.9682">
        <ele>388.25</ele>
        <time>2015-05-22T08:18:42Z</time>
      </trkpt>
      <trkpt lat="46.10801" lon="5.96817">
        <ele>388.3</ele>
        <time>2015-05-22T08:18:43Z</time>
      </trkpt>
      <trkpt lat="46.10805" lon="5.96814">
        <ele>388.36</ele>
        <time>2015-05-22T08:18:44Z</time>
      </trkpt>
      <trkpt lat="46.10809" lon="5.96811">
        <ele>388.39</ele>
        <time>2015-05-22T08:18:45Z</time>
      </trkpt>
      <trkpt lat="46.10822" lon="5.96793">
        <ele>388.19</ele>
        <time>2015-05-22T08:18:50Z</time>
      </trkpt>
      <trkpt lat="46.10826" lon="5.9679">
        <ele>388.07</ele>
        <time>2015-05-22T08:18:51Z</time>
      </trkpt>
      <trkpt lat="46.10843" lon="5.96781">
        <ele>387.35</ele>
        <time>2015-05-22T08:18:55Z</time>
      </trkpt>
      <trkpt lat="46.10847" lon="5.96778">
        <ele>387.19</ele>
        <time>2015-05-22T08:18:56Z</time>
      </trkpt>
      <trkpt lat="46.10852" lon="5.96776">
        <ele>387.06</ele>
        <time>2015-05-22T08:18:57Z</time>
      </trkpt>
      <trkpt lat="46.10856" lon="5.96772">
        <ele>386.95</ele>
        <time>2015-05-22T08:18:58Z</time>
      </trkpt>
      <trkpt lat="46.1086" lon="5.9677">
        <ele>386.85</ele>
        <time>2015-05-22T08:18:59Z</time>
      </trkpt>
      <trkpt lat="46.10864" lon="5.96767">
        <ele>386.73</ele>
        <time>2015-05-22T08:19:00Z</time>
      </trkpt>
      <trkpt lat="46.10873" lon="5.96763">
        <ele>386.48</ele>
        <time>2015-05-22T08:19:02Z</time>
      </trkpt>
      <trkpt lat="46.10877" lon="5.96761">
        <ele>386.37</ele>
        <time>2015-05-22T08:19:03Z</time>
      </trkpt>
      <trkpt lat="46.10881" lon="5.96758">
        <ele>386.28</ele>
        <time>2015-05-22T08:19:04Z</time>
      </trkpt>
      <trkpt lat="46.10899" lon="5.96748">
        <ele>385.84</ele>
        <time>2015-05-22T08:19:08Z</time>
      </trkpt>
      <trkpt lat="46.10901" lon="5.96742">
        <ele>385.67</ele>
        <time>2015-05-22T08:19:09Z</time>
      </trkpt>
      <trkpt lat="46.10902" lon="5.96736">
        <ele>385.44</ele>
        <time>2015-05-22T08:19:10Z</time>
      </trkpt>
      <trkpt lat="46.10902" lon="5.96729">
        <ele>384.83</ele>
        <time>2015-05-22T08:19:11Z</time>
      </trkpt>
      <trkpt lat="46.10901" lon="5.96723">
        <ele>384.83</ele>
        <time>2015-05-22T08:19:12Z</time>
      </trkpt>
      <trkpt lat="46.109" lon="5.96717">
        <ele>384.47</ele>
        <time>2015-05-22T08:19:13Z</time>
      </trkpt>
      <trkpt lat="46.10897" lon="5.96706">
        <ele>383.61</ele>
        <time>2015-05-22T08:19:15Z</time>
      </trkpt>
      <trkpt lat="46.10893" lon="5.96693">
        <ele>383.24</ele>
        <time>2015-05-22T08:19:17Z</time>
      </trkpt>
      <trkpt lat="46.10891" lon="5.96686">
        <ele>383.09</ele>
        <time>2015-05-22T08:19:18Z</time>
      </trkpt>
      <trkpt lat="46.10858" lon="5.96573">
        <ele>381.96</ele>
        <time>2015-05-22T08:19:32Z</time>
      </trkpt>
      <trkpt lat="46.10851" lon="5.96555">
        <ele>381.92</ele>
        <time>2015-05-22T08:19:34Z</time>
      </trkpt>
      <trkpt lat="46.10847" lon="5.96547">
        <ele>381.91</ele>
        <time>2015-05-22T08:19:35Z</time>
      </trkpt>
      <trkpt lat="46.10826" lon="5.96514">
        <ele>382.27</ele>
        <time>2015-05-22T08:19:40Z</time>
      </trkpt>
      <trkpt lat="46.10822" lon="5.96509">
        <ele>382.47</ele>
        <time>2015-05-22T08:19:41Z</time>
      </trkpt>
      <trkpt lat="46.10817" lon="5.96505">
        <ele>382.69</ele>
        <time>2015-05-22T08:19:42Z</time>
      </trkpt>
      <trkpt lat="46.10812" lon="5.96501">
        <ele>382.95</ele>
        <time>2015-05-22T08:19:43Z</time>
      </trkpt>
      <trkpt lat="46.10807" lon="5.96498">
        <ele>383.26</ele>
        <time>2015-05-22T08:19:44Z</time>
      </trkpt>
      <trkpt lat="46.10802" lon="5.96496">
        <ele>383.57</ele>
        <time>2015-05-22T08:19:45Z</time>
      </trkpt>
      <trkpt lat="46.10772" lon="5.96483">
        <ele>385.33</ele>
        <time>2015-05-22T08:19:52Z</time>
      </trkpt>
      <trkpt lat="46.1077" lon="5.96479">
        <ele>385.64</ele>
        <time>2015-05-22T08:19:53Z</time>
      </trkpt>
      <trkpt lat="46.10769" lon="5.96474">
        <ele>385.93</ele>
        <time>2015-05-22T08:19:54Z</time>
      </trkpt>
      <trkpt lat="46.1077" lon="5.96469">
        <ele>386.21</ele>
        <time>2015-05-22T08:19:55Z</time>
      </trkpt>
      <trkpt lat="46.10771" lon="5.96464">
        <ele>386.47</ele>
        <time>2015-05-22T08:19:56Z</time>
      </trkpt>
      <trkpt lat="46.10772" lon="5.96458">
        <ele>386.68</ele>
        <time>2015-05-22T08:19:57Z</time>
      </trkpt>
      <trkpt lat="46.10774" lon="5.96451">
        <ele>386.85</ele>
        <time>2015-05-22T08:19:58Z</time>
      </trkpt>
      <trkpt lat="46.10775" lon="5.96445">
        <ele>386.98</ele>
        <time>2015-05-22T08:19:59Z</time>
      </trkpt>
      <trkpt lat="46.10776" lon="5.96437">
        <ele>387.05</ele>
        <time>2015-05-22T08:20:00Z</time>
      </trkpt>
      <trkpt lat="46.10777" lon="5.9643">
        <ele>387.1</ele>
        <time>2015-05-22T08:20:01Z</time>
      </trkpt>
      <trkpt lat="46.10777" lon="5.96422">
        <ele>387.13</ele>
        <time>2015-05-22T08:20:02Z</time>
      </trkpt>
      <trkpt lat="46.10778" lon="5.96415">
        <ele>387.12</ele>
        <time>2015-05-22T08:20:03Z</time>
      </trkpt>
      <trkpt lat="46.1078" lon="5.96408">
        <ele>387.01</ele>
        <time>2015-05-22T08:20:04Z</time>
      </trkpt>
      <trkpt lat="46.10784" lon="5.96402">
        <ele>386.85</ele>
        <time>2015-05-22T08:20:05Z</time>
      </trkpt>
      <trkpt lat="46.10789" lon="5.96398">
        <ele>386.71</ele>
        <time>2015-05-22T08:20:06Z</time>
      </trkpt>
      <trkpt lat="46.10794" lon="5.96395">
        <ele>386.59</ele>
        <time>2015-05-22T08:20:07Z</time>
      </trkpt>
      <trkpt lat="46.10799" lon="5.96393">
        <ele>386.5</ele>
        <time>2015-05-22T08:20:08Z</time>
      </trkpt>
      <trkpt lat="46.10805" lon="5.96391">
        <ele>386.49</ele>
        <time>2015-05-22T08:20:09Z</time>
      </trkpt>
      <trkpt lat="46.10842" lon="5.96373">
        <ele>385.4</ele>
        <time>2015-05-22T08:20:16Z</time>
      </trkpt>
      <trkpt lat="46.10852" lon="5.96358">
        <ele>383.67</ele>
        <time>2015-05-22T08:20:20Z</time>
      </trkpt>
      <trkpt lat="46.10851" lon="5.96352">
        <ele>383.34</ele>
        <time>2015-05-22T08:20:21Z</time>
      </trkpt>
      <trkpt lat="46.10828" lon="5.96253">
        <ele>381.39</ele>
        <time>2015-05-22T08:20:32Z</time>
      </trkpt>
      <trkpt lat="46.10802" lon="5.96108">
        <ele>383.14</ele>
        <time>2015-05-22T08:20:49Z</time>
      </trkpt>
      <trkpt lat="46.1079" lon="5.95961">
        <ele>381.29</ele>
        <time>2015-05-22T08:21:04Z</time>
      </trkpt>
      <trkpt lat="46.10789" lon="5.95889">
        <ele>381.5</ele>
        <time>2015-05-22T08:21:14Z</time>
      </trkpt>
      <trkpt lat="46.10792" lon="5.95784">
        <ele>383.11</ele>
        <time>2015-05-22T08:21:29Z</time>
      </trkpt>
      <trkpt lat="46.10799" lon="5.95652">
        <ele>382.64</ele>
        <time>2015-05-22T08:21:45Z</time>
      </trkpt>
      <trkpt lat="46.10804" lon="5.95503">
        <ele>380.06</ele>
        <time>2015-05-22T08:22:00Z</time>
      </trkpt>
      <trkpt lat="46.10804" lon="5.95409">
        <ele>380.68</ele>
        <time>2015-05-22T08:22:10Z</time>
      </trkpt>
      <trkpt lat="46.1081" lon="5.95303">
        <ele>381.39</ele>
        <time>2015-05-22T08:22:23Z</time>
      </trkpt>
      <trkpt lat="46.10809" lon="5.95297">
        <ele>381.3</ele>
        <time>2015-05-22T08:22:24Z</time>
      </trkpt>
      <trkpt lat="46.10807" lon="5.95292">
        <ele>381.24</ele>
        <time>2015-05-22T08:22:25Z</time>
      </trkpt>
      <trkpt lat="46.10805" lon="5.95288">
        <ele>381.21</ele>
        <time>2015-05-22T08:22:26Z</time>
      </trkpt>
      <trkpt lat="46.10802" lon="5.95286">
        <ele>381.25</ele>
        <time>2015-05-22T08:22:27Z</time>
      </trkpt>
      <trkpt lat="46.10799" lon="5.95284">
        <ele>381.33</ele>
        <time>2015-05-22T08:22:28Z</time>
      </trkpt>
      <trkpt lat="46.10793" lon="5.95278">
        <ele>381.74</ele>
        <time>2015-05-22T08:22:35Z</time>
      </trkpt>
      <trkpt lat="46.1079" lon="5.95278">
        <ele>382</ele>
        <time>2015-05-22T08:23:05Z</time>
      </trkpt>
      <trkpt lat="46.1079" lon="5.95277">
        <ele>381.78</ele>
        <time>2015-05-22T08:23:09Z</time>
      </trkpt>
      <trkpt lat="46.10789" lon="5.95274">
        <ele>381.75</ele>
        <time>2015-05-22T08:23:10Z</time>
      </trkpt>
      <trkpt lat="46.10788" lon="5.95269">
        <ele>381.72</ele>
        <time>2015-05-22T08:23:12Z</time>
      </trkpt>
      <trkpt lat="46.10789" lon="5.95266">
        <ele>381.71</ele>
        <time>2015-05-22T08:23:13Z</time>
      </trkpt>
      <trkpt lat="46.10791" lon="5.95251">
        <ele>381.68</ele>
        <time>2015-05-22T08:23:16Z</time>
      </trkpt>
      <trkpt lat="46.10798" lon="5.95115">
        <ele>381.56</ele>
        <time>2015-05-22T08:23:35Z</time>
      </trkpt>
      <trkpt lat="46.1081" lon="5.95035">
        <ele>381.08</ele>
        <time>2015-05-22T08:23:44Z</time>
      </trkpt>
      <trkpt lat="46.10789" lon="5.94989">
        <ele>380.77</ele>
        <time>2015-05-22T08:23:51Z</time>
      </trkpt>
      <trkpt lat="46.10748" lon="5.9497">
        <ele>380.33</ele>
        <time>2015-05-22T08:23:57Z</time>
      </trkpt>
      <trkpt lat="46.10715" lon="5.94962">
        <ele>379.57</ele>
        <time>2015-05-22T08:24:02Z</time>
      </trkpt>
      <trkpt lat="46.10705" lon="5.94957">
        <ele>379.24</ele>
        <time>2015-05-22T08:24:04Z</time>
      </trkpt>
      <trkpt lat="46.10703" lon="5.94952">
        <ele>379.12</ele>
        <time>2015-05-22T08:24:05Z</time>
      </trkpt>
      <trkpt lat="46.10707" lon="5.94941">
        <ele>378.99</ele>
        <time>2015-05-22T08:24:07Z</time>
      </trkpt>
      <trkpt lat="46.10711" lon="5.94938">
        <ele>378.96</ele>
        <time>2015-05-22T08:24:08Z</time>
      </trkpt>
      <trkpt lat="46.10722" lon="5.94925">
        <ele>378.94</ele>
        <time>2015-05-22T08:24:11Z</time>
      </trkpt>
      <trkpt lat="46.10723" lon="5.94919">
        <ele>379.05</ele>
        <time>2015-05-22T08:24:12Z</time>
      </trkpt>
      <trkpt lat="46.10724" lon="5.94913">
        <ele>379.19</ele>
        <time>2015-05-22T08:24:13Z</time>
      </trkpt>
      <trkpt lat="46.10724" lon="5.94906">
        <ele>379.32</ele>
        <time>2015-05-22T08:24:14Z</time>
      </trkpt>
      <trkpt lat="46.10725" lon="5.94899">
        <ele>379.45</ele>
        <time>2015-05-22T08:24:15Z</time>
      </trkpt>
      <trkpt lat="46.1073" lon="5.94854">
        <ele>380.4</ele>
        <time>2015-05-22T08:24:22Z</time>
      </trkpt>
      <trkpt lat="46.10732" lon="5.94847">
        <ele>380.61</ele>
        <time>2015-05-22T08:24:23Z</time>
      </trkpt>
      <trkpt lat="46.1074" lon="5.9481">
        <ele>381.8</ele>
        <time>2015-05-22T08:24:29Z</time>
      </trkpt>
      <trkpt lat="46.10739" lon="5.94799">
        <ele>381.93</ele>
        <time>2015-05-22T08:24:31Z</time>
      </trkpt>
      <trkpt lat="46.1074" lon="5.94793">
        <ele>381.99</ele>
        <time>2015-05-22T08:24:32Z</time>
      </trkpt>
      <trkpt lat="46.1074" lon="5.94786">
        <ele>382.06</ele>
        <time>2015-05-22T08:24:33Z</time>
      </trkpt>
      <trkpt lat="46.1074" lon="5.94778">
        <ele>382.12</ele>
        <time>2015-05-22T08:24:34Z</time>
      </trkpt>
      <trkpt lat="46.1074" lon="5.94771">
        <ele>382.16</ele>
        <time>2015-05-22T08:24:35Z</time>
      </trkpt>
      <trkpt lat="46.10739" lon="5.94764">
        <ele>382.17</ele>
        <time>2015-05-22T08:24:36Z</time>
      </trkpt>
      <trkpt lat="46.10736" lon="5.94757">
        <ele>382.18</ele>
        <time>2015-05-22T08:24:37Z</time>
      </trkpt>
      <trkpt lat="46.10732" lon="5.94752">
        <ele>382.21</ele>
        <time>2015-05-22T08:24:38Z</time>
      </trkpt>
      <trkpt lat="46.10728" lon="5.94748">
        <ele>382.22</ele>
        <time>2015-05-22T08:24:39Z</time>
      </trkpt>
      <trkpt lat="46.10724" lon="5.94743">
        <ele>382.24</ele>
        <time>2015-05-22T08:24:40Z</time>
      </trkpt>
      <trkpt lat="46.1072" lon="5.94738">
        <ele>382.25</ele>
        <time>2015-05-22T08:24:41Z</time>
      </trkpt>
      <trkpt lat="46.10717" lon="5.94731">
        <ele>382.27</ele>
        <time>2015-05-22T08:24:42Z</time>
      </trkpt>
      <trkpt lat="46.10716" lon="5.94724">
        <ele>382.31</ele>
        <time>2015-05-22T08:24:43Z</time>
      </trkpt>
      <trkpt lat="46.10715" lon="5.94716">
        <ele>382.37</ele>
        <time>2015-05-22T08:24:44Z</time>
      </trkpt>
      <trkpt lat="46.10708" lon="5.94647">
        <ele>382.63</ele>
        <time>2015-05-22T08:24:52Z</time>
      </trkpt>
      <trkpt lat="46.10706" lon="5.94639">
        <ele>382.57</ele>
        <time>2015-05-22T08:24:53Z</time>
      </trkpt>
      <trkpt lat="46.10702" lon="5.94632">
        <ele>382.51</ele>
        <time>2015-05-22T08:24:54Z</time>
      </trkpt>
      <trkpt lat="46.10697" lon="5.94626">
        <ele>382.42</ele>
        <time>2015-05-22T08:24:55Z</time>
      </trkpt>
      <trkpt lat="46.10692" lon="5.94622">
        <ele>382.33</ele>
        <time>2015-05-22T08:24:56Z</time>
      </trkpt>
      <trkpt lat="46.10686" lon="5.94619">
        <ele>382.23</ele>
        <time>2015-05-22T08:24:57Z</time>
      </trkpt>
      <trkpt lat="46.10615" lon="5.94559">
        <ele>382.59</ele>
        <time>2015-05-22T08:25:10Z</time>
      </trkpt>
      <trkpt lat="46.10611" lon="5.94552">
        <ele>382.79</ele>
        <time>2015-05-22T08:25:11Z</time>
      </trkpt>
      <trkpt lat="46.10609" lon="5.94545">
        <ele>382.91</ele>
        <time>2015-05-22T08:25:12Z</time>
      </trkpt>
      <trkpt lat="46.10608" lon="5.94536">
        <ele>383.08</ele>
        <time>2015-05-22T08:25:13Z</time>
      </trkpt>
      <trkpt lat="46.10608" lon="5.94528">
        <ele>383.28</ele>
        <time>2015-05-22T08:25:14Z</time>
      </trkpt>
      <trkpt lat="46.10608" lon="5.94519">
        <ele>383.51</ele>
        <time>2015-05-22T08:25:15Z</time>
      </trkpt>
      <trkpt lat="46.10603" lon="5.94391">
        <ele>384.63</ele>
        <time>2015-05-22T08:25:29Z</time>
      </trkpt>
      <trkpt lat="46.106" lon="5.94382">
        <ele>384.6</ele>
        <time>2015-05-22T08:25:30Z</time>
      </trkpt>
      <trkpt lat="46.10596" lon="5.94373">
        <ele>384.52</ele>
        <time>2015-05-22T08:25:31Z</time>
      </trkpt>
      <trkpt lat="46.1059" lon="5.94366">
        <ele>384.34</ele>
        <time>2015-05-22T08:25:32Z</time>
      </trkpt>
      <trkpt lat="46.10585" lon="5.94359">
        <ele>384.03</ele>
        <time>2015-05-22T08:25:33Z</time>
      </trkpt>
      <trkpt lat="46.10574" lon="5.94343">
        <ele>383.1</ele>
        <time>2015-05-22T08:25:35Z</time>
      </trkpt>
      <trkpt lat="46.1051" lon="5.94216">
        <ele>383.1</ele>
        <time>2015-05-22T08:25:50Z</time>
      </trkpt>
      <trkpt lat="46.10446" lon="5.94081">
        <ele>385.03</ele>
        <time>2015-05-22T08:26:07Z</time>
      </trkpt>
      <trkpt lat="46.10437" lon="5.94069">
        <ele>385.42</ele>
        <time>2015-05-22T08:26:09Z</time>
      </trkpt>
      <trkpt lat="46.10432" lon="5.94066">
        <ele>385.6</ele>
        <time>2015-05-22T08:26:10Z</time>
      </trkpt>
      <trkpt lat="46.10426" lon="5.94063">
        <ele>385.76</ele>
        <time>2015-05-22T08:26:11Z</time>
      </trkpt>
      <trkpt lat="46.10421" lon="5.94062">
        <ele>385.93</ele>
        <time>2015-05-22T08:26:12Z</time>
      </trkpt>
      <trkpt lat="46.10415" lon="5.94061">
        <ele>386.07</ele>
        <time>2015-05-22T08:26:13Z</time>
      </trkpt>
      <trkpt lat="46.10409" lon="5.94061">
        <ele>386.21</ele>
        <time>2015-05-22T08:26:14Z</time>
      </trkpt>
      <trkpt lat="46.10343" lon="5.9406">
        <ele>387.32</ele>
        <time>2015-05-22T08:26:26Z</time>
      </trkpt>
      <trkpt lat="46.10339" lon="5.94058">
        <ele>387.45</ele>
        <time>2015-05-22T08:26:27Z</time>
      </trkpt>
      <trkpt lat="46.10335" lon="5.94054">
        <ele>387.56</ele>
        <time>2015-05-22T08:26:28Z</time>
      </trkpt>
      <trkpt lat="46.10331" lon="5.94049">
        <ele>387.68</ele>
        <time>2015-05-22T08:26:29Z</time>
      </trkpt>
      <trkpt lat="46.10328" lon="5.94043">
        <ele>387.78</ele>
        <time>2015-05-22T08:26:30Z</time>
      </trkpt>
      <trkpt lat="46.10326" lon="5.94037">
        <ele>387.87</ele>
        <time>2015-05-22T08:26:31Z</time>
      </trkpt>
      <trkpt lat="46.10324" lon="5.94029">
        <ele>387.95</ele>
        <time>2015-05-22T08:26:32Z</time>
      </trkpt>
      <trkpt lat="46.10322" lon="5.94022">
        <ele>388</ele>
        <time>2015-05-22T08:26:33Z</time>
      </trkpt>
      <trkpt lat="46.10322" lon="5.94014">
        <ele>388.04</ele>
        <time>2015-05-22T08:26:34Z</time>
      </trkpt>
      <trkpt lat="46.10321" lon="5.94006">
        <ele>388.07</ele>
        <time>2015-05-22T08:26:35Z</time>
      </trkpt>
      <trkpt lat="46.10322" lon="5.93997">
        <ele>388.09</ele>
        <time>2015-05-22T08:26:36Z</time>
      </trkpt>
      <trkpt lat="46.10322" lon="5.93963">
        <ele>387.97</ele>
        <time>2015-05-22T08:26:40Z</time>
      </trkpt>
      <trkpt lat="46.10321" lon="5.93956">
        <ele>387.91</ele>
        <time>2015-05-22T08:26:41Z</time>
      </trkpt>
      <trkpt lat="46.10319" lon="5.93948">
        <ele>387.85</ele>
        <time>2015-05-22T08:26:42Z</time>
      </trkpt>
      <trkpt lat="46.10307" lon="5.93888">
        <ele>387.46</ele>
        <time>2015-05-22T08:26:50Z</time>
      </trkpt>
      <trkpt lat="46.10307" lon="5.9388">
        <ele>387.47</ele>
        <time>2015-05-22T08:26:51Z</time>
      </trkpt>
      <trkpt lat="46.10305" lon="5.93849">
        <ele>387.54</ele>
        <time>2015-05-22T08:26:55Z</time>
      </trkpt>
      <trkpt lat="46.10306" lon="5.9384">
        <ele>387.55</ele>
        <time>2015-05-22T08:26:56Z</time>
      </trkpt>
      <trkpt lat="46.10334" lon="5.9372">
        <ele>386.57</ele>
        <time>2015-05-22T08:27:09Z</time>
      </trkpt>
      <trkpt lat="46.10346" lon="5.93666">
        <ele>385.84</ele>
        <time>2015-05-22T08:27:14Z</time>
      </trkpt>
      <trkpt lat="46.10377" lon="5.93541">
        <ele>383.75</ele>
        <time>2015-05-22T08:27:26Z</time>
      </trkpt>
      <trkpt lat="46.10358" lon="5.93498">
        <ele>383.41</ele>
        <time>2015-05-22T08:27:32Z</time>
      </trkpt>
      <trkpt lat="46.10346" lon="5.93494">
        <ele>383.12</ele>
        <time>2015-05-22T08:27:34Z</time>
      </trkpt>
      <trkpt lat="46.10275" lon="5.93469">
        <ele>383.61</ele>
        <time>2015-05-22T08:27:48Z</time>
      </trkpt>
      <trkpt lat="46.10272" lon="5.93468">
        <ele>383.62</ele>
        <time>2015-05-22T08:27:49Z</time>
      </trkpt>
      <trkpt lat="46.10273" lon="5.9344">
        <ele>382.89</ele>
        <time>2015-05-22T08:27:56Z</time>
      </trkpt>
      <trkpt lat="46.10274" lon="5.93419">
        <ele>382.9</ele>
        <time>2015-05-22T08:28:00Z</time>
      </trkpt>
      <trkpt lat="46.10279" lon="5.93399">
        <ele>383.22</ele>
        <time>2015-05-22T08:28:03Z</time>
      </trkpt>
      <trkpt lat="46.10287" lon="5.93364">
        <ele>383.38</ele>
        <time>2015-05-22T08:28:07Z</time>
      </trkpt>
      <trkpt lat="46.10293" lon="5.93346">
        <ele>383.22</ele>
        <time>2015-05-22T08:28:09Z</time>
      </trkpt>
      <trkpt lat="46.10305" lon="5.93305">
        <ele>382.19</ele>
        <time>2015-05-22T08:28:14Z</time>
      </trkpt>
      <trkpt lat="46.10312" lon="5.9329">
        <ele>381.56</ele>
        <time>2015-05-22T08:28:16Z</time>
      </trkpt>
      <trkpt lat="46.10319" lon="5.93259">
        <ele>379.72</ele>
        <time>2015-05-22T08:28:21Z</time>
      </trkpt>
      <trkpt lat="46.10318" lon="5.93237">
        <ele>378.91</ele>
        <time>2015-05-22T08:28:24Z</time>
      </trkpt>
      <trkpt lat="46.10316" lon="5.9323">
        <ele>378.73</ele>
        <time>2015-05-22T08:28:25Z</time>
      </trkpt>
      <trkpt lat="46.10315" lon="5.93223">
        <ele>378.58</ele>
        <time>2015-05-22T08:28:26Z</time>
      </trkpt>
      <trkpt lat="46.1031" lon="5.93205">
        <ele>378.37</ele>
        <time>2015-05-22T08:28:29Z</time>
      </trkpt>
      <trkpt lat="46.10306" lon="5.93201">
        <ele>378.36</ele>
        <time>2015-05-22T08:28:30Z</time>
      </trkpt>
      <trkpt lat="46.10302" lon="5.93197">
        <ele>378.38</ele>
        <time>2015-05-22T08:28:31Z</time>
      </trkpt>
      <trkpt lat="46.10265" lon="5.93173">
        <ele>379.46</ele>
        <time>2015-05-22T08:28:40Z</time>
      </trkpt>
      <trkpt lat="46.10262" lon="5.9317">
        <ele>379.61</ele>
        <time>2015-05-22T08:28:41Z</time>
      </trkpt>
      <trkpt lat="46.10239" lon="5.93146">
        <ele>382.66</ele>
        <time>2015-05-22T08:28:52Z</time>
      </trkpt>
      <trkpt lat="46.10212" lon="5.93123">
        <ele>384.04</ele>
        <time>2015-05-22T08:29:03Z</time>
      </trkpt>
      <trkpt lat="46.10173" lon="5.93116">
        <ele>385.71</ele>
        <time>2015-05-22T08:29:17Z</time>
      </trkpt>
      <trkpt lat="46.10159" lon="5.93116">
        <ele>387.1</ele>
        <time>2015-05-22T08:29:22Z</time>
      </trkpt>
      <trkpt lat="46.10156" lon="5.93115">
        <ele>387.42</ele>
        <time>2015-05-22T08:29:23Z</time>
      </trkpt>
      <trkpt lat="46.10154" lon="5.93113">
        <ele>387.78</ele>
        <time>2015-05-22T08:29:24Z</time>
      </trkpt>
      <trkpt lat="46.10151" lon="5.93111">
        <ele>388.11</ele>
        <time>2015-05-22T08:29:25Z</time>
      </trkpt>
      <trkpt lat="46.10149" lon="5.93108">
        <ele>388.45</ele>
        <time>2015-05-22T08:29:26Z</time>
      </trkpt>
      <trkpt lat="46.10147" lon="5.93105">
        <ele>388.78</ele>
        <time>2015-05-22T08:29:27Z</time>
      </trkpt>
      <trkpt lat="46.10145" lon="5.93101">
        <ele>389.07</ele>
        <time>2015-05-22T08:29:28Z</time>
      </trkpt>
      <trkpt lat="46.10143" lon="5.93097">
        <ele>389.33</ele>
        <time>2015-05-22T08:29:29Z</time>
      </trkpt>
      <trkpt lat="46.10142" lon="5.93091">
        <ele>389.57</ele>
        <time>2015-05-22T08:29:30Z</time>
      </trkpt>
      <trkpt lat="46.10141" lon="5.9308">
        <ele>389.94</ele>
        <time>2015-05-22T08:29:32Z</time>
      </trkpt>
      <trkpt lat="46.10141" lon="5.93074">
        <ele>390.08</ele>
        <time>2015-05-22T08:29:33Z</time>
      </trkpt>
      <trkpt lat="46.10142" lon="5.93067">
        <ele>390.2</ele>
        <time>2015-05-22T08:29:34Z</time>
      </trkpt>
      <trkpt lat="46.10148" lon="5.92986">
        <ele>391.69</ele>
        <time>2015-05-22T08:29:48Z</time>
      </trkpt>
      <trkpt lat="46.10155" lon="5.92916">
        <ele>393.28</ele>
        <time>2015-05-22T08:30:03Z</time>
      </trkpt>
      <trkpt lat="46.10162" lon="5.92883">
        <ele>395.37</ele>
        <time>2015-05-22T08:30:10Z</time>
      </trkpt>
      <trkpt lat="46.10179" lon="5.92816">
        <ele>393.84</ele>
        <time>2015-05-22T08:30:22Z</time>
      </trkpt>
      <trkpt lat="46.10184" lon="5.92787">
        <ele>393.48</ele>
        <time>2015-05-22T08:30:26Z</time>
      </trkpt>
      <trkpt lat="46.10186" lon="5.9278">
        <ele>393.43</ele>
        <time>2015-05-22T08:30:27Z</time>
      </trkpt>
      <trkpt lat="46.10188" lon="5.92773">
        <ele>393.42</ele>
        <time>2015-05-22T08:30:28Z</time>
      </trkpt>
      <trkpt lat="46.10191" lon="5.92759">
        <ele>393.54</ele>
        <time>2015-05-22T08:30:30Z</time>
      </trkpt>
      <trkpt lat="46.10212" lon="5.92693">
        <ele>394.39</ele>
        <time>2015-05-22T08:30:42Z</time>
      </trkpt>
      <trkpt lat="46.10235" lon="5.92644">
        <ele>396.48</ele>
        <time>2015-05-22T08:30:54Z</time>
      </trkpt>
      <trkpt lat="46.10239" lon="5.92632">
        <ele>396.87</ele>
        <time>2015-05-22T08:30:57Z</time>
      </trkpt>
      <trkpt lat="46.10239" lon="5.9263">
        <ele>397.01</ele>
        <time>2015-05-22T08:30:58Z</time>
      </trkpt>
      <trkpt lat="46.10231" lon="5.92628">
        <ele>396.48</ele>
        <time>2015-05-22T08:31:10Z</time>
      </trkpt>
      <trkpt lat="46.10226" lon="5.92632">
        <ele>396.82</ele>
        <time>2015-05-22T08:31:41Z</time>
      </trkpt>
      <trkpt lat="46.1023" lon="5.92629">
        <ele>397.32</ele>
        <time>2015-05-22T08:32:14Z</time>
      </trkpt>
      <trkpt lat="46.10229" lon="5.92631">
        <ele>397.19</ele>
        <time>2015-05-22T08:32:19Z</time>
      </trkpt>
      <trkpt lat="46.10233" lon="5.92634">
        <ele>397.28</ele>
        <time>2015-05-22T08:32:36Z</time>
      </trkpt>
      <trkpt lat="46.10235" lon="5.92632">
        <ele>397.33</ele>
        <time>2015-05-22T08:32:44Z</time>
      </trkpt>
      <trkpt lat="46.10236" lon="5.92641">
        <ele>397.53</ele>
        <time>2015-05-22T08:33:05Z</time>
      </trkpt>
      <trkpt lat="46.10238" lon="5.92641">
        <ele>397.53</ele>
        <time>2015-05-22T08:33:06Z</time>
      </trkpt>
      <trkpt lat="46.1024" lon="5.92639">
        <ele>397.5</ele>
        <time>2015-05-22T08:33:07Z</time>
      </trkpt>
      <trkpt lat="46.10242" lon="5.92635">
        <ele>397.45</ele>
        <time>2015-05-22T08:33:08Z</time>
      </trkpt>
      <trkpt lat="46.10244" lon="5.92631">
        <ele>397.39</ele>
        <time>2015-05-22T08:33:09Z</time>
      </trkpt>
      <trkpt lat="46.10246" lon="5.92627">
        <ele>397.32</ele>
        <time>2015-05-22T08:33:10Z</time>
      </trkpt>
      <trkpt lat="46.10256" lon="5.92609">
        <ele>397.03</ele>
        <time>2015-05-22T08:33:14Z</time>
      </trkpt>
      <trkpt lat="46.10259" lon="5.92604">
        <ele>396.98</ele>
        <time>2015-05-22T08:33:15Z</time>
      </trkpt>
      <trkpt lat="46.10262" lon="5.92599">
        <ele>396.92</ele>
        <time>2015-05-22T08:33:16Z</time>
      </trkpt>
      <trkpt lat="46.10265" lon="5.92593">
        <ele>396.84</ele>
        <time>2015-05-22T08:33:17Z</time>
      </trkpt>
      <trkpt lat="46.10269" lon="5.92588">
        <ele>396.75</ele>
        <time>2015-05-22T08:33:18Z</time>
      </trkpt>
      <trkpt lat="46.10272" lon="5.92583">
        <ele>396.62</ele>
        <time>2015-05-22T08:33:19Z</time>
      </trkpt>
      <trkpt lat="46.10304" lon="5.92539">
        <ele>395.1</ele>
        <time>2015-05-22T08:33:27Z</time>
      </trkpt>
      <trkpt lat="46.10309" lon="5.92534">
        <ele>395.03</ele>
        <time>2015-05-22T08:33:28Z</time>
      </trkpt>
      <trkpt lat="46.10325" lon="5.92512">
        <ele>395.14</ele>
        <time>2015-05-22T08:33:32Z</time>
      </trkpt>
      <trkpt lat="46.10331" lon="5.92503">
        <ele>395.31</ele>
        <time>2015-05-22T08:33:34Z</time>
      </trkpt>
      <trkpt lat="46.10334" lon="5.92499">
        <ele>395.38</ele>
        <time>2015-05-22T08:33:35Z</time>
      </trkpt>
      <trkpt lat="46.10338" lon="5.92495">
        <ele>395.45</ele>
        <time>2015-05-22T08:33:36Z</time>
      </trkpt>
      <trkpt lat="46.10352" lon="5.92475">
        <ele>395.55</ele>
        <time>2015-05-22T08:33:41Z</time>
      </trkpt>
      <trkpt lat="46.10358" lon="5.92467">
        <ele>395.6</ele>
        <time>2015-05-22T08:33:43Z</time>
      </trkpt>
      <trkpt lat="46.1036" lon="5.92462">
        <ele>395.61</ele>
        <time>2015-05-22T08:33:44Z</time>
      </trkpt>
      <trkpt lat="46.10382" lon="5.92422">
        <ele>395.41</ele>
        <time>2015-05-22T08:33:52Z</time>
      </trkpt>
      <trkpt lat="46.10385" lon="5.92417">
        <ele>395.29</ele>
        <time>2015-05-22T08:33:53Z</time>
      </trkpt>
      <trkpt lat="46.10389" lon="5.92411">
        <ele>395.21</ele>
        <time>2015-05-22T08:33:54Z</time>
      </trkpt>
      <trkpt lat="46.10407" lon="5.92381">
        <ele>394.57</ele>
        <time>2015-05-22T08:33:59Z</time>
      </trkpt>
      <trkpt lat="46.10414" lon="5.92369">
        <ele>394.15</ele>
        <time>2015-05-22T08:34:01Z</time>
      </trkpt>
      <trkpt lat="46.10427" lon="5.92351">
        <ele>393.59</ele>
        <time>2015-05-22T08:34:04Z</time>
      </trkpt>
      <trkpt lat="46.10475" lon="5.92281">
        <ele>392.67</ele>
        <time>2015-05-22T08:34:14Z</time>
      </trkpt>
      <trkpt lat="46.10524" lon="5.92206">
        <ele>391.34</ele>
        <time>2015-05-22T08:34:24Z</time>
      </trkpt>
      <trkpt lat="46.10541" lon="5.9218">
        <ele>391.39</ele>
        <time>2015-05-22T08:34:28Z</time>
      </trkpt>
      <trkpt lat="46.1058" lon="5.9212">
        <ele>389.29</ele>
        <time>2015-05-22T08:34:38Z</time>
      </trkpt>
      <trkpt lat="46.10586" lon="5.9211">
        <ele>388.97</ele>
        <time>2015-05-22T08:34:40Z</time>
      </trkpt>
      <trkpt lat="46.10589" lon="5.92105">
        <ele>388.82</ele>
        <time>2015-05-22T08:34:41Z</time>
      </trkpt>
      <trkpt lat="46.10611" lon="5.92072">
        <ele>388.53</ele>
        <time>2015-05-22T08:34:48Z</time>
      </trkpt>
      <trkpt lat="46.10623" lon="5.92054">
        <ele>388.3</ele>
        <time>2015-05-22T08:34:51Z</time>
      </trkpt>
      <trkpt lat="46.10627" lon="5.92047">
        <ele>388.28</ele>
        <time>2015-05-22T08:34:52Z</time>
      </trkpt>
      <trkpt lat="46.10642" lon="5.92023">
        <ele>388.44</ele>
        <time>2015-05-22T08:34:56Z</time>
      </trkpt>
      <trkpt lat="46.10661" lon="5.91993">
        <ele>388.18</ele>
        <time>2015-05-22T08:35:01Z</time>
      </trkpt>
      <trkpt lat="46.10673" lon="5.91976">
        <ele>387.56</ele>
        <time>2015-05-22T08:35:04Z</time>
      </trkpt>
      <trkpt lat="46.10676" lon="5.9197">
        <ele>387.31</ele>
        <time>2015-05-22T08:35:05Z</time>
      </trkpt>
      <trkpt lat="46.10689" lon="5.91951">
        <ele>387.25</ele>
        <time>2015-05-22T08:35:08Z</time>
      </trkpt>
      <trkpt lat="46.1073" lon="5.91891">
        <ele>388.49</ele>
        <time>2015-05-22T08:35:18Z</time>
      </trkpt>
      <trkpt lat="46.10734" lon="5.91885">
        <ele>388.5</ele>
        <time>2015-05-22T08:35:19Z</time>
      </trkpt>
      <trkpt lat="46.10742" lon="5.91874">
        <ele>388.42</ele>
        <time>2015-05-22T08:35:21Z</time>
      </trkpt>
      <trkpt lat="46.10752" lon="5.91862">
        <ele>388.32</ele>
        <time>2015-05-22T08:35:23Z</time>
      </trkpt>
      <trkpt lat="46.10764" lon="5.91844">
        <ele>388.18</ele>
        <time>2015-05-22T08:35:26Z</time>
      </trkpt>
      <trkpt lat="46.10796" lon="5.91796">
        <ele>389.21</ele>
        <time>2015-05-22T08:35:37Z</time>
      </trkpt>
      <trkpt lat="46.10803" lon="5.91783">
        <ele>389.67</ele>
        <time>2015-05-22T08:35:40Z</time>
      </trkpt>
      <trkpt lat="46.10807" lon="5.91779">
        <ele>389.78</ele>
        <time>2015-05-22T08:35:41Z</time>
      </trkpt>
      <trkpt lat="46.10814" lon="5.9177">
        <ele>390.01</ele>
        <time>2015-05-22T08:35:43Z</time>
      </trkpt>
      <trkpt lat="46.10816" lon="5.91766">
        <ele>390.25</ele>
        <time>2015-05-22T08:35:44Z</time>
      </trkpt>
      <trkpt lat="46.10831" lon="5.91742">
        <ele>391.24</ele>
        <time>2015-05-22T08:35:49Z</time>
      </trkpt>
      <trkpt lat="46.10834" lon="5.91736">
        <ele>391.34</ele>
        <time>2015-05-22T08:35:50Z</time>
      </trkpt>
      <trkpt lat="46.10856" lon="5.917">
        <ele>391.42</ele>
        <time>2015-05-22T08:35:56Z</time>
      </trkpt>
      <trkpt lat="46.10864" lon="5.91689">
        <ele>391.31</ele>
        <time>2015-05-22T08:35:58Z</time>
      </trkpt>
      <trkpt lat="46.10872" lon="5.91678">
        <ele>391.29</ele>
        <time>2015-05-22T08:36:00Z</time>
      </trkpt>
      <trkpt lat="46.10876" lon="5.91672">
        <ele>391.31</ele>
        <time>2015-05-22T08:36:01Z</time>
      </trkpt>
      <trkpt lat="46.1088" lon="5.91666">
        <ele>391.38</ele>
        <time>2015-05-22T08:36:02Z</time>
      </trkpt>
      <trkpt lat="46.10887" lon="5.91654">
        <ele>391.46</ele>
        <time>2015-05-22T08:36:04Z</time>
      </trkpt>
      <trkpt lat="46.10893" lon="5.91642">
        <ele>391.55</ele>
        <time>2015-05-22T08:36:06Z</time>
      </trkpt>
      <trkpt lat="46.1093" lon="5.91575">
        <ele>393.39</ele>
        <time>2015-05-22T08:36:19Z</time>
      </trkpt>
      <trkpt lat="46.10934" lon="5.91575">
        <ele>391.98</ele>
        <time>2015-05-22T08:36:30Z</time>
      </trkpt>
      <trkpt lat="46.10933" lon="5.91565">
        <ele>391.45</ele>
        <time>2015-05-22T08:36:56Z</time>
      </trkpt>
      <trkpt lat="46.10934" lon="5.9156">
        <ele>391.27</ele>
        <time>2015-05-22T08:36:58Z</time>
      </trkpt>
      <trkpt lat="46.10936" lon="5.91557">
        <ele>391.15</ele>
        <time>2015-05-22T08:36:59Z</time>
      </trkpt>
      <trkpt lat="46.10941" lon="5.91549">
        <ele>390.9</ele>
        <time>2015-05-22T08:37:01Z</time>
      </trkpt>
      <trkpt lat="46.1095" lon="5.91533">
        <ele>390.67</ele>
        <time>2015-05-22T08:37:04Z</time>
      </trkpt>
      <trkpt lat="46.10953" lon="5.91526">
        <ele>390.63</ele>
        <time>2015-05-22T08:37:05Z</time>
      </trkpt>
      <trkpt lat="46.1099" lon="5.91437">
        <ele>391.66</ele>
        <time>2015-05-22T08:37:16Z</time>
      </trkpt>
      <trkpt lat="46.10998" lon="5.91409">
        <ele>391.58</ele>
        <time>2015-05-22T08:37:19Z</time>
      </trkpt>
      <trkpt lat="46.11003" lon="5.9139">
        <ele>391.5</ele>
        <time>2015-05-22T08:37:21Z</time>
      </trkpt>
      <trkpt lat="46.11026" lon="5.91244">
        <ele>390.18</ele>
        <time>2015-05-22T08:37:35Z</time>
      </trkpt>
      <trkpt lat="46.11056" lon="5.91076">
        <ele>389.57</ele>
        <time>2015-05-22T08:37:51Z</time>
      </trkpt>
      <trkpt lat="46.1108" lon="5.90944">
        <ele>388.68</ele>
        <time>2015-05-22T08:38:05Z</time>
      </trkpt>
      <trkpt lat="46.11084" lon="5.90927">
        <ele>388.66</ele>
        <time>2015-05-22T08:38:07Z</time>
      </trkpt>
      <trkpt lat="46.11125" lon="5.90821">
        <ele>388.58</ele>
        <time>2015-05-22T08:38:20Z</time>
      </trkpt>
      <trkpt lat="46.11132" lon="5.90805">
        <ele>388.72</ele>
        <time>2015-05-22T08:38:22Z</time>
      </trkpt>
      <trkpt lat="46.11139" lon="5.9079">
        <ele>388.81</ele>
        <time>2015-05-22T08:38:24Z</time>
      </trkpt>
      <trkpt lat="46.11184" lon="5.90688">
        <ele>388.59</ele>
        <time>2015-05-22T08:38:37Z</time>
      </trkpt>
      <trkpt lat="46.112" lon="5.90661">
        <ele>388.68</ele>
        <time>2015-05-22T08:38:41Z</time>
      </trkpt>
      <trkpt lat="46.11252" lon="5.9059">
        <ele>388.77</ele>
        <time>2015-05-22T08:38:53Z</time>
      </trkpt>
      <trkpt lat="46.11257" lon="5.90584">
        <ele>388.7</ele>
        <time>2015-05-22T08:38:54Z</time>
      </trkpt>
      <trkpt lat="46.11312" lon="5.90518">
        <ele>387.79</ele>
        <time>2015-05-22T08:39:05Z</time>
      </trkpt>
      <trkpt lat="46.11374" lon="5.90435">
        <ele>387.51</ele>
        <time>2015-05-22T08:39:18Z</time>
      </trkpt>
      <trkpt lat="46.11429" lon="5.90363">
        <ele>387.56</ele>
        <time>2015-05-22T08:39:30Z</time>
      </trkpt>
      <trkpt lat="46.11488" lon="5.90298">
        <ele>388.09</ele>
        <time>2015-05-22T08:39:43Z</time>
      </trkpt>
      <trkpt lat="46.11493" lon="5.90293">
        <ele>388.16</ele>
        <time>2015-05-22T08:39:44Z</time>
      </trkpt>
      <trkpt lat="46.11501" lon="5.90289">
        <ele>388.25</ele>
        <time>2015-05-22T08:39:45Z</time>
      </trkpt>
      <trkpt lat="46.11576" lon="5.9023">
        <ele>388.49</ele>
        <time>2015-05-22T08:39:57Z</time>
      </trkpt>
      <trkpt lat="46.11638" lon="5.90177">
        <ele>388.64</ele>
        <time>2015-05-22T08:40:10Z</time>
      </trkpt>
      <trkpt lat="46.11671" lon="5.90149">
        <ele>387</ele>
        <time>2015-05-22T08:40:18Z</time>
      </trkpt>
      <trkpt lat="46.11679" lon="5.90141">
        <ele>386.92</ele>
        <time>2015-05-22T08:40:20Z</time>
      </trkpt>
      <trkpt lat="46.11701" lon="5.90124">
        <ele>387.14</ele>
        <time>2015-05-22T08:40:25Z</time>
      </trkpt>
      <trkpt lat="46.11715" lon="5.90111">
        <ele>387.31</ele>
        <time>2015-05-22T08:40:28Z</time>
      </trkpt>
      <trkpt lat="46.11716" lon="5.90105">
        <ele>387.31</ele>
        <time>2015-05-22T08:40:29Z</time>
      </trkpt>
      <trkpt lat="46.11717" lon="5.901">
        <ele>387.29</ele>
        <time>2015-05-22T08:40:30Z</time>
      </trkpt>
      <trkpt lat="46.11731" lon="5.90094">
        <ele>387.42</ele>
        <time>2015-05-22T08:40:37Z</time>
      </trkpt>
      <trkpt lat="46.11729" lon="5.901">
        <ele>387.26</ele>
        <time>2015-05-22T08:41:02Z</time>
      </trkpt>
      <trkpt lat="46.11728" lon="5.90102">
        <ele>387.29</ele>
        <time>2015-05-22T08:41:03Z</time>
      </trkpt>
      <trkpt lat="46.11727" lon="5.90109">
        <ele>387.39</ele>
        <time>2015-05-22T08:41:05Z</time>
      </trkpt>
      <trkpt lat="46.11726" lon="5.90114">
        <ele>387.47</ele>
        <time>2015-05-22T08:41:06Z</time>
      </trkpt>
      <trkpt lat="46.11724" lon="5.90119">
        <ele>387.58</ele>
        <time>2015-05-22T08:41:07Z</time>
      </trkpt>
      <trkpt lat="46.11721" lon="5.90124">
        <ele>387.73</ele>
        <time>2015-05-22T08:41:08Z</time>
      </trkpt>
      <trkpt lat="46.11718" lon="5.90129">
        <ele>387.87</ele>
        <time>2015-05-22T08:41:09Z</time>
      </trkpt>
      <trkpt lat="46.11714" lon="5.90133">
        <ele>388.02</ele>
        <time>2015-05-22T08:41:10Z</time>
      </trkpt>
      <trkpt lat="46.11709" lon="5.90136">
        <ele>388.2</ele>
        <time>2015-05-22T08:41:11Z</time>
      </trkpt>
      <trkpt lat="46.11705" lon="5.90139">
        <ele>388.39</ele>
        <time>2015-05-22T08:41:12Z</time>
      </trkpt>
      <trkpt lat="46.1167" lon="5.90166">
        <ele>388.29</ele>
        <time>2015-05-22T08:41:23Z</time>
      </trkpt>
      <trkpt lat="46.11667" lon="5.90166">
        <ele>386.35</ele>
        <time>2015-05-22T08:41:35Z</time>
      </trkpt>
      <trkpt lat="46.1167" lon="5.90165">
        <ele>385.97</ele>
        <time>2015-05-22T08:41:46Z</time>
      </trkpt>
      <trkpt lat="46.11676" lon="5.9016">
        <ele>385.8</ele>
        <time>2015-05-22T08:41:51Z</time>
      </trkpt>
      <trkpt lat="46.11678" lon="5.90157">
        <ele>385.75</ele>
        <time>2015-05-22T08:41:52Z</time>
      </trkpt>
      <trkpt lat="46.11681" lon="5.90154">
        <ele>385.72</ele>
        <time>2015-05-22T08:41:53Z</time>
      </trkpt>
      <trkpt lat="46.11685" lon="5.90151">
        <ele>385.71</ele>
        <time>2015-05-22T08:41:54Z</time>
      </trkpt>
      <trkpt lat="46.1172" lon="5.90119">
        <ele>386.03</ele>
        <time>2015-05-22T08:42:01Z</time>
      </trkpt>
      <trkpt lat="46.11724" lon="5.90111">
        <ele>386.1</ele>
        <time>2015-05-22T08:42:02Z</time>
      </trkpt>
      <trkpt lat="46.11727" lon="5.90103">
        <ele>386.17</ele>
        <time>2015-05-22T08:42:03Z</time>
      </trkpt>
      <trkpt lat="46.11727" lon="5.90093">
        <ele>386.25</ele>
        <time>2015-05-22T08:42:04Z</time>
      </trkpt>
      <trkpt lat="46.11727" lon="5.90084">
        <ele>386.44</ele>
        <time>2015-05-22T08:42:05Z</time>
      </trkpt>
      <trkpt lat="46.11725" lon="5.90075">
        <ele>386.59</ele>
        <time>2015-05-22T08:42:06Z</time>
      </trkpt>
      <trkpt lat="46.11722" lon="5.90066">
        <ele>386.78</ele>
        <time>2015-05-22T08:42:07Z</time>
      </trkpt>
      <trkpt lat="46.11718" lon="5.90058">
        <ele>386.96</ele>
        <time>2015-05-22T08:42:08Z</time>
      </trkpt>
      <trkpt lat="46.11715" lon="5.90048">
        <ele>387.11</ele>
        <time>2015-05-22T08:42:09Z</time>
      </trkpt>
      <trkpt lat="46.11712" lon="5.90038">
        <ele>387.24</ele>
        <time>2015-05-22T08:42:10Z</time>
      </trkpt>
      <trkpt lat="46.11709" lon="5.90019">
        <ele>387.47</ele>
        <time>2015-05-22T08:42:12Z</time>
      </trkpt>
      <trkpt lat="46.11708" lon="5.90009">
        <ele>387.58</ele>
        <time>2015-05-22T08:42:13Z</time>
      </trkpt>
      <trkpt lat="46.11708" lon="5.89998">
        <ele>387.68</ele>
        <time>2015-05-22T08:42:14Z</time>
      </trkpt>
      <trkpt lat="46.11708" lon="5.89987">
        <ele>387.75</ele>
        <time>2015-05-22T08:42:15Z</time>
      </trkpt>
      <trkpt lat="46.11708" lon="5.89976">
        <ele>387.82</ele>
        <time>2015-05-22T08:42:16Z</time>
      </trkpt>
      <trkpt lat="46.11709" lon="5.89929">
        <ele>387.8</ele>
        <time>2015-05-22T08:42:20Z</time>
      </trkpt>
      <trkpt lat="46.1174" lon="5.89797">
        <ele>385.85</ele>
        <time>2015-05-22T08:42:31Z</time>
      </trkpt>
      <trkpt lat="46.11744" lon="5.89785">
        <ele>385.54</ele>
        <time>2015-05-22T08:42:32Z</time>
      </trkpt>
      <trkpt lat="46.11746" lon="5.89772">
        <ele>384.91</ele>
        <time>2015-05-22T08:42:33Z</time>
      </trkpt>
      <trkpt lat="46.11745" lon="5.89758">
        <ele>384.66</ele>
        <time>2015-05-22T08:42:34Z</time>
      </trkpt>
      <trkpt lat="46.11743" lon="5.89745">
        <ele>384.45</ele>
        <time>2015-05-22T08:42:35Z</time>
      </trkpt>
      <trkpt lat="46.11741" lon="5.89732">
        <ele>384.27</ele>
        <time>2015-05-22T08:42:36Z</time>
      </trkpt>
      <trkpt lat="46.11739" lon="5.89719">
        <ele>384.09</ele>
        <time>2015-05-22T08:42:37Z</time>
      </trkpt>
      <trkpt lat="46.11738" lon="5.89705">
        <ele>383.88</ele>
        <time>2015-05-22T08:42:38Z</time>
      </trkpt>
      <trkpt lat="46.11737" lon="5.89679">
        <ele>383.4</ele>
        <time>2015-05-22T08:42:40Z</time>
      </trkpt>
      <trkpt lat="46.11739" lon="5.89667">
        <ele>383.2</ele>
        <time>2015-05-22T08:42:41Z</time>
      </trkpt>
      <trkpt lat="46.11741" lon="5.89654">
        <ele>383.02</ele>
        <time>2015-05-22T08:42:42Z</time>
      </trkpt>
      <trkpt lat="46.11743" lon="5.89643">
        <ele>382.87</ele>
        <time>2015-05-22T08:42:43Z</time>
      </trkpt>
      <trkpt lat="46.11746" lon="5.89631">
        <ele>382.74</ele>
        <time>2015-05-22T08:42:44Z</time>
      </trkpt>
      <trkpt lat="46.11777" lon="5.89471">
        <ele>380.28</ele>
        <time>2015-05-22T08:42:58Z</time>
      </trkpt>
      <trkpt lat="46.11776" lon="5.89461">
        <ele>380.63</ele>
        <time>2015-05-22T08:42:59Z</time>
      </trkpt>
      <trkpt lat="46.11774" lon="5.8945">
        <ele>381.12</ele>
        <time>2015-05-22T08:43:00Z</time>
      </trkpt>
      <trkpt lat="46.11771" lon="5.89439">
        <ele>381.63</ele>
        <time>2015-05-22T08:43:01Z</time>
      </trkpt>
      <trkpt lat="46.11769" lon="5.89428">
        <ele>382.13</ele>
        <time>2015-05-22T08:43:02Z</time>
      </trkpt>
      <trkpt lat="46.11758" lon="5.894">
        <ele>383.91</ele>
        <time>2015-05-22T08:43:05Z</time>
      </trkpt>
      <trkpt lat="46.11754" lon="5.89394">
        <ele>384.48</ele>
        <time>2015-05-22T08:43:06Z</time>
      </trkpt>
      <trkpt lat="46.1175" lon="5.8939">
        <ele>385</ele>
        <time>2015-05-22T08:43:07Z</time>
      </trkpt>
      <trkpt lat="46.11744" lon="5.89383">
        <ele>386.68</ele>
        <time>2015-05-22T08:43:12Z</time>
      </trkpt>
      <trkpt lat="46.11743" lon="5.89382">
        <ele>386.91</ele>
        <time>2015-05-22T08:43:13Z</time>
      </trkpt>
      <trkpt lat="46.11739" lon="5.89379">
        <ele>388.22</ele>
        <time>2015-05-22T08:43:32Z</time>
      </trkpt>
      <trkpt lat="46.11738" lon="5.89378">
        <ele>388.44</ele>
        <time>2015-05-22T08:43:54Z</time>
      </trkpt>
      <trkpt lat="46.1174" lon="5.89377">
        <ele>388.19</ele>
        <time>2015-05-22T08:44:19Z</time>
      </trkpt>
      <trkpt lat="46.11733" lon="5.89377">
        <ele>390.29</ele>
        <time>2015-05-22T08:44:38Z</time>
      </trkpt>
      <trkpt lat="46.11726" lon="5.89375">
        <ele>390.56</ele>
        <time>2015-05-22T08:44:40Z</time>
      </trkpt>
      <trkpt lat="46.11701" lon="5.89365">
        <ele>390.12</ele>
        <time>2015-05-22T08:44:44Z</time>
      </trkpt>
      <trkpt lat="46.1162" lon="5.89317">
        <ele>386.94</ele>
        <time>2015-05-22T08:44:54Z</time>
      </trkpt>
      <trkpt lat="46.11577" lon="5.89305">
        <ele>383.81</ele>
        <time>2015-05-22T08:44:59Z</time>
      </trkpt>
      <trkpt lat="46.11516" lon="5.89297">
        <ele>380.42</ele>
        <time>2015-05-22T08:45:06Z</time>
      </trkpt>
      <trkpt lat="46.11469" lon="5.89296">
        <ele>378.71</ele>
        <time>2015-05-22T08:45:12Z</time>
      </trkpt>
      <trkpt lat="46.11455" lon="5.89291">
        <ele>378.44</ele>
        <time>2015-05-22T08:45:14Z</time>
      </trkpt>
      <trkpt lat="46.11448" lon="5.89288">
        <ele>378.31</ele>
        <time>2015-05-22T08:45:15Z</time>
      </trkpt>
      <trkpt lat="46.11443" lon="5.89284">
        <ele>378.16</ele>
        <time>2015-05-22T08:45:16Z</time>
      </trkpt>
      <trkpt lat="46.11393" lon="5.89238">
        <ele>374.68</ele>
        <time>2015-05-22T08:45:25Z</time>
      </trkpt>
      <trkpt lat="46.11368" lon="5.89222">
        <ele>373.09</ele>
        <time>2015-05-22T08:45:30Z</time>
      </trkpt>
      <trkpt lat="46.11362" lon="5.89221">
        <ele>372.82</ele>
        <time>2015-05-22T08:45:31Z</time>
      </trkpt>
      <trkpt lat="46.11357" lon="5.89221">
        <ele>372.4</ele>
        <time>2015-05-22T08:45:32Z</time>
      </trkpt>
      <trkpt lat="46.11351" lon="5.89222">
        <ele>371.92</ele>
        <time>2015-05-22T08:45:33Z</time>
      </trkpt>
      <trkpt lat="46.11345" lon="5.89222">
        <ele>371.44</ele>
        <time>2015-05-22T08:45:34Z</time>
      </trkpt>
      <trkpt lat="46.11339" lon="5.89222">
        <ele>370.8</ele>
        <time>2015-05-22T08:45:35Z</time>
      </trkpt>
      <trkpt lat="46.11306" lon="5.89221">
        <ele>367.61</ele>
        <time>2015-05-22T08:45:40Z</time>
      </trkpt>
      <trkpt lat="46.11246" lon="5.89192">
        <ele>364.63</ele>
        <time>2015-05-22T08:45:50Z</time>
      </trkpt>
      <trkpt lat="46.11219" lon="5.89179">
        <ele>361.57</ele>
        <time>2015-05-22T08:45:54Z</time>
      </trkpt>
      <trkpt lat="46.11212" lon="5.89176">
        <ele>360.82</ele>
        <time>2015-05-22T08:45:55Z</time>
      </trkpt>
      <trkpt lat="46.11205" lon="5.89174">
        <ele>360.23</ele>
        <time>2015-05-22T08:45:56Z</time>
      </trkpt>
      <trkpt lat="46.11135" lon="5.89158">
        <ele>356.63</ele>
        <time>2015-05-22T08:46:05Z</time>
      </trkpt>
      <trkpt lat="46.11054" lon="5.89135">
        <ele>354.05</ele>
        <time>2015-05-22T08:46:14Z</time>
      </trkpt>
      <trkpt lat="46.11017" lon="5.89118">
        <ele>353.33</ele>
        <time>2015-05-22T08:46:19Z</time>
      </trkpt>
      <trkpt lat="46.1101" lon="5.89113">
        <ele>352.73</ele>
        <time>2015-05-22T08:46:20Z</time>
      </trkpt>
      <trkpt lat="46.1097" lon="5.89097">
        <ele>349.72</ele>
        <time>2015-05-22T08:46:25Z</time>
      </trkpt>
      <trkpt lat="46.1093" lon="5.89084">
        <ele>346.15</ele>
        <time>2015-05-22T08:46:30Z</time>
      </trkpt>
      <trkpt lat="46.10902" lon="5.89072">
        <ele>343.11</ele>
        <time>2015-05-22T08:46:33Z</time>
      </trkpt>
      <trkpt lat="46.10851" lon="5.89044">
        <ele>340.01</ele>
        <time>2015-05-22T08:46:38Z</time>
      </trkpt>
      <trkpt lat="46.10776" lon="5.89023">
        <ele>339.66</ele>
        <time>2015-05-22T08:46:45Z</time>
      </trkpt>
      <trkpt lat="46.10714" lon="5.89023">
        <ele>340.28</ele>
        <time>2015-05-22T08:46:51Z</time>
      </trkpt>
      <trkpt lat="46.10705" lon="5.89028">
        <ele>340.31</ele>
        <time>2015-05-22T08:46:52Z</time>
      </trkpt>
      <trkpt lat="46.10696" lon="5.89035">
        <ele>340.25</ele>
        <time>2015-05-22T08:46:53Z</time>
      </trkpt>
      <trkpt lat="46.10687" lon="5.89043">
        <ele>340.14</ele>
        <time>2015-05-22T08:46:54Z</time>
      </trkpt>
      <trkpt lat="46.10679" lon="5.8905">
        <ele>340.02</ele>
        <time>2015-05-22T08:46:55Z</time>
      </trkpt>
      <trkpt lat="46.10636" lon="5.89092">
        <ele>339.04</ele>
        <time>2015-05-22T08:47:00Z</time>
      </trkpt>
      <trkpt lat="46.1056" lon="5.89182">
        <ele>339.27</ele>
        <time>2015-05-22T08:47:11Z</time>
      </trkpt>
      <trkpt lat="46.10528" lon="5.89219">
        <ele>342.53</ele>
        <time>2015-05-22T08:47:17Z</time>
      </trkpt>
      <trkpt lat="46.10489" lon="5.89264">
        <ele>345.67</ele>
        <time>2015-05-22T08:47:26Z</time>
      </trkpt>
      <trkpt lat="46.10444" lon="5.89312">
        <ele>348.93</ele>
        <time>2015-05-22T08:47:37Z</time>
      </trkpt>
      <trkpt lat="46.10441" lon="5.89317">
        <ele>349.2</ele>
        <time>2015-05-22T08:47:38Z</time>
      </trkpt>
      <trkpt lat="46.10424" lon="5.89336">
        <ele>350.61</ele>
        <time>2015-05-22T08:47:43Z</time>
      </trkpt>
      <trkpt lat="46.10421" lon="5.8934">
        <ele>350.83</ele>
        <time>2015-05-22T08:47:44Z</time>
      </trkpt>
      <trkpt lat="46.10392" lon="5.89379">
        <ele>352.96</ele>
        <time>2015-05-22T08:47:53Z</time>
      </trkpt>
      <trkpt lat="46.10375" lon="5.89405">
        <ele>353.52</ele>
        <time>2015-05-22T08:47:58Z</time>
      </trkpt>
      <trkpt lat="46.10334" lon="5.89443">
        <ele>355.33</ele>
        <time>2015-05-22T08:48:10Z</time>
      </trkpt>
      <trkpt lat="46.10302" lon="5.89471">
        <ele>357.8</ele>
        <time>2015-05-22T08:48:21Z</time>
      </trkpt>
      <trkpt lat="46.10268" lon="5.89517">
        <ele>360.57</ele>
        <time>2015-05-22T08:48:32Z</time>
      </trkpt>
      <trkpt lat="46.10255" lon="5.89538">
        <ele>362.56</ele>
        <time>2015-05-22T08:48:36Z</time>
      </trkpt>
      <trkpt lat="46.10252" lon="5.89542">
        <ele>362.63</ele>
        <time>2015-05-22T08:48:37Z</time>
      </trkpt>
      <trkpt lat="46.10248" lon="5.89546">
        <ele>362.66</ele>
        <time>2015-05-22T08:48:38Z</time>
      </trkpt>
      <trkpt lat="46.10244" lon="5.89549">
        <ele>362.7</ele>
        <time>2015-05-22T08:48:39Z</time>
      </trkpt>
      <trkpt lat="46.1024" lon="5.89553">
        <ele>362.72</ele>
        <time>2015-05-22T08:48:40Z</time>
      </trkpt>
      <trkpt lat="46.10235" lon="5.89556">
        <ele>362.76</ele>
        <time>2015-05-22T08:48:41Z</time>
      </trkpt>
      <trkpt lat="46.10195" lon="5.89581">
        <ele>365.94</ele>
        <time>2015-05-22T08:48:52Z</time>
      </trkpt>
      <trkpt lat="46.10158" lon="5.89607">
        <ele>367.49</ele>
        <time>2015-05-22T08:49:04Z</time>
      </trkpt>
      <trkpt lat="46.10123" lon="5.8964">
        <ele>369.71</ele>
        <time>2015-05-22T08:49:16Z</time>
      </trkpt>
      <trkpt lat="46.10077" lon="5.89672">
        <ele>370.94</ele>
        <time>2015-05-22T08:49:29Z</time>
      </trkpt>
      <trkpt lat="46.10034" lon="5.89696">
        <ele>372.04</ele>
        <time>2015-05-22T08:49:42Z</time>
      </trkpt>
      <trkpt lat="46.09992" lon="5.89724">
        <ele>374.03</ele>
        <time>2015-05-22T08:49:55Z</time>
      </trkpt>
      <trkpt lat="46.09946" lon="5.89749">
        <ele>375.9</ele>
        <time>2015-05-22T08:50:08Z</time>
      </trkpt>
      <trkpt lat="46.09907" lon="5.89781">
        <ele>377.49</ele>
        <time>2015-05-22T08:50:21Z</time>
      </trkpt>
      <trkpt lat="46.09866" lon="5.89806">
        <ele>378.48</ele>
        <time>2015-05-22T08:50:34Z</time>
      </trkpt>
      <trkpt lat="46.09826" lon="5.89812">
        <ele>381.67</ele>
        <time>2015-05-22T08:50:46Z</time>
      </trkpt>
      <trkpt lat="46.09798" lon="5.8981">
        <ele>383.09</ele>
        <time>2015-05-22T08:50:53Z</time>
      </trkpt>
      <trkpt lat="46.09757" lon="5.89819">
        <ele>385.31</ele>
        <time>2015-05-22T08:51:04Z</time>
      </trkpt>
      <trkpt lat="46.09726" lon="5.89834">
        <ele>388.49</ele>
        <time>2015-05-22T08:51:14Z</time>
      </trkpt>
      <trkpt lat="46.09692" lon="5.89846">
        <ele>390.48</ele>
        <time>2015-05-22T08:51:27Z</time>
      </trkpt>
      <trkpt lat="46.09664" lon="5.89853">
        <ele>393.1</ele>
        <time>2015-05-22T08:51:39Z</time>
      </trkpt>
      <trkpt lat="46.09629" lon="5.89855">
        <ele>393.52</ele>
        <time>2015-05-22T08:51:51Z</time>
      </trkpt>
      <trkpt lat="46.09594" lon="5.89855">
        <ele>395.19</ele>
        <time>2015-05-22T08:52:01Z</time>
      </trkpt>
      <trkpt lat="46.09563" lon="5.89852">
        <ele>396.35</ele>
        <time>2015-05-22T08:52:12Z</time>
      </trkpt>
      <trkpt lat="46.09531" lon="5.89848">
        <ele>399.27</ele>
        <time>2015-05-22T08:52:23Z</time>
      </trkpt>
      <trkpt lat="46.09494" lon="5.89846">
        <ele>400.33</ele>
        <time>2015-05-22T08:52:37Z</time>
      </trkpt>
      <trkpt lat="46.09454" lon="5.8984">
        <ele>401.86</ele>
        <time>2015-05-22T08:52:49Z</time>
      </trkpt>
      <trkpt lat="46.09422" lon="5.89851">
        <ele>404.84</ele>
        <time>2015-05-22T08:53:02Z</time>
      </trkpt>
      <trkpt lat="46.09386" lon="5.89877">
        <ele>407.37</ele>
        <time>2015-05-22T08:53:13Z</time>
      </trkpt>
      <trkpt lat="46.09345" lon="5.89897">
        <ele>408.15</ele>
        <time>2015-05-22T08:53:24Z</time>
      </trkpt>
      <trkpt lat="46.09304" lon="5.89899">
        <ele>409.11</ele>
        <time>2015-05-22T08:53:35Z</time>
      </trkpt>
      <trkpt lat="46.09265" lon="5.89916">
        <ele>410.81</ele>
        <time>2015-05-22T08:53:46Z</time>
      </trkpt>
      <trkpt lat="46.09223" lon="5.89945">
        <ele>410.88</ele>
        <time>2015-05-22T08:53:59Z</time>
      </trkpt>
      <trkpt lat="46.09197" lon="5.89962">
        <ele>412.39</ele>
        <time>2015-05-22T08:54:08Z</time>
      </trkpt>
      <trkpt lat="46.09168" lon="5.89982">
        <ele>413.45</ele>
        <time>2015-05-22T08:54:18Z</time>
      </trkpt>
      <trkpt lat="46.09129" lon="5.90002">
        <ele>413.31</ele>
        <time>2015-05-22T08:54:29Z</time>
      </trkpt>
      <trkpt lat="46.09089" lon="5.90015">
        <ele>413.54</ele>
        <time>2015-05-22T08:54:40Z</time>
      </trkpt>
      <trkpt lat="46.09056" lon="5.90019">
        <ele>414.58</ele>
        <time>2015-05-22T08:54:49Z</time>
      </trkpt>
      <trkpt lat="46.09029" lon="5.90016">
        <ele>415.05</ele>
        <time>2015-05-22T08:54:55Z</time>
      </trkpt>
      <trkpt lat="46.08985" lon="5.90009">
        <ele>416.91</ele>
        <time>2015-05-22T08:55:05Z</time>
      </trkpt>
      <trkpt lat="46.08941" lon="5.90015">
        <ele>417.69</ele>
        <time>2015-05-22T08:55:16Z</time>
      </trkpt>
      <trkpt lat="46.08892" lon="5.90021">
        <ele>418.57</ele>
        <time>2015-05-22T08:55:28Z</time>
      </trkpt>
      <trkpt lat="46.08861" lon="5.90017">
        <ele>421.87</ele>
        <time>2015-05-22T08:55:36Z</time>
      </trkpt>
      <trkpt lat="46.0885" lon="5.90015">
        <ele>422.54</ele>
        <time>2015-05-22T08:55:38Z</time>
      </trkpt>
      <trkpt lat="46.0884" lon="5.90012">
        <ele>422.98</ele>
        <time>2015-05-22T08:55:40Z</time>
      </trkpt>
      <trkpt lat="46.08793" lon="5.89994">
        <ele>422.23</ele>
        <time>2015-05-22T08:55:51Z</time>
      </trkpt>
      <trkpt lat="46.08768" lon="5.89993">
        <ele>422.68</ele>
        <time>2015-05-22T08:55:57Z</time>
      </trkpt>
      <trkpt lat="46.08738" lon="5.89986">
        <ele>423.53</ele>
        <time>2015-05-22T08:56:04Z</time>
      </trkpt>
      <trkpt lat="46.08732" lon="5.89987">
        <ele>423.67</ele>
        <time>2015-05-22T08:56:05Z</time>
      </trkpt>
      <trkpt lat="46.08728" lon="5.89987">
        <ele>423.83</ele>
        <time>2015-05-22T08:56:06Z</time>
      </trkpt>
      <trkpt lat="46.08724" lon="5.89986">
        <ele>424.03</ele>
        <time>2015-05-22T08:56:07Z</time>
      </trkpt>
      <trkpt lat="46.08719" lon="5.89986">
        <ele>424.25</ele>
        <time>2015-05-22T08:56:08Z</time>
      </trkpt>
      <trkpt lat="46.08683" lon="5.89978">
        <ele>425.2</ele>
        <time>2015-05-22T08:56:16Z</time>
      </trkpt>
      <trkpt lat="46.08677" lon="5.89977">
        <ele>425.24</ele>
        <time>2015-05-22T08:56:17Z</time>
      </trkpt>
      <trkpt lat="46.08662" lon="5.89979">
        <ele>425.32</ele>
        <time>2015-05-22T08:56:20Z</time>
      </trkpt>
      <trkpt lat="46.08657" lon="5.8998">
        <ele>425.36</ele>
        <time>2015-05-22T08:56:21Z</time>
      </trkpt>
      <trkpt lat="46.08652" lon="5.89981">
        <ele>425.47</ele>
        <time>2015-05-22T08:56:22Z</time>
      </trkpt>
      <trkpt lat="46.08647" lon="5.89983">
        <ele>425.58</ele>
        <time>2015-05-22T08:56:23Z</time>
      </trkpt>
      <trkpt lat="46.08642" lon="5.89984">
        <ele>425.67</ele>
        <time>2015-05-22T08:56:24Z</time>
      </trkpt>
      <trkpt lat="46.08596" lon="5.89998">
        <ele>426.29</ele>
        <time>2015-05-22T08:56:35Z</time>
      </trkpt>
      <trkpt lat="46.08554" lon="5.90007">
        <ele>427.91</ele>
        <time>2015-05-22T08:56:45Z</time>
      </trkpt>
      <trkpt lat="46.08539" lon="5.9002">
        <ele>429.1</ele>
        <time>2015-05-22T08:56:49Z</time>
      </trkpt>
      <trkpt lat="46.08502" lon="5.90066">
        <ele>431.68</ele>
        <time>2015-05-22T08:57:01Z</time>
      </trkpt>
      <trkpt lat="46.08473" lon="5.90115">
        <ele>433.74</ele>
        <time>2015-05-22T08:57:13Z</time>
      </trkpt>
      <trkpt lat="46.08444" lon="5.90157">
        <ele>436.02</ele>
        <time>2015-05-22T08:57:25Z</time>
      </trkpt>
      <trkpt lat="46.08401" lon="5.9017">
        <ele>437.6</ele>
        <time>2015-05-22T08:57:38Z</time>
      </trkpt>
      <trkpt lat="46.0837" lon="5.90148">
        <ele>439.39</ele>
        <time>2015-05-22T08:57:51Z</time>
      </trkpt>
      <trkpt lat="46.08346" lon="5.90135">
        <ele>440.67</ele>
        <time>2015-05-22T08:58:01Z</time>
      </trkpt>
      <trkpt lat="46.08314" lon="5.9011">
        <ele>442.19</ele>
        <time>2015-05-22T08:58:14Z</time>
      </trkpt>
      <trkpt lat="46.08278" lon="5.90087">
        <ele>444.15</ele>
        <time>2015-05-22T08:58:27Z</time>
      </trkpt>
      <trkpt lat="46.08236" lon="5.90082">
        <ele>446.59</ele>
        <time>2015-05-22T08:58:42Z</time>
      </trkpt>
      <trkpt lat="46.08205" lon="5.90078">
        <ele>448.29</ele>
        <time>2015-05-22T08:58:53Z</time>
      </trkpt>
      <trkpt lat="46.08175" lon="5.90082">
        <ele>450.46</ele>
        <time>2015-05-22T08:59:04Z</time>
      </trkpt>
      <trkpt lat="46.08149" lon="5.90113">
        <ele>452</ele>
        <time>2015-05-22T08:59:16Z</time>
      </trkpt>
      <trkpt lat="46.08128" lon="5.90168">
        <ele>454</ele>
        <time>2015-05-22T08:59:31Z</time>
      </trkpt>
      <trkpt lat="46.08097" lon="5.90185">
        <ele>455.43</ele>
        <time>2015-05-22T08:59:43Z</time>
      </trkpt>
      <trkpt lat="46.08056" lon="5.90172">
        <ele>457.3</ele>
        <time>2015-05-22T08:59:56Z</time>
      </trkpt>
      <trkpt lat="46.08024" lon="5.90159">
        <ele>458.65</ele>
        <time>2015-05-22T09:00:07Z</time>
      </trkpt>
      <trkpt lat="46.0798" lon="5.90146">
        <ele>460.86</ele>
        <time>2015-05-22T09:00:20Z</time>
      </trkpt>
      <trkpt lat="46.07946" lon="5.90148">
        <ele>462.41</ele>
        <time>2015-05-22T09:00:31Z</time>
      </trkpt>
      <trkpt lat="46.07911" lon="5.90153">
        <ele>464.51</ele>
        <time>2015-05-22T09:00:43Z</time>
      </trkpt>
      <trkpt lat="46.07878" lon="5.90158">
        <ele>466.04</ele>
        <time>2015-05-22T09:00:54Z</time>
      </trkpt>
      <trkpt lat="46.07845" lon="5.90163">
        <ele>468.17</ele>
        <time>2015-05-22T09:01:05Z</time>
      </trkpt>
      <trkpt lat="46.078" lon="5.90166">
        <ele>470.36</ele>
        <time>2015-05-22T09:01:19Z</time>
      </trkpt>
      <trkpt lat="46.07751" lon="5.90167">
        <ele>473.43</ele>
        <time>2015-05-22T09:01:36Z</time>
      </trkpt>
      <trkpt lat="46.07713" lon="5.90152">
        <ele>475.8</ele>
        <time>2015-05-22T09:01:50Z</time>
      </trkpt>
      <trkpt lat="46.07678" lon="5.90131">
        <ele>477.47</ele>
        <time>2015-05-22T09:02:04Z</time>
      </trkpt>
      <trkpt lat="46.07642" lon="5.90111">
        <ele>478.82</ele>
        <time>2015-05-22T09:02:17Z</time>
      </trkpt>
      <trkpt lat="46.07605" lon="5.90093">
        <ele>481.3</ele>
        <time>2015-05-22T09:02:32Z</time>
      </trkpt>
      <trkpt lat="46.07572" lon="5.90087">
        <ele>483.88</ele>
        <time>2015-05-22T09:02:45Z</time>
      </trkpt>
      <trkpt lat="46.07527" lon="5.90083">
        <ele>484.35</ele>
        <time>2015-05-22T09:02:58Z</time>
      </trkpt>
      <trkpt lat="46.07465" lon="5.90083">
        <ele>484.77</ele>
        <time>2015-05-22T09:03:14Z</time>
      </trkpt>
      <trkpt lat="46.07426" lon="5.90076">
        <ele>484.52</ele>
        <time>2015-05-22T09:03:22Z</time>
      </trkpt>
      <trkpt lat="46.07422" lon="5.90072">
        <ele>484.36</ele>
        <time>2015-05-22T09:03:23Z</time>
      </trkpt>
      <trkpt lat="46.07406" lon="5.9006">
        <ele>483.87</ele>
        <time>2015-05-22T09:03:26Z</time>
      </trkpt>
      <trkpt lat="46.07355" lon="5.90013">
        <ele>480.7</ele>
        <time>2015-05-22T09:03:35Z</time>
      </trkpt>
      <trkpt lat="46.07335" lon="5.89994">
        <ele>479.95</ele>
        <time>2015-05-22T09:03:38Z</time>
      </trkpt>
      <trkpt lat="46.07322" lon="5.89977">
        <ele>479.73</ele>
        <time>2015-05-22T09:03:40Z</time>
      </trkpt>
      <trkpt lat="46.07317" lon="5.89968">
        <ele>479.63</ele>
        <time>2015-05-22T09:03:41Z</time>
      </trkpt>
      <trkpt lat="46.07296" lon="5.89928">
        <ele>479.01</ele>
        <time>2015-05-22T09:03:45Z</time>
      </trkpt>
      <trkpt lat="46.07249" lon="5.8984">
        <ele>475.82</ele>
        <time>2015-05-22T09:03:53Z</time>
      </trkpt>
      <trkpt lat="46.0724" lon="5.8983">
        <ele>475.25</ele>
        <time>2015-05-22T09:03:54Z</time>
      </trkpt>
      <trkpt lat="46.0723" lon="5.89819">
        <ele>474.76</ele>
        <time>2015-05-22T09:03:55Z</time>
      </trkpt>
      <trkpt lat="46.07211" lon="5.89799">
        <ele>473.72</ele>
        <time>2015-05-22T09:03:57Z</time>
      </trkpt>
      <trkpt lat="46.07149" lon="5.89735">
        <ele>470.5</ele>
        <time>2015-05-22T09:04:04Z</time>
      </trkpt>
      <trkpt lat="46.07103" lon="5.89692">
        <ele>466.96</ele>
        <time>2015-05-22T09:04:09Z</time>
      </trkpt>
      <trkpt lat="46.07092" lon="5.89686">
        <ele>466.13</ele>
        <time>2015-05-22T09:04:10Z</time>
      </trkpt>
      <trkpt lat="46.07081" lon="5.89682">
        <ele>465.37</ele>
        <time>2015-05-22T09:04:11Z</time>
      </trkpt>
      <trkpt lat="46.0707" lon="5.89681">
        <ele>464.7</ele>
        <time>2015-05-22T09:04:12Z</time>
      </trkpt>
      <trkpt lat="46.07059" lon="5.89683">
        <ele>464.14</ele>
        <time>2015-05-22T09:04:13Z</time>
      </trkpt>
      <trkpt lat="46.07049" lon="5.89687">
        <ele>463.67</ele>
        <time>2015-05-22T09:04:14Z</time>
      </trkpt>
      <trkpt lat="46.07039" lon="5.89691">
        <ele>463.29</ele>
        <time>2015-05-22T09:04:15Z</time>
      </trkpt>
      <trkpt lat="46.06981" lon="5.89716">
        <ele>459.6</ele>
        <time>2015-05-22T09:04:21Z</time>
      </trkpt>
      <trkpt lat="46.06971" lon="5.89719">
        <ele>459.03</ele>
        <time>2015-05-22T09:04:22Z</time>
      </trkpt>
      <trkpt lat="46.06899" lon="5.89729">
        <ele>455.86</ele>
        <time>2015-05-22T09:04:29Z</time>
      </trkpt>
      <trkpt lat="46.06847" lon="5.89733">
        <ele>452.6</ele>
        <time>2015-05-22T09:04:34Z</time>
      </trkpt>
      <trkpt lat="46.06783" lon="5.89742">
        <ele>449.45</ele>
        <time>2015-05-22T09:04:40Z</time>
      </trkpt>
      <trkpt lat="46.06772" lon="5.89746">
        <ele>449.1</ele>
        <time>2015-05-22T09:04:41Z</time>
      </trkpt>
      <trkpt lat="46.06762" lon="5.89752">
        <ele>448.71</ele>
        <time>2015-05-22T09:04:42Z</time>
      </trkpt>
      <trkpt lat="46.06724" lon="5.89775">
        <ele>446.85</ele>
        <time>2015-05-22T09:04:46Z</time>
      </trkpt>
      <trkpt lat="46.06704" lon="5.89783">
        <ele>445.21</ele>
        <time>2015-05-22T09:04:48Z</time>
      </trkpt>
      <trkpt lat="46.06694" lon="5.89785">
        <ele>444.57</ele>
        <time>2015-05-22T09:04:49Z</time>
      </trkpt>
      <trkpt lat="46.06684" lon="5.89784">
        <ele>443.98</ele>
        <time>2015-05-22T09:04:50Z</time>
      </trkpt>
      <trkpt lat="46.06632" lon="5.89775">
        <ele>440.88</ele>
        <time>2015-05-22T09:04:55Z</time>
      </trkpt>
      <trkpt lat="46.06579" lon="5.89764">
        <ele>437.6</ele>
        <time>2015-05-22T09:05:00Z</time>
      </trkpt>
      <trkpt lat="46.06548" lon="5.89757">
        <ele>435.95</ele>
        <time>2015-05-22T09:05:03Z</time>
      </trkpt>
      <trkpt lat="46.06539" lon="5.89751">
        <ele>435.42</ele>
        <time>2015-05-22T09:05:04Z</time>
      </trkpt>
      <trkpt lat="46.06531" lon="5.89743">
        <ele>434.85</ele>
        <time>2015-05-22T09:05:05Z</time>
      </trkpt>
      <trkpt lat="46.06524" lon="5.89733">
        <ele>434.31</ele>
        <time>2015-05-22T09:05:06Z</time>
      </trkpt>
      <trkpt lat="46.06517" lon="5.89723">
        <ele>433.8</ele>
        <time>2015-05-22T09:05:07Z</time>
      </trkpt>
      <trkpt lat="46.06495" lon="5.89692">
        <ele>432.08</ele>
        <time>2015-05-22T09:05:10Z</time>
      </trkpt>
      <trkpt lat="46.06467" lon="5.89648">
        <ele>429</ele>
        <time>2015-05-22T09:05:14Z</time>
      </trkpt>
      <trkpt lat="46.06445" lon="5.896">
        <ele>426.9</ele>
        <time>2015-05-22T09:05:18Z</time>
      </trkpt>
      <trkpt lat="46.06441" lon="5.89586">
        <ele>426.23</ele>
        <time>2015-05-22T09:05:19Z</time>
      </trkpt>
      <trkpt lat="46.06426" lon="5.89522">
        <ele>422.84</ele>
        <time>2015-05-22T09:05:26Z</time>
      </trkpt>
      <trkpt lat="46.0642" lon="5.89503">
        <ele>421.51</ele>
        <time>2015-05-22T09:05:30Z</time>
      </trkpt>
      <trkpt lat="46.06407" lon="5.8944">
        <ele>418.21</ele>
        <time>2015-05-22T09:05:38Z</time>
      </trkpt>
      <trkpt lat="46.06379" lon="5.89325">
        <ele>415.43</ele>
        <time>2015-05-22T09:05:50Z</time>
      </trkpt>
      <trkpt lat="46.06348" lon="5.89201">
        <ele>412.74</ele>
        <time>2015-05-22T09:06:02Z</time>
      </trkpt>
      <trkpt lat="46.06344" lon="5.89184">
        <ele>412.63</ele>
        <time>2015-05-22T09:06:04Z</time>
      </trkpt>
      <trkpt lat="46.06344" lon="5.89175">
        <ele>412.62</ele>
        <time>2015-05-22T09:06:05Z</time>
      </trkpt>
      <trkpt lat="46.06342" lon="5.8916">
        <ele>412.67</ele>
        <time>2015-05-22T09:06:07Z</time>
      </trkpt>
      <trkpt lat="46.06338" lon="5.89147">
        <ele>412.78</ele>
        <time>2015-05-22T09:06:09Z</time>
      </trkpt>
      <trkpt lat="46.06333" lon="5.89135">
        <ele>412.96</ele>
        <time>2015-05-22T09:06:11Z</time>
      </trkpt>
      <trkpt lat="46.06329" lon="5.89122">
        <ele>413.2</ele>
        <time>2015-05-22T09:06:13Z</time>
      </trkpt>
      <trkpt lat="46.06326" lon="5.89109">
        <ele>413.45</ele>
        <time>2015-05-22T09:06:15Z</time>
      </trkpt>
      <trkpt lat="46.0632" lon="5.89091">
        <ele>414.02</ele>
        <time>2015-05-22T09:06:18Z</time>
      </trkpt>
      <trkpt lat="46.06308" lon="5.89044">
        <ele>415.82</ele>
        <time>2015-05-22T09:06:26Z</time>
      </trkpt>
      <trkpt lat="46.06286" lon="5.88963">
        <ele>418.38</ele>
        <time>2015-05-22T09:06:41Z</time>
      </trkpt>
      <trkpt lat="46.06267" lon="5.88862">
        <ele>421.3</ele>
        <time>2015-05-22T09:06:58Z</time>
      </trkpt>
      <trkpt lat="46.06263" lon="5.8875">
        <ele>424.35</ele>
        <time>2015-05-22T09:07:15Z</time>
      </trkpt>
      <trkpt lat="46.06258" lon="5.88641">
        <ele>424.61</ele>
        <time>2015-05-22T09:07:31Z</time>
      </trkpt>
      <trkpt lat="46.06257" lon="5.88559">
        <ele>423.89</ele>
        <time>2015-05-22T09:07:43Z</time>
      </trkpt>
      <trkpt lat="46.06256" lon="5.88524">
        <ele>423.98</ele>
        <time>2015-05-22T09:07:48Z</time>
      </trkpt>
      <trkpt lat="46.06252" lon="5.88409">
        <ele>424.12</ele>
        <time>2015-05-22T09:08:00Z</time>
      </trkpt>
      <trkpt lat="46.06246" lon="5.88268">
        <ele>423.85</ele>
        <time>2015-05-22T09:08:15Z</time>
      </trkpt>
      <trkpt lat="46.06241" lon="5.88184">
        <ele>425.1</ele>
        <time>2015-05-22T09:08:26Z</time>
      </trkpt>
      <trkpt lat="46.0624" lon="5.88178">
        <ele>425.51</ele>
        <time>2015-05-22T09:08:27Z</time>
      </trkpt>
      <trkpt lat="46.06238" lon="5.88119">
        <ele>428.12</ele>
        <time>2015-05-22T09:08:39Z</time>
      </trkpt>
      <trkpt lat="46.06235" lon="5.88046">
        <ele>430.84</ele>
        <time>2015-05-22T09:08:54Z</time>
      </trkpt>
      <trkpt lat="46.06231" lon="5.87973">
        <ele>433.69</ele>
        <time>2015-05-22T09:09:09Z</time>
      </trkpt>
      <trkpt lat="46.06229" lon="5.87935">
        <ele>434.48</ele>
        <time>2015-05-22T09:09:16Z</time>
      </trkpt>
      <trkpt lat="46.06228" lon="5.87929">
        <ele>434.57</ele>
        <time>2015-05-22T09:09:17Z</time>
      </trkpt>
      <trkpt lat="46.06218" lon="5.8783">
        <ele>436.57</ele>
        <time>2015-05-22T09:09:32Z</time>
      </trkpt>
      <trkpt lat="46.06209" lon="5.87722">
        <ele>438.1</ele>
        <time>2015-05-22T09:09:47Z</time>
      </trkpt>
      <trkpt lat="46.06202" lon="5.87622">
        <ele>439.25</ele>
        <time>2015-05-22T09:10:01Z</time>
      </trkpt>
      <trkpt lat="46.062" lon="5.87547">
        <ele>440.98</ele>
        <time>2015-05-22T09:10:15Z</time>
      </trkpt>
      <trkpt lat="46.06201" lon="5.87525">
        <ele>440.88</ele>
        <time>2015-05-22T09:10:19Z</time>
      </trkpt>
      <trkpt lat="46.06202" lon="5.87519">
        <ele>440.92</ele>
        <time>2015-05-22T09:10:20Z</time>
      </trkpt>
      <trkpt lat="46.06202" lon="5.87505">
        <ele>440.96</ele>
        <time>2015-05-22T09:10:22Z</time>
      </trkpt>
      <trkpt lat="46.06194" lon="5.87376">
        <ele>439.92</ele>
        <time>2015-05-22T09:10:37Z</time>
      </trkpt>
      <trkpt lat="46.06193" lon="5.87367">
        <ele>439.8</ele>
        <time>2015-05-22T09:10:38Z</time>
      </trkpt>
      <trkpt lat="46.06193" lon="5.87359">
        <ele>439.6</ele>
        <time>2015-05-22T09:10:39Z</time>
      </trkpt>
      <trkpt lat="46.06192" lon="5.87256">
        <ele>438.63</ele>
        <time>2015-05-22T09:10:51Z</time>
      </trkpt>
      <trkpt lat="46.06184" lon="5.87134">
        <ele>436.94</ele>
        <time>2015-05-22T09:11:03Z</time>
      </trkpt>
      <trkpt lat="46.06177" lon="5.87017">
        <ele>436.31</ele>
        <time>2015-05-22T09:11:15Z</time>
      </trkpt>
      <trkpt lat="46.06174" lon="5.86949">
        <ele>435.23</ele>
        <time>2015-05-22T09:11:23Z</time>
      </trkpt>
      <trkpt lat="46.06171" lon="5.86898">
        <ele>434.11</ele>
        <time>2015-05-22T09:11:29Z</time>
      </trkpt>
      <trkpt lat="46.0617" lon="5.8689">
        <ele>434.07</ele>
        <time>2015-05-22T09:11:30Z</time>
      </trkpt>
      <trkpt lat="46.06168" lon="5.86824">
        <ele>433.56</ele>
        <time>2015-05-22T09:11:38Z</time>
      </trkpt>
      <trkpt lat="46.06158" lon="5.86716">
        <ele>431.76</ele>
        <time>2015-05-22T09:11:51Z</time>
      </trkpt>
      <trkpt lat="46.06151" lon="5.86629">
        <ele>431.05</ele>
        <time>2015-05-22T09:12:03Z</time>
      </trkpt>
      <trkpt lat="46.06152" lon="5.86577">
        <ele>431.32</ele>
        <time>2015-05-22T09:12:13Z</time>
      </trkpt>
      <trkpt lat="46.06154" lon="5.86575">
        <ele>431.24</ele>
        <time>2015-05-22T09:12:14Z</time>
      </trkpt>
      <trkpt lat="46.06156" lon="5.86573">
        <ele>431.18</ele>
        <time>2015-05-22T09:12:15Z</time>
      </trkpt>
      <trkpt lat="46.06157" lon="5.86572">
        <ele>431.18</ele>
        <time>2015-05-22T09:12:16Z</time>
      </trkpt>
      <trkpt lat="46.06158" lon="5.8657">
        <ele>431.19</ele>
        <time>2015-05-22T09:12:17Z</time>
      </trkpt>
      <trkpt lat="46.0616" lon="5.86567">
        <ele>431.21</ele>
        <time>2015-05-22T09:12:18Z</time>
      </trkpt>
      <trkpt lat="46.06161" lon="5.86563">
        <ele>431.24</ele>
        <time>2015-05-22T09:12:19Z</time>
      </trkpt>
      <trkpt lat="46.06161" lon="5.8656">
        <ele>431.26</ele>
        <time>2015-05-22T09:12:20Z</time>
      </trkpt>
      <trkpt lat="46.06164" lon="5.86553">
        <ele>431.26</ele>
        <time>2015-05-22T09:12:22Z</time>
      </trkpt>
      <trkpt lat="46.06166" lon="5.8655">
        <ele>431.26</ele>
        <time>2015-05-22T09:12:23Z</time>
      </trkpt>
      <trkpt lat="46.06168" lon="5.86548">
        <ele>431.27</ele>
        <time>2015-05-22T09:12:24Z</time>
      </trkpt>
      <trkpt lat="46.0617" lon="5.86545">
        <ele>431.3</ele>
        <time>2015-05-22T09:12:25Z</time>
      </trkpt>
      <trkpt lat="46.06172" lon="5.86542">
        <ele>431.32</ele>
        <time>2015-05-22T09:12:26Z</time>
      </trkpt>
      <trkpt lat="46.06178" lon="5.86538">
        <ele>431.37</ele>
        <time>2015-05-22T09:12:29Z</time>
      </trkpt>
      <trkpt lat="46.06179" lon="5.86539">
        <ele>431.39</ele>
        <time>2015-05-22T09:12:30Z</time>
      </trkpt>
      <trkpt lat="46.06182" lon="5.86545">
        <ele>431.49</ele>
        <time>2015-05-22T09:12:34Z</time>
      </trkpt>
      <trkpt lat="46.0619" lon="5.86539">
        <ele>431.64</ele>
        <time>2015-05-22T09:12:41Z</time>
      </trkpt>
      <trkpt lat="46.06194" lon="5.86538">
        <ele>431.46</ele>
        <time>2015-05-22T09:12:44Z</time>
      </trkpt>
      <trkpt lat="46.06197" lon="5.8654">
        <ele>431.84</ele>
        <time>2015-05-22T09:12:56Z</time>
      </trkpt>
      <trkpt lat="46.06196" lon="5.86543">
        <ele>430.71</ele>
        <time>2015-05-22T09:13:23Z</time>
      </trkpt>
      <trkpt lat="46.06195" lon="5.86542">
        <ele>431.62</ele>
        <time>2015-05-22T09:13:56Z</time>
      </trkpt>
      <trkpt lat="46.06193" lon="5.86543">
        <ele>431.83</ele>
        <time>2015-05-22T09:14:30Z</time>
      </trkpt>
      <trkpt lat="46.06195" lon="5.86541">
        <ele>431.88</ele>
        <time>2015-05-22T09:15:01Z</time>
      </trkpt>
      <trkpt lat="46.06196" lon="5.8654">
        <ele>432.41</ele>
        <time>2015-05-22T09:15:33Z</time>
      </trkpt>
      <trkpt lat="46.06195" lon="5.86543">
        <ele>431.6</ele>
        <time>2015-05-22T09:16:06Z</time>
      </trkpt>
      <trkpt lat="46.06196" lon="5.86542">
        <ele>432.53</ele>
        <time>2015-05-22T09:16:41Z</time>
      </trkpt>
      <trkpt lat="46.06193" lon="5.86543">
        <ele>433.09</ele>
        <time>2015-05-22T09:17:36Z</time>
      </trkpt>
      <trkpt lat="46.06198" lon="5.86538">
        <ele>432.61</ele>
        <time>2015-05-22T09:18:20Z</time>
      </trkpt>
      <trkpt lat="46.06198" lon="5.86538">
        <ele>433.05</ele>
        <time>2015-05-22T09:18:52Z</time>
      </trkpt>
      <trkpt lat="46.06195" lon="5.86545">
        <ele>434.92</ele>
        <time>2015-05-22T09:19:25Z</time>
      </trkpt>
      <trkpt lat="46.06198" lon="5.86544">
        <ele>434.09</ele>
        <time>2015-05-22T09:19:59Z</time>
      </trkpt>
      <trkpt lat="46.06199" lon="5.86543">
        <ele>432.26</ele>
        <time>2015-05-22T09:20:34Z</time>
      </trkpt>
      <trkpt lat="46.06196" lon="5.86543">
        <ele>431.32</ele>
        <time>2015-05-22T09:21:04Z</time>
      </trkpt>
      <trkpt lat="46.06195" lon="5.86546">
        <ele>431.12</ele>
        <time>2015-05-22T09:21:36Z</time>
      </trkpt>
      <trkpt lat="46.06196" lon="5.86552">
        <ele>431.05</ele>
        <time>2015-05-22T09:22:09Z</time>
      </trkpt>
      <trkpt lat="46.06195" lon="5.86554">
        <ele>432.39</ele>
        <time>2015-05-22T09:22:45Z</time>
      </trkpt>
      <trkpt lat="46.06194" lon="5.8655">
        <ele>431.09</ele>
        <time>2015-05-22T09:23:10Z</time>
      </trkpt>
      <trkpt lat="46.06204" lon="5.86536">
        <ele>542.03</ele>
        <time>2015-05-22T09:34:56Z</time>
      </trkpt>
      <trkpt lat="46.06203" lon="5.86538">
        <ele>542.03</ele>
        <time>2015-05-22T09:34:57Z</time>
      </trkpt>
      <trkpt lat="46.06188" lon="5.86553">
        <ele>542.42</ele>
        <time>2015-05-22T09:35:22Z</time>
      </trkpt>
      <trkpt lat="46.06191" lon="5.86545">
        <ele>542.92</ele>
        <time>2015-05-22T09:35:57Z</time>
      </trkpt>
      <trkpt lat="46.0619" lon="5.86542">
        <ele>543.12</ele>
        <time>2015-05-22T09:36:11Z</time>
      </trkpt>
      <trkpt lat="46.06178" lon="5.86549">
        <ele>543.74</ele>
        <time>2015-05-22T09:36:17Z</time>
      </trkpt>
      <trkpt lat="46.06174" lon="5.86542">
        <ele>544.14</ele>
        <time>2015-05-22T09:36:20Z</time>
      </trkpt>
      <trkpt lat="46.06171" lon="5.86541">
        <ele>544.28</ele>
        <time>2015-05-22T09:36:22Z</time>
      </trkpt>
      <trkpt lat="46.06168" lon="5.86543">
        <ele>544.37</ele>
        <time>2015-05-22T09:36:23Z</time>
      </trkpt>
      <trkpt lat="46.06165" lon="5.86545">
        <ele>544.46</ele>
        <time>2015-05-22T09:36:24Z</time>
      </trkpt>
      <trkpt lat="46.06163" lon="5.86549">
        <ele>544.53</ele>
        <time>2015-05-22T09:36:25Z</time>
      </trkpt>
      <trkpt lat="46.06151" lon="5.86577">
        <ele>544.73</ele>
        <time>2015-05-22T09:36:32Z</time>
      </trkpt>
      <trkpt lat="46.06149" lon="5.86578">
        <ele>544.84</ele>
        <time>2015-05-22T09:36:33Z</time>
      </trkpt>
      <trkpt lat="46.06148" lon="5.86577">
        <ele>544.88</ele>
        <time>2015-05-22T09:36:34Z</time>
      </trkpt>
      <trkpt lat="46.06146" lon="5.86574">
        <ele>544.92</ele>
        <time>2015-05-22T09:36:35Z</time>
      </trkpt>
      <trkpt lat="46.06147" lon="5.86569">
        <ele>544.94</ele>
        <time>2015-05-22T09:36:36Z</time>
      </trkpt>
      <trkpt lat="46.06148" lon="5.86565">
        <ele>544.98</ele>
        <time>2015-05-22T09:36:37Z</time>
      </trkpt>
      <trkpt lat="46.06149" lon="5.86529">
        <ele>545.18</ele>
        <time>2015-05-22T09:36:43Z</time>
      </trkpt>
      <trkpt lat="46.06148" lon="5.86522">
        <ele>545.19</ele>
        <time>2015-05-22T09:36:44Z</time>
      </trkpt>
      <trkpt lat="46.06146" lon="5.86516">
        <ele>545.12</ele>
        <time>2015-05-22T09:36:45Z</time>
      </trkpt>
      <trkpt lat="46.06144" lon="5.86509">
        <ele>545.12</ele>
        <time>2015-05-22T09:36:46Z</time>
      </trkpt>
      <trkpt lat="46.06141" lon="5.86503">
        <ele>545.08</ele>
        <time>2015-05-22T09:36:47Z</time>
      </trkpt>
      <trkpt lat="46.06136" lon="5.86489">
        <ele>544.95</ele>
        <time>2015-05-22T09:36:49Z</time>
      </trkpt>
      <trkpt lat="46.06135" lon="5.86481">
        <ele>544.84</ele>
        <time>2015-05-22T09:36:50Z</time>
      </trkpt>
      <trkpt lat="46.06134" lon="5.86473">
        <ele>544.72</ele>
        <time>2015-05-22T09:36:51Z</time>
      </trkpt>
      <trkpt lat="46.06129" lon="5.86358">
        <ele>543.36</ele>
        <time>2015-05-22T09:37:04Z</time>
      </trkpt>
      <trkpt lat="46.06127" lon="5.86311">
        <ele>543.27</ele>
        <time>2015-05-22T09:37:09Z</time>
      </trkpt>
      <trkpt lat="46.06127" lon="5.86301">
        <ele>543.16</ele>
        <time>2015-05-22T09:37:10Z</time>
      </trkpt>
      <trkpt lat="46.06126" lon="5.86291">
        <ele>542.99</ele>
        <time>2015-05-22T09:37:11Z</time>
      </trkpt>
      <trkpt lat="46.06126" lon="5.86282">
        <ele>542.75</ele>
        <time>2015-05-22T09:37:12Z</time>
      </trkpt>
      <trkpt lat="46.06125" lon="5.86272">
        <ele>542.5</ele>
        <time>2015-05-22T09:37:13Z</time>
      </trkpt>
      <trkpt lat="46.06123" lon="5.86233">
        <ele>541.69</ele>
        <time>2015-05-22T09:37:17Z</time>
      </trkpt>
      <trkpt lat="46.06123" lon="5.86192">
        <ele>540.92</ele>
        <time>2015-05-22T09:37:21Z</time>
      </trkpt>
      <trkpt lat="46.06123" lon="5.86181">
        <ele>540.92</ele>
        <time>2015-05-22T09:37:22Z</time>
      </trkpt>
      <trkpt lat="46.06117" lon="5.86019">
        <ele>539.72</ele>
        <time>2015-05-22T09:37:37Z</time>
      </trkpt>
      <trkpt lat="46.06116" lon="5.85887">
        <ele>537.48</ele>
        <time>2015-05-22T09:37:50Z</time>
      </trkpt>
      <trkpt lat="46.06115" lon="5.85866">
        <ele>537.17</ele>
        <time>2015-05-22T09:37:52Z</time>
      </trkpt>
      <trkpt lat="46.06101" lon="5.85729">
        <ele>535.11</ele>
        <time>2015-05-22T09:38:05Z</time>
      </trkpt>
      <trkpt lat="46.06094" lon="5.85696">
        <ele>534.73</ele>
        <time>2015-05-22T09:38:08Z</time>
      </trkpt>
      <trkpt lat="46.06091" lon="5.85686">
        <ele>534.59</ele>
        <time>2015-05-22T09:38:09Z</time>
      </trkpt>
      <trkpt lat="46.06087" lon="5.85675">
        <ele>534.42</ele>
        <time>2015-05-22T09:38:10Z</time>
      </trkpt>
      <trkpt lat="46.06082" lon="5.85666">
        <ele>534.23</ele>
        <time>2015-05-22T09:38:11Z</time>
      </trkpt>
      <trkpt lat="46.06077" lon="5.85657">
        <ele>534.05</ele>
        <time>2015-05-22T09:38:12Z</time>
      </trkpt>
      <trkpt lat="46.06071" lon="5.85648">
        <ele>533.79</ele>
        <time>2015-05-22T09:38:13Z</time>
      </trkpt>
      <trkpt lat="46.06065" lon="5.85641">
        <ele>533.68</ele>
        <time>2015-05-22T09:38:14Z</time>
      </trkpt>
      <trkpt lat="46.06058" lon="5.85634">
        <ele>533.61</ele>
        <time>2015-05-22T09:38:15Z</time>
      </trkpt>
      <trkpt lat="46.06052" lon="5.85628">
        <ele>533.56</ele>
        <time>2015-05-22T09:38:16Z</time>
      </trkpt>
      <trkpt lat="46.06045" lon="5.85623">
        <ele>533.55</ele>
        <time>2015-05-22T09:38:17Z</time>
      </trkpt>
      <trkpt lat="46.06037" lon="5.85619">
        <ele>533.55</ele>
        <time>2015-05-22T09:38:18Z</time>
      </trkpt>
      <trkpt lat="46.06029" lon="5.85616">
        <ele>533.58</ele>
        <time>2015-05-22T09:38:19Z</time>
      </trkpt>
      <trkpt lat="46.05947" lon="5.85596">
        <ele>535.19</ele>
        <time>2015-05-22T09:38:31Z</time>
      </trkpt>
      <trkpt lat="46.05924" lon="5.8559">
        <ele>535.66</ele>
        <time>2015-05-22T09:38:35Z</time>
      </trkpt>
      <trkpt lat="46.05844" lon="5.85564">
        <ele>536.55</ele>
        <time>2015-05-22T09:38:49Z</time>
      </trkpt>
      <trkpt lat="46.05785" lon="5.85545">
        <ele>537.64</ele>
        <time>2015-05-22T09:39:01Z</time>
      </trkpt>
      <trkpt lat="46.05726" lon="5.85529">
        <ele>539.38</ele>
        <time>2015-05-22T09:39:14Z</time>
      </trkpt>
      <trkpt lat="46.05681" lon="5.85545">
        <ele>541.93</ele>
        <time>2015-05-22T09:39:25Z</time>
      </trkpt>
      <trkpt lat="46.05632" lon="5.85591">
        <ele>543.11</ele>
        <time>2015-05-22T09:39:37Z</time>
      </trkpt>
      <trkpt lat="46.05622" lon="5.85603">
        <ele>543.32</ele>
        <time>2015-05-22T09:39:40Z</time>
      </trkpt>
      <trkpt lat="46.05618" lon="5.85606">
        <ele>543.44</ele>
        <time>2015-05-22T09:39:41Z</time>
      </trkpt>
      <trkpt lat="46.05562" lon="5.85665">
        <ele>546.14</ele>
        <time>2015-05-22T09:39:58Z</time>
      </trkpt>
      <trkpt lat="46.05559" lon="5.85667">
        <ele>546.26</ele>
        <time>2015-05-22T09:39:59Z</time>
      </trkpt>
      <trkpt lat="46.05504" lon="5.85678">
        <ele>548.87</ele>
        <time>2015-05-22T09:40:12Z</time>
      </trkpt>
      <trkpt lat="46.05483" lon="5.85671">
        <ele>549.7</ele>
        <time>2015-05-22T09:40:17Z</time>
      </trkpt>
      <trkpt lat="46.05478" lon="5.85669">
        <ele>549.79</ele>
        <time>2015-05-22T09:40:18Z</time>
      </trkpt>
      <trkpt lat="46.05391" lon="5.85633">
        <ele>549.76</ele>
        <time>2015-05-22T09:40:34Z</time>
      </trkpt>
      <trkpt lat="46.05286" lon="5.85589">
        <ele>546.62</ele>
        <time>2015-05-22T09:40:49Z</time>
      </trkpt>
      <trkpt lat="46.05188" lon="5.85551">
        <ele>545.35</ele>
        <time>2015-05-22T09:41:02Z</time>
      </trkpt>
      <trkpt lat="46.05119" lon="5.85525">
        <ele>546.02</ele>
        <time>2015-05-22T09:41:14Z</time>
      </trkpt>
      <trkpt lat="46.05093" lon="5.85516">
        <ele>546.44</ele>
        <time>2015-05-22T09:41:19Z</time>
      </trkpt>
      <trkpt lat="46.05074" lon="5.85506">
        <ele>546.81</ele>
        <time>2015-05-22T09:41:23Z</time>
      </trkpt>
      <trkpt lat="46.0505" lon="5.85496">
        <ele>547.66</ele>
        <time>2015-05-22T09:41:28Z</time>
      </trkpt>
      <trkpt lat="46.05046" lon="5.85492">
        <ele>547.88</ele>
        <time>2015-05-22T09:41:29Z</time>
      </trkpt>
      <trkpt lat="46.05041" lon="5.85488">
        <ele>548.27</ele>
        <time>2015-05-22T09:41:30Z</time>
      </trkpt>
      <trkpt lat="46.05037" lon="5.85485">
        <ele>548.44</ele>
        <time>2015-05-22T09:41:31Z</time>
      </trkpt>
      <trkpt lat="46.05032" lon="5.8548">
        <ele>548.61</ele>
        <time>2015-05-22T09:41:32Z</time>
      </trkpt>
      <trkpt lat="46.04945" lon="5.85408">
        <ele>550.52</ele>
        <time>2015-05-22T09:41:50Z</time>
      </trkpt>
      <trkpt lat="46.0488" lon="5.85352">
        <ele>550.63</ele>
        <time>2015-05-22T09:42:01Z</time>
      </trkpt>
      <trkpt lat="46.048" lon="5.85286">
        <ele>550.29</ele>
        <time>2015-05-22T09:42:13Z</time>
      </trkpt>
      <trkpt lat="46.04775" lon="5.85271">
        <ele>550.36</ele>
        <time>2015-05-22T09:42:17Z</time>
      </trkpt>
      <trkpt lat="46.04769" lon="5.85269">
        <ele>550.38</ele>
        <time>2015-05-22T09:42:18Z</time>
      </trkpt>
      <trkpt lat="46.04709" lon="5.85258">
        <ele>551.95</ele>
        <time>2015-05-22T09:42:30Z</time>
      </trkpt>
      <trkpt lat="46.04637" lon="5.85236">
        <ele>553.81</ele>
        <time>2015-05-22T09:42:45Z</time>
      </trkpt>
      <trkpt lat="46.04575" lon="5.85163">
        <ele>553.36</ele>
        <time>2015-05-22T09:42:58Z</time>
      </trkpt>
      <trkpt lat="46.04495" lon="5.85064">
        <ele>552.33</ele>
        <time>2015-05-22T09:43:13Z</time>
      </trkpt>
      <trkpt lat="46.04468" lon="5.85031">
        <ele>552.83</ele>
        <time>2015-05-22T09:43:20Z</time>
      </trkpt>
      <trkpt lat="46.04421" lon="5.85">
        <ele>556.21</ele>
        <time>2015-05-22T09:43:32Z</time>
      </trkpt>
      <trkpt lat="46.0436" lon="5.84974">
        <ele>559.13</ele>
        <time>2015-05-22T09:43:47Z</time>
      </trkpt>
      <trkpt lat="46.04347" lon="5.84969">
        <ele>559.64</ele>
        <time>2015-05-22T09:43:50Z</time>
      </trkpt>
      <trkpt lat="46.04308" lon="5.84937">
        <ele>560.33</ele>
        <time>2015-05-22T09:43:59Z</time>
      </trkpt>
      <trkpt lat="46.04302" lon="5.84929">
        <ele>560.34</ele>
        <time>2015-05-22T09:44:01Z</time>
      </trkpt>
      <trkpt lat="46.04259" lon="5.84858">
        <ele>559.46</ele>
        <time>2015-05-22T09:44:11Z</time>
      </trkpt>
      <trkpt lat="46.04211" lon="5.84768">
        <ele>557.71</ele>
        <time>2015-05-22T09:44:22Z</time>
      </trkpt>
      <trkpt lat="46.04206" lon="5.84765">
        <ele>557.39</ele>
        <time>2015-05-22T09:44:23Z</time>
      </trkpt>
      <trkpt lat="46.04199" lon="5.84765">
        <ele>557.17</ele>
        <time>2015-05-22T09:44:24Z</time>
      </trkpt>
      <trkpt lat="46.04193" lon="5.84767">
        <ele>556.93</ele>
        <time>2015-05-22T09:44:25Z</time>
      </trkpt>
      <trkpt lat="46.04188" lon="5.8477">
        <ele>556.72</ele>
        <time>2015-05-22T09:44:26Z</time>
      </trkpt>
      <trkpt lat="46.04182" lon="5.84774">
        <ele>556.55</ele>
        <time>2015-05-22T09:44:27Z</time>
      </trkpt>
      <trkpt lat="46.0412" lon="5.84834">
        <ele>554.56</ele>
        <time>2015-05-22T09:44:39Z</time>
      </trkpt>
      <trkpt lat="46.04056" lon="5.84891">
        <ele>552.34</ele>
        <time>2015-05-22T09:44:49Z</time>
      </trkpt>
      <trkpt lat="46.0394" lon="5.84951">
        <ele>550.38</ele>
        <time>2015-05-22T09:45:02Z</time>
      </trkpt>
      <trkpt lat="46.03909" lon="5.84976">
        <ele>549.54</ele>
        <time>2015-05-22T09:45:07Z</time>
      </trkpt>
      <trkpt lat="46.03903" lon="5.84978">
        <ele>549.36</ele>
        <time>2015-05-22T09:45:08Z</time>
      </trkpt>
      <trkpt lat="46.03833" lon="5.85005">
        <ele>547.33</ele>
        <time>2015-05-22T09:45:20Z</time>
      </trkpt>
      <trkpt lat="46.03758" lon="5.85033">
        <ele>546.15</ele>
        <time>2015-05-22T09:45:32Z</time>
      </trkpt>
      <trkpt lat="46.03739" lon="5.8504">
        <ele>545.65</ele>
        <time>2015-05-22T09:45:35Z</time>
      </trkpt>
      <trkpt lat="46.03715" lon="5.85051">
        <ele>545.05</ele>
        <time>2015-05-22T09:45:39Z</time>
      </trkpt>
      <trkpt lat="46.03703" lon="5.85056">
        <ele>544.63</ele>
        <time>2015-05-22T09:45:41Z</time>
      </trkpt>
      <trkpt lat="46.03689" lon="5.8506">
        <ele>544.11</ele>
        <time>2015-05-22T09:45:43Z</time>
      </trkpt>
      <trkpt lat="46.0362" lon="5.85076">
        <ele>542.35</ele>
        <time>2015-05-22T09:45:53Z</time>
      </trkpt>
      <trkpt lat="46.03615" lon="5.85077">
        <ele>542.21</ele>
        <time>2015-05-22T09:45:54Z</time>
      </trkpt>
      <trkpt lat="46.036" lon="5.85081">
        <ele>541.65</ele>
        <time>2015-05-22T09:45:57Z</time>
      </trkpt>
      <trkpt lat="46.03595" lon="5.85081">
        <ele>541.42</ele>
        <time>2015-05-22T09:45:58Z</time>
      </trkpt>
      <trkpt lat="46.03518" lon="5.85088">
        <ele>539.57</ele>
        <time>2015-05-22T09:46:09Z</time>
      </trkpt>
      <trkpt lat="46.03416" lon="5.85093">
        <ele>538.67</ele>
        <time>2015-05-22T09:46:20Z</time>
      </trkpt>
      <trkpt lat="46.03239" lon="5.85085">
        <ele>535.95</ele>
        <time>2015-05-22T09:46:34Z</time>
      </trkpt>
      <trkpt lat="46.03134" lon="5.8507">
        <ele>532.88</ele>
        <time>2015-05-22T09:46:47Z</time>
      </trkpt>
      <trkpt lat="46.03046" lon="5.85053">
        <ele>531.45</ele>
        <time>2015-05-22T09:46:59Z</time>
      </trkpt>
      <trkpt lat="46.02964" lon="5.85023">
        <ele>531.05</ele>
        <time>2015-05-22T09:47:11Z</time>
      </trkpt>
      <trkpt lat="46.02866" lon="5.85023">
        <ele>531.21</ele>
        <time>2015-05-22T09:47:24Z</time>
      </trkpt>
      <trkpt lat="46.02764" lon="5.85017">
        <ele>529.19</ele>
        <time>2015-05-22T09:47:37Z</time>
      </trkpt>
      <trkpt lat="46.02694" lon="5.85005">
        <ele>528.27</ele>
        <time>2015-05-22T09:47:47Z</time>
      </trkpt>
      <trkpt lat="46.02622" lon="5.84998">
        <ele>528.92</ele>
        <time>2015-05-22T09:47:59Z</time>
      </trkpt>
      <trkpt lat="46.02583" lon="5.84998">
        <ele>529.36</ele>
        <time>2015-05-22T09:48:06Z</time>
      </trkpt>
      <trkpt lat="46.0254" lon="5.85005">
        <ele>529.77</ele>
        <time>2015-05-22T09:48:14Z</time>
      </trkpt>
      <trkpt lat="46.02535" lon="5.85007">
        <ele>529.78</ele>
        <time>2015-05-22T09:48:15Z</time>
      </trkpt>
      <trkpt lat="46.02462" lon="5.85037">
        <ele>530.35</ele>
        <time>2015-05-22T09:48:29Z</time>
      </trkpt>
      <trkpt lat="46.02454" lon="5.85041">
        <ele>530.39</ele>
        <time>2015-05-22T09:48:31Z</time>
      </trkpt>
      <trkpt lat="46.02449" lon="5.85042">
        <ele>530.41</ele>
        <time>2015-05-22T09:48:32Z</time>
      </trkpt>
      <trkpt lat="46.02445" lon="5.85042">
        <ele>530.44</ele>
        <time>2015-05-22T09:48:33Z</time>
      </trkpt>
      <trkpt lat="46.02441" lon="5.85042">
        <ele>530.48</ele>
        <time>2015-05-22T09:48:34Z</time>
      </trkpt>
      <trkpt lat="46.02436" lon="5.85041">
        <ele>530.53</ele>
        <time>2015-05-22T09:48:35Z</time>
      </trkpt>
      <trkpt lat="46.02432" lon="5.85041">
        <ele>530.58</ele>
        <time>2015-05-22T09:48:36Z</time>
      </trkpt>
      <trkpt lat="46.02427" lon="5.85039">
        <ele>530.65</ele>
        <time>2015-05-22T09:48:37Z</time>
      </trkpt>
      <trkpt lat="46.02422" lon="5.85037">
        <ele>530.72</ele>
        <time>2015-05-22T09:48:38Z</time>
      </trkpt>
      <trkpt lat="46.02418" lon="5.85035">
        <ele>530.8</ele>
        <time>2015-05-22T09:48:39Z</time>
      </trkpt>
      <trkpt lat="46.02413" lon="5.85032">
        <ele>530.88</ele>
        <time>2015-05-22T09:48:40Z</time>
      </trkpt>
      <trkpt lat="46.02409" lon="5.85028">
        <ele>530.97</ele>
        <time>2015-05-22T09:48:41Z</time>
      </trkpt>
      <trkpt lat="46.02355" lon="5.84972">
        <ele>531.09</ele>
        <time>2015-05-22T09:48:54Z</time>
      </trkpt>
      <trkpt lat="46.02321" lon="5.84938">
        <ele>531.33</ele>
        <time>2015-05-22T09:49:04Z</time>
      </trkpt>
      <trkpt lat="46.02317" lon="5.84938">
        <ele>531.72</ele>
        <time>2015-05-22T09:49:27Z</time>
      </trkpt>
      <trkpt lat="46.02317" lon="5.84935">
        <ele>531.43</ele>
        <time>2015-05-22T09:49:46Z</time>
      </trkpt>
      <trkpt lat="46.02316" lon="5.84934">
        <ele>531.42</ele>
        <time>2015-05-22T09:49:47Z</time>
      </trkpt>
      <trkpt lat="46.02315" lon="5.84933">
        <ele>531.42</ele>
        <time>2015-05-22T09:49:48Z</time>
      </trkpt>
      <trkpt lat="46.02314" lon="5.84931">
        <ele>531.44</ele>
        <time>2015-05-22T09:49:49Z</time>
      </trkpt>
      <trkpt lat="46.02312" lon="5.84929">
        <ele>531.49</ele>
        <time>2015-05-22T09:49:50Z</time>
      </trkpt>
      <trkpt lat="46.02294" lon="5.84906">
        <ele>531.98</ele>
        <time>2015-05-22T09:50:03Z</time>
      </trkpt>
      <trkpt lat="46.02293" lon="5.84906">
        <ele>532.41</ele>
        <time>2015-05-22T09:50:27Z</time>
      </trkpt>
      <trkpt lat="46.02287" lon="5.84898">
        <ele>532.4</ele>
        <time>2015-05-22T09:50:30Z</time>
      </trkpt>
      <trkpt lat="46.02284" lon="5.84895">
        <ele>532.39</ele>
        <time>2015-05-22T09:50:31Z</time>
      </trkpt>
      <trkpt lat="46.02273" lon="5.84881">
        <ele>532.78</ele>
        <time>2015-05-22T09:50:42Z</time>
      </trkpt>
      <trkpt lat="46.02271" lon="5.84879">
        <ele>532.78</ele>
        <time>2015-05-22T09:50:50Z</time>
      </trkpt>
      <trkpt lat="46.02265" lon="5.84872">
        <ele>532.8</ele>
        <time>2015-05-22T09:50:53Z</time>
      </trkpt>
      <trkpt lat="46.02218" lon="5.84817">
        <ele>532.64</ele>
        <time>2015-05-22T09:51:05Z</time>
      </trkpt>
      <trkpt lat="46.02156" lon="5.84751">
        <ele>531.21</ele>
        <time>2015-05-22T09:51:17Z</time>
      </trkpt>
      <trkpt lat="46.02114" lon="5.84717">
        <ele>530.07</ele>
        <time>2015-05-22T09:51:25Z</time>
      </trkpt>
      <trkpt lat="46.02042" lon="5.8469">
        <ele>528.29</ele>
        <time>2015-05-22T09:51:37Z</time>
      </trkpt>
      <trkpt lat="46.02024" lon="5.84686">
        <ele>525.99</ele>
        <time>2015-05-22T09:51:44Z</time>
      </trkpt>
      <trkpt lat="46.02015" lon="5.84683">
        <ele>525.18</ele>
        <time>2015-05-22T09:51:47Z</time>
      </trkpt>
      <trkpt lat="46.02013" lon="5.84683">
        <ele>525.01</ele>
        <time>2015-05-22T09:51:48Z</time>
      </trkpt>
      <trkpt lat="46.02011" lon="5.84683">
        <ele>524.84</ele>
        <time>2015-05-22T09:51:49Z</time>
      </trkpt>
      <trkpt lat="46.02013" lon="5.84682">
        <ele>524.03</ele>
        <time>2015-05-22T09:52:01Z</time>
      </trkpt>
      <trkpt lat="46.0201" lon="5.84681">
        <ele>523.64</ele>
        <time>2015-05-22T09:52:20Z</time>
      </trkpt>
      <trkpt lat="46.02008" lon="5.8468">
        <ele>523.63</ele>
        <time>2015-05-22T09:52:21Z</time>
      </trkpt>
      <trkpt lat="46.02006" lon="5.84678">
        <ele>523.62</ele>
        <time>2015-05-22T09:52:22Z</time>
      </trkpt>
      <trkpt lat="46.01999" lon="5.84675">
        <ele>523.5</ele>
        <time>2015-05-22T09:52:24Z</time>
      </trkpt>
      <trkpt lat="46.01933" lon="5.84651">
        <ele>520.69</ele>
        <time>2015-05-22T09:52:35Z</time>
      </trkpt>
      <trkpt lat="46.01926" lon="5.84646">
        <ele>520.21</ele>
        <time>2015-05-22T09:52:36Z</time>
      </trkpt>
      <trkpt lat="46.01896" lon="5.84619">
        <ele>517.13</ele>
        <time>2015-05-22T09:52:41Z</time>
      </trkpt>
      <trkpt lat="46.01869" lon="5.84599">
        <ele>514.53</ele>
        <time>2015-05-22T09:52:45Z</time>
      </trkpt>
      <trkpt lat="46.01862" lon="5.84597">
        <ele>513.83</ele>
        <time>2015-05-22T09:52:46Z</time>
      </trkpt>
      <trkpt lat="46.01855" lon="5.84595">
        <ele>513.14</ele>
        <time>2015-05-22T09:52:47Z</time>
      </trkpt>
      <trkpt lat="46.01847" lon="5.84594">
        <ele>512.46</ele>
        <time>2015-05-22T09:52:48Z</time>
      </trkpt>
      <trkpt lat="46.0184" lon="5.84595">
        <ele>511.77</ele>
        <time>2015-05-22T09:52:49Z</time>
      </trkpt>
      <trkpt lat="46.01831" lon="5.84597">
        <ele>511.1</ele>
        <time>2015-05-22T09:52:50Z</time>
      </trkpt>
      <trkpt lat="46.01823" lon="5.84599">
        <ele>510.46</ele>
        <time>2015-05-22T09:52:51Z</time>
      </trkpt>
      <trkpt lat="46.01816" lon="5.84602">
        <ele>509.85</ele>
        <time>2015-05-22T09:52:52Z</time>
      </trkpt>
      <trkpt lat="46.01809" lon="5.84606">
        <ele>509.29</ele>
        <time>2015-05-22T09:52:53Z</time>
      </trkpt>
      <trkpt lat="46.01797" lon="5.84612">
        <ele>508.34</ele>
        <time>2015-05-22T09:52:55Z</time>
      </trkpt>
      <trkpt lat="46.01791" lon="5.84613">
        <ele>507.95</ele>
        <time>2015-05-22T09:52:56Z</time>
      </trkpt>
      <trkpt lat="46.01784" lon="5.84613">
        <ele>507.14</ele>
        <time>2015-05-22T09:52:57Z</time>
      </trkpt>
      <trkpt lat="46.01776" lon="5.8461">
        <ele>507.14</ele>
        <time>2015-05-22T09:52:58Z</time>
      </trkpt>
      <trkpt lat="46.01769" lon="5.84606">
        <ele>506.17</ele>
        <time>2015-05-22T09:52:59Z</time>
      </trkpt>
      <trkpt lat="46.01762" lon="5.84601">
        <ele>505.65</ele>
        <time>2015-05-22T09:53:00Z</time>
      </trkpt>
      <trkpt lat="46.01755" lon="5.84596">
        <ele>505.2</ele>
        <time>2015-05-22T09:53:01Z</time>
      </trkpt>
      <trkpt lat="46.01703" lon="5.84544">
        <ele>501.73</ele>
        <time>2015-05-22T09:53:08Z</time>
      </trkpt>
      <trkpt lat="46.01666" lon="5.84508">
        <ele>500.06</ele>
        <time>2015-05-22T09:53:13Z</time>
      </trkpt>
      <trkpt lat="46.01648" lon="5.84497">
        <ele>499.57</ele>
        <time>2015-05-22T09:53:15Z</time>
      </trkpt>
      <trkpt lat="46.01639" lon="5.84494">
        <ele>499.31</ele>
        <time>2015-05-22T09:53:16Z</time>
      </trkpt>
      <trkpt lat="46.01576" lon="5.84477">
        <ele>496.52</ele>
        <time>2015-05-22T09:53:22Z</time>
      </trkpt>
      <trkpt lat="46.01543" lon="5.84468">
        <ele>493.42</ele>
        <time>2015-05-22T09:53:25Z</time>
      </trkpt>
      <trkpt lat="46.01485" lon="5.8446">
        <ele>489.85</ele>
        <time>2015-05-22T09:53:30Z</time>
      </trkpt>
      <trkpt lat="46.01428" lon="5.84454">
        <ele>486.35</ele>
        <time>2015-05-22T09:53:35Z</time>
      </trkpt>
      <trkpt lat="46.01365" lon="5.84443">
        <ele>482.82</ele>
        <time>2015-05-22T09:53:41Z</time>
      </trkpt>
      <trkpt lat="46.01279" lon="5.84437">
        <ele>479.61</ele>
        <time>2015-05-22T09:53:50Z</time>
      </trkpt>
      <trkpt lat="46.01221" lon="5.84432">
        <ele>477.92</ele>
        <time>2015-05-22T09:53:57Z</time>
      </trkpt>
      <trkpt lat="46.01214" lon="5.84428">
        <ele>477.69</ele>
        <time>2015-05-22T09:53:58Z</time>
      </trkpt>
      <trkpt lat="46.01149" lon="5.84399">
        <ele>474.12</ele>
        <time>2015-05-22T09:54:06Z</time>
      </trkpt>
      <trkpt lat="46.01127" lon="5.84385">
        <ele>470.9</ele>
        <time>2015-05-22T09:54:10Z</time>
      </trkpt>
      <trkpt lat="46.01116" lon="5.84376">
        <ele>466.84</ele>
        <time>2015-05-22T09:54:14Z</time>
      </trkpt>
      <trkpt lat="46.01113" lon="5.84373">
        <ele>463.6</ele>
        <time>2015-05-22T09:54:21Z</time>
      </trkpt>
      <trkpt lat="46.01111" lon="5.84375">
        <ele>462.69</ele>
        <time>2015-05-22T09:54:47Z</time>
      </trkpt>
      <trkpt lat="46.01109" lon="5.84373">
        <ele>462.65</ele>
        <time>2015-05-22T09:54:48Z</time>
      </trkpt>
      <trkpt lat="46.01106" lon="5.84371">
        <ele>462.58</ele>
        <time>2015-05-22T09:54:49Z</time>
      </trkpt>
      <trkpt lat="46.01102" lon="5.84368">
        <ele>462.52</ele>
        <time>2015-05-22T09:54:50Z</time>
      </trkpt>
      <trkpt lat="46.01099" lon="5.84364">
        <ele>462.45</ele>
        <time>2015-05-22T09:54:51Z</time>
      </trkpt>
      <trkpt lat="46.01096" lon="5.84359">
        <ele>462.4</ele>
        <time>2015-05-22T09:54:52Z</time>
      </trkpt>
      <trkpt lat="46.01086" lon="5.84342">
        <ele>462.06</ele>
        <time>2015-05-22T09:54:55Z</time>
      </trkpt>
      <trkpt lat="46.01083" lon="5.84336">
        <ele>461.89</ele>
        <time>2015-05-22T09:54:56Z</time>
      </trkpt>
      <trkpt lat="46.01078" lon="5.84329">
        <ele>461.68</ele>
        <time>2015-05-22T09:54:57Z</time>
      </trkpt>
      <trkpt lat="46.0107" lon="5.84314">
        <ele>461.02</ele>
        <time>2015-05-22T09:54:59Z</time>
      </trkpt>
      <trkpt lat="46.01048" lon="5.84264">
        <ele>457.76</ele>
        <time>2015-05-22T09:55:05Z</time>
      </trkpt>
      <trkpt lat="46.01033" lon="5.84221">
        <ele>454.55</ele>
        <time>2015-05-22T09:55:10Z</time>
      </trkpt>
      <trkpt lat="46.01018" lon="5.84181">
        <ele>450.75</ele>
        <time>2015-05-22T09:55:15Z</time>
      </trkpt>
      <trkpt lat="46.01002" lon="5.84152">
        <ele>448.69</ele>
        <time>2015-05-22T09:55:19Z</time>
      </trkpt>
      <trkpt lat="46.00996" lon="5.84148">
        <ele>448.22</ele>
        <time>2015-05-22T09:55:20Z</time>
      </trkpt>
      <trkpt lat="46.0099" lon="5.84146">
        <ele>447.76</ele>
        <time>2015-05-22T09:55:21Z</time>
      </trkpt>
      <trkpt lat="46.00984" lon="5.84146">
        <ele>447.28</ele>
        <time>2015-05-22T09:55:22Z</time>
      </trkpt>
      <trkpt lat="46.00978" lon="5.84145">
        <ele>446.8</ele>
        <time>2015-05-22T09:55:23Z</time>
      </trkpt>
      <trkpt lat="46.00972" lon="5.84142">
        <ele>446.35</ele>
        <time>2015-05-22T09:55:24Z</time>
      </trkpt>
      <trkpt lat="46.00965" lon="5.84141">
        <ele>445.95</ele>
        <time>2015-05-22T09:55:25Z</time>
      </trkpt>
      <trkpt lat="46.00958" lon="5.8414">
        <ele>445.56</ele>
        <time>2015-05-22T09:55:26Z</time>
      </trkpt>
      <trkpt lat="46.00897" lon="5.8414">
        <ele>442.77</ele>
        <time>2015-05-22T09:55:34Z</time>
      </trkpt>
      <trkpt lat="46.0089" lon="5.84144">
        <ele>442.41</ele>
        <time>2015-05-22T09:55:35Z</time>
      </trkpt>
      <trkpt lat="46.00883" lon="5.84148">
        <ele>442.06</ele>
        <time>2015-05-22T09:55:36Z</time>
      </trkpt>
      <trkpt lat="46.00876" lon="5.84155">
        <ele>441.68</ele>
        <time>2015-05-22T09:55:37Z</time>
      </trkpt>
      <trkpt lat="46.0087" lon="5.84162">
        <ele>441.32</ele>
        <time>2015-05-22T09:55:38Z</time>
      </trkpt>
      <trkpt lat="46.00864" lon="5.8417">
        <ele>440.71</ele>
        <time>2015-05-22T09:55:39Z</time>
      </trkpt>
      <trkpt lat="46.0086" lon="5.84179">
        <ele>440.71</ele>
        <time>2015-05-22T09:55:40Z</time>
      </trkpt>
      <trkpt lat="46.00856" lon="5.84187">
        <ele>440.14</ele>
        <time>2015-05-22T09:55:41Z</time>
      </trkpt>
      <trkpt lat="46.00839" lon="5.84226">
        <ele>438.41</ele>
        <time>2015-05-22T09:55:47Z</time>
      </trkpt>
      <trkpt lat="46.00838" lon="5.84232">
        <ele>438.03</ele>
        <time>2015-05-22T09:55:48Z</time>
      </trkpt>
      <trkpt lat="46.00839" lon="5.84239">
        <ele>437.64</ele>
        <time>2015-05-22T09:55:49Z</time>
      </trkpt>
      <trkpt lat="46.00841" lon="5.84246">
        <ele>437.25</ele>
        <time>2015-05-22T09:55:50Z</time>
      </trkpt>
      <trkpt lat="46.00844" lon="5.84253">
        <ele>436.88</ele>
        <time>2015-05-22T09:55:51Z</time>
      </trkpt>
      <trkpt lat="46.00848" lon="5.84261">
        <ele>436.51</ele>
        <time>2015-05-22T09:55:52Z</time>
      </trkpt>
      <trkpt lat="46.00853" lon="5.8427">
        <ele>436.14</ele>
        <time>2015-05-22T09:55:53Z</time>
      </trkpt>
      <trkpt lat="46.00857" lon="5.84278">
        <ele>435.72</ele>
        <time>2015-05-22T09:55:54Z</time>
      </trkpt>
      <trkpt lat="46.00885" lon="5.84323">
        <ele>432.7</ele>
        <time>2015-05-22T09:56:00Z</time>
      </trkpt>
      <trkpt lat="46.00888" lon="5.8433">
        <ele>432.09</ele>
        <time>2015-05-22T09:56:01Z</time>
      </trkpt>
      <trkpt lat="46.0089" lon="5.84337">
        <ele>431.47</ele>
        <time>2015-05-22T09:56:02Z</time>
      </trkpt>
      <trkpt lat="46.00893" lon="5.84353">
        <ele>430.32</ele>
        <time>2015-05-22T09:56:04Z</time>
      </trkpt>
      <trkpt lat="46.00893" lon="5.84361">
        <ele>429.26</ele>
        <time>2015-05-22T09:56:05Z</time>
      </trkpt>
      <trkpt lat="46.00897" lon="5.84431">
        <ele>426.13</ele>
        <time>2015-05-22T09:56:12Z</time>
      </trkpt>
      <trkpt lat="46.0089" lon="5.8452">
        <ele>422.87</ele>
        <time>2015-05-22T09:56:20Z</time>
      </trkpt>
      <trkpt lat="46.00885" lon="5.84603">
        <ele>419.58</ele>
        <time>2015-05-22T09:56:27Z</time>
      </trkpt>
      <trkpt lat="46.00891" lon="5.84665">
        <ele>415.98</ele>
        <time>2015-05-22T09:56:32Z</time>
      </trkpt>
      <trkpt lat="46.00902" lon="5.84728">
        <ele>412.89</ele>
        <time>2015-05-22T09:56:37Z</time>
      </trkpt>
      <trkpt lat="46.00909" lon="5.84777">
        <ele>410.1</ele>
        <time>2015-05-22T09:56:42Z</time>
      </trkpt>
      <trkpt lat="46.00909" lon="5.84784">
        <ele>409.58</ele>
        <time>2015-05-22T09:56:43Z</time>
      </trkpt>
      <trkpt lat="46.00907" lon="5.8479">
        <ele>409.07</ele>
        <time>2015-05-22T09:56:44Z</time>
      </trkpt>
      <trkpt lat="46.00904" lon="5.84795">
        <ele>408.6</ele>
        <time>2015-05-22T09:56:45Z</time>
      </trkpt>
      <trkpt lat="46.00898" lon="5.84798">
        <ele>408.16</ele>
        <time>2015-05-22T09:56:46Z</time>
      </trkpt>
      <trkpt lat="46.00892" lon="5.84797">
        <ele>407.66</ele>
        <time>2015-05-22T09:56:47Z</time>
      </trkpt>
      <trkpt lat="46.00885" lon="5.84793">
        <ele>407.12</ele>
        <time>2015-05-22T09:56:48Z</time>
      </trkpt>
      <trkpt lat="46.0088" lon="5.84785">
        <ele>406.58</ele>
        <time>2015-05-22T09:56:49Z</time>
      </trkpt>
      <trkpt lat="46.00876" lon="5.84776">
        <ele>406.03</ele>
        <time>2015-05-22T09:56:50Z</time>
      </trkpt>
      <trkpt lat="46.00873" lon="5.84766">
        <ele>405.44</ele>
        <time>2015-05-22T09:56:51Z</time>
      </trkpt>
      <trkpt lat="46.0087" lon="5.84756">
        <ele>404.86</ele>
        <time>2015-05-22T09:56:52Z</time>
      </trkpt>
      <trkpt lat="46.00867" lon="5.84746">
        <ele>404.32</ele>
        <time>2015-05-22T09:56:53Z</time>
      </trkpt>
      <trkpt lat="46.00861" lon="5.84736">
        <ele>403.83</ele>
        <time>2015-05-22T09:56:54Z</time>
      </trkpt>
      <trkpt lat="46.00855" lon="5.84728">
        <ele>402.95</ele>
        <time>2015-05-22T09:56:55Z</time>
      </trkpt>
      <trkpt lat="46.00848" lon="5.8472">
        <ele>402.53</ele>
        <time>2015-05-22T09:56:56Z</time>
      </trkpt>
      <trkpt lat="46.00841" lon="5.84713">
        <ele>402.12</ele>
        <time>2015-05-22T09:56:57Z</time>
      </trkpt>
      <trkpt lat="46.00833" lon="5.84708">
        <ele>401.74</ele>
        <time>2015-05-22T09:56:58Z</time>
      </trkpt>
      <trkpt lat="46.00825" lon="5.84703">
        <ele>401.36</ele>
        <time>2015-05-22T09:56:59Z</time>
      </trkpt>
      <trkpt lat="46.00815" lon="5.84699">
        <ele>400.93</ele>
        <time>2015-05-22T09:57:00Z</time>
      </trkpt>
      <trkpt lat="46.00768" lon="5.84673">
        <ele>397.35</ele>
        <time>2015-05-22T09:57:05Z</time>
      </trkpt>
      <trkpt lat="46.00757" lon="5.84668">
        <ele>396.52</ele>
        <time>2015-05-22T09:57:06Z</time>
      </trkpt>
      <trkpt lat="46.00747" lon="5.84665">
        <ele>395.73</ele>
        <time>2015-05-22T09:57:07Z</time>
      </trkpt>
      <trkpt lat="46.00736" lon="5.84664">
        <ele>394.97</ele>
        <time>2015-05-22T09:57:08Z</time>
      </trkpt>
      <trkpt lat="46.00695" lon="5.84657">
        <ele>392.57</ele>
        <time>2015-05-22T09:57:12Z</time>
      </trkpt>
      <trkpt lat="46.00685" lon="5.84652">
        <ele>392.16</ele>
        <time>2015-05-22T09:57:13Z</time>
      </trkpt>
      <trkpt lat="46.00675" lon="5.84646">
        <ele>391.83</ele>
        <time>2015-05-22T09:57:14Z</time>
      </trkpt>
      <trkpt lat="46.00665" lon="5.84638">
        <ele>391.5</ele>
        <time>2015-05-22T09:57:15Z</time>
      </trkpt>
      <trkpt lat="46.00655" lon="5.84631">
        <ele>391.03</ele>
        <time>2015-05-22T09:57:16Z</time>
      </trkpt>
      <trkpt lat="46.00615" lon="5.84602">
        <ele>387.64</ele>
        <time>2015-05-22T09:57:20Z</time>
      </trkpt>
      <trkpt lat="46.00574" lon="5.84574">
        <ele>384.63</ele>
        <time>2015-05-22T09:57:24Z</time>
      </trkpt>
      <trkpt lat="46.0051" lon="5.84525">
        <ele>381.48</ele>
        <time>2015-05-22T09:57:31Z</time>
      </trkpt>
      <trkpt lat="46.00444" lon="5.84485">
        <ele>379.34</ele>
        <time>2015-05-22T09:57:38Z</time>
      </trkpt>
      <trkpt lat="46.00434" lon="5.84483">
        <ele>378.81</ele>
        <time>2015-05-22T09:57:39Z</time>
      </trkpt>
      <trkpt lat="46.00423" lon="5.84482">
        <ele>378.19</ele>
        <time>2015-05-22T09:57:40Z</time>
      </trkpt>
      <trkpt lat="46.00413" lon="5.84483">
        <ele>377.52</ele>
        <time>2015-05-22T09:57:41Z</time>
      </trkpt>
      <trkpt lat="46.00402" lon="5.84485">
        <ele>376.85</ele>
        <time>2015-05-22T09:57:42Z</time>
      </trkpt>
      <trkpt lat="46.00391" lon="5.8449">
        <ele>376.19</ele>
        <time>2015-05-22T09:57:43Z</time>
      </trkpt>
      <trkpt lat="46.00381" lon="5.84495">
        <ele>375.54</ele>
        <time>2015-05-22T09:57:44Z</time>
      </trkpt>
      <trkpt lat="46.00371" lon="5.84502">
        <ele>374.19</ele>
        <time>2015-05-22T09:57:45Z</time>
      </trkpt>
      <trkpt lat="46.00361" lon="5.8451">
        <ele>373.61</ele>
        <time>2015-05-22T09:57:46Z</time>
      </trkpt>
      <trkpt lat="46.00324" lon="5.8454">
        <ele>371.66</ele>
        <time>2015-05-22T09:57:50Z</time>
      </trkpt>
      <trkpt lat="46.00315" lon="5.84545">
        <ele>371.14</ele>
        <time>2015-05-22T09:57:51Z</time>
      </trkpt>
      <trkpt lat="46.00241" lon="5.84562">
        <ele>368.07</ele>
        <time>2015-05-22T09:57:59Z</time>
      </trkpt>
      <trkpt lat="46.00165" lon="5.84573">
        <ele>364.55</ele>
        <time>2015-05-22T09:58:07Z</time>
      </trkpt>
      <trkpt lat="46.00116" lon="5.84572">
        <ele>360.91</ele>
        <time>2015-05-22T09:58:12Z</time>
      </trkpt>
      <trkpt lat="46.00062" lon="5.84561">
        <ele>357.49</ele>
        <time>2015-05-22T09:58:18Z</time>
      </trkpt>
      <trkpt lat="46.00016" lon="5.84551">
        <ele>354.92</ele>
        <time>2015-05-22T09:58:24Z</time>
      </trkpt>
      <trkpt lat="45.99945" lon="5.84513">
        <ele>351.65</ele>
        <time>2015-05-22T09:58:33Z</time>
      </trkpt>
      <trkpt lat="45.99882" lon="5.84469">
        <ele>351</ele>
        <time>2015-05-22T09:58:42Z</time>
      </trkpt>
      <trkpt lat="45.99875" lon="5.84466">
        <ele>350.96</ele>
        <time>2015-05-22T09:58:43Z</time>
      </trkpt>
      <trkpt lat="45.99867" lon="5.84465">
        <ele>350.89</ele>
        <time>2015-05-22T09:58:44Z</time>
      </trkpt>
      <trkpt lat="45.99859" lon="5.84465">
        <ele>350.79</ele>
        <time>2015-05-22T09:58:45Z</time>
      </trkpt>
      <trkpt lat="45.99852" lon="5.84466">
        <ele>350.69</ele>
        <time>2015-05-22T09:58:46Z</time>
      </trkpt>
      <trkpt lat="45.99844" lon="5.84469">
        <ele>350.56</ele>
        <time>2015-05-22T09:58:47Z</time>
      </trkpt>
      <trkpt lat="45.99761" lon="5.84498">
        <ele>346.85</ele>
        <time>2015-05-22T09:58:57Z</time>
      </trkpt>
      <trkpt lat="45.99752" lon="5.84503">
        <ele>346.85</ele>
        <time>2015-05-22T09:58:58Z</time>
      </trkpt>
      <trkpt lat="45.99701" lon="5.8454">
        <ele>343.5</ele>
        <time>2015-05-22T09:59:04Z</time>
      </trkpt>
      <trkpt lat="45.99624" lon="5.84573">
        <ele>340.45</ele>
        <time>2015-05-22T09:59:13Z</time>
      </trkpt>
      <trkpt lat="45.99539" lon="5.84609">
        <ele>338.3</ele>
        <time>2015-05-22T09:59:24Z</time>
      </trkpt>
      <trkpt lat="45.99521" lon="5.84629">
        <ele>337.86</ele>
        <time>2015-05-22T09:59:27Z</time>
      </trkpt>
      <trkpt lat="45.99516" lon="5.84638">
        <ele>337.72</ele>
        <time>2015-05-22T09:59:28Z</time>
      </trkpt>
      <trkpt lat="45.99476" lon="5.84716">
        <ele>334.51</ele>
        <time>2015-05-22T09:59:36Z</time>
      </trkpt>
      <trkpt lat="45.99459" lon="5.84747">
        <ele>332.72</ele>
        <time>2015-05-22T09:59:39Z</time>
      </trkpt>
      <trkpt lat="45.99452" lon="5.84755">
        <ele>331.98</ele>
        <time>2015-05-22T09:59:40Z</time>
      </trkpt>
      <trkpt lat="45.99444" lon="5.84762">
        <ele>331.22</ele>
        <time>2015-05-22T09:59:41Z</time>
      </trkpt>
      <trkpt lat="45.99436" lon="5.84769">
        <ele>330.46</ele>
        <time>2015-05-22T09:59:42Z</time>
      </trkpt>
      <trkpt lat="45.99427" lon="5.84775">
        <ele>329.75</ele>
        <time>2015-05-22T09:59:43Z</time>
      </trkpt>
      <trkpt lat="45.99397" lon="5.84794">
        <ele>327.82</ele>
        <time>2015-05-22T09:59:46Z</time>
      </trkpt>
      <trkpt lat="45.99388" lon="5.84801">
        <ele>327.17</ele>
        <time>2015-05-22T09:59:47Z</time>
      </trkpt>
      <trkpt lat="45.99379" lon="5.84809">
        <ele>325.84</ele>
        <time>2015-05-22T09:59:48Z</time>
      </trkpt>
      <trkpt lat="45.99355" lon="5.84838">
        <ele>323.88</ele>
        <time>2015-05-22T09:59:51Z</time>
      </trkpt>
      <trkpt lat="45.9935" lon="5.84847">
        <ele>323.14</ele>
        <time>2015-05-22T09:59:52Z</time>
      </trkpt>
      <trkpt lat="45.99344" lon="5.84856">
        <ele>322.4</ele>
        <time>2015-05-22T09:59:53Z</time>
      </trkpt>
      <trkpt lat="45.99337" lon="5.84864">
        <ele>321.71</ele>
        <time>2015-05-22T09:59:54Z</time>
      </trkpt>
      <trkpt lat="45.99331" lon="5.8487">
        <ele>321.09</ele>
        <time>2015-05-22T09:59:55Z</time>
      </trkpt>
      <trkpt lat="45.99324" lon="5.84876">
        <ele>320.54</ele>
        <time>2015-05-22T09:59:56Z</time>
      </trkpt>
      <trkpt lat="45.9927" lon="5.84915">
        <ele>317.08</ele>
        <time>2015-05-22T10:00:03Z</time>
      </trkpt>
      <trkpt lat="45.99226" lon="5.84938">
        <ele>314.04</ele>
        <time>2015-05-22T10:00:08Z</time>
      </trkpt>
      <trkpt lat="45.99183" lon="5.84959">
        <ele>310.89</ele>
        <time>2015-05-22T10:00:12Z</time>
      </trkpt>
      <trkpt lat="45.99166" lon="5.84976">
        <ele>308.69</ele>
        <time>2015-05-22T10:00:14Z</time>
      </trkpt>
      <trkpt lat="45.99159" lon="5.84986">
        <ele>308.1</ele>
        <time>2015-05-22T10:00:15Z</time>
      </trkpt>
      <trkpt lat="45.99154" lon="5.84996">
        <ele>307.63</ele>
        <time>2015-05-22T10:00:16Z</time>
      </trkpt>
      <trkpt lat="45.99153" lon="5.85006">
        <ele>307.22</ele>
        <time>2015-05-22T10:00:17Z</time>
      </trkpt>
      <trkpt lat="45.99154" lon="5.85015">
        <ele>306.85</ele>
        <time>2015-05-22T10:00:18Z</time>
      </trkpt>
      <trkpt lat="45.99158" lon="5.85023">
        <ele>306.54</ele>
        <time>2015-05-22T10:00:19Z</time>
      </trkpt>
      <trkpt lat="45.99165" lon="5.85032">
        <ele>306.27</ele>
        <time>2015-05-22T10:00:20Z</time>
      </trkpt>
      <trkpt lat="45.99171" lon="5.85041">
        <ele>306.05</ele>
        <time>2015-05-22T10:00:21Z</time>
      </trkpt>
      <trkpt lat="45.99177" lon="5.85049">
        <ele>305.86</ele>
        <time>2015-05-22T10:00:22Z</time>
      </trkpt>
      <trkpt lat="45.99191" lon="5.85074">
        <ele>305.44</ele>
        <time>2015-05-22T10:00:25Z</time>
      </trkpt>
      <trkpt lat="45.99198" lon="5.85091">
        <ele>305.21</ele>
        <time>2015-05-22T10:00:27Z</time>
      </trkpt>
      <trkpt lat="45.99201" lon="5.85099">
        <ele>305.11</ele>
        <time>2015-05-22T10:00:28Z</time>
      </trkpt>
      <trkpt lat="45.99213" lon="5.85215">
        <ele>304.16</ele>
        <time>2015-05-22T10:00:41Z</time>
      </trkpt>
      <trkpt lat="45.99214" lon="5.85224">
        <ele>303.43</ele>
        <time>2015-05-22T10:00:48Z</time>
      </trkpt>
      <trkpt lat="45.99216" lon="5.85226">
        <ele>302.97</ele>
        <time>2015-05-22T10:00:58Z</time>
      </trkpt>
      <trkpt lat="45.99217" lon="5.85228">
        <ele>302.94</ele>
        <time>2015-05-22T10:00:59Z</time>
      </trkpt>
      <trkpt lat="45.99218" lon="5.85231">
        <ele>302.9</ele>
        <time>2015-05-22T10:01:00Z</time>
      </trkpt>
      <trkpt lat="45.9922" lon="5.85234">
        <ele>302.87</ele>
        <time>2015-05-22T10:01:01Z</time>
      </trkpt>
      <trkpt lat="45.99222" lon="5.85239">
        <ele>302.83</ele>
        <time>2015-05-22T10:01:02Z</time>
      </trkpt>
      <trkpt lat="45.9923" lon="5.85252">
        <ele>302.77</ele>
        <time>2015-05-22T10:01:05Z</time>
      </trkpt>
      <trkpt lat="45.99268" lon="5.85296">
        <ele>301.45</ele>
        <time>2015-05-22T10:01:14Z</time>
      </trkpt>
      <trkpt lat="45.9927" lon="5.85303">
        <ele>301.32</ele>
        <time>2015-05-22T10:01:15Z</time>
      </trkpt>
      <trkpt lat="45.99271" lon="5.8531">
        <ele>301.22</ele>
        <time>2015-05-22T10:01:16Z</time>
      </trkpt>
      <trkpt lat="45.9927" lon="5.85317">
        <ele>301.12</ele>
        <time>2015-05-22T10:01:17Z</time>
      </trkpt>
      <trkpt lat="45.99268" lon="5.85323">
        <ele>301.07</ele>
        <time>2015-05-22T10:01:18Z</time>
      </trkpt>
      <trkpt lat="45.99265" lon="5.85327">
        <ele>300.99</ele>
        <time>2015-05-22T10:01:19Z</time>
      </trkpt>
      <trkpt lat="45.9926" lon="5.8533">
        <ele>300.94</ele>
        <time>2015-05-22T10:01:20Z</time>
      </trkpt>
      <trkpt lat="45.99255" lon="5.85332">
        <ele>300.94</ele>
        <time>2015-05-22T10:01:21Z</time>
      </trkpt>
      <trkpt lat="45.99229" lon="5.85343">
        <ele>300.85</ele>
        <time>2015-05-22T10:01:26Z</time>
      </trkpt>
      <trkpt lat="45.99223" lon="5.85344">
        <ele>300.83</ele>
        <time>2015-05-22T10:01:27Z</time>
      </trkpt>
      <trkpt lat="45.99217" lon="5.85343">
        <ele>300.8</ele>
        <time>2015-05-22T10:01:28Z</time>
      </trkpt>
      <trkpt lat="45.99186" lon="5.85333">
        <ele>300.9</ele>
        <time>2015-05-22T10:01:33Z</time>
      </trkpt>
      <trkpt lat="45.99163" lon="5.85317">
        <ele>300.77</ele>
        <time>2015-05-22T10:01:37Z</time>
      </trkpt>
      <trkpt lat="45.99157" lon="5.85313">
        <ele>300.66</ele>
        <time>2015-05-22T10:01:38Z</time>
      </trkpt>
      <trkpt lat="45.99151" lon="5.85307">
        <ele>300.55</ele>
        <time>2015-05-22T10:01:39Z</time>
      </trkpt>
      <trkpt lat="45.99076" lon="5.85237">
        <ele>299.63</ele>
        <time>2015-05-22T10:01:51Z</time>
      </trkpt>
      <trkpt lat="45.98972" lon="5.85147">
        <ele>298.03</ele>
        <time>2015-05-22T10:02:05Z</time>
      </trkpt>
      <trkpt lat="45.98907" lon="5.85074">
        <ele>297.52</ele>
        <time>2015-05-22T10:02:15Z</time>
      </trkpt>
      <trkpt lat="45.98848" lon="5.84969">
        <ele>297.42</ele>
        <time>2015-05-22T10:02:27Z</time>
      </trkpt>
      <trkpt lat="45.98816" lon="5.84922">
        <ele>298</ele>
        <time>2015-05-22T10:02:33Z</time>
      </trkpt>
      <trkpt lat="45.98812" lon="5.84915">
        <ele>298.01</ele>
        <time>2015-05-22T10:02:34Z</time>
      </trkpt>
      <trkpt lat="45.98768" lon="5.84862">
        <ele>297.73</ele>
        <time>2015-05-22T10:02:42Z</time>
      </trkpt>
      <trkpt lat="45.98748" lon="5.84848">
        <ele>297.7</ele>
        <time>2015-05-22T10:02:45Z</time>
      </trkpt>
      <trkpt lat="45.98741" lon="5.84844">
        <ele>297.76</ele>
        <time>2015-05-22T10:02:46Z</time>
      </trkpt>
      <trkpt lat="45.98734" lon="5.84842">
        <ele>297.82</ele>
        <time>2015-05-22T10:02:47Z</time>
      </trkpt>
      <trkpt lat="45.98636" lon="5.84828">
        <ele>297.36</ele>
        <time>2015-05-22T10:03:01Z</time>
      </trkpt>
      <trkpt lat="45.98533" lon="5.84821">
        <ele>297.39</ele>
        <time>2015-05-22T10:03:16Z</time>
      </trkpt>
      <trkpt lat="45.98448" lon="5.84812">
        <ele>296.93</ele>
        <time>2015-05-22T10:03:29Z</time>
      </trkpt>
      <trkpt lat="45.98374" lon="5.84788">
        <ele>296.25</ele>
        <time>2015-05-22T10:03:40Z</time>
      </trkpt>
      <trkpt lat="45.98308" lon="5.84727">
        <ele>296.4</ele>
        <time>2015-05-22T10:03:52Z</time>
      </trkpt>
      <trkpt lat="45.98303" lon="5.8472">
        <ele>296.43</ele>
        <time>2015-05-22T10:03:53Z</time>
      </trkpt>
      <trkpt lat="45.9826" lon="5.84629">
        <ele>295.96</ele>
        <time>2015-05-22T10:04:05Z</time>
      </trkpt>
      <trkpt lat="45.9822" lon="5.84524">
        <ele>295.19</ele>
        <time>2015-05-22T10:04:18Z</time>
      </trkpt>
      <trkpt lat="45.98173" lon="5.844">
        <ele>294.66</ele>
        <time>2015-05-22T10:04:33Z</time>
      </trkpt>
      <trkpt lat="45.98149" lon="5.84346">
        <ele>294.63</ele>
        <time>2015-05-22T10:04:40Z</time>
      </trkpt>
      <trkpt lat="45.98108" lon="5.84286">
        <ele>294.16</ele>
        <time>2015-05-22T10:04:48Z</time>
      </trkpt>
      <trkpt lat="45.98044" lon="5.8424">
        <ele>294.2</ele>
        <time>2015-05-22T10:04:57Z</time>
      </trkpt>
      <trkpt lat="45.97948" lon="5.84228">
        <ele>293.46</ele>
        <time>2015-05-22T10:05:10Z</time>
      </trkpt>
      <trkpt lat="45.9794" lon="5.84227">
        <ele>293.44</ele>
        <time>2015-05-22T10:05:11Z</time>
      </trkpt>
      <trkpt lat="45.97856" lon="5.84189">
        <ele>293.58</ele>
        <time>2015-05-22T10:05:23Z</time>
      </trkpt>
      <trkpt lat="45.97792" lon="5.84104">
        <ele>293.01</ele>
        <time>2015-05-22T10:05:35Z</time>
      </trkpt>
      <trkpt lat="45.97767" lon="5.84045">
        <ele>292.66</ele>
        <time>2015-05-22T10:05:43Z</time>
      </trkpt>
      <trkpt lat="45.97764" lon="5.84036">
        <ele>292.58</ele>
        <time>2015-05-22T10:05:44Z</time>
      </trkpt>
      <trkpt lat="45.97762" lon="5.84028">
        <ele>292.48</ele>
        <time>2015-05-22T10:05:45Z</time>
      </trkpt>
      <trkpt lat="45.9771" lon="5.83935">
        <ele>291.99</ele>
        <time>2015-05-22T10:05:56Z</time>
      </trkpt>
      <trkpt lat="45.97698" lon="5.83919">
        <ele>292.01</ele>
        <time>2015-05-22T10:05:58Z</time>
      </trkpt>
      <trkpt lat="45.97608" lon="5.83835">
        <ele>292.35</ele>
        <time>2015-05-22T10:06:13Z</time>
      </trkpt>
      <trkpt lat="45.97538" lon="5.83786">
        <ele>292.24</ele>
        <time>2015-05-22T10:06:25Z</time>
      </trkpt>
      <trkpt lat="45.97462" lon="5.83763">
        <ele>292.46</ele>
        <time>2015-05-22T10:06:37Z</time>
      </trkpt>
      <trkpt lat="45.9739" lon="5.83763">
        <ele>292.89</ele>
        <time>2015-05-22T10:06:49Z</time>
      </trkpt>
      <trkpt lat="45.97352" lon="5.83763">
        <ele>294.43</ele>
        <time>2015-05-22T10:06:59Z</time>
      </trkpt>
      <trkpt lat="45.97302" lon="5.83742">
        <ele>296.37</ele>
        <time>2015-05-22T10:07:11Z</time>
      </trkpt>
      <trkpt lat="45.97264" lon="5.83707">
        <ele>297.63</ele>
        <time>2015-05-22T10:07:21Z</time>
      </trkpt>
      <trkpt lat="45.97215" lon="5.83633">
        <ele>300.45</ele>
        <time>2015-05-22T10:07:37Z</time>
      </trkpt>
      <trkpt lat="45.97165" lon="5.8358">
        <ele>303.05</ele>
        <time>2015-05-22T10:07:54Z</time>
      </trkpt>
      <trkpt lat="45.97116" lon="5.83567">
        <ele>305.66</ele>
        <time>2015-05-22T10:08:08Z</time>
      </trkpt>
      <trkpt lat="45.97079" lon="5.83569">
        <ele>308.72</ele>
        <time>2015-05-22T10:08:18Z</time>
      </trkpt>
      <trkpt lat="45.97023" lon="5.83569">
        <ele>309.21</ele>
        <time>2015-05-22T10:08:31Z</time>
      </trkpt>
      <trkpt lat="45.9696" lon="5.83566">
        <ele>309.23</ele>
        <time>2015-05-22T10:08:45Z</time>
      </trkpt>
      <trkpt lat="45.96955" lon="5.83565">
        <ele>309.28</ele>
        <time>2015-05-22T10:08:46Z</time>
      </trkpt>
      <trkpt lat="45.96935" lon="5.83561">
        <ele>309.52</ele>
        <time>2015-05-22T10:08:50Z</time>
      </trkpt>
      <trkpt lat="45.96905" lon="5.83557">
        <ele>309.94</ele>
        <time>2015-05-22T10:08:56Z</time>
      </trkpt>
      <trkpt lat="45.96886" lon="5.83556">
        <ele>310.44</ele>
        <time>2015-05-22T10:09:00Z</time>
      </trkpt>
      <trkpt lat="45.9687" lon="5.83554">
        <ele>310.83</ele>
        <time>2015-05-22T10:09:03Z</time>
      </trkpt>
      <trkpt lat="45.96801" lon="5.83553">
        <ele>311.6</ele>
        <time>2015-05-22T10:09:14Z</time>
      </trkpt>
      <trkpt lat="45.96689" lon="5.83551">
        <ele>310.95</ele>
        <time>2015-05-22T10:09:30Z</time>
      </trkpt>
      <trkpt lat="45.96676" lon="5.83549">
        <ele>310.81</ele>
        <time>2015-05-22T10:09:32Z</time>
      </trkpt>
      <trkpt lat="45.96665" lon="5.83548">
        <ele>310.65</ele>
        <time>2015-05-22T10:09:34Z</time>
      </trkpt>
      <trkpt lat="45.9665" lon="5.83547">
        <ele>310.28</ele>
        <time>2015-05-22T10:09:37Z</time>
      </trkpt>
      <trkpt lat="45.96622" lon="5.83539">
        <ele>309.21</ele>
        <time>2015-05-22T10:09:42Z</time>
      </trkpt>
      <trkpt lat="45.96615" lon="5.8354">
        <ele>308.95</ele>
        <time>2015-05-22T10:09:43Z</time>
      </trkpt>
      <trkpt lat="45.96607" lon="5.8354">
        <ele>308.67</ele>
        <time>2015-05-22T10:09:44Z</time>
      </trkpt>
      <trkpt lat="45.96545" lon="5.83533">
        <ele>305.71</ele>
        <time>2015-05-22T10:09:52Z</time>
      </trkpt>
      <trkpt lat="45.96466" lon="5.83523">
        <ele>302.53</ele>
        <time>2015-05-22T10:10:02Z</time>
      </trkpt>
      <trkpt lat="45.96458" lon="5.83523">
        <ele>302.14</ele>
        <time>2015-05-22T10:10:03Z</time>
      </trkpt>
      <trkpt lat="45.9645" lon="5.83523">
        <ele>301.75</ele>
        <time>2015-05-22T10:10:04Z</time>
      </trkpt>
      <trkpt lat="45.96421" lon="5.83527">
        <ele>300.51</ele>
        <time>2015-05-22T10:10:08Z</time>
      </trkpt>
      <trkpt lat="45.9636" lon="5.83511">
        <ele>296.93</ele>
        <time>2015-05-22T10:10:16Z</time>
      </trkpt>
      <trkpt lat="45.96353" lon="5.8351">
        <ele>296.23</ele>
        <time>2015-05-22T10:10:17Z</time>
      </trkpt>
      <trkpt lat="45.96345" lon="5.83511">
        <ele>295.46</ele>
        <time>2015-05-22T10:10:18Z</time>
      </trkpt>
      <trkpt lat="45.96339" lon="5.83513">
        <ele>294.67</ele>
        <time>2015-05-22T10:10:19Z</time>
      </trkpt>
      <trkpt lat="45.96334" lon="5.83516">
        <ele>293.87</ele>
        <time>2015-05-22T10:10:20Z</time>
      </trkpt>
      <trkpt lat="45.96329" lon="5.83519">
        <ele>292.2</ele>
        <time>2015-05-22T10:10:21Z</time>
      </trkpt>
      <trkpt lat="45.96324" lon="5.83522">
        <ele>292.2</ele>
        <time>2015-05-22T10:10:22Z</time>
      </trkpt>
      <trkpt lat="45.96319" lon="5.83527">
        <ele>288.77</ele>
        <time>2015-05-22T10:10:26Z</time>
      </trkpt>
      <trkpt lat="45.96319" lon="5.83527">
        <ele>285.72</ele>
        <time>2015-05-22T10:10:43Z</time>
      </trkpt>
      <trkpt lat="45.96317" lon="5.8353">
        <ele>285.9</ele>
        <time>2015-05-22T10:11:02Z</time>
      </trkpt>
      <trkpt lat="45.96309" lon="5.83535">
        <ele>285.9</ele>
        <time>2015-05-22T10:11:05Z</time>
      </trkpt>
      <trkpt lat="45.96306" lon="5.83537">
        <ele>285.86</ele>
        <time>2015-05-22T10:11:06Z</time>
      </trkpt>
      <trkpt lat="45.96283" lon="5.8355">
        <ele>285.07</ele>
        <time>2015-05-22T10:11:17Z</time>
      </trkpt>
      <trkpt lat="45.96283" lon="5.8355">
        <ele>285.17</ele>
        <time>2015-05-22T10:11:23Z</time>
      </trkpt>
      <trkpt lat="45.96281" lon="5.83559">
        <ele>257.62</ele>
        <time>2015-05-22T10:16:22Z</time>
      </trkpt>
      <trkpt lat="45.96278" lon="5.83548">
        <ele>257.62</ele>
        <time>2015-05-22T10:16:23Z</time>
      </trkpt>
      <trkpt lat="45.96277" lon="5.83556">
        <ele>257.79</ele>
        <time>2015-05-22T10:16:40Z</time>
      </trkpt>
      <trkpt lat="45.96276" lon="5.83556">
        <ele>257.84</ele>
        <time>2015-05-22T10:16:41Z</time>
      </trkpt>
      <trkpt lat="45.96273" lon="5.83559">
        <ele>257.97</ele>
        <time>2015-05-22T10:16:43Z</time>
      </trkpt>
      <trkpt lat="45.96262" lon="5.83567">
        <ele>258.31</ele>
        <time>2015-05-22T10:16:49Z</time>
      </trkpt>
      <trkpt lat="45.9626" lon="5.83569">
        <ele>258.36</ele>
        <time>2015-05-22T10:16:50Z</time>
      </trkpt>
      <trkpt lat="45.96258" lon="5.83571">
        <ele>258.42</ele>
        <time>2015-05-22T10:16:51Z</time>
      </trkpt>
      <trkpt lat="45.96231" lon="5.83574">
        <ele>258.62</ele>
        <time>2015-05-22T10:17:00Z</time>
      </trkpt>
      <trkpt lat="45.962" lon="5.83588">
        <ele>259.46</ele>
        <time>2015-05-22T10:17:09Z</time>
      </trkpt>
      <trkpt lat="45.96195" lon="5.83589">
        <ele>259.46</ele>
        <time>2015-05-22T10:17:10Z</time>
      </trkpt>
      <trkpt lat="45.9619" lon="5.8359">
        <ele>259.46</ele>
        <time>2015-05-22T10:17:11Z</time>
      </trkpt>
      <trkpt lat="45.96159" lon="5.83595">
        <ele>259.56</ele>
        <time>2015-05-22T10:17:17Z</time>
      </trkpt>
      <trkpt lat="45.96145" lon="5.836">
        <ele>259.68</ele>
        <time>2015-05-22T10:17:20Z</time>
      </trkpt>
      <trkpt lat="45.9614" lon="5.83601">
        <ele>259.71</ele>
        <time>2015-05-22T10:17:21Z</time>
      </trkpt>
      <trkpt lat="45.96124" lon="5.83602">
        <ele>259.78</ele>
        <time>2015-05-22T10:17:24Z</time>
      </trkpt>
      <trkpt lat="45.96119" lon="5.83604">
        <ele>259.78</ele>
        <time>2015-05-22T10:17:25Z</time>
      </trkpt>
      <trkpt lat="45.96115" lon="5.83605">
        <ele>259.76</ele>
        <time>2015-05-22T10:17:26Z</time>
      </trkpt>
      <trkpt lat="45.96111" lon="5.83606">
        <ele>259.68</ele>
        <time>2015-05-22T10:17:27Z</time>
      </trkpt>
      <trkpt lat="45.96107" lon="5.83608">
        <ele>259.62</ele>
        <time>2015-05-22T10:17:28Z</time>
      </trkpt>
      <trkpt lat="45.96105" lon="5.83609">
        <ele>259.52</ele>
        <time>2015-05-22T10:17:29Z</time>
      </trkpt>
      <trkpt lat="45.96099" lon="5.83604">
        <ele>258.62</ele>
        <time>2015-05-22T10:17:36Z</time>
      </trkpt>
      <trkpt lat="45.96097" lon="5.83604">
        <ele>258.62</ele>
        <time>2015-05-22T10:17:37Z</time>
      </trkpt>
      <trkpt lat="45.96096" lon="5.83606">
        <ele>258.65</ele>
        <time>2015-05-22T10:17:38Z</time>
      </trkpt>
      <trkpt lat="45.96094" lon="5.83606">
        <ele>258.68</ele>
        <time>2015-05-22T10:17:39Z</time>
      </trkpt>
      <trkpt lat="45.96092" lon="5.83606">
        <ele>258.72</ele>
        <time>2015-05-22T10:17:40Z</time>
      </trkpt>
      <trkpt lat="45.96089" lon="5.83605">
        <ele>258.74</ele>
        <time>2015-05-22T10:17:41Z</time>
      </trkpt>
      <trkpt lat="45.96065" lon="5.83602">
        <ele>258.48</ele>
        <time>2015-05-22T10:17:47Z</time>
      </trkpt>
      <trkpt lat="45.9601" lon="5.83572">
        <ele>258.43</ele>
        <time>2015-05-22T10:17:59Z</time>
      </trkpt>
      <trkpt lat="45.95963" lon="5.83505">
        <ele>257.95</ele>
        <time>2015-05-22T10:18:13Z</time>
      </trkpt>
      <trkpt lat="45.95961" lon="5.83499">
        <ele>257.88</ele>
        <time>2015-05-22T10:18:14Z</time>
      </trkpt>
      <trkpt lat="45.95956" lon="5.83486">
        <ele>257.73</ele>
        <time>2015-05-22T10:18:16Z</time>
      </trkpt>
      <trkpt lat="45.95955" lon="5.8348">
        <ele>257.66</ele>
        <time>2015-05-22T10:18:17Z</time>
      </trkpt>
      <trkpt lat="45.95954" lon="5.83474">
        <ele>257.6</ele>
        <time>2015-05-22T10:18:18Z</time>
      </trkpt>
      <trkpt lat="45.95951" lon="5.83467">
        <ele>257.71</ele>
        <time>2015-05-22T10:18:25Z</time>
      </trkpt>
      <trkpt lat="45.95953" lon="5.8347">
        <ele>257.87</ele>
        <time>2015-05-22T10:18:27Z</time>
      </trkpt>
      <trkpt lat="45.95953" lon="5.83473">
        <ele>257.96</ele>
        <time>2015-05-22T10:18:28Z</time>
      </trkpt>
      <trkpt lat="45.95954" lon="5.83477">
        <ele>258.04</ele>
        <time>2015-05-22T10:18:29Z</time>
      </trkpt>
      <trkpt lat="45.95955" lon="5.83482">
        <ele>258.1</ele>
        <time>2015-05-22T10:18:30Z</time>
      </trkpt>
      <trkpt lat="45.95956" lon="5.83487">
        <ele>258.12</ele>
        <time>2015-05-22T10:18:31Z</time>
      </trkpt>
      <trkpt lat="45.95982" lon="5.83544">
        <ele>258.63</ele>
        <time>2015-05-22T10:18:44Z</time>
      </trkpt>
      <trkpt lat="45.96001" lon="5.83572">
        <ele>258.41</ele>
        <time>2015-05-22T10:18:52Z</time>
      </trkpt>
      <trkpt lat="45.95995" lon="5.83574">
        <ele>257.63</ele>
        <time>2015-05-22T10:18:58Z</time>
      </trkpt>
      <trkpt lat="45.95993" lon="5.83571">
        <ele>257.49</ele>
        <time>2015-05-22T10:18:59Z</time>
      </trkpt>
      <trkpt lat="45.95987" lon="5.83566">
        <ele>257.2</ele>
        <time>2015-05-22T10:19:02Z</time>
      </trkpt>
      <trkpt lat="45.95986" lon="5.83568">
        <ele>257.15</ele>
        <time>2015-05-22T10:19:03Z</time>
      </trkpt>
      <trkpt lat="45.95989" lon="5.83575">
        <ele>257.28</ele>
        <time>2015-05-22T10:19:06Z</time>
      </trkpt>
      <trkpt lat="45.9599" lon="5.83578">
        <ele>257.62</ele>
        <time>2015-05-22T10:19:07Z</time>
      </trkpt>
      <trkpt lat="45.95992" lon="5.83581">
        <ele>257.81</ele>
        <time>2015-05-22T10:19:08Z</time>
      </trkpt>
      <trkpt lat="45.95993" lon="5.83584">
        <ele>257.99</ele>
        <time>2015-05-22T10:19:09Z</time>
      </trkpt>
      <trkpt lat="45.95995" lon="5.83588">
        <ele>258.15</ele>
        <time>2015-05-22T10:19:10Z</time>
      </trkpt>
      <trkpt lat="45.95997" lon="5.83591">
        <ele>258.28</ele>
        <time>2015-05-22T10:19:11Z</time>
      </trkpt>
      <trkpt lat="45.95999" lon="5.83594">
        <ele>258.41</ele>
        <time>2015-05-22T10:19:12Z</time>
      </trkpt>
      <trkpt lat="45.96002" lon="5.83596">
        <ele>258.54</ele>
        <time>2015-05-22T10:19:13Z</time>
      </trkpt>
      <trkpt lat="45.96004" lon="5.83598">
        <ele>258.65</ele>
        <time>2015-05-22T10:19:14Z</time>
      </trkpt>
      <trkpt lat="45.96006" lon="5.836">
        <ele>258.77</ele>
        <time>2015-05-22T10:19:15Z</time>
      </trkpt>
      <trkpt lat="45.96008" lon="5.83601">
        <ele>258.93</ele>
        <time>2015-05-22T10:19:16Z</time>
      </trkpt>
      <trkpt lat="45.96009" lon="5.83604">
        <ele>259.11</ele>
        <time>2015-05-22T10:19:17Z</time>
      </trkpt>
      <trkpt lat="45.96009" lon="5.83607">
        <ele>259.25</ele>
        <time>2015-05-22T10:19:18Z</time>
      </trkpt>
      <trkpt lat="45.96007" lon="5.83608">
        <ele>259.38</ele>
        <time>2015-05-22T10:19:19Z</time>
      </trkpt>
      <trkpt lat="45.96005" lon="5.83607">
        <ele>259.49</ele>
        <time>2015-05-22T10:19:20Z</time>
      </trkpt>
      <trkpt lat="45.96003" lon="5.83607">
        <ele>259.6</ele>
        <time>2015-05-22T10:19:21Z</time>
      </trkpt>
      <trkpt lat="45.96001" lon="5.83607">
        <ele>259.71</ele>
        <time>2015-05-22T10:19:22Z</time>
      </trkpt>
      <trkpt lat="45.95999" lon="5.83606">
        <ele>259.8</ele>
        <time>2015-05-22T10:19:23Z</time>
      </trkpt>
      <trkpt lat="45.95972" lon="5.83584">
        <ele>261.84</ele>
        <time>2015-05-22T10:19:35Z</time>
      </trkpt>
      <trkpt lat="45.95963" lon="5.83572">
        <ele>262.22</ele>
        <time>2015-05-22T10:19:40Z</time>
      </trkpt>
      <trkpt lat="45.95961" lon="5.8357">
        <ele>262.34</ele>
        <time>2015-05-22T10:19:41Z</time>
      </trkpt>
      <trkpt lat="45.95959" lon="5.83568">
        <ele>262.47</ele>
        <time>2015-05-22T10:19:42Z</time>
      </trkpt>
      <trkpt lat="45.95949" lon="5.83559">
        <ele>263.65</ele>
        <time>2015-05-22T10:19:48Z</time>
      </trkpt>
      <trkpt lat="45.95948" lon="5.8356">
        <ele>263.84</ele>
        <time>2015-05-22T10:19:49Z</time>
      </trkpt>
      <trkpt lat="45.95946" lon="5.8356">
        <ele>264.04</ele>
        <time>2015-05-22T10:19:50Z</time>
      </trkpt>
      <trkpt lat="45.95944" lon="5.83559">
        <ele>264.28</ele>
        <time>2015-05-22T10:19:51Z</time>
      </trkpt>
      <trkpt lat="45.95942" lon="5.83559">
        <ele>264.53</ele>
        <time>2015-05-22T10:19:52Z</time>
      </trkpt>
      <trkpt lat="45.95938" lon="5.83556">
        <ele>266.1</ele>
        <time>2015-05-22T10:19:56Z</time>
      </trkpt>
      <trkpt lat="45.95937" lon="5.83554">
        <ele>266.29</ele>
        <time>2015-05-22T10:19:57Z</time>
      </trkpt>
      <trkpt lat="45.95935" lon="5.83551">
        <ele>266.46</ele>
        <time>2015-05-22T10:19:58Z</time>
      </trkpt>
      <trkpt lat="45.95933" lon="5.83548">
        <ele>266.6</ele>
        <time>2015-05-22T10:19:59Z</time>
      </trkpt>
      <trkpt lat="45.95931" lon="5.83544">
        <ele>266.72</ele>
        <time>2015-05-22T10:20:00Z</time>
      </trkpt>
      <trkpt lat="45.95911" lon="5.83513">
        <ele>267.58</ele>
        <time>2015-05-22T10:20:12Z</time>
      </trkpt>
      <trkpt lat="45.95898" lon="5.83495">
        <ele>267.32</ele>
        <time>2015-05-22T10:20:26Z</time>
      </trkpt>
      <trkpt lat="45.95897" lon="5.83491">
        <ele>267.26</ele>
        <time>2015-05-22T10:20:28Z</time>
      </trkpt>
      <trkpt lat="45.95895" lon="5.83488">
        <ele>267.24</ele>
        <time>2015-05-22T10:20:29Z</time>
      </trkpt>
      <trkpt lat="45.95894" lon="5.83486">
        <ele>267.2</ele>
        <time>2015-05-22T10:20:30Z</time>
      </trkpt>
      <trkpt lat="45.95891" lon="5.83482">
        <ele>267.15</ele>
        <time>2015-05-22T10:20:31Z</time>
      </trkpt>
      <trkpt lat="45.95889" lon="5.83479">
        <ele>267.06</ele>
        <time>2015-05-22T10:20:32Z</time>
      </trkpt>
      <trkpt lat="45.95878" lon="5.83457">
        <ele>266.09</ele>
        <time>2015-05-22T10:20:42Z</time>
      </trkpt>
      <trkpt lat="45.95876" lon="5.83448">
        <ele>265.83</ele>
        <time>2015-05-22T10:20:45Z</time>
      </trkpt>
      <trkpt lat="45.95863" lon="5.83433">
        <ele>265.44</ele>
        <time>2015-05-22T10:20:50Z</time>
      </trkpt>
      <trkpt lat="45.95859" lon="5.83431">
        <ele>265.38</ele>
        <time>2015-05-22T10:20:51Z</time>
      </trkpt>
      <trkpt lat="45.95856" lon="5.83429">
        <ele>265.33</ele>
        <time>2015-05-22T10:20:52Z</time>
      </trkpt>
      <trkpt lat="45.95853" lon="5.83428">
        <ele>265.29</ele>
        <time>2015-05-22T10:20:53Z</time>
      </trkpt>
      <trkpt lat="45.9585" lon="5.83427">
        <ele>265.25</ele>
        <time>2015-05-22T10:20:54Z</time>
      </trkpt>
      <trkpt lat="45.95829" lon="5.83417">
        <ele>264.87</ele>
        <time>2015-05-22T10:21:04Z</time>
      </trkpt>
      <trkpt lat="45.95814" lon="5.83422">
        <ele>264.06</ele>
        <time>2015-05-22T10:21:14Z</time>
      </trkpt>
      <trkpt lat="45.95804" lon="5.83415">
        <ele>261.9</ele>
        <time>2015-05-22T10:21:20Z</time>
      </trkpt>
      <trkpt lat="45.95802" lon="5.8341">
        <ele>261.52</ele>
        <time>2015-05-22T10:21:21Z</time>
      </trkpt>
      <trkpt lat="45.958" lon="5.83405">
        <ele>261.17</ele>
        <time>2015-05-22T10:21:22Z</time>
      </trkpt>
      <trkpt lat="45.95781" lon="5.83391">
        <ele>260.83</ele>
        <time>2015-05-22T10:21:23Z</time>
      </trkpt>
      <trkpt lat="45.95773" lon="5.83387">
        <ele>260.45</ele>
        <time>2015-05-22T10:21:24Z</time>
      </trkpt>
      <trkpt lat="45.95769" lon="5.83386">
        <ele>260.06</ele>
        <time>2015-05-22T10:21:25Z</time>
      </trkpt>
      <trkpt lat="45.95765" lon="5.83387">
        <ele>259.7</ele>
        <time>2015-05-22T10:21:26Z</time>
      </trkpt>
      <trkpt lat="45.95763" lon="5.8339">
        <ele>259.41</ele>
        <time>2015-05-22T10:21:27Z</time>
      </trkpt>
      <trkpt lat="45.95762" lon="5.83393">
        <ele>259.17</ele>
        <time>2015-05-22T10:21:28Z</time>
      </trkpt>
      <trkpt lat="45.95759" lon="5.83396">
        <ele>258.98</ele>
        <time>2015-05-22T10:21:29Z</time>
      </trkpt>
      <trkpt lat="45.9574" lon="5.83422">
        <ele>258.18</ele>
        <time>2015-05-22T10:21:36Z</time>
      </trkpt>
      <trkpt lat="45.95708" lon="5.83439">
        <ele>257.53</ele>
        <time>2015-05-22T10:21:44Z</time>
      </trkpt>
      <trkpt lat="45.95704" lon="5.83435">
        <ele>257.48</ele>
        <time>2015-05-22T10:21:45Z</time>
      </trkpt>
      <trkpt lat="45.95702" lon="5.8343">
        <ele>257.46</ele>
        <time>2015-05-22T10:21:46Z</time>
      </trkpt>
      <trkpt lat="45.957" lon="5.83424">
        <ele>257.45</ele>
        <time>2015-05-22T10:21:47Z</time>
      </trkpt>
      <trkpt lat="45.95668" lon="5.834">
        <ele>257.2</ele>
        <time>2015-05-22T10:21:57Z</time>
      </trkpt>
      <trkpt lat="45.95664" lon="5.83403">
        <ele>257.19</ele>
        <time>2015-05-22T10:21:58Z</time>
      </trkpt>
      <trkpt lat="45.95607" lon="5.83438">
        <ele>256.72</ele>
        <time>2015-05-22T10:22:10Z</time>
      </trkpt>
      <trkpt lat="45.95602" lon="5.8344">
        <ele>256.8</ele>
        <time>2015-05-22T10:22:11Z</time>
      </trkpt>
      <trkpt lat="45.95592" lon="5.83445">
        <ele>257.04</ele>
        <time>2015-05-22T10:22:13Z</time>
      </trkpt>
      <trkpt lat="45.95522" lon="5.83488">
        <ele>257.54</ele>
        <time>2015-05-22T10:22:27Z</time>
      </trkpt>
      <trkpt lat="45.95447" lon="5.8352">
        <ele>257.3</ele>
        <time>2015-05-22T10:22:40Z</time>
      </trkpt>
      <trkpt lat="45.95418" lon="5.83533">
        <ele>257.2</ele>
        <time>2015-05-22T10:22:45Z</time>
      </trkpt>
      <trkpt lat="45.95407" lon="5.83539">
        <ele>257.15</ele>
        <time>2015-05-22T10:22:47Z</time>
      </trkpt>
      <trkpt lat="45.95401" lon="5.83541">
        <ele>257.13</ele>
        <time>2015-05-22T10:22:48Z</time>
      </trkpt>
      <trkpt lat="45.95394" lon="5.83542">
        <ele>257.12</ele>
        <time>2015-05-22T10:22:49Z</time>
      </trkpt>
      <trkpt lat="45.9532" lon="5.83568">
        <ele>256.68</ele>
        <time>2015-05-22T10:23:01Z</time>
      </trkpt>
      <trkpt lat="45.95227" lon="5.8361">
        <ele>256.51</ele>
        <time>2015-05-22T10:23:16Z</time>
      </trkpt>
      <trkpt lat="45.95142" lon="5.8365">
        <ele>256.39</ele>
        <time>2015-05-22T10:23:29Z</time>
      </trkpt>
      <trkpt lat="45.95066" lon="5.83683">
        <ele>256.95</ele>
        <time>2015-05-22T10:23:41Z</time>
      </trkpt>
      <trkpt lat="45.94988" lon="5.83707">
        <ele>257.93</ele>
        <time>2015-05-22T10:23:54Z</time>
      </trkpt>
      <trkpt lat="45.94899" lon="5.83725">
        <ele>256.48</ele>
        <time>2015-05-22T10:24:08Z</time>
      </trkpt>
      <trkpt lat="45.94807" lon="5.83741">
        <ele>256.5</ele>
        <time>2015-05-22T10:24:21Z</time>
      </trkpt>
      <trkpt lat="45.94689" lon="5.83755">
        <ele>256.39</ele>
        <time>2015-05-22T10:24:36Z</time>
      </trkpt>
      <trkpt lat="45.94566" lon="5.8375">
        <ele>256.96</ele>
        <time>2015-05-22T10:24:51Z</time>
      </trkpt>
      <trkpt lat="45.94493" lon="5.83735">
        <ele>257.48</ele>
        <time>2015-05-22T10:25:01Z</time>
      </trkpt>
      <trkpt lat="45.94391" lon="5.83691">
        <ele>258.04</ele>
        <time>2015-05-22T10:25:15Z</time>
      </trkpt>
      <trkpt lat="45.94355" lon="5.83671">
        <ele>257.79</ele>
        <time>2015-05-22T10:25:20Z</time>
      </trkpt>
      <trkpt lat="45.94349" lon="5.83666">
        <ele>257.77</ele>
        <time>2015-05-22T10:25:21Z</time>
      </trkpt>
      <trkpt lat="45.94302" lon="5.83616">
        <ele>257.47</ele>
        <time>2015-05-22T10:25:29Z</time>
      </trkpt>
      <trkpt lat="45.94236" lon="5.83557">
        <ele>257.61</ele>
        <time>2015-05-22T10:25:40Z</time>
      </trkpt>
      <trkpt lat="45.94151" lon="5.83498">
        <ele>257.02</ele>
        <time>2015-05-22T10:25:53Z</time>
      </trkpt>
      <trkpt lat="45.94017" lon="5.83428">
        <ele>256.72</ele>
        <time>2015-05-22T10:26:11Z</time>
      </trkpt>
      <trkpt lat="45.93885" lon="5.83374">
        <ele>256.65</ele>
        <time>2015-05-22T10:26:28Z</time>
      </trkpt>
      <trkpt lat="45.93789" lon="5.83343">
        <ele>257.1</ele>
        <time>2015-05-22T10:26:41Z</time>
      </trkpt>
      <trkpt lat="45.9369" lon="5.83326">
        <ele>257.22</ele>
        <time>2015-05-22T10:26:55Z</time>
      </trkpt>
      <trkpt lat="45.93676" lon="5.83329">
        <ele>257.42</ele>
        <time>2015-05-22T10:26:57Z</time>
      </trkpt>
      <trkpt lat="45.93657" lon="5.83337">
        <ele>257.57</ele>
        <time>2015-05-22T10:27:04Z</time>
      </trkpt>
      <trkpt lat="45.93657" lon="5.83339">
        <ele>256.75</ele>
        <time>2015-05-22T10:27:13Z</time>
      </trkpt>
      <trkpt lat="45.93657" lon="5.83333">
        <ele>247.87</ele>
        <time>2015-05-22T10:37:03Z</time>
      </trkpt>
      <trkpt lat="45.93658" lon="5.83331">
        <ele>247.87</ele>
        <time>2015-05-22T10:37:04Z</time>
      </trkpt>
      <trkpt lat="45.93657" lon="5.83338">
        <ele>248.51</ele>
        <time>2015-05-22T10:37:27Z</time>
      </trkpt>
      <trkpt lat="45.93655" lon="5.8334">
        <ele>248.49</ele>
        <time>2015-05-22T10:38:01Z</time>
      </trkpt>
      <trkpt lat="45.93653" lon="5.8334">
        <ele>248.5</ele>
        <time>2015-05-22T10:38:27Z</time>
      </trkpt>
      <trkpt lat="45.93651" lon="5.8334">
        <ele>248.71</ele>
        <time>2015-05-22T10:38:29Z</time>
      </trkpt>
      <trkpt lat="45.93618" lon="5.83362">
        <ele>248.77</ele>
        <time>2015-05-22T10:38:41Z</time>
      </trkpt>
      <trkpt lat="45.93614" lon="5.83365">
        <ele>248.81</ele>
        <time>2015-05-22T10:38:42Z</time>
      </trkpt>
      <trkpt lat="45.9361" lon="5.83368">
        <ele>248.86</ele>
        <time>2015-05-22T10:38:43Z</time>
      </trkpt>
      <trkpt lat="45.93606" lon="5.8337">
        <ele>248.92</ele>
        <time>2015-05-22T10:38:44Z</time>
      </trkpt>
      <trkpt lat="45.93598" lon="5.83375">
        <ele>248.99</ele>
        <time>2015-05-22T10:38:46Z</time>
      </trkpt>
      <trkpt lat="45.93559" lon="5.83407">
        <ele>249.37</ele>
        <time>2015-05-22T10:38:56Z</time>
      </trkpt>
      <trkpt lat="45.93517" lon="5.83451">
        <ele>249.64</ele>
        <time>2015-05-22T10:39:07Z</time>
      </trkpt>
      <trkpt lat="45.93513" lon="5.83456">
        <ele>249.68</ele>
        <time>2015-05-22T10:39:08Z</time>
      </trkpt>
      <trkpt lat="45.93507" lon="5.83466">
        <ele>249.76</ele>
        <time>2015-05-22T10:39:10Z</time>
      </trkpt>
      <trkpt lat="45.93504" lon="5.83472">
        <ele>249.8</ele>
        <time>2015-05-22T10:39:11Z</time>
      </trkpt>
      <trkpt lat="45.93499" lon="5.83484">
        <ele>249.88</ele>
        <time>2015-05-22T10:39:13Z</time>
      </trkpt>
      <trkpt lat="45.93491" lon="5.83499">
        <ele>249.98</ele>
        <time>2015-05-22T10:39:16Z</time>
      </trkpt>
      <trkpt lat="45.93487" lon="5.83504">
        <ele>250</ele>
        <time>2015-05-22T10:39:17Z</time>
      </trkpt>
      <trkpt lat="45.93482" lon="5.83507">
        <ele>250.01</ele>
        <time>2015-05-22T10:39:18Z</time>
      </trkpt>
      <trkpt lat="45.93478" lon="5.8351">
        <ele>249.98</ele>
        <time>2015-05-22T10:39:19Z</time>
      </trkpt>
      <trkpt lat="45.93473" lon="5.83512">
        <ele>249.81</ele>
        <time>2015-05-22T10:39:20Z</time>
      </trkpt>
      <trkpt lat="45.93468" lon="5.83513">
        <ele>249.72</ele>
        <time>2015-05-22T10:39:21Z</time>
      </trkpt>
      <trkpt lat="45.93457" lon="5.83521">
        <ele>249.32</ele>
        <time>2015-05-22T10:39:24Z</time>
      </trkpt>
      <trkpt lat="45.93456" lon="5.83527">
        <ele>249.2</ele>
        <time>2015-05-22T10:39:25Z</time>
      </trkpt>
      <trkpt lat="45.93456" lon="5.83534">
        <ele>249.1</ele>
        <time>2015-05-22T10:39:26Z</time>
      </trkpt>
      <trkpt lat="45.93457" lon="5.8354">
        <ele>249</ele>
        <time>2015-05-22T10:39:27Z</time>
      </trkpt>
      <trkpt lat="45.93457" lon="5.83546">
        <ele>248.96</ele>
        <time>2015-05-22T10:39:28Z</time>
      </trkpt>
      <trkpt lat="45.93457" lon="5.83558">
        <ele>248.99</ele>
        <time>2015-05-22T10:39:30Z</time>
      </trkpt>
      <trkpt lat="45.93456" lon="5.83571">
        <ele>249.1</ele>
        <time>2015-05-22T10:39:32Z</time>
      </trkpt>
      <trkpt lat="45.93456" lon="5.83615">
        <ele>249.62</ele>
        <time>2015-05-22T10:39:39Z</time>
      </trkpt>
      <trkpt lat="45.93457" lon="5.83621">
        <ele>249.68</ele>
        <time>2015-05-22T10:39:40Z</time>
      </trkpt>
      <trkpt lat="45.93456" lon="5.83664">
        <ele>249.63</ele>
        <time>2015-05-22T10:39:48Z</time>
      </trkpt>
      <trkpt lat="45.93454" lon="5.83666">
        <ele>249.61</ele>
        <time>2015-05-22T10:39:49Z</time>
      </trkpt>
      <trkpt lat="45.93451" lon="5.83667">
        <ele>249.6</ele>
        <time>2015-05-22T10:39:50Z</time>
      </trkpt>
      <trkpt lat="45.93421" lon="5.83671">
        <ele>249.95</ele>
        <time>2015-05-22T10:39:57Z</time>
      </trkpt>
      <trkpt lat="45.93346" lon="5.83677">
        <ele>251.31</ele>
        <time>2015-05-22T10:40:13Z</time>
      </trkpt>
      <trkpt lat="45.93332" lon="5.83678">
        <ele>251.8</ele>
        <time>2015-05-22T10:40:16Z</time>
      </trkpt>
      <trkpt lat="45.93316" lon="5.83675">
        <ele>252.35</ele>
        <time>2015-05-22T10:40:20Z</time>
      </trkpt>
      <trkpt lat="45.93311" lon="5.83674">
        <ele>252.46</ele>
        <time>2015-05-22T10:40:21Z</time>
      </trkpt>
      <trkpt lat="45.93262" lon="5.83649">
        <ele>254.12</ele>
        <time>2015-05-22T10:40:33Z</time>
      </trkpt>
      <trkpt lat="45.93209" lon="5.83616">
        <ele>255.23</ele>
        <time>2015-05-22T10:40:44Z</time>
      </trkpt>
      <trkpt lat="45.93205" lon="5.8361">
        <ele>255.24</ele>
        <time>2015-05-22T10:40:45Z</time>
      </trkpt>
      <trkpt lat="45.93202" lon="5.83604">
        <ele>255.27</ele>
        <time>2015-05-22T10:40:46Z</time>
      </trkpt>
      <trkpt lat="45.932" lon="5.83598">
        <ele>255.32</ele>
        <time>2015-05-22T10:40:47Z</time>
      </trkpt>
      <trkpt lat="45.93198" lon="5.8359">
        <ele>255.39</ele>
        <time>2015-05-22T10:40:48Z</time>
      </trkpt>
      <trkpt lat="45.93192" lon="5.83564">
        <ele>255.97</ele>
        <time>2015-05-22T10:40:52Z</time>
      </trkpt>
      <trkpt lat="45.93183" lon="5.83499">
        <ele>258.55</ele>
        <time>2015-05-22T10:41:05Z</time>
      </trkpt>
      <trkpt lat="45.93186" lon="5.83455">
        <ele>260.29</ele>
        <time>2015-05-22T10:41:15Z</time>
      </trkpt>
      <trkpt lat="45.93194" lon="5.83411">
        <ele>261.23</ele>
        <time>2015-05-22T10:41:25Z</time>
      </trkpt>
      <trkpt lat="45.93194" lon="5.83397">
        <ele>261.79</ele>
        <time>2015-05-22T10:41:28Z</time>
      </trkpt>
      <trkpt lat="45.93195" lon="5.83392">
        <ele>262.19</ele>
        <time>2015-05-22T10:41:29Z</time>
      </trkpt>
      <trkpt lat="45.93196" lon="5.83386">
        <ele>262.43</ele>
        <time>2015-05-22T10:41:30Z</time>
      </trkpt>
      <trkpt lat="45.93196" lon="5.8338">
        <ele>262.68</ele>
        <time>2015-05-22T10:41:31Z</time>
      </trkpt>
      <trkpt lat="45.93197" lon="5.83374">
        <ele>262.94</ele>
        <time>2015-05-22T10:41:32Z</time>
      </trkpt>
      <trkpt lat="45.93198" lon="5.83368">
        <ele>263.22</ele>
        <time>2015-05-22T10:41:33Z</time>
      </trkpt>
      <trkpt lat="45.93198" lon="5.83362">
        <ele>263.5</ele>
        <time>2015-05-22T10:41:34Z</time>
      </trkpt>
      <trkpt lat="45.93198" lon="5.83355">
        <ele>263.77</ele>
        <time>2015-05-22T10:41:35Z</time>
      </trkpt>
      <trkpt lat="45.93211" lon="5.8329">
        <ele>266.4</ele>
        <time>2015-05-22T10:41:46Z</time>
      </trkpt>
      <trkpt lat="45.93229" lon="5.83247">
        <ele>269.04</ele>
        <time>2015-05-22T10:41:57Z</time>
      </trkpt>
      <trkpt lat="45.93253" lon="5.83204">
        <ele>271.09</ele>
        <time>2015-05-22T10:42:09Z</time>
      </trkpt>
      <trkpt lat="45.93277" lon="5.83164">
        <ele>273.18</ele>
        <time>2015-05-22T10:42:20Z</time>
      </trkpt>
      <trkpt lat="45.9328" lon="5.83123">
        <ele>275.11</ele>
        <time>2015-05-22T10:42:30Z</time>
      </trkpt>
      <trkpt lat="45.93251" lon="5.83106">
        <ele>277.12</ele>
        <time>2015-05-22T10:42:40Z</time>
      </trkpt>
      <trkpt lat="45.93225" lon="5.83096">
        <ele>278.76</ele>
        <time>2015-05-22T10:42:50Z</time>
      </trkpt>
      <trkpt lat="45.93219" lon="5.83082">
        <ele>280.59</ele>
        <time>2015-05-22T10:42:57Z</time>
      </trkpt>
      <trkpt lat="45.93218" lon="5.8308">
        <ele>280.83</ele>
        <time>2015-05-22T10:42:58Z</time>
      </trkpt>
      <trkpt lat="45.93218" lon="5.83078">
        <ele>281.07</ele>
        <time>2015-05-22T10:42:59Z</time>
      </trkpt>
      <trkpt lat="45.93218" lon="5.83075">
        <ele>281.32</ele>
        <time>2015-05-22T10:43:00Z</time>
      </trkpt>
      <trkpt lat="45.93217" lon="5.83072">
        <ele>281.56</ele>
        <time>2015-05-22T10:43:01Z</time>
      </trkpt>
      <trkpt lat="45.93217" lon="5.83069">
        <ele>281.77</ele>
        <time>2015-05-22T10:43:02Z</time>
      </trkpt>
      <trkpt lat="45.93216" lon="5.83065">
        <ele>281.99</ele>
        <time>2015-05-22T10:43:03Z</time>
      </trkpt>
      <trkpt lat="45.93215" lon="5.83062">
        <ele>282.2</ele>
        <time>2015-05-22T10:43:04Z</time>
      </trkpt>
      <trkpt lat="45.93214" lon="5.83059">
        <ele>282.41</ele>
        <time>2015-05-22T10:43:05Z</time>
      </trkpt>
      <trkpt lat="45.93213" lon="5.83054">
        <ele>282.59</ele>
        <time>2015-05-22T10:43:06Z</time>
      </trkpt>
      <trkpt lat="45.93212" lon="5.83049">
        <ele>282.77</ele>
        <time>2015-05-22T10:43:07Z</time>
      </trkpt>
      <trkpt lat="45.93211" lon="5.83045">
        <ele>283.11</ele>
        <time>2015-05-22T10:43:08Z</time>
      </trkpt>
      <trkpt lat="45.9321" lon="5.83042">
        <ele>283.24</ele>
        <time>2015-05-22T10:43:09Z</time>
      </trkpt>
      <trkpt lat="45.93209" lon="5.83038">
        <ele>283.35</ele>
        <time>2015-05-22T10:43:10Z</time>
      </trkpt>
      <trkpt lat="45.93208" lon="5.83034">
        <ele>283.45</ele>
        <time>2015-05-22T10:43:11Z</time>
      </trkpt>
      <trkpt lat="45.93187" lon="5.82985">
        <ele>284.95</ele>
        <time>2015-05-22T10:43:21Z</time>
      </trkpt>
      <trkpt lat="45.93156" lon="5.8294">
        <ele>288.01</ele>
        <time>2015-05-22T10:43:33Z</time>
      </trkpt>
      <trkpt lat="45.93121" lon="5.82941">
        <ele>291.1</ele>
        <time>2015-05-22T10:43:44Z</time>
      </trkpt>
      <trkpt lat="45.9307" lon="5.82974">
        <ele>292.03</ele>
        <time>2015-05-22T10:43:59Z</time>
      </trkpt>
      <trkpt lat="45.92985" lon="5.83033">
        <ele>292.74</ele>
        <time>2015-05-22T10:44:17Z</time>
      </trkpt>
      <trkpt lat="45.92924" lon="5.83074">
        <ele>293.38</ele>
        <time>2015-05-22T10:44:30Z</time>
      </trkpt>
      <trkpt lat="45.92862" lon="5.83123">
        <ele>291.23</ele>
        <time>2015-05-22T10:44:44Z</time>
      </trkpt>
      <trkpt lat="45.92854" lon="5.83133">
        <ele>291.39</ele>
        <time>2015-05-22T10:44:46Z</time>
      </trkpt>
      <trkpt lat="45.92806" lon="5.83227">
        <ele>293.45</ele>
        <time>2015-05-22T10:45:00Z</time>
      </trkpt>
      <trkpt lat="45.92799" lon="5.83242">
        <ele>293.43</ele>
        <time>2015-05-22T10:45:02Z</time>
      </trkpt>
      <trkpt lat="45.92745" lon="5.83362">
        <ele>292.61</ele>
        <time>2015-05-22T10:45:17Z</time>
      </trkpt>
      <trkpt lat="45.9272" lon="5.83409">
        <ele>292.33</ele>
        <time>2015-05-22T10:45:23Z</time>
      </trkpt>
      <trkpt lat="45.92714" lon="5.83415">
        <ele>292.31</ele>
        <time>2015-05-22T10:45:24Z</time>
      </trkpt>
      <trkpt lat="45.92708" lon="5.8342">
        <ele>292.27</ele>
        <time>2015-05-22T10:45:25Z</time>
      </trkpt>
      <trkpt lat="45.92702" lon="5.83424">
        <ele>292.22</ele>
        <time>2015-05-22T10:45:26Z</time>
      </trkpt>
      <trkpt lat="45.92695" lon="5.83426">
        <ele>292.14</ele>
        <time>2015-05-22T10:45:27Z</time>
      </trkpt>
      <trkpt lat="45.92688" lon="5.83428">
        <ele>291.97</ele>
        <time>2015-05-22T10:45:28Z</time>
      </trkpt>
      <trkpt lat="45.92681" lon="5.83428">
        <ele>291.69</ele>
        <time>2015-05-22T10:45:29Z</time>
      </trkpt>
      <trkpt lat="45.92674" lon="5.83427">
        <ele>291.36</ele>
        <time>2015-05-22T10:45:30Z</time>
      </trkpt>
      <trkpt lat="45.92578" lon="5.83415">
        <ele>288.24</ele>
        <time>2015-05-22T10:45:42Z</time>
      </trkpt>
      <trkpt lat="45.92478" lon="5.83446">
        <ele>285.51</ele>
        <time>2015-05-22T10:45:54Z</time>
      </trkpt>
      <trkpt lat="45.92362" lon="5.83493">
        <ele>285.84</ele>
        <time>2015-05-22T10:46:09Z</time>
      </trkpt>
      <trkpt lat="45.92355" lon="5.83497">
        <ele>285.74</ele>
        <time>2015-05-22T10:46:10Z</time>
      </trkpt>
      <trkpt lat="45.92348" lon="5.83502">
        <ele>285.63</ele>
        <time>2015-05-22T10:46:11Z</time>
      </trkpt>
      <trkpt lat="45.92342" lon="5.83508">
        <ele>285.5</ele>
        <time>2015-05-22T10:46:12Z</time>
      </trkpt>
      <trkpt lat="45.92336" lon="5.83516">
        <ele>285.37</ele>
        <time>2015-05-22T10:46:13Z</time>
      </trkpt>
      <trkpt lat="45.92331" lon="5.83525">
        <ele>285.23</ele>
        <time>2015-05-22T10:46:14Z</time>
      </trkpt>
      <trkpt lat="45.92327" lon="5.83534">
        <ele>285.08</ele>
        <time>2015-05-22T10:46:15Z</time>
      </trkpt>
      <trkpt lat="45.92323" lon="5.83545">
        <ele>284.94</ele>
        <time>2015-05-22T10:46:16Z</time>
      </trkpt>
      <trkpt lat="45.9232" lon="5.83556">
        <ele>284.78</ele>
        <time>2015-05-22T10:46:17Z</time>
      </trkpt>
      <trkpt lat="45.92318" lon="5.83568">
        <ele>284.6</ele>
        <time>2015-05-22T10:46:18Z</time>
      </trkpt>
      <trkpt lat="45.92316" lon="5.8358">
        <ele>284.4</ele>
        <time>2015-05-22T10:46:19Z</time>
      </trkpt>
      <trkpt lat="45.92297" lon="5.83682">
        <ele>282.1</ele>
        <time>2015-05-22T10:46:27Z</time>
      </trkpt>
      <trkpt lat="45.92293" lon="5.83694">
        <ele>281.89</ele>
        <time>2015-05-22T10:46:28Z</time>
      </trkpt>
      <trkpt lat="45.92288" lon="5.83706">
        <ele>281.74</ele>
        <time>2015-05-22T10:46:29Z</time>
      </trkpt>
      <trkpt lat="45.92282" lon="5.83716">
        <ele>281.64</ele>
        <time>2015-05-22T10:46:30Z</time>
      </trkpt>
      <trkpt lat="45.92276" lon="5.83726">
        <ele>281.6</ele>
        <time>2015-05-22T10:46:31Z</time>
      </trkpt>
      <trkpt lat="45.92268" lon="5.83735">
        <ele>281.56</ele>
        <time>2015-05-22T10:46:32Z</time>
      </trkpt>
      <trkpt lat="45.92261" lon="5.83743">
        <ele>281.51</ele>
        <time>2015-05-22T10:46:33Z</time>
      </trkpt>
      <trkpt lat="45.92254" lon="5.83749">
        <ele>281.46</ele>
        <time>2015-05-22T10:46:34Z</time>
      </trkpt>
      <trkpt lat="45.92246" lon="5.83754">
        <ele>281.43</ele>
        <time>2015-05-22T10:46:35Z</time>
      </trkpt>
      <trkpt lat="45.92237" lon="5.83758">
        <ele>281.4</ele>
        <time>2015-05-22T10:46:36Z</time>
      </trkpt>
      <trkpt lat="45.92228" lon="5.83761">
        <ele>281.34</ele>
        <time>2015-05-22T10:46:37Z</time>
      </trkpt>
      <trkpt lat="45.92218" lon="5.83764">
        <ele>281.27</ele>
        <time>2015-05-22T10:46:38Z</time>
      </trkpt>
      <trkpt lat="45.92086" lon="5.83798">
        <ele>278.61</ele>
        <time>2015-05-22T10:46:53Z</time>
      </trkpt>
      <trkpt lat="45.9198" lon="5.83824">
        <ele>275.81</ele>
        <time>2015-05-22T10:47:06Z</time>
      </trkpt>
      <trkpt lat="45.91913" lon="5.83841">
        <ele>274.5</ele>
        <time>2015-05-22T10:47:16Z</time>
      </trkpt>
      <trkpt lat="45.91895" lon="5.83851">
        <ele>274.3</ele>
        <time>2015-05-22T10:47:19Z</time>
      </trkpt>
      <trkpt lat="45.9189" lon="5.83855">
        <ele>274.19</ele>
        <time>2015-05-22T10:47:20Z</time>
      </trkpt>
      <trkpt lat="45.91884" lon="5.83859">
        <ele>274.07</ele>
        <time>2015-05-22T10:47:21Z</time>
      </trkpt>
      <trkpt lat="45.9186" lon="5.83874">
        <ele>273.76</ele>
        <time>2015-05-22T10:47:25Z</time>
      </trkpt>
      <trkpt lat="45.91854" lon="5.83877">
        <ele>273.71</ele>
        <time>2015-05-22T10:47:26Z</time>
      </trkpt>
      <trkpt lat="45.91829" lon="5.83887">
        <ele>273.71</ele>
        <time>2015-05-22T10:47:30Z</time>
      </trkpt>
      <trkpt lat="45.91787" lon="5.83901">
        <ele>275.05</ele>
        <time>2015-05-22T10:47:40Z</time>
      </trkpt>
      <trkpt lat="45.91726" lon="5.83911">
        <ele>277.14</ele>
        <time>2015-05-22T10:47:53Z</time>
      </trkpt>
      <trkpt lat="45.91721" lon="5.83912">
        <ele>277.28</ele>
        <time>2015-05-22T10:47:54Z</time>
      </trkpt>
      <trkpt lat="45.91716" lon="5.83912">
        <ele>277.4</ele>
        <time>2015-05-22T10:47:55Z</time>
      </trkpt>
      <trkpt lat="45.9171" lon="5.83912">
        <ele>277.52</ele>
        <time>2015-05-22T10:47:56Z</time>
      </trkpt>
      <trkpt lat="45.91705" lon="5.83913">
        <ele>277.64</ele>
        <time>2015-05-22T10:47:57Z</time>
      </trkpt>
      <trkpt lat="45.917" lon="5.83912">
        <ele>277.77</ele>
        <time>2015-05-22T10:47:58Z</time>
      </trkpt>
      <trkpt lat="45.91695" lon="5.83912">
        <ele>277.92</ele>
        <time>2015-05-22T10:47:59Z</time>
      </trkpt>
      <trkpt lat="45.91685" lon="5.83913">
        <ele>278.2</ele>
        <time>2015-05-22T10:48:01Z</time>
      </trkpt>
      <trkpt lat="45.91621" lon="5.83922">
        <ele>280.02</ele>
        <time>2015-05-22T10:48:15Z</time>
      </trkpt>
      <trkpt lat="45.91546" lon="5.83934">
        <ele>280.9</ele>
        <time>2015-05-22T10:48:30Z</time>
      </trkpt>
      <trkpt lat="45.91463" lon="5.83948">
        <ele>281.39</ele>
        <time>2015-05-22T10:48:46Z</time>
      </trkpt>
      <trkpt lat="45.91364" lon="5.8395">
        <ele>281.97</ele>
        <time>2015-05-22T10:49:04Z</time>
      </trkpt>
      <trkpt lat="45.91292" lon="5.8394">
        <ele>282.83</ele>
        <time>2015-05-22T10:49:17Z</time>
      </trkpt>
      <trkpt lat="45.91274" lon="5.83937">
        <ele>283.04</ele>
        <time>2015-05-22T10:49:20Z</time>
      </trkpt>
      <trkpt lat="45.912" lon="5.83936">
        <ele>282.5</ele>
        <time>2015-05-22T10:49:32Z</time>
      </trkpt>
      <trkpt lat="45.91136" lon="5.83975">
        <ele>280.14</ele>
        <time>2015-05-22T10:49:40Z</time>
      </trkpt>
      <trkpt lat="45.91125" lon="5.83977">
        <ele>279.66</ele>
        <time>2015-05-22T10:49:41Z</time>
      </trkpt>
      <trkpt lat="45.91115" lon="5.83978">
        <ele>279.18</ele>
        <time>2015-05-22T10:49:42Z</time>
      </trkpt>
      <trkpt lat="45.91028" lon="5.83967">
        <ele>275.97</ele>
        <time>2015-05-22T10:49:50Z</time>
      </trkpt>
      <trkpt lat="45.91006" lon="5.83963">
        <ele>274.86</ele>
        <time>2015-05-22T10:49:52Z</time>
      </trkpt>
      <trkpt lat="45.90949" lon="5.83955">
        <ele>271.28</ele>
        <time>2015-05-22T10:49:57Z</time>
      </trkpt>
      <trkpt lat="45.90896" lon="5.83948">
        <ele>268.64</ele>
        <time>2015-05-22T10:50:02Z</time>
      </trkpt>
      <trkpt lat="45.90842" lon="5.83953">
        <ele>265.33</ele>
        <time>2015-05-22T10:50:07Z</time>
      </trkpt>
      <trkpt lat="45.90785" lon="5.83959">
        <ele>261.69</ele>
        <time>2015-05-22T10:50:12Z</time>
      </trkpt>
      <trkpt lat="45.9072" lon="5.83967">
        <ele>258.34</ele>
        <time>2015-05-22T10:50:18Z</time>
      </trkpt>
      <trkpt lat="45.90655" lon="5.83971">
        <ele>255.26</ele>
        <time>2015-05-22T10:50:24Z</time>
      </trkpt>
      <trkpt lat="45.90558" lon="5.83979">
        <ele>252.23</ele>
        <time>2015-05-22T10:50:34Z</time>
      </trkpt>
      <trkpt lat="45.905" lon="5.83981">
        <ele>248.9</ele>
        <time>2015-05-22T10:50:40Z</time>
      </trkpt>
      <trkpt lat="45.90395" lon="5.83995">
        <ele>245.88</ele>
        <time>2015-05-22T10:50:51Z</time>
      </trkpt>
      <trkpt lat="45.90265" lon="5.8403">
        <ele>243.16</ele>
        <time>2015-05-22T10:51:06Z</time>
      </trkpt>
      <trkpt lat="45.90114" lon="5.84069">
        <ele>243.12</ele>
        <time>2015-05-22T10:51:25Z</time>
      </trkpt>
      <trkpt lat="45.90002" lon="5.84102">
        <ele>243.35</ele>
        <time>2015-05-22T10:51:39Z</time>
      </trkpt>
      <trkpt lat="45.89829" lon="5.84152">
        <ele>243.25</ele>
        <time>2015-05-22T10:52:00Z</time>
      </trkpt>
      <trkpt lat="45.89648" lon="5.84204">
        <ele>243.43</ele>
        <time>2015-05-22T10:52:22Z</time>
      </trkpt>
      <trkpt lat="45.89488" lon="5.84249">
        <ele>243.21</ele>
        <time>2015-05-22T10:52:42Z</time>
      </trkpt>
      <trkpt lat="45.89365" lon="5.84281">
        <ele>243.94</ele>
        <time>2015-05-22T10:53:00Z</time>
      </trkpt>
      <trkpt lat="45.8934" lon="5.84287">
        <ele>243.81</ele>
        <time>2015-05-22T10:53:04Z</time>
      </trkpt>
      <trkpt lat="45.89277" lon="5.84311">
        <ele>244.6</ele>
        <time>2015-05-22T10:53:15Z</time>
      </trkpt>
      <trkpt lat="45.89272" lon="5.84313">
        <ele>244.69</ele>
        <time>2015-05-22T10:53:16Z</time>
      </trkpt>
      <trkpt lat="45.89201" lon="5.84333">
        <ele>244.99</ele>
        <time>2015-05-22T10:53:28Z</time>
      </trkpt>
      <trkpt lat="45.89177" lon="5.84339">
        <ele>245.18</ele>
        <time>2015-05-22T10:53:33Z</time>
      </trkpt>
      <trkpt lat="45.89173" lon="5.84342">
        <ele>245.2</ele>
        <time>2015-05-22T10:53:34Z</time>
      </trkpt>
      <trkpt lat="45.89171" lon="5.84345">
        <ele>245.21</ele>
        <time>2015-05-22T10:53:35Z</time>
      </trkpt>
      <trkpt lat="45.8917" lon="5.84348">
        <ele>245.21</ele>
        <time>2015-05-22T10:53:36Z</time>
      </trkpt>
      <trkpt lat="45.89171" lon="5.84351">
        <ele>245.21</ele>
        <time>2015-05-22T10:53:37Z</time>
      </trkpt>
      <trkpt lat="45.89172" lon="5.84352">
        <ele>245.21</ele>
        <time>2015-05-22T10:53:38Z</time>
      </trkpt>
      <trkpt lat="45.89175" lon="5.84356">
        <ele>245.5</ele>
        <time>2015-05-22T10:53:49Z</time>
      </trkpt>
      <trkpt lat="45.89172" lon="5.84349">
        <ele>245.5</ele>
        <time>2015-05-22T10:54:13Z</time>
      </trkpt>
      <trkpt lat="45.89168" lon="5.84346">
        <ele>245.18</ele>
        <time>2015-05-22T10:54:18Z</time>
      </trkpt>
      <trkpt lat="45.89166" lon="5.84345">
        <ele>245.11</ele>
        <time>2015-05-22T10:54:19Z</time>
      </trkpt>
      <trkpt lat="45.89163" lon="5.84344">
        <ele>245.04</ele>
        <time>2015-05-22T10:54:20Z</time>
      </trkpt>
      <trkpt lat="45.89159" lon="5.84343">
        <ele>245</ele>
        <time>2015-05-22T10:54:21Z</time>
      </trkpt>
      <trkpt lat="45.89155" lon="5.84342">
        <ele>244.96</ele>
        <time>2015-05-22T10:54:22Z</time>
      </trkpt>
      <trkpt lat="45.89124" lon="5.84332">
        <ele>244.84</ele>
        <time>2015-05-22T10:54:28Z</time>
      </trkpt>
      <trkpt lat="45.89114" lon="5.84328">
        <ele>244.79</ele>
        <time>2015-05-22T10:54:30Z</time>
      </trkpt>
      <trkpt lat="45.89047" lon="5.84302">
        <ele>244.08</ele>
        <time>2015-05-22T10:54:42Z</time>
      </trkpt>
      <trkpt lat="45.89034" lon="5.84302">
        <ele>244</ele>
        <time>2015-05-22T10:54:44Z</time>
      </trkpt>
      <trkpt lat="45.89022" lon="5.84301">
        <ele>243.89</ele>
        <time>2015-05-22T10:54:46Z</time>
      </trkpt>
      <trkpt lat="45.89016" lon="5.84301">
        <ele>243.85</ele>
        <time>2015-05-22T10:54:47Z</time>
      </trkpt>
      <trkpt lat="45.88982" lon="5.84302">
        <ele>243.59</ele>
        <time>2015-05-22T10:54:55Z</time>
      </trkpt>
      <trkpt lat="45.8898" lon="5.84302">
        <ele>243.75</ele>
        <time>2015-05-22T10:54:59Z</time>
      </trkpt>
      <trkpt lat="45.88987" lon="5.84301">
        <ele>244.05</ele>
        <time>2015-05-22T10:55:02Z</time>
      </trkpt>
      <trkpt lat="45.88991" lon="5.84301">
        <ele>244.17</ele>
        <time>2015-05-22T10:55:03Z</time>
      </trkpt>
      <trkpt lat="45.88994" lon="5.843">
        <ele>244.27</ele>
        <time>2015-05-22T10:55:04Z</time>
      </trkpt>
      <trkpt lat="45.88997" lon="5.84298">
        <ele>244.36</ele>
        <time>2015-05-22T10:55:05Z</time>
      </trkpt>
      <trkpt lat="45.89" lon="5.84296">
        <ele>244.4</ele>
        <time>2015-05-22T10:55:06Z</time>
      </trkpt>
      <trkpt lat="45.89002" lon="5.84293">
        <ele>244.43</ele>
        <time>2015-05-22T10:55:07Z</time>
      </trkpt>
      <trkpt lat="45.89003" lon="5.8429">
        <ele>244.43</ele>
        <time>2015-05-22T10:55:08Z</time>
      </trkpt>
      <trkpt lat="45.89002" lon="5.84287">
        <ele>244.38</ele>
        <time>2015-05-22T10:55:09Z</time>
      </trkpt>
      <trkpt lat="45.89002" lon="5.84283">
        <ele>244.28</ele>
        <time>2015-05-22T10:55:10Z</time>
      </trkpt>
      <trkpt lat="45.89001" lon="5.84279">
        <ele>244.17</ele>
        <time>2015-05-22T10:55:11Z</time>
      </trkpt>
      <trkpt lat="45.88993" lon="5.84236">
        <ele>242.52</ele>
        <time>2015-05-22T10:55:19Z</time>
      </trkpt>
      <trkpt lat="45.8899" lon="5.84224">
        <ele>242.18</ele>
        <time>2015-05-22T10:55:21Z</time>
      </trkpt>
      <trkpt lat="45.88989" lon="5.84218">
        <ele>242.06</ele>
        <time>2015-05-22T10:55:22Z</time>
      </trkpt>
      <trkpt lat="45.88987" lon="5.84205">
        <ele>241.92</ele>
        <time>2015-05-22T10:55:24Z</time>
      </trkpt>
      <trkpt lat="45.88985" lon="5.84184">
        <ele>241.89</ele>
        <time>2015-05-22T10:55:27Z</time>
      </trkpt>
      <trkpt lat="45.88974" lon="5.84083">
        <ele>240.11</ele>
        <time>2015-05-22T10:55:40Z</time>
      </trkpt>
      <trkpt lat="45.88969" lon="5.84039">
        <ele>240.13</ele>
        <time>2015-05-22T10:55:47Z</time>
      </trkpt>
      <trkpt lat="45.88967" lon="5.84035">
        <ele>240.05</ele>
        <time>2015-05-22T10:55:48Z</time>
      </trkpt>
      <trkpt lat="45.88963" lon="5.84034">
        <ele>239.96</ele>
        <time>2015-05-22T10:55:49Z</time>
      </trkpt>
      <trkpt lat="45.889" lon="5.84034">
        <ele>239.26</ele>
        <time>2015-05-22T10:56:01Z</time>
      </trkpt>
      <trkpt lat="45.88828" lon="5.84033">
        <ele>239.31</ele>
        <time>2015-05-22T10:56:13Z</time>
      </trkpt>
      <trkpt lat="45.88763" lon="5.84031">
        <ele>239.28</ele>
        <time>2015-05-22T10:56:23Z</time>
      </trkpt>
      <trkpt lat="45.88757" lon="5.84031">
        <ele>239.26</ele>
        <time>2015-05-22T10:56:24Z</time>
      </trkpt>
      <trkpt lat="45.88698" lon="5.8403">
        <ele>238.85</ele>
        <time>2015-05-22T10:56:33Z</time>
      </trkpt>
      <trkpt lat="45.88692" lon="5.84033">
        <ele>238.82</ele>
        <time>2015-05-22T10:56:34Z</time>
      </trkpt>
      <trkpt lat="45.88686" lon="5.84038">
        <ele>238.8</ele>
        <time>2015-05-22T10:56:35Z</time>
      </trkpt>
      <trkpt lat="45.88681" lon="5.84042">
        <ele>238.79</ele>
        <time>2015-05-22T10:56:36Z</time>
      </trkpt>
      <trkpt lat="45.88675" lon="5.84044">
        <ele>238.75</ele>
        <time>2015-05-22T10:56:37Z</time>
      </trkpt>
      <trkpt lat="45.88669" lon="5.84044">
        <ele>238.71</ele>
        <time>2015-05-22T10:56:38Z</time>
      </trkpt>
      <trkpt lat="45.88663" lon="5.84044">
        <ele>238.68</ele>
        <time>2015-05-22T10:56:39Z</time>
      </trkpt>
      <trkpt lat="45.88652" lon="5.84043">
        <ele>238.66</ele>
        <time>2015-05-22T10:56:41Z</time>
      </trkpt>
      <trkpt lat="45.88647" lon="5.84041">
        <ele>238.65</ele>
        <time>2015-05-22T10:56:42Z</time>
      </trkpt>
      <trkpt lat="45.88643" lon="5.84036">
        <ele>238.65</ele>
        <time>2015-05-22T10:56:43Z</time>
      </trkpt>
      <trkpt lat="45.8864" lon="5.8403">
        <ele>238.67</ele>
        <time>2015-05-22T10:56:44Z</time>
      </trkpt>
      <trkpt lat="45.88637" lon="5.84023">
        <ele>238.7</ele>
        <time>2015-05-22T10:56:45Z</time>
      </trkpt>
      <trkpt lat="45.88634" lon="5.84016">
        <ele>238.76</ele>
        <time>2015-05-22T10:56:46Z</time>
      </trkpt>
      <trkpt lat="45.88631" lon="5.8401">
        <ele>238.89</ele>
        <time>2015-05-22T10:56:47Z</time>
      </trkpt>
      <trkpt lat="45.88623" lon="5.83996">
        <ele>239.39</ele>
        <time>2015-05-22T10:56:49Z</time>
      </trkpt>
      <trkpt lat="45.88619" lon="5.8399">
        <ele>239.61</ele>
        <time>2015-05-22T10:56:50Z</time>
      </trkpt>
      <trkpt lat="45.88614" lon="5.83985">
        <ele>239.89</ele>
        <time>2015-05-22T10:56:51Z</time>
      </trkpt>
      <trkpt lat="45.88609" lon="5.83981">
        <ele>239.89</ele>
        <time>2015-05-22T10:56:52Z</time>
      </trkpt>
      <trkpt lat="45.88603" lon="5.83978">
        <ele>239.84</ele>
        <time>2015-05-22T10:56:53Z</time>
      </trkpt>
      <trkpt lat="45.88597" lon="5.83975">
        <ele>239.74</ele>
        <time>2015-05-22T10:56:54Z</time>
      </trkpt>
      <trkpt lat="45.88545" lon="5.83948">
        <ele>238.97</ele>
        <time>2015-05-22T10:57:02Z</time>
      </trkpt>
      <trkpt lat="45.88539" lon="5.83942">
        <ele>238.93</ele>
        <time>2015-05-22T10:57:03Z</time>
      </trkpt>
      <trkpt lat="45.88534" lon="5.83934">
        <ele>238.89</ele>
        <time>2015-05-22T10:57:04Z</time>
      </trkpt>
      <trkpt lat="45.8853" lon="5.83926">
        <ele>238.88</ele>
        <time>2015-05-22T10:57:05Z</time>
      </trkpt>
      <trkpt lat="45.88528" lon="5.83916">
        <ele>238.89</ele>
        <time>2015-05-22T10:57:06Z</time>
      </trkpt>
      <trkpt lat="45.88526" lon="5.83906">
        <ele>238.94</ele>
        <time>2015-05-22T10:57:07Z</time>
      </trkpt>
      <trkpt lat="45.88524" lon="5.83896">
        <ele>239</ele>
        <time>2015-05-22T10:57:08Z</time>
      </trkpt>
      <trkpt lat="45.88509" lon="5.83757">
        <ele>239.68</ele>
        <time>2015-05-22T10:57:22Z</time>
      </trkpt>
      <trkpt lat="45.88507" lon="5.8373">
        <ele>239.77</ele>
        <time>2015-05-22T10:57:25Z</time>
      </trkpt>
      <trkpt lat="45.885" lon="5.83697">
        <ele>239.71</ele>
        <time>2015-05-22T10:57:29Z</time>
      </trkpt>
      <trkpt lat="45.88497" lon="5.83689">
        <ele>239.63</ele>
        <time>2015-05-22T10:57:30Z</time>
      </trkpt>
      <trkpt lat="45.88493" lon="5.83682">
        <ele>239.51</ele>
        <time>2015-05-22T10:57:31Z</time>
      </trkpt>
      <trkpt lat="45.88488" lon="5.83676">
        <ele>239.36</ele>
        <time>2015-05-22T10:57:32Z</time>
      </trkpt>
      <trkpt lat="45.88483" lon="5.83671">
        <ele>239.21</ele>
        <time>2015-05-22T10:57:33Z</time>
      </trkpt>
      <trkpt lat="45.88477" lon="5.83667">
        <ele>239.08</ele>
        <time>2015-05-22T10:57:34Z</time>
      </trkpt>
      <trkpt lat="45.8847" lon="5.83665">
        <ele>238.97</ele>
        <time>2015-05-22T10:57:35Z</time>
      </trkpt>
      <trkpt lat="45.88464" lon="5.83663">
        <ele>238.89</ele>
        <time>2015-05-22T10:57:36Z</time>
      </trkpt>
      <trkpt lat="45.88458" lon="5.83662">
        <ele>238.84</ele>
        <time>2015-05-22T10:57:37Z</time>
      </trkpt>
      <trkpt lat="45.88434" lon="5.83659">
        <ele>238.99</ele>
        <time>2015-05-22T10:57:41Z</time>
      </trkpt>
      <trkpt lat="45.88416" lon="5.8365">
        <ele>239.03</ele>
        <time>2015-05-22T10:57:44Z</time>
      </trkpt>
      <trkpt lat="45.88412" lon="5.83644">
        <ele>239.01</ele>
        <time>2015-05-22T10:57:45Z</time>
      </trkpt>
      <trkpt lat="45.88408" lon="5.83637">
        <ele>238.97</ele>
        <time>2015-05-22T10:57:46Z</time>
      </trkpt>
      <trkpt lat="45.88405" lon="5.8363">
        <ele>238.94</ele>
        <time>2015-05-22T10:57:47Z</time>
      </trkpt>
      <trkpt lat="45.88402" lon="5.83622">
        <ele>238.91</ele>
        <time>2015-05-22T10:57:48Z</time>
      </trkpt>
      <trkpt lat="45.88396" lon="5.83608">
        <ele>238.79</ele>
        <time>2015-05-22T10:57:50Z</time>
      </trkpt>
      <trkpt lat="45.88392" lon="5.83602">
        <ele>238.73</ele>
        <time>2015-05-22T10:57:51Z</time>
      </trkpt>
      <trkpt lat="45.88388" lon="5.83598">
        <ele>238.65</ele>
        <time>2015-05-22T10:57:52Z</time>
      </trkpt>
      <trkpt lat="45.88384" lon="5.83594">
        <ele>238.55</ele>
        <time>2015-05-22T10:57:53Z</time>
      </trkpt>
      <trkpt lat="45.88379" lon="5.83593">
        <ele>238.48</ele>
        <time>2015-05-22T10:57:54Z</time>
      </trkpt>
      <trkpt lat="45.88373" lon="5.83593">
        <ele>238.41</ele>
        <time>2015-05-22T10:57:55Z</time>
      </trkpt>
      <trkpt lat="45.88367" lon="5.83593">
        <ele>238.36</ele>
        <time>2015-05-22T10:57:56Z</time>
      </trkpt>
      <trkpt lat="45.88346" lon="5.83593">
        <ele>238.27</ele>
        <time>2015-05-22T10:57:59Z</time>
      </trkpt>
      <trkpt lat="45.8834" lon="5.83591">
        <ele>238.24</ele>
        <time>2015-05-22T10:58:00Z</time>
      </trkpt>
      <trkpt lat="45.88333" lon="5.83587">
        <ele>238.21</ele>
        <time>2015-05-22T10:58:01Z</time>
      </trkpt>
      <trkpt lat="45.88328" lon="5.83582">
        <ele>238.15</ele>
        <time>2015-05-22T10:58:02Z</time>
      </trkpt>
      <trkpt lat="45.88323" lon="5.83577">
        <ele>238.09</ele>
        <time>2015-05-22T10:58:03Z</time>
      </trkpt>
      <trkpt lat="45.88318" lon="5.8357">
        <ele>238.01</ele>
        <time>2015-05-22T10:58:04Z</time>
      </trkpt>
      <trkpt lat="45.88314" lon="5.83564">
        <ele>237.95</ele>
        <time>2015-05-22T10:58:05Z</time>
      </trkpt>
      <trkpt lat="45.88311" lon="5.83558">
        <ele>237.9</ele>
        <time>2015-05-22T10:58:06Z</time>
      </trkpt>
      <trkpt lat="45.88308" lon="5.83552">
        <ele>237.83</ele>
        <time>2015-05-22T10:58:07Z</time>
      </trkpt>
      <trkpt lat="45.88307" lon="5.83546">
        <ele>237.8</ele>
        <time>2015-05-22T10:58:08Z</time>
      </trkpt>
      <trkpt lat="45.88301" lon="5.83533">
        <ele>237.88</ele>
        <time>2015-05-22T10:58:10Z</time>
      </trkpt>
      <trkpt lat="45.88297" lon="5.83525">
        <ele>237.96</ele>
        <time>2015-05-22T10:58:11Z</time>
      </trkpt>
      <trkpt lat="45.88289" lon="5.8351">
        <ele>238.08</ele>
        <time>2015-05-22T10:58:13Z</time>
      </trkpt>
      <trkpt lat="45.88284" lon="5.83502">
        <ele>238.13</ele>
        <time>2015-05-22T10:58:14Z</time>
      </trkpt>
      <trkpt lat="45.88279" lon="5.83496">
        <ele>238.24</ele>
        <time>2015-05-22T10:58:15Z</time>
      </trkpt>
      <trkpt lat="45.88273" lon="5.8349">
        <ele>238.36</ele>
        <time>2015-05-22T10:58:16Z</time>
      </trkpt>
      <trkpt lat="45.88267" lon="5.83484">
        <ele>238.48</ele>
        <time>2015-05-22T10:58:17Z</time>
      </trkpt>
      <trkpt lat="45.8826" lon="5.8348">
        <ele>238.59</ele>
        <time>2015-05-22T10:58:18Z</time>
      </trkpt>
      <trkpt lat="45.88254" lon="5.83476">
        <ele>238.7</ele>
        <time>2015-05-22T10:58:19Z</time>
      </trkpt>
      <trkpt lat="45.88216" lon="5.83455">
        <ele>239.16</ele>
        <time>2015-05-22T10:58:25Z</time>
      </trkpt>
      <trkpt lat="45.88134" lon="5.83414">
        <ele>238.98</ele>
        <time>2015-05-22T10:58:39Z</time>
      </trkpt>
      <trkpt lat="45.88072" lon="5.83383">
        <ele>238.93</ele>
        <time>2015-05-22T10:58:50Z</time>
      </trkpt>
      <trkpt lat="45.88067" lon="5.83379">
        <ele>238.9</ele>
        <time>2015-05-22T10:58:51Z</time>
      </trkpt>
      <trkpt lat="45.88056" lon="5.83372">
        <ele>238.85</ele>
        <time>2015-05-22T10:58:53Z</time>
      </trkpt>
      <trkpt lat="45.8805" lon="5.83369">
        <ele>238.83</ele>
        <time>2015-05-22T10:58:54Z</time>
      </trkpt>
      <trkpt lat="45.88045" lon="5.83368">
        <ele>238.82</ele>
        <time>2015-05-22T10:58:55Z</time>
      </trkpt>
      <trkpt lat="45.87997" lon="5.8336">
        <ele>238.82</ele>
        <time>2015-05-22T10:59:04Z</time>
      </trkpt>
      <trkpt lat="45.87924" lon="5.83355">
        <ele>238.37</ele>
        <time>2015-05-22T10:59:17Z</time>
      </trkpt>
      <trkpt lat="45.8788" lon="5.83352">
        <ele>237.66</ele>
        <time>2015-05-22T10:59:25Z</time>
      </trkpt>
      <trkpt lat="45.87875" lon="5.83349">
        <ele>237.65</ele>
        <time>2015-05-22T10:59:26Z</time>
      </trkpt>
      <trkpt lat="45.8787" lon="5.83344">
        <ele>237.64</ele>
        <time>2015-05-22T10:59:27Z</time>
      </trkpt>
      <trkpt lat="45.87867" lon="5.83339">
        <ele>237.63</ele>
        <time>2015-05-22T10:59:28Z</time>
      </trkpt>
      <trkpt lat="45.87865" lon="5.83333">
        <ele>237.61</ele>
        <time>2015-05-22T10:59:29Z</time>
      </trkpt>
      <trkpt lat="45.87863" lon="5.83327">
        <ele>237.58</ele>
        <time>2015-05-22T10:59:30Z</time>
      </trkpt>
      <trkpt lat="45.8786" lon="5.83317">
        <ele>237.53</ele>
        <time>2015-05-22T10:59:32Z</time>
      </trkpt>
      <trkpt lat="45.87857" lon="5.83303">
        <ele>237.49</ele>
        <time>2015-05-22T10:59:34Z</time>
      </trkpt>
      <trkpt lat="45.87855" lon="5.83288">
        <ele>237.48</ele>
        <time>2015-05-22T10:59:36Z</time>
      </trkpt>
      <trkpt lat="45.87853" lon="5.83281">
        <ele>237.48</ele>
        <time>2015-05-22T10:59:37Z</time>
      </trkpt>
      <trkpt lat="45.87818" lon="5.83176">
        <ele>237.96</ele>
        <time>2015-05-22T10:59:51Z</time>
      </trkpt>
      <trkpt lat="45.87817" lon="5.83168">
        <ele>237.96</ele>
        <time>2015-05-22T10:59:52Z</time>
      </trkpt>
      <trkpt lat="45.87815" lon="5.83151">
        <ele>237.95</ele>
        <time>2015-05-22T10:59:54Z</time>
      </trkpt>
      <trkpt lat="45.87815" lon="5.83142">
        <ele>237.94</ele>
        <time>2015-05-22T10:59:55Z</time>
      </trkpt>
      <trkpt lat="45.87816" lon="5.83134">
        <ele>237.92</ele>
        <time>2015-05-22T10:59:56Z</time>
      </trkpt>
      <trkpt lat="45.87817" lon="5.83126">
        <ele>237.89</ele>
        <time>2015-05-22T10:59:57Z</time>
      </trkpt>
      <trkpt lat="45.87819" lon="5.83119">
        <ele>237.85</ele>
        <time>2015-05-22T10:59:58Z</time>
      </trkpt>
      <trkpt lat="45.87822" lon="5.83112">
        <ele>237.82</ele>
        <time>2015-05-22T10:59:59Z</time>
      </trkpt>
      <trkpt lat="45.87825" lon="5.83105">
        <ele>237.79</ele>
        <time>2015-05-22T11:00:00Z</time>
      </trkpt>
      <trkpt lat="45.87828" lon="5.83099">
        <ele>237.77</ele>
        <time>2015-05-22T11:00:01Z</time>
      </trkpt>
      <trkpt lat="45.87855" lon="5.83054">
        <ele>238.25</ele>
        <time>2015-05-22T11:00:09Z</time>
      </trkpt>
      <trkpt lat="45.87867" lon="5.83039">
        <ele>238.32</ele>
        <time>2015-05-22T11:00:12Z</time>
      </trkpt>
      <trkpt lat="45.87871" lon="5.83034">
        <ele>238.29</ele>
        <time>2015-05-22T11:00:13Z</time>
      </trkpt>
      <trkpt lat="45.87874" lon="5.83028">
        <ele>238.26</ele>
        <time>2015-05-22T11:00:14Z</time>
      </trkpt>
      <trkpt lat="45.87876" lon="5.83022">
        <ele>238.23</ele>
        <time>2015-05-22T11:00:15Z</time>
      </trkpt>
      <trkpt lat="45.87878" lon="5.83016">
        <ele>238.18</ele>
        <time>2015-05-22T11:00:16Z</time>
      </trkpt>
      <trkpt lat="45.87879" lon="5.83008">
        <ele>238.14</ele>
        <time>2015-05-22T11:00:17Z</time>
      </trkpt>
      <trkpt lat="45.87879" lon="5.83">
        <ele>238.1</ele>
        <time>2015-05-22T11:00:18Z</time>
      </trkpt>
      <trkpt lat="45.87879" lon="5.82992">
        <ele>238.09</ele>
        <time>2015-05-22T11:00:19Z</time>
      </trkpt>
      <trkpt lat="45.87877" lon="5.82958">
        <ele>238.09</ele>
        <time>2015-05-22T11:00:23Z</time>
      </trkpt>
      <trkpt lat="45.87875" lon="5.82896">
        <ele>238.48</ele>
        <time>2015-05-22T11:00:30Z</time>
      </trkpt>
      <trkpt lat="45.87875" lon="5.82888">
        <ele>238.55</ele>
        <time>2015-05-22T11:00:31Z</time>
      </trkpt>
      <trkpt lat="45.87874" lon="5.82879">
        <ele>238.65</ele>
        <time>2015-05-22T11:00:32Z</time>
      </trkpt>
      <trkpt lat="45.87873" lon="5.82862">
        <ele>238.78</ele>
        <time>2015-05-22T11:00:34Z</time>
      </trkpt>
      <trkpt lat="45.87872" lon="5.82853">
        <ele>238.81</ele>
        <time>2015-05-22T11:00:35Z</time>
      </trkpt>
      <trkpt lat="45.87869" lon="5.82828">
        <ele>238.8</ele>
        <time>2015-05-22T11:00:38Z</time>
      </trkpt>
      <trkpt lat="45.87868" lon="5.82819">
        <ele>238.76</ele>
        <time>2015-05-22T11:00:39Z</time>
      </trkpt>
      <trkpt lat="45.87868" lon="5.82811">
        <ele>238.7</ele>
        <time>2015-05-22T11:00:40Z</time>
      </trkpt>
      <trkpt lat="45.87867" lon="5.82802">
        <ele>238.65</ele>
        <time>2015-05-22T11:00:41Z</time>
      </trkpt>
      <trkpt lat="45.87866" lon="5.82794">
        <ele>238.6</ele>
        <time>2015-05-22T11:00:42Z</time>
      </trkpt>
      <trkpt lat="45.87866" lon="5.82778">
        <ele>238.55</ele>
        <time>2015-05-22T11:00:44Z</time>
      </trkpt>
      <trkpt lat="45.87865" lon="5.8277">
        <ele>238.57</ele>
        <time>2015-05-22T11:00:45Z</time>
      </trkpt>
      <trkpt lat="45.87864" lon="5.82761">
        <ele>238.62</ele>
        <time>2015-05-22T11:00:46Z</time>
      </trkpt>
      <trkpt lat="45.87851" lon="5.82671">
        <ele>239.07</ele>
        <time>2015-05-22T11:00:57Z</time>
      </trkpt>
      <trkpt lat="45.87846" lon="5.82643">
        <ele>239.09</ele>
        <time>2015-05-22T11:01:01Z</time>
      </trkpt>
      <trkpt lat="45.87837" lon="5.82599">
        <ele>238.98</ele>
        <time>2015-05-22T11:01:08Z</time>
      </trkpt>
      <trkpt lat="45.87828" lon="5.82578">
        <ele>238.94</ele>
        <time>2015-05-22T11:01:12Z</time>
      </trkpt>
      <trkpt lat="45.87819" lon="5.82569">
        <ele>238.72</ele>
        <time>2015-05-22T11:01:14Z</time>
      </trkpt>
      <trkpt lat="45.87802" lon="5.82552">
        <ele>238.28</ele>
        <time>2015-05-22T11:01:18Z</time>
      </trkpt>
      <trkpt lat="45.87772" lon="5.82499">
        <ele>238.29</ele>
        <time>2015-05-22T11:01:28Z</time>
      </trkpt>
      <trkpt lat="45.87769" lon="5.82494">
        <ele>238.33</ele>
        <time>2015-05-22T11:01:29Z</time>
      </trkpt>
      <trkpt lat="45.87749" lon="5.82466">
        <ele>238.48</ele>
        <time>2015-05-22T11:01:33Z</time>
      </trkpt>
      <trkpt lat="45.87744" lon="5.8246">
        <ele>238.52</ele>
        <time>2015-05-22T11:01:34Z</time>
      </trkpt>
      <trkpt lat="45.8769" lon="5.82424">
        <ele>238.6</ele>
        <time>2015-05-22T11:01:43Z</time>
      </trkpt>
      <trkpt lat="45.87661" lon="5.8241">
        <ele>238.57</ele>
        <time>2015-05-22T11:01:48Z</time>
      </trkpt>
      <trkpt lat="45.87655" lon="5.82408">
        <ele>238.51</ele>
        <time>2015-05-22T11:01:49Z</time>
      </trkpt>
      <trkpt lat="45.87649" lon="5.82404">
        <ele>238.47</ele>
        <time>2015-05-22T11:01:50Z</time>
      </trkpt>
      <trkpt lat="45.87643" lon="5.82402">
        <ele>238.41</ele>
        <time>2015-05-22T11:01:51Z</time>
      </trkpt>
      <trkpt lat="45.87637" lon="5.82401">
        <ele>238.37</ele>
        <time>2015-05-22T11:01:52Z</time>
      </trkpt>
      <trkpt lat="45.87631" lon="5.824">
        <ele>238.31</ele>
        <time>2015-05-22T11:01:53Z</time>
      </trkpt>
      <trkpt lat="45.87625" lon="5.82398">
        <ele>238.26</ele>
        <time>2015-05-22T11:01:54Z</time>
      </trkpt>
      <trkpt lat="45.87618" lon="5.82398">
        <ele>238.25</ele>
        <time>2015-05-22T11:01:55Z</time>
      </trkpt>
      <trkpt lat="45.87612" lon="5.824">
        <ele>238.27</ele>
        <time>2015-05-22T11:01:56Z</time>
      </trkpt>
      <trkpt lat="45.87607" lon="5.82401">
        <ele>238.31</ele>
        <time>2015-05-22T11:01:57Z</time>
      </trkpt>
      <trkpt lat="45.87601" lon="5.82402">
        <ele>238.34</ele>
        <time>2015-05-22T11:01:58Z</time>
      </trkpt>
      <trkpt lat="45.87595" lon="5.82401">
        <ele>238.36</ele>
        <time>2015-05-22T11:01:59Z</time>
      </trkpt>
      <trkpt lat="45.87589" lon="5.82401">
        <ele>238.38</ele>
        <time>2015-05-22T11:02:00Z</time>
      </trkpt>
      <trkpt lat="45.87583" lon="5.824">
        <ele>238.39</ele>
        <time>2015-05-22T11:02:01Z</time>
      </trkpt>
      <trkpt lat="45.87565" lon="5.82393">
        <ele>238.38</ele>
        <time>2015-05-22T11:02:04Z</time>
      </trkpt>
      <trkpt lat="45.8756" lon="5.8239">
        <ele>238.37</ele>
        <time>2015-05-22T11:02:05Z</time>
      </trkpt>
      <trkpt lat="45.8755" lon="5.82381">
        <ele>238.34</ele>
        <time>2015-05-22T11:02:07Z</time>
      </trkpt>
      <trkpt lat="45.87525" lon="5.82359">
        <ele>238.04</ele>
        <time>2015-05-22T11:02:12Z</time>
      </trkpt>
      <trkpt lat="45.87519" lon="5.82357">
        <ele>237.99</ele>
        <time>2015-05-22T11:02:13Z</time>
      </trkpt>
      <trkpt lat="45.87514" lon="5.82355">
        <ele>237.94</ele>
        <time>2015-05-22T11:02:14Z</time>
      </trkpt>
      <trkpt lat="45.87508" lon="5.82355">
        <ele>237.91</ele>
        <time>2015-05-22T11:02:15Z</time>
      </trkpt>
      <trkpt lat="45.87501" lon="5.82355">
        <ele>237.89</ele>
        <time>2015-05-22T11:02:16Z</time>
      </trkpt>
      <trkpt lat="45.87495" lon="5.82357">
        <ele>237.86</ele>
        <time>2015-05-22T11:02:17Z</time>
      </trkpt>
      <trkpt lat="45.87489" lon="5.8236">
        <ele>237.84</ele>
        <time>2015-05-22T11:02:18Z</time>
      </trkpt>
      <trkpt lat="45.87483" lon="5.82363">
        <ele>237.83</ele>
        <time>2015-05-22T11:02:19Z</time>
      </trkpt>
      <trkpt lat="45.87467" lon="5.82373">
        <ele>237.76</ele>
        <time>2015-05-22T11:02:22Z</time>
      </trkpt>
      <trkpt lat="45.87462" lon="5.82374">
        <ele>237.76</ele>
        <time>2015-05-22T11:02:23Z</time>
      </trkpt>
      <trkpt lat="45.87456" lon="5.82375">
        <ele>237.76</ele>
        <time>2015-05-22T11:02:24Z</time>
      </trkpt>
      <trkpt lat="45.8745" lon="5.82375">
        <ele>237.76</ele>
        <time>2015-05-22T11:02:25Z</time>
      </trkpt>
      <trkpt lat="45.87445" lon="5.82373">
        <ele>237.75</ele>
        <time>2015-05-22T11:02:26Z</time>
      </trkpt>
      <trkpt lat="45.8744" lon="5.8237">
        <ele>237.76</ele>
        <time>2015-05-22T11:02:27Z</time>
      </trkpt>
      <trkpt lat="45.87435" lon="5.82365">
        <ele>237.78</ele>
        <time>2015-05-22T11:02:28Z</time>
      </trkpt>
      <trkpt lat="45.87431" lon="5.8236">
        <ele>237.8</ele>
        <time>2015-05-22T11:02:29Z</time>
      </trkpt>
      <trkpt lat="45.87428" lon="5.82354">
        <ele>237.81</ele>
        <time>2015-05-22T11:02:30Z</time>
      </trkpt>
      <trkpt lat="45.87425" lon="5.82349">
        <ele>237.83</ele>
        <time>2015-05-22T11:02:31Z</time>
      </trkpt>
      <trkpt lat="45.87422" lon="5.82344">
        <ele>237.85</ele>
        <time>2015-05-22T11:02:32Z</time>
      </trkpt>
      <trkpt lat="45.87404" lon="5.82316">
        <ele>237.9</ele>
        <time>2015-05-22T11:02:37Z</time>
      </trkpt>
      <trkpt lat="45.87395" lon="5.82306">
        <ele>237.9</ele>
        <time>2015-05-22T11:02:39Z</time>
      </trkpt>
      <trkpt lat="45.87391" lon="5.823">
        <ele>237.89</ele>
        <time>2015-05-22T11:02:40Z</time>
      </trkpt>
      <trkpt lat="45.87335" lon="5.82223">
        <ele>238.52</ele>
        <time>2015-05-22T11:02:52Z</time>
      </trkpt>
      <trkpt lat="45.87306" lon="5.82184">
        <ele>238.23</ele>
        <time>2015-05-22T11:02:59Z</time>
      </trkpt>
      <trkpt lat="45.873" lon="5.82179">
        <ele>238.23</ele>
        <time>2015-05-22T11:03:00Z</time>
      </trkpt>
      <trkpt lat="45.87295" lon="5.82176">
        <ele>238.24</ele>
        <time>2015-05-22T11:03:01Z</time>
      </trkpt>
      <trkpt lat="45.8729" lon="5.82173">
        <ele>238.24</ele>
        <time>2015-05-22T11:03:02Z</time>
      </trkpt>
      <trkpt lat="45.87284" lon="5.82171">
        <ele>238.25</ele>
        <time>2015-05-22T11:03:03Z</time>
      </trkpt>
      <trkpt lat="45.8726" lon="5.82163">
        <ele>238.39</ele>
        <time>2015-05-22T11:03:07Z</time>
      </trkpt>
      <trkpt lat="45.87255" lon="5.82163">
        <ele>238.44</ele>
        <time>2015-05-22T11:03:08Z</time>
      </trkpt>
      <trkpt lat="45.87251" lon="5.82164">
        <ele>238.48</ele>
        <time>2015-05-22T11:03:09Z</time>
      </trkpt>
      <trkpt lat="45.87247" lon="5.82166">
        <ele>238.5</ele>
        <time>2015-05-22T11:03:10Z</time>
      </trkpt>
      <trkpt lat="45.87232" lon="5.82171">
        <ele>238.51</ele>
        <time>2015-05-22T11:03:14Z</time>
      </trkpt>
      <trkpt lat="45.87148" lon="5.82139">
        <ele>238.66</ele>
        <time>2015-05-22T11:03:29Z</time>
      </trkpt>
      <trkpt lat="45.87089" lon="5.82117">
        <ele>238.86</ele>
        <time>2015-05-22T11:03:40Z</time>
      </trkpt>
      <trkpt lat="45.87063" lon="5.82117">
        <ele>238.89</ele>
        <time>2015-05-22T11:03:45Z</time>
      </trkpt>
      <trkpt lat="45.86994" lon="5.82116">
        <ele>239.17</ele>
        <time>2015-05-22T11:03:58Z</time>
      </trkpt>
      <trkpt lat="45.86979" lon="5.82114">
        <ele>239.2</ele>
        <time>2015-05-22T11:04:01Z</time>
      </trkpt>
      <trkpt lat="45.8694" lon="5.82105">
        <ele>238.97</ele>
        <time>2015-05-22T11:04:08Z</time>
      </trkpt>
      <trkpt lat="45.86878" lon="5.82088">
        <ele>238.8</ele>
        <time>2015-05-22T11:04:19Z</time>
      </trkpt>
      <trkpt lat="45.86831" lon="5.8206">
        <ele>239.08</ele>
        <time>2015-05-22T11:04:27Z</time>
      </trkpt>
      <trkpt lat="45.8681" lon="5.82049">
        <ele>239.03</ele>
        <time>2015-05-22T11:04:31Z</time>
      </trkpt>
      <trkpt lat="45.86784" lon="5.82031">
        <ele>238.73</ele>
        <time>2015-05-22T11:04:36Z</time>
      </trkpt>
      <trkpt lat="45.86774" lon="5.82025">
        <ele>238.6</ele>
        <time>2015-05-22T11:04:38Z</time>
      </trkpt>
      <trkpt lat="45.86723" lon="5.82008">
        <ele>238.64</ele>
        <time>2015-05-22T11:04:46Z</time>
      </trkpt>
      <trkpt lat="45.86627" lon="5.81966">
        <ele>238.52</ele>
        <time>2015-05-22T11:05:01Z</time>
      </trkpt>
      <trkpt lat="45.8662" lon="5.81964">
        <ele>238.49</ele>
        <time>2015-05-22T11:05:02Z</time>
      </trkpt>
      <trkpt lat="45.86614" lon="5.81963">
        <ele>238.45</ele>
        <time>2015-05-22T11:05:03Z</time>
      </trkpt>
      <trkpt lat="45.86607" lon="5.81963">
        <ele>238.41</ele>
        <time>2015-05-22T11:05:04Z</time>
      </trkpt>
      <trkpt lat="45.86601" lon="5.81965">
        <ele>238.38</ele>
        <time>2015-05-22T11:05:05Z</time>
      </trkpt>
      <trkpt lat="45.86595" lon="5.81966">
        <ele>238.34</ele>
        <time>2015-05-22T11:05:06Z</time>
      </trkpt>
      <trkpt lat="45.86588" lon="5.81966">
        <ele>238.3</ele>
        <time>2015-05-22T11:05:07Z</time>
      </trkpt>
      <trkpt lat="45.86582" lon="5.81965">
        <ele>238.26</ele>
        <time>2015-05-22T11:05:08Z</time>
      </trkpt>
      <trkpt lat="45.86576" lon="5.81963">
        <ele>238.24</ele>
        <time>2015-05-22T11:05:09Z</time>
      </trkpt>
      <trkpt lat="45.86569" lon="5.81961">
        <ele>238.24</ele>
        <time>2015-05-22T11:05:10Z</time>
      </trkpt>
      <trkpt lat="45.8652" lon="5.81942">
        <ele>238.25</ele>
        <time>2015-05-22T11:05:18Z</time>
      </trkpt>
      <trkpt lat="45.86514" lon="5.8194">
        <ele>238.24</ele>
        <time>2015-05-22T11:05:19Z</time>
      </trkpt>
      <trkpt lat="45.86488" lon="5.8193">
        <ele>237.92</ele>
        <time>2015-05-22T11:05:24Z</time>
      </trkpt>
      <trkpt lat="45.86483" lon="5.8193">
        <ele>237.84</ele>
        <time>2015-05-22T11:05:25Z</time>
      </trkpt>
      <trkpt lat="45.86479" lon="5.81933">
        <ele>237.78</ele>
        <time>2015-05-22T11:05:26Z</time>
      </trkpt>
      <trkpt lat="45.86475" lon="5.81938">
        <ele>237.72</ele>
        <time>2015-05-22T11:05:27Z</time>
      </trkpt>
      <trkpt lat="45.86473" lon="5.81944">
        <ele>237.69</ele>
        <time>2015-05-22T11:05:28Z</time>
      </trkpt>
      <trkpt lat="45.86471" lon="5.81951">
        <ele>237.65</ele>
        <time>2015-05-22T11:05:29Z</time>
      </trkpt>
      <trkpt lat="45.86471" lon="5.81958">
        <ele>237.61</ele>
        <time>2015-05-22T11:05:30Z</time>
      </trkpt>
      <trkpt lat="45.8647" lon="5.81964">
        <ele>237.58</ele>
        <time>2015-05-22T11:05:31Z</time>
      </trkpt>
      <trkpt lat="45.86469" lon="5.81971">
        <ele>237.55</ele>
        <time>2015-05-22T11:05:32Z</time>
      </trkpt>
      <trkpt lat="45.86468" lon="5.81978">
        <ele>237.51</ele>
        <time>2015-05-22T11:05:33Z</time>
      </trkpt>
      <trkpt lat="45.86467" lon="5.81986">
        <ele>237.45</ele>
        <time>2015-05-22T11:05:34Z</time>
      </trkpt>
      <trkpt lat="45.86466" lon="5.81993">
        <ele>237.4</ele>
        <time>2015-05-22T11:05:35Z</time>
      </trkpt>
      <trkpt lat="45.86465" lon="5.82001">
        <ele>237.33</ele>
        <time>2015-05-22T11:05:36Z</time>
      </trkpt>
      <trkpt lat="45.8645" lon="5.82098">
        <ele>236.87</ele>
        <time>2015-05-22T11:05:48Z</time>
      </trkpt>
      <trkpt lat="45.86431" lon="5.8221">
        <ele>236.35</ele>
        <time>2015-05-22T11:06:01Z</time>
      </trkpt>
      <trkpt lat="45.86419" lon="5.82316">
        <ele>236.91</ele>
        <time>2015-05-22T11:06:13Z</time>
      </trkpt>
      <trkpt lat="45.86414" lon="5.82377">
        <ele>236.7</ele>
        <time>2015-05-22T11:06:21Z</time>
      </trkpt>
      <trkpt lat="45.86414" lon="5.82384">
        <ele>236.63</ele>
        <time>2015-05-22T11:06:22Z</time>
      </trkpt>
      <trkpt lat="45.86414" lon="5.82389">
        <ele>236.57</ele>
        <time>2015-05-22T11:06:23Z</time>
      </trkpt>
      <trkpt lat="45.86413" lon="5.82395">
        <ele>236.5</ele>
        <time>2015-05-22T11:06:24Z</time>
      </trkpt>
      <trkpt lat="45.86411" lon="5.82401">
        <ele>236.42</ele>
        <time>2015-05-22T11:06:25Z</time>
      </trkpt>
      <trkpt lat="45.86406" lon="5.8241">
        <ele>236.31</ele>
        <time>2015-05-22T11:06:27Z</time>
      </trkpt>
      <trkpt lat="45.86401" lon="5.82411">
        <ele>236.28</ele>
        <time>2015-05-22T11:06:28Z</time>
      </trkpt>
      <trkpt lat="45.86385" lon="5.82409">
        <ele>236.19</ele>
        <time>2015-05-22T11:06:31Z</time>
      </trkpt>
      <trkpt lat="45.8635" lon="5.82405">
        <ele>236.21</ele>
        <time>2015-05-22T11:06:37Z</time>
      </trkpt>
      <trkpt lat="45.86267" lon="5.82397">
        <ele>236.57</ele>
        <time>2015-05-22T11:06:50Z</time>
      </trkpt>
      <trkpt lat="45.86242" lon="5.82393">
        <ele>236.59</ele>
        <time>2015-05-22T11:06:54Z</time>
      </trkpt>
      <trkpt lat="45.86236" lon="5.82392">
        <ele>236.59</ele>
        <time>2015-05-22T11:06:55Z</time>
      </trkpt>
      <trkpt lat="45.86217" lon="5.82389">
        <ele>236.55</ele>
        <time>2015-05-22T11:06:58Z</time>
      </trkpt>
      <trkpt lat="45.86211" lon="5.82389">
        <ele>236.52</ele>
        <time>2015-05-22T11:06:59Z</time>
      </trkpt>
      <trkpt lat="45.86206" lon="5.82388">
        <ele>236.5</ele>
        <time>2015-05-22T11:07:00Z</time>
      </trkpt>
      <trkpt lat="45.86173" lon="5.82378">
        <ele>236.52</ele>
        <time>2015-05-22T11:07:05Z</time>
      </trkpt>
      <trkpt lat="45.86097" lon="5.82324">
        <ele>237.02</ele>
        <time>2015-05-22T11:07:18Z</time>
      </trkpt>
      <trkpt lat="45.86084" lon="5.82314">
        <ele>236.99</ele>
        <time>2015-05-22T11:07:21Z</time>
      </trkpt>
      <trkpt lat="45.86075" lon="5.82308">
        <ele>236.89</ele>
        <time>2015-05-22T11:07:23Z</time>
      </trkpt>
      <trkpt lat="45.86064" lon="5.82302">
        <ele>236.77</ele>
        <time>2015-05-22T11:07:25Z</time>
      </trkpt>
      <trkpt lat="45.86059" lon="5.82298">
        <ele>236.7</ele>
        <time>2015-05-22T11:07:26Z</time>
      </trkpt>
      <trkpt lat="45.86054" lon="5.82294">
        <ele>236.63</ele>
        <time>2015-05-22T11:07:27Z</time>
      </trkpt>
      <trkpt lat="45.86044" lon="5.82286">
        <ele>236.47</ele>
        <time>2015-05-22T11:07:29Z</time>
      </trkpt>
      <trkpt lat="45.85967" lon="5.82245">
        <ele>235.07</ele>
        <time>2015-05-22T11:07:43Z</time>
      </trkpt>
      <trkpt lat="45.85963" lon="5.82243">
        <ele>235.01</ele>
        <time>2015-05-22T11:07:44Z</time>
      </trkpt>
      <trkpt lat="45.85952" lon="5.82242">
        <ele>234.88</ele>
        <time>2015-05-22T11:07:46Z</time>
      </trkpt>
      <trkpt lat="45.85876" lon="5.82214">
        <ele>235.55</ele>
        <time>2015-05-22T11:08:00Z</time>
      </trkpt>
      <trkpt lat="45.858" lon="5.82195">
        <ele>235.51</ele>
        <time>2015-05-22T11:08:14Z</time>
      </trkpt>
      <trkpt lat="45.85716" lon="5.82171">
        <ele>235.87</ele>
        <time>2015-05-22T11:08:29Z</time>
      </trkpt>
      <trkpt lat="45.85641" lon="5.82147">
        <ele>235.49</ele>
        <time>2015-05-22T11:08:42Z</time>
      </trkpt>
      <trkpt lat="45.85578" lon="5.82121">
        <ele>235.81</ele>
        <time>2015-05-22T11:08:52Z</time>
      </trkpt>
      <trkpt lat="45.85533" lon="5.82104">
        <ele>236.09</ele>
        <time>2015-05-22T11:08:59Z</time>
      </trkpt>
      <trkpt lat="45.85456" lon="5.82072">
        <ele>236.43</ele>
        <time>2015-05-22T11:09:11Z</time>
      </trkpt>
      <trkpt lat="45.85359" lon="5.82035">
        <ele>235.95</ele>
        <time>2015-05-22T11:09:26Z</time>
      </trkpt>
      <trkpt lat="45.85259" lon="5.82002">
        <ele>235.32</ele>
        <time>2015-05-22T11:09:42Z</time>
      </trkpt>
      <trkpt lat="45.85189" lon="5.81979">
        <ele>234.39</ele>
        <time>2015-05-22T11:09:54Z</time>
      </trkpt>
      <trkpt lat="45.85162" lon="5.81968">
        <ele>234.08</ele>
        <time>2015-05-22T11:10:00Z</time>
      </trkpt>
      <trkpt lat="45.85161" lon="5.81964">
        <ele>234.09</ele>
        <time>2015-05-22T11:10:01Z</time>
      </trkpt>
      <trkpt lat="45.85161" lon="5.81959">
        <ele>234.16</ele>
        <time>2015-05-22T11:10:02Z</time>
      </trkpt>
      <trkpt lat="45.85161" lon="5.81955">
        <ele>234.29</ele>
        <time>2015-05-22T11:10:03Z</time>
      </trkpt>
      <trkpt lat="45.85161" lon="5.8195">
        <ele>234.44</ele>
        <time>2015-05-22T11:10:04Z</time>
      </trkpt>
      <trkpt lat="45.85163" lon="5.81928">
        <ele>234.97</ele>
        <time>2015-05-22T11:10:08Z</time>
      </trkpt>
      <trkpt lat="45.85164" lon="5.81921">
        <ele>235.05</ele>
        <time>2015-05-22T11:10:09Z</time>
      </trkpt>
      <trkpt lat="45.85169" lon="5.81885">
        <ele>235.26</ele>
        <time>2015-05-22T11:10:14Z</time>
      </trkpt>
      <trkpt lat="45.85174" lon="5.81862">
        <ele>235.46</ele>
        <time>2015-05-22T11:10:17Z</time>
      </trkpt>
      <trkpt lat="45.85175" lon="5.81855">
        <ele>235.55</ele>
        <time>2015-05-22T11:10:18Z</time>
      </trkpt>
      <trkpt lat="45.85177" lon="5.81848">
        <ele>235.62</ele>
        <time>2015-05-22T11:10:19Z</time>
      </trkpt>
      <trkpt lat="45.85184" lon="5.81803">
        <ele>235.95</ele>
        <time>2015-05-22T11:10:25Z</time>
      </trkpt>
      <trkpt lat="45.85186" lon="5.81795">
        <ele>236</ele>
        <time>2015-05-22T11:10:26Z</time>
      </trkpt>
      <trkpt lat="45.85187" lon="5.81787">
        <ele>236.04</ele>
        <time>2015-05-22T11:10:27Z</time>
      </trkpt>
      <trkpt lat="45.85205" lon="5.81687">
        <ele>236.7</ele>
        <time>2015-05-22T11:10:39Z</time>
      </trkpt>
      <trkpt lat="45.8521" lon="5.81658">
        <ele>236.85</ele>
        <time>2015-05-22T11:10:43Z</time>
      </trkpt>
      <trkpt lat="45.85214" lon="5.8163">
        <ele>237</ele>
        <time>2015-05-22T11:10:47Z</time>
      </trkpt>
      <trkpt lat="45.85215" lon="5.81623">
        <ele>237.08</ele>
        <time>2015-05-22T11:10:48Z</time>
      </trkpt>
      <trkpt lat="45.85217" lon="5.81616">
        <ele>237.15</ele>
        <time>2015-05-22T11:10:49Z</time>
      </trkpt>
      <trkpt lat="45.85222" lon="5.81598">
        <ele>237.31</ele>
        <time>2015-05-22T11:10:52Z</time>
      </trkpt>
      <trkpt lat="45.85224" lon="5.81592">
        <ele>237.35</ele>
        <time>2015-05-22T11:10:53Z</time>
      </trkpt>
      <trkpt lat="45.85227" lon="5.81584">
        <ele>237.39</ele>
        <time>2015-05-22T11:10:54Z</time>
      </trkpt>
      <trkpt lat="45.85248" lon="5.81548">
        <ele>237.68</ele>
        <time>2015-05-22T11:11:01Z</time>
      </trkpt>
      <trkpt lat="45.85251" lon="5.81544">
        <ele>237.7</ele>
        <time>2015-05-22T11:11:02Z</time>
      </trkpt>
      <trkpt lat="45.85275" lon="5.815">
        <ele>237.45</ele>
        <time>2015-05-22T11:11:10Z</time>
      </trkpt>
      <trkpt lat="45.85278" lon="5.81493">
        <ele>237.37</ele>
        <time>2015-05-22T11:11:11Z</time>
      </trkpt>
      <trkpt lat="45.85282" lon="5.81488">
        <ele>237.22</ele>
        <time>2015-05-22T11:11:12Z</time>
      </trkpt>
      <trkpt lat="45.85318" lon="5.81409">
        <ele>236.58</ele>
        <time>2015-05-22T11:11:23Z</time>
      </trkpt>
      <trkpt lat="45.8533" lon="5.81386">
        <ele>236.82</ele>
        <time>2015-05-22T11:11:27Z</time>
      </trkpt>
      <trkpt lat="45.85332" lon="5.81379">
        <ele>236.82</ele>
        <time>2015-05-22T11:11:28Z</time>
      </trkpt>
      <trkpt lat="45.85336" lon="5.81366">
        <ele>237.04</ele>
        <time>2015-05-22T11:11:30Z</time>
      </trkpt>
      <trkpt lat="45.85339" lon="5.81352">
        <ele>237.18</ele>
        <time>2015-05-22T11:11:32Z</time>
      </trkpt>
      <trkpt lat="45.85339" lon="5.81345">
        <ele>237.24</ele>
        <time>2015-05-22T11:11:33Z</time>
      </trkpt>
      <trkpt lat="45.8534" lon="5.81338">
        <ele>237.27</ele>
        <time>2015-05-22T11:11:34Z</time>
      </trkpt>
      <trkpt lat="45.8534" lon="5.81331">
        <ele>237.27</ele>
        <time>2015-05-22T11:11:35Z</time>
      </trkpt>
      <trkpt lat="45.85342" lon="5.81322">
        <ele>237.23</ele>
        <time>2015-05-22T11:11:36Z</time>
      </trkpt>
      <trkpt lat="45.85347" lon="5.81288">
        <ele>237.15</ele>
        <time>2015-05-22T11:11:40Z</time>
      </trkpt>
      <trkpt lat="45.85341" lon="5.81204">
        <ele>237.71</ele>
        <time>2015-05-22T11:11:50Z</time>
      </trkpt>
      <trkpt lat="45.85339" lon="5.81196">
        <ele>237.74</ele>
        <time>2015-05-22T11:11:51Z</time>
      </trkpt>
      <trkpt lat="45.85306" lon="5.81097">
        <ele>237.91</ele>
        <time>2015-05-22T11:12:05Z</time>
      </trkpt>
      <trkpt lat="45.85263" lon="5.81001">
        <ele>237.18</ele>
        <time>2015-05-22T11:12:19Z</time>
      </trkpt>
      <trkpt lat="45.85198" lon="5.80916">
        <ele>237.13</ele>
        <time>2015-05-22T11:12:33Z</time>
      </trkpt>
      <trkpt lat="45.85123" lon="5.80835">
        <ele>236.45</ele>
        <time>2015-05-22T11:12:48Z</time>
      </trkpt>
      <trkpt lat="45.85038" lon="5.80792">
        <ele>236.09</ele>
        <time>2015-05-22T11:13:02Z</time>
      </trkpt>
      <trkpt lat="45.8497" lon="5.80764">
        <ele>236.16</ele>
        <time>2015-05-22T11:13:15Z</time>
      </trkpt>
      <trkpt lat="45.84966" lon="5.80762">
        <ele>236.08</ele>
        <time>2015-05-22T11:13:16Z</time>
      </trkpt>
      <trkpt lat="45.84961" lon="5.8076">
        <ele>235.97</ele>
        <time>2015-05-22T11:13:17Z</time>
      </trkpt>
      <trkpt lat="45.84891" lon="5.8073">
        <ele>237.29</ele>
        <time>2015-05-22T11:13:32Z</time>
      </trkpt>
      <trkpt lat="45.84868" lon="5.80748">
        <ele>238.31</ele>
        <time>2015-05-22T11:13:40Z</time>
      </trkpt>
      <trkpt lat="45.84847" lon="5.80772">
        <ele>237.3</ele>
        <time>2015-05-22T11:13:48Z</time>
      </trkpt>
      <trkpt lat="45.84844" lon="5.80771">
        <ele>237.21</ele>
        <time>2015-05-22T11:13:49Z</time>
      </trkpt>
      <trkpt lat="45.84841" lon="5.80769">
        <ele>237.13</ele>
        <time>2015-05-22T11:13:50Z</time>
      </trkpt>
      <trkpt lat="45.84839" lon="5.80767">
        <ele>237.1</ele>
        <time>2015-05-22T11:13:51Z</time>
      </trkpt>
      <trkpt lat="45.84838" lon="5.80763">
        <ele>237.07</ele>
        <time>2015-05-22T11:13:52Z</time>
      </trkpt>
      <trkpt lat="45.84837" lon="5.80759">
        <ele>237.07</ele>
        <time>2015-05-22T11:13:53Z</time>
      </trkpt>
      <trkpt lat="45.84834" lon="5.80756">
        <ele>237.09</ele>
        <time>2015-05-22T11:13:54Z</time>
      </trkpt>
      <trkpt lat="45.84831" lon="5.80753">
        <ele>237.11</ele>
        <time>2015-05-22T11:13:55Z</time>
      </trkpt>
      <trkpt lat="45.84828" lon="5.80751">
        <ele>237.13</ele>
        <time>2015-05-22T11:13:56Z</time>
      </trkpt>
      <trkpt lat="45.84824" lon="5.80749">
        <ele>237.13</ele>
        <time>2015-05-22T11:13:57Z</time>
      </trkpt>
      <trkpt lat="45.8482" lon="5.80749">
        <ele>237.13</ele>
        <time>2015-05-22T11:13:58Z</time>
      </trkpt>
      <trkpt lat="45.84815" lon="5.80749">
        <ele>237.08</ele>
        <time>2015-05-22T11:13:59Z</time>
      </trkpt>
      <trkpt lat="45.8481" lon="5.80751">
        <ele>237.01</ele>
        <time>2015-05-22T11:14:00Z</time>
      </trkpt>
      <trkpt lat="45.84805" lon="5.80752">
        <ele>236.91</ele>
        <time>2015-05-22T11:14:01Z</time>
      </trkpt>
      <trkpt lat="45.848" lon="5.80754">
        <ele>236.77</ele>
        <time>2015-05-22T11:14:02Z</time>
      </trkpt>
      <trkpt lat="45.84742" lon="5.80769">
        <ele>235.78</ele>
        <time>2015-05-22T11:14:14Z</time>
      </trkpt>
      <trkpt lat="45.84722" lon="5.80775">
        <ele>235.87</ele>
        <time>2015-05-22T11:14:18Z</time>
      </trkpt>
      <trkpt lat="45.8465" lon="5.80799">
        <ele>235.75</ele>
        <time>2015-05-22T11:14:30Z</time>
      </trkpt>
      <trkpt lat="45.84565" lon="5.80828">
        <ele>234.27</ele>
        <time>2015-05-22T11:14:44Z</time>
      </trkpt>
      <trkpt lat="45.84544" lon="5.80837">
        <ele>234.17</ele>
        <time>2015-05-22T11:14:48Z</time>
      </trkpt>
      <trkpt lat="45.84539" lon="5.8084">
        <ele>234.15</ele>
        <time>2015-05-22T11:14:49Z</time>
      </trkpt>
      <trkpt lat="45.84534" lon="5.80841">
        <ele>234.15</ele>
        <time>2015-05-22T11:14:50Z</time>
      </trkpt>
      <trkpt lat="45.84525" lon="5.80841">
        <ele>234.3</ele>
        <time>2015-05-22T11:14:52Z</time>
      </trkpt>
      <trkpt lat="45.84522" lon="5.80838">
        <ele>234.48</ele>
        <time>2015-05-22T11:14:53Z</time>
      </trkpt>
      <trkpt lat="45.84519" lon="5.80835">
        <ele>234.68</ele>
        <time>2015-05-22T11:14:54Z</time>
      </trkpt>
      <trkpt lat="45.84516" lon="5.80834">
        <ele>234.86</ele>
        <time>2015-05-22T11:14:55Z</time>
      </trkpt>
      <trkpt lat="45.84511" lon="5.80835">
        <ele>235.04</ele>
        <time>2015-05-22T11:14:56Z</time>
      </trkpt>
      <trkpt lat="45.84507" lon="5.80837">
        <ele>235.42</ele>
        <time>2015-05-22T11:14:57Z</time>
      </trkpt>
      <trkpt lat="45.84502" lon="5.8084">
        <ele>235.42</ele>
        <time>2015-05-22T11:14:58Z</time>
      </trkpt>
      <trkpt lat="45.84497" lon="5.80843">
        <ele>235.7</ele>
        <time>2015-05-22T11:14:59Z</time>
      </trkpt>
      <trkpt lat="45.84425" lon="5.80898">
        <ele>236.86</ele>
        <time>2015-05-22T11:15:13Z</time>
      </trkpt>
      <trkpt lat="45.84411" lon="5.80909">
        <ele>236.86</ele>
        <time>2015-05-22T11:15:16Z</time>
      </trkpt>
      <trkpt lat="45.84406" lon="5.80912">
        <ele>236.83</ele>
        <time>2015-05-22T11:15:17Z</time>
      </trkpt>
      <trkpt lat="45.84401" lon="5.80912">
        <ele>236.7</ele>
        <time>2015-05-22T11:15:18Z</time>
      </trkpt>
      <trkpt lat="45.84397" lon="5.80911">
        <ele>236.54</ele>
        <time>2015-05-22T11:15:19Z</time>
      </trkpt>
      <trkpt lat="45.84386" lon="5.80881">
        <ele>235.77</ele>
        <time>2015-05-22T11:15:25Z</time>
      </trkpt>
      <trkpt lat="45.84369" lon="5.8088">
        <ele>235.51</ele>
        <time>2015-05-22T11:15:29Z</time>
      </trkpt>
      <trkpt lat="45.84317" lon="5.80898">
        <ele>235.18</ele>
        <time>2015-05-22T11:15:39Z</time>
      </trkpt>
      <trkpt lat="45.84278" lon="5.80903">
        <ele>235.06</ele>
        <time>2015-05-22T11:15:46Z</time>
      </trkpt>
      <trkpt lat="45.84258" lon="5.80901">
        <ele>235.15</ele>
        <time>2015-05-22T11:15:49Z</time>
      </trkpt>
      <trkpt lat="45.84231" lon="5.80892">
        <ele>235.36</ele>
        <time>2015-05-22T11:15:53Z</time>
      </trkpt>
      <trkpt lat="45.84138" lon="5.80856">
        <ele>236.21</ele>
        <time>2015-05-22T11:16:08Z</time>
      </trkpt>
      <trkpt lat="45.84079" lon="5.80856">
        <ele>235.51</ele>
        <time>2015-05-22T11:16:18Z</time>
      </trkpt>
      <trkpt lat="45.83986" lon="5.8086">
        <ele>235.21</ele>
        <time>2015-05-22T11:16:33Z</time>
      </trkpt>
      <trkpt lat="45.83968" lon="5.80858">
        <ele>235</ele>
        <time>2015-05-22T11:16:36Z</time>
      </trkpt>
      <trkpt lat="45.83931" lon="5.80848">
        <ele>235.12</ele>
        <time>2015-05-22T11:16:42Z</time>
      </trkpt>
      <trkpt lat="45.83906" lon="5.80853">
        <ele>235.33</ele>
        <time>2015-05-22T11:16:46Z</time>
      </trkpt>
      <trkpt lat="45.839" lon="5.80858">
        <ele>235.41</ele>
        <time>2015-05-22T11:16:47Z</time>
      </trkpt>
      <trkpt lat="45.83896" lon="5.80864">
        <ele>235.48</ele>
        <time>2015-05-22T11:16:48Z</time>
      </trkpt>
      <trkpt lat="45.83891" lon="5.8087">
        <ele>235.55</ele>
        <time>2015-05-22T11:16:49Z</time>
      </trkpt>
      <trkpt lat="45.83863" lon="5.80906">
        <ele>235.73</ele>
        <time>2015-05-22T11:16:55Z</time>
      </trkpt>
      <trkpt lat="45.83857" lon="5.8091">
        <ele>235.73</ele>
        <time>2015-05-22T11:16:56Z</time>
      </trkpt>
      <trkpt lat="45.83852" lon="5.80914">
        <ele>235.73</ele>
        <time>2015-05-22T11:16:57Z</time>
      </trkpt>
      <trkpt lat="45.83845" lon="5.80917">
        <ele>235.73</ele>
        <time>2015-05-22T11:16:58Z</time>
      </trkpt>
      <trkpt lat="45.83839" lon="5.80919">
        <ele>235.69</ele>
        <time>2015-05-22T11:16:59Z</time>
      </trkpt>
      <trkpt lat="45.83764" lon="5.80932">
        <ele>234.91</ele>
        <time>2015-05-22T11:17:11Z</time>
      </trkpt>
      <trkpt lat="45.83724" lon="5.80941">
        <ele>235.16</ele>
        <time>2015-05-22T11:17:18Z</time>
      </trkpt>
      <trkpt lat="45.83667" lon="5.80936">
        <ele>235.17</ele>
        <time>2015-05-22T11:17:27Z</time>
      </trkpt>
      <trkpt lat="45.83635" lon="5.80938">
        <ele>235.05</ele>
        <time>2015-05-22T11:17:32Z</time>
      </trkpt>
      <trkpt lat="45.83628" lon="5.80937">
        <ele>235.01</ele>
        <time>2015-05-22T11:17:33Z</time>
      </trkpt>
      <trkpt lat="45.83582" lon="5.80925">
        <ele>234.86</ele>
        <time>2015-05-22T11:17:40Z</time>
      </trkpt>
      <trkpt lat="45.83564" lon="5.80913">
        <ele>235.11</ele>
        <time>2015-05-22T11:17:44Z</time>
      </trkpt>
      <trkpt lat="45.83556" lon="5.80908">
        <ele>235.29</ele>
        <time>2015-05-22T11:17:46Z</time>
      </trkpt>
      <trkpt lat="45.83542" lon="5.809">
        <ele>235.47</ele>
        <time>2015-05-22T11:17:49Z</time>
      </trkpt>
      <trkpt lat="45.83524" lon="5.80893">
        <ele>235.32</ele>
        <time>2015-05-22T11:17:53Z</time>
      </trkpt>
      <trkpt lat="45.83521" lon="5.8089">
        <ele>235.28</ele>
        <time>2015-05-22T11:17:54Z</time>
      </trkpt>
      <trkpt lat="45.8352" lon="5.80886">
        <ele>235.24</ele>
        <time>2015-05-22T11:17:55Z</time>
      </trkpt>
      <trkpt lat="45.83521" lon="5.8088">
        <ele>235.23</ele>
        <time>2015-05-22T11:17:56Z</time>
      </trkpt>
      <trkpt lat="45.83522" lon="5.80875">
        <ele>235.28</ele>
        <time>2015-05-22T11:17:57Z</time>
      </trkpt>
      <trkpt lat="45.83524" lon="5.8087">
        <ele>235.4</ele>
        <time>2015-05-22T11:17:58Z</time>
      </trkpt>
      <trkpt lat="45.83527" lon="5.8086">
        <ele>235.59</ele>
        <time>2015-05-22T11:18:00Z</time>
      </trkpt>
      <trkpt lat="45.83529" lon="5.80855">
        <ele>235.68</ele>
        <time>2015-05-22T11:18:01Z</time>
      </trkpt>
      <trkpt lat="45.83548" lon="5.80798">
        <ele>235.26</ele>
        <time>2015-05-22T11:18:10Z</time>
      </trkpt>
      <trkpt lat="45.83564" lon="5.80745">
        <ele>235.61</ele>
        <time>2015-05-22T11:18:19Z</time>
      </trkpt>
      <trkpt lat="45.83564" lon="5.80738">
        <ele>235.75</ele>
        <time>2015-05-22T11:18:20Z</time>
      </trkpt>
      <trkpt lat="45.83563" lon="5.80732">
        <ele>235.89</ele>
        <time>2015-05-22T11:18:21Z</time>
      </trkpt>
      <trkpt lat="45.83562" lon="5.80726">
        <ele>236.01</ele>
        <time>2015-05-22T11:18:22Z</time>
      </trkpt>
      <trkpt lat="45.8356" lon="5.80721">
        <ele>236.14</ele>
        <time>2015-05-22T11:18:23Z</time>
      </trkpt>
      <trkpt lat="45.83557" lon="5.80716">
        <ele>236.25</ele>
        <time>2015-05-22T11:18:24Z</time>
      </trkpt>
      <trkpt lat="45.83554" lon="5.8071">
        <ele>236.35</ele>
        <time>2015-05-22T11:18:25Z</time>
      </trkpt>
      <trkpt lat="45.83551" lon="5.80705">
        <ele>236.45</ele>
        <time>2015-05-22T11:18:26Z</time>
      </trkpt>
      <trkpt lat="45.83542" lon="5.80688">
        <ele>236.61</ele>
        <time>2015-05-22T11:18:29Z</time>
      </trkpt>
      <trkpt lat="45.83536" lon="5.80677">
        <ele>236.46</ele>
        <time>2015-05-22T11:18:31Z</time>
      </trkpt>
      <trkpt lat="45.83519" lon="5.80637">
        <ele>235.53</ele>
        <time>2015-05-22T11:18:37Z</time>
      </trkpt>
      <trkpt lat="45.83515" lon="5.80629">
        <ele>235.39</ele>
        <time>2015-05-22T11:18:38Z</time>
      </trkpt>
      <trkpt lat="45.83511" lon="5.80622">
        <ele>235.19</ele>
        <time>2015-05-22T11:18:39Z</time>
      </trkpt>
      <trkpt lat="45.83508" lon="5.80615">
        <ele>235.14</ele>
        <time>2015-05-22T11:18:40Z</time>
      </trkpt>
      <trkpt lat="45.83506" lon="5.80609">
        <ele>235.1</ele>
        <time>2015-05-22T11:18:41Z</time>
      </trkpt>
      <trkpt lat="45.83502" lon="5.80602">
        <ele>235.07</ele>
        <time>2015-05-22T11:18:42Z</time>
      </trkpt>
      <trkpt lat="45.83499" lon="5.80596">
        <ele>235.05</ele>
        <time>2015-05-22T11:18:43Z</time>
      </trkpt>
      <trkpt lat="45.83496" lon="5.80588">
        <ele>235.04</ele>
        <time>2015-05-22T11:18:44Z</time>
      </trkpt>
      <trkpt lat="45.83493" lon="5.8058">
        <ele>235.01</ele>
        <time>2015-05-22T11:18:45Z</time>
      </trkpt>
      <trkpt lat="45.83492" lon="5.80571">
        <ele>235</ele>
        <time>2015-05-22T11:18:46Z</time>
      </trkpt>
      <trkpt lat="45.83489" lon="5.80545">
        <ele>234.99</ele>
        <time>2015-05-22T11:18:49Z</time>
      </trkpt>
      <trkpt lat="45.83487" lon="5.80536">
        <ele>235</ele>
        <time>2015-05-22T11:18:50Z</time>
      </trkpt>
      <trkpt lat="45.83487" lon="5.80526">
        <ele>235.03</ele>
        <time>2015-05-22T11:18:51Z</time>
      </trkpt>
      <trkpt lat="45.83485" lon="5.80516">
        <ele>235.05</ele>
        <time>2015-05-22T11:18:52Z</time>
      </trkpt>
      <trkpt lat="45.83484" lon="5.80506">
        <ele>235.07</ele>
        <time>2015-05-22T11:18:53Z</time>
      </trkpt>
      <trkpt lat="45.83482" lon="5.80498">
        <ele>235.11</ele>
        <time>2015-05-22T11:18:54Z</time>
      </trkpt>
      <trkpt lat="45.83479" lon="5.80491">
        <ele>235.19</ele>
        <time>2015-05-22T11:18:55Z</time>
      </trkpt>
      <trkpt lat="45.83476" lon="5.80484">
        <ele>235.33</ele>
        <time>2015-05-22T11:18:56Z</time>
      </trkpt>
      <trkpt lat="45.83473" lon="5.80478">
        <ele>235.5</ele>
        <time>2015-05-22T11:18:57Z</time>
      </trkpt>
      <trkpt lat="45.83464" lon="5.80462">
        <ele>235.87</ele>
        <time>2015-05-22T11:19:00Z</time>
      </trkpt>
      <trkpt lat="45.83461" lon="5.80458">
        <ele>235.96</ele>
        <time>2015-05-22T11:19:01Z</time>
      </trkpt>
      <trkpt lat="45.83457" lon="5.80455">
        <ele>236.03</ele>
        <time>2015-05-22T11:19:02Z</time>
      </trkpt>
      <trkpt lat="45.83454" lon="5.80452">
        <ele>236.15</ele>
        <time>2015-05-22T11:19:03Z</time>
      </trkpt>
      <trkpt lat="45.83451" lon="5.8045">
        <ele>236.15</ele>
        <time>2015-05-22T11:19:04Z</time>
      </trkpt>
      <trkpt lat="45.83447" lon="5.80445">
        <ele>236.29</ele>
        <time>2015-05-22T11:19:05Z</time>
      </trkpt>
      <trkpt lat="45.83444" lon="5.80441">
        <ele>236.34</ele>
        <time>2015-05-22T11:19:06Z</time>
      </trkpt>
      <trkpt lat="45.83417" lon="5.80407">
        <ele>236.59</ele>
        <time>2015-05-22T11:19:13Z</time>
      </trkpt>
      <trkpt lat="45.83414" lon="5.80403">
        <ele>236.61</ele>
        <time>2015-05-22T11:19:14Z</time>
      </trkpt>
      <trkpt lat="45.83411" lon="5.80399">
        <ele>236.62</ele>
        <time>2015-05-22T11:19:15Z</time>
      </trkpt>
      <trkpt lat="45.83399" lon="5.80382">
        <ele>236.64</ele>
        <time>2015-05-22T11:19:18Z</time>
      </trkpt>
      <trkpt lat="45.83394" lon="5.80377">
        <ele>236.68</ele>
        <time>2015-05-22T11:19:19Z</time>
      </trkpt>
      <trkpt lat="45.83389" lon="5.80373">
        <ele>236.72</ele>
        <time>2015-05-22T11:19:20Z</time>
      </trkpt>
      <trkpt lat="45.83384" lon="5.8037">
        <ele>236.76</ele>
        <time>2015-05-22T11:19:21Z</time>
      </trkpt>
      <trkpt lat="45.83379" lon="5.80365">
        <ele>236.81</ele>
        <time>2015-05-22T11:19:22Z</time>
      </trkpt>
      <trkpt lat="45.83374" lon="5.8036">
        <ele>236.85</ele>
        <time>2015-05-22T11:19:23Z</time>
      </trkpt>
      <trkpt lat="45.83368" lon="5.80356">
        <ele>236.87</ele>
        <time>2015-05-22T11:19:24Z</time>
      </trkpt>
      <trkpt lat="45.83332" lon="5.80337">
        <ele>237.15</ele>
        <time>2015-05-22T11:19:32Z</time>
      </trkpt>
      <trkpt lat="45.83328" lon="5.80333">
        <ele>237.11</ele>
        <time>2015-05-22T11:19:33Z</time>
      </trkpt>
      <trkpt lat="45.83325" lon="5.80329">
        <ele>237.03</ele>
        <time>2015-05-22T11:19:34Z</time>
      </trkpt>
      <trkpt lat="45.83322" lon="5.80325">
        <ele>236.97</ele>
        <time>2015-05-22T11:19:35Z</time>
      </trkpt>
      <trkpt lat="45.83318" lon="5.80317">
        <ele>236.9</ele>
        <time>2015-05-22T11:19:36Z</time>
      </trkpt>
      <trkpt lat="45.83315" lon="5.80309">
        <ele>236.85</ele>
        <time>2015-05-22T11:19:37Z</time>
      </trkpt>
      <trkpt lat="45.83314" lon="5.803">
        <ele>236.83</ele>
        <time>2015-05-22T11:19:38Z</time>
      </trkpt>
      <trkpt lat="45.83311" lon="5.80291">
        <ele>236.82</ele>
        <time>2015-05-22T11:19:39Z</time>
      </trkpt>
      <trkpt lat="45.83275" lon="5.80217">
        <ele>237.79</ele>
        <time>2015-05-22T11:19:49Z</time>
      </trkpt>
      <trkpt lat="45.83273" lon="5.80178">
        <ele>238.46</ele>
        <time>2015-05-22T11:19:54Z</time>
      </trkpt>
      <trkpt lat="45.83274" lon="5.80166">
        <ele>238.55</ele>
        <time>2015-05-22T11:19:57Z</time>
      </trkpt>
      <trkpt lat="45.83276" lon="5.8015">
        <ele>237.95</ele>
        <time>2015-05-22T11:20:26Z</time>
      </trkpt>
      <trkpt lat="45.83275" lon="5.8015">
        <ele>237.55</ele>
        <time>2015-05-22T11:20:57Z</time>
      </trkpt>
      <trkpt lat="45.83277" lon="5.80148">
        <ele>237.26</ele>
        <time>2015-05-22T11:21:57Z</time>
      </trkpt>
      <trkpt lat="45.83273" lon="5.80149">
        <ele>237.99</ele>
        <time>2015-05-22T11:22:29Z</time>
      </trkpt>
      <trkpt lat="45.83271" lon="5.80155">
        <ele>238.37</ele>
        <time>2015-05-22T11:22:32Z</time>
      </trkpt>
      <trkpt lat="45.83261" lon="5.80158">
        <ele>238.68</ele>
        <time>2015-05-22T11:22:37Z</time>
      </trkpt>
      <trkpt lat="45.83257" lon="5.80157">
        <ele>238.55</ele>
        <time>2015-05-22T11:22:39Z</time>
      </trkpt>
      <trkpt lat="45.83255" lon="5.80155">
        <ele>238.39</ele>
        <time>2015-05-22T11:22:40Z</time>
      </trkpt>
      <trkpt lat="45.83253" lon="5.80153">
        <ele>238.23</ele>
        <time>2015-05-22T11:22:41Z</time>
      </trkpt>
      <trkpt lat="45.83251" lon="5.8015">
        <ele>238.09</ele>
        <time>2015-05-22T11:22:42Z</time>
      </trkpt>
      <trkpt lat="45.83248" lon="5.80146">
        <ele>237.97</ele>
        <time>2015-05-22T11:22:43Z</time>
      </trkpt>
      <trkpt lat="45.83237" lon="5.80133">
        <ele>237.83</ele>
        <time>2015-05-22T11:22:47Z</time>
      </trkpt>
      <trkpt lat="45.83231" lon="5.80124">
        <ele>237.82</ele>
        <time>2015-05-22T11:22:49Z</time>
      </trkpt>
      <trkpt lat="45.83228" lon="5.8012">
        <ele>237.83</ele>
        <time>2015-05-22T11:22:50Z</time>
      </trkpt>
      <trkpt lat="45.83226" lon="5.80115">
        <ele>237.86</ele>
        <time>2015-05-22T11:22:51Z</time>
      </trkpt>
      <trkpt lat="45.83223" lon="5.80111">
        <ele>237.88</ele>
        <time>2015-05-22T11:22:52Z</time>
      </trkpt>
      <trkpt lat="45.8322" lon="5.80107">
        <ele>237.91</ele>
        <time>2015-05-22T11:22:53Z</time>
      </trkpt>
      <trkpt lat="45.83215" lon="5.80098">
        <ele>238.02</ele>
        <time>2015-05-22T11:22:55Z</time>
      </trkpt>
      <trkpt lat="45.83212" lon="5.80093">
        <ele>238.08</ele>
        <time>2015-05-22T11:22:56Z</time>
      </trkpt>
      <trkpt lat="45.83208" lon="5.80089">
        <ele>238.22</ele>
        <time>2015-05-22T11:22:57Z</time>
      </trkpt>
      <trkpt lat="45.83205" lon="5.80085">
        <ele>238.25</ele>
        <time>2015-05-22T11:22:58Z</time>
      </trkpt>
      <trkpt lat="45.83202" lon="5.8008">
        <ele>238.27</ele>
        <time>2015-05-22T11:22:59Z</time>
      </trkpt>
      <trkpt lat="45.83199" lon="5.80075">
        <ele>238.27</ele>
        <time>2015-05-22T11:23:00Z</time>
      </trkpt>
      <trkpt lat="45.83197" lon="5.80071">
        <ele>238.2</ele>
        <time>2015-05-22T11:23:01Z</time>
      </trkpt>
      <trkpt lat="45.83189" lon="5.80054">
        <ele>237.88</ele>
        <time>2015-05-22T11:23:04Z</time>
      </trkpt>
      <trkpt lat="45.83143" lon="5.79985">
        <ele>238.05</ele>
        <time>2015-05-22T11:23:18Z</time>
      </trkpt>
      <trkpt lat="45.8314" lon="5.7998">
        <ele>238.05</ele>
        <time>2015-05-22T11:23:19Z</time>
      </trkpt>
      <trkpt lat="45.83094" lon="5.79903">
        <ele>238.18</ele>
        <time>2015-05-22T11:23:32Z</time>
      </trkpt>
      <trkpt lat="45.8305" lon="5.79838">
        <ele>238.75</ele>
        <time>2015-05-22T11:23:44Z</time>
      </trkpt>
      <trkpt lat="45.83044" lon="5.79833">
        <ele>236.29</ele>
        <time>2015-05-22T11:23:53Z</time>
      </trkpt>
      <trkpt lat="45.8304" lon="5.79829">
        <ele>237.12</ele>
        <time>2015-05-22T11:24:16Z</time>
      </trkpt>
      <trkpt lat="45.83039" lon="5.79824">
        <ele>235.88</ele>
        <time>2015-05-22T11:24:36Z</time>
      </trkpt>
      <trkpt lat="45.83038" lon="5.79817">
        <ele>235.83</ele>
        <time>2015-05-22T11:24:48Z</time>
      </trkpt>
      <trkpt lat="45.83037" lon="5.79816">
        <ele>235.84</ele>
        <time>2015-05-22T11:24:49Z</time>
      </trkpt>
      <trkpt lat="45.83036" lon="5.79814">
        <ele>235.85</ele>
        <time>2015-05-22T11:24:50Z</time>
      </trkpt>
      <trkpt lat="45.83036" lon="5.79812">
        <ele>235.87</ele>
        <time>2015-05-22T11:24:51Z</time>
      </trkpt>
      <trkpt lat="45.83037" lon="5.79809">
        <ele>235.91</ele>
        <time>2015-05-22T11:24:52Z</time>
      </trkpt>
      <trkpt lat="45.83035" lon="5.79806">
        <ele>236.01</ele>
        <time>2015-05-22T11:24:53Z</time>
      </trkpt>
      <trkpt lat="45.83032" lon="5.79805">
        <ele>236.2</ele>
        <time>2015-05-22T11:24:54Z</time>
      </trkpt>
      <trkpt lat="45.8303" lon="5.79805">
        <ele>236.49</ele>
        <time>2015-05-22T11:24:55Z</time>
      </trkpt>
      <trkpt lat="45.83026" lon="5.79806">
        <ele>236.72</ele>
        <time>2015-05-22T11:24:56Z</time>
      </trkpt>
      <trkpt lat="45.83023" lon="5.79809">
        <ele>236.91</ele>
        <time>2015-05-22T11:24:57Z</time>
      </trkpt>
      <trkpt lat="45.8302" lon="5.79813">
        <ele>237.06</ele>
        <time>2015-05-22T11:24:58Z</time>
      </trkpt>
      <trkpt lat="45.83017" lon="5.79819">
        <ele>237.12</ele>
        <time>2015-05-22T11:24:59Z</time>
      </trkpt>
      <trkpt lat="45.82968" lon="5.79894">
        <ele>235.94</ele>
        <time>2015-05-22T11:25:12Z</time>
      </trkpt>
      <trkpt lat="45.82939" lon="5.79941">
        <ele>236.1</ele>
        <time>2015-05-22T11:25:20Z</time>
      </trkpt>
      <trkpt lat="45.82931" lon="5.7995">
        <ele>236.4</ele>
        <time>2015-05-22T11:25:22Z</time>
      </trkpt>
      <trkpt lat="45.82918" lon="5.79964">
        <ele>236.62</ele>
        <time>2015-05-22T11:25:25Z</time>
      </trkpt>
      <trkpt lat="45.82913" lon="5.79968">
        <ele>236.59</ele>
        <time>2015-05-22T11:25:26Z</time>
      </trkpt>
      <trkpt lat="45.82909" lon="5.79972">
        <ele>236.51</ele>
        <time>2015-05-22T11:25:27Z</time>
      </trkpt>
      <trkpt lat="45.82904" lon="5.79976">
        <ele>236.51</ele>
        <time>2015-05-22T11:25:28Z</time>
      </trkpt>
      <trkpt lat="45.829" lon="5.79981">
        <ele>236.43</ele>
        <time>2015-05-22T11:25:29Z</time>
      </trkpt>
      <trkpt lat="45.82896" lon="5.79986">
        <ele>236.39</ele>
        <time>2015-05-22T11:25:30Z</time>
      </trkpt>
      <trkpt lat="45.82892" lon="5.7999">
        <ele>236.34</ele>
        <time>2015-05-22T11:25:31Z</time>
      </trkpt>
      <trkpt lat="45.82888" lon="5.79994">
        <ele>236.3</ele>
        <time>2015-05-22T11:25:32Z</time>
      </trkpt>
      <trkpt lat="45.82885" lon="5.79999">
        <ele>236.28</ele>
        <time>2015-05-22T11:25:33Z</time>
      </trkpt>
      <trkpt lat="45.82877" lon="5.8001">
        <ele>236.26</ele>
        <time>2015-05-22T11:25:35Z</time>
      </trkpt>
      <trkpt lat="45.82865" lon="5.80027">
        <ele>236.47</ele>
        <time>2015-05-22T11:25:39Z</time>
      </trkpt>
      <trkpt lat="45.82862" lon="5.80031">
        <ele>236.52</ele>
        <time>2015-05-22T11:25:40Z</time>
      </trkpt>
      <trkpt lat="45.82854" lon="5.8004">
        <ele>236.48</ele>
        <time>2015-05-22T11:25:42Z</time>
      </trkpt>
      <trkpt lat="45.82843" lon="5.80053">
        <ele>236.29</ele>
        <time>2015-05-22T11:25:45Z</time>
      </trkpt>
      <trkpt lat="45.82829" lon="5.80061">
        <ele>236.17</ele>
        <time>2015-05-22T11:25:49Z</time>
      </trkpt>
      <trkpt lat="45.82825" lon="5.8006">
        <ele>236.15</ele>
        <time>2015-05-22T11:25:50Z</time>
      </trkpt>
      <trkpt lat="45.82804" lon="5.8005">
        <ele>236.19</ele>
        <time>2015-05-22T11:25:55Z</time>
      </trkpt>
      <trkpt lat="45.828" lon="5.80049">
        <ele>236.22</ele>
        <time>2015-05-22T11:25:56Z</time>
      </trkpt>
      <trkpt lat="45.82779" lon="5.80048">
        <ele>236.17</ele>
        <time>2015-05-22T11:26:00Z</time>
      </trkpt>
      <trkpt lat="45.82748" lon="5.80041">
        <ele>235.63</ele>
        <time>2015-05-22T11:26:06Z</time>
      </trkpt>
      <trkpt lat="45.82743" lon="5.80038">
        <ele>235.52</ele>
        <time>2015-05-22T11:26:07Z</time>
      </trkpt>
      <trkpt lat="45.82733" lon="5.80031">
        <ele>235.26</ele>
        <time>2015-05-22T11:26:09Z</time>
      </trkpt>
      <trkpt lat="45.82681" lon="5.79993">
        <ele>233.85</ele>
        <time>2015-05-22T11:26:20Z</time>
      </trkpt>
      <trkpt lat="45.82663" lon="5.79987">
        <ele>233.77</ele>
        <time>2015-05-22T11:26:23Z</time>
      </trkpt>
      <trkpt lat="45.82608" lon="5.79972">
        <ele>233.5</ele>
        <time>2015-05-22T11:26:32Z</time>
      </trkpt>
      <trkpt lat="45.82515" lon="5.79931">
        <ele>233.65</ele>
        <time>2015-05-22T11:26:47Z</time>
      </trkpt>
      <trkpt lat="45.82509" lon="5.79927">
        <ele>233.72</ele>
        <time>2015-05-22T11:26:48Z</time>
      </trkpt>
      <trkpt lat="45.82503" lon="5.79923">
        <ele>233.78</ele>
        <time>2015-05-22T11:26:49Z</time>
      </trkpt>
      <trkpt lat="45.82497" lon="5.79918">
        <ele>233.87</ele>
        <time>2015-05-22T11:26:50Z</time>
      </trkpt>
      <trkpt lat="45.82492" lon="5.79913">
        <ele>233.96</ele>
        <time>2015-05-22T11:26:51Z</time>
      </trkpt>
      <trkpt lat="45.82459" lon="5.79874">
        <ele>234.45</ele>
        <time>2015-05-22T11:26:58Z</time>
      </trkpt>
      <trkpt lat="45.82453" lon="5.79869">
        <ele>234.47</ele>
        <time>2015-05-22T11:26:59Z</time>
      </trkpt>
      <trkpt lat="45.82447" lon="5.79866">
        <ele>234.48</ele>
        <time>2015-05-22T11:27:00Z</time>
      </trkpt>
      <trkpt lat="45.82442" lon="5.79864">
        <ele>234.48</ele>
        <time>2015-05-22T11:27:01Z</time>
      </trkpt>
      <trkpt lat="45.82436" lon="5.79863">
        <ele>234.47</ele>
        <time>2015-05-22T11:27:02Z</time>
      </trkpt>
      <trkpt lat="45.8243" lon="5.79864">
        <ele>234.44</ele>
        <time>2015-05-22T11:27:03Z</time>
      </trkpt>
      <trkpt lat="45.82424" lon="5.79865">
        <ele>234.39</ele>
        <time>2015-05-22T11:27:04Z</time>
      </trkpt>
      <trkpt lat="45.82419" lon="5.79865">
        <ele>234.35</ele>
        <time>2015-05-22T11:27:05Z</time>
      </trkpt>
      <trkpt lat="45.82407" lon="5.79866">
        <ele>234.3</ele>
        <time>2015-05-22T11:27:07Z</time>
      </trkpt>
      <trkpt lat="45.82402" lon="5.79868">
        <ele>234.22</ele>
        <time>2015-05-22T11:27:08Z</time>
      </trkpt>
      <trkpt lat="45.82388" lon="5.79874">
        <ele>234.01</ele>
        <time>2015-05-22T11:27:12Z</time>
      </trkpt>
      <trkpt lat="45.82388" lon="5.79876">
        <ele>233.95</ele>
        <time>2015-05-22T11:27:13Z</time>
      </trkpt>
      <trkpt lat="45.82392" lon="5.79875">
        <ele>233.88</ele>
        <time>2015-05-22T11:27:17Z</time>
      </trkpt>
      <trkpt lat="45.82399" lon="5.7987">
        <ele>233.98</ele>
        <time>2015-05-22T11:27:20Z</time>
      </trkpt>
      <trkpt lat="45.82401" lon="5.79865">
        <ele>234.01</ele>
        <time>2015-05-22T11:27:21Z</time>
      </trkpt>
      <trkpt lat="45.82401" lon="5.7986">
        <ele>234.04</ele>
        <time>2015-05-22T11:27:22Z</time>
      </trkpt>
      <trkpt lat="45.82398" lon="5.79855">
        <ele>234.05</ele>
        <time>2015-05-22T11:27:23Z</time>
      </trkpt>
      <trkpt lat="45.82395" lon="5.79851">
        <ele>234.01</ele>
        <time>2015-05-22T11:27:24Z</time>
      </trkpt>
      <trkpt lat="45.82392" lon="5.79847">
        <ele>233.95</ele>
        <time>2015-05-22T11:27:25Z</time>
      </trkpt>
      <trkpt lat="45.82389" lon="5.79842">
        <ele>233.91</ele>
        <time>2015-05-22T11:27:26Z</time>
      </trkpt>
      <trkpt lat="45.82386" lon="5.79837">
        <ele>233.87</ele>
        <time>2015-05-22T11:27:27Z</time>
      </trkpt>
      <trkpt lat="45.82383" lon="5.79832">
        <ele>233.83</ele>
        <time>2015-05-22T11:27:28Z</time>
      </trkpt>
      <trkpt lat="45.82371" lon="5.79811">
        <ele>233.81</ele>
        <time>2015-05-22T11:27:32Z</time>
      </trkpt>
      <trkpt lat="45.82369" lon="5.79804">
        <ele>233.86</ele>
        <time>2015-05-22T11:27:33Z</time>
      </trkpt>
      <trkpt lat="45.82353" lon="5.79771">
        <ele>234.1</ele>
        <time>2015-05-22T11:27:38Z</time>
      </trkpt>
      <trkpt lat="45.82349" lon="5.79766">
        <ele>234.14</ele>
        <time>2015-05-22T11:27:39Z</time>
      </trkpt>
      <trkpt lat="45.82345" lon="5.79762">
        <ele>234.18</ele>
        <time>2015-05-22T11:27:40Z</time>
      </trkpt>
      <trkpt lat="45.82318" lon="5.79735">
        <ele>234.21</ele>
        <time>2015-05-22T11:27:46Z</time>
      </trkpt>
      <trkpt lat="45.82314" lon="5.79728">
        <ele>234.2</ele>
        <time>2015-05-22T11:27:47Z</time>
      </trkpt>
      <trkpt lat="45.82311" lon="5.7972">
        <ele>234.17</ele>
        <time>2015-05-22T11:27:48Z</time>
      </trkpt>
      <trkpt lat="45.82309" lon="5.79711">
        <ele>234.14</ele>
        <time>2015-05-22T11:27:49Z</time>
      </trkpt>
      <trkpt lat="45.82307" lon="5.79701">
        <ele>234.14</ele>
        <time>2015-05-22T11:27:50Z</time>
      </trkpt>
      <trkpt lat="45.82305" lon="5.79691">
        <ele>234.15</ele>
        <time>2015-05-22T11:27:51Z</time>
      </trkpt>
      <trkpt lat="45.82305" lon="5.79682">
        <ele>234.16</ele>
        <time>2015-05-22T11:27:52Z</time>
      </trkpt>
      <trkpt lat="45.82305" lon="5.79673">
        <ele>234.18</ele>
        <time>2015-05-22T11:27:53Z</time>
      </trkpt>
      <trkpt lat="45.82306" lon="5.79664">
        <ele>234.2</ele>
        <time>2015-05-22T11:27:54Z</time>
      </trkpt>
      <trkpt lat="45.82307" lon="5.79655">
        <ele>234.25</ele>
        <time>2015-05-22T11:27:55Z</time>
      </trkpt>
      <trkpt lat="45.82307" lon="5.79646">
        <ele>234.3</ele>
        <time>2015-05-22T11:27:56Z</time>
      </trkpt>
      <trkpt lat="45.82306" lon="5.79639">
        <ele>234.4</ele>
        <time>2015-05-22T11:27:57Z</time>
      </trkpt>
      <trkpt lat="45.82304" lon="5.79633">
        <ele>234.42</ele>
        <time>2015-05-22T11:27:58Z</time>
      </trkpt>
      <trkpt lat="45.823" lon="5.79629">
        <ele>234.45</ele>
        <time>2015-05-22T11:27:59Z</time>
      </trkpt>
      <trkpt lat="45.82295" lon="5.79626">
        <ele>234.48</ele>
        <time>2015-05-22T11:28:00Z</time>
      </trkpt>
      <trkpt lat="45.8229" lon="5.79624">
        <ele>234.51</ele>
        <time>2015-05-22T11:28:01Z</time>
      </trkpt>
      <trkpt lat="45.82284" lon="5.79622">
        <ele>234.54</ele>
        <time>2015-05-22T11:28:02Z</time>
      </trkpt>
      <trkpt lat="45.82273" lon="5.79616">
        <ele>234.54</ele>
        <time>2015-05-22T11:28:04Z</time>
      </trkpt>
      <trkpt lat="45.82268" lon="5.7961">
        <ele>234.54</ele>
        <time>2015-05-22T11:28:05Z</time>
      </trkpt>
      <trkpt lat="45.82263" lon="5.79604">
        <ele>234.54</ele>
        <time>2015-05-22T11:28:06Z</time>
      </trkpt>
      <trkpt lat="45.82255" lon="5.79591">
        <ele>234.52</ele>
        <time>2015-05-22T11:28:08Z</time>
      </trkpt>
      <trkpt lat="45.8225" lon="5.79586">
        <ele>234.52</ele>
        <time>2015-05-22T11:28:09Z</time>
      </trkpt>
      <trkpt lat="45.82244" lon="5.79582">
        <ele>234.51</ele>
        <time>2015-05-22T11:28:10Z</time>
      </trkpt>
      <trkpt lat="45.82238" lon="5.79577">
        <ele>234.48</ele>
        <time>2015-05-22T11:28:11Z</time>
      </trkpt>
      <trkpt lat="45.82233" lon="5.79574">
        <ele>234.44</ele>
        <time>2015-05-22T11:28:12Z</time>
      </trkpt>
      <trkpt lat="45.82227" lon="5.7957">
        <ele>234.37</ele>
        <time>2015-05-22T11:28:13Z</time>
      </trkpt>
      <trkpt lat="45.8222" lon="5.79567">
        <ele>234.3</ele>
        <time>2015-05-22T11:28:14Z</time>
      </trkpt>
      <trkpt lat="45.82214" lon="5.79563">
        <ele>234.2</ele>
        <time>2015-05-22T11:28:15Z</time>
      </trkpt>
      <trkpt lat="45.82209" lon="5.79559">
        <ele>234.11</ele>
        <time>2015-05-22T11:28:16Z</time>
      </trkpt>
      <trkpt lat="45.82204" lon="5.79553">
        <ele>234.02</ele>
        <time>2015-05-22T11:28:17Z</time>
      </trkpt>
      <trkpt lat="45.822" lon="5.79546">
        <ele>233.93</ele>
        <time>2015-05-22T11:28:18Z</time>
      </trkpt>
      <trkpt lat="45.82197" lon="5.79537">
        <ele>233.87</ele>
        <time>2015-05-22T11:28:19Z</time>
      </trkpt>
      <trkpt lat="45.82194" lon="5.79528">
        <ele>233.81</ele>
        <time>2015-05-22T11:28:20Z</time>
      </trkpt>
      <trkpt lat="45.82192" lon="5.79519">
        <ele>233.78</ele>
        <time>2015-05-22T11:28:21Z</time>
      </trkpt>
      <trkpt lat="45.82187" lon="5.79503">
        <ele>233.9</ele>
        <time>2015-05-22T11:28:23Z</time>
      </trkpt>
      <trkpt lat="45.82183" lon="5.79497">
        <ele>233.95</ele>
        <time>2015-05-22T11:28:24Z</time>
      </trkpt>
      <trkpt lat="45.82178" lon="5.79492">
        <ele>233.99</ele>
        <time>2015-05-22T11:28:25Z</time>
      </trkpt>
      <trkpt lat="45.82173" lon="5.79487">
        <ele>234.02</ele>
        <time>2015-05-22T11:28:26Z</time>
      </trkpt>
      <trkpt lat="45.82167" lon="5.79482">
        <ele>233.97</ele>
        <time>2015-05-22T11:28:27Z</time>
      </trkpt>
      <trkpt lat="45.82162" lon="5.79478">
        <ele>233.92</ele>
        <time>2015-05-22T11:28:28Z</time>
      </trkpt>
      <trkpt lat="45.82156" lon="5.79474">
        <ele>233.88</ele>
        <time>2015-05-22T11:28:29Z</time>
      </trkpt>
      <trkpt lat="45.82098" lon="5.7943">
        <ele>234</ele>
        <time>2015-05-22T11:28:39Z</time>
      </trkpt>
      <trkpt lat="45.82094" lon="5.79424">
        <ele>234.04</ele>
        <time>2015-05-22T11:28:40Z</time>
      </trkpt>
      <trkpt lat="45.8209" lon="5.79418">
        <ele>234.08</ele>
        <time>2015-05-22T11:28:41Z</time>
      </trkpt>
      <trkpt lat="45.82069" lon="5.79381">
        <ele>234.43</ele>
        <time>2015-05-22T11:28:47Z</time>
      </trkpt>
      <trkpt lat="45.82064" lon="5.79376">
        <ele>234.53</ele>
        <time>2015-05-22T11:28:48Z</time>
      </trkpt>
      <trkpt lat="45.82059" lon="5.79373">
        <ele>234.59</ele>
        <time>2015-05-22T11:28:49Z</time>
      </trkpt>
      <trkpt lat="45.82037" lon="5.79358">
        <ele>234.79</ele>
        <time>2015-05-22T11:28:53Z</time>
      </trkpt>
      <trkpt lat="45.8197" lon="5.79292">
        <ele>234.32</ele>
        <time>2015-05-22T11:29:06Z</time>
      </trkpt>
      <trkpt lat="45.8195" lon="5.79274">
        <ele>234.21</ele>
        <time>2015-05-22T11:29:10Z</time>
      </trkpt>
      <trkpt lat="45.81945" lon="5.79268">
        <ele>234.15</ele>
        <time>2015-05-22T11:29:11Z</time>
      </trkpt>
      <trkpt lat="45.8194" lon="5.79263">
        <ele>234.13</ele>
        <time>2015-05-22T11:29:12Z</time>
      </trkpt>
      <trkpt lat="45.81934" lon="5.79259">
        <ele>234.1</ele>
        <time>2015-05-22T11:29:13Z</time>
      </trkpt>
      <trkpt lat="45.81929" lon="5.79258">
        <ele>234.07</ele>
        <time>2015-05-22T11:29:14Z</time>
      </trkpt>
      <trkpt lat="45.81923" lon="5.7926">
        <ele>234.06</ele>
        <time>2015-05-22T11:29:15Z</time>
      </trkpt>
      <trkpt lat="45.81917" lon="5.79263">
        <ele>234.01</ele>
        <time>2015-05-22T11:29:16Z</time>
      </trkpt>
      <trkpt lat="45.81912" lon="5.79267">
        <ele>233.94</ele>
        <time>2015-05-22T11:29:17Z</time>
      </trkpt>
      <trkpt lat="45.819" lon="5.79274">
        <ele>233.77</ele>
        <time>2015-05-22T11:29:19Z</time>
      </trkpt>
      <trkpt lat="45.81816" lon="5.79305">
        <ele>233.49</ele>
        <time>2015-05-22T11:29:32Z</time>
      </trkpt>
      <trkpt lat="45.8181" lon="5.79309">
        <ele>233.5</ele>
        <time>2015-05-22T11:29:33Z</time>
      </trkpt>
      <trkpt lat="45.81804" lon="5.79315">
        <ele>233.52</ele>
        <time>2015-05-22T11:29:34Z</time>
      </trkpt>
      <trkpt lat="45.81799" lon="5.79321">
        <ele>233.62</ele>
        <time>2015-05-22T11:29:35Z</time>
      </trkpt>
      <trkpt lat="45.81795" lon="5.79328">
        <ele>233.66</ele>
        <time>2015-05-22T11:29:36Z</time>
      </trkpt>
      <trkpt lat="45.8179" lon="5.79335">
        <ele>233.7</ele>
        <time>2015-05-22T11:29:37Z</time>
      </trkpt>
      <trkpt lat="45.81784" lon="5.79341">
        <ele>233.7</ele>
        <time>2015-05-22T11:29:38Z</time>
      </trkpt>
      <trkpt lat="45.81778" lon="5.79345">
        <ele>233.66</ele>
        <time>2015-05-22T11:29:39Z</time>
      </trkpt>
      <trkpt lat="45.81771" lon="5.79348">
        <ele>233.63</ele>
        <time>2015-05-22T11:29:40Z</time>
      </trkpt>
      <trkpt lat="45.81764" lon="5.79351">
        <ele>233.57</ele>
        <time>2015-05-22T11:29:41Z</time>
      </trkpt>
      <trkpt lat="45.81716" lon="5.79368">
        <ele>233.32</ele>
        <time>2015-05-22T11:29:48Z</time>
      </trkpt>
      <trkpt lat="45.81708" lon="5.79369">
        <ele>233.29</ele>
        <time>2015-05-22T11:29:49Z</time>
      </trkpt>
      <trkpt lat="45.81701" lon="5.79367">
        <ele>233.26</ele>
        <time>2015-05-22T11:29:50Z</time>
      </trkpt>
      <trkpt lat="45.81694" lon="5.79366">
        <ele>233.22</ele>
        <time>2015-05-22T11:29:51Z</time>
      </trkpt>
      <trkpt lat="45.81686" lon="5.79363">
        <ele>233.19</ele>
        <time>2015-05-22T11:29:52Z</time>
      </trkpt>
      <trkpt lat="45.81649" lon="5.79354">
        <ele>233.02</ele>
        <time>2015-05-22T11:29:57Z</time>
      </trkpt>
      <trkpt lat="45.81642" lon="5.79354">
        <ele>232.99</ele>
        <time>2015-05-22T11:29:58Z</time>
      </trkpt>
      <trkpt lat="45.81634" lon="5.79356">
        <ele>232.97</ele>
        <time>2015-05-22T11:29:59Z</time>
      </trkpt>
      <trkpt lat="45.81627" lon="5.79358">
        <ele>232.97</ele>
        <time>2015-05-22T11:30:00Z</time>
      </trkpt>
      <trkpt lat="45.81619" lon="5.79361">
        <ele>232.99</ele>
        <time>2015-05-22T11:30:01Z</time>
      </trkpt>
      <trkpt lat="45.81612" lon="5.79365">
        <ele>233.03</ele>
        <time>2015-05-22T11:30:02Z</time>
      </trkpt>
      <trkpt lat="45.81508" lon="5.79418">
        <ele>232.91</ele>
        <time>2015-05-22T11:30:17Z</time>
      </trkpt>
      <trkpt lat="45.81501" lon="5.79419">
        <ele>232.9</ele>
        <time>2015-05-22T11:30:18Z</time>
      </trkpt>
      <trkpt lat="45.81494" lon="5.79415">
        <ele>232.88</ele>
        <time>2015-05-22T11:30:19Z</time>
      </trkpt>
      <trkpt lat="45.81488" lon="5.7941">
        <ele>232.85</ele>
        <time>2015-05-22T11:30:20Z</time>
      </trkpt>
      <trkpt lat="45.81483" lon="5.79403">
        <ele>232.83</ele>
        <time>2015-05-22T11:30:21Z</time>
      </trkpt>
      <trkpt lat="45.81477" lon="5.79398">
        <ele>232.8</ele>
        <time>2015-05-22T11:30:22Z</time>
      </trkpt>
      <trkpt lat="45.8147" lon="5.79394">
        <ele>232.76</ele>
        <time>2015-05-22T11:30:23Z</time>
      </trkpt>
      <trkpt lat="45.81434" lon="5.79369">
        <ele>232.83</ele>
        <time>2015-05-22T11:30:29Z</time>
      </trkpt>
      <trkpt lat="45.81429" lon="5.79364">
        <ele>232.87</ele>
        <time>2015-05-22T11:30:30Z</time>
      </trkpt>
      <trkpt lat="45.81395" lon="5.7933">
        <ele>233.15</ele>
        <time>2015-05-22T11:30:39Z</time>
      </trkpt>
      <trkpt lat="45.81391" lon="5.79331">
        <ele>233.28</ele>
        <time>2015-05-22T11:30:41Z</time>
      </trkpt>
      <trkpt lat="45.81388" lon="5.79334">
        <ele>233.33</ele>
        <time>2015-05-22T11:30:42Z</time>
      </trkpt>
      <trkpt lat="45.81386" lon="5.79338">
        <ele>233.36</ele>
        <time>2015-05-22T11:30:43Z</time>
      </trkpt>
      <trkpt lat="45.81384" lon="5.79343">
        <ele>233.4</ele>
        <time>2015-05-22T11:30:44Z</time>
      </trkpt>
      <trkpt lat="45.81383" lon="5.79349">
        <ele>233.43</ele>
        <time>2015-05-22T11:30:45Z</time>
      </trkpt>
      <trkpt lat="45.81379" lon="5.79361">
        <ele>233.41</ele>
        <time>2015-05-22T11:30:47Z</time>
      </trkpt>
      <trkpt lat="45.81332" lon="5.79459">
        <ele>233.09</ele>
        <time>2015-05-22T11:31:02Z</time>
      </trkpt>
      <trkpt lat="45.81309" lon="5.79504">
        <ele>233.26</ele>
        <time>2015-05-22T11:31:09Z</time>
      </trkpt>
      <trkpt lat="45.81305" lon="5.79509">
        <ele>233.26</ele>
        <time>2015-05-22T11:31:10Z</time>
      </trkpt>
      <trkpt lat="45.81293" lon="5.7952">
        <ele>233.19</ele>
        <time>2015-05-22T11:31:13Z</time>
      </trkpt>
      <trkpt lat="45.81288" lon="5.79523">
        <ele>233.17</ele>
        <time>2015-05-22T11:31:14Z</time>
      </trkpt>
      <trkpt lat="45.81231" lon="5.79534">
        <ele>233.16</ele>
        <time>2015-05-22T11:31:26Z</time>
      </trkpt>
      <trkpt lat="45.81211" lon="5.7953">
        <ele>233.53</ele>
        <time>2015-05-22T11:31:31Z</time>
      </trkpt>
      <trkpt lat="45.81187" lon="5.79519">
        <ele>234.52</ele>
        <time>2015-05-22T11:31:39Z</time>
      </trkpt>
      <trkpt lat="45.81183" lon="5.79517">
        <ele>234.71</ele>
        <time>2015-05-22T11:31:40Z</time>
      </trkpt>
      <trkpt lat="45.81178" lon="5.79515">
        <ele>234.94</ele>
        <time>2015-05-22T11:31:41Z</time>
      </trkpt>
      <trkpt lat="45.81173" lon="5.79511">
        <ele>235.19</ele>
        <time>2015-05-22T11:31:42Z</time>
      </trkpt>
      <trkpt lat="45.81169" lon="5.79507">
        <ele>235.45</ele>
        <time>2015-05-22T11:31:43Z</time>
      </trkpt>
      <trkpt lat="45.81151" lon="5.79496">
        <ele>236.54</ele>
        <time>2015-05-22T11:31:47Z</time>
      </trkpt>
      <trkpt lat="45.81147" lon="5.79494">
        <ele>236.76</ele>
        <time>2015-05-22T11:31:48Z</time>
      </trkpt>
      <trkpt lat="45.81142" lon="5.79492">
        <ele>236.99</ele>
        <time>2015-05-22T11:31:49Z</time>
      </trkpt>
      <trkpt lat="45.81137" lon="5.79491">
        <ele>237.23</ele>
        <time>2015-05-22T11:31:50Z</time>
      </trkpt>
      <trkpt lat="45.81133" lon="5.7949">
        <ele>237.45</ele>
        <time>2015-05-22T11:31:51Z</time>
      </trkpt>
      <trkpt lat="45.81129" lon="5.79489">
        <ele>237.65</ele>
        <time>2015-05-22T11:31:52Z</time>
      </trkpt>
      <trkpt lat="45.81125" lon="5.79491">
        <ele>237.98</ele>
        <time>2015-05-22T11:31:54Z</time>
      </trkpt>
      <trkpt lat="45.81125" lon="5.79493">
        <ele>238.13</ele>
        <time>2015-05-22T11:31:55Z</time>
      </trkpt>
      <trkpt lat="45.81126" lon="5.79494">
        <ele>238.27</ele>
        <time>2015-05-22T11:31:56Z</time>
      </trkpt>
      <trkpt lat="45.81132" lon="5.79494">
        <ele>238.48</ele>
        <time>2015-05-22T11:31:58Z</time>
      </trkpt>
      <trkpt lat="45.81137" lon="5.79494">
        <ele>238.57</ele>
        <time>2015-05-22T11:31:59Z</time>
      </trkpt>
      <trkpt lat="45.81141" lon="5.79495">
        <ele>238.66</ele>
        <time>2015-05-22T11:32:00Z</time>
      </trkpt>
      <trkpt lat="45.81145" lon="5.79496">
        <ele>238.73</ele>
        <time>2015-05-22T11:32:01Z</time>
      </trkpt>
      <trkpt lat="45.81156" lon="5.79502">
        <ele>238.91</ele>
        <time>2015-05-22T11:32:04Z</time>
      </trkpt>
      <trkpt lat="45.8116" lon="5.79504">
        <ele>238.93</ele>
        <time>2015-05-22T11:32:05Z</time>
      </trkpt>
      <trkpt lat="45.81164" lon="5.79505">
        <ele>238.92</ele>
        <time>2015-05-22T11:32:06Z</time>
      </trkpt>
      <trkpt lat="45.81168" lon="5.79506">
        <ele>238.89</ele>
        <time>2015-05-22T11:32:07Z</time>
      </trkpt>
      <trkpt lat="45.81173" lon="5.79509">
        <ele>238.85</ele>
        <time>2015-05-22T11:32:08Z</time>
      </trkpt>
      <trkpt lat="45.81182" lon="5.79514">
        <ele>238.72</ele>
        <time>2015-05-22T11:32:10Z</time>
      </trkpt>
      <trkpt lat="45.81187" lon="5.79517">
        <ele>238.38</ele>
        <time>2015-05-22T11:32:11Z</time>
      </trkpt>
      <trkpt lat="45.81191" lon="5.79521">
        <ele>238.18</ele>
        <time>2015-05-22T11:32:12Z</time>
      </trkpt>
      <trkpt lat="45.81195" lon="5.79524">
        <ele>237.97</ele>
        <time>2015-05-22T11:32:13Z</time>
      </trkpt>
      <trkpt lat="45.81201" lon="5.79527">
        <ele>237.73</ele>
        <time>2015-05-22T11:32:14Z</time>
      </trkpt>
      <trkpt lat="45.81224" lon="5.79539">
        <ele>236.63</ele>
        <time>2015-05-22T11:32:18Z</time>
      </trkpt>
      <trkpt lat="45.8123" lon="5.79539">
        <ele>236.4</ele>
        <time>2015-05-22T11:32:19Z</time>
      </trkpt>
      <trkpt lat="45.81236" lon="5.79537">
        <ele>236.2</ele>
        <time>2015-05-22T11:32:20Z</time>
      </trkpt>
      <trkpt lat="45.8129" lon="5.7952">
        <ele>234.49</ele>
        <time>2015-05-22T11:32:30Z</time>
      </trkpt>
      <trkpt lat="45.81294" lon="5.79517">
        <ele>234.34</ele>
        <time>2015-05-22T11:32:31Z</time>
      </trkpt>
      <trkpt lat="45.81295" lon="5.79513">
        <ele>234.2</ele>
        <time>2015-05-22T11:32:32Z</time>
      </trkpt>
      <trkpt lat="45.81294" lon="5.79509">
        <ele>234.09</ele>
        <time>2015-05-22T11:32:33Z</time>
      </trkpt>
      <trkpt lat="45.81291" lon="5.79506">
        <ele>233.94</ele>
        <time>2015-05-22T11:32:34Z</time>
      </trkpt>
      <trkpt lat="45.81287" lon="5.79503">
        <ele>233.73</ele>
        <time>2015-05-22T11:32:35Z</time>
      </trkpt>
      <trkpt lat="45.81282" lon="5.79501">
        <ele>233.5</ele>
        <time>2015-05-22T11:32:36Z</time>
      </trkpt>
      <trkpt lat="45.81278" lon="5.79497">
        <ele>233.29</ele>
        <time>2015-05-22T11:32:37Z</time>
      </trkpt>
      <trkpt lat="45.81268" lon="5.7949">
        <ele>232.79</ele>
        <time>2015-05-22T11:32:39Z</time>
      </trkpt>
      <trkpt lat="45.81264" lon="5.79485">
        <ele>232.62</ele>
        <time>2015-05-22T11:32:40Z</time>
      </trkpt>
      <trkpt lat="45.81249" lon="5.79461">
        <ele>232.18</ele>
        <time>2015-05-22T11:32:44Z</time>
      </trkpt>
      <trkpt lat="45.81244" lon="5.79456">
        <ele>232.12</ele>
        <time>2015-05-22T11:32:45Z</time>
      </trkpt>
      <trkpt lat="45.8124" lon="5.79451">
        <ele>232.09</ele>
        <time>2015-05-22T11:32:46Z</time>
      </trkpt>
      <trkpt lat="45.81235" lon="5.79447">
        <ele>232.06</ele>
        <time>2015-05-22T11:32:47Z</time>
      </trkpt>
      <trkpt lat="45.8123" lon="5.79444">
        <ele>232.05</ele>
        <time>2015-05-22T11:32:48Z</time>
      </trkpt>
      <trkpt lat="45.81224" lon="5.79442">
        <ele>232.04</ele>
        <time>2015-05-22T11:32:49Z</time>
      </trkpt>
      <trkpt lat="45.81205" lon="5.79439">
        <ele>232.12</ele>
        <time>2015-05-22T11:32:52Z</time>
      </trkpt>
      <trkpt lat="45.81199" lon="5.79439">
        <ele>232.18</ele>
        <time>2015-05-22T11:32:53Z</time>
      </trkpt>
      <trkpt lat="45.81183" lon="5.79439">
        <ele>232.33</ele>
        <time>2015-05-22T11:32:56Z</time>
      </trkpt>
      <trkpt lat="45.81178" lon="5.79439">
        <ele>232.38</ele>
        <time>2015-05-22T11:32:57Z</time>
      </trkpt>
      <trkpt lat="45.81173" lon="5.79439">
        <ele>232.41</ele>
        <time>2015-05-22T11:32:58Z</time>
      </trkpt>
      <trkpt lat="45.81161" lon="5.79438">
        <ele>232.52</ele>
        <time>2015-05-22T11:33:00Z</time>
      </trkpt>
      <trkpt lat="45.81112" lon="5.79445">
        <ele>233.23</ele>
        <time>2015-05-22T11:33:08Z</time>
      </trkpt>
      <trkpt lat="45.81106" lon="5.79445">
        <ele>233.35</ele>
        <time>2015-05-22T11:33:09Z</time>
      </trkpt>
      <trkpt lat="45.811" lon="5.79447">
        <ele>233.46</ele>
        <time>2015-05-22T11:33:10Z</time>
      </trkpt>
      <trkpt lat="45.81095" lon="5.79448">
        <ele>233.55</ele>
        <time>2015-05-22T11:33:11Z</time>
      </trkpt>
      <trkpt lat="45.81089" lon="5.79448">
        <ele>233.64</ele>
        <time>2015-05-22T11:33:12Z</time>
      </trkpt>
      <trkpt lat="45.81084" lon="5.79446">
        <ele>233.7</ele>
        <time>2015-05-22T11:33:13Z</time>
      </trkpt>
      <trkpt lat="45.81078" lon="5.79444">
        <ele>233.76</ele>
        <time>2015-05-22T11:33:14Z</time>
      </trkpt>
      <trkpt lat="45.81073" lon="5.79441">
        <ele>233.81</ele>
        <time>2015-05-22T11:33:15Z</time>
      </trkpt>
      <trkpt lat="45.81068" lon="5.79437">
        <ele>233.87</ele>
        <time>2015-05-22T11:33:16Z</time>
      </trkpt>
      <trkpt lat="45.81064" lon="5.79431">
        <ele>233.92</ele>
        <time>2015-05-22T11:33:17Z</time>
      </trkpt>
      <trkpt lat="45.8106" lon="5.79425">
        <ele>233.97</ele>
        <time>2015-05-22T11:33:18Z</time>
      </trkpt>
      <trkpt lat="45.80988" lon="5.79327">
        <ele>233.5</ele>
        <time>2015-05-22T11:33:34Z</time>
      </trkpt>
      <trkpt lat="45.80969" lon="5.79302">
        <ele>233.22</ele>
        <time>2015-05-22T11:33:38Z</time>
      </trkpt>
      <trkpt lat="45.80965" lon="5.79296">
        <ele>233.21</ele>
        <time>2015-05-22T11:33:39Z</time>
      </trkpt>
      <trkpt lat="45.80919" lon="5.79199">
        <ele>233.68</ele>
        <time>2015-05-22T11:33:54Z</time>
      </trkpt>
      <trkpt lat="45.80912" lon="5.79088">
        <ele>233.11</ele>
        <time>2015-05-22T11:34:08Z</time>
      </trkpt>
      <trkpt lat="45.80913" lon="5.7908">
        <ele>233.09</ele>
        <time>2015-05-22T11:34:09Z</time>
      </trkpt>
      <trkpt lat="45.80915" lon="5.79064">
        <ele>233.09</ele>
        <time>2015-05-22T11:34:11Z</time>
      </trkpt>
      <trkpt lat="45.80917" lon="5.79057">
        <ele>233.09</ele>
        <time>2015-05-22T11:34:12Z</time>
      </trkpt>
      <trkpt lat="45.80919" lon="5.7905">
        <ele>233.09</ele>
        <time>2015-05-22T11:34:13Z</time>
      </trkpt>
      <trkpt lat="45.80948" lon="5.7897">
        <ele>233.5</ele>
        <time>2015-05-22T11:34:26Z</time>
      </trkpt>
      <trkpt lat="45.8095" lon="5.78965">
        <ele>233.5</ele>
        <time>2015-05-22T11:34:27Z</time>
      </trkpt>
      <trkpt lat="45.80971" lon="5.78907">
        <ele>233.62</ele>
        <time>2015-05-22T11:34:39Z</time>
      </trkpt>
      <trkpt lat="45.80975" lon="5.7884">
        <ele>233.63</ele>
        <time>2015-05-22T11:34:51Z</time>
      </trkpt>
      <trkpt lat="45.80971" lon="5.78812">
        <ele>233.57</ele>
        <time>2015-05-22T11:34:56Z</time>
      </trkpt>
      <trkpt lat="45.80971" lon="5.78806">
        <ele>233.54</ele>
        <time>2015-05-22T11:34:57Z</time>
      </trkpt>
      <trkpt lat="45.80971" lon="5.78777">
        <ele>233.63</ele>
        <time>2015-05-22T11:35:02Z</time>
      </trkpt>
      <trkpt lat="45.80973" lon="5.78773">
        <ele>233.65</ele>
        <time>2015-05-22T11:35:03Z</time>
      </trkpt>
      <trkpt lat="45.80977" lon="5.78771">
        <ele>233.69</ele>
        <time>2015-05-22T11:35:04Z</time>
      </trkpt>
      <trkpt lat="45.8098" lon="5.7877">
        <ele>233.75</ele>
        <time>2015-05-22T11:35:05Z</time>
      </trkpt>
      <trkpt lat="45.80984" lon="5.7877">
        <ele>233.81</ele>
        <time>2015-05-22T11:35:06Z</time>
      </trkpt>
      <trkpt lat="45.81014" lon="5.78776">
        <ele>234.06</ele>
        <time>2015-05-22T11:35:14Z</time>
      </trkpt>
      <trkpt lat="45.81062" lon="5.78783">
        <ele>234.19</ele>
        <time>2015-05-22T11:35:26Z</time>
      </trkpt>
      <trkpt lat="45.81084" lon="5.78786">
        <ele>234.92</ele>
        <time>2015-05-22T11:35:31Z</time>
      </trkpt>
      <trkpt lat="45.81089" lon="5.78786">
        <ele>235.04</ele>
        <time>2015-05-22T11:35:32Z</time>
      </trkpt>
      <trkpt lat="45.81093" lon="5.78787">
        <ele>235.18</ele>
        <time>2015-05-22T11:35:33Z</time>
      </trkpt>
      <trkpt lat="45.81098" lon="5.78788">
        <ele>235.18</ele>
        <time>2015-05-22T11:35:34Z</time>
      </trkpt>
      <trkpt lat="45.81103" lon="5.78789">
        <ele>235.21</ele>
        <time>2015-05-22T11:35:35Z</time>
      </trkpt>
      <trkpt lat="45.8112" lon="5.78794">
        <ele>235.04</ele>
        <time>2015-05-22T11:35:39Z</time>
      </trkpt>
      <trkpt lat="45.8114" lon="5.78798">
        <ele>235.28</ele>
        <time>2015-05-22T11:35:43Z</time>
      </trkpt>
      <trkpt lat="45.81155" lon="5.78799">
        <ele>235.39</ele>
        <time>2015-05-22T11:35:46Z</time>
      </trkpt>
      <trkpt lat="45.81159" lon="5.788">
        <ele>235.4</ele>
        <time>2015-05-22T11:35:47Z</time>
      </trkpt>
      <trkpt lat="45.81164" lon="5.78801">
        <ele>235.38</ele>
        <time>2015-05-22T11:35:48Z</time>
      </trkpt>
      <trkpt lat="45.81169" lon="5.78802">
        <ele>235.35</ele>
        <time>2015-05-22T11:35:49Z</time>
      </trkpt>
      <trkpt lat="45.81174" lon="5.78803">
        <ele>235.33</ele>
        <time>2015-05-22T11:35:50Z</time>
      </trkpt>
      <trkpt lat="45.81193" lon="5.7881">
        <ele>235.29</ele>
        <time>2015-05-22T11:35:54Z</time>
      </trkpt>
      <trkpt lat="45.81197" lon="5.7881">
        <ele>235.28</ele>
        <time>2015-05-22T11:35:55Z</time>
      </trkpt>
      <trkpt lat="45.81202" lon="5.78808">
        <ele>235.3</ele>
        <time>2015-05-22T11:35:56Z</time>
      </trkpt>
      <trkpt lat="45.81206" lon="5.78805">
        <ele>235.3</ele>
        <time>2015-05-22T11:35:57Z</time>
      </trkpt>
      <trkpt lat="45.81211" lon="5.78802">
        <ele>235.32</ele>
        <time>2015-05-22T11:35:58Z</time>
      </trkpt>
      <trkpt lat="45.81215" lon="5.78799">
        <ele>235.33</ele>
        <time>2015-05-22T11:35:59Z</time>
      </trkpt>
      <trkpt lat="45.81219" lon="5.78796">
        <ele>235.34</ele>
        <time>2015-05-22T11:36:00Z</time>
      </trkpt>
      <trkpt lat="45.81227" lon="5.7879">
        <ele>235.42</ele>
        <time>2015-05-22T11:36:02Z</time>
      </trkpt>
      <trkpt lat="45.81232" lon="5.7879">
        <ele>235.43</ele>
        <time>2015-05-22T11:36:03Z</time>
      </trkpt>
      <trkpt lat="45.81265" lon="5.78785">
        <ele>235.06</ele>
        <time>2015-05-22T11:36:10Z</time>
      </trkpt>
      <trkpt lat="45.81273" lon="5.7878">
        <ele>234.93</ele>
        <time>2015-05-22T11:36:12Z</time>
      </trkpt>
      <trkpt lat="45.81277" lon="5.78776">
        <ele>234.9</ele>
        <time>2015-05-22T11:36:13Z</time>
      </trkpt>
      <trkpt lat="45.81279" lon="5.7877">
        <ele>234.87</ele>
        <time>2015-05-22T11:36:14Z</time>
      </trkpt>
      <trkpt lat="45.8128" lon="5.78763">
        <ele>234.86</ele>
        <time>2015-05-22T11:36:15Z</time>
      </trkpt>
      <trkpt lat="45.8128" lon="5.78756">
        <ele>234.85</ele>
        <time>2015-05-22T11:36:16Z</time>
      </trkpt>
      <trkpt lat="45.81279" lon="5.78749">
        <ele>234.85</ele>
        <time>2015-05-22T11:36:17Z</time>
      </trkpt>
      <trkpt lat="45.81264" lon="5.78701">
        <ele>236.36</ele>
        <time>2015-05-22T11:36:28Z</time>
      </trkpt>
      <trkpt lat="45.8123" lon="5.78666">
        <ele>237.77</ele>
        <time>2015-05-22T11:36:40Z</time>
      </trkpt>
      <trkpt lat="45.81227" lon="5.78663">
        <ele>237.84</ele>
        <time>2015-05-22T11:36:41Z</time>
      </trkpt>
      <trkpt lat="45.81215" lon="5.78654">
        <ele>237.91</ele>
        <time>2015-05-22T11:36:44Z</time>
      </trkpt>
      <trkpt lat="45.81156" lon="5.78601">
        <ele>236.72</ele>
        <time>2015-05-22T11:36:56Z</time>
      </trkpt>
      <trkpt lat="45.81085" lon="5.78532">
        <ele>236.46</ele>
        <time>2015-05-22T11:37:11Z</time>
      </trkpt>
      <trkpt lat="45.81016" lon="5.78467">
        <ele>236.07</ele>
        <time>2015-05-22T11:37:24Z</time>
      </trkpt>
      <trkpt lat="45.80933" lon="5.78388">
        <ele>236.5</ele>
        <time>2015-05-22T11:37:39Z</time>
      </trkpt>
      <trkpt lat="45.80928" lon="5.78385">
        <ele>236.51</ele>
        <time>2015-05-22T11:37:40Z</time>
      </trkpt>
      <trkpt lat="45.80923" lon="5.78382">
        <ele>236.52</ele>
        <time>2015-05-22T11:37:41Z</time>
      </trkpt>
      <trkpt lat="45.80918" lon="5.7838">
        <ele>236.53</ele>
        <time>2015-05-22T11:37:42Z</time>
      </trkpt>
      <trkpt lat="45.80912" lon="5.78378">
        <ele>236.53</ele>
        <time>2015-05-22T11:37:43Z</time>
      </trkpt>
      <trkpt lat="45.80906" lon="5.78378">
        <ele>236.54</ele>
        <time>2015-05-22T11:37:44Z</time>
      </trkpt>
      <trkpt lat="45.809" lon="5.78378">
        <ele>236.55</ele>
        <time>2015-05-22T11:37:45Z</time>
      </trkpt>
      <trkpt lat="45.80895" lon="5.7838">
        <ele>236.56</ele>
        <time>2015-05-22T11:37:46Z</time>
      </trkpt>
      <trkpt lat="45.80889" lon="5.78382">
        <ele>236.57</ele>
        <time>2015-05-22T11:37:47Z</time>
      </trkpt>
      <trkpt lat="45.80883" lon="5.78382">
        <ele>236.57</ele>
        <time>2015-05-22T11:37:48Z</time>
      </trkpt>
      <trkpt lat="45.80878" lon="5.7838">
        <ele>236.57</ele>
        <time>2015-05-22T11:37:49Z</time>
      </trkpt>
      <trkpt lat="45.80872" lon="5.78378">
        <ele>236.57</ele>
        <time>2015-05-22T11:37:50Z</time>
      </trkpt>
      <trkpt lat="45.80868" lon="5.78372">
        <ele>236.57</ele>
        <time>2015-05-22T11:37:51Z</time>
      </trkpt>
      <trkpt lat="45.80865" lon="5.78365">
        <ele>236.57</ele>
        <time>2015-05-22T11:37:52Z</time>
      </trkpt>
      <trkpt lat="45.80864" lon="5.78357">
        <ele>236.56</ele>
        <time>2015-05-22T11:37:53Z</time>
      </trkpt>
      <trkpt lat="45.80864" lon="5.78349">
        <ele>236.55</ele>
        <time>2015-05-22T11:37:54Z</time>
      </trkpt>
      <trkpt lat="45.80863" lon="5.78342">
        <ele>236.56</ele>
        <time>2015-05-22T11:37:55Z</time>
      </trkpt>
      <trkpt lat="45.80857" lon="5.78257">
        <ele>238.44</ele>
        <time>2015-05-22T11:38:08Z</time>
      </trkpt>
      <trkpt lat="45.80854" lon="5.7823">
        <ele>238.31</ele>
        <time>2015-05-22T11:38:19Z</time>
      </trkpt>
      <trkpt lat="45.80856" lon="5.78226">
        <ele>238.29</ele>
        <time>2015-05-22T11:38:34Z</time>
      </trkpt>
      <trkpt lat="45.80855" lon="5.78219">
        <ele>239.03</ele>
        <time>2015-05-22T11:38:55Z</time>
      </trkpt>
      <trkpt lat="45.80855" lon="5.78217">
        <ele>239.17</ele>
        <time>2015-05-22T11:38:56Z</time>
      </trkpt>
      <trkpt lat="45.80855" lon="5.78215">
        <ele>239.28</ele>
        <time>2015-05-22T11:38:57Z</time>
      </trkpt>
      <trkpt lat="45.80856" lon="5.78174">
        <ele>238.05</ele>
        <time>2015-05-22T11:39:06Z</time>
      </trkpt>
      <trkpt lat="45.80855" lon="5.78168">
        <ele>237.91</ele>
        <time>2015-05-22T11:39:07Z</time>
      </trkpt>
      <trkpt lat="45.80852" lon="5.78164">
        <ele>237.8</ele>
        <time>2015-05-22T11:39:08Z</time>
      </trkpt>
      <trkpt lat="45.80847" lon="5.78162">
        <ele>237.68</ele>
        <time>2015-05-22T11:39:09Z</time>
      </trkpt>
      <trkpt lat="45.80843" lon="5.78163">
        <ele>237.6</ele>
        <time>2015-05-22T11:39:10Z</time>
      </trkpt>
      <trkpt lat="45.80834" lon="5.78167">
        <ele>237.51</ele>
        <time>2015-05-22T11:39:12Z</time>
      </trkpt>
      <trkpt lat="45.80812" lon="5.78183">
        <ele>237.26</ele>
        <time>2015-05-22T11:39:17Z</time>
      </trkpt>
      <trkpt lat="45.80791" lon="5.78185">
        <ele>236.98</ele>
        <time>2015-05-22T11:39:21Z</time>
      </trkpt>
      <trkpt lat="45.80775" lon="5.78182">
        <ele>236.83</ele>
        <time>2015-05-22T11:39:24Z</time>
      </trkpt>
      <trkpt lat="45.80761" lon="5.78164">
        <ele>236.85</ele>
        <time>2015-05-22T11:39:28Z</time>
      </trkpt>
      <trkpt lat="45.80739" lon="5.78123">
        <ele>236.97</ele>
        <time>2015-05-22T11:39:35Z</time>
      </trkpt>
      <trkpt lat="45.8074" lon="5.78087">
        <ele>236.72</ele>
        <time>2015-05-22T11:39:40Z</time>
      </trkpt>
      <trkpt lat="45.80738" lon="5.78067">
        <ele>236.59</ele>
        <time>2015-05-22T11:39:43Z</time>
      </trkpt>
      <trkpt lat="45.80736" lon="5.7806">
        <ele>236.48</ele>
        <time>2015-05-22T11:39:44Z</time>
      </trkpt>
      <trkpt lat="45.80732" lon="5.78053">
        <ele>236.43</ele>
        <time>2015-05-22T11:39:45Z</time>
      </trkpt>
      <trkpt lat="45.80712" lon="5.78012">
        <ele>235.19</ele>
        <time>2015-05-22T11:39:50Z</time>
      </trkpt>
      <trkpt lat="45.80653" lon="5.77972">
        <ele>233.2</ele>
        <time>2015-05-22T11:40:00Z</time>
      </trkpt>
      <trkpt lat="45.80618" lon="5.77958">
        <ele>232.83</ele>
        <time>2015-05-22T11:40:09Z</time>
      </trkpt>
      <trkpt lat="45.80535" lon="5.77936">
        <ele>233.31</ele>
        <time>2015-05-22T11:40:23Z</time>
      </trkpt>
      <trkpt lat="45.80413" lon="5.77912">
        <ele>233.41</ele>
        <time>2015-05-22T11:40:40Z</time>
      </trkpt>
      <trkpt lat="45.80265" lon="5.77881">
        <ele>233.26</ele>
        <time>2015-05-22T11:40:59Z</time>
      </trkpt>
      <trkpt lat="45.80108" lon="5.77847">
        <ele>233.22</ele>
        <time>2015-05-22T11:41:19Z</time>
      </trkpt>
      <trkpt lat="45.79945" lon="5.77813">
        <ele>233.24</ele>
        <time>2015-05-22T11:41:40Z</time>
      </trkpt>
      <trkpt lat="45.7978" lon="5.77779">
        <ele>233.02</ele>
        <time>2015-05-22T11:42:01Z</time>
      </trkpt>
      <trkpt lat="45.79659" lon="5.77754">
        <ele>233.2</ele>
        <time>2015-05-22T11:42:18Z</time>
      </trkpt>
      <trkpt lat="45.79553" lon="5.77732">
        <ele>233.27</ele>
        <time>2015-05-22T11:42:34Z</time>
      </trkpt>
      <trkpt lat="45.79449" lon="5.77709">
        <ele>233.15</ele>
        <time>2015-05-22T11:42:50Z</time>
      </trkpt>
      <trkpt lat="45.79343" lon="5.7767">
        <ele>233.64</ele>
        <time>2015-05-22T11:43:07Z</time>
      </trkpt>
      <trkpt lat="45.79252" lon="5.77643">
        <ele>233.75</ele>
        <time>2015-05-22T11:43:20Z</time>
      </trkpt>
      <trkpt lat="45.79104" lon="5.77612">
        <ele>233.74</ele>
        <time>2015-05-22T11:43:40Z</time>
      </trkpt>
      <trkpt lat="45.78959" lon="5.77581">
        <ele>233.78</ele>
        <time>2015-05-22T11:43:59Z</time>
      </trkpt>
      <trkpt lat="45.78812" lon="5.7755">
        <ele>233.69</ele>
        <time>2015-05-22T11:44:18Z</time>
      </trkpt>
      <trkpt lat="45.7865" lon="5.77515">
        <ele>233.63</ele>
        <time>2015-05-22T11:44:38Z</time>
      </trkpt>
      <trkpt lat="45.78529" lon="5.77478">
        <ele>233.7</ele>
        <time>2015-05-22T11:44:53Z</time>
      </trkpt>
      <trkpt lat="45.78418" lon="5.77428">
        <ele>234.11</ele>
        <time>2015-05-22T11:45:08Z</time>
      </trkpt>
      <trkpt lat="45.78347" lon="5.77385">
        <ele>234.19</ele>
        <time>2015-05-22T11:45:21Z</time>
      </trkpt>
      <trkpt lat="45.78284" lon="5.7734">
        <ele>234.09</ele>
        <time>2015-05-22T11:45:33Z</time>
      </trkpt>
      <trkpt lat="45.78189" lon="5.77265">
        <ele>233.88</ele>
        <time>2015-05-22T11:45:49Z</time>
      </trkpt>
      <trkpt lat="45.78186" lon="5.77259">
        <ele>233.91</ele>
        <time>2015-05-22T11:45:50Z</time>
      </trkpt>
      <trkpt lat="45.78183" lon="5.77252">
        <ele>233.95</ele>
        <time>2015-05-22T11:45:51Z</time>
      </trkpt>
      <trkpt lat="45.78182" lon="5.77246">
        <ele>234.04</ele>
        <time>2015-05-22T11:45:52Z</time>
      </trkpt>
      <trkpt lat="45.78181" lon="5.77239">
        <ele>234.19</ele>
        <time>2015-05-22T11:45:53Z</time>
      </trkpt>
      <trkpt lat="45.7818" lon="5.77234">
        <ele>234.37</ele>
        <time>2015-05-22T11:45:54Z</time>
      </trkpt>
      <trkpt lat="45.78178" lon="5.7723">
        <ele>234.6</ele>
        <time>2015-05-22T11:45:55Z</time>
      </trkpt>
      <trkpt lat="45.78176" lon="5.77227">
        <ele>234.87</ele>
        <time>2015-05-22T11:45:56Z</time>
      </trkpt>
      <trkpt lat="45.78172" lon="5.77224">
        <ele>235.14</ele>
        <time>2015-05-22T11:45:57Z</time>
      </trkpt>
      <trkpt lat="45.78157" lon="5.77219">
        <ele>236.48</ele>
        <time>2015-05-22T11:46:02Z</time>
      </trkpt>
      <trkpt lat="45.78154" lon="5.77223">
        <ele>237.05</ele>
        <time>2015-05-22T11:46:03Z</time>
      </trkpt>
      <trkpt lat="45.78148" lon="5.77235">
        <ele>237.39</ele>
        <time>2015-05-22T11:46:05Z</time>
      </trkpt>
      <trkpt lat="45.78124" lon="5.7724">
        <ele>237.06</ele>
        <time>2015-05-22T11:46:09Z</time>
      </trkpt>
      <trkpt lat="45.78071" lon="5.772">
        <ele>233.84</ele>
        <time>2015-05-22T11:46:17Z</time>
      </trkpt>
      <trkpt lat="45.77979" lon="5.77125">
        <ele>231.8</ele>
        <time>2015-05-22T11:46:31Z</time>
      </trkpt>
      <trkpt lat="45.77869" lon="5.77077">
        <ele>231.17</ele>
        <time>2015-05-22T11:46:46Z</time>
      </trkpt>
      <trkpt lat="45.77736" lon="5.77085">
        <ele>231.11</ele>
        <time>2015-05-22T11:47:03Z</time>
      </trkpt>
      <trkpt lat="45.77665" lon="5.77109">
        <ele>231.41</ele>
        <time>2015-05-22T11:47:15Z</time>
      </trkpt>
      <trkpt lat="45.77614" lon="5.77127">
        <ele>232.33</ele>
        <time>2015-05-22T11:47:26Z</time>
      </trkpt>
      <trkpt lat="45.77503" lon="5.77159">
        <ele>231.66</ele>
        <time>2015-05-22T11:47:41Z</time>
      </trkpt>
      <trkpt lat="45.77335" lon="5.77202">
        <ele>231.75</ele>
        <time>2015-05-22T11:48:02Z</time>
      </trkpt>
      <trkpt lat="45.77273" lon="5.77218">
        <ele>231.51</ele>
        <time>2015-05-22T11:48:10Z</time>
      </trkpt>
      <trkpt lat="45.77227" lon="5.77212">
        <ele>231.56</ele>
        <time>2015-05-22T11:48:16Z</time>
      </trkpt>
      <trkpt lat="45.77221" lon="5.77209">
        <ele>231.57</ele>
        <time>2015-05-22T11:48:17Z</time>
      </trkpt>
      <trkpt lat="45.77214" lon="5.77204">
        <ele>231.56</ele>
        <time>2015-05-22T11:48:18Z</time>
      </trkpt>
      <trkpt lat="45.77208" lon="5.77199">
        <ele>231.54</ele>
        <time>2015-05-22T11:48:19Z</time>
      </trkpt>
      <trkpt lat="45.77202" lon="5.77193">
        <ele>231.51</ele>
        <time>2015-05-22T11:48:20Z</time>
      </trkpt>
      <trkpt lat="45.77197" lon="5.77187">
        <ele>231.47</ele>
        <time>2015-05-22T11:48:21Z</time>
      </trkpt>
      <trkpt lat="45.77173" lon="5.7716">
        <ele>231.34</ele>
        <time>2015-05-22T11:48:26Z</time>
      </trkpt>
      <trkpt lat="45.7717" lon="5.77153">
        <ele>231.33</ele>
        <time>2015-05-22T11:48:27Z</time>
      </trkpt>
      <trkpt lat="45.7715" lon="5.77094">
        <ele>231.39</ele>
        <time>2015-05-22T11:48:35Z</time>
      </trkpt>
      <trkpt lat="45.77146" lon="5.77088">
        <ele>231.43</ele>
        <time>2015-05-22T11:48:36Z</time>
      </trkpt>
      <trkpt lat="45.77142" lon="5.77083">
        <ele>231.48</ele>
        <time>2015-05-22T11:48:37Z</time>
      </trkpt>
      <trkpt lat="45.77137" lon="5.77079">
        <ele>231.53</ele>
        <time>2015-05-22T11:48:38Z</time>
      </trkpt>
      <trkpt lat="45.77131" lon="5.77077">
        <ele>231.65</ele>
        <time>2015-05-22T11:48:39Z</time>
      </trkpt>
      <trkpt lat="45.77126" lon="5.77074">
        <ele>231.69</ele>
        <time>2015-05-22T11:48:40Z</time>
      </trkpt>
      <trkpt lat="45.7706" lon="5.77059">
        <ele>233.35</ele>
        <time>2015-05-22T11:48:54Z</time>
      </trkpt>
      <trkpt lat="45.77028" lon="5.7705">
        <ele>236.59</ele>
        <time>2015-05-22T11:49:04Z</time>
      </trkpt>
      <trkpt lat="45.7698" lon="5.7704">
        <ele>239.7</ele>
        <time>2015-05-22T11:49:19Z</time>
      </trkpt>
      <trkpt lat="45.76934" lon="5.77023">
        <ele>241.59</ele>
        <time>2015-05-22T11:49:33Z</time>
      </trkpt>
      <trkpt lat="45.76929" lon="5.77021">
        <ele>241.63</ele>
        <time>2015-05-22T11:49:34Z</time>
      </trkpt>
      <trkpt lat="45.76877" lon="5.76995">
        <ele>242</ele>
        <time>2015-05-22T11:49:45Z</time>
      </trkpt>
      <trkpt lat="45.76815" lon="5.76977">
        <ele>241.38</ele>
        <time>2015-05-22T11:49:56Z</time>
      </trkpt>
      <trkpt lat="45.7681" lon="5.76978">
        <ele>241.24</ele>
        <time>2015-05-22T11:49:57Z</time>
      </trkpt>
      <trkpt lat="45.76799" lon="5.7698">
        <ele>241.03</ele>
        <time>2015-05-22T11:49:59Z</time>
      </trkpt>
      <trkpt lat="45.76794" lon="5.76978">
        <ele>240.95</ele>
        <time>2015-05-22T11:50:00Z</time>
      </trkpt>
      <trkpt lat="45.7679" lon="5.76975">
        <ele>240.9</ele>
        <time>2015-05-22T11:50:01Z</time>
      </trkpt>
      <trkpt lat="45.76782" lon="5.76964">
        <ele>241.03</ele>
        <time>2015-05-22T11:50:03Z</time>
      </trkpt>
      <trkpt lat="45.76757" lon="5.76928">
        <ele>241.6</ele>
        <time>2015-05-22T11:50:09Z</time>
      </trkpt>
      <trkpt lat="45.76755" lon="5.76922">
        <ele>241.67</ele>
        <time>2015-05-22T11:50:10Z</time>
      </trkpt>
      <trkpt lat="45.76736" lon="5.76836">
        <ele>242.9</ele>
        <time>2015-05-22T11:50:23Z</time>
      </trkpt>
      <trkpt lat="45.76736" lon="5.7683">
        <ele>243.03</ele>
        <time>2015-05-22T11:50:24Z</time>
      </trkpt>
      <trkpt lat="45.76734" lon="5.76741">
        <ele>244.1</ele>
        <time>2015-05-22T11:50:37Z</time>
      </trkpt>
      <trkpt lat="45.76705" lon="5.76643">
        <ele>245.1</ele>
        <time>2015-05-22T11:50:53Z</time>
      </trkpt>
      <trkpt lat="45.76684" lon="5.7657">
        <ele>245.09</ele>
        <time>2015-05-22T11:51:03Z</time>
      </trkpt>
      <trkpt lat="45.7668" lon="5.76562">
        <ele>245.09</ele>
        <time>2015-05-22T11:51:04Z</time>
      </trkpt>
      <trkpt lat="45.76669" lon="5.76542">
        <ele>245.15</ele>
        <time>2015-05-22T11:51:07Z</time>
      </trkpt>
      <trkpt lat="45.76657" lon="5.76525">
        <ele>245.18</ele>
        <time>2015-05-22T11:51:10Z</time>
      </trkpt>
      <trkpt lat="45.76608" lon="5.76449">
        <ele>244.72</ele>
        <time>2015-05-22T11:51:23Z</time>
      </trkpt>
      <trkpt lat="45.7659" lon="5.76414">
        <ele>243.05</ele>
        <time>2015-05-22T11:51:30Z</time>
      </trkpt>
      <trkpt lat="45.76585" lon="5.76399">
        <ele>241.45</ele>
        <time>2015-05-22T11:51:34Z</time>
      </trkpt>
      <trkpt lat="45.7659" lon="5.76406">
        <ele>240.37</ele>
        <time>2015-05-22T11:51:46Z</time>
      </trkpt>
      <trkpt lat="45.76591" lon="5.76407">
        <ele>240.39</ele>
        <time>2015-05-22T11:51:47Z</time>
      </trkpt>
      <trkpt lat="45.76591" lon="5.76409">
        <ele>240.41</ele>
        <time>2015-05-22T11:51:48Z</time>
      </trkpt>
      <trkpt lat="45.76592" lon="5.7641">
        <ele>240.45</ele>
        <time>2015-05-22T11:51:49Z</time>
      </trkpt>
      <trkpt lat="45.76593" lon="5.76412">
        <ele>240.49</ele>
        <time>2015-05-22T11:51:50Z</time>
      </trkpt>
      <trkpt lat="45.76594" lon="5.76413">
        <ele>240.55</ele>
        <time>2015-05-22T11:51:51Z</time>
      </trkpt>
      <trkpt lat="45.76597" lon="5.76415">
        <ele>241.49</ele>
        <time>2015-05-22T11:52:03Z</time>
      </trkpt>
      <trkpt lat="45.76589" lon="5.76387">
        <ele>240.61</ele>
        <time>2015-05-22T11:52:12Z</time>
      </trkpt>
      <trkpt lat="45.76589" lon="5.76385">
        <ele>240.15</ele>
        <time>2015-05-22T11:52:28Z</time>
      </trkpt>
      <trkpt lat="45.76588" lon="5.76384">
        <ele>240.3</ele>
        <time>2015-05-22T11:53:20Z</time>
      </trkpt>
      <trkpt lat="45.76586" lon="5.76385">
        <ele>240.14</ele>
        <time>2015-05-22T11:54:14Z</time>
      </trkpt>
      <trkpt lat="45.76584" lon="5.76381">
        <ele>240.06</ele>
        <time>2015-05-22T11:54:18Z</time>
      </trkpt>
      <trkpt lat="45.76584" lon="5.76379">
        <ele>239.98</ele>
        <time>2015-05-22T11:54:19Z</time>
      </trkpt>
      <trkpt lat="45.76584" lon="5.76376">
        <ele>239.9</ele>
        <time>2015-05-22T11:54:20Z</time>
      </trkpt>
      <trkpt lat="45.76584" lon="5.76372">
        <ele>239.82</ele>
        <time>2015-05-22T11:54:21Z</time>
      </trkpt>
      <trkpt lat="45.76584" lon="5.76368">
        <ele>239.73</ele>
        <time>2015-05-22T11:54:22Z</time>
      </trkpt>
      <trkpt lat="45.76585" lon="5.76364">
        <ele>239.62</ele>
        <time>2015-05-22T11:54:23Z</time>
      </trkpt>
      <trkpt lat="45.76588" lon="5.76341">
        <ele>239.1</ele>
        <time>2015-05-22T11:54:27Z</time>
      </trkpt>
      <trkpt lat="45.76588" lon="5.76335">
        <ele>239.01</ele>
        <time>2015-05-22T11:54:28Z</time>
      </trkpt>
      <trkpt lat="45.76588" lon="5.76328">
        <ele>238.89</ele>
        <time>2015-05-22T11:54:29Z</time>
      </trkpt>
      <trkpt lat="45.76577" lon="5.76237">
        <ele>237.1</ele>
        <time>2015-05-22T11:54:42Z</time>
      </trkpt>
      <trkpt lat="45.76571" lon="5.76183">
        <ele>237.89</ele>
        <time>2015-05-22T11:54:54Z</time>
      </trkpt>
      <trkpt lat="45.76561" lon="5.76128">
        <ele>240.6</ele>
        <time>2015-05-22T11:55:08Z</time>
      </trkpt>
      <trkpt lat="45.7656" lon="5.76117">
        <ele>240.86</ele>
        <time>2015-05-22T11:55:11Z</time>
      </trkpt>
      <trkpt lat="45.76562" lon="5.76113">
        <ele>240.93</ele>
        <time>2015-05-22T11:55:12Z</time>
      </trkpt>
      <trkpt lat="45.76611" lon="5.76033">
        <ele>239.74</ele>
        <time>2015-05-22T11:55:25Z</time>
      </trkpt>
      <trkpt lat="45.76673" lon="5.75904">
        <ele>237.4</ele>
        <time>2015-05-22T11:55:43Z</time>
      </trkpt>
      <trkpt lat="45.76685" lon="5.75866">
        <ele>237.19</ele>
        <time>2015-05-22T11:55:50Z</time>
      </trkpt>
      <trkpt lat="45.76687" lon="5.75847">
        <ele>237.2</ele>
        <time>2015-05-22T11:55:53Z</time>
      </trkpt>
      <trkpt lat="45.76687" lon="5.75841">
        <ele>237.16</ele>
        <time>2015-05-22T11:55:54Z</time>
      </trkpt>
      <trkpt lat="45.76686" lon="5.75834">
        <ele>237.11</ele>
        <time>2015-05-22T11:55:55Z</time>
      </trkpt>
      <trkpt lat="45.76685" lon="5.75828">
        <ele>237.05</ele>
        <time>2015-05-22T11:55:56Z</time>
      </trkpt>
      <trkpt lat="45.76684" lon="5.75822">
        <ele>237.02</ele>
        <time>2015-05-22T11:55:57Z</time>
      </trkpt>
      <trkpt lat="45.76683" lon="5.75815">
        <ele>237.02</ele>
        <time>2015-05-22T11:55:58Z</time>
      </trkpt>
      <trkpt lat="45.76682" lon="5.75809">
        <ele>237.03</ele>
        <time>2015-05-22T11:55:59Z</time>
      </trkpt>
      <trkpt lat="45.76681" lon="5.75804">
        <ele>237.05</ele>
        <time>2015-05-22T11:56:00Z</time>
      </trkpt>
      <trkpt lat="45.76679" lon="5.75799">
        <ele>237.11</ele>
        <time>2015-05-22T11:56:01Z</time>
      </trkpt>
      <trkpt lat="45.76676" lon="5.75796">
        <ele>237.24</ele>
        <time>2015-05-22T11:56:02Z</time>
      </trkpt>
      <trkpt lat="45.76674" lon="5.75792">
        <ele>237.43</ele>
        <time>2015-05-22T11:56:03Z</time>
      </trkpt>
      <trkpt lat="45.76672" lon="5.75789">
        <ele>237.66</ele>
        <time>2015-05-22T11:56:04Z</time>
      </trkpt>
      <trkpt lat="45.76669" lon="5.75784">
        <ele>237.91</ele>
        <time>2015-05-22T11:56:05Z</time>
      </trkpt>
      <trkpt lat="45.76653" lon="5.75764">
        <ele>240.79</ele>
        <time>2015-05-22T11:56:12Z</time>
      </trkpt>
      <trkpt lat="45.76651" lon="5.75763">
        <ele>241.2</ele>
        <time>2015-05-22T11:56:13Z</time>
      </trkpt>
      <trkpt lat="45.76649" lon="5.75761">
        <ele>241.61</ele>
        <time>2015-05-22T11:56:14Z</time>
      </trkpt>
      <trkpt lat="45.76646" lon="5.7576">
        <ele>242.04</ele>
        <time>2015-05-22T11:56:15Z</time>
      </trkpt>
      <trkpt lat="45.76643" lon="5.7576">
        <ele>242.47</ele>
        <time>2015-05-22T11:56:16Z</time>
      </trkpt>
      <trkpt lat="45.76641" lon="5.75759">
        <ele>242.87</ele>
        <time>2015-05-22T11:56:17Z</time>
      </trkpt>
      <trkpt lat="45.76639" lon="5.75758">
        <ele>243.21</ele>
        <time>2015-05-22T11:56:18Z</time>
      </trkpt>
      <trkpt lat="45.76637" lon="5.75757">
        <ele>243.52</ele>
        <time>2015-05-22T11:56:19Z</time>
      </trkpt>
      <trkpt lat="45.76635" lon="5.75757">
        <ele>243.82</ele>
        <time>2015-05-22T11:56:20Z</time>
      </trkpt>
      <trkpt lat="45.76633" lon="5.75756">
        <ele>244.12</ele>
        <time>2015-05-22T11:56:21Z</time>
      </trkpt>
      <trkpt lat="45.7661" lon="5.75746">
        <ele>246.8</ele>
        <time>2015-05-22T11:56:34Z</time>
      </trkpt>
      <trkpt lat="45.76577" lon="5.7573">
        <ele>249.08</ele>
        <time>2015-05-22T11:56:48Z</time>
      </trkpt>
      <trkpt lat="45.76547" lon="5.75722">
        <ele>251.39</ele>
        <time>2015-05-22T11:57:01Z</time>
      </trkpt>
      <trkpt lat="45.76518" lon="5.75704">
        <ele>252.36</ele>
        <time>2015-05-22T11:57:12Z</time>
      </trkpt>
      <trkpt lat="45.76499" lon="5.75681">
        <ele>252.59</ele>
        <time>2015-05-22T11:57:21Z</time>
      </trkpt>
      <trkpt lat="45.765" lon="5.75679">
        <ele>252.54</ele>
        <time>2015-05-22T11:57:22Z</time>
      </trkpt>
      <trkpt lat="45.76501" lon="5.75676">
        <ele>252.49</ele>
        <time>2015-05-22T11:57:23Z</time>
      </trkpt>
      <trkpt lat="45.76507" lon="5.75651">
        <ele>252.48</ele>
        <time>2015-05-22T11:57:28Z</time>
      </trkpt>
      <trkpt lat="45.76506" lon="5.75644">
        <ele>252.55</ele>
        <time>2015-05-22T11:57:29Z</time>
      </trkpt>
      <trkpt lat="45.76506" lon="5.75593">
        <ele>252.94</ele>
        <time>2015-05-22T11:57:35Z</time>
      </trkpt>
      <trkpt lat="45.76508" lon="5.75584">
        <ele>252.96</ele>
        <time>2015-05-22T11:57:36Z</time>
      </trkpt>
      <trkpt lat="45.76546" lon="5.75462">
        <ele>253.86</ele>
        <time>2015-05-22T11:57:49Z</time>
      </trkpt>
      <trkpt lat="45.76564" lon="5.75416">
        <ele>253.75</ele>
        <time>2015-05-22T11:57:55Z</time>
      </trkpt>
      <trkpt lat="45.76566" lon="5.75413">
        <ele>253.44</ele>
        <time>2015-05-22T11:57:56Z</time>
      </trkpt>
      <trkpt lat="45.76569" lon="5.75411">
        <ele>253.07</ele>
        <time>2015-05-22T11:57:57Z</time>
      </trkpt>
      <trkpt lat="45.76573" lon="5.75407">
        <ele>250.66</ele>
        <time>2015-05-22T11:58:08Z</time>
      </trkpt>
      <trkpt lat="45.76577" lon="5.75407">
        <ele>250.5</ele>
        <time>2015-05-22T11:58:13Z</time>
      </trkpt>
      <trkpt lat="45.7658" lon="5.75409">
        <ele>250.51</ele>
        <time>2015-05-22T11:58:14Z</time>
      </trkpt>
      <trkpt lat="45.76584" lon="5.7541">
        <ele>250.49</ele>
        <time>2015-05-22T11:58:15Z</time>
      </trkpt>
      <trkpt lat="45.76607" lon="5.75422">
        <ele>249.66</ele>
        <time>2015-05-22T11:58:21Z</time>
      </trkpt>
      <trkpt lat="45.76613" lon="5.75423">
        <ele>249.34</ele>
        <time>2015-05-22T11:58:22Z</time>
      </trkpt>
      <trkpt lat="45.76642" lon="5.7543">
        <ele>247.4</ele>
        <time>2015-05-22T11:58:27Z</time>
      </trkpt>
      <trkpt lat="45.76646" lon="5.75433">
        <ele>246.93</ele>
        <time>2015-05-22T11:58:28Z</time>
      </trkpt>
      <trkpt lat="45.76649" lon="5.75435">
        <ele>246.41</ele>
        <time>2015-05-22T11:58:29Z</time>
      </trkpt>
      <trkpt lat="45.76649" lon="5.75436">
        <ele>245.86</ele>
        <time>2015-05-22T11:58:30Z</time>
      </trkpt>
      <trkpt lat="45.7664" lon="5.75437">
        <ele>244.75</ele>
        <time>2015-05-22T11:58:32Z</time>
      </trkpt>
      <trkpt lat="45.76635" lon="5.75438">
        <ele>244.24</ele>
        <time>2015-05-22T11:58:33Z</time>
      </trkpt>
      <trkpt lat="45.7663" lon="5.75439">
        <ele>243.8</ele>
        <time>2015-05-22T11:58:34Z</time>
      </trkpt>
      <trkpt lat="45.76611" lon="5.75443">
        <ele>242.69</ele>
        <time>2015-05-22T11:58:37Z</time>
      </trkpt>
      <trkpt lat="45.76597" lon="5.75451">
        <ele>241.5</ele>
        <time>2015-05-22T11:58:39Z</time>
      </trkpt>
      <trkpt lat="45.76559" lon="5.75474">
        <ele>239.72</ele>
        <time>2015-05-22T11:58:45Z</time>
      </trkpt>
      <trkpt lat="45.76547" lon="5.75477">
        <ele>239.4</ele>
        <time>2015-05-22T11:58:47Z</time>
      </trkpt>
      <trkpt lat="45.76542" lon="5.75475">
        <ele>239.29</ele>
        <time>2015-05-22T11:58:48Z</time>
      </trkpt>
      <trkpt lat="45.76538" lon="5.7547">
        <ele>239.22</ele>
        <time>2015-05-22T11:58:49Z</time>
      </trkpt>
      <trkpt lat="45.76534" lon="5.75463">
        <ele>239.22</ele>
        <time>2015-05-22T11:58:50Z</time>
      </trkpt>
      <trkpt lat="45.76532" lon="5.75455">
        <ele>239.29</ele>
        <time>2015-05-22T11:58:51Z</time>
      </trkpt>
      <trkpt lat="45.7653" lon="5.75446">
        <ele>239.45</ele>
        <time>2015-05-22T11:58:52Z</time>
      </trkpt>
      <trkpt lat="45.76529" lon="5.75437">
        <ele>239.64</ele>
        <time>2015-05-22T11:58:53Z</time>
      </trkpt>
      <trkpt lat="45.76529" lon="5.75429">
        <ele>239.79</ele>
        <time>2015-05-22T11:58:54Z</time>
      </trkpt>
      <trkpt lat="45.76529" lon="5.75411">
        <ele>240.06</ele>
        <time>2015-05-22T11:58:56Z</time>
      </trkpt>
      <trkpt lat="45.76526" lon="5.75404">
        <ele>240.17</ele>
        <time>2015-05-22T11:58:57Z</time>
      </trkpt>
      <trkpt lat="45.76522" lon="5.75398">
        <ele>240.26</ele>
        <time>2015-05-22T11:58:58Z</time>
      </trkpt>
      <trkpt lat="45.76517" lon="5.75392">
        <ele>240.33</ele>
        <time>2015-05-22T11:58:59Z</time>
      </trkpt>
      <trkpt lat="45.76512" lon="5.75387">
        <ele>240.37</ele>
        <time>2015-05-22T11:59:00Z</time>
      </trkpt>
      <trkpt lat="45.76507" lon="5.75383">
        <ele>240.39</ele>
        <time>2015-05-22T11:59:01Z</time>
      </trkpt>
      <trkpt lat="45.76502" lon="5.75377">
        <ele>240.35</ele>
        <time>2015-05-22T11:59:02Z</time>
      </trkpt>
      <trkpt lat="45.76497" lon="5.75371">
        <ele>240.3</ele>
        <time>2015-05-22T11:59:03Z</time>
      </trkpt>
      <trkpt lat="45.76493" lon="5.75365">
        <ele>240.22</ele>
        <time>2015-05-22T11:59:04Z</time>
      </trkpt>
      <trkpt lat="45.76485" lon="5.7535">
        <ele>239.64</ele>
        <time>2015-05-22T11:59:11Z</time>
      </trkpt>
      <trkpt lat="45.76489" lon="5.75345">
        <ele>239.45</ele>
        <time>2015-05-22T11:59:39Z</time>
      </trkpt>
      <trkpt lat="45.76482" lon="5.75299">
        <ele>238.82</ele>
        <time>2015-05-22T11:59:48Z</time>
      </trkpt>
      <trkpt lat="45.76476" lon="5.75283">
        <ele>238.62</ele>
        <time>2015-05-22T11:59:51Z</time>
      </trkpt>
      <trkpt lat="45.76451" lon="5.7518">
        <ele>238.94</ele>
        <time>2015-05-22T12:00:04Z</time>
      </trkpt>
      <trkpt lat="45.76421" lon="5.75057">
        <ele>239.3</ele>
        <time>2015-05-22T12:00:18Z</time>
      </trkpt>
      <trkpt lat="45.76415" lon="5.75021">
        <ele>239.03</ele>
        <time>2015-05-22T12:00:22Z</time>
      </trkpt>
      <trkpt lat="45.76411" lon="5.75002">
        <ele>238.92</ele>
        <time>2015-05-22T12:00:24Z</time>
      </trkpt>
      <trkpt lat="45.76408" lon="5.74975">
        <ele>238.92</ele>
        <time>2015-05-22T12:00:27Z</time>
      </trkpt>
      <trkpt lat="45.76408" lon="5.74967">
        <ele>238.96</ele>
        <time>2015-05-22T12:00:28Z</time>
      </trkpt>
      <trkpt lat="45.7641" lon="5.74958">
        <ele>239.02</ele>
        <time>2015-05-22T12:00:29Z</time>
      </trkpt>
      <trkpt lat="45.76414" lon="5.7495">
        <ele>239.08</ele>
        <time>2015-05-22T12:00:30Z</time>
      </trkpt>
      <trkpt lat="45.76418" lon="5.74945">
        <ele>239.2</ele>
        <time>2015-05-22T12:00:31Z</time>
      </trkpt>
      <trkpt lat="45.76421" lon="5.74939">
        <ele>239.39</ele>
        <time>2015-05-22T12:00:32Z</time>
      </trkpt>
      <trkpt lat="45.76422" lon="5.7493">
        <ele>239.64</ele>
        <time>2015-05-22T12:00:33Z</time>
      </trkpt>
      <trkpt lat="45.76423" lon="5.74924">
        <ele>239.89</ele>
        <time>2015-05-22T12:00:34Z</time>
      </trkpt>
      <trkpt lat="45.76422" lon="5.7492">
        <ele>240.11</ele>
        <time>2015-05-22T12:00:35Z</time>
      </trkpt>
      <trkpt lat="45.76421" lon="5.74916">
        <ele>240.33</ele>
        <time>2015-05-22T12:00:36Z</time>
      </trkpt>
      <trkpt lat="45.76421" lon="5.74913">
        <ele>240.58</ele>
        <time>2015-05-22T12:00:37Z</time>
      </trkpt>
      <trkpt lat="45.76421" lon="5.7491">
        <ele>240.89</ele>
        <time>2015-05-22T12:00:38Z</time>
      </trkpt>
      <trkpt lat="45.76421" lon="5.74907">
        <ele>241.22</ele>
        <time>2015-05-22T12:00:39Z</time>
      </trkpt>
      <trkpt lat="45.76421" lon="5.74904">
        <ele>241.55</ele>
        <time>2015-05-22T12:00:40Z</time>
      </trkpt>
      <trkpt lat="45.7642" lon="5.74902">
        <ele>241.87</ele>
        <time>2015-05-22T12:00:41Z</time>
      </trkpt>
      <trkpt lat="45.76419" lon="5.74899">
        <ele>242.17</ele>
        <time>2015-05-22T12:00:42Z</time>
      </trkpt>
      <trkpt lat="45.76419" lon="5.74896">
        <ele>242.45</ele>
        <time>2015-05-22T12:00:43Z</time>
      </trkpt>
      <trkpt lat="45.76419" lon="5.74892">
        <ele>242.7</ele>
        <time>2015-05-22T12:00:44Z</time>
      </trkpt>
      <trkpt lat="45.76421" lon="5.74878">
        <ele>243.64</ele>
        <time>2015-05-22T12:00:48Z</time>
      </trkpt>
      <trkpt lat="45.76422" lon="5.74826">
        <ele>245.43</ele>
        <time>2015-05-22T12:01:02Z</time>
      </trkpt>
      <trkpt lat="45.76414" lon="5.74781">
        <ele>247.69</ele>
        <time>2015-05-22T12:01:13Z</time>
      </trkpt>
      <trkpt lat="45.7641" lon="5.74765">
        <ele>247.79</ele>
        <time>2015-05-22T12:01:16Z</time>
      </trkpt>
      <trkpt lat="45.76394" lon="5.74721">
        <ele>248.05</ele>
        <time>2015-05-22T12:01:25Z</time>
      </trkpt>
      <trkpt lat="45.76353" lon="5.74643">
        <ele>248.03</ele>
        <time>2015-05-22T12:01:38Z</time>
      </trkpt>
      <trkpt lat="45.76297" lon="5.74557">
        <ele>247.24</ele>
        <time>2015-05-22T12:01:51Z</time>
      </trkpt>
      <trkpt lat="45.76277" lon="5.7453">
        <ele>247.03</ele>
        <time>2015-05-22T12:01:55Z</time>
      </trkpt>
      <trkpt lat="45.76272" lon="5.74524">
        <ele>246.95</ele>
        <time>2015-05-22T12:01:56Z</time>
      </trkpt>
      <trkpt lat="45.76218" lon="5.74473">
        <ele>245.9</ele>
        <time>2015-05-22T12:02:06Z</time>
      </trkpt>
      <trkpt lat="45.76151" lon="5.74391">
        <ele>244.53</ele>
        <time>2015-05-22T12:02:19Z</time>
      </trkpt>
      <trkpt lat="45.76092" lon="5.7432">
        <ele>243.73</ele>
        <time>2015-05-22T12:02:31Z</time>
      </trkpt>
      <trkpt lat="45.76085" lon="5.74307">
        <ele>243.63</ele>
        <time>2015-05-22T12:02:33Z</time>
      </trkpt>
      <trkpt lat="45.76057" lon="5.7421">
        <ele>244.23</ele>
        <time>2015-05-22T12:02:47Z</time>
      </trkpt>
      <trkpt lat="45.76055" lon="5.74204">
        <ele>244.23</ele>
        <time>2015-05-22T12:02:48Z</time>
      </trkpt>
      <trkpt lat="45.76052" lon="5.7419">
        <ele>244.19</ele>
        <time>2015-05-22T12:02:50Z</time>
      </trkpt>
      <trkpt lat="45.7605" lon="5.74182">
        <ele>244.16</ele>
        <time>2015-05-22T12:02:51Z</time>
      </trkpt>
      <trkpt lat="45.76041" lon="5.74128">
        <ele>244.47</ele>
        <time>2015-05-22T12:02:58Z</time>
      </trkpt>
      <trkpt lat="45.76038" lon="5.74121">
        <ele>244.6</ele>
        <time>2015-05-22T12:02:59Z</time>
      </trkpt>
      <trkpt lat="45.76036" lon="5.74114">
        <ele>244.7</ele>
        <time>2015-05-22T12:03:00Z</time>
      </trkpt>
      <trkpt lat="45.76021" lon="5.74061">
        <ele>244.38</ele>
        <time>2015-05-22T12:03:07Z</time>
      </trkpt>
      <trkpt lat="45.76019" lon="5.74053">
        <ele>244.23</ele>
        <time>2015-05-22T12:03:08Z</time>
      </trkpt>
      <trkpt lat="45.76017" lon="5.74046">
        <ele>244.06</ele>
        <time>2015-05-22T12:03:09Z</time>
      </trkpt>
      <trkpt lat="45.75985" lon="5.73944">
        <ele>243.16</ele>
        <time>2015-05-22T12:03:23Z</time>
      </trkpt>
      <trkpt lat="45.75963" lon="5.73797">
        <ele>242.63</ele>
        <time>2015-05-22T12:03:39Z</time>
      </trkpt>
      <trkpt lat="45.75959" lon="5.73704">
        <ele>239.5</ele>
        <time>2015-05-22T12:03:48Z</time>
      </trkpt>
      <trkpt lat="45.75973" lon="5.73556">
        <ele>237.62</ele>
        <time>2015-05-22T12:04:03Z</time>
      </trkpt>
      <trkpt lat="45.76003" lon="5.73438">
        <ele>237.26</ele>
        <time>2015-05-22T12:04:17Z</time>
      </trkpt>
      <trkpt lat="45.76016" lon="5.73408">
        <ele>237.59</ele>
        <time>2015-05-22T12:04:22Z</time>
      </trkpt>
      <trkpt lat="45.76022" lon="5.73392">
        <ele>237.85</ele>
        <time>2015-05-22T12:04:25Z</time>
      </trkpt>
      <trkpt lat="45.76055" lon="5.73308">
        <ele>239.13</ele>
        <time>2015-05-22T12:04:39Z</time>
      </trkpt>
      <trkpt lat="45.76094" lon="5.73169">
        <ele>241.09</ele>
        <time>2015-05-22T12:04:56Z</time>
      </trkpt>
      <trkpt lat="45.76113" lon="5.73079">
        <ele>241.76</ele>
        <time>2015-05-22T12:05:06Z</time>
      </trkpt>
      <trkpt lat="45.76112" lon="5.73041">
        <ele>241.72</ele>
        <time>2015-05-22T12:05:10Z</time>
      </trkpt>
      <trkpt lat="45.76113" lon="5.73032">
        <ele>241.67</ele>
        <time>2015-05-22T12:05:11Z</time>
      </trkpt>
      <trkpt lat="45.76114" lon="5.73022">
        <ele>241.6</ele>
        <time>2015-05-22T12:05:12Z</time>
      </trkpt>
      <trkpt lat="45.76141" lon="5.72923">
        <ele>240.98</ele>
        <time>2015-05-22T12:05:25Z</time>
      </trkpt>
      <trkpt lat="45.76145" lon="5.72908">
        <ele>240.91</ele>
        <time>2015-05-22T12:05:27Z</time>
      </trkpt>
      <trkpt lat="45.7615" lon="5.72894">
        <ele>240.9</ele>
        <time>2015-05-22T12:05:29Z</time>
      </trkpt>
      <trkpt lat="45.76171" lon="5.72784">
        <ele>241.94</ele>
        <time>2015-05-22T12:05:43Z</time>
      </trkpt>
      <trkpt lat="45.76179" lon="5.72747">
        <ele>242.9</ele>
        <time>2015-05-22T12:05:49Z</time>
      </trkpt>
      <trkpt lat="45.7618" lon="5.72742">
        <ele>242.94</ele>
        <time>2015-05-22T12:05:50Z</time>
      </trkpt>
      <trkpt lat="45.76184" lon="5.72731">
        <ele>242.83</ele>
        <time>2015-05-22T12:05:52Z</time>
      </trkpt>
      <trkpt lat="45.76205" lon="5.72673">
        <ele>241.54</ele>
        <time>2015-05-22T12:06:01Z</time>
      </trkpt>
      <trkpt lat="45.76211" lon="5.72569">
        <ele>242.14</ele>
        <time>2015-05-22T12:06:14Z</time>
      </trkpt>
      <trkpt lat="45.7621" lon="5.72465">
        <ele>242.93</ele>
        <time>2015-05-22T12:06:26Z</time>
      </trkpt>
      <trkpt lat="45.76209" lon="5.72457">
        <ele>242.88</ele>
        <time>2015-05-22T12:06:27Z</time>
      </trkpt>
      <trkpt lat="45.76206" lon="5.72451">
        <ele>242.81</ele>
        <time>2015-05-22T12:06:28Z</time>
      </trkpt>
      <trkpt lat="45.76204" lon="5.72444">
        <ele>242.7</ele>
        <time>2015-05-22T12:06:29Z</time>
      </trkpt>
      <trkpt lat="45.76203" lon="5.72436">
        <ele>242.56</ele>
        <time>2015-05-22T12:06:30Z</time>
      </trkpt>
      <trkpt lat="45.76202" lon="5.72428">
        <ele>242.44</ele>
        <time>2015-05-22T12:06:31Z</time>
      </trkpt>
      <trkpt lat="45.76186" lon="5.72318">
        <ele>242.72</ele>
        <time>2015-05-22T12:06:45Z</time>
      </trkpt>
      <trkpt lat="45.76185" lon="5.72311">
        <ele>242.74</ele>
        <time>2015-05-22T12:06:46Z</time>
      </trkpt>
      <trkpt lat="45.76185" lon="5.72304">
        <ele>242.7</ele>
        <time>2015-05-22T12:06:47Z</time>
      </trkpt>
      <trkpt lat="45.76185" lon="5.72296">
        <ele>242.59</ele>
        <time>2015-05-22T12:06:48Z</time>
      </trkpt>
      <trkpt lat="45.76186" lon="5.72289">
        <ele>242.41</ele>
        <time>2015-05-22T12:06:49Z</time>
      </trkpt>
      <trkpt lat="45.76187" lon="5.72282">
        <ele>242.19</ele>
        <time>2015-05-22T12:06:50Z</time>
      </trkpt>
      <trkpt lat="45.76188" lon="5.72275">
        <ele>242.01</ele>
        <time>2015-05-22T12:06:51Z</time>
      </trkpt>
      <trkpt lat="45.7619" lon="5.72268">
        <ele>241.86</ele>
        <time>2015-05-22T12:06:52Z</time>
      </trkpt>
      <trkpt lat="45.76193" lon="5.72262">
        <ele>241.73</ele>
        <time>2015-05-22T12:06:53Z</time>
      </trkpt>
      <trkpt lat="45.76195" lon="5.72256">
        <ele>241.63</ele>
        <time>2015-05-22T12:06:54Z</time>
      </trkpt>
      <trkpt lat="45.76217" lon="5.72171">
        <ele>240.04</ele>
        <time>2015-05-22T12:07:09Z</time>
      </trkpt>
      <trkpt lat="45.76217" lon="5.72171">
        <ele>239.51</ele>
        <time>2015-05-22T12:07:23Z</time>
      </trkpt>
      <trkpt lat="45.76204" lon="5.72154">
        <ele>238.5</ele>
        <time>2015-05-22T12:22:42Z</time>
      </trkpt>
      <trkpt lat="45.76202" lon="5.7215">
        <ele>217.13</ele>
        <time>2015-05-22T12:22:43Z</time>
      </trkpt>
      <trkpt lat="45.76203" lon="5.72139">
        <ele>217.13</ele>
        <time>2015-05-22T12:22:44Z</time>
      </trkpt>
      <trkpt lat="45.76202" lon="5.72131">
        <ele>217.13</ele>
        <time>2015-05-22T12:22:45Z</time>
      </trkpt>
      <trkpt lat="45.76202" lon="5.72125">
        <ele>217.13</ele>
        <time>2015-05-22T12:22:46Z</time>
      </trkpt>
      <trkpt lat="45.76201" lon="5.72117">
        <ele>217.13</ele>
        <time>2015-05-22T12:22:47Z</time>
      </trkpt>
      <trkpt lat="45.76179" lon="5.72004">
        <ele>217.47</ele>
        <time>2015-05-22T12:23:03Z</time>
      </trkpt>
      <trkpt lat="45.76177" lon="5.71997">
        <ele>217.38</ele>
        <time>2015-05-22T12:23:04Z</time>
      </trkpt>
      <trkpt lat="45.76137" lon="5.71894">
        <ele>216.86</ele>
        <time>2015-05-22T12:23:18Z</time>
      </trkpt>
      <trkpt lat="45.76076" lon="5.71763">
        <ele>217.02</ele>
        <time>2015-05-22T12:23:37Z</time>
      </trkpt>
      <trkpt lat="45.76025" lon="5.71657">
        <ele>216.35</ele>
        <time>2015-05-22T12:23:52Z</time>
      </trkpt>
      <trkpt lat="45.76006" lon="5.71622">
        <ele>216.11</ele>
        <time>2015-05-22T12:23:57Z</time>
      </trkpt>
      <trkpt lat="45.76002" lon="5.71616">
        <ele>216.07</ele>
        <time>2015-05-22T12:23:58Z</time>
      </trkpt>
      <trkpt lat="45.75997" lon="5.7161">
        <ele>216.02</ele>
        <time>2015-05-22T12:23:59Z</time>
      </trkpt>
      <trkpt lat="45.75991" lon="5.71605">
        <ele>216.01</ele>
        <time>2015-05-22T12:24:00Z</time>
      </trkpt>
      <trkpt lat="45.75985" lon="5.71601">
        <ele>216.05</ele>
        <time>2015-05-22T12:24:01Z</time>
      </trkpt>
      <trkpt lat="45.75979" lon="5.71597">
        <ele>216.1</ele>
        <time>2015-05-22T12:24:02Z</time>
      </trkpt>
      <trkpt lat="45.75974" lon="5.71594">
        <ele>216.15</ele>
        <time>2015-05-22T12:24:03Z</time>
      </trkpt>
      <trkpt lat="45.75968" lon="5.71592">
        <ele>216.18</ele>
        <time>2015-05-22T12:24:04Z</time>
      </trkpt>
      <trkpt lat="45.75962" lon="5.71589">
        <ele>216.22</ele>
        <time>2015-05-22T12:24:05Z</time>
      </trkpt>
      <trkpt lat="45.75905" lon="5.71558">
        <ele>216.66</ele>
        <time>2015-05-22T12:24:15Z</time>
      </trkpt>
      <trkpt lat="45.75899" lon="5.71552">
        <ele>216.68</ele>
        <time>2015-05-22T12:24:16Z</time>
      </trkpt>
      <trkpt lat="45.75895" lon="5.71545">
        <ele>216.7</ele>
        <time>2015-05-22T12:24:17Z</time>
      </trkpt>
      <trkpt lat="45.75891" lon="5.71538">
        <ele>216.73</ele>
        <time>2015-05-22T12:24:18Z</time>
      </trkpt>
      <trkpt lat="45.75887" lon="5.7153">
        <ele>216.76</ele>
        <time>2015-05-22T12:24:19Z</time>
      </trkpt>
      <trkpt lat="45.7582" lon="5.71392">
        <ele>217.55</ele>
        <time>2015-05-22T12:24:37Z</time>
      </trkpt>
      <trkpt lat="45.75761" lon="5.71268">
        <ele>217.53</ele>
        <time>2015-05-22T12:24:53Z</time>
      </trkpt>
      <trkpt lat="45.75713" lon="5.7117">
        <ele>217.84</ele>
        <time>2015-05-22T12:25:06Z</time>
      </trkpt>
      <trkpt lat="45.75708" lon="5.71165">
        <ele>217.86</ele>
        <time>2015-05-22T12:25:07Z</time>
      </trkpt>
      <trkpt lat="45.75703" lon="5.7116">
        <ele>217.89</ele>
        <time>2015-05-22T12:25:08Z</time>
      </trkpt>
      <trkpt lat="45.75671" lon="5.71136">
        <ele>218.11</ele>
        <time>2015-05-22T12:25:14Z</time>
      </trkpt>
      <trkpt lat="45.75667" lon="5.71129">
        <ele>218.08</ele>
        <time>2015-05-22T12:25:15Z</time>
      </trkpt>
      <trkpt lat="45.75663" lon="5.71122">
        <ele>218.03</ele>
        <time>2015-05-22T12:25:16Z</time>
      </trkpt>
      <trkpt lat="45.75597" lon="5.70983">
        <ele>217.7</ele>
        <time>2015-05-22T12:25:34Z</time>
      </trkpt>
      <trkpt lat="45.75524" lon="5.70829">
        <ele>218.14</ele>
        <time>2015-05-22T12:25:54Z</time>
      </trkpt>
      <trkpt lat="45.75485" lon="5.70758">
        <ele>218.32</ele>
        <time>2015-05-22T12:26:04Z</time>
      </trkpt>
      <trkpt lat="45.75483" lon="5.70751">
        <ele>218.37</ele>
        <time>2015-05-22T12:26:05Z</time>
      </trkpt>
      <trkpt lat="45.75483" lon="5.70743">
        <ele>218.45</ele>
        <time>2015-05-22T12:26:06Z</time>
      </trkpt>
      <trkpt lat="45.75485" lon="5.70735">
        <ele>218.51</ele>
        <time>2015-05-22T12:26:07Z</time>
      </trkpt>
      <trkpt lat="45.7549" lon="5.70728">
        <ele>218.57</ele>
        <time>2015-05-22T12:26:08Z</time>
      </trkpt>
      <trkpt lat="45.75496" lon="5.70723">
        <ele>218.58</ele>
        <time>2015-05-22T12:26:09Z</time>
      </trkpt>
      <trkpt lat="45.75501" lon="5.70719">
        <ele>218.54</ele>
        <time>2015-05-22T12:26:10Z</time>
      </trkpt>
      <trkpt lat="45.75506" lon="5.70714">
        <ele>218.43</ele>
        <time>2015-05-22T12:26:11Z</time>
      </trkpt>
      <trkpt lat="45.75509" lon="5.70707">
        <ele>218.21</ele>
        <time>2015-05-22T12:26:12Z</time>
      </trkpt>
      <trkpt lat="45.7551" lon="5.70698">
        <ele>217.89</ele>
        <time>2015-05-22T12:26:13Z</time>
      </trkpt>
      <trkpt lat="45.75508" lon="5.70691">
        <ele>217.44</ele>
        <time>2015-05-22T12:26:14Z</time>
      </trkpt>
      <trkpt lat="45.75505" lon="5.70683">
        <ele>216.91</ele>
        <time>2015-05-22T12:26:15Z</time>
      </trkpt>
      <trkpt lat="45.75501" lon="5.70676">
        <ele>216.36</ele>
        <time>2015-05-22T12:26:16Z</time>
      </trkpt>
      <trkpt lat="45.75496" lon="5.7067">
        <ele>215.83</ele>
        <time>2015-05-22T12:26:17Z</time>
      </trkpt>
      <trkpt lat="45.75492" lon="5.70664">
        <ele>215.34</ele>
        <time>2015-05-22T12:26:18Z</time>
      </trkpt>
      <trkpt lat="45.7544" lon="5.7059">
        <ele>212.28</ele>
        <time>2015-05-22T12:26:29Z</time>
      </trkpt>
      <trkpt lat="45.75378" lon="5.70513">
        <ele>211.71</ele>
        <time>2015-05-22T12:26:41Z</time>
      </trkpt>
      <trkpt lat="45.75294" lon="5.7043">
        <ele>210.93</ele>
        <time>2015-05-22T12:26:55Z</time>
      </trkpt>
      <trkpt lat="45.75224" lon="5.70386">
        <ele>211.32</ele>
        <time>2015-05-22T12:27:07Z</time>
      </trkpt>
      <trkpt lat="45.75129" lon="5.70355">
        <ele>211.3</ele>
        <time>2015-05-22T12:27:21Z</time>
      </trkpt>
      <trkpt lat="45.75036" lon="5.7034">
        <ele>211.02</ele>
        <time>2015-05-22T12:27:34Z</time>
      </trkpt>
      <trkpt lat="45.74957" lon="5.70328">
        <ele>211.2</ele>
        <time>2015-05-22T12:27:45Z</time>
      </trkpt>
      <trkpt lat="45.74951" lon="5.70324">
        <ele>211.2</ele>
        <time>2015-05-22T12:27:46Z</time>
      </trkpt>
      <trkpt lat="45.74946" lon="5.70317">
        <ele>211.18</ele>
        <time>2015-05-22T12:27:47Z</time>
      </trkpt>
      <trkpt lat="45.74941" lon="5.7031">
        <ele>211.16</ele>
        <time>2015-05-22T12:27:48Z</time>
      </trkpt>
      <trkpt lat="45.74937" lon="5.70302">
        <ele>211.13</ele>
        <time>2015-05-22T12:27:49Z</time>
      </trkpt>
      <trkpt lat="45.74933" lon="5.70293">
        <ele>211.11</ele>
        <time>2015-05-22T12:27:50Z</time>
      </trkpt>
      <trkpt lat="45.74869" lon="5.70189">
        <ele>212.29</ele>
        <time>2015-05-22T12:28:04Z</time>
      </trkpt>
      <trkpt lat="45.74863" lon="5.70184">
        <ele>212.39</ele>
        <time>2015-05-22T12:28:05Z</time>
      </trkpt>
      <trkpt lat="45.74812" lon="5.70161">
        <ele>213.47</ele>
        <time>2015-05-22T12:28:14Z</time>
      </trkpt>
      <trkpt lat="45.74772" lon="5.7017">
        <ele>214</ele>
        <time>2015-05-22T12:28:21Z</time>
      </trkpt>
      <trkpt lat="45.74767" lon="5.70173">
        <ele>214</ele>
        <time>2015-05-22T12:28:22Z</time>
      </trkpt>
      <trkpt lat="45.74702" lon="5.70229">
        <ele>213.45</ele>
        <time>2015-05-22T12:28:34Z</time>
      </trkpt>
      <trkpt lat="45.74616" lon="5.70278">
        <ele>212.14</ele>
        <time>2015-05-22T12:28:47Z</time>
      </trkpt>
      <trkpt lat="45.74522" lon="5.70277">
        <ele>210.49</ele>
        <time>2015-05-22T12:29:00Z</time>
      </trkpt>
      <trkpt lat="45.74418" lon="5.70268">
        <ele>211.77</ele>
        <time>2015-05-22T12:29:14Z</time>
      </trkpt>
      <trkpt lat="45.74331" lon="5.70258">
        <ele>212.3</ele>
        <time>2015-05-22T12:29:28Z</time>
      </trkpt>
      <trkpt lat="45.7432" lon="5.70257">
        <ele>212.3</ele>
        <time>2015-05-22T12:29:30Z</time>
      </trkpt>
      <trkpt lat="45.74235" lon="5.70246">
        <ele>212.34</ele>
        <time>2015-05-22T12:29:45Z</time>
      </trkpt>
      <trkpt lat="45.74146" lon="5.70257">
        <ele>213.12</ele>
        <time>2015-05-22T12:30:02Z</time>
      </trkpt>
      <trkpt lat="45.74046" lon="5.70309">
        <ele>212.2</ele>
        <time>2015-05-22T12:30:19Z</time>
      </trkpt>
      <trkpt lat="45.73936" lon="5.70409">
        <ele>209.5</ele>
        <time>2015-05-22T12:30:38Z</time>
      </trkpt>
      <trkpt lat="45.73924" lon="5.70416">
        <ele>209.48</ele>
        <time>2015-05-22T12:30:40Z</time>
      </trkpt>
      <trkpt lat="45.73894" lon="5.70423">
        <ele>209.13</ele>
        <time>2015-05-22T12:30:45Z</time>
      </trkpt>
      <trkpt lat="45.73888" lon="5.70422">
        <ele>209.03</ele>
        <time>2015-05-22T12:30:46Z</time>
      </trkpt>
      <trkpt lat="45.73882" lon="5.7042">
        <ele>208.95</ele>
        <time>2015-05-22T12:30:47Z</time>
      </trkpt>
      <trkpt lat="45.73876" lon="5.70417">
        <ele>208.88</ele>
        <time>2015-05-22T12:30:48Z</time>
      </trkpt>
      <trkpt lat="45.7387" lon="5.70413">
        <ele>208.85</ele>
        <time>2015-05-22T12:30:49Z</time>
      </trkpt>
      <trkpt lat="45.7386" lon="5.70405">
        <ele>208.91</ele>
        <time>2015-05-22T12:30:51Z</time>
      </trkpt>
      <trkpt lat="45.7384" lon="5.70389">
        <ele>209.14</ele>
        <time>2015-05-22T12:30:55Z</time>
      </trkpt>
      <trkpt lat="45.73835" lon="5.70387">
        <ele>209.21</ele>
        <time>2015-05-22T12:30:56Z</time>
      </trkpt>
      <trkpt lat="45.73829" lon="5.70388">
        <ele>209.34</ele>
        <time>2015-05-22T12:30:57Z</time>
      </trkpt>
      <trkpt lat="45.73825" lon="5.70391">
        <ele>209.34</ele>
        <time>2015-05-22T12:30:58Z</time>
      </trkpt>
      <trkpt lat="45.7382" lon="5.70395">
        <ele>209.45</ele>
        <time>2015-05-22T12:30:59Z</time>
      </trkpt>
      <trkpt lat="45.73817" lon="5.70399">
        <ele>209.76</ele>
        <time>2015-05-22T12:31:00Z</time>
      </trkpt>
      <trkpt lat="45.73814" lon="5.70404">
        <ele>209.92</ele>
        <time>2015-05-22T12:31:01Z</time>
      </trkpt>
      <trkpt lat="45.73811" lon="5.70408">
        <ele>210.06</ele>
        <time>2015-05-22T12:31:02Z</time>
      </trkpt>
      <trkpt lat="45.7381" lon="5.70412">
        <ele>210.22</ele>
        <time>2015-05-22T12:31:03Z</time>
      </trkpt>
      <trkpt lat="45.73809" lon="5.70416">
        <ele>210.42</ele>
        <time>2015-05-22T12:31:04Z</time>
      </trkpt>
      <trkpt lat="45.73798" lon="5.70435">
        <ele>213.73</ele>
        <time>2015-05-22T12:31:14Z</time>
      </trkpt>
      <trkpt lat="45.73783" lon="5.70443">
        <ele>216.91</ele>
        <time>2015-05-22T12:31:24Z</time>
      </trkpt>
      <trkpt lat="45.73763" lon="5.7042">
        <ele>218.28</ele>
        <time>2015-05-22T12:31:32Z</time>
      </trkpt>
      <trkpt lat="45.73763" lon="5.70415">
        <ele>218.45</ele>
        <time>2015-05-22T12:31:33Z</time>
      </trkpt>
      <trkpt lat="45.73765" lon="5.7041">
        <ele>218.6</ele>
        <time>2015-05-22T12:31:34Z</time>
      </trkpt>
      <trkpt lat="45.73767" lon="5.70405">
        <ele>218.72</ele>
        <time>2015-05-22T12:31:35Z</time>
      </trkpt>
      <trkpt lat="45.73769" lon="5.704">
        <ele>218.81</ele>
        <time>2015-05-22T12:31:36Z</time>
      </trkpt>
      <trkpt lat="45.73772" lon="5.70395">
        <ele>218.88</ele>
        <time>2015-05-22T12:31:37Z</time>
      </trkpt>
      <trkpt lat="45.73775" lon="5.70391">
        <ele>218.98</ele>
        <time>2015-05-22T12:31:38Z</time>
      </trkpt>
      <trkpt lat="45.7378" lon="5.70382">
        <ele>219.19</ele>
        <time>2015-05-22T12:31:40Z</time>
      </trkpt>
      <trkpt lat="45.73783" lon="5.70377">
        <ele>219.29</ele>
        <time>2015-05-22T12:31:41Z</time>
      </trkpt>
      <trkpt lat="45.73788" lon="5.70368">
        <ele>219.6</ele>
        <time>2015-05-22T12:31:43Z</time>
      </trkpt>
      <trkpt lat="45.7379" lon="5.70364">
        <ele>219.82</ele>
        <time>2015-05-22T12:31:44Z</time>
      </trkpt>
      <trkpt lat="45.73815" lon="5.70336">
        <ele>219.95</ele>
        <time>2015-05-22T12:31:55Z</time>
      </trkpt>
      <trkpt lat="45.73823" lon="5.70331">
        <ele>220.15</ele>
        <time>2015-05-22T12:32:00Z</time>
      </trkpt>
      <trkpt lat="45.73823" lon="5.70333">
        <ele>220.18</ele>
        <time>2015-05-22T12:32:01Z</time>
      </trkpt>
      <trkpt lat="45.73823" lon="5.70335">
        <ele>220.21</ele>
        <time>2015-05-22T12:32:02Z</time>
      </trkpt>
      <trkpt lat="45.73822" lon="5.70336">
        <ele>220.23</ele>
        <time>2015-05-22T12:32:03Z</time>
      </trkpt>
      <trkpt lat="45.73821" lon="5.70337">
        <ele>220.24</ele>
        <time>2015-05-22T12:32:04Z</time>
      </trkpt>
      <trkpt lat="45.7382" lon="5.70338">
        <ele>220.25</ele>
        <time>2015-05-22T12:32:05Z</time>
      </trkpt>
      <trkpt lat="45.73818" lon="5.7034">
        <ele>220.26</ele>
        <time>2015-05-22T12:32:06Z</time>
      </trkpt>
      <trkpt lat="45.73797" lon="5.70372">
        <ele>222</ele>
        <time>2015-05-22T12:32:18Z</time>
      </trkpt>
      <trkpt lat="45.73777" lon="5.70425">
        <ele>225.23</ele>
        <time>2015-05-22T12:32:33Z</time>
      </trkpt>
      <trkpt lat="45.73757" lon="5.70491">
        <ele>226.46</ele>
        <time>2015-05-22T12:32:47Z</time>
      </trkpt>
      <trkpt lat="45.73734" lon="5.70562">
        <ele>227.32</ele>
        <time>2015-05-22T12:32:59Z</time>
      </trkpt>
      <trkpt lat="45.73696" lon="5.70657">
        <ele>224.86</ele>
        <time>2015-05-22T12:33:12Z</time>
      </trkpt>
      <trkpt lat="45.73687" lon="5.70674">
        <ele>224.35</ele>
        <time>2015-05-22T12:33:15Z</time>
      </trkpt>
      <trkpt lat="45.73684" lon="5.70676">
        <ele>224.23</ele>
        <time>2015-05-22T12:33:16Z</time>
      </trkpt>
      <trkpt lat="45.73681" lon="5.70674">
        <ele>224.13</ele>
        <time>2015-05-22T12:33:17Z</time>
      </trkpt>
      <trkpt lat="45.7368" lon="5.7067">
        <ele>224.03</ele>
        <time>2015-05-22T12:33:18Z</time>
      </trkpt>
      <trkpt lat="45.73679" lon="5.70665">
        <ele>223.96</ele>
        <time>2015-05-22T12:33:19Z</time>
      </trkpt>
      <trkpt lat="45.73679" lon="5.70659">
        <ele>223.87</ele>
        <time>2015-05-22T12:33:20Z</time>
      </trkpt>
      <trkpt lat="45.7368" lon="5.70652">
        <ele>223.71</ele>
        <time>2015-05-22T12:33:21Z</time>
      </trkpt>
      <trkpt lat="45.73679" lon="5.70645">
        <ele>223.51</ele>
        <time>2015-05-22T12:33:22Z</time>
      </trkpt>
      <trkpt lat="45.73677" lon="5.70639">
        <ele>223.3</ele>
        <time>2015-05-22T12:33:23Z</time>
      </trkpt>
      <trkpt lat="45.73674" lon="5.70632">
        <ele>223.11</ele>
        <time>2015-05-22T12:33:24Z</time>
      </trkpt>
      <trkpt lat="45.73651" lon="5.70593">
        <ele>222.22</ele>
        <time>2015-05-22T12:33:30Z</time>
      </trkpt>
      <trkpt lat="45.73635" lon="5.70574">
        <ele>222.46</ele>
        <time>2015-05-22T12:33:34Z</time>
      </trkpt>
      <trkpt lat="45.73624" lon="5.70562">
        <ele>223.24</ele>
        <time>2015-05-22T12:33:37Z</time>
      </trkpt>
      <trkpt lat="45.73621" lon="5.70559">
        <ele>223.5</ele>
        <time>2015-05-22T12:33:38Z</time>
      </trkpt>
      <trkpt lat="45.73603" lon="5.70541">
        <ele>224.85</ele>
        <time>2015-05-22T12:33:43Z</time>
      </trkpt>
      <trkpt lat="45.73598" lon="5.70536">
        <ele>225.13</ele>
        <time>2015-05-22T12:33:44Z</time>
      </trkpt>
      <trkpt lat="45.73594" lon="5.70532">
        <ele>225.37</ele>
        <time>2015-05-22T12:33:45Z</time>
      </trkpt>
      <trkpt lat="45.73586" lon="5.70524">
        <ele>225.81</ele>
        <time>2015-05-22T12:33:47Z</time>
      </trkpt>
      <trkpt lat="45.73572" lon="5.70513">
        <ele>226.37</ele>
        <time>2015-05-22T12:33:50Z</time>
      </trkpt>
      <trkpt lat="45.73567" lon="5.70508">
        <ele>226.5</ele>
        <time>2015-05-22T12:33:51Z</time>
      </trkpt>
      <trkpt lat="45.73562" lon="5.70504">
        <ele>226.6</ele>
        <time>2015-05-22T12:33:52Z</time>
      </trkpt>
      <trkpt lat="45.73556" lon="5.70499">
        <ele>226.68</ele>
        <time>2015-05-22T12:33:53Z</time>
      </trkpt>
      <trkpt lat="45.73551" lon="5.70496">
        <ele>226.74</ele>
        <time>2015-05-22T12:33:54Z</time>
      </trkpt>
      <trkpt lat="45.73545" lon="5.70492">
        <ele>226.77</ele>
        <time>2015-05-22T12:33:55Z</time>
      </trkpt>
      <trkpt lat="45.73539" lon="5.70488">
        <ele>226.79</ele>
        <time>2015-05-22T12:33:56Z</time>
      </trkpt>
      <trkpt lat="45.73534" lon="5.70486">
        <ele>226.78</ele>
        <time>2015-05-22T12:33:57Z</time>
      </trkpt>
      <trkpt lat="45.73529" lon="5.70485">
        <ele>226.78</ele>
        <time>2015-05-22T12:33:58Z</time>
      </trkpt>
      <trkpt lat="45.73524" lon="5.70484">
        <ele>226.73</ele>
        <time>2015-05-22T12:33:59Z</time>
      </trkpt>
      <trkpt lat="45.73509" lon="5.70479">
        <ele>226.68</ele>
        <time>2015-05-22T12:34:02Z</time>
      </trkpt>
      <trkpt lat="45.735" lon="5.70476">
        <ele>226.67</ele>
        <time>2015-05-22T12:34:04Z</time>
      </trkpt>
      <trkpt lat="45.73455" lon="5.70463">
        <ele>225.97</ele>
        <time>2015-05-22T12:34:13Z</time>
      </trkpt>
      <trkpt lat="45.73431" lon="5.70456">
        <ele>224.65</ele>
        <time>2015-05-22T12:34:18Z</time>
      </trkpt>
      <trkpt lat="45.73416" lon="5.70451">
        <ele>224.37</ele>
        <time>2015-05-22T12:34:20Z</time>
      </trkpt>
      <trkpt lat="45.73402" lon="5.70446">
        <ele>224.23</ele>
        <time>2015-05-22T12:34:22Z</time>
      </trkpt>
      <trkpt lat="45.73397" lon="5.70443">
        <ele>224.3</ele>
        <time>2015-05-22T12:34:23Z</time>
      </trkpt>
      <trkpt lat="45.73392" lon="5.7044">
        <ele>224.33</ele>
        <time>2015-05-22T12:34:24Z</time>
      </trkpt>
      <trkpt lat="45.73384" lon="5.70438">
        <ele>224.36</ele>
        <time>2015-05-22T12:34:25Z</time>
      </trkpt>
      <trkpt lat="45.73377" lon="5.70437">
        <ele>224.38</ele>
        <time>2015-05-22T12:34:26Z</time>
      </trkpt>
      <trkpt lat="45.7337" lon="5.70437">
        <ele>224.39</ele>
        <time>2015-05-22T12:34:27Z</time>
      </trkpt>
      <trkpt lat="45.73363" lon="5.70437">
        <ele>224.4</ele>
        <time>2015-05-22T12:34:28Z</time>
      </trkpt>
      <trkpt lat="45.73344" lon="5.70438">
        <ele>224.39</ele>
        <time>2015-05-22T12:34:31Z</time>
      </trkpt>
      <trkpt lat="45.73338" lon="5.70438">
        <ele>224.35</ele>
        <time>2015-05-22T12:34:32Z</time>
      </trkpt>
      <trkpt lat="45.73291" lon="5.7044">
        <ele>223.62</ele>
        <time>2015-05-22T12:34:39Z</time>
      </trkpt>
      <trkpt lat="45.73283" lon="5.7044">
        <ele>223.33</ele>
        <time>2015-05-22T12:34:40Z</time>
      </trkpt>
      <trkpt lat="45.7327" lon="5.70439">
        <ele>222.72</ele>
        <time>2015-05-22T12:34:42Z</time>
      </trkpt>
      <trkpt lat="45.73263" lon="5.7044">
        <ele>222.49</ele>
        <time>2015-05-22T12:34:43Z</time>
      </trkpt>
      <trkpt lat="45.73198" lon="5.70457">
        <ele>221.58</ele>
        <time>2015-05-22T12:34:53Z</time>
      </trkpt>
      <trkpt lat="45.73193" lon="5.7046">
        <ele>221.59</ele>
        <time>2015-05-22T12:34:54Z</time>
      </trkpt>
      <trkpt lat="45.73176" lon="5.7048">
        <ele>221.47</ele>
        <time>2015-05-22T12:35:03Z</time>
      </trkpt>
      <trkpt lat="45.73168" lon="5.70483">
        <ele>220.55</ele>
        <time>2015-05-22T12:35:29Z</time>
      </trkpt>
      <trkpt lat="45.73163" lon="5.70491">
        <ele>220.73</ele>
        <time>2015-05-22T12:35:46Z</time>
      </trkpt>
      <trkpt lat="45.73154" lon="5.70509">
        <ele>220.77</ele>
        <time>2015-05-22T12:35:53Z</time>
      </trkpt>
      <trkpt lat="45.73151" lon="5.7051">
        <ele>220.77</ele>
        <time>2015-05-22T12:35:54Z</time>
      </trkpt>
      <trkpt lat="45.73148" lon="5.7051">
        <ele>220.76</ele>
        <time>2015-05-22T12:35:55Z</time>
      </trkpt>
      <trkpt lat="45.73145" lon="5.70509">
        <ele>220.76</ele>
        <time>2015-05-22T12:35:56Z</time>
      </trkpt>
      <trkpt lat="45.73141" lon="5.70507">
        <ele>220.75</ele>
        <time>2015-05-22T12:35:57Z</time>
      </trkpt>
      <trkpt lat="45.73138" lon="5.70504">
        <ele>220.73</ele>
        <time>2015-05-22T12:35:58Z</time>
      </trkpt>
      <trkpt lat="45.73135" lon="5.705">
        <ele>220.68</ele>
        <time>2015-05-22T12:35:59Z</time>
      </trkpt>
      <trkpt lat="45.73083" lon="5.70435">
        <ele>218.43</ele>
        <time>2015-05-22T12:36:10Z</time>
      </trkpt>
      <trkpt lat="45.73072" lon="5.70422">
        <ele>218.03</ele>
        <time>2015-05-22T12:36:12Z</time>
      </trkpt>
      <trkpt lat="45.73006" lon="5.7038">
        <ele>214.73</ele>
        <time>2015-05-22T12:36:20Z</time>
      </trkpt>
      <trkpt lat="45.72989" lon="5.70378">
        <ele>213.53</ele>
        <time>2015-05-22T12:36:22Z</time>
      </trkpt>
      <trkpt lat="45.7289" lon="5.70379">
        <ele>210.47</ele>
        <time>2015-05-22T12:36:35Z</time>
      </trkpt>
      <trkpt lat="45.72785" lon="5.7036">
        <ele>209.07</ele>
        <time>2015-05-22T12:36:49Z</time>
      </trkpt>
      <trkpt lat="45.72659" lon="5.70321">
        <ele>209.92</ele>
        <time>2015-05-22T12:37:05Z</time>
      </trkpt>
      <trkpt lat="45.72652" lon="5.7032">
        <ele>209.94</ele>
        <time>2015-05-22T12:37:06Z</time>
      </trkpt>
      <trkpt lat="45.72644" lon="5.70321">
        <ele>209.95</ele>
        <time>2015-05-22T12:37:07Z</time>
      </trkpt>
      <trkpt lat="45.72638" lon="5.70325">
        <ele>209.96</ele>
        <time>2015-05-22T12:37:08Z</time>
      </trkpt>
      <trkpt lat="45.72633" lon="5.70331">
        <ele>209.99</ele>
        <time>2015-05-22T12:37:09Z</time>
      </trkpt>
      <trkpt lat="45.7263" lon="5.70338">
        <ele>210.04</ele>
        <time>2015-05-22T12:37:10Z</time>
      </trkpt>
      <trkpt lat="45.72628" lon="5.70346">
        <ele>210.13</ele>
        <time>2015-05-22T12:37:11Z</time>
      </trkpt>
      <trkpt lat="45.72627" lon="5.70355">
        <ele>210.3</ele>
        <time>2015-05-22T12:37:12Z</time>
      </trkpt>
      <trkpt lat="45.72619" lon="5.70383">
        <ele>211.06</ele>
        <time>2015-05-22T12:37:16Z</time>
      </trkpt>
      <trkpt lat="45.72616" lon="5.70389">
        <ele>211.3</ele>
        <time>2015-05-22T12:37:17Z</time>
      </trkpt>
      <trkpt lat="45.72612" lon="5.70392">
        <ele>211.37</ele>
        <time>2015-05-22T12:37:18Z</time>
      </trkpt>
      <trkpt lat="45.72607" lon="5.70395">
        <ele>211.43</ele>
        <time>2015-05-22T12:37:19Z</time>
      </trkpt>
      <trkpt lat="45.72602" lon="5.70396">
        <ele>211.48</ele>
        <time>2015-05-22T12:37:20Z</time>
      </trkpt>
      <trkpt lat="45.72597" lon="5.70398">
        <ele>211.55</ele>
        <time>2015-05-22T12:37:21Z</time>
      </trkpt>
      <trkpt lat="45.72592" lon="5.70398">
        <ele>211.63</ele>
        <time>2015-05-22T12:37:22Z</time>
      </trkpt>
      <trkpt lat="45.72527" lon="5.7041">
        <ele>212.53</ele>
        <time>2015-05-22T12:37:35Z</time>
      </trkpt>
      <trkpt lat="45.72423" lon="5.7042">
        <ele>212.6</ele>
        <time>2015-05-22T12:37:53Z</time>
      </trkpt>
      <trkpt lat="45.72312" lon="5.70438">
        <ele>212.08</ele>
        <time>2015-05-22T12:38:11Z</time>
      </trkpt>
      <trkpt lat="45.7228" lon="5.70444">
        <ele>211.86</ele>
        <time>2015-05-22T12:38:16Z</time>
      </trkpt>
      <trkpt lat="45.72163" lon="5.70458">
        <ele>211.48</ele>
        <time>2015-05-22T12:38:34Z</time>
      </trkpt>
      <trkpt lat="45.72133" lon="5.70462">
        <ele>211.63</ele>
        <time>2015-05-22T12:38:39Z</time>
      </trkpt>
      <trkpt lat="45.72127" lon="5.70461">
        <ele>211.62</ele>
        <time>2015-05-22T12:38:40Z</time>
      </trkpt>
      <trkpt lat="45.72122" lon="5.70458">
        <ele>211.61</ele>
        <time>2015-05-22T12:38:41Z</time>
      </trkpt>
      <trkpt lat="45.72117" lon="5.70452">
        <ele>211.59</ele>
        <time>2015-05-22T12:38:42Z</time>
      </trkpt>
      <trkpt lat="45.72114" lon="5.70445">
        <ele>211.57</ele>
        <time>2015-05-22T12:38:43Z</time>
      </trkpt>
      <trkpt lat="45.72112" lon="5.70437">
        <ele>211.55</ele>
        <time>2015-05-22T12:38:44Z</time>
      </trkpt>
      <trkpt lat="45.72112" lon="5.70427">
        <ele>211.52</ele>
        <time>2015-05-22T12:38:45Z</time>
      </trkpt>
      <trkpt lat="45.72112" lon="5.70418">
        <ele>211.48</ele>
        <time>2015-05-22T12:38:46Z</time>
      </trkpt>
      <trkpt lat="45.72112" lon="5.70408">
        <ele>211.4</ele>
        <time>2015-05-22T12:38:47Z</time>
      </trkpt>
      <trkpt lat="45.72111" lon="5.70369">
        <ele>210.7</ele>
        <time>2015-05-22T12:38:51Z</time>
      </trkpt>
      <trkpt lat="45.72109" lon="5.7036">
        <ele>210.5</ele>
        <time>2015-05-22T12:38:52Z</time>
      </trkpt>
      <trkpt lat="45.72103" lon="5.70355">
        <ele>210.18</ele>
        <time>2015-05-22T12:38:53Z</time>
      </trkpt>
      <trkpt lat="45.72097" lon="5.70352">
        <ele>210.18</ele>
        <time>2015-05-22T12:38:54Z</time>
      </trkpt>
      <trkpt lat="45.7209" lon="5.70352">
        <ele>209.93</ele>
        <time>2015-05-22T12:38:55Z</time>
      </trkpt>
      <trkpt lat="45.72084" lon="5.70354">
        <ele>209.84</ele>
        <time>2015-05-22T12:38:56Z</time>
      </trkpt>
      <trkpt lat="45.72078" lon="5.70356">
        <ele>209.78</ele>
        <time>2015-05-22T12:38:57Z</time>
      </trkpt>
      <trkpt lat="45.72072" lon="5.70359">
        <ele>209.71</ele>
        <time>2015-05-22T12:38:58Z</time>
      </trkpt>
      <trkpt lat="45.72067" lon="5.70361">
        <ele>209.68</ele>
        <time>2015-05-22T12:38:59Z</time>
      </trkpt>
      <trkpt lat="45.72062" lon="5.7036">
        <ele>209.69</ele>
        <time>2015-05-22T12:39:00Z</time>
      </trkpt>
      <trkpt lat="45.72058" lon="5.70358">
        <ele>209.71</ele>
        <time>2015-05-22T12:39:01Z</time>
      </trkpt>
      <trkpt lat="45.72055" lon="5.70353">
        <ele>209.72</ele>
        <time>2015-05-22T12:39:02Z</time>
      </trkpt>
      <trkpt lat="45.72054" lon="5.70347">
        <ele>209.77</ele>
        <time>2015-05-22T12:39:03Z</time>
      </trkpt>
      <trkpt lat="45.72053" lon="5.7034">
        <ele>209.8</ele>
        <time>2015-05-22T12:39:04Z</time>
      </trkpt>
      <trkpt lat="45.72052" lon="5.70332">
        <ele>209.83</ele>
        <time>2015-05-22T12:39:05Z</time>
      </trkpt>
      <trkpt lat="45.72052" lon="5.70324">
        <ele>209.85</ele>
        <time>2015-05-22T12:39:06Z</time>
      </trkpt>
      <trkpt lat="45.7205" lon="5.70288">
        <ele>209.78</ele>
        <time>2015-05-22T12:39:10Z</time>
      </trkpt>
      <trkpt lat="45.72048" lon="5.70176">
        <ele>209.02</ele>
        <time>2015-05-22T12:39:22Z</time>
      </trkpt>
      <trkpt lat="45.72047" lon="5.70112">
        <ele>208.98</ele>
        <time>2015-05-22T12:39:29Z</time>
      </trkpt>
      <trkpt lat="45.72045" lon="5.70103">
        <ele>208.97</ele>
        <time>2015-05-22T12:39:30Z</time>
      </trkpt>
      <trkpt lat="45.72041" lon="5.70097">
        <ele>208.95</ele>
        <time>2015-05-22T12:39:31Z</time>
      </trkpt>
      <trkpt lat="45.72036" lon="5.70092">
        <ele>208.92</ele>
        <time>2015-05-22T12:39:32Z</time>
      </trkpt>
      <trkpt lat="45.7203" lon="5.70088">
        <ele>208.87</ele>
        <time>2015-05-22T12:39:33Z</time>
      </trkpt>
      <trkpt lat="45.72023" lon="5.70085">
        <ele>208.83</ele>
        <time>2015-05-22T12:39:34Z</time>
      </trkpt>
      <trkpt lat="45.72016" lon="5.70083">
        <ele>208.74</ele>
        <time>2015-05-22T12:39:35Z</time>
      </trkpt>
      <trkpt lat="45.72009" lon="5.70081">
        <ele>208.6</ele>
        <time>2015-05-22T12:39:36Z</time>
      </trkpt>
      <trkpt lat="45.71883" lon="5.70079">
        <ele>205.94</ele>
        <time>2015-05-22T12:39:53Z</time>
      </trkpt>
      <trkpt lat="45.71725" lon="5.70082">
        <ele>205.57</ele>
        <time>2015-05-22T12:40:15Z</time>
      </trkpt>
      <trkpt lat="45.71618" lon="5.70085">
        <ele>205.95</ele>
        <time>2015-05-22T12:40:31Z</time>
      </trkpt>
      <trkpt lat="45.71517" lon="5.70076">
        <ele>206.17</ele>
        <time>2015-05-22T12:40:48Z</time>
      </trkpt>
      <trkpt lat="45.71485" lon="5.70071">
        <ele>206.01</ele>
        <time>2015-05-22T12:40:53Z</time>
      </trkpt>
      <trkpt lat="45.71479" lon="5.70074">
        <ele>205.89</ele>
        <time>2015-05-22T12:40:54Z</time>
      </trkpt>
      <trkpt lat="45.71474" lon="5.70078">
        <ele>205.76</ele>
        <time>2015-05-22T12:40:55Z</time>
      </trkpt>
      <trkpt lat="45.7147" lon="5.70083">
        <ele>205.67</ele>
        <time>2015-05-22T12:40:56Z</time>
      </trkpt>
      <trkpt lat="45.71467" lon="5.7009">
        <ele>205.53</ele>
        <time>2015-05-22T12:40:57Z</time>
      </trkpt>
      <trkpt lat="45.71466" lon="5.70098">
        <ele>205.53</ele>
        <time>2015-05-22T12:40:58Z</time>
      </trkpt>
      <trkpt lat="45.71466" lon="5.70105">
        <ele>205.62</ele>
        <time>2015-05-22T12:40:59Z</time>
      </trkpt>
      <trkpt lat="45.71466" lon="5.70112">
        <ele>205.78</ele>
        <time>2015-05-22T12:41:00Z</time>
      </trkpt>
      <trkpt lat="45.71467" lon="5.70133">
        <ele>206.4</ele>
        <time>2015-05-22T12:41:03Z</time>
      </trkpt>
      <trkpt lat="45.71471" lon="5.70226">
        <ele>207.71</ele>
        <time>2015-05-22T12:41:18Z</time>
      </trkpt>
      <trkpt lat="45.71471" lon="5.70232">
        <ele>207.74</ele>
        <time>2015-05-22T12:41:19Z</time>
      </trkpt>
      <trkpt lat="45.71473" lon="5.70238">
        <ele>207.81</ele>
        <time>2015-05-22T12:41:20Z</time>
      </trkpt>
      <trkpt lat="45.71475" lon="5.70244">
        <ele>207.9</ele>
        <time>2015-05-22T12:41:21Z</time>
      </trkpt>
      <trkpt lat="45.71478" lon="5.70248">
        <ele>208.03</ele>
        <time>2015-05-22T12:41:22Z</time>
      </trkpt>
      <trkpt lat="45.71481" lon="5.70252">
        <ele>208.19</ele>
        <time>2015-05-22T12:41:23Z</time>
      </trkpt>
      <trkpt lat="45.71484" lon="5.70256">
        <ele>208.31</ele>
        <time>2015-05-22T12:41:24Z</time>
      </trkpt>
      <trkpt lat="45.71487" lon="5.70258">
        <ele>208.41</ele>
        <time>2015-05-22T12:41:25Z</time>
      </trkpt>
      <trkpt lat="45.71492" lon="5.70266">
        <ele>208.6</ele>
        <time>2015-05-22T12:41:27Z</time>
      </trkpt>
      <trkpt lat="45.71493" lon="5.70271">
        <ele>208.65</ele>
        <time>2015-05-22T12:41:28Z</time>
      </trkpt>
      <trkpt lat="45.71494" lon="5.70283">
        <ele>208.64</ele>
        <time>2015-05-22T12:41:30Z</time>
      </trkpt>
      <trkpt lat="45.71496" lon="5.70378">
        <ele>209.18</ele>
        <time>2015-05-22T12:41:44Z</time>
      </trkpt>
      <trkpt lat="45.715" lon="5.70509">
        <ele>209.06</ele>
        <time>2015-05-22T12:42:03Z</time>
      </trkpt>
      <trkpt lat="45.71506" lon="5.70633">
        <ele>209.38</ele>
        <time>2015-05-22T12:42:23Z</time>
      </trkpt>
      <trkpt lat="45.71532" lon="5.70711">
        <ele>209.11</ele>
        <time>2015-05-22T12:42:40Z</time>
      </trkpt>
      <trkpt lat="45.71562" lon="5.70791">
        <ele>209.68</ele>
        <time>2015-05-22T12:42:56Z</time>
      </trkpt>
      <trkpt lat="45.71582" lon="5.70845">
        <ele>209.82</ele>
        <time>2015-05-22T12:43:06Z</time>
      </trkpt>
      <trkpt lat="45.71603" lon="5.70914">
        <ele>210.19</ele>
        <time>2015-05-22T12:43:18Z</time>
      </trkpt>
      <trkpt lat="45.71604" lon="5.70968">
        <ele>209.24</ele>
        <time>2015-05-22T12:43:26Z</time>
      </trkpt>
      <trkpt lat="45.71597" lon="5.71057">
        <ele>209.99</ele>
        <time>2015-05-22T12:43:40Z</time>
      </trkpt>
      <trkpt lat="45.71598" lon="5.71097">
        <ele>210</ele>
        <time>2015-05-22T12:43:49Z</time>
      </trkpt>
      <trkpt lat="45.71598" lon="5.71099">
        <ele>209.92</ele>
        <time>2015-05-22T12:43:50Z</time>
      </trkpt>
      <trkpt lat="45.71596" lon="5.71105">
        <ele>209.56</ele>
        <time>2015-05-22T12:43:55Z</time>
      </trkpt>
      <trkpt lat="45.71595" lon="5.71107">
        <ele>209.51</ele>
        <time>2015-05-22T12:43:56Z</time>
      </trkpt>
      <trkpt lat="45.71594" lon="5.7111">
        <ele>209.44</ele>
        <time>2015-05-22T12:43:57Z</time>
      </trkpt>
      <trkpt lat="45.71592" lon="5.71114">
        <ele>209.36</ele>
        <time>2015-05-22T12:43:58Z</time>
      </trkpt>
      <trkpt lat="45.7159" lon="5.71118">
        <ele>209.22</ele>
        <time>2015-05-22T12:43:59Z</time>
      </trkpt>
      <trkpt lat="45.71573" lon="5.71153">
        <ele>208.32</ele>
        <time>2015-05-22T12:44:05Z</time>
      </trkpt>
      <trkpt lat="45.7156" lon="5.71179">
        <ele>208.22</ele>
        <time>2015-05-22T12:44:09Z</time>
      </trkpt>
      <trkpt lat="45.71557" lon="5.71186">
        <ele>208.15</ele>
        <time>2015-05-22T12:44:10Z</time>
      </trkpt>
      <trkpt lat="45.71544" lon="5.71212">
        <ele>207.79</ele>
        <time>2015-05-22T12:44:14Z</time>
      </trkpt>
      <trkpt lat="45.71518" lon="5.71268">
        <ele>207.21</ele>
        <time>2015-05-22T12:44:22Z</time>
      </trkpt>
      <trkpt lat="45.71491" lon="5.7133">
        <ele>209.22</ele>
        <time>2015-05-22T12:44:33Z</time>
      </trkpt>
      <trkpt lat="45.71475" lon="5.71359">
        <ele>211.5</ele>
        <time>2015-05-22T12:44:44Z</time>
      </trkpt>
      <trkpt lat="45.71464" lon="5.71364">
        <ele>213.12</ele>
        <time>2015-05-22T12:44:51Z</time>
      </trkpt>
      <trkpt lat="45.71453" lon="5.71371">
        <ele>214.18</ele>
        <time>2015-05-22T12:44:58Z</time>
      </trkpt>
      <trkpt lat="45.7144" lon="5.71373">
        <ele>214.94</ele>
        <time>2015-05-22T12:45:06Z</time>
      </trkpt>
      <trkpt lat="45.71419" lon="5.71389">
        <ele>216.58</ele>
        <time>2015-05-22T12:45:17Z</time>
      </trkpt>
      <trkpt lat="45.71397" lon="5.71406">
        <ele>218.02</ele>
        <time>2015-05-22T12:45:30Z</time>
      </trkpt>
      <trkpt lat="45.71373" lon="5.71421">
        <ele>219.5</ele>
        <time>2015-05-22T12:45:42Z</time>
      </trkpt>
      <trkpt lat="45.71347" lon="5.71438">
        <ele>220.85</ele>
        <time>2015-05-22T12:45:56Z</time>
      </trkpt>
      <trkpt lat="45.71325" lon="5.7145">
        <ele>221.57</ele>
        <time>2015-05-22T12:46:05Z</time>
      </trkpt>
      <trkpt lat="45.71292" lon="5.71469">
        <ele>222.92</ele>
        <time>2015-05-22T12:46:20Z</time>
      </trkpt>
      <trkpt lat="45.7128" lon="5.71474">
        <ele>223.51</ele>
        <time>2015-05-22T12:46:25Z</time>
      </trkpt>
      <trkpt lat="45.71278" lon="5.71474">
        <ele>223.72</ele>
        <time>2015-05-22T12:46:26Z</time>
      </trkpt>
      <trkpt lat="45.71276" lon="5.71475">
        <ele>223.9</ele>
        <time>2015-05-22T12:46:27Z</time>
      </trkpt>
      <trkpt lat="45.71259" lon="5.71479">
        <ele>225.45</ele>
        <time>2015-05-22T12:46:35Z</time>
      </trkpt>
      <trkpt lat="45.71256" lon="5.71481">
        <ele>225.72</ele>
        <time>2015-05-22T12:46:37Z</time>
      </trkpt>
      <trkpt lat="45.71248" lon="5.71485">
        <ele>226.28</ele>
        <time>2015-05-22T12:46:41Z</time>
      </trkpt>
      <trkpt lat="45.71246" lon="5.71485">
        <ele>226.44</ele>
        <time>2015-05-22T12:46:42Z</time>
      </trkpt>
      <trkpt lat="45.7123" lon="5.7149">
        <ele>227.16</ele>
        <time>2015-05-22T12:46:49Z</time>
      </trkpt>
      <trkpt lat="45.71207" lon="5.71495">
        <ele>228.18</ele>
        <time>2015-05-22T12:46:58Z</time>
      </trkpt>
      <trkpt lat="45.7119" lon="5.71497">
        <ele>228.95</ele>
        <time>2015-05-22T12:47:04Z</time>
      </trkpt>
      <trkpt lat="45.71157" lon="5.71499">
        <ele>230.99</ele>
        <time>2015-05-22T12:47:17Z</time>
      </trkpt>
      <trkpt lat="45.71128" lon="5.71529">
        <ele>233.16</ele>
        <time>2015-05-22T12:47:31Z</time>
      </trkpt>
      <trkpt lat="45.7112" lon="5.71549">
        <ele>233.43</ele>
        <time>2015-05-22T12:47:35Z</time>
      </trkpt>
      <trkpt lat="45.7111" lon="5.71639">
        <ele>232.35</ele>
        <time>2015-05-22T12:47:45Z</time>
      </trkpt>
      <trkpt lat="45.7109" lon="5.71776">
        <ele>229.18</ele>
        <time>2015-05-22T12:47:57Z</time>
      </trkpt>
      <trkpt lat="45.71076" lon="5.71819">
        <ele>227.97</ele>
        <time>2015-05-22T12:48:01Z</time>
      </trkpt>
      <trkpt lat="45.71035" lon="5.71905">
        <ele>224.58</ele>
        <time>2015-05-22T12:48:09Z</time>
      </trkpt>
      <trkpt lat="45.71029" lon="5.71913">
        <ele>224.16</ele>
        <time>2015-05-22T12:48:10Z</time>
      </trkpt>
      <trkpt lat="45.71021" lon="5.71921">
        <ele>223.73</ele>
        <time>2015-05-22T12:48:11Z</time>
      </trkpt>
      <trkpt lat="45.71014" lon="5.71928">
        <ele>223.32</ele>
        <time>2015-05-22T12:48:12Z</time>
      </trkpt>
      <trkpt lat="45.71006" lon="5.71934">
        <ele>222.92</ele>
        <time>2015-05-22T12:48:13Z</time>
      </trkpt>
      <trkpt lat="45.70936" lon="5.71989">
        <ele>219.92</ele>
        <time>2015-05-22T12:48:21Z</time>
      </trkpt>
      <trkpt lat="45.70871" lon="5.72079">
        <ele>217.65</ele>
        <time>2015-05-22T12:48:31Z</time>
      </trkpt>
      <trkpt lat="45.70829" lon="5.72194">
        <ele>219.63</ele>
        <time>2015-05-22T12:48:44Z</time>
      </trkpt>
      <trkpt lat="45.7084" lon="5.72198">
        <ele>219.76</ele>
        <time>2015-05-22T12:48:45Z</time>
      </trkpt>
      <trkpt lat="45.7085" lon="5.72199">
        <ele>219.84</ele>
        <time>2015-05-22T12:48:46Z</time>
      </trkpt>
      <trkpt lat="45.70855" lon="5.72205">
        <ele>219.84</ele>
        <time>2015-05-22T12:48:47Z</time>
      </trkpt>
      <trkpt lat="45.70857" lon="5.72212">
        <ele>219.82</ele>
        <time>2015-05-22T12:48:48Z</time>
      </trkpt>
      <trkpt lat="45.7089" lon="5.7232">
        <ele>220.87</ele>
        <time>2015-05-22T12:49:04Z</time>
      </trkpt>
      <trkpt lat="45.7091" lon="5.72403">
        <ele>222.92</ele>
        <time>2015-05-22T12:49:18Z</time>
      </trkpt>
      <trkpt lat="45.70944" lon="5.72478">
        <ele>224.53</ele>
        <time>2015-05-22T12:49:32Z</time>
      </trkpt>
      <trkpt lat="45.70955" lon="5.72569">
        <ele>222.79</ele>
        <time>2015-05-22T12:49:42Z</time>
      </trkpt>
      <trkpt lat="45.7095" lon="5.72579">
        <ele>222.64</ele>
        <time>2015-05-22T12:49:43Z</time>
      </trkpt>
      <trkpt lat="45.70939" lon="5.726">
        <ele>222.34</ele>
        <time>2015-05-22T12:49:45Z</time>
      </trkpt>
      <trkpt lat="45.70934" lon="5.72609">
        <ele>222.17</ele>
        <time>2015-05-22T12:49:46Z</time>
      </trkpt>
      <trkpt lat="45.70931" lon="5.72618">
        <ele>221.79</ele>
        <time>2015-05-22T12:49:47Z</time>
      </trkpt>
      <trkpt lat="45.70924" lon="5.72632">
        <ele>221.46</ele>
        <time>2015-05-22T12:49:49Z</time>
      </trkpt>
      <trkpt lat="45.70889" lon="5.72687">
        <ele>220.31</ele>
        <time>2015-05-22T12:50:01Z</time>
      </trkpt>
      <trkpt lat="45.70892" lon="5.72689">
        <ele>219.58</ele>
        <time>2015-05-22T12:50:12Z</time>
      </trkpt>
      <trkpt lat="45.70896" lon="5.72691">
        <ele>219.92</ele>
        <time>2015-05-22T12:50:23Z</time>
      </trkpt>
      <trkpt lat="45.70895" lon="5.72693">
        <ele>219.99</ele>
        <time>2015-05-22T12:50:24Z</time>
      </trkpt>
      <trkpt lat="45.70886" lon="5.72705">
        <ele>220.12</ele>
        <time>2015-05-22T12:50:29Z</time>
      </trkpt>
      <trkpt lat="45.70883" lon="5.72706">
        <ele>220.11</ele>
        <time>2015-05-22T12:50:30Z</time>
      </trkpt>
      <trkpt lat="45.70879" lon="5.72706">
        <ele>220.07</ele>
        <time>2015-05-22T12:50:31Z</time>
      </trkpt>
      <trkpt lat="45.70875" lon="5.72704">
        <ele>220.04</ele>
        <time>2015-05-22T12:50:32Z</time>
      </trkpt>
      <trkpt lat="45.70883" lon="5.727">
        <ele>220.01</ele>
        <time>2015-05-22T12:50:33Z</time>
      </trkpt>
      <trkpt lat="45.70878" lon="5.72694">
        <ele>219.91</ele>
        <time>2015-05-22T12:50:34Z</time>
      </trkpt>
      <trkpt lat="45.70874" lon="5.72687">
        <ele>219.72</ele>
        <time>2015-05-22T12:50:35Z</time>
      </trkpt>
      <trkpt lat="45.70871" lon="5.72679">
        <ele>219.52</ele>
        <time>2015-05-22T12:50:36Z</time>
      </trkpt>
      <trkpt lat="45.70865" lon="5.72654">
        <ele>218.83</ele>
        <time>2015-05-22T12:50:39Z</time>
      </trkpt>
      <trkpt lat="45.70864" lon="5.72604">
        <ele>217.78</ele>
        <time>2015-05-22T12:50:44Z</time>
      </trkpt>
      <trkpt lat="45.70863" lon="5.72593">
        <ele>217.64</ele>
        <time>2015-05-22T12:50:45Z</time>
      </trkpt>
      <trkpt lat="45.70863" lon="5.72581">
        <ele>217.53</ele>
        <time>2015-05-22T12:50:46Z</time>
      </trkpt>
      <trkpt lat="45.70861" lon="5.72569">
        <ele>217.42</ele>
        <time>2015-05-22T12:50:47Z</time>
      </trkpt>
      <trkpt lat="45.70859" lon="5.72557">
        <ele>217.3</ele>
        <time>2015-05-22T12:50:48Z</time>
      </trkpt>
      <trkpt lat="45.70857" lon="5.72545">
        <ele>217.17</ele>
        <time>2015-05-22T12:50:49Z</time>
      </trkpt>
      <trkpt lat="45.70834" lon="5.72475">
        <ele>216.15</ele>
        <time>2015-05-22T12:50:55Z</time>
      </trkpt>
      <trkpt lat="45.70828" lon="5.72451">
        <ele>215.78</ele>
        <time>2015-05-22T12:50:57Z</time>
      </trkpt>
      <trkpt lat="45.70825" lon="5.72439">
        <ele>215.57</ele>
        <time>2015-05-22T12:50:58Z</time>
      </trkpt>
      <trkpt lat="45.70811" lon="5.72381">
        <ele>214.33</ele>
        <time>2015-05-22T12:51:03Z</time>
      </trkpt>
      <trkpt lat="45.70785" lon="5.72275">
        <ele>214.17</ele>
        <time>2015-05-22T12:51:13Z</time>
      </trkpt>
      <trkpt lat="45.70782" lon="5.72266">
        <ele>214.16</ele>
        <time>2015-05-22T12:51:14Z</time>
      </trkpt>
      <trkpt lat="45.70782" lon="5.72257">
        <ele>214.13</ele>
        <time>2015-05-22T12:51:15Z</time>
      </trkpt>
      <trkpt lat="45.70783" lon="5.72236">
        <ele>213.96</ele>
        <time>2015-05-22T12:51:17Z</time>
      </trkpt>
      <trkpt lat="45.70783" lon="5.72226">
        <ele>213.85</ele>
        <time>2015-05-22T12:51:18Z</time>
      </trkpt>
      <trkpt lat="45.70781" lon="5.72215">
        <ele>213.73</ele>
        <time>2015-05-22T12:51:19Z</time>
      </trkpt>
      <trkpt lat="45.70769" lon="5.72145">
        <ele>212.51</ele>
        <time>2015-05-22T12:51:26Z</time>
      </trkpt>
      <trkpt lat="45.70741" lon="5.72031">
        <ele>210.92</ele>
        <time>2015-05-22T12:51:38Z</time>
      </trkpt>
      <trkpt lat="45.70736" lon="5.72006">
        <ele>210.63</ele>
        <time>2015-05-22T12:51:41Z</time>
      </trkpt>
      <trkpt lat="45.70733" lon="5.71998">
        <ele>210.51</ele>
        <time>2015-05-22T12:51:42Z</time>
      </trkpt>
      <trkpt lat="45.7073" lon="5.71992">
        <ele>210.42</ele>
        <time>2015-05-22T12:51:43Z</time>
      </trkpt>
      <trkpt lat="45.70726" lon="5.71986">
        <ele>210.34</ele>
        <time>2015-05-22T12:51:44Z</time>
      </trkpt>
      <trkpt lat="45.70719" lon="5.71981">
        <ele>210.25</ele>
        <time>2015-05-22T12:51:45Z</time>
      </trkpt>
      <trkpt lat="45.70713" lon="5.71976">
        <ele>210.16</ele>
        <time>2015-05-22T12:51:46Z</time>
      </trkpt>
      <trkpt lat="45.70701" lon="5.71966">
        <ele>210.02</ele>
        <time>2015-05-22T12:51:48Z</time>
      </trkpt>
      <trkpt lat="45.70696" lon="5.71962">
        <ele>209.99</ele>
        <time>2015-05-22T12:51:49Z</time>
      </trkpt>
      <trkpt lat="45.70659" lon="5.71936">
        <ele>209.91</ele>
        <time>2015-05-22T12:51:54Z</time>
      </trkpt>
      <trkpt lat="45.70652" lon="5.71932">
        <ele>209.89</ele>
        <time>2015-05-22T12:51:55Z</time>
      </trkpt>
      <trkpt lat="45.70646" lon="5.71926">
        <ele>209.89</ele>
        <time>2015-05-22T12:51:56Z</time>
      </trkpt>
      <trkpt lat="45.70641" lon="5.71921">
        <ele>209.89</ele>
        <time>2015-05-22T12:51:57Z</time>
      </trkpt>
      <trkpt lat="45.70635" lon="5.71918">
        <ele>209.94</ele>
        <time>2015-05-22T12:51:58Z</time>
      </trkpt>
      <trkpt lat="45.70629" lon="5.71914">
        <ele>210</ele>
        <time>2015-05-22T12:51:59Z</time>
      </trkpt>
      <trkpt lat="45.70623" lon="5.71912">
        <ele>210.08</ele>
        <time>2015-05-22T12:52:00Z</time>
      </trkpt>
      <trkpt lat="45.70618" lon="5.71909">
        <ele>210.16</ele>
        <time>2015-05-22T12:52:01Z</time>
      </trkpt>
      <trkpt lat="45.70613" lon="5.71905">
        <ele>210.24</ele>
        <time>2015-05-22T12:52:02Z</time>
      </trkpt>
      <trkpt lat="45.70609" lon="5.71899">
        <ele>210.26</ele>
        <time>2015-05-22T12:52:03Z</time>
      </trkpt>
      <trkpt lat="45.70607" lon="5.71892">
        <ele>210.28</ele>
        <time>2015-05-22T12:52:04Z</time>
      </trkpt>
      <trkpt lat="45.70606" lon="5.71884">
        <ele>210.36</ele>
        <time>2015-05-22T12:52:05Z</time>
      </trkpt>
      <trkpt lat="45.70606" lon="5.71877">
        <ele>210.41</ele>
        <time>2015-05-22T12:52:06Z</time>
      </trkpt>
      <trkpt lat="45.70605" lon="5.71869">
        <ele>210.44</ele>
        <time>2015-05-22T12:52:07Z</time>
      </trkpt>
      <trkpt lat="45.70604" lon="5.71863">
        <ele>210.46</ele>
        <time>2015-05-22T12:52:08Z</time>
      </trkpt>
      <trkpt lat="45.70603" lon="5.71819">
        <ele>208.91</ele>
        <time>2015-05-22T12:52:18Z</time>
      </trkpt>
      <trkpt lat="45.70607" lon="5.71783">
        <ele>207.77</ele>
        <time>2015-05-22T12:52:30Z</time>
      </trkpt>
      <trkpt lat="45.70609" lon="5.71786">
        <ele>207.01</ele>
        <time>2015-05-22T12:53:06Z</time>
      </trkpt>
      <trkpt lat="45.70607" lon="5.7179">
        <ele>207</ele>
        <time>2015-05-22T12:53:08Z</time>
      </trkpt>
      <trkpt lat="45.70573" lon="5.71791">
        <ele>206.95</ele>
        <time>2015-05-22T12:53:18Z</time>
      </trkpt>
      <trkpt lat="45.70565" lon="5.71791">
        <ele>206.88</ele>
        <time>2015-05-22T12:53:20Z</time>
      </trkpt>
      <trkpt lat="45.70561" lon="5.71792">
        <ele>206.85</ele>
        <time>2015-05-22T12:53:21Z</time>
      </trkpt>
      <trkpt lat="45.70535" lon="5.71797">
        <ele>206.52</ele>
        <time>2015-05-22T12:53:27Z</time>
      </trkpt>
      <trkpt lat="45.70525" lon="5.718">
        <ele>206.31</ele>
        <time>2015-05-22T12:53:29Z</time>
      </trkpt>
      <trkpt lat="45.7052" lon="5.71802">
        <ele>206.18</ele>
        <time>2015-05-22T12:53:30Z</time>
      </trkpt>
      <trkpt lat="45.70497" lon="5.71815">
        <ele>205.6</ele>
        <time>2015-05-22T12:53:35Z</time>
      </trkpt>
      <trkpt lat="45.70493" lon="5.71816">
        <ele>205.54</ele>
        <time>2015-05-22T12:53:36Z</time>
      </trkpt>
      <trkpt lat="45.7047" lon="5.71819">
        <ele>205.62</ele>
        <time>2015-05-22T12:53:40Z</time>
      </trkpt>
      <trkpt lat="45.70435" lon="5.7182">
        <ele>206.59</ele>
        <time>2015-05-22T12:53:48Z</time>
      </trkpt>
      <trkpt lat="45.70432" lon="5.71814">
        <ele>206.72</ele>
        <time>2015-05-22T12:53:49Z</time>
      </trkpt>
      <trkpt lat="45.70427" lon="5.71798">
        <ele>207.02</ele>
        <time>2015-05-22T12:53:52Z</time>
      </trkpt>
      <trkpt lat="45.70427" lon="5.71794">
        <ele>207.02</ele>
        <time>2015-05-22T12:53:53Z</time>
      </trkpt>
      <trkpt lat="45.70425" lon="5.71789">
        <ele>207.04</ele>
        <time>2015-05-22T12:53:54Z</time>
      </trkpt>
      <trkpt lat="45.70423" lon="5.71783">
        <ele>207.09</ele>
        <time>2015-05-22T12:53:55Z</time>
      </trkpt>
      <trkpt lat="45.70421" lon="5.71776">
        <ele>207.11</ele>
        <time>2015-05-22T12:53:56Z</time>
      </trkpt>
      <trkpt lat="45.70386" lon="5.71693">
        <ele>206.77</ele>
        <time>2015-05-22T12:54:09Z</time>
      </trkpt>
      <trkpt lat="45.70383" lon="5.71688">
        <ele>206.58</ele>
        <time>2015-05-22T12:54:10Z</time>
      </trkpt>
      <trkpt lat="45.70378" lon="5.71681">
        <ele>206.41</ele>
        <time>2015-05-22T12:54:11Z</time>
      </trkpt>
      <trkpt lat="45.70302" lon="5.71595">
        <ele>205.61</ele>
        <time>2015-05-22T12:54:24Z</time>
      </trkpt>
      <trkpt lat="45.70244" lon="5.71514">
        <ele>206.28</ele>
        <time>2015-05-22T12:54:35Z</time>
      </trkpt>
      <trkpt lat="45.70146" lon="5.71389">
        <ele>206.11</ele>
        <time>2015-05-22T12:54:51Z</time>
      </trkpt>
      <trkpt lat="45.70041" lon="5.71257">
        <ele>206.01</ele>
        <time>2015-05-22T12:55:09Z</time>
      </trkpt>
      <trkpt lat="45.69983" lon="5.7116">
        <ele>205.67</ele>
        <time>2015-05-22T12:55:21Z</time>
      </trkpt>
      <trkpt lat="45.69965" lon="5.71142">
        <ele>205.65</ele>
        <time>2015-05-22T12:55:24Z</time>
      </trkpt>
      <trkpt lat="45.69959" lon="5.71138">
        <ele>205.64</ele>
        <time>2015-05-22T12:55:25Z</time>
      </trkpt>
      <trkpt lat="45.69952" lon="5.71135">
        <ele>205.63</ele>
        <time>2015-05-22T12:55:26Z</time>
      </trkpt>
      <trkpt lat="45.69946" lon="5.71135">
        <ele>205.61</ele>
        <time>2015-05-22T12:55:27Z</time>
      </trkpt>
      <trkpt lat="45.6994" lon="5.71134">
        <ele>205.55</ele>
        <time>2015-05-22T12:55:28Z</time>
      </trkpt>
      <trkpt lat="45.69935" lon="5.71134">
        <ele>205.49</ele>
        <time>2015-05-22T12:55:29Z</time>
      </trkpt>
      <trkpt lat="45.69931" lon="5.71133">
        <ele>205.44</ele>
        <time>2015-05-22T12:55:30Z</time>
      </trkpt>
      <trkpt lat="45.69927" lon="5.7113">
        <ele>205.38</ele>
        <time>2015-05-22T12:55:31Z</time>
      </trkpt>
      <trkpt lat="45.69911" lon="5.7112">
        <ele>205.06</ele>
        <time>2015-05-22T12:55:35Z</time>
      </trkpt>
      <trkpt lat="45.69893" lon="5.71106">
        <ele>204.98</ele>
        <time>2015-05-22T12:55:39Z</time>
      </trkpt>
      <trkpt lat="45.69889" lon="5.71101">
        <ele>204.98</ele>
        <time>2015-05-22T12:55:40Z</time>
      </trkpt>
      <trkpt lat="45.69875" lon="5.71081">
        <ele>204.96</ele>
        <time>2015-05-22T12:55:43Z</time>
      </trkpt>
      <trkpt lat="45.69794" lon="5.70955">
        <ele>205.1</ele>
        <time>2015-05-22T12:56:01Z</time>
      </trkpt>
      <trkpt lat="45.69736" lon="5.70888">
        <ele>205.3</ele>
        <time>2015-05-22T12:56:14Z</time>
      </trkpt>
      <trkpt lat="45.69731" lon="5.70886">
        <ele>205.26</ele>
        <time>2015-05-22T12:56:15Z</time>
      </trkpt>
      <trkpt lat="45.69726" lon="5.70885">
        <ele>205.19</ele>
        <time>2015-05-22T12:56:16Z</time>
      </trkpt>
      <trkpt lat="45.6972" lon="5.70887">
        <ele>205.06</ele>
        <time>2015-05-22T12:56:17Z</time>
      </trkpt>
      <trkpt lat="45.69715" lon="5.70891">
        <ele>204.91</ele>
        <time>2015-05-22T12:56:18Z</time>
      </trkpt>
      <trkpt lat="45.6971" lon="5.70895">
        <ele>204.71</ele>
        <time>2015-05-22T12:56:19Z</time>
      </trkpt>
      <trkpt lat="45.69639" lon="5.70937">
        <ele>204.14</ele>
        <time>2015-05-22T12:56:31Z</time>
      </trkpt>
      <trkpt lat="45.69578" lon="5.70976">
        <ele>204.12</ele>
        <time>2015-05-22T12:56:41Z</time>
      </trkpt>
      <trkpt lat="45.69547" lon="5.70992">
        <ele>204.51</ele>
        <time>2015-05-22T12:56:46Z</time>
      </trkpt>
      <trkpt lat="45.6954" lon="5.70994">
        <ele>204.57</ele>
        <time>2015-05-22T12:56:47Z</time>
      </trkpt>
      <trkpt lat="45.69532" lon="5.70995">
        <ele>204.62</ele>
        <time>2015-05-22T12:56:48Z</time>
      </trkpt>
      <trkpt lat="45.69525" lon="5.70995">
        <ele>204.65</ele>
        <time>2015-05-22T12:56:49Z</time>
      </trkpt>
      <trkpt lat="45.69518" lon="5.70995">
        <ele>204.66</ele>
        <time>2015-05-22T12:56:50Z</time>
      </trkpt>
      <trkpt lat="45.69473" lon="5.70992">
        <ele>204.87</ele>
        <time>2015-05-22T12:56:56Z</time>
      </trkpt>
      <trkpt lat="45.69437" lon="5.70983">
        <ele>204.89</ele>
        <time>2015-05-22T12:57:01Z</time>
      </trkpt>
      <trkpt lat="45.6943" lon="5.70978">
        <ele>204.88</ele>
        <time>2015-05-22T12:57:02Z</time>
      </trkpt>
      <trkpt lat="45.69425" lon="5.70972">
        <ele>204.89</ele>
        <time>2015-05-22T12:57:03Z</time>
      </trkpt>
      <trkpt lat="45.6942" lon="5.70965">
        <ele>204.9</ele>
        <time>2015-05-22T12:57:04Z</time>
      </trkpt>
      <trkpt lat="45.69417" lon="5.70956">
        <ele>204.94</ele>
        <time>2015-05-22T12:57:05Z</time>
      </trkpt>
      <trkpt lat="45.69414" lon="5.70949">
        <ele>205.04</ele>
        <time>2015-05-22T12:57:06Z</time>
      </trkpt>
      <trkpt lat="45.69407" lon="5.70937">
        <ele>205.24</ele>
        <time>2015-05-22T12:57:08Z</time>
      </trkpt>
      <trkpt lat="45.69403" lon="5.70934">
        <ele>205.32</ele>
        <time>2015-05-22T12:57:09Z</time>
      </trkpt>
      <trkpt lat="45.69395" lon="5.70931">
        <ele>205.41</ele>
        <time>2015-05-22T12:57:11Z</time>
      </trkpt>
      <trkpt lat="45.69379" lon="5.7093">
        <ele>205.48</ele>
        <time>2015-05-22T12:57:15Z</time>
      </trkpt>
      <trkpt lat="45.69375" lon="5.70931">
        <ele>205.49</ele>
        <time>2015-05-22T12:57:16Z</time>
      </trkpt>
      <trkpt lat="45.69369" lon="5.70935">
        <ele>205.51</ele>
        <time>2015-05-22T12:57:17Z</time>
      </trkpt>
      <trkpt lat="45.69304" lon="5.70973">
        <ele>204.94</ele>
        <time>2015-05-22T12:57:28Z</time>
      </trkpt>
      <trkpt lat="45.69242" lon="5.71021">
        <ele>204.6</ele>
        <time>2015-05-22T12:57:39Z</time>
      </trkpt>
      <trkpt lat="45.69233" lon="5.71029">
        <ele>204.64</ele>
        <time>2015-05-22T12:57:41Z</time>
      </trkpt>
      <trkpt lat="45.69228" lon="5.71034">
        <ele>204.68</ele>
        <time>2015-05-22T12:57:42Z</time>
      </trkpt>
      <trkpt lat="45.69223" lon="5.71038">
        <ele>204.77</ele>
        <time>2015-05-22T12:57:43Z</time>
      </trkpt>
      <trkpt lat="45.69185" lon="5.7106">
        <ele>204.71</ele>
        <time>2015-05-22T12:57:49Z</time>
      </trkpt>
      <trkpt lat="45.69171" lon="5.71068">
        <ele>204.5</ele>
        <time>2015-05-22T12:57:51Z</time>
      </trkpt>
      <trkpt lat="45.69166" lon="5.71074">
        <ele>204.41</ele>
        <time>2015-05-22T12:57:52Z</time>
      </trkpt>
      <trkpt lat="45.69162" lon="5.7108">
        <ele>204.35</ele>
        <time>2015-05-22T12:57:53Z</time>
      </trkpt>
      <trkpt lat="45.6916" lon="5.71089">
        <ele>204.31</ele>
        <time>2015-05-22T12:57:54Z</time>
      </trkpt>
      <trkpt lat="45.69158" lon="5.71097">
        <ele>204.32</ele>
        <time>2015-05-22T12:57:55Z</time>
      </trkpt>
      <trkpt lat="45.69157" lon="5.71105">
        <ele>204.4</ele>
        <time>2015-05-22T12:57:56Z</time>
      </trkpt>
      <trkpt lat="45.69156" lon="5.71112">
        <ele>204.51</ele>
        <time>2015-05-22T12:57:57Z</time>
      </trkpt>
      <trkpt lat="45.69142" lon="5.71188">
        <ele>203.9</ele>
        <time>2015-05-22T12:58:08Z</time>
      </trkpt>
      <trkpt lat="45.6914" lon="5.71195">
        <ele>203.73</ele>
        <time>2015-05-22T12:58:09Z</time>
      </trkpt>
      <trkpt lat="45.69118" lon="5.71239">
        <ele>202.61</ele>
        <time>2015-05-22T12:58:17Z</time>
      </trkpt>
      <trkpt lat="45.69114" lon="5.7124">
        <ele>202.72</ele>
        <time>2015-05-22T12:58:18Z</time>
      </trkpt>
      <trkpt lat="45.69111" lon="5.71242">
        <ele>202.95</ele>
        <time>2015-05-22T12:58:19Z</time>
      </trkpt>
      <trkpt lat="45.69108" lon="5.71242">
        <ele>203.28</ele>
        <time>2015-05-22T12:58:20Z</time>
      </trkpt>
      <trkpt lat="45.69104" lon="5.71242">
        <ele>203.63</ele>
        <time>2015-05-22T12:58:21Z</time>
      </trkpt>
      <trkpt lat="45.6905" lon="5.71216">
        <ele>204.42</ele>
        <time>2015-05-22T12:58:31Z</time>
      </trkpt>
      <trkpt lat="45.69012" lon="5.71201">
        <ele>205.29</ele>
        <time>2015-05-22T12:58:37Z</time>
      </trkpt>
      <trkpt lat="45.69005" lon="5.71198">
        <ele>205.47</ele>
        <time>2015-05-22T12:58:38Z</time>
      </trkpt>
      <trkpt lat="45.68923" lon="5.71175">
        <ele>205.37</ele>
        <time>2015-05-22T12:58:51Z</time>
      </trkpt>
      <trkpt lat="45.68857" lon="5.7115">
        <ele>206.06</ele>
        <time>2015-05-22T12:59:04Z</time>
      </trkpt>
      <trkpt lat="45.68795" lon="5.71131">
        <ele>208.22</ele>
        <time>2015-05-22T12:59:19Z</time>
      </trkpt>
      <trkpt lat="45.68765" lon="5.71116">
        <ele>210.08</ele>
        <time>2015-05-22T12:59:27Z</time>
      </trkpt>
      <trkpt lat="45.68704" lon="5.71081">
        <ele>210.62</ele>
        <time>2015-05-22T12:59:39Z</time>
      </trkpt>
      <trkpt lat="45.68611" lon="5.71042">
        <ele>209.4</ele>
        <time>2015-05-22T12:59:53Z</time>
      </trkpt>
      <trkpt lat="45.68522" lon="5.70992">
        <ele>208.35</ele>
        <time>2015-05-22T13:00:08Z</time>
      </trkpt>
      <trkpt lat="45.68432" lon="5.70933">
        <ele>208.55</ele>
        <time>2015-05-22T13:00:23Z</time>
      </trkpt>
      <trkpt lat="45.68396" lon="5.70918">
        <ele>208.73</ele>
        <time>2015-05-22T13:00:29Z</time>
      </trkpt>
      <trkpt lat="45.68389" lon="5.70916">
        <ele>208.76</ele>
        <time>2015-05-22T13:00:30Z</time>
      </trkpt>
      <trkpt lat="45.683" lon="5.70895">
        <ele>207.35</ele>
        <time>2015-05-22T13:00:43Z</time>
      </trkpt>
      <trkpt lat="45.6825" lon="5.70887">
        <ele>206.14</ele>
        <time>2015-05-22T13:00:51Z</time>
      </trkpt>
      <trkpt lat="45.68244" lon="5.70886">
        <ele>205.99</ele>
        <time>2015-05-22T13:00:52Z</time>
      </trkpt>
      <trkpt lat="45.68171" lon="5.70854">
        <ele>205.58</ele>
        <time>2015-05-22T13:01:04Z</time>
      </trkpt>
      <trkpt lat="45.68092" lon="5.70804">
        <ele>205.77</ele>
        <time>2015-05-22T13:01:18Z</time>
      </trkpt>
      <trkpt lat="45.6808" lon="5.70793">
        <ele>205.82</ele>
        <time>2015-05-22T13:01:20Z</time>
      </trkpt>
      <trkpt lat="45.68019" lon="5.70752">
        <ele>205.84</ele>
        <time>2015-05-22T13:01:30Z</time>
      </trkpt>
      <trkpt lat="45.68013" lon="5.7075">
        <ele>205.8</ele>
        <time>2015-05-22T13:01:31Z</time>
      </trkpt>
      <trkpt lat="45.67989" lon="5.70747">
        <ele>205.66</ele>
        <time>2015-05-22T13:01:35Z</time>
      </trkpt>
      <trkpt lat="45.67973" lon="5.7074">
        <ele>205.95</ele>
        <time>2015-05-22T13:01:38Z</time>
      </trkpt>
      <trkpt lat="45.67894" lon="5.70681">
        <ele>206.37</ele>
        <time>2015-05-22T13:01:51Z</time>
      </trkpt>
      <trkpt lat="45.67826" lon="5.70601">
        <ele>205.57</ele>
        <time>2015-05-22T13:02:03Z</time>
      </trkpt>
      <trkpt lat="45.67735" lon="5.70467">
        <ele>205.97</ele>
        <time>2015-05-22T13:02:20Z</time>
      </trkpt>
      <trkpt lat="45.67656" lon="5.70331">
        <ele>206.14</ele>
        <time>2015-05-22T13:02:37Z</time>
      </trkpt>
      <trkpt lat="45.6758" lon="5.70208">
        <ele>205.15</ele>
        <time>2015-05-22T13:02:52Z</time>
      </trkpt>
      <trkpt lat="45.67486" lon="5.70076">
        <ele>205.32</ele>
        <time>2015-05-22T13:03:10Z</time>
      </trkpt>
      <trkpt lat="45.67411" lon="5.69985">
        <ele>205.31</ele>
        <time>2015-05-22T13:03:23Z</time>
      </trkpt>
      <trkpt lat="45.67405" lon="5.69981">
        <ele>205.28</ele>
        <time>2015-05-22T13:03:24Z</time>
      </trkpt>
      <trkpt lat="45.67398" lon="5.69979">
        <ele>205.25</ele>
        <time>2015-05-22T13:03:25Z</time>
      </trkpt>
      <trkpt lat="45.67391" lon="5.69979">
        <ele>205.23</ele>
        <time>2015-05-22T13:03:26Z</time>
      </trkpt>
      <trkpt lat="45.67384" lon="5.69983">
        <ele>205.24</ele>
        <time>2015-05-22T13:03:27Z</time>
      </trkpt>
      <trkpt lat="45.67379" lon="5.69989">
        <ele>205.25</ele>
        <time>2015-05-22T13:03:28Z</time>
      </trkpt>
      <trkpt lat="45.67374" lon="5.69996">
        <ele>205.25</ele>
        <time>2015-05-22T13:03:29Z</time>
      </trkpt>
      <trkpt lat="45.67369" lon="5.70001">
        <ele>205.24</ele>
        <time>2015-05-22T13:03:30Z</time>
      </trkpt>
      <trkpt lat="45.67363" lon="5.70004">
        <ele>205.23</ele>
        <time>2015-05-22T13:03:31Z</time>
      </trkpt>
      <trkpt lat="45.67358" lon="5.70003">
        <ele>205.2</ele>
        <time>2015-05-22T13:03:32Z</time>
      </trkpt>
      <trkpt lat="45.67353" lon="5.69999">
        <ele>205.13</ele>
        <time>2015-05-22T13:03:33Z</time>
      </trkpt>
      <trkpt lat="45.67349" lon="5.69994">
        <ele>205.01</ele>
        <time>2015-05-22T13:03:34Z</time>
      </trkpt>
      <trkpt lat="45.67344" lon="5.69988">
        <ele>204.84</ele>
        <time>2015-05-22T13:03:35Z</time>
      </trkpt>
      <trkpt lat="45.67273" lon="5.6991">
        <ele>204.55</ele>
        <time>2015-05-22T13:03:49Z</time>
      </trkpt>
      <trkpt lat="45.67176" lon="5.698">
        <ele>204.09</ele>
        <time>2015-05-22T13:04:06Z</time>
      </trkpt>
      <trkpt lat="45.67093" lon="5.69686">
        <ele>203.95</ele>
        <time>2015-05-22T13:04:22Z</time>
      </trkpt>
      <trkpt lat="45.67" lon="5.69539">
        <ele>203.57</ele>
        <time>2015-05-22T13:04:40Z</time>
      </trkpt>
      <trkpt lat="45.66924" lon="5.69404">
        <ele>203.19</ele>
        <time>2015-05-22T13:04:55Z</time>
      </trkpt>
      <trkpt lat="45.66851" lon="5.69264">
        <ele>203.88</ele>
        <time>2015-05-22T13:05:11Z</time>
      </trkpt>
      <trkpt lat="45.66752" lon="5.6907">
        <ele>203.58</ele>
        <time>2015-05-22T13:05:32Z</time>
      </trkpt>
      <trkpt lat="45.66668" lon="5.68914">
        <ele>203.4</ele>
        <time>2015-05-22T13:05:50Z</time>
      </trkpt>
      <trkpt lat="45.66552" lon="5.68778">
        <ele>203.27</ele>
        <time>2015-05-22T13:06:09Z</time>
      </trkpt>
      <trkpt lat="45.66441" lon="5.68705">
        <ele>202.45</ele>
        <time>2015-05-22T13:06:26Z</time>
      </trkpt>
      <trkpt lat="45.66414" lon="5.687">
        <ele>202.44</ele>
        <time>2015-05-22T13:06:30Z</time>
      </trkpt>
      <trkpt lat="45.66408" lon="5.68701">
        <ele>202.41</ele>
        <time>2015-05-22T13:06:31Z</time>
      </trkpt>
      <trkpt lat="45.66402" lon="5.68702">
        <ele>202.36</ele>
        <time>2015-05-22T13:06:32Z</time>
      </trkpt>
      <trkpt lat="45.66395" lon="5.68705">
        <ele>202.32</ele>
        <time>2015-05-22T13:06:33Z</time>
      </trkpt>
      <trkpt lat="45.66389" lon="5.68708">
        <ele>202.28</ele>
        <time>2015-05-22T13:06:34Z</time>
      </trkpt>
      <trkpt lat="45.66383" lon="5.68712">
        <ele>202.24</ele>
        <time>2015-05-22T13:06:35Z</time>
      </trkpt>
      <trkpt lat="45.66377" lon="5.68716">
        <ele>202.22</ele>
        <time>2015-05-22T13:06:36Z</time>
      </trkpt>
      <trkpt lat="45.6629" lon="5.68812">
        <ele>202.43</ele>
        <time>2015-05-22T13:06:52Z</time>
      </trkpt>
      <trkpt lat="45.66194" lon="5.68908">
        <ele>202.37</ele>
        <time>2015-05-22T13:07:10Z</time>
      </trkpt>
      <trkpt lat="45.66188" lon="5.68911">
        <ele>202.42</ele>
        <time>2015-05-22T13:07:11Z</time>
      </trkpt>
      <trkpt lat="45.66183" lon="5.68912">
        <ele>202.47</ele>
        <time>2015-05-22T13:07:12Z</time>
      </trkpt>
      <trkpt lat="45.66179" lon="5.6891">
        <ele>202.53</ele>
        <time>2015-05-22T13:07:13Z</time>
      </trkpt>
      <trkpt lat="45.66175" lon="5.68906">
        <ele>202.56</ele>
        <time>2015-05-22T13:07:14Z</time>
      </trkpt>
      <trkpt lat="45.66171" lon="5.68902">
        <ele>202.6</ele>
        <time>2015-05-22T13:07:15Z</time>
      </trkpt>
      <trkpt lat="45.66169" lon="5.68897">
        <ele>202.63</ele>
        <time>2015-05-22T13:07:16Z</time>
      </trkpt>
      <trkpt lat="45.66164" lon="5.68853">
        <ele>203.6</ele>
        <time>2015-05-22T13:07:27Z</time>
      </trkpt>
      <trkpt lat="45.6616" lon="5.68793">
        <ele>204.68</ele>
        <time>2015-05-22T13:07:36Z</time>
      </trkpt>
      <trkpt lat="45.66151" lon="5.68693">
        <ele>205.61</ele>
        <time>2015-05-22T13:07:49Z</time>
      </trkpt>
      <trkpt lat="45.66144" lon="5.68638">
        <ele>206.01</ele>
        <time>2015-05-22T13:07:56Z</time>
      </trkpt>
      <trkpt lat="45.66139" lon="5.68633">
        <ele>206.02</ele>
        <time>2015-05-22T13:07:57Z</time>
      </trkpt>
      <trkpt lat="45.66134" lon="5.68631">
        <ele>206</ele>
        <time>2015-05-22T13:07:58Z</time>
      </trkpt>
      <trkpt lat="45.66128" lon="5.68632">
        <ele>205.92</ele>
        <time>2015-05-22T13:07:59Z</time>
      </trkpt>
      <trkpt lat="45.66122" lon="5.68633">
        <ele>205.82</ele>
        <time>2015-05-22T13:08:00Z</time>
      </trkpt>
      <trkpt lat="45.66117" lon="5.68636">
        <ele>205.71</ele>
        <time>2015-05-22T13:08:01Z</time>
      </trkpt>
      <trkpt lat="45.66024" lon="5.68675">
        <ele>204.97</ele>
        <time>2015-05-22T13:08:17Z</time>
      </trkpt>
      <trkpt lat="45.65996" lon="5.68688">
        <ele>204.78</ele>
        <time>2015-05-22T13:08:27Z</time>
      </trkpt>
      <trkpt lat="45.65997" lon="5.68688">
        <ele>204.96</ele>
        <time>2015-05-22T13:08:57Z</time>
      </trkpt>
      <trkpt lat="45.65995" lon="5.68688">
        <ele>205.01</ele>
        <time>2015-05-22T13:09:15Z</time>
      </trkpt>
      <trkpt lat="45.65989" lon="5.6869">
        <ele>204.97</ele>
        <time>2015-05-22T13:09:18Z</time>
      </trkpt>
      <trkpt lat="45.65934" lon="5.6871">
        <ele>205.21</ele>
        <time>2015-05-22T13:09:31Z</time>
      </trkpt>
      <trkpt lat="45.65843" lon="5.68747">
        <ele>205.25</ele>
        <time>2015-05-22T13:09:47Z</time>
      </trkpt>
      <trkpt lat="45.65747" lon="5.68786">
        <ele>205.19</ele>
        <time>2015-05-22T13:10:03Z</time>
      </trkpt>
      <trkpt lat="45.65615" lon="5.68838">
        <ele>205.8</ele>
        <time>2015-05-22T13:10:23Z</time>
      </trkpt>
      <trkpt lat="45.65459" lon="5.68901">
        <ele>206.23</ele>
        <time>2015-05-22T13:10:46Z</time>
      </trkpt>
      <trkpt lat="45.65325" lon="5.68954">
        <ele>205.82</ele>
        <time>2015-05-22T13:11:07Z</time>
      </trkpt>
      <trkpt lat="45.6522" lon="5.68997">
        <ele>206.17</ele>
        <time>2015-05-22T13:11:23Z</time>
      </trkpt>
      <trkpt lat="45.65189" lon="5.69007">
        <ele>205.93</ele>
        <time>2015-05-22T13:11:28Z</time>
      </trkpt>
      <trkpt lat="45.65184" lon="5.69011">
        <ele>205.91</ele>
        <time>2015-05-22T13:11:29Z</time>
      </trkpt>
      <trkpt lat="45.65178" lon="5.69014">
        <ele>205.92</ele>
        <time>2015-05-22T13:11:30Z</time>
      </trkpt>
      <trkpt lat="45.65146" lon="5.69039">
        <ele>205.69</ele>
        <time>2015-05-22T13:11:36Z</time>
      </trkpt>
      <trkpt lat="45.65142" lon="5.69046">
        <ele>205.25</ele>
        <time>2015-05-22T13:11:37Z</time>
      </trkpt>
      <trkpt lat="45.6514" lon="5.69052">
        <ele>205.06</ele>
        <time>2015-05-22T13:11:38Z</time>
      </trkpt>
      <trkpt lat="45.65139" lon="5.69058">
        <ele>204.88</ele>
        <time>2015-05-22T13:11:39Z</time>
      </trkpt>
      <trkpt lat="45.65138" lon="5.69063">
        <ele>204.72</ele>
        <time>2015-05-22T13:11:40Z</time>
      </trkpt>
      <trkpt lat="45.65133" lon="5.6909">
        <ele>204.28</ele>
        <time>2015-05-22T13:11:45Z</time>
      </trkpt>
      <trkpt lat="45.6513" lon="5.69094">
        <ele>204.21</ele>
        <time>2015-05-22T13:11:46Z</time>
      </trkpt>
      <trkpt lat="45.65126" lon="5.69096">
        <ele>204.11</ele>
        <time>2015-05-22T13:11:47Z</time>
      </trkpt>
      <trkpt lat="45.65122" lon="5.69097">
        <ele>203.98</ele>
        <time>2015-05-22T13:11:48Z</time>
      </trkpt>
      <trkpt lat="45.65118" lon="5.69098">
        <ele>203.84</ele>
        <time>2015-05-22T13:11:49Z</time>
      </trkpt>
      <trkpt lat="45.65114" lon="5.69099">
        <ele>203.7</ele>
        <time>2015-05-22T13:11:50Z</time>
      </trkpt>
      <trkpt lat="45.6504" lon="5.69117">
        <ele>202.66</ele>
        <time>2015-05-22T13:12:04Z</time>
      </trkpt>
      <trkpt lat="45.64968" lon="5.69128">
        <ele>202.56</ele>
        <time>2015-05-22T13:12:16Z</time>
      </trkpt>
      <trkpt lat="45.64889" lon="5.6916">
        <ele>202.49</ele>
        <time>2015-05-22T13:12:29Z</time>
      </trkpt>
      <trkpt lat="45.64807" lon="5.69243">
        <ele>201.9</ele>
        <time>2015-05-22T13:12:45Z</time>
      </trkpt>
      <trkpt lat="45.64763" lon="5.69282">
        <ele>201.51</ele>
        <time>2015-05-22T13:12:53Z</time>
      </trkpt>
      <trkpt lat="45.64702" lon="5.6931">
        <ele>201.87</ele>
        <time>2015-05-22T13:13:03Z</time>
      </trkpt>
      <trkpt lat="45.64695" lon="5.69309">
        <ele>201.86</ele>
        <time>2015-05-22T13:13:04Z</time>
      </trkpt>
      <trkpt lat="45.64681" lon="5.69308">
        <ele>201.77</ele>
        <time>2015-05-22T13:13:06Z</time>
      </trkpt>
      <trkpt lat="45.64675" lon="5.69307">
        <ele>201.72</ele>
        <time>2015-05-22T13:13:07Z</time>
      </trkpt>
      <trkpt lat="45.64668" lon="5.69304">
        <ele>201.67</ele>
        <time>2015-05-22T13:13:08Z</time>
      </trkpt>
      <trkpt lat="45.64661" lon="5.693">
        <ele>201.63</ele>
        <time>2015-05-22T13:13:09Z</time>
      </trkpt>
      <trkpt lat="45.64655" lon="5.69296">
        <ele>201.6</ele>
        <time>2015-05-22T13:13:10Z</time>
      </trkpt>
      <trkpt lat="45.64592" lon="5.69276">
        <ele>201.38</ele>
        <time>2015-05-22T13:13:20Z</time>
      </trkpt>
      <trkpt lat="45.64585" lon="5.69278">
        <ele>201.4</ele>
        <time>2015-05-22T13:13:21Z</time>
      </trkpt>
      <trkpt lat="45.6458" lon="5.69283">
        <ele>201.4</ele>
        <time>2015-05-22T13:13:22Z</time>
      </trkpt>
      <trkpt lat="45.64574" lon="5.69289">
        <ele>201.44</ele>
        <time>2015-05-22T13:13:23Z</time>
      </trkpt>
      <trkpt lat="45.6457" lon="5.69295">
        <ele>201.46</ele>
        <time>2015-05-22T13:13:24Z</time>
      </trkpt>
      <trkpt lat="45.6456" lon="5.69306">
        <ele>201.51</ele>
        <time>2015-05-22T13:13:26Z</time>
      </trkpt>
      <trkpt lat="45.64554" lon="5.6931">
        <ele>201.52</ele>
        <time>2015-05-22T13:13:27Z</time>
      </trkpt>
      <trkpt lat="45.64548" lon="5.69313">
        <ele>201.52</ele>
        <time>2015-05-22T13:13:28Z</time>
      </trkpt>
      <trkpt lat="45.64542" lon="5.69315">
        <ele>201.52</ele>
        <time>2015-05-22T13:13:29Z</time>
      </trkpt>
      <trkpt lat="45.64536" lon="5.69317">
        <ele>201.53</ele>
        <time>2015-05-22T13:13:30Z</time>
      </trkpt>
      <trkpt lat="45.64529" lon="5.69318">
        <ele>201.55</ele>
        <time>2015-05-22T13:13:31Z</time>
      </trkpt>
      <trkpt lat="45.64491" lon="5.69327">
        <ele>201.44</ele>
        <time>2015-05-22T13:13:38Z</time>
      </trkpt>
      <trkpt lat="45.6448" lon="5.69327">
        <ele>201.38</ele>
        <time>2015-05-22T13:13:40Z</time>
      </trkpt>
      <trkpt lat="45.64475" lon="5.69326">
        <ele>201.39</ele>
        <time>2015-05-22T13:13:41Z</time>
      </trkpt>
      <trkpt lat="45.64466" lon="5.69323">
        <ele>201.41</ele>
        <time>2015-05-22T13:13:43Z</time>
      </trkpt>
      <trkpt lat="45.64461" lon="5.69321">
        <ele>201.42</ele>
        <time>2015-05-22T13:13:44Z</time>
      </trkpt>
      <trkpt lat="45.64448" lon="5.69311">
        <ele>201.41</ele>
        <time>2015-05-22T13:13:47Z</time>
      </trkpt>
      <trkpt lat="45.64444" lon="5.69307">
        <ele>201.41</ele>
        <time>2015-05-22T13:13:48Z</time>
      </trkpt>
      <trkpt lat="45.64426" lon="5.69287">
        <ele>201.4</ele>
        <time>2015-05-22T13:13:52Z</time>
      </trkpt>
      <trkpt lat="45.64373" lon="5.69203">
        <ele>201.02</ele>
        <time>2015-05-22T13:14:04Z</time>
      </trkpt>
      <trkpt lat="45.64347" lon="5.6915">
        <ele>200.92</ele>
        <time>2015-05-22T13:14:11Z</time>
      </trkpt>
      <trkpt lat="45.64341" lon="5.69145">
        <ele>200.9</ele>
        <time>2015-05-22T13:14:12Z</time>
      </trkpt>
      <trkpt lat="45.64335" lon="5.6914">
        <ele>200.88</ele>
        <time>2015-05-22T13:14:13Z</time>
      </trkpt>
      <trkpt lat="45.64329" lon="5.69137">
        <ele>200.88</ele>
        <time>2015-05-22T13:14:14Z</time>
      </trkpt>
      <trkpt lat="45.64322" lon="5.69134">
        <ele>200.9</ele>
        <time>2015-05-22T13:14:15Z</time>
      </trkpt>
      <trkpt lat="45.64316" lon="5.69132">
        <ele>200.92</ele>
        <time>2015-05-22T13:14:16Z</time>
      </trkpt>
      <trkpt lat="45.64281" lon="5.69114">
        <ele>201.15</ele>
        <time>2015-05-22T13:14:22Z</time>
      </trkpt>
      <trkpt lat="45.64275" lon="5.69111">
        <ele>201.16</ele>
        <time>2015-05-22T13:14:23Z</time>
      </trkpt>
      <trkpt lat="45.642" lon="5.6906">
        <ele>201.29</ele>
        <time>2015-05-22T13:14:37Z</time>
      </trkpt>
      <trkpt lat="45.64108" lon="5.68975">
        <ele>201.54</ele>
        <time>2015-05-22T13:14:53Z</time>
      </trkpt>
      <trkpt lat="45.64027" lon="5.68883">
        <ele>201.83</ele>
        <time>2015-05-22T13:15:07Z</time>
      </trkpt>
      <trkpt lat="45.63949" lon="5.68759">
        <ele>201.66</ele>
        <time>2015-05-22T13:15:22Z</time>
      </trkpt>
      <trkpt lat="45.63887" lon="5.68643">
        <ele>202.26</ele>
        <time>2015-05-22T13:15:35Z</time>
      </trkpt>
      <trkpt lat="45.63856" lon="5.68557">
        <ele>203.36</ele>
        <time>2015-05-22T13:15:44Z</time>
      </trkpt>
      <trkpt lat="45.6385" lon="5.68543">
        <ele>203.33</ele>
        <time>2015-05-22T13:15:45Z</time>
      </trkpt>
      <trkpt lat="45.63841" lon="5.6851">
        <ele>203.32</ele>
        <time>2015-05-22T13:15:48Z</time>
      </trkpt>
      <trkpt lat="45.63826" lon="5.68344">
        <ele>202.18</ele>
        <time>2015-05-22T13:16:04Z</time>
      </trkpt>
      <trkpt lat="45.63828" lon="5.68337">
        <ele>202.12</ele>
        <time>2015-05-22T13:16:05Z</time>
      </trkpt>
      <trkpt lat="45.6383" lon="5.68331">
        <ele>202.06</ele>
        <time>2015-05-22T13:16:06Z</time>
      </trkpt>
      <trkpt lat="45.63834" lon="5.68328">
        <ele>202.01</ele>
        <time>2015-05-22T13:16:07Z</time>
      </trkpt>
      <trkpt lat="45.63839" lon="5.68328">
        <ele>201.99</ele>
        <time>2015-05-22T13:16:08Z</time>
      </trkpt>
      <trkpt lat="45.63843" lon="5.68325">
        <ele>202.02</ele>
        <time>2015-05-22T13:16:09Z</time>
      </trkpt>
      <trkpt lat="45.63846" lon="5.68321">
        <ele>202.15</ele>
        <time>2015-05-22T13:16:10Z</time>
      </trkpt>
      <trkpt lat="45.63848" lon="5.68315">
        <ele>202.31</ele>
        <time>2015-05-22T13:16:11Z</time>
      </trkpt>
      <trkpt lat="45.63849" lon="5.68309">
        <ele>202.45</ele>
        <time>2015-05-22T13:16:12Z</time>
      </trkpt>
      <trkpt lat="45.63849" lon="5.68303">
        <ele>202.58</ele>
        <time>2015-05-22T13:16:13Z</time>
      </trkpt>
      <trkpt lat="45.63849" lon="5.68297">
        <ele>202.7</ele>
        <time>2015-05-22T13:16:14Z</time>
      </trkpt>
      <trkpt lat="45.63842" lon="5.6819">
        <ele>205.76</ele>
        <time>2015-05-22T13:16:31Z</time>
      </trkpt>
      <trkpt lat="45.63815" lon="5.6808">
        <ele>205.78</ele>
        <time>2015-05-22T13:16:45Z</time>
      </trkpt>
      <trkpt lat="45.63777" lon="5.67953">
        <ele>206.15</ele>
        <time>2015-05-22T13:17:01Z</time>
      </trkpt>
      <trkpt lat="45.6374" lon="5.67828">
        <ele>206.66</ele>
        <time>2015-05-22T13:17:16Z</time>
      </trkpt>
      <trkpt lat="45.6371" lon="5.6771">
        <ele>206.61</ele>
        <time>2015-05-22T13:17:29Z</time>
      </trkpt>
      <trkpt lat="45.63689" lon="5.67664">
        <ele>206.46</ele>
        <time>2015-05-22T13:17:35Z</time>
      </trkpt>
      <trkpt lat="45.63683" lon="5.6766">
        <ele>206.32</ele>
        <time>2015-05-22T13:17:36Z</time>
      </trkpt>
      <trkpt lat="45.63677" lon="5.67658">
        <ele>206.14</ele>
        <time>2015-05-22T13:17:37Z</time>
      </trkpt>
      <trkpt lat="45.6367" lon="5.67658">
        <ele>205.89</ele>
        <time>2015-05-22T13:17:38Z</time>
      </trkpt>
      <trkpt lat="45.63665" lon="5.67658">
        <ele>205.58</ele>
        <time>2015-05-22T13:17:39Z</time>
      </trkpt>
      <trkpt lat="45.6366" lon="5.67657">
        <ele>205.24</ele>
        <time>2015-05-22T13:17:40Z</time>
      </trkpt>
      <trkpt lat="45.63655" lon="5.67654">
        <ele>204.89</ele>
        <time>2015-05-22T13:17:41Z</time>
      </trkpt>
      <trkpt lat="45.63652" lon="5.67648">
        <ele>204.55</ele>
        <time>2015-05-22T13:17:42Z</time>
      </trkpt>
      <trkpt lat="45.6365" lon="5.67641">
        <ele>204.23</ele>
        <time>2015-05-22T13:17:43Z</time>
      </trkpt>
      <trkpt lat="45.63649" lon="5.67633">
        <ele>203.92</ele>
        <time>2015-05-22T13:17:44Z</time>
      </trkpt>
      <trkpt lat="45.63649" lon="5.67625">
        <ele>203.66</ele>
        <time>2015-05-22T13:17:45Z</time>
      </trkpt>
      <trkpt lat="45.63645" lon="5.67482">
        <ele>203.25</ele>
        <time>2015-05-22T13:18:00Z</time>
      </trkpt>
      <trkpt lat="45.6365" lon="5.67309">
        <ele>203.11</ele>
        <time>2015-05-22T13:18:18Z</time>
      </trkpt>
      <trkpt lat="45.63655" lon="5.67144">
        <ele>202.46</ele>
        <time>2015-05-22T13:18:35Z</time>
      </trkpt>
      <trkpt lat="45.63661" lon="5.66955">
        <ele>202.9</ele>
        <time>2015-05-22T13:18:55Z</time>
      </trkpt>
      <trkpt lat="45.63666" lon="5.66783">
        <ele>202.49</ele>
        <time>2015-05-22T13:19:13Z</time>
      </trkpt>
      <trkpt lat="45.63666" lon="5.66765">
        <ele>202.46</ele>
        <time>2015-05-22T13:19:15Z</time>
      </trkpt>
      <trkpt lat="45.63669" lon="5.66627">
        <ele>202.28</ele>
        <time>2015-05-22T13:19:29Z</time>
      </trkpt>
      <trkpt lat="45.63671" lon="5.66568">
        <ele>202.71</ele>
        <time>2015-05-22T13:19:35Z</time>
      </trkpt>
      <trkpt lat="45.63675" lon="5.66417">
        <ele>202.46</ele>
        <time>2015-05-22T13:19:51Z</time>
      </trkpt>
      <trkpt lat="45.63682" lon="5.66226">
        <ele>202.34</ele>
        <time>2015-05-22T13:20:11Z</time>
      </trkpt>
      <trkpt lat="45.63688" lon="5.66059">
        <ele>202.48</ele>
        <time>2015-05-22T13:20:28Z</time>
      </trkpt>
      <trkpt lat="45.6367" lon="5.65911">
        <ele>201.67</ele>
        <time>2015-05-22T13:20:44Z</time>
      </trkpt>
      <trkpt lat="45.6366" lon="5.65869">
        <ele>201.69</ele>
        <time>2015-05-22T13:20:49Z</time>
      </trkpt>
      <trkpt lat="45.63655" lon="5.65864">
        <ele>201.67</ele>
        <time>2015-05-22T13:20:50Z</time>
      </trkpt>
      <trkpt lat="45.6365" lon="5.6586">
        <ele>201.58</ele>
        <time>2015-05-22T13:20:51Z</time>
      </trkpt>
      <trkpt lat="45.63645" lon="5.65857">
        <ele>201.56</ele>
        <time>2015-05-22T13:20:52Z</time>
      </trkpt>
      <trkpt lat="45.6364" lon="5.65853">
        <ele>201.58</ele>
        <time>2015-05-22T13:20:53Z</time>
      </trkpt>
      <trkpt lat="45.63636" lon="5.65846">
        <ele>201.58</ele>
        <time>2015-05-22T13:20:54Z</time>
      </trkpt>
      <trkpt lat="45.63633" lon="5.65839">
        <ele>201.61</ele>
        <time>2015-05-22T13:20:55Z</time>
      </trkpt>
      <trkpt lat="45.63622" lon="5.65819">
        <ele>201.67</ele>
        <time>2015-05-22T13:20:58Z</time>
      </trkpt>
      <trkpt lat="45.63617" lon="5.65813">
        <ele>201.67</ele>
        <time>2015-05-22T13:20:59Z</time>
      </trkpt>
      <trkpt lat="45.63612" lon="5.65808">
        <ele>201.67</ele>
        <time>2015-05-22T13:21:00Z</time>
      </trkpt>
      <trkpt lat="45.63596" lon="5.65792">
        <ele>201.61</ele>
        <time>2015-05-22T13:21:03Z</time>
      </trkpt>
      <trkpt lat="45.63591" lon="5.65786">
        <ele>201.6</ele>
        <time>2015-05-22T13:21:04Z</time>
      </trkpt>
      <trkpt lat="45.63511" lon="5.65671">
        <ele>201.65</ele>
        <time>2015-05-22T13:21:21Z</time>
      </trkpt>
      <trkpt lat="45.63506" lon="5.65667">
        <ele>201.69</ele>
        <time>2015-05-22T13:21:22Z</time>
      </trkpt>
      <trkpt lat="45.63481" lon="5.65646">
        <ele>202.02</ele>
        <time>2015-05-22T13:21:27Z</time>
      </trkpt>
      <trkpt lat="45.63477" lon="5.65641">
        <ele>202.13</ele>
        <time>2015-05-22T13:21:28Z</time>
      </trkpt>
      <trkpt lat="45.63471" lon="5.6563">
        <ele>202.29</ele>
        <time>2015-05-22T13:21:30Z</time>
      </trkpt>
      <trkpt lat="45.63467" lon="5.65626">
        <ele>202.37</ele>
        <time>2015-05-22T13:21:31Z</time>
      </trkpt>
      <trkpt lat="45.63464" lon="5.65624">
        <ele>202.45</ele>
        <time>2015-05-22T13:21:32Z</time>
      </trkpt>
      <trkpt lat="45.63452" lon="5.65607">
        <ele>203.11</ele>
        <time>2015-05-22T13:21:37Z</time>
      </trkpt>
      <trkpt lat="45.63453" lon="5.65602">
        <ele>203.28</ele>
        <time>2015-05-22T13:21:38Z</time>
      </trkpt>
      <trkpt lat="45.63454" lon="5.65599">
        <ele>203.56</ele>
        <time>2015-05-22T13:21:39Z</time>
      </trkpt>
      <trkpt lat="45.63456" lon="5.65596">
        <ele>203.67</ele>
        <time>2015-05-22T13:21:40Z</time>
      </trkpt>
      <trkpt lat="45.63458" lon="5.65593">
        <ele>203.75</ele>
        <time>2015-05-22T13:21:41Z</time>
      </trkpt>
      <trkpt lat="45.63461" lon="5.65591">
        <ele>203.81</ele>
        <time>2015-05-22T13:21:42Z</time>
      </trkpt>
      <trkpt lat="45.63464" lon="5.65588">
        <ele>203.85</ele>
        <time>2015-05-22T13:21:43Z</time>
      </trkpt>
      <trkpt lat="45.63505" lon="5.65536">
        <ele>205.24</ele>
        <time>2015-05-22T13:21:58Z</time>
      </trkpt>
      <trkpt lat="45.63539" lon="5.65487">
        <ele>206.44</ele>
        <time>2015-05-22T13:22:11Z</time>
      </trkpt>
      <trkpt lat="45.63541" lon="5.65482">
        <ele>205.73</ele>
        <time>2015-05-22T13:22:20Z</time>
      </trkpt>
      <trkpt lat="45.63542" lon="5.65479">
        <ele>206.67</ele>
        <time>2015-05-22T13:22:38Z</time>
      </trkpt>
      <trkpt lat="45.63543" lon="5.65477">
        <ele>206.7</ele>
        <time>2015-05-22T13:22:39Z</time>
      </trkpt>
      <trkpt lat="45.63547" lon="5.65472">
        <ele>206.81</ele>
        <time>2015-05-22T13:22:41Z</time>
      </trkpt>
      <trkpt lat="45.63588" lon="5.65411">
        <ele>207.84</ele>
        <time>2015-05-22T13:22:54Z</time>
      </trkpt>
      <trkpt lat="45.63595" lon="5.65401">
        <ele>207.99</ele>
        <time>2015-05-22T13:22:56Z</time>
      </trkpt>
      <trkpt lat="45.63603" lon="5.65392">
        <ele>208.16</ele>
        <time>2015-05-22T13:22:58Z</time>
      </trkpt>
      <trkpt lat="45.63607" lon="5.65387">
        <ele>208.27</ele>
        <time>2015-05-22T13:22:59Z</time>
      </trkpt>
      <trkpt lat="45.6361" lon="5.65382">
        <ele>208.36</ele>
        <time>2015-05-22T13:23:00Z</time>
      </trkpt>
      <trkpt lat="45.63624" lon="5.65363">
        <ele>208.69</ele>
        <time>2015-05-22T13:23:04Z</time>
      </trkpt>
      <trkpt lat="45.63627" lon="5.6536">
        <ele>208.64</ele>
        <time>2015-05-22T13:23:05Z</time>
      </trkpt>
      <trkpt lat="45.6363" lon="5.65361">
        <ele>208.55</ele>
        <time>2015-05-22T13:23:06Z</time>
      </trkpt>
      <trkpt lat="45.63633" lon="5.65362">
        <ele>208.43</ele>
        <time>2015-05-22T13:23:07Z</time>
      </trkpt>
      <trkpt lat="45.63636" lon="5.65361">
        <ele>208.25</ele>
        <time>2015-05-22T13:23:08Z</time>
      </trkpt>
      <trkpt lat="45.6364" lon="5.65359">
        <ele>207.99</ele>
        <time>2015-05-22T13:23:09Z</time>
      </trkpt>
      <trkpt lat="45.63687" lon="5.65353">
        <ele>206.73</ele>
        <time>2015-05-22T13:23:21Z</time>
      </trkpt>
      <trkpt lat="45.63693" lon="5.6535">
        <ele>206.48</ele>
        <time>2015-05-22T13:23:22Z</time>
      </trkpt>
      <trkpt lat="45.63698" lon="5.65348">
        <ele>206.2</ele>
        <time>2015-05-22T13:23:23Z</time>
      </trkpt>
      <trkpt lat="45.63703" lon="5.65344">
        <ele>205.94</ele>
        <time>2015-05-22T13:23:24Z</time>
      </trkpt>
      <trkpt lat="45.63707" lon="5.6534">
        <ele>205.71</ele>
        <time>2015-05-22T13:23:25Z</time>
      </trkpt>
      <trkpt lat="45.63712" lon="5.65335">
        <ele>205.5</ele>
        <time>2015-05-22T13:23:26Z</time>
      </trkpt>
      <trkpt lat="45.63716" lon="5.65329">
        <ele>205.32</ele>
        <time>2015-05-22T13:23:27Z</time>
      </trkpt>
      <trkpt lat="45.6372" lon="5.65323">
        <ele>205.15</ele>
        <time>2015-05-22T13:23:28Z</time>
      </trkpt>
      <trkpt lat="45.63724" lon="5.65316">
        <ele>204.97</ele>
        <time>2015-05-22T13:23:29Z</time>
      </trkpt>
      <trkpt lat="45.63727" lon="5.65309">
        <ele>204.79</ele>
        <time>2015-05-22T13:23:30Z</time>
      </trkpt>
      <trkpt lat="45.6373" lon="5.65301">
        <ele>204.59</ele>
        <time>2015-05-22T13:23:31Z</time>
      </trkpt>
      <trkpt lat="45.63732" lon="5.65293">
        <ele>204.4</ele>
        <time>2015-05-22T13:23:32Z</time>
      </trkpt>
      <trkpt lat="45.63734" lon="5.65284">
        <ele>204.24</ele>
        <time>2015-05-22T13:23:33Z</time>
      </trkpt>
      <trkpt lat="45.63734" lon="5.65275">
        <ele>204.11</ele>
        <time>2015-05-22T13:23:34Z</time>
      </trkpt>
      <trkpt lat="45.63735" lon="5.65266">
        <ele>203.99</ele>
        <time>2015-05-22T13:23:35Z</time>
      </trkpt>
      <trkpt lat="45.63734" lon="5.65257">
        <ele>203.88</ele>
        <time>2015-05-22T13:23:36Z</time>
      </trkpt>
      <trkpt lat="45.63733" lon="5.65248">
        <ele>203.79</ele>
        <time>2015-05-22T13:23:37Z</time>
      </trkpt>
      <trkpt lat="45.63697" lon="5.65108">
        <ele>201.43</ele>
        <time>2015-05-22T13:23:51Z</time>
      </trkpt>
      <trkpt lat="45.63625" lon="5.64993">
        <ele>201.23</ele>
        <time>2015-05-22T13:24:04Z</time>
      </trkpt>
      <trkpt lat="45.63538" lon="5.6487">
        <ele>201.5</ele>
        <time>2015-05-22T13:24:19Z</time>
      </trkpt>
      <trkpt lat="45.63446" lon="5.6474">
        <ele>201.36</ele>
        <time>2015-05-22T13:24:35Z</time>
      </trkpt>
      <trkpt lat="45.63419" lon="5.64699">
        <ele>201.17</ele>
        <time>2015-05-22T13:24:40Z</time>
      </trkpt>
      <trkpt lat="45.63415" lon="5.6469">
        <ele>201.15</ele>
        <time>2015-05-22T13:24:41Z</time>
      </trkpt>
      <trkpt lat="45.63401" lon="5.64644">
        <ele>201.24</ele>
        <time>2015-05-22T13:24:46Z</time>
      </trkpt>
      <trkpt lat="45.634" lon="5.64635">
        <ele>201.37</ele>
        <time>2015-05-22T13:24:47Z</time>
      </trkpt>
      <trkpt lat="45.63399" lon="5.64628">
        <ele>201.5</ele>
        <time>2015-05-22T13:24:48Z</time>
      </trkpt>
      <trkpt lat="45.63397" lon="5.64608">
        <ele>202.07</ele>
        <time>2015-05-22T13:24:51Z</time>
      </trkpt>
      <trkpt lat="45.63396" lon="5.64601">
        <ele>202.31</ele>
        <time>2015-05-22T13:24:52Z</time>
      </trkpt>
      <trkpt lat="45.63396" lon="5.64595">
        <ele>202.53</ele>
        <time>2015-05-22T13:24:53Z</time>
      </trkpt>
      <trkpt lat="45.63395" lon="5.64568">
        <ele>203.48</ele>
        <time>2015-05-22T13:24:57Z</time>
      </trkpt>
      <trkpt lat="45.63396" lon="5.6456">
        <ele>203.48</ele>
        <time>2015-05-22T13:24:58Z</time>
      </trkpt>
      <trkpt lat="45.63425" lon="5.64451">
        <ele>204.71</ele>
        <time>2015-05-22T13:25:13Z</time>
      </trkpt>
      <trkpt lat="45.63449" lon="5.64355">
        <ele>205.19</ele>
        <time>2015-05-22T13:25:26Z</time>
      </trkpt>
      <trkpt lat="45.63464" lon="5.64256">
        <ele>206.04</ele>
        <time>2015-05-22T13:25:39Z</time>
      </trkpt>
      <trkpt lat="45.63467" lon="5.64241">
        <ele>206.16</ele>
        <time>2015-05-22T13:25:41Z</time>
      </trkpt>
      <trkpt lat="45.63469" lon="5.64234">
        <ele>206.17</ele>
        <time>2015-05-22T13:25:42Z</time>
      </trkpt>
      <trkpt lat="45.63477" lon="5.64213">
        <ele>206.19</ele>
        <time>2015-05-22T13:25:45Z</time>
      </trkpt>
      <trkpt lat="45.6348" lon="5.64206">
        <ele>206.19</ele>
        <time>2015-05-22T13:25:46Z</time>
      </trkpt>
      <trkpt lat="45.63484" lon="5.64199">
        <ele>206.18</ele>
        <time>2015-05-22T13:25:47Z</time>
      </trkpt>
      <trkpt lat="45.63488" lon="5.64194">
        <ele>206.17</ele>
        <time>2015-05-22T13:25:48Z</time>
      </trkpt>
      <trkpt lat="45.63493" lon="5.64188">
        <ele>206.16</ele>
        <time>2015-05-22T13:25:49Z</time>
      </trkpt>
      <trkpt lat="45.63498" lon="5.64182">
        <ele>206.14</ele>
        <time>2015-05-22T13:25:50Z</time>
      </trkpt>
      <trkpt lat="45.63545" lon="5.64132">
        <ele>205.64</ele>
        <time>2015-05-22T13:26:00Z</time>
      </trkpt>
      <trkpt lat="45.63575" lon="5.64114">
        <ele>205.9</ele>
        <time>2015-05-22T13:26:06Z</time>
      </trkpt>
      <trkpt lat="45.63611" lon="5.64105">
        <ele>206</ele>
        <time>2015-05-22T13:26:14Z</time>
      </trkpt>
      <trkpt lat="45.63665" lon="5.64117">
        <ele>205.85</ele>
        <time>2015-05-22T13:26:27Z</time>
      </trkpt>
      <trkpt lat="45.63673" lon="5.64119">
        <ele>206.09</ele>
        <time>2015-05-22T13:26:29Z</time>
      </trkpt>
      <trkpt lat="45.63699" lon="5.64135">
        <ele>206.52</ele>
        <time>2015-05-22T13:26:38Z</time>
      </trkpt>
      <trkpt lat="45.637" lon="5.64138">
        <ele>206.46</ele>
        <time>2015-05-22T13:26:39Z</time>
      </trkpt>
      <trkpt lat="45.63707" lon="5.64154">
        <ele>206.1</ele>
        <time>2015-05-22T13:26:48Z</time>
      </trkpt>
      <trkpt lat="45.63711" lon="5.64161">
        <ele>205.94</ele>
        <time>2015-05-22T13:26:51Z</time>
      </trkpt>
      <trkpt lat="45.63712" lon="5.64164">
        <ele>205.91</ele>
        <time>2015-05-22T13:26:52Z</time>
      </trkpt>
      <trkpt lat="45.63715" lon="5.64167">
        <ele>205.9</ele>
        <time>2015-05-22T13:26:53Z</time>
      </trkpt>
      <trkpt lat="45.6373" lon="5.64201">
        <ele>206.66</ele>
        <time>2015-05-22T13:27:04Z</time>
      </trkpt>
      <trkpt lat="45.63735" lon="5.64206">
        <ele>206.67</ele>
        <time>2015-05-22T13:27:17Z</time>
      </trkpt>
      <trkpt lat="45.63736" lon="5.6421">
        <ele>206.2</ele>
        <time>2015-05-22T13:27:48Z</time>
      </trkpt>
      <trkpt lat="45.63736" lon="5.64209">
        <ele>205.94</ele>
        <time>2015-05-22T13:28:00Z</time>
      </trkpt>
      <trkpt lat="45.63731" lon="5.64194">
        <ele>206.1</ele>
        <time>2015-05-22T13:52:12Z</time>
      </trkpt>
      <trkpt lat="45.63736" lon="5.64195">
        <ele>201.85</ele>
        <time>2015-05-22T13:52:13Z</time>
      </trkpt>
      <trkpt lat="45.6375" lon="5.64203">
        <ele>201.92</ele>
        <time>2015-05-22T13:52:24Z</time>
      </trkpt>
      <trkpt lat="45.6375" lon="5.64204">
        <ele>202</ele>
        <time>2015-05-22T13:52:25Z</time>
      </trkpt>
      <trkpt lat="45.63753" lon="5.64218">
        <ele>202.28</ele>
        <time>2015-05-22T13:52:30Z</time>
      </trkpt>
      <trkpt lat="45.63763" lon="5.64205">
        <ele>202.67</ele>
        <time>2015-05-22T13:52:37Z</time>
      </trkpt>
      <trkpt lat="45.63772" lon="5.64154">
        <ele>205.05</ele>
        <time>2015-05-22T13:52:50Z</time>
      </trkpt>
      <trkpt lat="45.63777" lon="5.6415">
        <ele>205.2</ele>
        <time>2015-05-22T13:52:52Z</time>
      </trkpt>
      <trkpt lat="45.6378" lon="5.64151">
        <ele>205.26</ele>
        <time>2015-05-22T13:52:53Z</time>
      </trkpt>
      <trkpt lat="45.63784" lon="5.64153">
        <ele>205.3</ele>
        <time>2015-05-22T13:52:54Z</time>
      </trkpt>
      <trkpt lat="45.6381" lon="5.6417">
        <ele>206.43</ele>
        <time>2015-05-22T13:53:01Z</time>
      </trkpt>
      <trkpt lat="45.63813" lon="5.64172">
        <ele>206.55</ele>
        <time>2015-05-22T13:53:02Z</time>
      </trkpt>
      <trkpt lat="45.63853" lon="5.64198">
        <ele>207.25</ele>
        <time>2015-05-22T13:53:17Z</time>
      </trkpt>
      <trkpt lat="45.63852" lon="5.64195">
        <ele>207.34</ele>
        <time>2015-05-22T13:53:19Z</time>
      </trkpt>
      <trkpt lat="45.63853" lon="5.64191">
        <ele>207.41</ele>
        <time>2015-05-22T13:53:21Z</time>
      </trkpt>
      <trkpt lat="45.63854" lon="5.64189">
        <ele>207.43</ele>
        <time>2015-05-22T13:53:22Z</time>
      </trkpt>
      <trkpt lat="45.63855" lon="5.64188">
        <ele>207.45</ele>
        <time>2015-05-22T13:53:23Z</time>
      </trkpt>
      <trkpt lat="45.63857" lon="5.64188">
        <ele>207.52</ele>
        <time>2015-05-22T13:53:24Z</time>
      </trkpt>
      <trkpt lat="45.63859" lon="5.64189">
        <ele>207.57</ele>
        <time>2015-05-22T13:53:25Z</time>
      </trkpt>
      <trkpt lat="45.63862" lon="5.6419">
        <ele>207.63</ele>
        <time>2015-05-22T13:53:26Z</time>
      </trkpt>
      <trkpt lat="45.6387" lon="5.64194">
        <ele>207.71</ele>
        <time>2015-05-22T13:53:28Z</time>
      </trkpt>
      <trkpt lat="45.63908" lon="5.64204">
        <ele>206.91</ele>
        <time>2015-05-22T13:53:35Z</time>
      </trkpt>
      <trkpt lat="45.63911" lon="5.64209">
        <ele>206.64</ele>
        <time>2015-05-22T13:53:36Z</time>
      </trkpt>
      <trkpt lat="45.63912" lon="5.64214">
        <ele>206.38</ele>
        <time>2015-05-22T13:53:37Z</time>
      </trkpt>
      <trkpt lat="45.63912" lon="5.64218">
        <ele>206.18</ele>
        <time>2015-05-22T13:53:38Z</time>
      </trkpt>
      <trkpt lat="45.63911" lon="5.64222">
        <ele>205.98</ele>
        <time>2015-05-22T13:53:39Z</time>
      </trkpt>
      <trkpt lat="45.63911" lon="5.64226">
        <ele>205.78</ele>
        <time>2015-05-22T13:53:40Z</time>
      </trkpt>
      <trkpt lat="45.63901" lon="5.64255">
        <ele>203.47</ele>
        <time>2015-05-22T13:53:51Z</time>
      </trkpt>
      <trkpt lat="45.63901" lon="5.64252">
        <ele>202.07</ele>
        <time>2015-05-22T13:54:09Z</time>
      </trkpt>
      <trkpt lat="45.63911" lon="5.64216">
        <ele>202.48</ele>
        <time>2015-05-22T13:54:17Z</time>
      </trkpt>
      <trkpt lat="45.63909" lon="5.6421">
        <ele>202.6</ele>
        <time>2015-05-22T13:54:18Z</time>
      </trkpt>
      <trkpt lat="45.63907" lon="5.64205">
        <ele>202.71</ele>
        <time>2015-05-22T13:54:19Z</time>
      </trkpt>
      <trkpt lat="45.63902" lon="5.64202">
        <ele>202.82</ele>
        <time>2015-05-22T13:54:20Z</time>
      </trkpt>
      <trkpt lat="45.63897" lon="5.642">
        <ele>202.91</ele>
        <time>2015-05-22T13:54:21Z</time>
      </trkpt>
      <trkpt lat="45.63892" lon="5.64199">
        <ele>203.02</ele>
        <time>2015-05-22T13:54:22Z</time>
      </trkpt>
      <trkpt lat="45.63856" lon="5.64187">
        <ele>206.02</ele>
        <time>2015-05-22T13:54:34Z</time>
      </trkpt>
      <trkpt lat="45.63854" lon="5.64188">
        <ele>206.55</ele>
        <time>2015-05-22T13:54:35Z</time>
      </trkpt>
      <trkpt lat="45.63853" lon="5.64191">
        <ele>206.8</ele>
        <time>2015-05-22T13:54:36Z</time>
      </trkpt>
      <trkpt lat="45.63854" lon="5.64195">
        <ele>207.02</ele>
        <time>2015-05-22T13:54:37Z</time>
      </trkpt>
      <trkpt lat="45.63854" lon="5.64197">
        <ele>207.2</ele>
        <time>2015-05-22T13:54:38Z</time>
      </trkpt>
      <trkpt lat="45.63856" lon="5.642">
        <ele>207.35</ele>
        <time>2015-05-22T13:54:39Z</time>
      </trkpt>
      <trkpt lat="45.63858" lon="5.64202">
        <ele>207.45</ele>
        <time>2015-05-22T13:54:40Z</time>
      </trkpt>
      <trkpt lat="45.6386" lon="5.64204">
        <ele>207.56</ele>
        <time>2015-05-22T13:54:41Z</time>
      </trkpt>
      <trkpt lat="45.63862" lon="5.64206">
        <ele>207.64</ele>
        <time>2015-05-22T13:54:42Z</time>
      </trkpt>
      <trkpt lat="45.63864" lon="5.64208">
        <ele>207.73</ele>
        <time>2015-05-22T13:54:43Z</time>
      </trkpt>
      <trkpt lat="45.63867" lon="5.64209">
        <ele>207.89</ele>
        <time>2015-05-22T13:54:44Z</time>
      </trkpt>
      <trkpt lat="45.63869" lon="5.6421">
        <ele>208.12</ele>
        <time>2015-05-22T13:54:45Z</time>
      </trkpt>
      <trkpt lat="45.63872" lon="5.64212">
        <ele>208.33</ele>
        <time>2015-05-22T13:54:46Z</time>
      </trkpt>
      <trkpt lat="45.63874" lon="5.64214">
        <ele>208.52</ele>
        <time>2015-05-22T13:54:47Z</time>
      </trkpt>
      <trkpt lat="45.63919" lon="5.64244">
        <ele>211.22</ele>
        <time>2015-05-22T13:55:02Z</time>
      </trkpt>
      <trkpt lat="45.63975" lon="5.64283">
        <ele>212.83</ele>
        <time>2015-05-22T13:55:17Z</time>
      </trkpt>
      <trkpt lat="45.64021" lon="5.64315">
        <ele>212.24</ele>
        <time>2015-05-22T13:55:26Z</time>
      </trkpt>
      <trkpt lat="45.64026" lon="5.64321">
        <ele>211.75</ele>
        <time>2015-05-22T13:55:27Z</time>
      </trkpt>
      <trkpt lat="45.64032" lon="5.64327">
        <ele>211.46</ele>
        <time>2015-05-22T13:55:28Z</time>
      </trkpt>
      <trkpt lat="45.64037" lon="5.64335">
        <ele>211.18</ele>
        <time>2015-05-22T13:55:29Z</time>
      </trkpt>
      <trkpt lat="45.64042" lon="5.64344">
        <ele>210.88</ele>
        <time>2015-05-22T13:55:30Z</time>
      </trkpt>
      <trkpt lat="45.64046" lon="5.64354">
        <ele>210.54</ele>
        <time>2015-05-22T13:55:31Z</time>
      </trkpt>
      <trkpt lat="45.64049" lon="5.64365">
        <ele>210.17</ele>
        <time>2015-05-22T13:55:32Z</time>
      </trkpt>
      <trkpt lat="45.64051" lon="5.64376">
        <ele>209.71</ele>
        <time>2015-05-22T13:55:33Z</time>
      </trkpt>
      <trkpt lat="45.64052" lon="5.64388">
        <ele>209.18</ele>
        <time>2015-05-22T13:55:34Z</time>
      </trkpt>
      <trkpt lat="45.64052" lon="5.644">
        <ele>208.66</ele>
        <time>2015-05-22T13:55:35Z</time>
      </trkpt>
      <trkpt lat="45.64051" lon="5.64411">
        <ele>208.18</ele>
        <time>2015-05-22T13:55:36Z</time>
      </trkpt>
      <trkpt lat="45.64049" lon="5.64422">
        <ele>207.79</ele>
        <time>2015-05-22T13:55:37Z</time>
      </trkpt>
      <trkpt lat="45.64046" lon="5.64432">
        <ele>207.46</ele>
        <time>2015-05-22T13:55:38Z</time>
      </trkpt>
      <trkpt lat="45.64043" lon="5.64442">
        <ele>207.2</ele>
        <time>2015-05-22T13:55:39Z</time>
      </trkpt>
      <trkpt lat="45.64014" lon="5.6454">
        <ele>206.35</ele>
        <time>2015-05-22T13:55:52Z</time>
      </trkpt>
      <trkpt lat="45.64005" lon="5.64609">
        <ele>207.64</ele>
        <time>2015-05-22T13:56:05Z</time>
      </trkpt>
      <trkpt lat="45.64004" lon="5.64635">
        <ele>207.43</ele>
        <time>2015-05-22T13:56:09Z</time>
      </trkpt>
      <trkpt lat="45.64002" lon="5.64713">
        <ele>206.8</ele>
        <time>2015-05-22T13:56:21Z</time>
      </trkpt>
      <trkpt lat="45.64005" lon="5.64791">
        <ele>208.07</ele>
        <time>2015-05-22T13:56:36Z</time>
      </trkpt>
      <trkpt lat="45.64003" lon="5.64792">
        <ele>207.92</ele>
        <time>2015-05-22T13:56:37Z</time>
      </trkpt>
      <trkpt lat="45.63996" lon="5.64795">
        <ele>207.26</ele>
        <time>2015-05-22T13:56:39Z</time>
      </trkpt>
      <trkpt lat="45.63991" lon="5.64793">
        <ele>206.75</ele>
        <time>2015-05-22T13:56:40Z</time>
      </trkpt>
      <trkpt lat="45.63988" lon="5.64789">
        <ele>206.17</ele>
        <time>2015-05-22T13:56:41Z</time>
      </trkpt>
      <trkpt lat="45.63986" lon="5.64783">
        <ele>205.62</ele>
        <time>2015-05-22T13:56:42Z</time>
      </trkpt>
      <trkpt lat="45.63985" lon="5.64776">
        <ele>205.19</ele>
        <time>2015-05-22T13:56:43Z</time>
      </trkpt>
      <trkpt lat="45.63985" lon="5.6477">
        <ele>204.82</ele>
        <time>2015-05-22T13:56:44Z</time>
      </trkpt>
      <trkpt lat="45.63985" lon="5.64764">
        <ele>204.53</ele>
        <time>2015-05-22T13:56:45Z</time>
      </trkpt>
      <trkpt lat="45.63985" lon="5.64757">
        <ele>204.33</ele>
        <time>2015-05-22T13:56:46Z</time>
      </trkpt>
      <trkpt lat="45.63986" lon="5.64745">
        <ele>204.07</ele>
        <time>2015-05-22T13:56:48Z</time>
      </trkpt>
      <trkpt lat="45.63985" lon="5.64739">
        <ele>203.99</ele>
        <time>2015-05-22T13:56:49Z</time>
      </trkpt>
      <trkpt lat="45.63985" lon="5.64733">
        <ele>203.92</ele>
        <time>2015-05-22T13:56:50Z</time>
      </trkpt>
      <trkpt lat="45.63985" lon="5.64727">
        <ele>203.88</ele>
        <time>2015-05-22T13:56:51Z</time>
      </trkpt>
      <trkpt lat="45.63986" lon="5.64721">
        <ele>203.83</ele>
        <time>2015-05-22T13:56:52Z</time>
      </trkpt>
      <trkpt lat="45.63986" lon="5.64715">
        <ele>203.8</ele>
        <time>2015-05-22T13:56:53Z</time>
      </trkpt>
      <trkpt lat="45.63987" lon="5.6471">
        <ele>203.77</ele>
        <time>2015-05-22T13:56:54Z</time>
      </trkpt>
      <trkpt lat="45.63987" lon="5.64703">
        <ele>203.74</ele>
        <time>2015-05-22T13:56:55Z</time>
      </trkpt>
      <trkpt lat="45.63988" lon="5.64697">
        <ele>203.72</ele>
        <time>2015-05-22T13:56:56Z</time>
      </trkpt>
      <trkpt lat="45.63987" lon="5.64653">
        <ele>203.81</ele>
        <time>2015-05-22T13:57:03Z</time>
      </trkpt>
      <trkpt lat="45.63987" lon="5.64646">
        <ele>203.81</ele>
        <time>2015-05-22T13:57:04Z</time>
      </trkpt>
      <trkpt lat="45.63987" lon="5.64634">
        <ele>203.75</ele>
        <time>2015-05-22T13:57:06Z</time>
      </trkpt>
      <trkpt lat="45.63988" lon="5.64567">
        <ele>203.48</ele>
        <time>2015-05-22T13:57:16Z</time>
      </trkpt>
      <trkpt lat="45.63989" lon="5.6456">
        <ele>203.5</ele>
        <time>2015-05-22T13:57:17Z</time>
      </trkpt>
      <trkpt lat="45.6399" lon="5.64553">
        <ele>203.51</ele>
        <time>2015-05-22T13:57:18Z</time>
      </trkpt>
      <trkpt lat="45.63998" lon="5.64504">
        <ele>203.51</ele>
        <time>2015-05-22T13:57:25Z</time>
      </trkpt>
      <trkpt lat="45.64" lon="5.64496">
        <ele>203.5</ele>
        <time>2015-05-22T13:57:26Z</time>
      </trkpt>
      <trkpt lat="45.64027" lon="5.64376">
        <ele>203.11</ele>
        <time>2015-05-22T13:57:42Z</time>
      </trkpt>
      <trkpt lat="45.64027" lon="5.64367">
        <ele>202.89</ele>
        <time>2015-05-22T13:57:43Z</time>
      </trkpt>
      <trkpt lat="45.64026" lon="5.64359">
        <ele>202.64</ele>
        <time>2015-05-22T13:57:44Z</time>
      </trkpt>
      <trkpt lat="45.64025" lon="5.64352">
        <ele>202.42</ele>
        <time>2015-05-22T13:57:45Z</time>
      </trkpt>
      <trkpt lat="45.64022" lon="5.64345">
        <ele>202.25</ele>
        <time>2015-05-22T13:57:46Z</time>
      </trkpt>
      <trkpt lat="45.64018" lon="5.64339">
        <ele>202.09</ele>
        <time>2015-05-22T13:57:47Z</time>
      </trkpt>
      <trkpt lat="45.64014" lon="5.64334">
        <ele>201.94</ele>
        <time>2015-05-22T13:57:48Z</time>
      </trkpt>
      <trkpt lat="45.64009" lon="5.64331">
        <ele>201.83</ele>
        <time>2015-05-22T13:57:49Z</time>
      </trkpt>
      <trkpt lat="45.64004" lon="5.64328">
        <ele>201.75</ele>
        <time>2015-05-22T13:57:50Z</time>
      </trkpt>
      <trkpt lat="45.63994" lon="5.64321">
        <ele>201.67</ele>
        <time>2015-05-22T13:57:52Z</time>
      </trkpt>
      <trkpt lat="45.6399" lon="5.64315">
        <ele>201.67</ele>
        <time>2015-05-22T13:57:53Z</time>
      </trkpt>
      <trkpt lat="45.63988" lon="5.64308">
        <ele>201.7</ele>
        <time>2015-05-22T13:57:54Z</time>
      </trkpt>
      <trkpt lat="45.63988" lon="5.64301">
        <ele>201.76</ele>
        <time>2015-05-22T13:57:55Z</time>
      </trkpt>
      <trkpt lat="45.63989" lon="5.64294">
        <ele>201.88</ele>
        <time>2015-05-22T13:57:56Z</time>
      </trkpt>
      <trkpt lat="45.63991" lon="5.64287">
        <ele>202.01</ele>
        <time>2015-05-22T13:57:57Z</time>
      </trkpt>
      <trkpt lat="45.63994" lon="5.64282">
        <ele>202.15</ele>
        <time>2015-05-22T13:57:58Z</time>
      </trkpt>
      <trkpt lat="45.63998" lon="5.64277">
        <ele>202.29</ele>
        <time>2015-05-22T13:57:59Z</time>
      </trkpt>
      <trkpt lat="45.64003" lon="5.64274">
        <ele>202.43</ele>
        <time>2015-05-22T13:58:00Z</time>
      </trkpt>
      <trkpt lat="45.64008" lon="5.64272">
        <ele>202.55</ele>
        <time>2015-05-22T13:58:01Z</time>
      </trkpt>
      <trkpt lat="45.64014" lon="5.64274">
        <ele>202.65</ele>
        <time>2015-05-22T13:58:02Z</time>
      </trkpt>
      <trkpt lat="45.64018" lon="5.64277">
        <ele>202.77</ele>
        <time>2015-05-22T13:58:03Z</time>
      </trkpt>
      <trkpt lat="45.64022" lon="5.64281">
        <ele>202.88</ele>
        <time>2015-05-22T13:58:04Z</time>
      </trkpt>
      <trkpt lat="45.64031" lon="5.64287">
        <ele>203.07</ele>
        <time>2015-05-22T13:58:06Z</time>
      </trkpt>
      <trkpt lat="45.64035" lon="5.64288">
        <ele>203.14</ele>
        <time>2015-05-22T13:58:07Z</time>
      </trkpt>
      <trkpt lat="45.6404" lon="5.64287">
        <ele>203.22</ele>
        <time>2015-05-22T13:58:08Z</time>
      </trkpt>
      <trkpt lat="45.64043" lon="5.64284">
        <ele>203.28</ele>
        <time>2015-05-22T13:58:09Z</time>
      </trkpt>
      <trkpt lat="45.64046" lon="5.64279">
        <ele>203.34</ele>
        <time>2015-05-22T13:58:10Z</time>
      </trkpt>
      <trkpt lat="45.64049" lon="5.64274">
        <ele>203.38</ele>
        <time>2015-05-22T13:58:11Z</time>
      </trkpt>
      <trkpt lat="45.64051" lon="5.64268">
        <ele>203.39</ele>
        <time>2015-05-22T13:58:12Z</time>
      </trkpt>
      <trkpt lat="45.64053" lon="5.64262">
        <ele>203.39</ele>
        <time>2015-05-22T13:58:13Z</time>
      </trkpt>
      <trkpt lat="45.64055" lon="5.64256">
        <ele>203.39</ele>
        <time>2015-05-22T13:58:14Z</time>
      </trkpt>
      <trkpt lat="45.64056" lon="5.64249">
        <ele>203.37</ele>
        <time>2015-05-22T13:58:15Z</time>
      </trkpt>
      <trkpt lat="45.64057" lon="5.64243">
        <ele>203.34</ele>
        <time>2015-05-22T13:58:16Z</time>
      </trkpt>
      <trkpt lat="45.64057" lon="5.64236">
        <ele>203.32</ele>
        <time>2015-05-22T13:58:17Z</time>
      </trkpt>
      <trkpt lat="45.64056" lon="5.64229">
        <ele>203.29</ele>
        <time>2015-05-22T13:58:18Z</time>
      </trkpt>
      <trkpt lat="45.64055" lon="5.64222">
        <ele>203.24</ele>
        <time>2015-05-22T13:58:19Z</time>
      </trkpt>
      <trkpt lat="45.64054" lon="5.64214">
        <ele>203.23</ele>
        <time>2015-05-22T13:58:20Z</time>
      </trkpt>
      <trkpt lat="45.64053" lon="5.64207">
        <ele>203.21</ele>
        <time>2015-05-22T13:58:21Z</time>
      </trkpt>
      <trkpt lat="45.64053" lon="5.64201">
        <ele>203.16</ele>
        <time>2015-05-22T13:58:22Z</time>
      </trkpt>
      <trkpt lat="45.64055" lon="5.64195">
        <ele>203.12</ele>
        <time>2015-05-22T13:58:23Z</time>
      </trkpt>
      <trkpt lat="45.64058" lon="5.6419">
        <ele>203.11</ele>
        <time>2015-05-22T13:58:24Z</time>
      </trkpt>
      <trkpt lat="45.64061" lon="5.64185">
        <ele>203.13</ele>
        <time>2015-05-22T13:58:25Z</time>
      </trkpt>
      <trkpt lat="45.64067" lon="5.64176">
        <ele>203.18</ele>
        <time>2015-05-22T13:58:27Z</time>
      </trkpt>
      <trkpt lat="45.6407" lon="5.6417">
        <ele>203.21</ele>
        <time>2015-05-22T13:58:28Z</time>
      </trkpt>
      <trkpt lat="45.64072" lon="5.64164">
        <ele>203.25</ele>
        <time>2015-05-22T13:58:29Z</time>
      </trkpt>
      <trkpt lat="45.64074" lon="5.64158">
        <ele>203.28</ele>
        <time>2015-05-22T13:58:30Z</time>
      </trkpt>
      <trkpt lat="45.64076" lon="5.64152">
        <ele>203.31</ele>
        <time>2015-05-22T13:58:31Z</time>
      </trkpt>
      <trkpt lat="45.64084" lon="5.64048">
        <ele>203.67</ele>
        <time>2015-05-22T13:58:46Z</time>
      </trkpt>
      <trkpt lat="45.64086" lon="5.63924">
        <ele>203.75</ele>
        <time>2015-05-22T13:59:03Z</time>
      </trkpt>
      <trkpt lat="45.64085" lon="5.63895">
        <ele>203.95</ele>
        <time>2015-05-22T13:59:07Z</time>
      </trkpt>
      <trkpt lat="45.64084" lon="5.63887">
        <ele>204</ele>
        <time>2015-05-22T13:59:08Z</time>
      </trkpt>
      <trkpt lat="45.64081" lon="5.63832">
        <ele>204.05</ele>
        <time>2015-05-22T13:59:15Z</time>
      </trkpt>
      <trkpt lat="45.64074" lon="5.63689">
        <ele>203.84</ele>
        <time>2015-05-22T13:59:32Z</time>
      </trkpt>
      <trkpt lat="45.64081" lon="5.63623">
        <ele>203.67</ele>
        <time>2015-05-22T13:59:40Z</time>
      </trkpt>
      <trkpt lat="45.64081" lon="5.63614">
        <ele>203.68</ele>
        <time>2015-05-22T13:59:41Z</time>
      </trkpt>
      <trkpt lat="45.64079" lon="5.63597">
        <ele>203.6</ele>
        <time>2015-05-22T13:59:43Z</time>
      </trkpt>
      <trkpt lat="45.64056" lon="5.63493">
        <ele>203.1</ele>
        <time>2015-05-22T13:59:55Z</time>
      </trkpt>
      <trkpt lat="45.64055" lon="5.63484">
        <ele>203.11</ele>
        <time>2015-05-22T13:59:56Z</time>
      </trkpt>
      <trkpt lat="45.64049" lon="5.6338">
        <ele>203.12</ele>
        <time>2015-05-22T14:00:08Z</time>
      </trkpt>
      <trkpt lat="45.6405" lon="5.63372">
        <ele>203.24</ele>
        <time>2015-05-22T14:00:09Z</time>
      </trkpt>
      <trkpt lat="45.6405" lon="5.63364">
        <ele>203.36</ele>
        <time>2015-05-22T14:00:10Z</time>
      </trkpt>
      <trkpt lat="45.64052" lon="5.63356">
        <ele>203.46</ele>
        <time>2015-05-22T14:00:11Z</time>
      </trkpt>
      <trkpt lat="45.64053" lon="5.63348">
        <ele>203.55</ele>
        <time>2015-05-22T14:00:12Z</time>
      </trkpt>
      <trkpt lat="45.64057" lon="5.63328">
        <ele>203.85</ele>
        <time>2015-05-22T14:00:15Z</time>
      </trkpt>
      <trkpt lat="45.64058" lon="5.63323">
        <ele>203.95</ele>
        <time>2015-05-22T14:00:16Z</time>
      </trkpt>
      <trkpt lat="45.6406" lon="5.6332">
        <ele>204.06</ele>
        <time>2015-05-22T14:00:17Z</time>
      </trkpt>
      <trkpt lat="45.64063" lon="5.63316">
        <ele>204.14</ele>
        <time>2015-05-22T14:00:18Z</time>
      </trkpt>
      <trkpt lat="45.64065" lon="5.63312">
        <ele>204.22</ele>
        <time>2015-05-22T14:00:19Z</time>
      </trkpt>
      <trkpt lat="45.64067" lon="5.63307">
        <ele>204.28</ele>
        <time>2015-05-22T14:00:20Z</time>
      </trkpt>
      <trkpt lat="45.64069" lon="5.63301">
        <ele>204.4</ele>
        <time>2015-05-22T14:00:21Z</time>
      </trkpt>
      <trkpt lat="45.64069" lon="5.63295">
        <ele>204.47</ele>
        <time>2015-05-22T14:00:22Z</time>
      </trkpt>
      <trkpt lat="45.6407" lon="5.6329">
        <ele>204.52</ele>
        <time>2015-05-22T14:00:23Z</time>
      </trkpt>
      <trkpt lat="45.64073" lon="5.63222">
        <ele>205.06</ele>
        <time>2015-05-22T14:00:36Z</time>
      </trkpt>
      <trkpt lat="45.64074" lon="5.63173">
        <ele>206.97</ele>
        <time>2015-05-22T14:00:49Z</time>
      </trkpt>
      <trkpt lat="45.64081" lon="5.63124">
        <ele>208.67</ele>
        <time>2015-05-22T14:01:01Z</time>
      </trkpt>
      <trkpt lat="45.64092" lon="5.63083">
        <ele>210.36</ele>
        <time>2015-05-22T14:01:12Z</time>
      </trkpt>
      <trkpt lat="45.64106" lon="5.63023">
        <ele>211.02</ele>
        <time>2015-05-22T14:01:24Z</time>
      </trkpt>
      <trkpt lat="45.64108" lon="5.62997">
        <ele>210.81</ele>
        <time>2015-05-22T14:01:28Z</time>
      </trkpt>
      <trkpt lat="45.64108" lon="5.6299">
        <ele>210.78</ele>
        <time>2015-05-22T14:01:29Z</time>
      </trkpt>
      <trkpt lat="45.64109" lon="5.62944">
        <ele>210.24</ele>
        <time>2015-05-22T14:01:35Z</time>
      </trkpt>
      <trkpt lat="45.64118" lon="5.62837">
        <ele>208.04</ele>
        <time>2015-05-22T14:01:47Z</time>
      </trkpt>
      <trkpt lat="45.64122" lon="5.62808">
        <ele>207.56</ele>
        <time>2015-05-22T14:01:51Z</time>
      </trkpt>
      <trkpt lat="45.64126" lon="5.62788">
        <ele>207.56</ele>
        <time>2015-05-22T14:01:54Z</time>
      </trkpt>
      <trkpt lat="45.64142" lon="5.6273">
        <ele>209.39</ele>
        <time>2015-05-22T14:02:05Z</time>
      </trkpt>
      <trkpt lat="45.64155" lon="5.62668">
        <ele>211.22</ele>
        <time>2015-05-22T14:02:18Z</time>
      </trkpt>
      <trkpt lat="45.64146" lon="5.62604">
        <ele>211.91</ele>
        <time>2015-05-22T14:02:31Z</time>
      </trkpt>
      <trkpt lat="45.64136" lon="5.6257">
        <ele>212.77</ele>
        <time>2015-05-22T14:02:42Z</time>
      </trkpt>
      <trkpt lat="45.64107" lon="5.6254">
        <ele>213.01</ele>
        <time>2015-05-22T14:02:53Z</time>
      </trkpt>
      <trkpt lat="45.64103" lon="5.62536">
        <ele>213</ele>
        <time>2015-05-22T14:02:54Z</time>
      </trkpt>
      <trkpt lat="45.64078" lon="5.62504">
        <ele>213.13</ele>
        <time>2015-05-22T14:03:02Z</time>
      </trkpt>
      <trkpt lat="45.6406" lon="5.62478">
        <ele>212.8</ele>
        <time>2015-05-22T14:03:07Z</time>
      </trkpt>
      <trkpt lat="45.64012" lon="5.62387">
        <ele>212.3</ele>
        <time>2015-05-22T14:03:21Z</time>
      </trkpt>
      <trkpt lat="45.63977" lon="5.62346">
        <ele>212.57</ele>
        <time>2015-05-22T14:03:29Z</time>
      </trkpt>
      <trkpt lat="45.63973" lon="5.62343">
        <ele>212.59</ele>
        <time>2015-05-22T14:03:30Z</time>
      </trkpt>
      <trkpt lat="45.63885" lon="5.62312">
        <ele>212.81</ele>
        <time>2015-05-22T14:03:45Z</time>
      </trkpt>
      <trkpt lat="45.63752" lon="5.62271">
        <ele>212.84</ele>
        <time>2015-05-22T14:04:06Z</time>
      </trkpt>
      <trkpt lat="45.63673" lon="5.62243">
        <ele>212.51</ele>
        <time>2015-05-22T14:04:19Z</time>
      </trkpt>
      <trkpt lat="45.6367" lon="5.62238">
        <ele>212.45</ele>
        <time>2015-05-22T14:04:20Z</time>
      </trkpt>
      <trkpt lat="45.63669" lon="5.62233">
        <ele>212.39</ele>
        <time>2015-05-22T14:04:21Z</time>
      </trkpt>
      <trkpt lat="45.63669" lon="5.62226">
        <ele>212.31</ele>
        <time>2015-05-22T14:04:22Z</time>
      </trkpt>
      <trkpt lat="45.63671" lon="5.6222">
        <ele>212.22</ele>
        <time>2015-05-22T14:04:23Z</time>
      </trkpt>
      <trkpt lat="45.63675" lon="5.62215">
        <ele>212.14</ele>
        <time>2015-05-22T14:04:24Z</time>
      </trkpt>
      <trkpt lat="45.63679" lon="5.62212">
        <ele>212.04</ele>
        <time>2015-05-22T14:04:25Z</time>
      </trkpt>
      <trkpt lat="45.63684" lon="5.62211">
        <ele>211.95</ele>
        <time>2015-05-22T14:04:26Z</time>
      </trkpt>
      <trkpt lat="45.63688" lon="5.62211">
        <ele>211.78</ele>
        <time>2015-05-22T14:04:27Z</time>
      </trkpt>
      <trkpt lat="45.63692" lon="5.62211">
        <ele>211.78</ele>
        <time>2015-05-22T14:04:28Z</time>
      </trkpt>
      <trkpt lat="45.63731" lon="5.6221">
        <ele>210.3</ele>
        <time>2015-05-22T14:04:36Z</time>
      </trkpt>
      <trkpt lat="45.63736" lon="5.62209">
        <ele>210.05</ele>
        <time>2015-05-22T14:04:37Z</time>
      </trkpt>
      <trkpt lat="45.63748" lon="5.62204">
        <ele>209.62</ele>
        <time>2015-05-22T14:04:39Z</time>
      </trkpt>
      <trkpt lat="45.63753" lon="5.62201">
        <ele>209.43</ele>
        <time>2015-05-22T14:04:40Z</time>
      </trkpt>
      <trkpt lat="45.63758" lon="5.62196">
        <ele>209.25</ele>
        <time>2015-05-22T14:04:41Z</time>
      </trkpt>
      <trkpt lat="45.63763" lon="5.6219">
        <ele>209.06</ele>
        <time>2015-05-22T14:04:42Z</time>
      </trkpt>
      <trkpt lat="45.63767" lon="5.62183">
        <ele>208.83</ele>
        <time>2015-05-22T14:04:43Z</time>
      </trkpt>
      <trkpt lat="45.63771" lon="5.62175">
        <ele>208.6</ele>
        <time>2015-05-22T14:04:44Z</time>
      </trkpt>
      <trkpt lat="45.63774" lon="5.62167">
        <ele>208.34</ele>
        <time>2015-05-22T14:04:45Z</time>
      </trkpt>
      <trkpt lat="45.63776" lon="5.62158">
        <ele>208.07</ele>
        <time>2015-05-22T14:04:46Z</time>
      </trkpt>
      <trkpt lat="45.63776" lon="5.62149">
        <ele>207.79</ele>
        <time>2015-05-22T14:04:47Z</time>
      </trkpt>
      <trkpt lat="45.63776" lon="5.6214">
        <ele>207.48</ele>
        <time>2015-05-22T14:04:48Z</time>
      </trkpt>
      <trkpt lat="45.63775" lon="5.62131">
        <ele>207.16</ele>
        <time>2015-05-22T14:04:49Z</time>
      </trkpt>
      <trkpt lat="45.63775" lon="5.62123">
        <ele>206.86</ele>
        <time>2015-05-22T14:04:50Z</time>
      </trkpt>
      <trkpt lat="45.63771" lon="5.61986">
        <ele>205.11</ele>
        <time>2015-05-22T14:05:05Z</time>
      </trkpt>
      <trkpt lat="45.63782" lon="5.61845">
        <ele>205.1</ele>
        <time>2015-05-22T14:05:21Z</time>
      </trkpt>
      <trkpt lat="45.63794" lon="5.61751">
        <ele>205.13</ele>
        <time>2015-05-22T14:05:33Z</time>
      </trkpt>
      <trkpt lat="45.63796" lon="5.61745">
        <ele>205.12</ele>
        <time>2015-05-22T14:05:34Z</time>
      </trkpt>
      <trkpt lat="45.63798" lon="5.6174">
        <ele>205.1</ele>
        <time>2015-05-22T14:05:35Z</time>
      </trkpt>
      <trkpt lat="45.63799" lon="5.61734">
        <ele>205.08</ele>
        <time>2015-05-22T14:05:36Z</time>
      </trkpt>
      <trkpt lat="45.638" lon="5.61728">
        <ele>205.06</ele>
        <time>2015-05-22T14:05:37Z</time>
      </trkpt>
      <trkpt lat="45.638" lon="5.61722">
        <ele>205.05</ele>
        <time>2015-05-22T14:05:38Z</time>
      </trkpt>
      <trkpt lat="45.6381" lon="5.61684">
        <ele>204.93</ele>
        <time>2015-05-22T14:05:45Z</time>
      </trkpt>
      <trkpt lat="45.63811" lon="5.61678">
        <ele>204.93</ele>
        <time>2015-05-22T14:05:46Z</time>
      </trkpt>
      <trkpt lat="45.63843" lon="5.61574">
        <ele>205.55</ele>
        <time>2015-05-22T14:06:00Z</time>
      </trkpt>
      <trkpt lat="45.6389" lon="5.61454">
        <ele>205.66</ele>
        <time>2015-05-22T14:06:15Z</time>
      </trkpt>
      <trkpt lat="45.63957" lon="5.61335">
        <ele>205.71</ele>
        <time>2015-05-22T14:06:30Z</time>
      </trkpt>
      <trkpt lat="45.64039" lon="5.61229">
        <ele>205.4</ele>
        <time>2015-05-22T14:06:46Z</time>
      </trkpt>
      <trkpt lat="45.64137" lon="5.61137">
        <ele>205.65</ele>
        <time>2015-05-22T14:07:03Z</time>
      </trkpt>
      <trkpt lat="45.64232" lon="5.61073">
        <ele>206.12</ele>
        <time>2015-05-22T14:07:18Z</time>
      </trkpt>
      <trkpt lat="45.64317" lon="5.6102">
        <ele>206.61</ele>
        <time>2015-05-22T14:07:32Z</time>
      </trkpt>
      <trkpt lat="45.64423" lon="5.60955">
        <ele>206.47</ele>
        <time>2015-05-22T14:07:49Z</time>
      </trkpt>
      <trkpt lat="45.64522" lon="5.60893">
        <ele>206.68</ele>
        <time>2015-05-22T14:08:05Z</time>
      </trkpt>
      <trkpt lat="45.64622" lon="5.6083">
        <ele>205.85</ele>
        <time>2015-05-22T14:08:22Z</time>
      </trkpt>
      <trkpt lat="45.64716" lon="5.60772">
        <ele>205.85</ele>
        <time>2015-05-22T14:08:38Z</time>
      </trkpt>
      <trkpt lat="45.64812" lon="5.60712">
        <ele>206.52</ele>
        <time>2015-05-22T14:08:54Z</time>
      </trkpt>
      <trkpt lat="45.64929" lon="5.60638">
        <ele>206.53</ele>
        <time>2015-05-22T14:09:13Z</time>
      </trkpt>
      <trkpt lat="45.65035" lon="5.60572">
        <ele>206.33</ele>
        <time>2015-05-22T14:09:30Z</time>
      </trkpt>
      <trkpt lat="45.65051" lon="5.60561">
        <ele>206.09</ele>
        <time>2015-05-22T14:09:33Z</time>
      </trkpt>
      <trkpt lat="45.65056" lon="5.60555">
        <ele>206.04</ele>
        <time>2015-05-22T14:09:34Z</time>
      </trkpt>
      <trkpt lat="45.6506" lon="5.60548">
        <ele>206.01</ele>
        <time>2015-05-22T14:09:35Z</time>
      </trkpt>
      <trkpt lat="45.65064" lon="5.60541">
        <ele>205.99</ele>
        <time>2015-05-22T14:09:36Z</time>
      </trkpt>
      <trkpt lat="45.65069" lon="5.60534">
        <ele>205.97</ele>
        <time>2015-05-22T14:09:37Z</time>
      </trkpt>
      <trkpt lat="45.65074" lon="5.60527">
        <ele>205.96</ele>
        <time>2015-05-22T14:09:38Z</time>
      </trkpt>
      <trkpt lat="45.65155" lon="5.60449">
        <ele>205.28</ele>
        <time>2015-05-22T14:09:52Z</time>
      </trkpt>
      <trkpt lat="45.6527" lon="5.60359">
        <ele>203.72</ele>
        <time>2015-05-22T14:10:10Z</time>
      </trkpt>
      <trkpt lat="45.65351" lon="5.60281">
        <ele>202.32</ele>
        <time>2015-05-22T14:10:23Z</time>
      </trkpt>
      <trkpt lat="45.65367" lon="5.60271">
        <ele>201.87</ele>
        <time>2015-05-22T14:10:26Z</time>
      </trkpt>
      <trkpt lat="45.65371" lon="5.6027">
        <ele>201.7</ele>
        <time>2015-05-22T14:10:27Z</time>
      </trkpt>
      <trkpt lat="45.65374" lon="5.60272">
        <ele>201.5</ele>
        <time>2015-05-22T14:10:28Z</time>
      </trkpt>
      <trkpt lat="45.65376" lon="5.60275">
        <ele>201.29</ele>
        <time>2015-05-22T14:10:29Z</time>
      </trkpt>
      <trkpt lat="45.65377" lon="5.6028">
        <ele>201.06</ele>
        <time>2015-05-22T14:10:30Z</time>
      </trkpt>
      <trkpt lat="45.65379" lon="5.60285">
        <ele>200.84</ele>
        <time>2015-05-22T14:10:31Z</time>
      </trkpt>
      <trkpt lat="45.65402" lon="5.60364">
        <ele>198.93</ele>
        <time>2015-05-22T14:10:42Z</time>
      </trkpt>
      <trkpt lat="45.65436" lon="5.60477">
        <ele>198.45</ele>
        <time>2015-05-22T14:10:58Z</time>
      </trkpt>
      <trkpt lat="45.65467" lon="5.60577">
        <ele>198.48</ele>
        <time>2015-05-22T14:11:15Z</time>
      </trkpt>
      <trkpt lat="45.6547" lon="5.6058">
        <ele>198.4</ele>
        <time>2015-05-22T14:11:16Z</time>
      </trkpt>
      <trkpt lat="45.65474" lon="5.6058">
        <ele>198.33</ele>
        <time>2015-05-22T14:11:17Z</time>
      </trkpt>
      <trkpt lat="45.65477" lon="5.60579">
        <ele>198.26</ele>
        <time>2015-05-22T14:11:18Z</time>
      </trkpt>
      <trkpt lat="45.65481" lon="5.60577">
        <ele>198.22</ele>
        <time>2015-05-22T14:11:19Z</time>
      </trkpt>
      <trkpt lat="45.6551" lon="5.6056">
        <ele>198.3</ele>
        <time>2015-05-22T14:11:26Z</time>
      </trkpt>
      <trkpt lat="45.6557" lon="5.60518">
        <ele>198.92</ele>
        <time>2015-05-22T14:11:38Z</time>
      </trkpt>
      <trkpt lat="45.65616" lon="5.60476">
        <ele>198.49</ele>
        <time>2015-05-22T14:11:47Z</time>
      </trkpt>
      <trkpt lat="45.6562" lon="5.60469">
        <ele>198.38</ele>
        <time>2015-05-22T14:11:48Z</time>
      </trkpt>
      <trkpt lat="45.65623" lon="5.60461">
        <ele>198.26</ele>
        <time>2015-05-22T14:11:49Z</time>
      </trkpt>
      <trkpt lat="45.65628" lon="5.60447">
        <ele>198.06</ele>
        <time>2015-05-22T14:11:51Z</time>
      </trkpt>
      <trkpt lat="45.65632" lon="5.60442">
        <ele>197.96</ele>
        <time>2015-05-22T14:11:52Z</time>
      </trkpt>
      <trkpt lat="45.65636" lon="5.60439">
        <ele>197.85</ele>
        <time>2015-05-22T14:11:53Z</time>
      </trkpt>
      <trkpt lat="45.65644" lon="5.60435">
        <ele>197.6</ele>
        <time>2015-05-22T14:11:55Z</time>
      </trkpt>
      <trkpt lat="45.65648" lon="5.60429">
        <ele>197.44</ele>
        <time>2015-05-22T14:11:56Z</time>
      </trkpt>
      <trkpt lat="45.6565" lon="5.60423">
        <ele>197.26</ele>
        <time>2015-05-22T14:11:57Z</time>
      </trkpt>
      <trkpt lat="45.65696" lon="5.60329">
        <ele>196.1</ele>
        <time>2015-05-22T14:12:10Z</time>
      </trkpt>
      <trkpt lat="45.65768" lon="5.60248">
        <ele>195.71</ele>
        <time>2015-05-22T14:12:24Z</time>
      </trkpt>
      <trkpt lat="45.65843" lon="5.60151">
        <ele>196.12</ele>
        <time>2015-05-22T14:12:40Z</time>
      </trkpt>
      <trkpt lat="45.65909" lon="5.6004">
        <ele>196</ele>
        <time>2015-05-22T14:12:56Z</time>
      </trkpt>
      <trkpt lat="45.65966" lon="5.59906">
        <ele>197.03</ele>
        <time>2015-05-22T14:13:14Z</time>
      </trkpt>
      <trkpt lat="45.65996" lon="5.59804">
        <ele>196.68</ele>
        <time>2015-05-22T14:13:28Z</time>
      </trkpt>
      <trkpt lat="45.66021" lon="5.59684">
        <ele>196.33</ele>
        <time>2015-05-22T14:13:43Z</time>
      </trkpt>
      <trkpt lat="45.66027" lon="5.59634">
        <ele>196.27</ele>
        <time>2015-05-22T14:13:49Z</time>
      </trkpt>
      <trkpt lat="45.66029" lon="5.59625">
        <ele>196.31</ele>
        <time>2015-05-22T14:13:50Z</time>
      </trkpt>
      <trkpt lat="45.6605" lon="5.59518">
        <ele>196.8</ele>
        <time>2015-05-22T14:14:03Z</time>
      </trkpt>
      <trkpt lat="45.66085" lon="5.59399">
        <ele>195.96</ele>
        <time>2015-05-22T14:14:18Z</time>
      </trkpt>
      <trkpt lat="45.66129" lon="5.59296">
        <ele>195.79</ele>
        <time>2015-05-22T14:14:33Z</time>
      </trkpt>
      <trkpt lat="45.66167" lon="5.59233">
        <ele>195.86</ele>
        <time>2015-05-22T14:14:43Z</time>
      </trkpt>
      <trkpt lat="45.66171" lon="5.59227">
        <ele>195.86</ele>
        <time>2015-05-22T14:14:44Z</time>
      </trkpt>
      <trkpt lat="45.66224" lon="5.59155">
        <ele>195.51</ele>
        <time>2015-05-22T14:14:59Z</time>
      </trkpt>
      <trkpt lat="45.66279" lon="5.59097">
        <ele>196.64</ele>
        <time>2015-05-22T14:15:12Z</time>
      </trkpt>
      <trkpt lat="45.66293" lon="5.59086">
        <ele>196.53</ele>
        <time>2015-05-22T14:15:15Z</time>
      </trkpt>
      <trkpt lat="45.66364" lon="5.59033">
        <ele>196.06</ele>
        <time>2015-05-22T14:15:30Z</time>
      </trkpt>
      <trkpt lat="45.66434" lon="5.58992">
        <ele>195.53</ele>
        <time>2015-05-22T14:15:45Z</time>
      </trkpt>
      <trkpt lat="45.66504" lon="5.58947">
        <ele>194.98</ele>
        <time>2015-05-22T14:16:00Z</time>
      </trkpt>
      <trkpt lat="45.66578" lon="5.58883">
        <ele>194.72</ele>
        <time>2015-05-22T14:16:16Z</time>
      </trkpt>
      <trkpt lat="45.66639" lon="5.58818">
        <ele>194.33</ele>
        <time>2015-05-22T14:16:30Z</time>
      </trkpt>
      <trkpt lat="45.66644" lon="5.58813">
        <ele>194.42</ele>
        <time>2015-05-22T14:16:31Z</time>
      </trkpt>
      <trkpt lat="45.66648" lon="5.58808">
        <ele>194.48</ele>
        <time>2015-05-22T14:16:32Z</time>
      </trkpt>
      <trkpt lat="45.66701" lon="5.58737">
        <ele>194.8</ele>
        <time>2015-05-22T14:16:45Z</time>
      </trkpt>
      <trkpt lat="45.66738" lon="5.58685">
        <ele>194.81</ele>
        <time>2015-05-22T14:16:54Z</time>
      </trkpt>
      <trkpt lat="45.66773" lon="5.58617">
        <ele>194.89</ele>
        <time>2015-05-22T14:17:05Z</time>
      </trkpt>
      <trkpt lat="45.66775" lon="5.58611">
        <ele>194.85</ele>
        <time>2015-05-22T14:17:06Z</time>
      </trkpt>
      <trkpt lat="45.66815" lon="5.58504">
        <ele>194.3</ele>
        <time>2015-05-22T14:17:21Z</time>
      </trkpt>
      <trkpt lat="45.66844" lon="5.58413">
        <ele>194.12</ele>
        <time>2015-05-22T14:17:33Z</time>
      </trkpt>
      <trkpt lat="45.66846" lon="5.58406">
        <ele>194.12</ele>
        <time>2015-05-22T14:17:34Z</time>
      </trkpt>
      <trkpt lat="45.66857" lon="5.58363">
        <ele>194.21</ele>
        <time>2015-05-22T14:17:40Z</time>
      </trkpt>
      <trkpt lat="45.66888" lon="5.58286">
        <ele>195.23</ele>
        <time>2015-05-22T14:17:53Z</time>
      </trkpt>
      <trkpt lat="45.66894" lon="5.58275">
        <ele>195.24</ele>
        <time>2015-05-22T14:17:55Z</time>
      </trkpt>
      <trkpt lat="45.66898" lon="5.5827">
        <ele>195.24</ele>
        <time>2015-05-22T14:17:56Z</time>
      </trkpt>
      <trkpt lat="45.66902" lon="5.58265">
        <ele>195.24</ele>
        <time>2015-05-22T14:17:57Z</time>
      </trkpt>
      <trkpt lat="45.66905" lon="5.5826">
        <ele>195.25</ele>
        <time>2015-05-22T14:17:58Z</time>
      </trkpt>
      <trkpt lat="45.66906" lon="5.58254">
        <ele>195.28</ele>
        <time>2015-05-22T14:17:59Z</time>
      </trkpt>
      <trkpt lat="45.66906" lon="5.58248">
        <ele>195.33</ele>
        <time>2015-05-22T14:18:00Z</time>
      </trkpt>
      <trkpt lat="45.66906" lon="5.58242">
        <ele>195.45</ele>
        <time>2015-05-22T14:18:01Z</time>
      </trkpt>
      <trkpt lat="45.66907" lon="5.58203">
        <ele>195.74</ele>
        <time>2015-05-22T14:18:08Z</time>
      </trkpt>
      <trkpt lat="45.66908" lon="5.58197">
        <ele>195.75</ele>
        <time>2015-05-22T14:18:09Z</time>
      </trkpt>
      <trkpt lat="45.6691" lon="5.5819">
        <ele>195.8</ele>
        <time>2015-05-22T14:18:10Z</time>
      </trkpt>
      <trkpt lat="45.6691" lon="5.58183">
        <ele>195.86</ele>
        <time>2015-05-22T14:18:11Z</time>
      </trkpt>
      <trkpt lat="45.66911" lon="5.58175">
        <ele>195.92</ele>
        <time>2015-05-22T14:18:12Z</time>
      </trkpt>
      <trkpt lat="45.66911" lon="5.58166">
        <ele>195.97</ele>
        <time>2015-05-22T14:18:13Z</time>
      </trkpt>
      <trkpt lat="45.66912" lon="5.58157">
        <ele>196</ele>
        <time>2015-05-22T14:18:14Z</time>
      </trkpt>
      <trkpt lat="45.66914" lon="5.58148">
        <ele>196.01</ele>
        <time>2015-05-22T14:18:15Z</time>
      </trkpt>
      <trkpt lat="45.66936" lon="5.58026">
        <ele>195.42</ele>
        <time>2015-05-22T14:18:29Z</time>
      </trkpt>
      <trkpt lat="45.66952" lon="5.57958">
        <ele>195.31</ele>
        <time>2015-05-22T14:18:37Z</time>
      </trkpt>
      <trkpt lat="45.6696" lon="5.57923">
        <ele>195.35</ele>
        <time>2015-05-22T14:18:41Z</time>
      </trkpt>
      <trkpt lat="45.66962" lon="5.57915">
        <ele>195.36</ele>
        <time>2015-05-22T14:18:42Z</time>
      </trkpt>
      <trkpt lat="45.66998" lon="5.57794">
        <ele>195.64</ele>
        <time>2015-05-22T14:18:57Z</time>
      </trkpt>
      <trkpt lat="45.67015" lon="5.57748">
        <ele>195.58</ele>
        <time>2015-05-22T14:19:03Z</time>
      </trkpt>
      <trkpt lat="45.67018" lon="5.57741">
        <ele>195.58</ele>
        <time>2015-05-22T14:19:04Z</time>
      </trkpt>
      <trkpt lat="45.67027" lon="5.57713">
        <ele>195.63</ele>
        <time>2015-05-22T14:19:08Z</time>
      </trkpt>
      <trkpt lat="45.67029" lon="5.57706">
        <ele>195.62</ele>
        <time>2015-05-22T14:19:09Z</time>
      </trkpt>
      <trkpt lat="45.67039" lon="5.57677">
        <ele>195.45</ele>
        <time>2015-05-22T14:19:13Z</time>
      </trkpt>
      <trkpt lat="45.67041" lon="5.57671">
        <ele>195.42</ele>
        <time>2015-05-22T14:19:14Z</time>
      </trkpt>
      <trkpt lat="45.67044" lon="5.57665">
        <ele>195.4</ele>
        <time>2015-05-22T14:19:15Z</time>
      </trkpt>
      <trkpt lat="45.67046" lon="5.57659">
        <ele>195.38</ele>
        <time>2015-05-22T14:19:16Z</time>
      </trkpt>
      <trkpt lat="45.67048" lon="5.57653">
        <ele>195.36</ele>
        <time>2015-05-22T14:19:17Z</time>
      </trkpt>
      <trkpt lat="45.67055" lon="5.57634">
        <ele>195.35</ele>
        <time>2015-05-22T14:19:20Z</time>
      </trkpt>
      <trkpt lat="45.67065" lon="5.57603">
        <ele>195.44</ele>
        <time>2015-05-22T14:19:25Z</time>
      </trkpt>
      <trkpt lat="45.67069" lon="5.57588">
        <ele>195.41</ele>
        <time>2015-05-22T14:19:27Z</time>
      </trkpt>
      <trkpt lat="45.6707" lon="5.5758">
        <ele>195.37</ele>
        <time>2015-05-22T14:19:28Z</time>
      </trkpt>
      <trkpt lat="45.6707" lon="5.57565">
        <ele>195.23</ele>
        <time>2015-05-22T14:19:30Z</time>
      </trkpt>
      <trkpt lat="45.6707" lon="5.57556">
        <ele>195.13</ele>
        <time>2015-05-22T14:19:31Z</time>
      </trkpt>
      <trkpt lat="45.67069" lon="5.57548">
        <ele>195.03</ele>
        <time>2015-05-22T14:19:32Z</time>
      </trkpt>
      <trkpt lat="45.67071" lon="5.5753">
        <ele>194.83</ele>
        <time>2015-05-22T14:19:34Z</time>
      </trkpt>
      <trkpt lat="45.67074" lon="5.57521">
        <ele>194.71</ele>
        <time>2015-05-22T14:19:35Z</time>
      </trkpt>
      <trkpt lat="45.67077" lon="5.57514">
        <ele>194.61</ele>
        <time>2015-05-22T14:19:36Z</time>
      </trkpt>
      <trkpt lat="45.67098" lon="5.57482">
        <ele>194.77</ele>
        <time>2015-05-22T14:19:41Z</time>
      </trkpt>
      <trkpt lat="45.67101" lon="5.57482">
        <ele>194.97</ele>
        <time>2015-05-22T14:19:42Z</time>
      </trkpt>
      <trkpt lat="45.67105" lon="5.57484">
        <ele>195.2</ele>
        <time>2015-05-22T14:19:43Z</time>
      </trkpt>
      <trkpt lat="45.67107" lon="5.57487">
        <ele>195.45</ele>
        <time>2015-05-22T14:19:44Z</time>
      </trkpt>
      <trkpt lat="45.67108" lon="5.57491">
        <ele>195.7</ele>
        <time>2015-05-22T14:19:45Z</time>
      </trkpt>
      <trkpt lat="45.67108" lon="5.57496">
        <ele>195.92</ele>
        <time>2015-05-22T14:19:46Z</time>
      </trkpt>
      <trkpt lat="45.6713" lon="5.57519">
        <ele>198.45</ele>
        <time>2015-05-22T14:19:56Z</time>
      </trkpt>
      <trkpt lat="45.67163" lon="5.57519">
        <ele>201.58</ele>
        <time>2015-05-22T14:20:08Z</time>
      </trkpt>
      <trkpt lat="45.67176" lon="5.57552">
        <ele>204.35</ele>
        <time>2015-05-22T14:20:20Z</time>
      </trkpt>
      <trkpt lat="45.67174" lon="5.57564">
        <ele>205.29</ele>
        <time>2015-05-22T14:20:25Z</time>
      </trkpt>
      <trkpt lat="45.67177" lon="5.57567">
        <ele>205.8</ele>
        <time>2015-05-22T14:20:29Z</time>
      </trkpt>
      <trkpt lat="45.67183" lon="5.57569">
        <ele>206.13</ele>
        <time>2015-05-22T14:20:44Z</time>
      </trkpt>
      <trkpt lat="45.67184" lon="5.5757">
        <ele>206.24</ele>
        <time>2015-05-22T14:20:50Z</time>
      </trkpt>
      <trkpt lat="45.67186" lon="5.57571">
        <ele>206.32</ele>
        <time>2015-05-22T14:20:51Z</time>
      </trkpt>
      <trkpt lat="45.67188" lon="5.57572">
        <ele>206.35</ele>
        <time>2015-05-22T14:20:52Z</time>
      </trkpt>
      <trkpt lat="45.6719" lon="5.57574">
        <ele>206.38</ele>
        <time>2015-05-22T14:20:53Z</time>
      </trkpt>
      <trkpt lat="45.67192" lon="5.57576">
        <ele>206.42</ele>
        <time>2015-05-22T14:20:54Z</time>
      </trkpt>
      <trkpt lat="45.67203" lon="5.57585">
        <ele>206.6</ele>
        <time>2015-05-22T14:21:00Z</time>
      </trkpt>
      <trkpt lat="45.67205" lon="5.57584">
        <ele>206.61</ele>
        <time>2015-05-22T14:21:01Z</time>
      </trkpt>
      <trkpt lat="45.67207" lon="5.57582">
        <ele>206.64</ele>
        <time>2015-05-22T14:21:02Z</time>
      </trkpt>
      <trkpt lat="45.67209" lon="5.5758">
        <ele>206.68</ele>
        <time>2015-05-22T14:21:03Z</time>
      </trkpt>
      <trkpt lat="45.67211" lon="5.57578">
        <ele>206.76</ele>
        <time>2015-05-22T14:21:04Z</time>
      </trkpt>
      <trkpt lat="45.67212" lon="5.57576">
        <ele>206.92</ele>
        <time>2015-05-22T14:21:05Z</time>
      </trkpt>
      <trkpt lat="45.67238" lon="5.57571">
        <ele>208.91</ele>
        <time>2015-05-22T14:21:16Z</time>
      </trkpt>
      <trkpt lat="45.67264" lon="5.57586">
        <ele>209.8</ele>
        <time>2015-05-22T14:21:26Z</time>
      </trkpt>
      <trkpt lat="45.67296" lon="5.57616">
        <ele>210.46</ele>
        <time>2015-05-22T14:21:38Z</time>
      </trkpt>
      <trkpt lat="45.67313" lon="5.57634">
        <ele>209.87</ele>
        <time>2015-05-22T14:21:47Z</time>
      </trkpt>
      <trkpt lat="45.67316" lon="5.57632">
        <ele>209.84</ele>
        <time>2015-05-22T14:21:48Z</time>
      </trkpt>
      <trkpt lat="45.67319" lon="5.5763">
        <ele>209.83</ele>
        <time>2015-05-22T14:21:49Z</time>
      </trkpt>
      <trkpt lat="45.67354" lon="5.57576">
        <ele>210.29</ele>
        <time>2015-05-22T14:22:02Z</time>
      </trkpt>
      <trkpt lat="45.67356" lon="5.5757">
        <ele>210.47</ele>
        <time>2015-05-22T14:22:03Z</time>
      </trkpt>
      <trkpt lat="45.6737" lon="5.5752">
        <ele>211.05</ele>
        <time>2015-05-22T14:22:13Z</time>
      </trkpt>
      <trkpt lat="45.67385" lon="5.57445">
        <ele>212.34</ele>
        <time>2015-05-22T14:22:26Z</time>
      </trkpt>
      <trkpt lat="45.67387" lon="5.57439">
        <ele>212.45</ele>
        <time>2015-05-22T14:22:27Z</time>
      </trkpt>
      <trkpt lat="45.67387" lon="5.57433">
        <ele>212.54</ele>
        <time>2015-05-22T14:22:28Z</time>
      </trkpt>
      <trkpt lat="45.67389" lon="5.5742">
        <ele>212.69</ele>
        <time>2015-05-22T14:22:30Z</time>
      </trkpt>
      <trkpt lat="45.6739" lon="5.57401">
        <ele>212.91</ele>
        <time>2015-05-22T14:22:33Z</time>
      </trkpt>
      <trkpt lat="45.67386" lon="5.57373">
        <ele>213.24</ele>
        <time>2015-05-22T14:22:38Z</time>
      </trkpt>
      <trkpt lat="45.67386" lon="5.57311">
        <ele>214.41</ele>
        <time>2015-05-22T14:22:49Z</time>
      </trkpt>
      <trkpt lat="45.6739" lon="5.57297">
        <ele>214.41</ele>
        <time>2015-05-22T14:22:51Z</time>
      </trkpt>
      <trkpt lat="45.67393" lon="5.57291">
        <ele>214.38</ele>
        <time>2015-05-22T14:22:52Z</time>
      </trkpt>
      <trkpt lat="45.67396" lon="5.57286">
        <ele>214.29</ele>
        <time>2015-05-22T14:22:53Z</time>
      </trkpt>
      <trkpt lat="45.6744" lon="5.57216">
        <ele>212.63</ele>
        <time>2015-05-22T14:23:05Z</time>
      </trkpt>
      <trkpt lat="45.67464" lon="5.57185">
        <ele>211.61</ele>
        <time>2015-05-22T14:23:11Z</time>
      </trkpt>
      <trkpt lat="45.67523" lon="5.5713">
        <ele>208.6</ele>
        <time>2015-05-22T14:23:21Z</time>
      </trkpt>
      <trkpt lat="45.67535" lon="5.57114">
        <ele>207.58</ele>
        <time>2015-05-22T14:23:23Z</time>
      </trkpt>
      <trkpt lat="45.67569" lon="5.57072">
        <ele>204.55</ele>
        <time>2015-05-22T14:23:28Z</time>
      </trkpt>
      <trkpt lat="45.67611" lon="5.57015">
        <ele>201.4</ele>
        <time>2015-05-22T14:23:34Z</time>
      </trkpt>
      <trkpt lat="45.67664" lon="5.56957">
        <ele>198.95</ele>
        <time>2015-05-22T14:23:42Z</time>
      </trkpt>
      <trkpt lat="45.67671" lon="5.56953">
        <ele>198.76</ele>
        <time>2015-05-22T14:23:43Z</time>
      </trkpt>
      <trkpt lat="45.67685" lon="5.56947">
        <ele>198.31</ele>
        <time>2015-05-22T14:23:45Z</time>
      </trkpt>
      <trkpt lat="45.67692" lon="5.56946">
        <ele>198.21</ele>
        <time>2015-05-22T14:23:46Z</time>
      </trkpt>
      <trkpt lat="45.67699" lon="5.56946">
        <ele>198.12</ele>
        <time>2015-05-22T14:23:47Z</time>
      </trkpt>
      <trkpt lat="45.67705" lon="5.56946">
        <ele>198.06</ele>
        <time>2015-05-22T14:23:48Z</time>
      </trkpt>
      <trkpt lat="45.67711" lon="5.56947">
        <ele>198</ele>
        <time>2015-05-22T14:23:49Z</time>
      </trkpt>
      <trkpt lat="45.67717" lon="5.56948">
        <ele>197.96</ele>
        <time>2015-05-22T14:23:50Z</time>
      </trkpt>
      <trkpt lat="45.67784" lon="5.56977">
        <ele>198.04</ele>
        <time>2015-05-22T14:24:01Z</time>
      </trkpt>
      <trkpt lat="45.67826" lon="5.56998">
        <ele>198.33</ele>
        <time>2015-05-22T14:24:08Z</time>
      </trkpt>
      <trkpt lat="45.67873" lon="5.57013">
        <ele>198.41</ele>
        <time>2015-05-22T14:24:15Z</time>
      </trkpt>
      <trkpt lat="45.6788" lon="5.57014">
        <ele>198.37</ele>
        <time>2015-05-22T14:24:16Z</time>
      </trkpt>
      <trkpt lat="45.67888" lon="5.57014">
        <ele>198.35</ele>
        <time>2015-05-22T14:24:17Z</time>
      </trkpt>
      <trkpt lat="45.67901" lon="5.57013">
        <ele>198.31</ele>
        <time>2015-05-22T14:24:19Z</time>
      </trkpt>
      <trkpt lat="45.67919" lon="5.57011">
        <ele>198.4</ele>
        <time>2015-05-22T14:24:22Z</time>
      </trkpt>
      <trkpt lat="45.67973" lon="5.56997">
        <ele>198.37</ele>
        <time>2015-05-22T14:24:32Z</time>
      </trkpt>
      <trkpt lat="45.67994" lon="5.5699">
        <ele>198.54</ele>
        <time>2015-05-22T14:24:36Z</time>
      </trkpt>
      <trkpt lat="45.68" lon="5.56987">
        <ele>198.56</ele>
        <time>2015-05-22T14:24:37Z</time>
      </trkpt>
      <trkpt lat="45.68063" lon="5.56963">
        <ele>198.93</ele>
        <time>2015-05-22T14:24:48Z</time>
      </trkpt>
      <trkpt lat="45.68085" lon="5.56953">
        <ele>199.18</ele>
        <time>2015-05-22T14:24:52Z</time>
      </trkpt>
      <trkpt lat="45.68096" lon="5.56944">
        <ele>199.33</ele>
        <time>2015-05-22T14:24:54Z</time>
      </trkpt>
      <trkpt lat="45.68102" lon="5.56939">
        <ele>199.38</ele>
        <time>2015-05-22T14:24:55Z</time>
      </trkpt>
      <trkpt lat="45.68108" lon="5.56933">
        <ele>199.3</ele>
        <time>2015-05-22T14:24:56Z</time>
      </trkpt>
      <trkpt lat="45.68179" lon="5.56839">
        <ele>197.58</ele>
        <time>2015-05-22T14:25:11Z</time>
      </trkpt>
      <trkpt lat="45.68195" lon="5.56823">
        <ele>197.36</ele>
        <time>2015-05-22T14:25:14Z</time>
      </trkpt>
      <trkpt lat="45.68279" lon="5.56769">
        <ele>197.12</ele>
        <time>2015-05-22T14:25:29Z</time>
      </trkpt>
      <trkpt lat="45.68346" lon="5.56725">
        <ele>197.17</ele>
        <time>2015-05-22T14:25:42Z</time>
      </trkpt>
      <trkpt lat="45.68354" lon="5.56709">
        <ele>197.04</ele>
        <time>2015-05-22T14:25:46Z</time>
      </trkpt>
      <trkpt lat="45.68354" lon="5.56703">
        <ele>196.87</ele>
        <time>2015-05-22T14:25:47Z</time>
      </trkpt>
      <trkpt lat="45.68354" lon="5.56696">
        <ele>196.56</ele>
        <time>2015-05-22T14:25:48Z</time>
      </trkpt>
      <trkpt lat="45.68355" lon="5.56664">
        <ele>196.11</ele>
        <time>2015-05-22T14:25:53Z</time>
      </trkpt>
      <trkpt lat="45.68355" lon="5.56657">
        <ele>196.02</ele>
        <time>2015-05-22T14:25:54Z</time>
      </trkpt>
      <trkpt lat="45.68354" lon="5.5665">
        <ele>195.92</ele>
        <time>2015-05-22T14:25:55Z</time>
      </trkpt>
      <trkpt lat="45.68354" lon="5.56645">
        <ele>195.81</ele>
        <time>2015-05-22T14:25:56Z</time>
      </trkpt>
      <trkpt lat="45.68355" lon="5.56637">
        <ele>195.69</ele>
        <time>2015-05-22T14:25:57Z</time>
      </trkpt>
      <trkpt lat="45.68356" lon="5.56629">
        <ele>195.58</ele>
        <time>2015-05-22T14:25:58Z</time>
      </trkpt>
      <trkpt lat="45.68358" lon="5.56621">
        <ele>195.5</ele>
        <time>2015-05-22T14:25:59Z</time>
      </trkpt>
      <trkpt lat="45.68359" lon="5.56613">
        <ele>195.44</ele>
        <time>2015-05-22T14:26:00Z</time>
      </trkpt>
      <trkpt lat="45.68369" lon="5.56566">
        <ele>195.28</ele>
        <time>2015-05-22T14:26:06Z</time>
      </trkpt>
      <trkpt lat="45.68399" lon="5.56442">
        <ele>194.65</ele>
        <time>2015-05-22T14:26:21Z</time>
      </trkpt>
      <trkpt lat="45.68422" lon="5.56346">
        <ele>194.79</ele>
        <time>2015-05-22T14:26:32Z</time>
      </trkpt>
      <trkpt lat="45.68432" lon="5.56312">
        <ele>194.54</ele>
        <time>2015-05-22T14:26:36Z</time>
      </trkpt>
      <trkpt lat="45.68436" lon="5.56305">
        <ele>194.5</ele>
        <time>2015-05-22T14:26:37Z</time>
      </trkpt>
      <trkpt lat="45.6844" lon="5.56299">
        <ele>194.47</ele>
        <time>2015-05-22T14:26:38Z</time>
      </trkpt>
      <trkpt lat="45.68464" lon="5.56273">
        <ele>194.43</ele>
        <time>2015-05-22T14:26:43Z</time>
      </trkpt>
      <trkpt lat="45.68523" lon="5.56189">
        <ele>193.96</ele>
        <time>2015-05-22T14:26:57Z</time>
      </trkpt>
      <trkpt lat="45.68556" lon="5.56157">
        <ele>194.02</ele>
        <time>2015-05-22T14:27:04Z</time>
      </trkpt>
      <trkpt lat="45.68604" lon="5.56118">
        <ele>193.91</ele>
        <time>2015-05-22T14:27:15Z</time>
      </trkpt>
      <trkpt lat="45.68641" lon="5.56084">
        <ele>193.94</ele>
        <time>2015-05-22T14:27:23Z</time>
      </trkpt>
      <trkpt lat="45.68672" lon="5.56039">
        <ele>194.05</ele>
        <time>2015-05-22T14:27:31Z</time>
      </trkpt>
      <trkpt lat="45.68675" lon="5.56033">
        <ele>194.08</ele>
        <time>2015-05-22T14:27:32Z</time>
      </trkpt>
      <trkpt lat="45.68679" lon="5.56024">
        <ele>194.23</ele>
        <time>2015-05-22T14:27:34Z</time>
      </trkpt>
      <trkpt lat="45.68702" lon="5.56001">
        <ele>194.69</ele>
        <time>2015-05-22T14:27:40Z</time>
      </trkpt>
      <trkpt lat="45.6872" lon="5.55991">
        <ele>194.91</ele>
        <time>2015-05-22T14:27:44Z</time>
      </trkpt>
      <trkpt lat="45.68726" lon="5.55989">
        <ele>194.96</ele>
        <time>2015-05-22T14:27:45Z</time>
      </trkpt>
      <trkpt lat="45.6875" lon="5.55987">
        <ele>195.18</ele>
        <time>2015-05-22T14:27:50Z</time>
      </trkpt>
      <trkpt lat="45.6876" lon="5.55985">
        <ele>195.27</ele>
        <time>2015-05-22T14:27:52Z</time>
      </trkpt>
      <trkpt lat="45.68764" lon="5.55983">
        <ele>195.27</ele>
        <time>2015-05-22T14:27:53Z</time>
      </trkpt>
      <trkpt lat="45.68776" lon="5.55977">
        <ele>195.15</ele>
        <time>2015-05-22T14:27:56Z</time>
      </trkpt>
      <trkpt lat="45.6878" lon="5.55974">
        <ele>195.07</ele>
        <time>2015-05-22T14:27:57Z</time>
      </trkpt>
      <trkpt lat="45.68785" lon="5.55971">
        <ele>195.01</ele>
        <time>2015-05-22T14:27:58Z</time>
      </trkpt>
      <trkpt lat="45.68857" lon="5.55931">
        <ele>195.28</ele>
        <time>2015-05-22T14:28:14Z</time>
      </trkpt>
      <trkpt lat="45.68884" lon="5.55922">
        <ele>195.28</ele>
        <time>2015-05-22T14:28:19Z</time>
      </trkpt>
      <trkpt lat="45.68889" lon="5.5592">
        <ele>195.27</ele>
        <time>2015-05-22T14:28:20Z</time>
      </trkpt>
      <trkpt lat="45.68894" lon="5.55918">
        <ele>195.26</ele>
        <time>2015-05-22T14:28:21Z</time>
      </trkpt>
      <trkpt lat="45.68904" lon="5.55913">
        <ele>195.25</ele>
        <time>2015-05-22T14:28:23Z</time>
      </trkpt>
      <trkpt lat="45.68966" lon="5.55881">
        <ele>195.85</ele>
        <time>2015-05-22T14:28:35Z</time>
      </trkpt>
      <trkpt lat="45.68991" lon="5.55869">
        <ele>195.8</ele>
        <time>2015-05-22T14:28:40Z</time>
      </trkpt>
      <trkpt lat="45.69079" lon="5.55855">
        <ele>195.85</ele>
        <time>2015-05-22T14:28:57Z</time>
      </trkpt>
      <trkpt lat="45.69175" lon="5.55857">
        <ele>195.38</ele>
        <time>2015-05-22T14:29:15Z</time>
      </trkpt>
      <trkpt lat="45.69248" lon="5.55858">
        <ele>195.47</ele>
        <time>2015-05-22T14:29:29Z</time>
      </trkpt>
      <trkpt lat="45.69327" lon="5.55849">
        <ele>194.65</ele>
        <time>2015-05-22T14:29:45Z</time>
      </trkpt>
      <trkpt lat="45.69337" lon="5.55844">
        <ele>194.57</ele>
        <time>2015-05-22T14:29:47Z</time>
      </trkpt>
      <trkpt lat="45.69351" lon="5.55834">
        <ele>194.48</ele>
        <time>2015-05-22T14:29:50Z</time>
      </trkpt>
      <trkpt lat="45.69356" lon="5.55829">
        <ele>194.49</ele>
        <time>2015-05-22T14:29:51Z</time>
      </trkpt>
      <trkpt lat="45.6936" lon="5.55824">
        <ele>194.49</ele>
        <time>2015-05-22T14:29:52Z</time>
      </trkpt>
      <trkpt lat="45.69371" lon="5.55808">
        <ele>194.51</ele>
        <time>2015-05-22T14:29:55Z</time>
      </trkpt>
      <trkpt lat="45.69424" lon="5.55732">
        <ele>194.67</ele>
        <time>2015-05-22T14:30:09Z</time>
      </trkpt>
      <trkpt lat="45.69428" lon="5.55729">
        <ele>194.69</ele>
        <time>2015-05-22T14:30:10Z</time>
      </trkpt>
      <trkpt lat="45.69496" lon="5.55682">
        <ele>194.85</ele>
        <time>2015-05-22T14:30:23Z</time>
      </trkpt>
      <trkpt lat="45.69543" lon="5.55651">
        <ele>194.97</ele>
        <time>2015-05-22T14:30:32Z</time>
      </trkpt>
      <trkpt lat="45.6955" lon="5.5565">
        <ele>195.02</ele>
        <time>2015-05-22T14:30:33Z</time>
      </trkpt>
      <trkpt lat="45.69556" lon="5.5565">
        <ele>195.03</ele>
        <time>2015-05-22T14:30:34Z</time>
      </trkpt>
      <trkpt lat="45.69562" lon="5.55651">
        <ele>195.04</ele>
        <time>2015-05-22T14:30:35Z</time>
      </trkpt>
      <trkpt lat="45.69568" lon="5.55653">
        <ele>195.04</ele>
        <time>2015-05-22T14:30:36Z</time>
      </trkpt>
      <trkpt lat="45.69573" lon="5.55656">
        <ele>195.03</ele>
        <time>2015-05-22T14:30:37Z</time>
      </trkpt>
      <trkpt lat="45.69579" lon="5.55659">
        <ele>195.03</ele>
        <time>2015-05-22T14:30:38Z</time>
      </trkpt>
      <trkpt lat="45.69607" lon="5.55672">
        <ele>195.02</ele>
        <time>2015-05-22T14:30:43Z</time>
      </trkpt>
      <trkpt lat="45.69625" lon="5.55675">
        <ele>195.22</ele>
        <time>2015-05-22T14:30:46Z</time>
      </trkpt>
      <trkpt lat="45.69631" lon="5.55674">
        <ele>195.29</ele>
        <time>2015-05-22T14:30:47Z</time>
      </trkpt>
      <trkpt lat="45.69637" lon="5.55673">
        <ele>195.31</ele>
        <time>2015-05-22T14:30:48Z</time>
      </trkpt>
      <trkpt lat="45.69642" lon="5.55671">
        <ele>195.34</ele>
        <time>2015-05-22T14:30:49Z</time>
      </trkpt>
      <trkpt lat="45.69647" lon="5.55668">
        <ele>195.34</ele>
        <time>2015-05-22T14:30:50Z</time>
      </trkpt>
      <trkpt lat="45.69652" lon="5.55665">
        <ele>195.32</ele>
        <time>2015-05-22T14:30:51Z</time>
      </trkpt>
      <trkpt lat="45.69702" lon="5.55635">
        <ele>195.13</ele>
        <time>2015-05-22T14:31:01Z</time>
      </trkpt>
      <trkpt lat="45.69707" lon="5.55631">
        <ele>195.14</ele>
        <time>2015-05-22T14:31:02Z</time>
      </trkpt>
      <trkpt lat="45.69711" lon="5.55626">
        <ele>195.16</ele>
        <time>2015-05-22T14:31:03Z</time>
      </trkpt>
      <trkpt lat="45.69716" lon="5.55621">
        <ele>195.17</ele>
        <time>2015-05-22T14:31:04Z</time>
      </trkpt>
      <trkpt lat="45.69719" lon="5.55615">
        <ele>195.17</ele>
        <time>2015-05-22T14:31:05Z</time>
      </trkpt>
      <trkpt lat="45.69723" lon="5.55609">
        <ele>195.18</ele>
        <time>2015-05-22T14:31:06Z</time>
      </trkpt>
      <trkpt lat="45.69725" lon="5.55602">
        <ele>195.19</ele>
        <time>2015-05-22T14:31:07Z</time>
      </trkpt>
      <trkpt lat="45.69728" lon="5.55596">
        <ele>195.2</ele>
        <time>2015-05-22T14:31:08Z</time>
      </trkpt>
      <trkpt lat="45.6976" lon="5.55498">
        <ele>195.76</ele>
        <time>2015-05-22T14:31:23Z</time>
      </trkpt>
      <trkpt lat="45.69805" lon="5.5539">
        <ele>194.83</ele>
        <time>2015-05-22T14:31:40Z</time>
      </trkpt>
      <trkpt lat="45.69831" lon="5.55347">
        <ele>195.03</ele>
        <time>2015-05-22T14:31:47Z</time>
      </trkpt>
      <trkpt lat="45.69836" lon="5.55344">
        <ele>195.04</ele>
        <time>2015-05-22T14:31:48Z</time>
      </trkpt>
      <trkpt lat="45.69842" lon="5.55342">
        <ele>195.06</ele>
        <time>2015-05-22T14:31:49Z</time>
      </trkpt>
      <trkpt lat="45.69847" lon="5.55341">
        <ele>195.09</ele>
        <time>2015-05-22T14:31:50Z</time>
      </trkpt>
      <trkpt lat="45.69853" lon="5.55341">
        <ele>195.12</ele>
        <time>2015-05-22T14:31:51Z</time>
      </trkpt>
      <trkpt lat="45.69858" lon="5.55342">
        <ele>195.15</ele>
        <time>2015-05-22T14:31:52Z</time>
      </trkpt>
      <trkpt lat="45.69863" lon="5.55344">
        <ele>195.18</ele>
        <time>2015-05-22T14:31:53Z</time>
      </trkpt>
      <trkpt lat="45.69944" lon="5.55373">
        <ele>195.61</ele>
        <time>2015-05-22T14:32:08Z</time>
      </trkpt>
      <trkpt lat="45.70015" lon="5.55396">
        <ele>195.68</ele>
        <time>2015-05-22T14:32:21Z</time>
      </trkpt>
      <trkpt lat="45.70037" lon="5.55403">
        <ele>195.46</ele>
        <time>2015-05-22T14:32:25Z</time>
      </trkpt>
      <trkpt lat="45.70069" lon="5.55409">
        <ele>195.23</ele>
        <time>2015-05-22T14:32:31Z</time>
      </trkpt>
      <trkpt lat="45.70074" lon="5.55411">
        <ele>195.2</ele>
        <time>2015-05-22T14:32:32Z</time>
      </trkpt>
      <trkpt lat="45.70125" lon="5.55428">
        <ele>195.08</ele>
        <time>2015-05-22T14:32:43Z</time>
      </trkpt>
      <trkpt lat="45.70196" lon="5.55458">
        <ele>194.25</ele>
        <time>2015-05-22T14:32:56Z</time>
      </trkpt>
      <trkpt lat="45.70264" lon="5.55485">
        <ele>194.2</ele>
        <time>2015-05-22T14:33:09Z</time>
      </trkpt>
      <trkpt lat="45.7034" lon="5.55536">
        <ele>193.74</ele>
        <time>2015-05-22T14:33:25Z</time>
      </trkpt>
      <trkpt lat="45.70424" lon="5.55562">
        <ele>194.2</ele>
        <time>2015-05-22T14:33:41Z</time>
      </trkpt>
      <trkpt lat="45.70509" lon="5.55591">
        <ele>194.12</ele>
        <time>2015-05-22T14:33:57Z</time>
      </trkpt>
      <trkpt lat="45.7052" lon="5.55593">
        <ele>194.24</ele>
        <time>2015-05-22T14:33:59Z</time>
      </trkpt>
      <trkpt lat="45.70525" lon="5.55592">
        <ele>194.3</ele>
        <time>2015-05-22T14:34:00Z</time>
      </trkpt>
      <trkpt lat="45.70547" lon="5.55588">
        <ele>194.61</ele>
        <time>2015-05-22T14:34:04Z</time>
      </trkpt>
      <trkpt lat="45.70553" lon="5.55586">
        <ele>194.66</ele>
        <time>2015-05-22T14:34:05Z</time>
      </trkpt>
      <trkpt lat="45.70564" lon="5.55581">
        <ele>194.73</ele>
        <time>2015-05-22T14:34:07Z</time>
      </trkpt>
      <trkpt lat="45.70591" lon="5.55566">
        <ele>194.67</ele>
        <time>2015-05-22T14:34:12Z</time>
      </trkpt>
      <trkpt lat="45.70596" lon="5.55564">
        <ele>194.66</ele>
        <time>2015-05-22T14:34:13Z</time>
      </trkpt>
      <trkpt lat="45.70601" lon="5.55562">
        <ele>194.71</ele>
        <time>2015-05-22T14:34:14Z</time>
      </trkpt>
      <trkpt lat="45.70689" lon="5.55548">
        <ele>194.6</ele>
        <time>2015-05-22T14:34:30Z</time>
      </trkpt>
      <trkpt lat="45.70744" lon="5.55539">
        <ele>194.71</ele>
        <time>2015-05-22T14:34:40Z</time>
      </trkpt>
      <trkpt lat="45.70778" lon="5.55539">
        <ele>194.91</ele>
        <time>2015-05-22T14:34:46Z</time>
      </trkpt>
      <trkpt lat="45.70794" lon="5.55543">
        <ele>195.05</ele>
        <time>2015-05-22T14:34:49Z</time>
      </trkpt>
      <trkpt lat="45.70799" lon="5.55542">
        <ele>195.1</ele>
        <time>2015-05-22T14:34:50Z</time>
      </trkpt>
      <trkpt lat="45.70805" lon="5.55541">
        <ele>195.12</ele>
        <time>2015-05-22T14:34:51Z</time>
      </trkpt>
      <trkpt lat="45.7081" lon="5.55538">
        <ele>195.08</ele>
        <time>2015-05-22T14:34:52Z</time>
      </trkpt>
      <trkpt lat="45.70815" lon="5.55534">
        <ele>195.1</ele>
        <time>2015-05-22T14:34:53Z</time>
      </trkpt>
      <trkpt lat="45.70821" lon="5.5553">
        <ele>195.08</ele>
        <time>2015-05-22T14:34:54Z</time>
      </trkpt>
      <trkpt lat="45.70826" lon="5.55526">
        <ele>195.02</ele>
        <time>2015-05-22T14:34:55Z</time>
      </trkpt>
      <trkpt lat="45.70831" lon="5.55521">
        <ele>194.96</ele>
        <time>2015-05-22T14:34:56Z</time>
      </trkpt>
      <trkpt lat="45.70836" lon="5.55515">
        <ele>194.87</ele>
        <time>2015-05-22T14:34:57Z</time>
      </trkpt>
      <trkpt lat="45.70841" lon="5.5551">
        <ele>194.79</ele>
        <time>2015-05-22T14:34:58Z</time>
      </trkpt>
      <trkpt lat="45.70846" lon="5.55505">
        <ele>194.74</ele>
        <time>2015-05-22T14:34:59Z</time>
      </trkpt>
      <trkpt lat="45.70851" lon="5.55501">
        <ele>194.68</ele>
        <time>2015-05-22T14:35:00Z</time>
      </trkpt>
      <trkpt lat="45.70881" lon="5.55482">
        <ele>194.26</ele>
        <time>2015-05-22T14:35:06Z</time>
      </trkpt>
      <trkpt lat="45.70886" lon="5.55479">
        <ele>194.18</ele>
        <time>2015-05-22T14:35:07Z</time>
      </trkpt>
      <trkpt lat="45.70904" lon="5.55465">
        <ele>193.89</ele>
        <time>2015-05-22T14:35:11Z</time>
      </trkpt>
      <trkpt lat="45.70929" lon="5.55435">
        <ele>193.34</ele>
        <time>2015-05-22T14:35:17Z</time>
      </trkpt>
      <trkpt lat="45.70931" lon="5.55429">
        <ele>193.27</ele>
        <time>2015-05-22T14:35:18Z</time>
      </trkpt>
      <trkpt lat="45.70938" lon="5.55409">
        <ele>193.11</ele>
        <time>2015-05-22T14:35:21Z</time>
      </trkpt>
      <trkpt lat="45.70942" lon="5.55405">
        <ele>193.06</ele>
        <time>2015-05-22T14:35:22Z</time>
      </trkpt>
      <trkpt lat="45.70946" lon="5.55401">
        <ele>193</ele>
        <time>2015-05-22T14:35:23Z</time>
      </trkpt>
      <trkpt lat="45.70976" lon="5.55375">
        <ele>192.78</ele>
        <time>2015-05-22T14:35:30Z</time>
      </trkpt>
      <trkpt lat="45.7101" lon="5.5533">
        <ele>192.63</ele>
        <time>2015-05-22T14:35:40Z</time>
      </trkpt>
      <trkpt lat="45.71022" lon="5.55324">
        <ele>192.2</ele>
        <time>2015-05-22T14:36:02Z</time>
      </trkpt>
      <trkpt lat="45.7103" lon="5.55311">
        <ele>192.07</ele>
        <time>2015-05-22T14:36:21Z</time>
      </trkpt>
      <trkpt lat="45.71035" lon="5.55306">
        <ele>192.33</ele>
        <time>2015-05-22T14:36:38Z</time>
      </trkpt>
      <trkpt lat="45.71037" lon="5.55306">
        <ele>192.38</ele>
        <time>2015-05-22T14:36:39Z</time>
      </trkpt>
      <trkpt lat="45.71039" lon="5.55305">
        <ele>192.38</ele>
        <time>2015-05-22T14:36:40Z</time>
      </trkpt>
      <trkpt lat="45.71041" lon="5.55305">
        <ele>192.51</ele>
        <time>2015-05-22T14:36:41Z</time>
      </trkpt>
      <trkpt lat="45.71043" lon="5.55305">
        <ele>192.56</ele>
        <time>2015-05-22T14:36:42Z</time>
      </trkpt>
      <trkpt lat="45.71044" lon="5.55307">
        <ele>192.61</ele>
        <time>2015-05-22T14:36:43Z</time>
      </trkpt>
      <trkpt lat="45.71044" lon="5.55309">
        <ele>192.65</ele>
        <time>2015-05-22T14:36:44Z</time>
      </trkpt>
      <trkpt lat="45.71046" lon="5.55313">
        <ele>192.51</ele>
        <time>2015-05-22T14:36:55Z</time>
      </trkpt>
      <trkpt lat="45.71048" lon="5.55313">
        <ele>192.43</ele>
        <time>2015-05-22T14:37:27Z</time>
      </trkpt>
      <trkpt lat="45.71054" lon="5.55314">
        <ele>192.46</ele>
        <time>2015-05-22T14:37:47Z</time>
      </trkpt>
      <trkpt lat="45.71056" lon="5.55314">
        <ele>192.47</ele>
        <time>2015-05-22T14:37:48Z</time>
      </trkpt>
      <trkpt lat="45.71057" lon="5.55313">
        <ele>192.51</ele>
        <time>2015-05-22T14:37:49Z</time>
      </trkpt>
      <trkpt lat="45.7106" lon="5.5531">
        <ele>192.64</ele>
        <time>2015-05-22T14:37:51Z</time>
      </trkpt>
      <trkpt lat="45.7106" lon="5.55307">
        <ele>192.73</ele>
        <time>2015-05-22T14:37:52Z</time>
      </trkpt>
      <trkpt lat="45.7108" lon="5.55264">
        <ele>193.62</ele>
        <time>2015-05-22T14:38:05Z</time>
      </trkpt>
      <trkpt lat="45.71087" lon="5.5526">
        <ele>193.28</ele>
        <time>2015-05-22T14:38:15Z</time>
      </trkpt>
      <trkpt lat="45.7109" lon="5.5526">
        <ele>193.09</ele>
        <time>2015-05-22T14:39:04Z</time>
      </trkpt>
      <trkpt lat="45.71087" lon="5.55261">
        <ele>193.12</ele>
        <time>2015-05-22T14:39:06Z</time>
      </trkpt>
      <trkpt lat="45.71086" lon="5.55259">
        <ele>193.12</ele>
        <time>2015-05-22T14:39:07Z</time>
      </trkpt>
      <trkpt lat="45.71086" lon="5.55255">
        <ele>193.12</ele>
        <time>2015-05-22T14:39:08Z</time>
      </trkpt>
      <trkpt lat="45.71087" lon="5.55252">
        <ele>193.12</ele>
        <time>2015-05-22T14:39:09Z</time>
      </trkpt>
      <trkpt lat="45.71089" lon="5.5525">
        <ele>193.12</ele>
        <time>2015-05-22T14:39:10Z</time>
      </trkpt>
      <trkpt lat="45.71091" lon="5.55248">
        <ele>193.14</ele>
        <time>2015-05-22T14:39:11Z</time>
      </trkpt>
      <trkpt lat="45.71093" lon="5.55246">
        <ele>193.21</ele>
        <time>2015-05-22T14:39:12Z</time>
      </trkpt>
      <trkpt lat="45.71095" lon="5.55244">
        <ele>193.27</ele>
        <time>2015-05-22T14:39:13Z</time>
      </trkpt>
      <trkpt lat="45.71109" lon="5.55232">
        <ele>193.34</ele>
        <time>2015-05-22T14:39:24Z</time>
      </trkpt>
      <trkpt lat="45.71107" lon="5.55237">
        <ele>192.79</ele>
        <time>2015-05-22T14:39:48Z</time>
      </trkpt>
      <trkpt lat="45.71106" lon="5.55238">
        <ele>193.47</ele>
        <time>2015-05-22T14:40:28Z</time>
      </trkpt>
      <trkpt lat="45.71107" lon="5.55239">
        <ele>193.18</ele>
        <time>2015-05-22T14:41:25Z</time>
      </trkpt>
      <trkpt lat="45.71108" lon="5.55239">
        <ele>193.62</ele>
        <time>2015-05-22T14:42:19Z</time>
      </trkpt>
      <trkpt lat="45.71106" lon="5.55239">
        <ele>193</ele>
        <time>2015-05-22T14:43:06Z</time>
      </trkpt>
      <trkpt lat="45.71107" lon="5.55238">
        <ele>193.38</ele>
        <time>2015-05-22T14:43:41Z</time>
      </trkpt>
      <trkpt lat="45.71106" lon="5.5524">
        <ele>192.55</ele>
        <time>2015-05-22T14:44:06Z</time>
      </trkpt>
      <trkpt lat="45.71106" lon="5.55239">
        <ele>192.09</ele>
        <time>2015-05-22T14:44:45Z</time>
      </trkpt>
      <trkpt lat="45.71101" lon="5.55241">
        <ele>191.97</ele>
        <time>2015-05-22T14:45:18Z</time>
      </trkpt>
      <trkpt lat="45.71103" lon="5.55239">
        <ele>192.88</ele>
        <time>2015-05-22T14:45:58Z</time>
      </trkpt>
      <trkpt lat="45.71102" lon="5.55241">
        <ele>192.99</ele>
        <time>2015-05-22T14:46:29Z</time>
      </trkpt>
      <trkpt lat="45.71105" lon="5.55237">
        <ele>193.82</ele>
        <time>2015-05-22T14:47:04Z</time>
      </trkpt>
      <trkpt lat="45.71107" lon="5.55234">
        <ele>192.97</ele>
        <time>2015-05-22T14:47:38Z</time>
      </trkpt>
      <trkpt lat="45.71103" lon="5.55237">
        <ele>193.06</ele>
        <time>2015-05-22T14:48:19Z</time>
      </trkpt>
      <trkpt lat="45.71103" lon="5.55237">
        <ele>193.05</ele>
        <time>2015-05-22T14:48:51Z</time>
      </trkpt>
      <trkpt lat="45.71103" lon="5.55239">
        <ele>193.97</ele>
        <time>2015-05-22T14:49:45Z</time>
      </trkpt>
      <trkpt lat="45.71106" lon="5.55237">
        <ele>194.14</ele>
        <time>2015-05-22T14:50:21Z</time>
      </trkpt>
      <trkpt lat="45.71108" lon="5.55236">
        <ele>194.09</ele>
        <time>2015-05-22T14:50:47Z</time>
      </trkpt>
      <trkpt lat="45.71108" lon="5.5523">
        <ele>193.8</ele>
        <time>2015-05-22T14:51:15Z</time>
      </trkpt>
      <trkpt lat="45.71109" lon="5.55228">
        <ele>193.85</ele>
        <time>2015-05-22T14:51:16Z</time>
      </trkpt>
      <trkpt lat="45.71111" lon="5.55226">
        <ele>193.89</ele>
        <time>2015-05-22T14:51:17Z</time>
      </trkpt>
      <trkpt lat="45.71113" lon="5.55224">
        <ele>193.92</ele>
        <time>2015-05-22T14:51:18Z</time>
      </trkpt>
      <trkpt lat="45.71115" lon="5.55222">
        <ele>193.95</ele>
        <time>2015-05-22T14:51:19Z</time>
      </trkpt>
      <trkpt lat="45.71159" lon="5.55181">
        <ele>194.73</ele>
        <time>2015-05-22T14:51:33Z</time>
      </trkpt>
      <trkpt lat="45.71176" lon="5.5516">
        <ele>194.72</ele>
        <time>2015-05-22T14:51:38Z</time>
      </trkpt>
      <trkpt lat="45.71206" lon="5.55108">
        <ele>194.61</ele>
        <time>2015-05-22T14:51:48Z</time>
      </trkpt>
      <trkpt lat="45.71216" lon="5.55094">
        <ele>194.66</ele>
        <time>2015-05-22T14:51:51Z</time>
      </trkpt>
      <trkpt lat="45.71248" lon="5.5505">
        <ele>194.43</ele>
        <time>2015-05-22T14:52:00Z</time>
      </trkpt>
      <trkpt lat="45.71255" lon="5.55032">
        <ele>194.48</ele>
        <time>2015-05-22T14:52:03Z</time>
      </trkpt>
      <trkpt lat="45.71262" lon="5.54998">
        <ele>194.48</ele>
        <time>2015-05-22T14:52:09Z</time>
      </trkpt>
      <trkpt lat="45.71264" lon="5.54992">
        <ele>194.47</ele>
        <time>2015-05-22T14:52:10Z</time>
      </trkpt>
      <trkpt lat="45.71274" lon="5.54955">
        <ele>194.33</ele>
        <time>2015-05-22T14:52:16Z</time>
      </trkpt>
      <trkpt lat="45.71286" lon="5.54921">
        <ele>194.08</ele>
        <time>2015-05-22T14:52:23Z</time>
      </trkpt>
      <trkpt lat="45.71287" lon="5.5492">
        <ele>194.05</ele>
        <time>2015-05-22T14:52:24Z</time>
      </trkpt>
      <trkpt lat="45.7129" lon="5.54914">
        <ele>193.96</ele>
        <time>2015-05-22T14:52:28Z</time>
      </trkpt>
      <trkpt lat="45.71291" lon="5.54912">
        <ele>193.94</ele>
        <time>2015-05-22T14:52:29Z</time>
      </trkpt>
      <trkpt lat="45.71301" lon="5.54879">
        <ele>193.9</ele>
        <time>2015-05-22T14:52:39Z</time>
      </trkpt>
      <trkpt lat="45.71322" lon="5.54837">
        <ele>193.82</ele>
        <time>2015-05-22T14:52:50Z</time>
      </trkpt>
      <trkpt lat="45.71341" lon="5.54809">
        <ele>193.69</ele>
        <time>2015-05-22T14:52:57Z</time>
      </trkpt>
      <trkpt lat="45.71344" lon="5.54805">
        <ele>193.69</ele>
        <time>2015-05-22T14:52:58Z</time>
      </trkpt>
      <trkpt lat="45.71348" lon="5.54801">
        <ele>193.71</ele>
        <time>2015-05-22T14:52:59Z</time>
      </trkpt>
      <trkpt lat="45.71351" lon="5.54798">
        <ele>193.72</ele>
        <time>2015-05-22T14:53:00Z</time>
      </trkpt>
      <trkpt lat="45.71354" lon="5.54795">
        <ele>193.73</ele>
        <time>2015-05-22T14:53:01Z</time>
      </trkpt>
      <trkpt lat="45.71359" lon="5.54793">
        <ele>193.72</ele>
        <time>2015-05-22T14:53:02Z</time>
      </trkpt>
      <trkpt lat="45.71363" lon="5.54792">
        <ele>193.7</ele>
        <time>2015-05-22T14:53:03Z</time>
      </trkpt>
      <trkpt lat="45.71367" lon="5.54792">
        <ele>193.71</ele>
        <time>2015-05-22T14:53:04Z</time>
      </trkpt>
      <trkpt lat="45.71372" lon="5.54793">
        <ele>193.74</ele>
        <time>2015-05-22T14:53:05Z</time>
      </trkpt>
      <trkpt lat="45.71375" lon="5.54794">
        <ele>193.76</ele>
        <time>2015-05-22T14:53:06Z</time>
      </trkpt>
      <trkpt lat="45.71386" lon="5.54796">
        <ele>193.81</ele>
        <time>2015-05-22T14:53:09Z</time>
      </trkpt>
      <trkpt lat="45.71408" lon="5.54804">
        <ele>193.97</ele>
        <time>2015-05-22T14:53:16Z</time>
      </trkpt>
      <trkpt lat="45.71372" lon="5.54852">
        <ele>194.9</ele>
        <time>2015-05-22T14:53:27Z</time>
      </trkpt>
      <trkpt lat="45.71352" lon="5.54877">
        <ele>195.18</ele>
        <time>2015-05-22T14:53:32Z</time>
      </trkpt>
      <trkpt lat="45.71319" lon="5.54918">
        <ele>196.33</ele>
        <time>2015-05-22T14:53:43Z</time>
      </trkpt>
      <trkpt lat="45.71317" lon="5.54917">
        <ele>196.51</ele>
        <time>2015-05-22T14:53:44Z</time>
      </trkpt>
      <trkpt lat="45.71314" lon="5.54915">
        <ele>196.7</ele>
        <time>2015-05-22T14:53:45Z</time>
      </trkpt>
      <trkpt lat="45.71278" lon="5.54884">
        <ele>198.69</ele>
        <time>2015-05-22T14:53:57Z</time>
      </trkpt>
      <trkpt lat="45.71227" lon="5.54844">
        <ele>200.19</ele>
        <time>2015-05-22T14:54:10Z</time>
      </trkpt>
      <trkpt lat="45.7115" lon="5.54786">
        <ele>199.62</ele>
        <time>2015-05-22T14:54:25Z</time>
      </trkpt>
      <trkpt lat="45.7106" lon="5.54713">
        <ele>197.19</ele>
        <time>2015-05-22T14:54:38Z</time>
      </trkpt>
      <trkpt lat="45.71054" lon="5.54704">
        <ele>197.02</ele>
        <time>2015-05-22T14:54:39Z</time>
      </trkpt>
      <trkpt lat="45.71048" lon="5.54694">
        <ele>196.87</ele>
        <time>2015-05-22T14:54:40Z</time>
      </trkpt>
      <trkpt lat="45.71038" lon="5.54674">
        <ele>196.56</ele>
        <time>2015-05-22T14:54:42Z</time>
      </trkpt>
      <trkpt lat="45.71" lon="5.54551">
        <ele>195.39</ele>
        <time>2015-05-22T14:54:54Z</time>
      </trkpt>
      <trkpt lat="45.70961" lon="5.54428">
        <ele>194.88</ele>
        <time>2015-05-22T14:55:07Z</time>
      </trkpt>
      <trkpt lat="45.70958" lon="5.54419">
        <ele>194.89</ele>
        <time>2015-05-22T14:55:08Z</time>
      </trkpt>
      <trkpt lat="45.70914" lon="5.54276">
        <ele>195.15</ele>
        <time>2015-05-22T14:55:24Z</time>
      </trkpt>
      <trkpt lat="45.70875" lon="5.54147">
        <ele>195.19</ele>
        <time>2015-05-22T14:55:40Z</time>
      </trkpt>
      <trkpt lat="45.70843" lon="5.54062">
        <ele>194.85</ele>
        <time>2015-05-22T14:55:51Z</time>
      </trkpt>
      <trkpt lat="45.7084" lon="5.54055">
        <ele>194.78</ele>
        <time>2015-05-22T14:55:52Z</time>
      </trkpt>
      <trkpt lat="45.70831" lon="5.54036">
        <ele>194.61</ele>
        <time>2015-05-22T14:55:55Z</time>
      </trkpt>
      <trkpt lat="45.7083" lon="5.54029">
        <ele>194.55</ele>
        <time>2015-05-22T14:55:56Z</time>
      </trkpt>
      <trkpt lat="45.70832" lon="5.54023">
        <ele>194.46</ele>
        <time>2015-05-22T14:55:57Z</time>
      </trkpt>
      <trkpt lat="45.70835" lon="5.54017">
        <ele>194.37</ele>
        <time>2015-05-22T14:55:58Z</time>
      </trkpt>
      <trkpt lat="45.70838" lon="5.54011">
        <ele>194.31</ele>
        <time>2015-05-22T14:55:59Z</time>
      </trkpt>
      <trkpt lat="45.70841" lon="5.54006">
        <ele>194.25</ele>
        <time>2015-05-22T14:56:00Z</time>
      </trkpt>
      <trkpt lat="45.70852" lon="5.53989">
        <ele>194.17</ele>
        <time>2015-05-22T14:56:03Z</time>
      </trkpt>
      <trkpt lat="45.70901" lon="5.53904">
        <ele>194.81</ele>
        <time>2015-05-22T14:56:17Z</time>
      </trkpt>
      <trkpt lat="45.70955" lon="5.53817">
        <ele>194.83</ele>
        <time>2015-05-22T14:56:31Z</time>
      </trkpt>
      <trkpt lat="45.70958" lon="5.53809">
        <ele>194.81</ele>
        <time>2015-05-22T14:56:32Z</time>
      </trkpt>
      <trkpt lat="45.7096" lon="5.53801">
        <ele>194.8</ele>
        <time>2015-05-22T14:56:33Z</time>
      </trkpt>
      <trkpt lat="45.70975" lon="5.53747">
        <ele>194.93</ele>
        <time>2015-05-22T14:56:40Z</time>
      </trkpt>
      <trkpt lat="45.70974" lon="5.5374">
        <ele>194.94</ele>
        <time>2015-05-22T14:56:41Z</time>
      </trkpt>
      <trkpt lat="45.70972" lon="5.53733">
        <ele>194.91</ele>
        <time>2015-05-22T14:56:42Z</time>
      </trkpt>
      <trkpt lat="45.70969" lon="5.53726">
        <ele>194.84</ele>
        <time>2015-05-22T14:56:43Z</time>
      </trkpt>
      <trkpt lat="45.70967" lon="5.53719">
        <ele>194.7</ele>
        <time>2015-05-22T14:56:44Z</time>
      </trkpt>
      <trkpt lat="45.70964" lon="5.53712">
        <ele>194.5</ele>
        <time>2015-05-22T14:56:45Z</time>
      </trkpt>
      <trkpt lat="45.70962" lon="5.53704">
        <ele>194.31</ele>
        <time>2015-05-22T14:56:46Z</time>
      </trkpt>
      <trkpt lat="45.7096" lon="5.53696">
        <ele>194.14</ele>
        <time>2015-05-22T14:56:47Z</time>
      </trkpt>
      <trkpt lat="45.70957" lon="5.5368">
        <ele>193.91</ele>
        <time>2015-05-22T14:56:49Z</time>
      </trkpt>
      <trkpt lat="45.70957" lon="5.53671">
        <ele>193.85</ele>
        <time>2015-05-22T14:56:50Z</time>
      </trkpt>
      <trkpt lat="45.70957" lon="5.53636">
        <ele>193.99</ele>
        <time>2015-05-22T14:56:54Z</time>
      </trkpt>
      <trkpt lat="45.70968" lon="5.53554">
        <ele>194.77</ele>
        <time>2015-05-22T14:57:05Z</time>
      </trkpt>
      <trkpt lat="45.70973" lon="5.53524">
        <ele>194.97</ele>
        <time>2015-05-22T14:57:09Z</time>
      </trkpt>
      <trkpt lat="45.70975" lon="5.53517">
        <ele>195.02</ele>
        <time>2015-05-22T14:57:10Z</time>
      </trkpt>
      <trkpt lat="45.70988" lon="5.53483">
        <ele>195.13</ele>
        <time>2015-05-22T14:57:15Z</time>
      </trkpt>
      <trkpt lat="45.70991" lon="5.53477">
        <ele>195.16</ele>
        <time>2015-05-22T14:57:16Z</time>
      </trkpt>
      <trkpt lat="45.71" lon="5.5345">
        <ele>195.22</ele>
        <time>2015-05-22T14:57:20Z</time>
      </trkpt>
      <trkpt lat="45.71002" lon="5.53443">
        <ele>195.24</ele>
        <time>2015-05-22T14:57:21Z</time>
      </trkpt>
      <trkpt lat="45.71031" lon="5.53335">
        <ele>195.5</ele>
        <time>2015-05-22T14:57:36Z</time>
      </trkpt>
      <trkpt lat="45.71048" lon="5.5328">
        <ele>195.67</ele>
        <time>2015-05-22T14:57:43Z</time>
      </trkpt>
      <trkpt lat="45.7105" lon="5.53272">
        <ele>195.73</ele>
        <time>2015-05-22T14:57:44Z</time>
      </trkpt>
      <trkpt lat="45.71102" lon="5.53156">
        <ele>195.9</ele>
        <time>2015-05-22T14:57:59Z</time>
      </trkpt>
      <trkpt lat="45.71147" lon="5.53082">
        <ele>195.4</ele>
        <time>2015-05-22T14:58:11Z</time>
      </trkpt>
      <trkpt lat="45.71155" lon="5.5306">
        <ele>195.17</ele>
        <time>2015-05-22T14:58:14Z</time>
      </trkpt>
      <trkpt lat="45.71159" lon="5.53043">
        <ele>195.06</ele>
        <time>2015-05-22T14:58:16Z</time>
      </trkpt>
      <trkpt lat="45.71185" lon="5.52906">
        <ele>195.19</ele>
        <time>2015-05-22T14:58:31Z</time>
      </trkpt>
      <trkpt lat="45.71188" lon="5.5289">
        <ele>195.4</ele>
        <time>2015-05-22T14:58:33Z</time>
      </trkpt>
      <trkpt lat="45.71189" lon="5.52882">
        <ele>195.51</ele>
        <time>2015-05-22T14:58:34Z</time>
      </trkpt>
      <trkpt lat="45.71189" lon="5.52875">
        <ele>195.6</ele>
        <time>2015-05-22T14:58:35Z</time>
      </trkpt>
      <trkpt lat="45.71188" lon="5.52868">
        <ele>195.68</ele>
        <time>2015-05-22T14:58:36Z</time>
      </trkpt>
      <trkpt lat="45.71186" lon="5.52862">
        <ele>195.7</ele>
        <time>2015-05-22T14:58:37Z</time>
      </trkpt>
      <trkpt lat="45.71182" lon="5.52856">
        <ele>195.61</ele>
        <time>2015-05-22T14:58:38Z</time>
      </trkpt>
      <trkpt lat="45.71178" lon="5.52852">
        <ele>195.2</ele>
        <time>2015-05-22T14:58:39Z</time>
      </trkpt>
      <trkpt lat="45.71173" lon="5.52848">
        <ele>195.2</ele>
        <time>2015-05-22T14:58:40Z</time>
      </trkpt>
      <trkpt lat="45.71069" lon="5.52766">
        <ele>194.92</ele>
        <time>2015-05-22T14:59:00Z</time>
      </trkpt>
      <trkpt lat="45.71064" lon="5.52761">
        <ele>194.97</ele>
        <time>2015-05-22T14:59:01Z</time>
      </trkpt>
      <trkpt lat="45.7106" lon="5.52756">
        <ele>194.99</ele>
        <time>2015-05-22T14:59:02Z</time>
      </trkpt>
      <trkpt lat="45.71056" lon="5.52749">
        <ele>194.96</ele>
        <time>2015-05-22T14:59:03Z</time>
      </trkpt>
      <trkpt lat="45.71055" lon="5.52741">
        <ele>194.96</ele>
        <time>2015-05-22T14:59:04Z</time>
      </trkpt>
      <trkpt lat="45.71055" lon="5.52734">
        <ele>194.98</ele>
        <time>2015-05-22T14:59:05Z</time>
      </trkpt>
      <trkpt lat="45.71056" lon="5.52726">
        <ele>195</ele>
        <time>2015-05-22T14:59:06Z</time>
      </trkpt>
      <trkpt lat="45.71058" lon="5.5272">
        <ele>195.08</ele>
        <time>2015-05-22T14:59:07Z</time>
      </trkpt>
      <trkpt lat="45.71059" lon="5.52714">
        <ele>195.23</ele>
        <time>2015-05-22T14:59:08Z</time>
      </trkpt>
      <trkpt lat="45.71066" lon="5.52692">
        <ele>195.82</ele>
        <time>2015-05-22T14:59:12Z</time>
      </trkpt>
      <trkpt lat="45.71067" lon="5.52686">
        <ele>195.94</ele>
        <time>2015-05-22T14:59:13Z</time>
      </trkpt>
      <trkpt lat="45.71075" lon="5.52658">
        <ele>196.2</ele>
        <time>2015-05-22T14:59:18Z</time>
      </trkpt>
      <trkpt lat="45.71076" lon="5.52642">
        <ele>196.07</ele>
        <time>2015-05-22T14:59:21Z</time>
      </trkpt>
      <trkpt lat="45.71076" lon="5.52636">
        <ele>196.01</ele>
        <time>2015-05-22T14:59:22Z</time>
      </trkpt>
      <trkpt lat="45.71074" lon="5.52624">
        <ele>195.92</ele>
        <time>2015-05-22T14:59:24Z</time>
      </trkpt>
      <trkpt lat="45.71058" lon="5.52567">
        <ele>197</ele>
        <time>2015-05-22T14:59:35Z</time>
      </trkpt>
      <trkpt lat="45.7104" lon="5.52528">
        <ele>198.54</ele>
        <time>2015-05-22T14:59:45Z</time>
      </trkpt>
      <trkpt lat="45.71015" lon="5.52489">
        <ele>200.19</ele>
        <time>2015-05-22T14:59:56Z</time>
      </trkpt>
      <trkpt lat="45.71009" lon="5.52468">
        <ele>200.65</ele>
        <time>2015-05-22T15:00:00Z</time>
      </trkpt>
      <trkpt lat="45.71008" lon="5.5246">
        <ele>200.74</ele>
        <time>2015-05-22T15:00:01Z</time>
      </trkpt>
      <trkpt lat="45.71009" lon="5.52453">
        <ele>200.82</ele>
        <time>2015-05-22T15:00:02Z</time>
      </trkpt>
      <trkpt lat="45.7101" lon="5.52446">
        <ele>200.9</ele>
        <time>2015-05-22T15:00:03Z</time>
      </trkpt>
      <trkpt lat="45.71011" lon="5.5244">
        <ele>200.97</ele>
        <time>2015-05-22T15:00:04Z</time>
      </trkpt>
      <trkpt lat="45.71013" lon="5.52434">
        <ele>201.03</ele>
        <time>2015-05-22T15:00:05Z</time>
      </trkpt>
      <trkpt lat="45.71014" lon="5.52427">
        <ele>201.1</ele>
        <time>2015-05-22T15:00:06Z</time>
      </trkpt>
      <trkpt lat="45.71016" lon="5.52421">
        <ele>201.16</ele>
        <time>2015-05-22T15:00:07Z</time>
      </trkpt>
      <trkpt lat="45.71018" lon="5.52408">
        <ele>201.28</ele>
        <time>2015-05-22T15:00:09Z</time>
      </trkpt>
      <trkpt lat="45.7102" lon="5.52402">
        <ele>201.34</ele>
        <time>2015-05-22T15:00:10Z</time>
      </trkpt>
      <trkpt lat="45.71035" lon="5.52332">
        <ele>202.94</ele>
        <time>2015-05-22T15:00:21Z</time>
      </trkpt>
      <trkpt lat="45.71046" lon="5.52277">
        <ele>203.98</ele>
        <time>2015-05-22T15:00:29Z</time>
      </trkpt>
      <trkpt lat="45.71058" lon="5.5222">
        <ele>204.95</ele>
        <time>2015-05-22T15:00:38Z</time>
      </trkpt>
      <trkpt lat="45.7106" lon="5.52213">
        <ele>205.06</ele>
        <time>2015-05-22T15:00:39Z</time>
      </trkpt>
      <trkpt lat="45.71061" lon="5.52207">
        <ele>205.16</ele>
        <time>2015-05-22T15:00:40Z</time>
      </trkpt>
      <trkpt lat="45.71083" lon="5.52095">
        <ele>205.97</ele>
        <time>2015-05-22T15:00:56Z</time>
      </trkpt>
      <trkpt lat="45.71106" lon="5.5196">
        <ele>206.68</ele>
        <time>2015-05-22T15:01:14Z</time>
      </trkpt>
      <trkpt lat="45.71114" lon="5.51889">
        <ele>207.38</ele>
        <time>2015-05-22T15:01:25Z</time>
      </trkpt>
      <trkpt lat="45.71112" lon="5.51884">
        <ele>207.45</ele>
        <time>2015-05-22T15:01:26Z</time>
      </trkpt>
      <trkpt lat="45.7111" lon="5.51879">
        <ele>207.52</ele>
        <time>2015-05-22T15:01:27Z</time>
      </trkpt>
      <trkpt lat="45.71108" lon="5.51875">
        <ele>207.6</ele>
        <time>2015-05-22T15:01:28Z</time>
      </trkpt>
      <trkpt lat="45.71105" lon="5.51871">
        <ele>207.69</ele>
        <time>2015-05-22T15:01:29Z</time>
      </trkpt>
      <trkpt lat="45.71101" lon="5.51867">
        <ele>207.75</ele>
        <time>2015-05-22T15:01:30Z</time>
      </trkpt>
      <trkpt lat="45.7107" lon="5.51837">
        <ele>208.69</ele>
        <time>2015-05-22T15:01:39Z</time>
      </trkpt>
      <trkpt lat="45.71056" lon="5.51821">
        <ele>208.94</ele>
        <time>2015-05-22T15:01:43Z</time>
      </trkpt>
      <trkpt lat="45.71053" lon="5.51818">
        <ele>209.04</ele>
        <time>2015-05-22T15:01:44Z</time>
      </trkpt>
      <trkpt lat="45.71013" lon="5.51774">
        <ele>211.02</ele>
        <time>2015-05-22T15:01:58Z</time>
      </trkpt>
      <trkpt lat="45.71014" lon="5.51763">
        <ele>211.2</ele>
        <time>2015-05-22T15:02:01Z</time>
      </trkpt>
      <trkpt lat="45.71015" lon="5.51761">
        <ele>211.24</ele>
        <time>2015-05-22T15:02:02Z</time>
      </trkpt>
      <trkpt lat="45.71018" lon="5.5176">
        <ele>211.31</ele>
        <time>2015-05-22T15:02:03Z</time>
      </trkpt>
      <trkpt lat="45.71045" lon="5.5174">
        <ele>213.34</ele>
        <time>2015-05-22T15:02:17Z</time>
      </trkpt>
      <trkpt lat="45.7107" lon="5.51714">
        <ele>216.5</ele>
        <time>2015-05-22T15:02:32Z</time>
      </trkpt>
      <trkpt lat="45.71101" lon="5.51699">
        <ele>218.74</ele>
        <time>2015-05-22T15:02:46Z</time>
      </trkpt>
      <trkpt lat="45.71103" lon="5.51698">
        <ele>218.97</ele>
        <time>2015-05-22T15:02:47Z</time>
      </trkpt>
      <trkpt lat="45.71105" lon="5.51695">
        <ele>219.04</ele>
        <time>2015-05-22T15:02:48Z</time>
      </trkpt>
      <trkpt lat="45.71106" lon="5.51692">
        <ele>219.12</ele>
        <time>2015-05-22T15:02:49Z</time>
      </trkpt>
      <trkpt lat="45.71106" lon="5.51688">
        <ele>219.17</ele>
        <time>2015-05-22T15:02:50Z</time>
      </trkpt>
      <trkpt lat="45.71106" lon="5.51684">
        <ele>219.23</ele>
        <time>2015-05-22T15:02:51Z</time>
      </trkpt>
      <trkpt lat="45.71109" lon="5.51639">
        <ele>219.23</ele>
        <time>2015-05-22T15:02:59Z</time>
      </trkpt>
      <trkpt lat="45.7111" lon="5.51632">
        <ele>219.18</ele>
        <time>2015-05-22T15:03:00Z</time>
      </trkpt>
      <trkpt lat="45.71111" lon="5.51626">
        <ele>219.16</ele>
        <time>2015-05-22T15:03:01Z</time>
      </trkpt>
      <trkpt lat="45.71112" lon="5.5162">
        <ele>219.14</ele>
        <time>2015-05-22T15:03:02Z</time>
      </trkpt>
      <trkpt lat="45.71113" lon="5.51613">
        <ele>219.13</ele>
        <time>2015-05-22T15:03:03Z</time>
      </trkpt>
      <trkpt lat="45.71114" lon="5.51607">
        <ele>219.14</ele>
        <time>2015-05-22T15:03:04Z</time>
      </trkpt>
      <trkpt lat="45.71114" lon="5.51601">
        <ele>219.15</ele>
        <time>2015-05-22T15:03:05Z</time>
      </trkpt>
      <trkpt lat="45.71115" lon="5.51594">
        <ele>219.18</ele>
        <time>2015-05-22T15:03:06Z</time>
      </trkpt>
      <trkpt lat="45.71115" lon="5.51588">
        <ele>219.21</ele>
        <time>2015-05-22T15:03:07Z</time>
      </trkpt>
      <trkpt lat="45.71114" lon="5.51534">
        <ele>220.44</ele>
        <time>2015-05-22T15:03:19Z</time>
      </trkpt>
      <trkpt lat="45.7111" lon="5.51488">
        <ele>223.35</ele>
        <time>2015-05-22T15:03:32Z</time>
      </trkpt>
      <trkpt lat="45.71108" lon="5.51429">
        <ele>225.57</ele>
        <time>2015-05-22T15:03:45Z</time>
      </trkpt>
      <trkpt lat="45.71119" lon="5.51342">
        <ele>227.02</ele>
        <time>2015-05-22T15:04:00Z</time>
      </trkpt>
      <trkpt lat="45.7114" lon="5.51222">
        <ele>225.98</ele>
        <time>2015-05-22T15:04:17Z</time>
      </trkpt>
      <trkpt lat="45.7115" lon="5.51133">
        <ele>224.03</ele>
        <time>2015-05-22T15:04:27Z</time>
      </trkpt>
      <trkpt lat="45.71153" lon="5.51126">
        <ele>223.87</ele>
        <time>2015-05-22T15:04:28Z</time>
      </trkpt>
      <trkpt lat="45.71156" lon="5.51119">
        <ele>223.7</ele>
        <time>2015-05-22T15:04:29Z</time>
      </trkpt>
      <trkpt lat="45.71159" lon="5.51111">
        <ele>223.55</ele>
        <time>2015-05-22T15:04:30Z</time>
      </trkpt>
      <trkpt lat="45.71162" lon="5.51104">
        <ele>223.43</ele>
        <time>2015-05-22T15:04:31Z</time>
      </trkpt>
      <trkpt lat="45.712" lon="5.50959">
        <ele>222.88</ele>
        <time>2015-05-22T15:04:48Z</time>
      </trkpt>
      <trkpt lat="45.71219" lon="5.50858">
        <ele>223.01</ele>
        <time>2015-05-22T15:05:00Z</time>
      </trkpt>
      <trkpt lat="45.7122" lon="5.5085">
        <ele>223.04</ele>
        <time>2015-05-22T15:05:01Z</time>
      </trkpt>
      <trkpt lat="45.71241" lon="5.50748">
        <ele>223.85</ele>
        <time>2015-05-22T15:05:14Z</time>
      </trkpt>
      <trkpt lat="45.71243" lon="5.50741">
        <ele>223.92</ele>
        <time>2015-05-22T15:05:15Z</time>
      </trkpt>
      <trkpt lat="45.71271" lon="5.50615">
        <ele>225.7</ele>
        <time>2015-05-22T15:05:33Z</time>
      </trkpt>
      <trkpt lat="45.713" lon="5.50492">
        <ele>226.68</ele>
        <time>2015-05-22T15:05:52Z</time>
      </trkpt>
      <trkpt lat="45.71324" lon="5.50414">
        <ele>229.06</ele>
        <time>2015-05-22T15:06:10Z</time>
      </trkpt>
      <trkpt lat="45.71373" lon="5.50323">
        <ele>230.86</ele>
        <time>2015-05-22T15:06:29Z</time>
      </trkpt>
      <trkpt lat="45.71422" lon="5.50233">
        <ele>228.98</ele>
        <time>2015-05-22T15:06:41Z</time>
      </trkpt>
      <trkpt lat="45.71471" lon="5.50143">
        <ele>226.46</ele>
        <time>2015-05-22T15:06:53Z</time>
      </trkpt>
      <trkpt lat="45.71512" lon="5.50043">
        <ele>227.7</ele>
        <time>2015-05-22T15:07:09Z</time>
      </trkpt>
      <trkpt lat="45.71514" lon="5.50038">
        <ele>227.8</ele>
        <time>2015-05-22T15:07:10Z</time>
      </trkpt>
      <trkpt lat="45.71531" lon="5.49994">
        <ele>228.67</ele>
        <time>2015-05-22T15:07:18Z</time>
      </trkpt>
      <trkpt lat="45.71575" lon="5.49924">
        <ele>230.23</ele>
        <time>2015-05-22T15:07:34Z</time>
      </trkpt>
      <trkpt lat="45.71618" lon="5.49859">
        <ele>230.7</ele>
        <time>2015-05-22T15:07:48Z</time>
      </trkpt>
      <trkpt lat="45.71654" lon="5.49806">
        <ele>231.18</ele>
        <time>2015-05-22T15:08:00Z</time>
      </trkpt>
      <trkpt lat="45.71668" lon="5.49791">
        <ele>231.31</ele>
        <time>2015-05-22T15:08:04Z</time>
      </trkpt>
      <trkpt lat="45.71735" lon="5.49747">
        <ele>230.9</ele>
        <time>2015-05-22T15:08:18Z</time>
      </trkpt>
      <trkpt lat="45.71807" lon="5.49681">
        <ele>231.59</ele>
        <time>2015-05-22T15:08:38Z</time>
      </trkpt>
      <trkpt lat="45.71875" lon="5.49578">
        <ele>231.91</ele>
        <time>2015-05-22T15:08:59Z</time>
      </trkpt>
      <trkpt lat="45.71907" lon="5.4953">
        <ele>232.35</ele>
        <time>2015-05-22T15:09:09Z</time>
      </trkpt>
      <trkpt lat="45.7191" lon="5.49526">
        <ele>232.39</ele>
        <time>2015-05-22T15:09:10Z</time>
      </trkpt>
      <trkpt lat="45.71966" lon="5.49435">
        <ele>233.39</ele>
        <time>2015-05-22T15:09:31Z</time>
      </trkpt>
      <trkpt lat="45.7202" lon="5.49343">
        <ele>234.47</ele>
        <time>2015-05-22T15:09:51Z</time>
      </trkpt>
      <trkpt lat="45.72069" lon="5.49264">
        <ele>236.2</ele>
        <time>2015-05-22T15:10:10Z</time>
      </trkpt>
      <trkpt lat="45.721" lon="5.49212">
        <ele>237.2</ele>
        <time>2015-05-22T15:10:24Z</time>
      </trkpt>
      <trkpt lat="45.72132" lon="5.49149">
        <ele>238.83</ele>
        <time>2015-05-22T15:10:40Z</time>
      </trkpt>
      <trkpt lat="45.72161" lon="5.49083">
        <ele>240.47</ele>
        <time>2015-05-22T15:10:56Z</time>
      </trkpt>
      <trkpt lat="45.72189" lon="5.49023">
        <ele>242.26</ele>
        <time>2015-05-22T15:11:12Z</time>
      </trkpt>
      <trkpt lat="45.72232" lon="5.48979">
        <ele>243.11</ele>
        <time>2015-05-22T15:11:29Z</time>
      </trkpt>
      <trkpt lat="45.72271" lon="5.48952">
        <ele>244.3</ele>
        <time>2015-05-22T15:11:43Z</time>
      </trkpt>
      <trkpt lat="45.72312" lon="5.48922">
        <ele>245.45</ele>
        <time>2015-05-22T15:11:57Z</time>
      </trkpt>
      <trkpt lat="45.72362" lon="5.48894">
        <ele>245.93</ele>
        <time>2015-05-22T15:12:11Z</time>
      </trkpt>
      <trkpt lat="45.72403" lon="5.48881">
        <ele>245.88</ele>
        <time>2015-05-22T15:12:21Z</time>
      </trkpt>
      <trkpt lat="45.72415" lon="5.48873">
        <ele>245.68</ele>
        <time>2015-05-22T15:12:24Z</time>
      </trkpt>
      <trkpt lat="45.72485" lon="5.48824">
        <ele>243.69</ele>
        <time>2015-05-22T15:12:38Z</time>
      </trkpt>
      <trkpt lat="45.72534" lon="5.48783">
        <ele>243.54</ele>
        <time>2015-05-22T15:12:50Z</time>
      </trkpt>
      <trkpt lat="45.7258" lon="5.48741">
        <ele>244.36</ele>
        <time>2015-05-22T15:13:06Z</time>
      </trkpt>
      <trkpt lat="45.72617" lon="5.48735">
        <ele>245.01</ele>
        <time>2015-05-22T15:13:18Z</time>
      </trkpt>
      <trkpt lat="45.72671" lon="5.48743">
        <ele>245.42</ele>
        <time>2015-05-22T15:13:32Z</time>
      </trkpt>
      <trkpt lat="45.72723" lon="5.48733">
        <ele>244.45</ele>
        <time>2015-05-22T15:13:43Z</time>
      </trkpt>
      <trkpt lat="45.72729" lon="5.48735">
        <ele>244.28</ele>
        <time>2015-05-22T15:13:44Z</time>
      </trkpt>
      <trkpt lat="45.72734" lon="5.48738">
        <ele>243.85</ele>
        <time>2015-05-22T15:13:45Z</time>
      </trkpt>
      <trkpt lat="45.72739" lon="5.48744">
        <ele>243.85</ele>
        <time>2015-05-22T15:13:46Z</time>
      </trkpt>
      <trkpt lat="45.72744" lon="5.48751">
        <ele>243.15</ele>
        <time>2015-05-22T15:13:47Z</time>
      </trkpt>
      <trkpt lat="45.72748" lon="5.48758">
        <ele>242.71</ele>
        <time>2015-05-22T15:13:48Z</time>
      </trkpt>
      <trkpt lat="45.72772" lon="5.48797">
        <ele>241.27</ele>
        <time>2015-05-22T15:13:54Z</time>
      </trkpt>
      <trkpt lat="45.72799" lon="5.48827">
        <ele>242.02</ele>
        <time>2015-05-22T15:14:04Z</time>
      </trkpt>
      <trkpt lat="45.72801" lon="5.48828">
        <ele>242.16</ele>
        <time>2015-05-22T15:14:05Z</time>
      </trkpt>
      <trkpt lat="45.72803" lon="5.48829">
        <ele>242.33</ele>
        <time>2015-05-22T15:14:06Z</time>
      </trkpt>
      <trkpt lat="45.72815" lon="5.48837">
        <ele>243.68</ele>
        <time>2015-05-22T15:14:13Z</time>
      </trkpt>
      <trkpt lat="45.72829" lon="5.48843">
        <ele>244.97</ele>
        <time>2015-05-22T15:14:20Z</time>
      </trkpt>
      <trkpt lat="45.72857" lon="5.48838">
        <ele>246.01</ele>
        <time>2015-05-22T15:14:30Z</time>
      </trkpt>
      <trkpt lat="45.72877" lon="5.48834">
        <ele>245.91</ele>
        <time>2015-05-22T15:14:35Z</time>
      </trkpt>
      <trkpt lat="45.72919" lon="5.48831">
        <ele>246.38</ele>
        <time>2015-05-22T15:14:45Z</time>
      </trkpt>
      <trkpt lat="45.72924" lon="5.4883">
        <ele>246.48</ele>
        <time>2015-05-22T15:14:46Z</time>
      </trkpt>
      <trkpt lat="45.72959" lon="5.48824">
        <ele>246.62</ele>
        <time>2015-05-22T15:14:54Z</time>
      </trkpt>
      <trkpt lat="45.73008" lon="5.488">
        <ele>246.52</ele>
        <time>2015-05-22T15:15:06Z</time>
      </trkpt>
      <trkpt lat="45.73049" lon="5.48786">
        <ele>248.37</ele>
        <time>2015-05-22T15:15:20Z</time>
      </trkpt>
      <trkpt lat="45.73093" lon="5.48771">
        <ele>250.3</ele>
        <time>2015-05-22T15:15:35Z</time>
      </trkpt>
      <trkpt lat="45.73121" lon="5.48763">
        <ele>251.26</ele>
        <time>2015-05-22T15:15:48Z</time>
      </trkpt>
      <trkpt lat="45.7312" lon="5.48767">
        <ele>251.42</ele>
        <time>2015-05-22T15:16:09Z</time>
      </trkpt>
      <trkpt lat="45.73122" lon="5.48766">
        <ele>251.49</ele>
        <time>2015-05-22T15:16:38Z</time>
      </trkpt>
      <trkpt lat="45.73119" lon="5.48766">
        <ele>251.39</ele>
        <time>2015-05-22T15:17:09Z</time>
      </trkpt>
      <trkpt lat="45.73124" lon="5.48764">
        <ele>251.81</ele>
        <time>2015-05-22T15:17:33Z</time>
      </trkpt>
      <trkpt lat="45.73126" lon="5.48763">
        <ele>252.19</ele>
        <time>2015-05-22T15:18:04Z</time>
      </trkpt>
      <trkpt lat="45.73127" lon="5.48763">
        <ele>251.69</ele>
        <time>2015-05-22T15:18:33Z</time>
      </trkpt>
      <trkpt lat="45.73129" lon="5.48762">
        <ele>251.91</ele>
        <time>2015-05-22T15:19:11Z</time>
      </trkpt>
      <trkpt lat="45.7313" lon="5.48764">
        <ele>251.4</ele>
        <time>2015-05-22T15:19:41Z</time>
      </trkpt>
      <trkpt lat="45.7313" lon="5.48763">
        <ele>250.92</ele>
        <time>2015-05-22T15:20:15Z</time>
      </trkpt>
      <trkpt lat="45.73134" lon="5.48756">
        <ele>251.92</ele>
        <time>2015-05-22T15:20:35Z</time>
      </trkpt>
      <trkpt lat="45.73136" lon="5.48755">
        <ele>251.95</ele>
        <time>2015-05-22T15:20:36Z</time>
      </trkpt>
      <trkpt lat="45.73138" lon="5.48753">
        <ele>252</ele>
        <time>2015-05-22T15:20:37Z</time>
      </trkpt>
      <trkpt lat="45.73141" lon="5.48752">
        <ele>252.06</ele>
        <time>2015-05-22T15:20:38Z</time>
      </trkpt>
      <trkpt lat="45.73143" lon="5.48751">
        <ele>252.16</ele>
        <time>2015-05-22T15:20:39Z</time>
      </trkpt>
      <trkpt lat="45.73183" lon="5.48728">
        <ele>254.52</ele>
        <time>2015-05-22T15:20:55Z</time>
      </trkpt>
      <trkpt lat="45.73211" lon="5.48709">
        <ele>257.16</ele>
        <time>2015-05-22T15:21:09Z</time>
      </trkpt>
      <trkpt lat="45.73234" lon="5.48693">
        <ele>260.02</ele>
        <time>2015-05-22T15:21:22Z</time>
      </trkpt>
      <trkpt lat="45.73256" lon="5.48672">
        <ele>262.99</ele>
        <time>2015-05-22T15:21:35Z</time>
      </trkpt>
      <trkpt lat="45.73272" lon="5.48651">
        <ele>266.13</ele>
        <time>2015-05-22T15:21:46Z</time>
      </trkpt>
      <trkpt lat="45.73278" lon="5.48638">
        <ele>267.59</ele>
        <time>2015-05-22T15:21:53Z</time>
      </trkpt>
      <trkpt lat="45.73279" lon="5.48636">
        <ele>267.72</ele>
        <time>2015-05-22T15:21:54Z</time>
      </trkpt>
      <trkpt lat="45.73281" lon="5.48633">
        <ele>267.82</ele>
        <time>2015-05-22T15:21:55Z</time>
      </trkpt>
      <trkpt lat="45.73283" lon="5.48631">
        <ele>267.91</ele>
        <time>2015-05-22T15:21:56Z</time>
      </trkpt>
      <trkpt lat="45.73284" lon="5.48629">
        <ele>267.98</ele>
        <time>2015-05-22T15:21:57Z</time>
      </trkpt>
      <trkpt lat="45.73306" lon="5.48598">
        <ele>269.65</ele>
        <time>2015-05-22T15:22:09Z</time>
      </trkpt>
      <trkpt lat="45.73335" lon="5.48582">
        <ele>271.56</ele>
        <time>2015-05-22T15:22:21Z</time>
      </trkpt>
      <trkpt lat="45.73363" lon="5.48553">
        <ele>273.45</ele>
        <time>2015-05-22T15:22:35Z</time>
      </trkpt>
      <trkpt lat="45.73397" lon="5.48504">
        <ele>275.9</ele>
        <time>2015-05-22T15:22:54Z</time>
      </trkpt>
      <trkpt lat="45.73431" lon="5.48457">
        <ele>278.43</ele>
        <time>2015-05-22T15:23:10Z</time>
      </trkpt>
      <trkpt lat="45.73485" lon="5.48415">
        <ele>278.25</ele>
        <time>2015-05-22T15:23:23Z</time>
      </trkpt>
      <trkpt lat="45.73555" lon="5.48338">
        <ele>275.18</ele>
        <time>2015-05-22T15:23:38Z</time>
      </trkpt>
      <trkpt lat="45.73663" lon="5.4829">
        <ele>273.57</ele>
        <time>2015-05-22T15:23:59Z</time>
      </trkpt>
      <trkpt lat="45.73717" lon="5.48283">
        <ele>275.3</ele>
        <time>2015-05-22T15:24:14Z</time>
      </trkpt>
      <trkpt lat="45.73762" lon="5.48263">
        <ele>277.7</ele>
        <time>2015-05-22T15:24:28Z</time>
      </trkpt>
      <trkpt lat="45.73845" lon="5.48202">
        <ele>277.48</ele>
        <time>2015-05-22T15:24:48Z</time>
      </trkpt>
      <trkpt lat="45.73881" lon="5.48175">
        <ele>277.71</ele>
        <time>2015-05-22T15:24:56Z</time>
      </trkpt>
      <trkpt lat="45.73944" lon="5.48143">
        <ele>278.34</ele>
        <time>2015-05-22T15:25:11Z</time>
      </trkpt>
      <trkpt lat="45.73984" lon="5.48123">
        <ele>280.41</ele>
        <time>2015-05-22T15:25:28Z</time>
      </trkpt>
      <trkpt lat="45.74006" lon="5.48109">
        <ele>282.38</ele>
        <time>2015-05-22T15:25:43Z</time>
      </trkpt>
      <trkpt lat="45.74009" lon="5.4811">
        <ele>282.88</ele>
        <time>2015-05-22T15:26:30Z</time>
      </trkpt>
      <trkpt lat="45.74023" lon="5.4809">
        <ele>282.95</ele>
        <time>2015-05-22T15:26:41Z</time>
      </trkpt>
      <trkpt lat="45.7407" lon="5.48045">
        <ele>285.97</ele>
        <time>2015-05-22T15:26:58Z</time>
      </trkpt>
      <trkpt lat="45.74106" lon="5.47998">
        <ele>289.09</ele>
        <time>2015-05-22T15:27:12Z</time>
      </trkpt>
      <trkpt lat="45.74164" lon="5.47937">
        <ele>290.81</ele>
        <time>2015-05-22T15:27:29Z</time>
      </trkpt>
      <trkpt lat="45.74191" lon="5.479">
        <ele>291.08</ele>
        <time>2015-05-22T15:27:37Z</time>
      </trkpt>
      <trkpt lat="45.74195" lon="5.47897">
        <ele>291.13</ele>
        <time>2015-05-22T15:27:38Z</time>
      </trkpt>
      <trkpt lat="45.74238" lon="5.47876">
        <ele>293.12</ele>
        <time>2015-05-22T15:27:51Z</time>
      </trkpt>
      <trkpt lat="45.74289" lon="5.47857">
        <ele>294.73</ele>
        <time>2015-05-22T15:28:07Z</time>
      </trkpt>
      <trkpt lat="45.74293" lon="5.47855">
        <ele>294.76</ele>
        <time>2015-05-22T15:28:08Z</time>
      </trkpt>
      <trkpt lat="45.74298" lon="5.47853">
        <ele>294.8</ele>
        <time>2015-05-22T15:28:09Z</time>
      </trkpt>
      <trkpt lat="45.74303" lon="5.47851">
        <ele>294.82</ele>
        <time>2015-05-22T15:28:10Z</time>
      </trkpt>
      <trkpt lat="45.74308" lon="5.47849">
        <ele>294.84</ele>
        <time>2015-05-22T15:28:11Z</time>
      </trkpt>
      <trkpt lat="45.74407" lon="5.47818">
        <ele>292.41</ele>
        <time>2015-05-22T15:28:30Z</time>
      </trkpt>
      <trkpt lat="45.7446" lon="5.47795">
        <ele>290.74</ele>
        <time>2015-05-22T15:28:37Z</time>
      </trkpt>
      <trkpt lat="45.74504" lon="5.47757">
        <ele>288.17</ele>
        <time>2015-05-22T15:28:43Z</time>
      </trkpt>
      <trkpt lat="45.74512" lon="5.47754">
        <ele>287.48</ele>
        <time>2015-05-22T15:28:44Z</time>
      </trkpt>
      <trkpt lat="45.74521" lon="5.47752">
        <ele>286.17</ele>
        <time>2015-05-22T15:28:45Z</time>
      </trkpt>
      <trkpt lat="45.7453" lon="5.47751">
        <ele>285.55</ele>
        <time>2015-05-22T15:28:46Z</time>
      </trkpt>
      <trkpt lat="45.7454" lon="5.4775">
        <ele>284.89</ele>
        <time>2015-05-22T15:28:47Z</time>
      </trkpt>
      <trkpt lat="45.74587" lon="5.47747">
        <ele>281.17</ele>
        <time>2015-05-22T15:28:52Z</time>
      </trkpt>
      <trkpt lat="45.74622" lon="5.47748">
        <ele>278.04</ele>
        <time>2015-05-22T15:28:56Z</time>
      </trkpt>
      <trkpt lat="45.74655" lon="5.47753">
        <ele>274.49</ele>
        <time>2015-05-22T15:29:00Z</time>
      </trkpt>
      <trkpt lat="45.74692" lon="5.4776">
        <ele>271.01</ele>
        <time>2015-05-22T15:29:04Z</time>
      </trkpt>
      <trkpt lat="45.74726" lon="5.47766">
        <ele>267.81</ele>
        <time>2015-05-22T15:29:08Z</time>
      </trkpt>
      <trkpt lat="45.74752" lon="5.47773">
        <ele>264.75</ele>
        <time>2015-05-22T15:29:11Z</time>
      </trkpt>
      <trkpt lat="45.74759" lon="5.47778">
        <ele>263.99</ele>
        <time>2015-05-22T15:29:12Z</time>
      </trkpt>
      <trkpt lat="45.74769" lon="5.47787">
        <ele>263.15</ele>
        <time>2015-05-22T15:29:13Z</time>
      </trkpt>
      <trkpt lat="45.74778" lon="5.47799">
        <ele>262.25</ele>
        <time>2015-05-22T15:29:14Z</time>
      </trkpt>
      <trkpt lat="45.74784" lon="5.47809">
        <ele>261.34</ele>
        <time>2015-05-22T15:29:15Z</time>
      </trkpt>
      <trkpt lat="45.74788" lon="5.47821">
        <ele>260.42</ele>
        <time>2015-05-22T15:29:16Z</time>
      </trkpt>
      <trkpt lat="45.74791" lon="5.47834">
        <ele>259.55</ele>
        <time>2015-05-22T15:29:17Z</time>
      </trkpt>
      <trkpt lat="45.74794" lon="5.47849">
        <ele>258.7</ele>
        <time>2015-05-22T15:29:18Z</time>
      </trkpt>
      <trkpt lat="45.74805" lon="5.47907">
        <ele>255.19</ele>
        <time>2015-05-22T15:29:22Z</time>
      </trkpt>
      <trkpt lat="45.74807" lon="5.47921">
        <ele>254.32</ele>
        <time>2015-05-22T15:29:23Z</time>
      </trkpt>
      <trkpt lat="45.74807" lon="5.47936">
        <ele>253.46</ele>
        <time>2015-05-22T15:29:24Z</time>
      </trkpt>
      <trkpt lat="45.74806" lon="5.47996">
        <ele>250.05</ele>
        <time>2015-05-22T15:29:28Z</time>
      </trkpt>
      <trkpt lat="45.74806" lon="5.48046">
        <ele>246.19</ele>
        <time>2015-05-22T15:29:32Z</time>
      </trkpt>
      <trkpt lat="45.74805" lon="5.48073">
        <ele>242.34</ele>
        <time>2015-05-22T15:29:35Z</time>
      </trkpt>
      <trkpt lat="45.74807" lon="5.48078">
        <ele>241.39</ele>
        <time>2015-05-22T15:29:36Z</time>
      </trkpt>
      <trkpt lat="45.7481" lon="5.48083">
        <ele>240.47</ele>
        <time>2015-05-22T15:29:37Z</time>
      </trkpt>
      <trkpt lat="45.74815" lon="5.48084">
        <ele>238.92</ele>
        <time>2015-05-22T15:29:39Z</time>
      </trkpt>
      <trkpt lat="45.74818" lon="5.48078">
        <ele>238.24</ele>
        <time>2015-05-22T15:29:40Z</time>
      </trkpt>
      <trkpt lat="45.74824" lon="5.4806">
        <ele>237.05</ele>
        <time>2015-05-22T15:29:42Z</time>
      </trkpt>
      <trkpt lat="45.74825" lon="5.4805">
        <ele>236.5</ele>
        <time>2015-05-22T15:29:43Z</time>
      </trkpt>
      <trkpt lat="45.74835" lon="5.48003">
        <ele>234.19</ele>
        <time>2015-05-22T15:29:47Z</time>
      </trkpt>
      <trkpt lat="45.74837" lon="5.4799">
        <ele>233.51</ele>
        <time>2015-05-22T15:29:48Z</time>
      </trkpt>
      <trkpt lat="45.74852" lon="5.47926">
        <ele>230.34</ele>
        <time>2015-05-22T15:29:53Z</time>
      </trkpt>
      <trkpt lat="45.74857" lon="5.47885">
        <ele>226.55</ele>
        <time>2015-05-22T15:29:57Z</time>
      </trkpt>
      <trkpt lat="45.74856" lon="5.47876">
        <ele>226.55</ele>
        <time>2015-05-22T15:29:58Z</time>
      </trkpt>
      <trkpt lat="45.74858" lon="5.47867">
        <ele>225.07</ele>
        <time>2015-05-22T15:29:59Z</time>
      </trkpt>
      <trkpt lat="45.74859" lon="5.47859">
        <ele>224.33</ele>
        <time>2015-05-22T15:30:00Z</time>
      </trkpt>
      <trkpt lat="45.74862" lon="5.47841">
        <ele>222.9</ele>
        <time>2015-05-22T15:30:02Z</time>
      </trkpt>
      <trkpt lat="45.74862" lon="5.47831">
        <ele>222.25</ele>
        <time>2015-05-22T15:30:03Z</time>
      </trkpt>
      <trkpt lat="45.74862" lon="5.47822">
        <ele>221.68</ele>
        <time>2015-05-22T15:30:04Z</time>
      </trkpt>
      <trkpt lat="45.74869" lon="5.47793">
        <ele>220.25</ele>
        <time>2015-05-22T15:30:07Z</time>
      </trkpt>
      <trkpt lat="45.74872" lon="5.47784">
        <ele>219.86</ele>
        <time>2015-05-22T15:30:08Z</time>
      </trkpt>
      <trkpt lat="45.74876" lon="5.47775">
        <ele>219.54</ele>
        <time>2015-05-22T15:30:09Z</time>
      </trkpt>
      <trkpt lat="45.74881" lon="5.47766">
        <ele>219.26</ele>
        <time>2015-05-22T15:30:10Z</time>
      </trkpt>
      <trkpt lat="45.74885" lon="5.47757">
        <ele>218.98</ele>
        <time>2015-05-22T15:30:11Z</time>
      </trkpt>
      <trkpt lat="45.74917" lon="5.4768">
        <ele>216.81</ele>
        <time>2015-05-22T15:30:19Z</time>
      </trkpt>
      <trkpt lat="45.74925" lon="5.47639">
        <ele>215.64</ele>
        <time>2015-05-22T15:30:23Z</time>
      </trkpt>
      <trkpt lat="45.74945" lon="5.47569">
        <ele>214.72</ele>
        <time>2015-05-22T15:30:31Z</time>
      </trkpt>
      <trkpt lat="45.74948" lon="5.47562">
        <ele>214.71</ele>
        <time>2015-05-22T15:30:32Z</time>
      </trkpt>
      <trkpt lat="45.74962" lon="5.47534">
        <ele>214.69</ele>
        <time>2015-05-22T15:30:36Z</time>
      </trkpt>
      <trkpt lat="45.75021" lon="5.47415">
        <ele>213.29</ele>
        <time>2015-05-22T15:30:52Z</time>
      </trkpt>
      <trkpt lat="45.75025" lon="5.47408">
        <ele>213.15</ele>
        <time>2015-05-22T15:30:53Z</time>
      </trkpt>
      <trkpt lat="45.75109" lon="5.47289">
        <ele>211.2</ele>
        <time>2015-05-22T15:31:11Z</time>
      </trkpt>
      <trkpt lat="45.75115" lon="5.47278">
        <ele>211.28</ele>
        <time>2015-05-22T15:31:13Z</time>
      </trkpt>
      <trkpt lat="45.75168" lon="5.47192">
        <ele>213.38</ele>
        <time>2015-05-22T15:31:31Z</time>
      </trkpt>
      <trkpt lat="45.75218" lon="5.47118">
        <ele>216.15</ele>
        <time>2015-05-22T15:31:47Z</time>
      </trkpt>
      <trkpt lat="45.75271" lon="5.4704">
        <ele>217.32</ele>
        <time>2015-05-22T15:32:04Z</time>
      </trkpt>
      <trkpt lat="45.75332" lon="5.46946">
        <ele>218.03</ele>
        <time>2015-05-22T15:32:22Z</time>
      </trkpt>
      <trkpt lat="45.75389" lon="5.46837">
        <ele>218.3</ele>
        <time>2015-05-22T15:32:41Z</time>
      </trkpt>
      <trkpt lat="45.75436" lon="5.46707">
        <ele>217.94</ele>
        <time>2015-05-22T15:32:59Z</time>
      </trkpt>
      <trkpt lat="45.75492" lon="5.46562">
        <ele>217.3</ele>
        <time>2015-05-22T15:33:21Z</time>
      </trkpt>
      <trkpt lat="45.75539" lon="5.46474">
        <ele>218</ele>
        <time>2015-05-22T15:33:38Z</time>
      </trkpt>
      <trkpt lat="45.75582" lon="5.46382">
        <ele>218.21</ele>
        <time>2015-05-22T15:33:54Z</time>
      </trkpt>
      <trkpt lat="45.75647" lon="5.46269">
        <ele>217.55</ele>
        <time>2015-05-22T15:34:13Z</time>
      </trkpt>
      <trkpt lat="45.75699" lon="5.46186">
        <ele>216.98</ele>
        <time>2015-05-22T15:34:27Z</time>
      </trkpt>
      <trkpt lat="45.75759" lon="5.46092">
        <ele>216.91</ele>
        <time>2015-05-22T15:34:44Z</time>
      </trkpt>
      <trkpt lat="45.75814" lon="5.46">
        <ele>216.98</ele>
        <time>2015-05-22T15:35:03Z</time>
      </trkpt>
      <trkpt lat="45.75858" lon="5.45929">
        <ele>217.56</ele>
        <time>2015-05-22T15:35:19Z</time>
      </trkpt>
      <trkpt lat="45.75893" lon="5.45872">
        <ele>217.79</ele>
        <time>2015-05-22T15:35:33Z</time>
      </trkpt>
      <trkpt lat="45.75947" lon="5.45784">
        <ele>218.05</ele>
        <time>2015-05-22T15:35:51Z</time>
      </trkpt>
      <trkpt lat="45.75999" lon="5.45715">
        <ele>217.08</ele>
        <time>2015-05-22T15:36:05Z</time>
      </trkpt>
      <trkpt lat="45.76069" lon="5.45673">
        <ele>216.58</ele>
        <time>2015-05-22T15:36:22Z</time>
      </trkpt>
      <trkpt lat="45.76146" lon="5.45633">
        <ele>216.62</ele>
        <time>2015-05-22T15:36:42Z</time>
      </trkpt>
      <trkpt lat="45.76211" lon="5.45568">
        <ele>216.93</ele>
        <time>2015-05-22T15:37:01Z</time>
      </trkpt>
      <trkpt lat="45.76248" lon="5.45534">
        <ele>217.56</ele>
        <time>2015-05-22T15:37:14Z</time>
      </trkpt>
      <trkpt lat="45.76258" lon="5.45533">
        <ele>216.88</ele>
        <time>2015-05-22T15:37:23Z</time>
      </trkpt>
      <trkpt lat="45.76257" lon="5.45534">
        <ele>216.09</ele>
        <time>2015-05-22T15:37:54Z</time>
      </trkpt>
      <trkpt lat="45.76253" lon="5.45534">
        <ele>215.9</ele>
        <time>2015-05-22T15:38:24Z</time>
      </trkpt>
      <trkpt lat="45.76255" lon="5.45532">
        <ele>215.97</ele>
        <time>2015-05-22T15:38:50Z</time>
      </trkpt>
      <trkpt lat="45.76258" lon="5.45533">
        <ele>216.04</ele>
        <time>2015-05-22T15:39:26Z</time>
      </trkpt>
      <trkpt lat="45.76256" lon="5.45536">
        <ele>216.08</ele>
        <time>2015-05-22T15:40:03Z</time>
      </trkpt>
      <trkpt lat="45.76259" lon="5.45535">
        <ele>216.15</ele>
        <time>2015-05-22T15:40:37Z</time>
      </trkpt>
      <trkpt lat="45.76259" lon="5.45535">
        <ele>215.78</ele>
        <time>2015-05-22T15:41:11Z</time>
      </trkpt>
      <trkpt lat="45.76254" lon="5.45533">
        <ele>216.13</ele>
        <time>2015-05-22T15:41:39Z</time>
      </trkpt>
      <trkpt lat="45.76257" lon="5.45525">
        <ele>216.22</ele>
        <time>2015-05-22T15:41:47Z</time>
      </trkpt>
      <trkpt lat="45.76258" lon="5.45523">
        <ele>216.28</ele>
        <time>2015-05-22T15:41:48Z</time>
      </trkpt>
      <trkpt lat="45.7626" lon="5.45521">
        <ele>216.31</ele>
        <time>2015-05-22T15:41:49Z</time>
      </trkpt>
      <trkpt lat="45.76262" lon="5.45519">
        <ele>216.34</ele>
        <time>2015-05-22T15:41:50Z</time>
      </trkpt>
      <trkpt lat="45.76265" lon="5.45517">
        <ele>216.36</ele>
        <time>2015-05-22T15:41:51Z</time>
      </trkpt>
      <trkpt lat="45.76268" lon="5.45514">
        <ele>216.39</ele>
        <time>2015-05-22T15:41:52Z</time>
      </trkpt>
      <trkpt lat="45.76318" lon="5.4547">
        <ele>216.13</ele>
        <time>2015-05-22T15:42:07Z</time>
      </trkpt>
      <trkpt lat="45.76379" lon="5.45413">
        <ele>215.39</ele>
        <time>2015-05-22T15:42:22Z</time>
      </trkpt>
      <trkpt lat="45.76457" lon="5.45338">
        <ele>214.37</ele>
        <time>2015-05-22T15:42:40Z</time>
      </trkpt>
      <trkpt lat="45.76517" lon="5.45305">
        <ele>213.72</ele>
        <time>2015-05-22T15:42:52Z</time>
      </trkpt>
      <trkpt lat="45.76599" lon="5.45309">
        <ele>213.42</ele>
        <time>2015-05-22T15:43:08Z</time>
      </trkpt>
      <trkpt lat="45.76678" lon="5.45325">
        <ele>213.03</ele>
        <time>2015-05-22T15:43:24Z</time>
      </trkpt>
      <trkpt lat="45.76742" lon="5.4534">
        <ele>213.29</ele>
        <time>2015-05-22T15:43:37Z</time>
      </trkpt>
      <trkpt lat="45.76813" lon="5.45353">
        <ele>213.38</ele>
        <time>2015-05-22T15:43:52Z</time>
      </trkpt>
      <trkpt lat="45.7689" lon="5.45357">
        <ele>212.97</ele>
        <time>2015-05-22T15:44:07Z</time>
      </trkpt>
      <trkpt lat="45.76979" lon="5.45361">
        <ele>212.18</ele>
        <time>2015-05-22T15:44:22Z</time>
      </trkpt>
      <trkpt lat="45.77064" lon="5.45362">
        <ele>211.9</ele>
        <time>2015-05-22T15:44:36Z</time>
      </trkpt>
      <trkpt lat="45.77169" lon="5.45316">
        <ele>208.97</ele>
        <time>2015-05-22T15:44:52Z</time>
      </trkpt>
      <trkpt lat="45.77258" lon="5.45263">
        <ele>206.68</ele>
        <time>2015-05-22T15:45:06Z</time>
      </trkpt>
      <trkpt lat="45.77343" lon="5.45213">
        <ele>206.49</ele>
        <time>2015-05-22T15:45:22Z</time>
      </trkpt>
      <trkpt lat="45.77426" lon="5.4516">
        <ele>206.59</ele>
        <time>2015-05-22T15:45:39Z</time>
      </trkpt>
      <trkpt lat="45.77505" lon="5.45136">
        <ele>205.7</ele>
        <time>2015-05-22T15:45:52Z</time>
      </trkpt>
      <trkpt lat="45.77574" lon="5.45122">
        <ele>203.81</ele>
        <time>2015-05-22T15:46:03Z</time>
      </trkpt>
      <trkpt lat="45.7764" lon="5.45112">
        <ele>203.09</ele>
        <time>2015-05-22T15:46:15Z</time>
      </trkpt>
      <trkpt lat="45.77707" lon="5.45099">
        <ele>203.98</ele>
        <time>2015-05-22T15:46:30Z</time>
      </trkpt>
      <trkpt lat="45.77724" lon="5.45092">
        <ele>204.36</ele>
        <time>2015-05-22T15:46:34Z</time>
      </trkpt>
      <trkpt lat="45.77729" lon="5.4509">
        <ele>204.48</ele>
        <time>2015-05-22T15:46:35Z</time>
      </trkpt>
      <trkpt lat="45.77796" lon="5.45036">
        <ele>205.19</ele>
        <time>2015-05-22T15:46:51Z</time>
      </trkpt>
      <trkpt lat="45.77852" lon="5.44959">
        <ele>206.28</ele>
        <time>2015-05-22T15:47:06Z</time>
      </trkpt>
      <trkpt lat="45.77928" lon="5.44901">
        <ele>205.79</ele>
        <time>2015-05-22T15:47:21Z</time>
      </trkpt>
      <trkpt lat="45.77998" lon="5.44893">
        <ele>204.63</ele>
        <time>2015-05-22T15:47:33Z</time>
      </trkpt>
      <trkpt lat="45.78047" lon="5.449">
        <ele>205.2</ele>
        <time>2015-05-22T15:47:44Z</time>
      </trkpt>
      <trkpt lat="45.78079" lon="5.44912">
        <ele>206.01</ele>
        <time>2015-05-22T15:47:57Z</time>
      </trkpt>
      <trkpt lat="45.78085" lon="5.44914">
        <ele>205.16</ele>
        <time>2015-05-22T15:48:08Z</time>
      </trkpt>
      <trkpt lat="45.78107" lon="5.44945">
        <ele>205.25</ele>
        <time>2015-05-22T15:48:23Z</time>
      </trkpt>
      <trkpt lat="45.78169" lon="5.45019">
        <ele>203.23</ele>
        <time>2015-05-22T15:48:35Z</time>
      </trkpt>
      <trkpt lat="45.78256" lon="5.45087">
        <ele>200.56</ele>
        <time>2015-05-22T15:48:49Z</time>
      </trkpt>
      <trkpt lat="45.78261" lon="5.45091">
        <ele>200.47</ele>
        <time>2015-05-22T15:48:50Z</time>
      </trkpt>
      <trkpt lat="45.78266" lon="5.45095">
        <ele>200.4</ele>
        <time>2015-05-22T15:48:51Z</time>
      </trkpt>
      <trkpt lat="45.78341" lon="5.45147">
        <ele>201.3</ele>
        <time>2015-05-22T15:49:05Z</time>
      </trkpt>
      <trkpt lat="45.78421" lon="5.45203">
        <ele>202.51</ele>
        <time>2015-05-22T15:49:20Z</time>
      </trkpt>
      <trkpt lat="45.78498" lon="5.45256">
        <ele>199.41</ele>
        <time>2015-05-22T15:49:34Z</time>
      </trkpt>
      <trkpt lat="45.78568" lon="5.45308">
        <ele>196.37</ele>
        <time>2015-05-22T15:49:47Z</time>
      </trkpt>
      <trkpt lat="45.78609" lon="5.45338">
        <ele>195.58</ele>
        <time>2015-05-22T15:49:56Z</time>
      </trkpt>
      <trkpt lat="45.78613" lon="5.45342">
        <ele>195.6</ele>
        <time>2015-05-22T15:49:57Z</time>
      </trkpt>
      <trkpt lat="45.78618" lon="5.45345">
        <ele>195.68</ele>
        <time>2015-05-22T15:49:58Z</time>
      </trkpt>
      <trkpt lat="45.78643" lon="5.45374">
        <ele>196.29</ele>
        <time>2015-05-22T15:50:05Z</time>
      </trkpt>
      <trkpt lat="45.78664" lon="5.45393">
        <ele>196.33</ele>
        <time>2015-05-22T15:50:11Z</time>
      </trkpt>
      <trkpt lat="45.78668" lon="5.45394">
        <ele>196.41</ele>
        <time>2015-05-22T15:50:12Z</time>
      </trkpt>
      <trkpt lat="45.78676" lon="5.45396">
        <ele>196.6</ele>
        <time>2015-05-22T15:50:14Z</time>
      </trkpt>
      <trkpt lat="45.78727" lon="5.45439">
        <ele>197.51</ele>
        <time>2015-05-22T15:50:28Z</time>
      </trkpt>
      <trkpt lat="45.78735" lon="5.45446">
        <ele>197.28</ele>
        <time>2015-05-22T15:50:38Z</time>
      </trkpt>
      <trkpt lat="45.78734" lon="5.45448">
        <ele>197.09</ele>
        <time>2015-05-22T15:51:09Z</time>
      </trkpt>
      <trkpt lat="45.78738" lon="5.45449">
        <ele>197.14</ele>
        <time>2015-05-22T15:51:34Z</time>
      </trkpt>
      <trkpt lat="45.7874" lon="5.4545">
        <ele>197.22</ele>
        <time>2015-05-22T15:51:35Z</time>
      </trkpt>
      <trkpt lat="45.78775" lon="5.45478">
        <ele>197.81</ele>
        <time>2015-05-22T15:51:45Z</time>
      </trkpt>
      <trkpt lat="45.78843" lon="5.45533">
        <ele>199.12</ele>
        <time>2015-05-22T15:52:01Z</time>
      </trkpt>
      <trkpt lat="45.78907" lon="5.45586">
        <ele>200.36</ele>
        <time>2015-05-22T15:52:16Z</time>
      </trkpt>
      <trkpt lat="45.78989" lon="5.45651">
        <ele>201.99</ele>
        <time>2015-05-22T15:52:34Z</time>
      </trkpt>
      <trkpt lat="45.7905" lon="5.45698">
        <ele>203.29</ele>
        <time>2015-05-22T15:52:48Z</time>
      </trkpt>
      <trkpt lat="45.79078" lon="5.45721">
        <ele>203.98</ele>
        <time>2015-05-22T15:52:55Z</time>
      </trkpt>
      <trkpt lat="45.79127" lon="5.45762">
        <ele>205.48</ele>
        <time>2015-05-22T15:53:09Z</time>
      </trkpt>
      <trkpt lat="45.79146" lon="5.45778">
        <ele>206.02</ele>
        <time>2015-05-22T15:53:17Z</time>
      </trkpt>
      <trkpt lat="45.79146" lon="5.4578">
        <ele>206.03</ele>
        <time>2015-05-22T15:53:18Z</time>
      </trkpt>
      <trkpt lat="45.79145" lon="5.45782">
        <ele>206.04</ele>
        <time>2015-05-22T15:53:19Z</time>
      </trkpt>
      <trkpt lat="45.7914" lon="5.4579">
        <ele>206.03</ele>
        <time>2015-05-22T15:53:31Z</time>
      </trkpt>
      <trkpt lat="45.79146" lon="5.45792">
        <ele>205.86</ele>
        <time>2015-05-22T15:53:59Z</time>
      </trkpt>
      <trkpt lat="45.79153" lon="5.45788">
        <ele>205.92</ele>
        <time>2015-05-22T15:54:30Z</time>
      </trkpt>
      <trkpt lat="45.79157" lon="5.45785">
        <ele>205.88</ele>
        <time>2015-05-22T15:54:56Z</time>
      </trkpt>
      <trkpt lat="45.7916" lon="5.45784">
        <ele>205.93</ele>
        <time>2015-05-22T15:55:29Z</time>
      </trkpt>
      <trkpt lat="45.79157" lon="5.45789">
        <ele>205.94</ele>
        <time>2015-05-22T15:55:52Z</time>
      </trkpt>
      <trkpt lat="45.79174" lon="5.45795">
        <ele>206.37</ele>
        <time>2015-05-22T15:56:02Z</time>
      </trkpt>
      <trkpt lat="45.7923" lon="5.45844">
        <ele>207.94</ele>
        <time>2015-05-22T15:56:17Z</time>
      </trkpt>
      <trkpt lat="45.79278" lon="5.45885">
        <ele>209.02</ele>
        <time>2015-05-22T15:56:30Z</time>
      </trkpt>
      <trkpt lat="45.79321" lon="5.4594">
        <ele>209.59</ele>
        <time>2015-05-22T15:56:42Z</time>
      </trkpt>
      <trkpt lat="45.7938" lon="5.46026">
        <ele>210.94</ele>
        <time>2015-05-22T15:56:59Z</time>
      </trkpt>
      <trkpt lat="45.79387" lon="5.46038">
        <ele>211.14</ele>
        <time>2015-05-22T15:57:01Z</time>
      </trkpt>
      <trkpt lat="45.79417" lon="5.4611">
        <ele>212.4</ele>
        <time>2015-05-22T15:57:15Z</time>
      </trkpt>
      <trkpt lat="45.7942" lon="5.46115">
        <ele>212.41</ele>
        <time>2015-05-22T15:57:16Z</time>
      </trkpt>
      <trkpt lat="45.79422" lon="5.4612">
        <ele>212.43</ele>
        <time>2015-05-22T15:57:17Z</time>
      </trkpt>
      <trkpt lat="45.79423" lon="5.46125">
        <ele>212.45</ele>
        <time>2015-05-22T15:57:18Z</time>
      </trkpt>
      <trkpt lat="45.79435" lon="5.46158">
        <ele>212.68</ele>
        <time>2015-05-22T15:57:24Z</time>
      </trkpt>
      <trkpt lat="45.79438" lon="5.46163">
        <ele>212.72</ele>
        <time>2015-05-22T15:57:25Z</time>
      </trkpt>
      <trkpt lat="45.79443" lon="5.46168">
        <ele>212.74</ele>
        <time>2015-05-22T15:57:26Z</time>
      </trkpt>
      <trkpt lat="45.79447" lon="5.46172">
        <ele>212.75</ele>
        <time>2015-05-22T15:57:27Z</time>
      </trkpt>
      <trkpt lat="45.79451" lon="5.46177">
        <ele>212.75</ele>
        <time>2015-05-22T15:57:28Z</time>
      </trkpt>
      <trkpt lat="45.79455" lon="5.46181">
        <ele>212.73</ele>
        <time>2015-05-22T15:57:29Z</time>
      </trkpt>
      <trkpt lat="45.79459" lon="5.46185">
        <ele>212.72</ele>
        <time>2015-05-22T15:57:30Z</time>
      </trkpt>
      <trkpt lat="45.79464" lon="5.46187">
        <ele>212.7</ele>
        <time>2015-05-22T15:57:31Z</time>
      </trkpt>
      <trkpt lat="45.79473" lon="5.46192">
        <ele>212.61</ele>
        <time>2015-05-22T15:57:33Z</time>
      </trkpt>
      <trkpt lat="45.79478" lon="5.46193">
        <ele>212.58</ele>
        <time>2015-05-22T15:57:34Z</time>
      </trkpt>
      <trkpt lat="45.79483" lon="5.46192">
        <ele>212.56</ele>
        <time>2015-05-22T15:57:35Z</time>
      </trkpt>
      <trkpt lat="45.79488" lon="5.4619">
        <ele>212.55</ele>
        <time>2015-05-22T15:57:36Z</time>
      </trkpt>
      <trkpt lat="45.79493" lon="5.46187">
        <ele>212.53</ele>
        <time>2015-05-22T15:57:37Z</time>
      </trkpt>
      <trkpt lat="45.79497" lon="5.46182">
        <ele>212.5</ele>
        <time>2015-05-22T15:57:38Z</time>
      </trkpt>
      <trkpt lat="45.795" lon="5.46175">
        <ele>212.46</ele>
        <time>2015-05-22T15:57:39Z</time>
      </trkpt>
      <trkpt lat="45.79502" lon="5.46169">
        <ele>212.4</ele>
        <time>2015-05-22T15:57:40Z</time>
      </trkpt>
      <trkpt lat="45.79504" lon="5.46162">
        <ele>212.34</ele>
        <time>2015-05-22T15:57:41Z</time>
      </trkpt>
      <trkpt lat="45.79506" lon="5.46155">
        <ele>212.28</ele>
        <time>2015-05-22T15:57:42Z</time>
      </trkpt>
      <trkpt lat="45.79506" lon="5.46148">
        <ele>212.2</ele>
        <time>2015-05-22T15:57:43Z</time>
      </trkpt>
      <trkpt lat="45.79507" lon="5.46141">
        <ele>212.13</ele>
        <time>2015-05-22T15:57:44Z</time>
      </trkpt>
      <trkpt lat="45.79517" lon="5.46078">
        <ele>211.6</ele>
        <time>2015-05-22T15:57:52Z</time>
      </trkpt>
      <trkpt lat="45.79525" lon="5.46054">
        <ele>211.45</ele>
        <time>2015-05-22T15:57:55Z</time>
      </trkpt>
      <trkpt lat="45.79532" lon="5.46039">
        <ele>211.42</ele>
        <time>2015-05-22T15:57:57Z</time>
      </trkpt>
      <trkpt lat="45.7958" lon="5.45939">
        <ele>211.33</ele>
        <time>2015-05-22T15:58:11Z</time>
      </trkpt>
      <trkpt lat="45.79585" lon="5.45933">
        <ele>211.37</ele>
        <time>2015-05-22T15:58:12Z</time>
      </trkpt>
      <trkpt lat="45.79589" lon="5.45928">
        <ele>211.39</ele>
        <time>2015-05-22T15:58:13Z</time>
      </trkpt>
      <trkpt lat="45.79594" lon="5.45923">
        <ele>211.4</ele>
        <time>2015-05-22T15:58:14Z</time>
      </trkpt>
      <trkpt lat="45.79669" lon="5.45867">
        <ele>211.81</ele>
        <time>2015-05-22T15:58:28Z</time>
      </trkpt>
      <trkpt lat="45.79684" lon="5.45857">
        <ele>212.03</ele>
        <time>2015-05-22T15:58:31Z</time>
      </trkpt>
      <trkpt lat="45.79744" lon="5.45842">
        <ele>214.02</ele>
        <time>2015-05-22T15:58:44Z</time>
      </trkpt>
      <trkpt lat="45.79801" lon="5.45837">
        <ele>215.88</ele>
        <time>2015-05-22T15:58:57Z</time>
      </trkpt>
      <trkpt lat="45.79875" lon="5.45813">
        <ele>216.26</ele>
        <time>2015-05-22T15:59:12Z</time>
      </trkpt>
      <trkpt lat="45.79958" lon="5.45766">
        <ele>215.72</ele>
        <time>2015-05-22T15:59:26Z</time>
      </trkpt>
      <trkpt lat="45.79995" lon="5.45749">
        <ele>215.25</ele>
        <time>2015-05-22T15:59:32Z</time>
      </trkpt>
      <trkpt lat="45.80063" lon="5.4572">
        <ele>214.87</ele>
        <time>2015-05-22T15:59:44Z</time>
      </trkpt>
      <trkpt lat="45.80144" lon="5.45672">
        <ele>214.68</ele>
        <time>2015-05-22T16:00:00Z</time>
      </trkpt>
      <trkpt lat="45.80206" lon="5.4562">
        <ele>215.4</ele>
        <time>2015-05-22T16:00:15Z</time>
      </trkpt>
      <trkpt lat="45.80218" lon="5.45611">
        <ele>215.68</ele>
        <time>2015-05-22T16:00:18Z</time>
      </trkpt>
      <trkpt lat="45.80226" lon="5.45605">
        <ele>215.88</ele>
        <time>2015-05-22T16:00:20Z</time>
      </trkpt>
      <trkpt lat="45.8023" lon="5.45602">
        <ele>216</ele>
        <time>2015-05-22T16:00:21Z</time>
      </trkpt>
      <trkpt lat="45.80292" lon="5.45558">
        <ele>216.87</ele>
        <time>2015-05-22T16:00:35Z</time>
      </trkpt>
      <trkpt lat="45.80355" lon="5.45517">
        <ele>217.89</ele>
        <time>2015-05-22T16:00:50Z</time>
      </trkpt>
      <trkpt lat="45.80414" lon="5.45457">
        <ele>219.17</ele>
        <time>2015-05-22T16:01:06Z</time>
      </trkpt>
      <trkpt lat="45.80455" lon="5.45425">
        <ele>219.99</ele>
        <time>2015-05-22T16:01:16Z</time>
      </trkpt>
      <trkpt lat="45.80481" lon="5.4541">
        <ele>220.45</ele>
        <time>2015-05-22T16:01:22Z</time>
      </trkpt>
      <trkpt lat="45.80489" lon="5.45405">
        <ele>220.6</ele>
        <time>2015-05-22T16:01:24Z</time>
      </trkpt>
      <trkpt lat="45.80532" lon="5.45381">
        <ele>220.94</ele>
        <time>2015-05-22T16:01:35Z</time>
      </trkpt>
      <trkpt lat="45.80537" lon="5.45382">
        <ele>220.94</ele>
        <time>2015-05-22T16:01:36Z</time>
      </trkpt>
      <trkpt lat="45.80542" lon="5.45383">
        <ele>220.93</ele>
        <time>2015-05-22T16:01:37Z</time>
      </trkpt>
      <trkpt lat="45.80575" lon="5.45391">
        <ele>220.67</ele>
        <time>2015-05-22T16:01:44Z</time>
      </trkpt>
      <trkpt lat="45.80592" lon="5.45393">
        <ele>220.38</ele>
        <time>2015-05-22T16:01:47Z</time>
      </trkpt>
      <trkpt lat="45.80597" lon="5.45392">
        <ele>220.27</ele>
        <time>2015-05-22T16:01:48Z</time>
      </trkpt>
      <trkpt lat="45.80602" lon="5.45391">
        <ele>220.18</ele>
        <time>2015-05-22T16:01:49Z</time>
      </trkpt>
      <trkpt lat="45.80607" lon="5.4539">
        <ele>220.11</ele>
        <time>2015-05-22T16:01:50Z</time>
      </trkpt>
      <trkpt lat="45.80613" lon="5.45388">
        <ele>220.04</ele>
        <time>2015-05-22T16:01:51Z</time>
      </trkpt>
      <trkpt lat="45.80618" lon="5.45386">
        <ele>219.98</ele>
        <time>2015-05-22T16:01:52Z</time>
      </trkpt>
      <trkpt lat="45.80632" lon="5.4538">
        <ele>219.63</ele>
        <time>2015-05-22T16:01:55Z</time>
      </trkpt>
      <trkpt lat="45.80637" lon="5.45378">
        <ele>219.54</ele>
        <time>2015-05-22T16:01:56Z</time>
      </trkpt>
      <trkpt lat="45.80642" lon="5.45376">
        <ele>219.46</ele>
        <time>2015-05-22T16:01:57Z</time>
      </trkpt>
      <trkpt lat="45.80647" lon="5.45374">
        <ele>219.42</ele>
        <time>2015-05-22T16:01:58Z</time>
      </trkpt>
      <trkpt lat="45.80651" lon="5.45372">
        <ele>219.4</ele>
        <time>2015-05-22T16:01:59Z</time>
      </trkpt>
      <trkpt lat="45.80664" lon="5.45366">
        <ele>219.39</ele>
        <time>2015-05-22T16:02:02Z</time>
      </trkpt>
      <trkpt lat="45.80676" lon="5.45361">
        <ele>219.34</ele>
        <time>2015-05-22T16:02:05Z</time>
      </trkpt>
      <trkpt lat="45.80679" lon="5.45361">
        <ele>219.31</ele>
        <time>2015-05-22T16:02:06Z</time>
      </trkpt>
      <trkpt lat="45.80682" lon="5.4536">
        <ele>219.28</ele>
        <time>2015-05-22T16:02:07Z</time>
      </trkpt>
      <trkpt lat="45.80685" lon="5.45358">
        <ele>219.27</ele>
        <time>2015-05-22T16:02:08Z</time>
      </trkpt>
      <trkpt lat="45.80686" lon="5.45358">
        <ele>219.25</ele>
        <time>2015-05-22T16:02:09Z</time>
      </trkpt>
      <trkpt lat="45.80688" lon="5.45358">
        <ele>219.24</ele>
        <time>2015-05-22T16:02:10Z</time>
      </trkpt>
      <trkpt lat="45.80689" lon="5.45357">
        <ele>219.22</ele>
        <time>2015-05-22T16:02:11Z</time>
      </trkpt>
      <trkpt lat="45.80688" lon="5.45352">
        <ele>219.25</ele>
        <time>2015-05-22T16:02:14Z</time>
      </trkpt>
      <trkpt lat="45.80687" lon="5.4535">
        <ele>219.24</ele>
        <time>2015-05-22T16:02:15Z</time>
      </trkpt>
      <trkpt lat="45.80691" lon="5.4535">
        <ele>219.06</ele>
        <time>2015-05-22T16:02:28Z</time>
      </trkpt>
      <trkpt lat="45.807" lon="5.45354">
        <ele>219.19</ele>
        <time>2015-05-22T16:02:43Z</time>
      </trkpt>
      <trkpt lat="45.807" lon="5.45352">
        <ele>219.21</ele>
        <time>2015-05-22T16:02:46Z</time>
      </trkpt>
      <trkpt lat="45.80697" lon="5.45339">
        <ele>219.27</ele>
        <time>2015-05-22T16:03:20Z</time>
      </trkpt>
      <trkpt lat="45.80686" lon="5.45324">
        <ele>218.9</ele>
        <time>2015-05-22T16:03:40Z</time>
      </trkpt>
      <trkpt lat="45.80686" lon="5.45324">
        <ele>219.21</ele>
        <time>2015-05-22T16:03:44Z</time>
      </trkpt>
      <trkpt lat="45.80693" lon="5.45334">
        <ele>218.84</ele>
        <time>2015-05-22T16:03:57Z</time>
      </trkpt>
      <trkpt lat="45.80698" lon="5.45348">
        <ele>219.33</ele>
        <time>2015-05-22T16:05:06Z</time>
      </trkpt>
      <trkpt lat="45.8071" lon="5.45355">
        <ele>219.57</ele>
        <time>2015-05-22T16:05:50Z</time>
      </trkpt>
      <trkpt lat="45.80695" lon="5.45338">
        <ele>219.53</ele>
        <time>2015-05-22T16:06:46Z</time>
      </trkpt>
      <trkpt lat="45.80689" lon="5.45338">
        <ele>219.45</ele>
        <time>2015-05-22T16:06:50Z</time>
      </trkpt>
      <trkpt lat="45.80687" lon="5.45336">
        <ele>219.42</ele>
        <time>2015-05-22T16:06:51Z</time>
      </trkpt>
      <trkpt lat="45.80685" lon="5.45332">
        <ele>219.4</ele>
        <time>2015-05-22T16:06:52Z</time>
      </trkpt>
      <trkpt lat="45.80674" lon="5.4527">
        <ele>219.07</ele>
        <time>2015-05-22T16:07:04Z</time>
      </trkpt>
      <trkpt lat="45.80658" lon="5.45179">
        <ele>217.12</ele>
        <time>2015-05-22T16:07:16Z</time>
      </trkpt>
      <trkpt lat="45.80648" lon="5.45109">
        <ele>215.62</ele>
        <time>2015-05-22T16:07:24Z</time>
      </trkpt>
      <trkpt lat="45.80649" lon="5.45012">
        <ele>214.13</ele>
        <time>2015-05-22T16:07:35Z</time>
      </trkpt>
      <trkpt lat="45.8067" lon="5.44931">
        <ele>214</ele>
        <time>2015-05-22T16:07:47Z</time>
      </trkpt>
      <trkpt lat="45.80675" lon="5.4492">
        <ele>214</ele>
        <time>2015-05-22T16:07:49Z</time>
      </trkpt>
      <trkpt lat="45.80678" lon="5.44914">
        <ele>214.01</ele>
        <time>2015-05-22T16:07:50Z</time>
      </trkpt>
      <trkpt lat="45.80682" lon="5.44909">
        <ele>214.01</ele>
        <time>2015-05-22T16:07:51Z</time>
      </trkpt>
      <trkpt lat="45.80733" lon="5.44853">
        <ele>213.98</ele>
        <time>2015-05-22T16:08:03Z</time>
      </trkpt>
      <trkpt lat="45.80741" lon="5.44841">
        <ele>214.03</ele>
        <time>2015-05-22T16:08:05Z</time>
      </trkpt>
      <trkpt lat="45.80771" lon="5.44795">
        <ele>213.71</ele>
        <time>2015-05-22T16:08:14Z</time>
      </trkpt>
      <trkpt lat="45.80773" lon="5.44791">
        <ele>213.7</ele>
        <time>2015-05-22T16:08:15Z</time>
      </trkpt>
      <trkpt lat="45.80776" lon="5.44788">
        <ele>213.7</ele>
        <time>2015-05-22T16:08:16Z</time>
      </trkpt>
      <trkpt lat="45.80779" lon="5.44785">
        <ele>213.71</ele>
        <time>2015-05-22T16:08:17Z</time>
      </trkpt>
      <trkpt lat="45.80781" lon="5.44782">
        <ele>213.71</ele>
        <time>2015-05-22T16:08:18Z</time>
      </trkpt>
      <trkpt lat="45.80783" lon="5.44778">
        <ele>213.71</ele>
        <time>2015-05-22T16:08:19Z</time>
      </trkpt>
      <trkpt lat="45.80785" lon="5.44775">
        <ele>213.7</ele>
        <time>2015-05-22T16:08:20Z</time>
      </trkpt>
      <trkpt lat="45.80786" lon="5.4477">
        <ele>213.7</ele>
        <time>2015-05-22T16:08:21Z</time>
      </trkpt>
      <trkpt lat="45.80786" lon="5.44766">
        <ele>213.7</ele>
        <time>2015-05-22T16:08:22Z</time>
      </trkpt>
      <trkpt lat="45.80796" lon="5.44716">
        <ele>213.18</ele>
        <time>2015-05-22T16:08:34Z</time>
      </trkpt>
      <trkpt lat="45.80826" lon="5.4469">
        <ele>212.95</ele>
        <time>2015-05-22T16:08:43Z</time>
      </trkpt>
      <trkpt lat="45.80834" lon="5.44684">
        <ele>212.9</ele>
        <time>2015-05-22T16:08:45Z</time>
      </trkpt>
      <trkpt lat="45.80851" lon="5.44671">
        <ele>212.75</ele>
        <time>2015-05-22T16:08:49Z</time>
      </trkpt>
      <trkpt lat="45.80894" lon="5.44639">
        <ele>212.42</ele>
        <time>2015-05-22T16:08:59Z</time>
      </trkpt>
      <trkpt lat="45.80896" lon="5.44633">
        <ele>212.39</ele>
        <time>2015-05-22T16:09:00Z</time>
      </trkpt>
      <trkpt lat="45.80897" lon="5.44627">
        <ele>212.32</ele>
        <time>2015-05-22T16:09:01Z</time>
      </trkpt>
      <trkpt lat="45.80897" lon="5.44621">
        <ele>212.24</ele>
        <time>2015-05-22T16:09:02Z</time>
      </trkpt>
      <trkpt lat="45.80897" lon="5.44615">
        <ele>212.17</ele>
        <time>2015-05-22T16:09:03Z</time>
      </trkpt>
      <trkpt lat="45.80896" lon="5.44609">
        <ele>212.09</ele>
        <time>2015-05-22T16:09:04Z</time>
      </trkpt>
      <trkpt lat="45.80893" lon="5.44556">
        <ele>211.37</ele>
        <time>2015-05-22T16:09:12Z</time>
      </trkpt>
      <trkpt lat="45.80889" lon="5.44456">
        <ele>210.05</ele>
        <time>2015-05-22T16:09:24Z</time>
      </trkpt>
      <trkpt lat="45.80882" lon="5.44346">
        <ele>208.67</ele>
        <time>2015-05-22T16:09:36Z</time>
      </trkpt>
      <trkpt lat="45.8088" lon="5.4431">
        <ele>208.27</ele>
        <time>2015-05-22T16:09:40Z</time>
      </trkpt>
      <trkpt lat="45.8087" lon="5.44185">
        <ele>206</ele>
        <time>2015-05-22T16:09:55Z</time>
      </trkpt>
      <trkpt lat="45.80868" lon="5.44147">
        <ele>204.55</ele>
        <time>2015-05-22T16:10:04Z</time>
      </trkpt>
      <trkpt lat="45.80867" lon="5.44142">
        <ele>203.87</ele>
        <time>2015-05-22T16:10:17Z</time>
      </trkpt>
      <trkpt lat="45.80892" lon="5.44108">
        <ele>204.04</ele>
        <time>2015-05-22T16:10:27Z</time>
      </trkpt>
      <trkpt lat="45.80896" lon="5.44104">
        <ele>204</ele>
        <time>2015-05-22T16:10:28Z</time>
      </trkpt>
      <trkpt lat="45.80959" lon="5.44024">
        <ele>203.76</ele>
        <time>2015-05-22T16:10:43Z</time>
      </trkpt>
      <trkpt lat="45.81034" lon="5.43923">
        <ele>202.33</ele>
        <time>2015-05-22T16:11:00Z</time>
      </trkpt>
      <trkpt lat="45.81111" lon="5.43817">
        <ele>200.5</ele>
        <time>2015-05-22T16:11:17Z</time>
      </trkpt>
      <trkpt lat="45.81155" lon="5.43751">
        <ele>198.6</ele>
        <time>2015-05-22T16:11:27Z</time>
      </trkpt>
      <trkpt lat="45.8117" lon="5.43717">
        <ele>197.58</ele>
        <time>2015-05-22T16:11:31Z</time>
      </trkpt>
      <trkpt lat="45.81172" lon="5.43707">
        <ele>197.32</ele>
        <time>2015-05-22T16:11:32Z</time>
      </trkpt>
      <trkpt lat="45.81174" lon="5.43697">
        <ele>197.05</ele>
        <time>2015-05-22T16:11:33Z</time>
      </trkpt>
      <trkpt lat="45.81175" lon="5.43687">
        <ele>196.76</ele>
        <time>2015-05-22T16:11:34Z</time>
      </trkpt>
      <trkpt lat="45.81176" lon="5.43676">
        <ele>196.46</ele>
        <time>2015-05-22T16:11:35Z</time>
      </trkpt>
      <trkpt lat="45.81175" lon="5.43664">
        <ele>196.13</ele>
        <time>2015-05-22T16:11:36Z</time>
      </trkpt>
      <trkpt lat="45.81175" lon="5.43653">
        <ele>195.79</ele>
        <time>2015-05-22T16:11:37Z</time>
      </trkpt>
      <trkpt lat="45.81175" lon="5.43644">
        <ele>195.46</ele>
        <time>2015-05-22T16:11:38Z</time>
      </trkpt>
      <trkpt lat="45.81175" lon="5.43633">
        <ele>194.83</ele>
        <time>2015-05-22T16:11:39Z</time>
      </trkpt>
      <trkpt lat="45.81174" lon="5.43623">
        <ele>194.5</ele>
        <time>2015-05-22T16:11:40Z</time>
      </trkpt>
      <trkpt lat="45.81173" lon="5.43612">
        <ele>194.19</ele>
        <time>2015-05-22T16:11:41Z</time>
      </trkpt>
      <trkpt lat="45.81173" lon="5.4357">
        <ele>193.08</ele>
        <time>2015-05-22T16:11:45Z</time>
      </trkpt>
      <trkpt lat="45.81176" lon="5.43549">
        <ele>192.64</ele>
        <time>2015-05-22T16:11:47Z</time>
      </trkpt>
      <trkpt lat="45.81181" lon="5.4353">
        <ele>192.28</ele>
        <time>2015-05-22T16:11:49Z</time>
      </trkpt>
      <trkpt lat="45.81184" lon="5.43521">
        <ele>192.14</ele>
        <time>2015-05-22T16:11:50Z</time>
      </trkpt>
      <trkpt lat="45.81229" lon="5.43413">
        <ele>191.32</ele>
        <time>2015-05-22T16:12:03Z</time>
      </trkpt>
      <trkpt lat="45.81294" lon="5.43318">
        <ele>190.82</ele>
        <time>2015-05-22T16:12:17Z</time>
      </trkpt>
      <trkpt lat="45.81299" lon="5.43315">
        <ele>190.81</ele>
        <time>2015-05-22T16:12:18Z</time>
      </trkpt>
      <trkpt lat="45.81311" lon="5.43311">
        <ele>190.78</ele>
        <time>2015-05-22T16:12:20Z</time>
      </trkpt>
      <trkpt lat="45.8134" lon="5.43297">
        <ele>190.59</ele>
        <time>2015-05-22T16:12:26Z</time>
      </trkpt>
      <trkpt lat="45.81346" lon="5.43292">
        <ele>190.57</ele>
        <time>2015-05-22T16:12:27Z</time>
      </trkpt>
      <trkpt lat="45.81351" lon="5.43287">
        <ele>190.5</ele>
        <time>2015-05-22T16:12:28Z</time>
      </trkpt>
      <trkpt lat="45.81415" lon="5.4321">
        <ele>190.29</ele>
        <time>2015-05-22T16:12:41Z</time>
      </trkpt>
      <trkpt lat="45.81419" lon="5.43204">
        <ele>190.32</ele>
        <time>2015-05-22T16:12:42Z</time>
      </trkpt>
      <trkpt lat="45.81422" lon="5.43197">
        <ele>190.35</ele>
        <time>2015-05-22T16:12:43Z</time>
      </trkpt>
      <trkpt lat="45.81425" lon="5.43191">
        <ele>190.36</ele>
        <time>2015-05-22T16:12:44Z</time>
      </trkpt>
      <trkpt lat="45.81428" lon="5.43185">
        <ele>190.35</ele>
        <time>2015-05-22T16:12:45Z</time>
      </trkpt>
      <trkpt lat="45.81431" lon="5.43179">
        <ele>190.34</ele>
        <time>2015-05-22T16:12:46Z</time>
      </trkpt>
      <trkpt lat="45.81433" lon="5.43172">
        <ele>190.33</ele>
        <time>2015-05-22T16:12:47Z</time>
      </trkpt>
      <trkpt lat="45.81436" lon="5.43166">
        <ele>190.32</ele>
        <time>2015-05-22T16:12:48Z</time>
      </trkpt>
      <trkpt lat="45.8144" lon="5.43159">
        <ele>190.3</ele>
        <time>2015-05-22T16:12:49Z</time>
      </trkpt>
      <trkpt lat="45.81444" lon="5.43153">
        <ele>190.29</ele>
        <time>2015-05-22T16:12:50Z</time>
      </trkpt>
      <trkpt lat="45.81449" lon="5.43147">
        <ele>190.27</ele>
        <time>2015-05-22T16:12:51Z</time>
      </trkpt>
      <trkpt lat="45.81454" lon="5.43141">
        <ele>190.26</ele>
        <time>2015-05-22T16:12:52Z</time>
      </trkpt>
      <trkpt lat="45.81459" lon="5.43134">
        <ele>190.23</ele>
        <time>2015-05-22T16:12:53Z</time>
      </trkpt>
      <trkpt lat="45.81496" lon="5.43066">
        <ele>190.33</ele>
        <time>2015-05-22T16:13:03Z</time>
      </trkpt>
      <trkpt lat="45.81498" lon="5.43058">
        <ele>190.36</ele>
        <time>2015-05-22T16:13:04Z</time>
      </trkpt>
      <trkpt lat="45.81501" lon="5.4305">
        <ele>190.38</ele>
        <time>2015-05-22T16:13:05Z</time>
      </trkpt>
      <trkpt lat="45.81524" lon="5.42963">
        <ele>190.42</ele>
        <time>2015-05-22T16:13:16Z</time>
      </trkpt>
      <trkpt lat="45.81528" lon="5.42956">
        <ele>190.43</ele>
        <time>2015-05-22T16:13:17Z</time>
      </trkpt>
      <trkpt lat="45.81532" lon="5.4295">
        <ele>190.46</ele>
        <time>2015-05-22T16:13:18Z</time>
      </trkpt>
      <trkpt lat="45.81547" lon="5.4293">
        <ele>190.54</ele>
        <time>2015-05-22T16:13:22Z</time>
      </trkpt>
      <trkpt lat="45.8155" lon="5.42925">
        <ele>190.56</ele>
        <time>2015-05-22T16:13:23Z</time>
      </trkpt>
      <trkpt lat="45.81605" lon="5.42837">
        <ele>190.5</ele>
        <time>2015-05-22T16:13:37Z</time>
      </trkpt>
      <trkpt lat="45.81619" lon="5.42803">
        <ele>190.47</ele>
        <time>2015-05-22T16:13:42Z</time>
      </trkpt>
      <trkpt lat="45.8162" lon="5.42796">
        <ele>190.44</ele>
        <time>2015-05-22T16:13:43Z</time>
      </trkpt>
      <trkpt lat="45.81621" lon="5.42789">
        <ele>190.44</ele>
        <time>2015-05-22T16:13:44Z</time>
      </trkpt>
      <trkpt lat="45.81621" lon="5.42782">
        <ele>190.46</ele>
        <time>2015-05-22T16:13:45Z</time>
      </trkpt>
      <trkpt lat="45.8162" lon="5.42775">
        <ele>190.47</ele>
        <time>2015-05-22T16:13:46Z</time>
      </trkpt>
      <trkpt lat="45.81619" lon="5.42768">
        <ele>190.5</ele>
        <time>2015-05-22T16:13:47Z</time>
      </trkpt>
      <trkpt lat="45.81605" lon="5.42742">
        <ele>191.22</ele>
        <time>2015-05-22T16:13:56Z</time>
      </trkpt>
      <trkpt lat="45.81583" lon="5.42713">
        <ele>193.01</ele>
        <time>2015-05-22T16:14:07Z</time>
      </trkpt>
      <trkpt lat="45.81577" lon="5.42705">
        <ele>193.65</ele>
        <time>2015-05-22T16:14:12Z</time>
      </trkpt>
      <trkpt lat="45.81579" lon="5.42702">
        <ele>193.84</ele>
        <time>2015-05-22T16:14:27Z</time>
      </trkpt>
      <trkpt lat="45.81582" lon="5.42695">
        <ele>194.28</ele>
        <time>2015-05-22T16:14:48Z</time>
      </trkpt>
      <trkpt lat="45.81582" lon="5.42698">
        <ele>194.03</ele>
        <time>2015-05-22T16:15:11Z</time>
      </trkpt>
      <trkpt lat="45.81585" lon="5.42706">
        <ele>194.12</ele>
        <time>2015-05-22T16:15:53Z</time>
      </trkpt>
      <trkpt lat="45.81586" lon="5.42703">
        <ele>194.02</ele>
        <time>2015-05-22T16:16:38Z</time>
      </trkpt>
      <trkpt lat="45.81588" lon="5.42713">
        <ele>193.84</ele>
        <time>2015-05-22T16:17:14Z</time>
      </trkpt>
      <trkpt lat="45.81586" lon="5.42709">
        <ele>193.92</ele>
        <time>2015-05-22T16:17:58Z</time>
      </trkpt>
      <trkpt lat="45.81578" lon="5.42701">
        <ele>193.9</ele>
        <time>2015-05-22T16:18:27Z</time>
      </trkpt>
      <trkpt lat="45.81572" lon="5.42699">
        <ele>194.03</ele>
        <time>2015-05-22T16:18:33Z</time>
      </trkpt>
      <trkpt lat="45.8157" lon="5.42697">
        <ele>194.02</ele>
        <time>2015-05-22T16:18:34Z</time>
      </trkpt>
      <trkpt lat="45.81569" lon="5.42696">
        <ele>194.01</ele>
        <time>2015-05-22T16:18:35Z</time>
      </trkpt>
      <trkpt lat="45.81565" lon="5.42689">
        <ele>193.96</ele>
        <time>2015-05-22T16:18:37Z</time>
      </trkpt>
      <trkpt lat="45.81565" lon="5.42684">
        <ele>193.94</ele>
        <time>2015-05-22T16:18:38Z</time>
      </trkpt>
      <trkpt lat="45.81565" lon="5.4268">
        <ele>193.93</ele>
        <time>2015-05-22T16:18:39Z</time>
      </trkpt>
      <trkpt lat="45.81566" lon="5.42675">
        <ele>193.95</ele>
        <time>2015-05-22T16:18:40Z</time>
      </trkpt>
      <trkpt lat="45.81568" lon="5.42671">
        <ele>193.98</ele>
        <time>2015-05-22T16:18:41Z</time>
      </trkpt>
      <trkpt lat="45.8157" lon="5.42667">
        <ele>194</ele>
        <time>2015-05-22T16:18:42Z</time>
      </trkpt>
      <trkpt lat="45.81572" lon="5.42663">
        <ele>194.03</ele>
        <time>2015-05-22T16:18:43Z</time>
      </trkpt>
      <trkpt lat="45.81592" lon="5.42618">
        <ele>193.92</ele>
        <time>2015-05-22T16:18:55Z</time>
      </trkpt>
      <trkpt lat="45.81612" lon="5.4258">
        <ele>193.48</ele>
        <time>2015-05-22T16:19:09Z</time>
      </trkpt>
      <trkpt lat="45.81616" lon="5.42576">
        <ele>193.03</ele>
        <time>2015-05-22T16:19:22Z</time>
      </trkpt>
      <trkpt lat="45.81615" lon="5.42571">
        <ele>192.75</ele>
        <time>2015-05-22T16:19:30Z</time>
      </trkpt>
      <trkpt lat="45.81615" lon="5.42589">
        <ele>194.91</ele>
        <time>2015-05-22T16:59:14Z</time>
      </trkpt>
      <trkpt lat="45.81618" lon="5.4259">
        <ele>230.27</ele>
        <time>2015-05-22T16:59:15Z</time>
      </trkpt>
      <trkpt lat="45.81614" lon="5.42586">
        <ele>230.54</ele>
        <time>2015-05-22T16:59:26Z</time>
      </trkpt>
      <trkpt lat="45.81616" lon="5.42584">
        <ele>230.7</ele>
        <time>2015-05-22T16:59:47Z</time>
      </trkpt>
      <trkpt lat="45.81649" lon="5.4258">
        <ele>230</ele>
        <time>2015-05-22T18:40:56Z</time>
      </trkpt>
      <trkpt lat="45.81646" lon="5.42577">
        <ele>188.15</ele>
        <time>2015-05-22T18:40:57Z</time>
      </trkpt>
      <trkpt lat="45.81632" lon="5.42566">
        <ele>188.07</ele>
        <time>2015-05-22T18:41:09Z</time>
      </trkpt>
      <trkpt lat="45.8163" lon="5.42564">
        <ele>187.8</ele>
        <time>2015-05-22T18:41:41Z</time>
      </trkpt>
      <trkpt lat="45.81626" lon="5.42573">
        <ele>187.78</ele>
        <time>2015-05-22T18:42:14Z</time>
      </trkpt>
      <trkpt lat="45.81626" lon="5.42579">
        <ele>187.41</ele>
        <time>2015-05-22T18:43:02Z</time>
      </trkpt>
      <trkpt lat="45.81629" lon="5.4258">
        <ele>187.92</ele>
        <time>2015-05-22T18:43:35Z</time>
      </trkpt>
      <trkpt lat="45.81617" lon="5.42569">
        <ele>188.03</ele>
        <time>2015-05-22T18:44:09Z</time>
      </trkpt>
      <trkpt lat="45.81622" lon="5.42572">
        <ele>187.93</ele>
        <time>2015-05-22T18:44:44Z</time>
      </trkpt>
      <trkpt lat="45.81625" lon="5.42577">
        <ele>187.73</ele>
        <time>2015-05-22T18:45:17Z</time>
      </trkpt>
      <trkpt lat="45.81625" lon="5.42576">
        <ele>187.61</ele>
        <time>2015-05-22T18:45:49Z</time>
      </trkpt>
      <trkpt lat="45.81622" lon="5.42574">
        <ele>188.14</ele>
        <time>2015-05-22T18:46:19Z</time>
      </trkpt>
      <trkpt lat="45.81622" lon="5.42575">
        <ele>188.42</ele>
        <time>2015-05-22T18:46:51Z</time>
      </trkpt>
      <trkpt lat="45.81621" lon="5.42577">
        <ele>188.17</ele>
        <time>2015-05-22T18:47:26Z</time>
      </trkpt>
      <trkpt lat="45.81616" lon="5.42576">
        <ele>188.46</ele>
        <time>2015-05-22T18:47:55Z</time>
      </trkpt>
      <trkpt lat="45.81615" lon="5.42576">
        <ele>188.34</ele>
        <time>2015-05-22T18:48:10Z</time>
      </trkpt>
      <trkpt lat="45.81617" lon="5.42578">
        <ele>187.98</ele>
        <time>2015-05-22T18:48:44Z</time>
      </trkpt>
      <trkpt lat="45.81619" lon="5.42577">
        <ele>187.78</ele>
        <time>2015-05-22T18:48:55Z</time>
      </trkpt>
    </trkseg>
  </trk>
</gpx>